<?xml version="1.0" encoding="UTF-8" standalone="no" ?>
<gpx xmlns="http://www.topografix.com/GPX/1/1" xmlns:xsi="http://www.w3.org/2001/XMLSchema-instance" xsi:schemaLocation="http://www.topografix.com/GPX/1/1 http://www.topografix.com/GPX/1/1/gpx.xsd" version="1.1" creator="VisuGPX - https://www.visugpx.com">
  <metadata>
    <name>2017-05-16 Bike ride-Amberieux en Dombes O via Monthieux</name>
    <desc><![CDATA[2017-05-16 Bike ride-Amberieux en Dombes O via Monthieux]]></desc>
  </metadata>
  <wpt lat="45.92454" lon="4.73716">
    <ele>174</ele>
    <name><![CDATA[2017-05-16 10:28 (Start)]]></name>
  </wpt>
  <wpt lat="45.9246" lon="4.73705">
    <ele>174</ele>
    <name><![CDATA[2017-05-16 10:28 (End)]]></name>
    <desc><![CDATA[Created by Google My Tracks on Android  Name: 2017-05-16 10:28 Activity type: biking Description: - Total distance: 46.56 km (28.9 mi) Total time: 2:26:06 Moving time: 2:19:27 Average speed: 19.12 km/h (11.9 mi/h) Average moving speed: 20.03 km/h (12.4 mi/h) Max speed: 47.73 km/h (29.7 mi/h) Average pace: 3:08 min/km (5:03 min/mi) Average moving pace: 2:60 min/km (4:49 min/mi) Fastest pace: 1:15 min/km (2:01 min/mi) Max elevation: 316 m (1036 ft) Min elevation: 167 m (547 ft) Elevation gain: 630 m (2068 ft) Max grade: 10 % Min grade: -32 % Recorded: 16/05/2017 10:28]]></desc>
  </wpt>
  <trk>
    <name><![CDATA[2017-05-16 10:28]]></name>
    <trkseg>
      <trkpt lat="45.92454" lon="4.73716">
        <ele>174</ele>
        <time>2017-05-16T08:28:43.096Z</time>
      </trkpt>
      <trkpt lat="45.92462" lon="4.73713">
        <ele>174</ele>
        <time>2017-05-16T08:29:56Z</time>
      </trkpt>
      <trkpt lat="45.92463" lon="4.73711">
        <ele>174</ele>
        <time>2017-05-16T08:29:57Z</time>
      </trkpt>
      <trkpt lat="45.92465" lon="4.73699">
        <ele>174</ele>
        <time>2017-05-16T08:30:01Z</time>
      </trkpt>
      <trkpt lat="45.92465" lon="4.73695">
        <ele>174</ele>
        <time>2017-05-16T08:30:02Z</time>
      </trkpt>
      <trkpt lat="45.92466" lon="4.73686">
        <ele>174</ele>
        <time>2017-05-16T08:30:04Z</time>
      </trkpt>
      <trkpt lat="45.92467" lon="4.73682">
        <ele>174</ele>
        <time>2017-05-16T08:30:05Z</time>
      </trkpt>
      <trkpt lat="45.9247" lon="4.7367">
        <ele>174</ele>
        <time>2017-05-16T08:30:07Z</time>
      </trkpt>
      <trkpt lat="45.9247" lon="4.73664">
        <ele>174</ele>
        <time>2017-05-16T08:30:08Z</time>
      </trkpt>
      <trkpt lat="45.92473" lon="4.73653">
        <ele>174</ele>
        <time>2017-05-16T08:30:10Z</time>
      </trkpt>
      <trkpt lat="45.92474" lon="4.73649">
        <ele>174</ele>
        <time>2017-05-16T08:30:11Z</time>
      </trkpt>
      <trkpt lat="45.92482" lon="4.73645">
        <ele>174</ele>
        <time>2017-05-16T08:30:14Z</time>
      </trkpt>
      <trkpt lat="45.92484" lon="4.73645">
        <ele>174</ele>
        <time>2017-05-16T08:30:15Z</time>
      </trkpt>
      <trkpt lat="45.92492" lon="4.73645">
        <ele>174</ele>
        <time>2017-05-16T08:30:18Z</time>
      </trkpt>
      <trkpt lat="45.92496" lon="4.73645">
        <ele>174</ele>
        <time>2017-05-16T08:30:19Z</time>
      </trkpt>
      <trkpt lat="45.92502" lon="4.73645">
        <ele>174</ele>
        <time>2017-05-16T08:30:21Z</time>
      </trkpt>
      <trkpt lat="45.92505" lon="4.73644">
        <ele>174</ele>
        <time>2017-05-16T08:30:22Z</time>
      </trkpt>
      <trkpt lat="45.92512" lon="4.73644">
        <ele>174</ele>
        <time>2017-05-16T08:30:24Z</time>
      </trkpt>
      <trkpt lat="45.92516" lon="4.73644">
        <ele>174</ele>
        <time>2017-05-16T08:30:25Z</time>
      </trkpt>
      <trkpt lat="45.92524" lon="4.73644">
        <ele>173</ele>
        <time>2017-05-16T08:30:27Z</time>
      </trkpt>
      <trkpt lat="45.92528" lon="4.73643">
        <ele>173</ele>
        <time>2017-05-16T08:30:28Z</time>
      </trkpt>
      <trkpt lat="45.92533" lon="4.73643">
        <ele>173</ele>
        <time>2017-05-16T08:30:29Z</time>
      </trkpt>
      <trkpt lat="45.92537" lon="4.73642">
        <ele>173</ele>
        <time>2017-05-16T08:30:30Z</time>
      </trkpt>
      <trkpt lat="45.92542" lon="4.73641">
        <ele>173</ele>
        <time>2017-05-16T08:30:31Z</time>
      </trkpt>
      <trkpt lat="45.92547" lon="4.7364">
        <ele>173</ele>
        <time>2017-05-16T08:30:32Z</time>
      </trkpt>
      <trkpt lat="45.92551" lon="4.73639">
        <ele>173</ele>
        <time>2017-05-16T08:30:33Z</time>
      </trkpt>
      <trkpt lat="45.92556" lon="4.73637">
        <ele>173</ele>
        <time>2017-05-16T08:30:34Z</time>
      </trkpt>
      <trkpt lat="45.92561" lon="4.73636">
        <ele>173</ele>
        <time>2017-05-16T08:30:35Z</time>
      </trkpt>
      <trkpt lat="45.92565" lon="4.73635">
        <ele>173</ele>
        <time>2017-05-16T08:30:36Z</time>
      </trkpt>
      <trkpt lat="45.92574" lon="4.73633">
        <ele>173</ele>
        <time>2017-05-16T08:30:38Z</time>
      </trkpt>
      <trkpt lat="45.92576" lon="4.73631">
        <ele>173</ele>
        <time>2017-05-16T08:30:39Z</time>
      </trkpt>
      <trkpt lat="45.92585" lon="4.73629">
        <ele>172</ele>
        <time>2017-05-16T08:30:41Z</time>
      </trkpt>
      <trkpt lat="45.92589" lon="4.73628">
        <ele>172</ele>
        <time>2017-05-16T08:30:42Z</time>
      </trkpt>
      <trkpt lat="45.92594" lon="4.73628">
        <ele>172</ele>
        <time>2017-05-16T08:30:43Z</time>
      </trkpt>
      <trkpt lat="45.92598" lon="4.73628">
        <ele>172</ele>
        <time>2017-05-16T08:30:44Z</time>
      </trkpt>
      <trkpt lat="45.92603" lon="4.73629">
        <ele>173</ele>
        <time>2017-05-16T08:30:45Z</time>
      </trkpt>
      <trkpt lat="45.92607" lon="4.73632">
        <ele>173</ele>
        <time>2017-05-16T08:30:46Z</time>
      </trkpt>
      <trkpt lat="45.92611" lon="4.73636">
        <ele>173</ele>
        <time>2017-05-16T08:30:47Z</time>
      </trkpt>
      <trkpt lat="45.92615" lon="4.73644">
        <ele>173</ele>
        <time>2017-05-16T08:30:48Z</time>
      </trkpt>
      <trkpt lat="45.92618" lon="4.73651">
        <ele>173</ele>
        <time>2017-05-16T08:30:49Z</time>
      </trkpt>
      <trkpt lat="45.92622" lon="4.73657">
        <ele>173</ele>
        <time>2017-05-16T08:30:50Z</time>
      </trkpt>
      <trkpt lat="45.92625" lon="4.73664">
        <ele>173</ele>
        <time>2017-05-16T08:30:51Z</time>
      </trkpt>
      <trkpt lat="45.92628" lon="4.7367">
        <ele>173</ele>
        <time>2017-05-16T08:30:52Z</time>
      </trkpt>
      <trkpt lat="45.92631" lon="4.73676">
        <ele>173</ele>
        <time>2017-05-16T08:30:53Z</time>
      </trkpt>
      <trkpt lat="45.92635" lon="4.73682">
        <ele>173</ele>
        <time>2017-05-16T08:30:54Z</time>
      </trkpt>
      <trkpt lat="45.92639" lon="4.73687">
        <ele>173</ele>
        <time>2017-05-16T08:30:55Z</time>
      </trkpt>
      <trkpt lat="45.92643" lon="4.73692">
        <ele>173</ele>
        <time>2017-05-16T08:30:56Z</time>
      </trkpt>
      <trkpt lat="45.92648" lon="4.73697">
        <ele>173</ele>
        <time>2017-05-16T08:30:57Z</time>
      </trkpt>
      <trkpt lat="45.92653" lon="4.73701">
        <ele>173</ele>
        <time>2017-05-16T08:30:58Z</time>
      </trkpt>
      <trkpt lat="45.92658" lon="4.73705">
        <ele>173</ele>
        <time>2017-05-16T08:30:59Z</time>
      </trkpt>
      <trkpt lat="45.92663" lon="4.73708">
        <ele>173</ele>
        <time>2017-05-16T08:31:00Z</time>
      </trkpt>
      <trkpt lat="45.92669" lon="4.73711">
        <ele>174</ele>
        <time>2017-05-16T08:31:01Z</time>
      </trkpt>
      <trkpt lat="45.92674" lon="4.73713">
        <ele>174</ele>
        <time>2017-05-16T08:31:02Z</time>
      </trkpt>
      <trkpt lat="45.92679" lon="4.73715">
        <ele>173</ele>
        <time>2017-05-16T08:31:03Z</time>
      </trkpt>
      <trkpt lat="45.92685" lon="4.73716">
        <ele>173</ele>
        <time>2017-05-16T08:31:04Z</time>
      </trkpt>
      <trkpt lat="45.9269" lon="4.73717">
        <ele>173</ele>
        <time>2017-05-16T08:31:05Z</time>
      </trkpt>
      <trkpt lat="45.92696" lon="4.73719">
        <ele>173</ele>
        <time>2017-05-16T08:31:06Z</time>
      </trkpt>
      <trkpt lat="45.92701" lon="4.7372">
        <ele>173</ele>
        <time>2017-05-16T08:31:07Z</time>
      </trkpt>
      <trkpt lat="45.92707" lon="4.73721">
        <ele>173</ele>
        <time>2017-05-16T08:31:08Z</time>
      </trkpt>
      <trkpt lat="45.92713" lon="4.73722">
        <ele>173</ele>
        <time>2017-05-16T08:31:09Z</time>
      </trkpt>
      <trkpt lat="45.92719" lon="4.73723">
        <ele>173</ele>
        <time>2017-05-16T08:31:10Z</time>
      </trkpt>
      <trkpt lat="45.92724" lon="4.73724">
        <ele>173</ele>
        <time>2017-05-16T08:31:11Z</time>
      </trkpt>
      <trkpt lat="45.92729" lon="4.73726">
        <ele>173</ele>
        <time>2017-05-16T08:31:12Z</time>
      </trkpt>
      <trkpt lat="45.92735" lon="4.73727">
        <ele>173</ele>
        <time>2017-05-16T08:31:13Z</time>
      </trkpt>
      <trkpt lat="45.9274" lon="4.73728">
        <ele>173</ele>
        <time>2017-05-16T08:31:14Z</time>
      </trkpt>
      <trkpt lat="45.92746" lon="4.7373">
        <ele>173</ele>
        <time>2017-05-16T08:31:15Z</time>
      </trkpt>
      <trkpt lat="45.9275" lon="4.73731">
        <ele>172</ele>
        <time>2017-05-16T08:31:16Z</time>
      </trkpt>
      <trkpt lat="45.92756" lon="4.73731">
        <ele>172</ele>
        <time>2017-05-16T08:31:17Z</time>
      </trkpt>
      <trkpt lat="45.9276" lon="4.73732">
        <ele>172</ele>
        <time>2017-05-16T08:31:18Z</time>
      </trkpt>
      <trkpt lat="45.92768" lon="4.73735">
        <ele>172</ele>
        <time>2017-05-16T08:31:20Z</time>
      </trkpt>
      <trkpt lat="45.92772" lon="4.73737">
        <ele>172</ele>
        <time>2017-05-16T08:31:21Z</time>
      </trkpt>
      <trkpt lat="45.92779" lon="4.73733">
        <ele>172</ele>
        <time>2017-05-16T08:31:23Z</time>
      </trkpt>
      <trkpt lat="45.92782" lon="4.73728">
        <ele>172</ele>
        <time>2017-05-16T08:31:24Z</time>
      </trkpt>
      <trkpt lat="45.92783" lon="4.73722">
        <ele>172</ele>
        <time>2017-05-16T08:31:25Z</time>
      </trkpt>
      <trkpt lat="45.92784" lon="4.73715">
        <ele>172</ele>
        <time>2017-05-16T08:31:26Z</time>
      </trkpt>
      <trkpt lat="45.92785" lon="4.73708">
        <ele>172</ele>
        <time>2017-05-16T08:31:27Z</time>
      </trkpt>
      <trkpt lat="45.92786" lon="4.73701">
        <ele>172</ele>
        <time>2017-05-16T08:31:28Z</time>
      </trkpt>
      <trkpt lat="45.92788" lon="4.73694">
        <ele>172</ele>
        <time>2017-05-16T08:31:29Z</time>
      </trkpt>
      <trkpt lat="45.9279" lon="4.73687">
        <ele>172</ele>
        <time>2017-05-16T08:31:30Z</time>
      </trkpt>
      <trkpt lat="45.92792" lon="4.73679">
        <ele>172</ele>
        <time>2017-05-16T08:31:31Z</time>
      </trkpt>
      <trkpt lat="45.92794" lon="4.73672">
        <ele>172</ele>
        <time>2017-05-16T08:31:32Z</time>
      </trkpt>
      <trkpt lat="45.92797" lon="4.73666">
        <ele>172</ele>
        <time>2017-05-16T08:31:33Z</time>
      </trkpt>
      <trkpt lat="45.92798" lon="4.73659">
        <ele>172</ele>
        <time>2017-05-16T08:31:34Z</time>
      </trkpt>
      <trkpt lat="45.92801" lon="4.73652">
        <ele>172</ele>
        <time>2017-05-16T08:31:35Z</time>
      </trkpt>
      <trkpt lat="45.92803" lon="4.73646">
        <ele>172</ele>
        <time>2017-05-16T08:31:36Z</time>
      </trkpt>
      <trkpt lat="45.92805" lon="4.73641">
        <ele>172</ele>
        <time>2017-05-16T08:31:37Z</time>
      </trkpt>
      <trkpt lat="45.92809" lon="4.73636">
        <ele>172</ele>
        <time>2017-05-16T08:31:38Z</time>
      </trkpt>
      <trkpt lat="45.92812" lon="4.73631">
        <ele>172</ele>
        <time>2017-05-16T08:31:39Z</time>
      </trkpt>
      <trkpt lat="45.92815" lon="4.73626">
        <ele>172</ele>
        <time>2017-05-16T08:31:40Z</time>
      </trkpt>
      <trkpt lat="45.92817" lon="4.7362">
        <ele>172</ele>
        <time>2017-05-16T08:31:41Z</time>
      </trkpt>
      <trkpt lat="45.92817" lon="4.73614">
        <ele>172</ele>
        <time>2017-05-16T08:31:42Z</time>
      </trkpt>
      <trkpt lat="45.92817" lon="4.73607">
        <ele>172</ele>
        <time>2017-05-16T08:31:43Z</time>
      </trkpt>
      <trkpt lat="45.92817" lon="4.73599">
        <ele>171</ele>
        <time>2017-05-16T08:31:44Z</time>
      </trkpt>
      <trkpt lat="45.92818" lon="4.73591">
        <ele>171</ele>
        <time>2017-05-16T08:31:45Z</time>
      </trkpt>
      <trkpt lat="45.92818" lon="4.73583">
        <ele>171</ele>
        <time>2017-05-16T08:31:46Z</time>
      </trkpt>
      <trkpt lat="45.92819" lon="4.73576">
        <ele>171</ele>
        <time>2017-05-16T08:31:47Z</time>
      </trkpt>
      <trkpt lat="45.92819" lon="4.73568">
        <ele>171</ele>
        <time>2017-05-16T08:31:48Z</time>
      </trkpt>
      <trkpt lat="45.9282" lon="4.7356">
        <ele>171</ele>
        <time>2017-05-16T08:31:49Z</time>
      </trkpt>
      <trkpt lat="45.9282" lon="4.73552">
        <ele>171</ele>
        <time>2017-05-16T08:31:50Z</time>
      </trkpt>
      <trkpt lat="45.92821" lon="4.73545">
        <ele>171</ele>
        <time>2017-05-16T08:31:51Z</time>
      </trkpt>
      <trkpt lat="45.92822" lon="4.73537">
        <ele>172</ele>
        <time>2017-05-16T08:31:52Z</time>
      </trkpt>
      <trkpt lat="45.92822" lon="4.7353">
        <ele>172</ele>
        <time>2017-05-16T08:31:53Z</time>
      </trkpt>
      <trkpt lat="45.92823" lon="4.73522">
        <ele>172</ele>
        <time>2017-05-16T08:31:54Z</time>
      </trkpt>
      <trkpt lat="45.92824" lon="4.73514">
        <ele>172</ele>
        <time>2017-05-16T08:31:55Z</time>
      </trkpt>
      <trkpt lat="45.92825" lon="4.73507">
        <ele>172</ele>
        <time>2017-05-16T08:31:56Z</time>
      </trkpt>
      <trkpt lat="45.92826" lon="4.73499">
        <ele>172</ele>
        <time>2017-05-16T08:31:57Z</time>
      </trkpt>
      <trkpt lat="45.92827" lon="4.73491">
        <ele>172</ele>
        <time>2017-05-16T08:31:58Z</time>
      </trkpt>
      <trkpt lat="45.92828" lon="4.73482">
        <ele>172</ele>
        <time>2017-05-16T08:31:59Z</time>
      </trkpt>
      <trkpt lat="45.9283" lon="4.73473">
        <ele>172</ele>
        <time>2017-05-16T08:32:00Z</time>
      </trkpt>
      <trkpt lat="45.92831" lon="4.73465">
        <ele>172</ele>
        <time>2017-05-16T08:32:01Z</time>
      </trkpt>
      <trkpt lat="45.92832" lon="4.73456">
        <ele>172</ele>
        <time>2017-05-16T08:32:02Z</time>
      </trkpt>
      <trkpt lat="45.92833" lon="4.73447">
        <ele>172</ele>
        <time>2017-05-16T08:32:03Z</time>
      </trkpt>
      <trkpt lat="45.92834" lon="4.73439">
        <ele>172</ele>
        <time>2017-05-16T08:32:04Z</time>
      </trkpt>
      <trkpt lat="45.92835" lon="4.7343">
        <ele>172</ele>
        <time>2017-05-16T08:32:05Z</time>
      </trkpt>
      <trkpt lat="45.92836" lon="4.73421">
        <ele>172</ele>
        <time>2017-05-16T08:32:06Z</time>
      </trkpt>
      <trkpt lat="45.92837" lon="4.73413">
        <ele>172</ele>
        <time>2017-05-16T08:32:07Z</time>
      </trkpt>
      <trkpt lat="45.92838" lon="4.73404">
        <ele>172</ele>
        <time>2017-05-16T08:32:08Z</time>
      </trkpt>
      <trkpt lat="45.92839" lon="4.73395">
        <ele>172</ele>
        <time>2017-05-16T08:32:09Z</time>
      </trkpt>
      <trkpt lat="45.9284" lon="4.73386">
        <ele>172</ele>
        <time>2017-05-16T08:32:10Z</time>
      </trkpt>
      <trkpt lat="45.92842" lon="4.73377">
        <ele>172</ele>
        <time>2017-05-16T08:32:11Z</time>
      </trkpt>
      <trkpt lat="45.92842" lon="4.7337">
        <ele>171</ele>
        <time>2017-05-16T08:32:12Z</time>
      </trkpt>
      <trkpt lat="45.92843" lon="4.73362">
        <ele>171</ele>
        <time>2017-05-16T08:32:13Z</time>
      </trkpt>
      <trkpt lat="45.92844" lon="4.73354">
        <ele>171</ele>
        <time>2017-05-16T08:32:14Z</time>
      </trkpt>
      <trkpt lat="45.92846" lon="4.73347">
        <ele>171</ele>
        <time>2017-05-16T08:32:15Z</time>
      </trkpt>
      <trkpt lat="45.92846" lon="4.73338">
        <ele>171</ele>
        <time>2017-05-16T08:32:16Z</time>
      </trkpt>
      <trkpt lat="45.92847" lon="4.7333">
        <ele>171</ele>
        <time>2017-05-16T08:32:17Z</time>
      </trkpt>
      <trkpt lat="45.92849" lon="4.73322">
        <ele>171</ele>
        <time>2017-05-16T08:32:18Z</time>
      </trkpt>
      <trkpt lat="45.9285" lon="4.73314">
        <ele>171</ele>
        <time>2017-05-16T08:32:19Z</time>
      </trkpt>
      <trkpt lat="45.92851" lon="4.73306">
        <ele>171</ele>
        <time>2017-05-16T08:32:20Z</time>
      </trkpt>
      <trkpt lat="45.92852" lon="4.73297">
        <ele>171</ele>
        <time>2017-05-16T08:32:21Z</time>
      </trkpt>
      <trkpt lat="45.92853" lon="4.73288">
        <ele>171</ele>
        <time>2017-05-16T08:32:22Z</time>
      </trkpt>
      <trkpt lat="45.92854" lon="4.7328">
        <ele>171</ele>
        <time>2017-05-16T08:32:23Z</time>
      </trkpt>
      <trkpt lat="45.92855" lon="4.73272">
        <ele>171</ele>
        <time>2017-05-16T08:32:24Z</time>
      </trkpt>
      <trkpt lat="45.92856" lon="4.73263">
        <ele>171</ele>
        <time>2017-05-16T08:32:25Z</time>
      </trkpt>
      <trkpt lat="45.92858" lon="4.73255">
        <ele>171</ele>
        <time>2017-05-16T08:32:26Z</time>
      </trkpt>
      <trkpt lat="45.92859" lon="4.73247">
        <ele>171</ele>
        <time>2017-05-16T08:32:27Z</time>
      </trkpt>
      <trkpt lat="45.9286" lon="4.73239">
        <ele>171</ele>
        <time>2017-05-16T08:32:28Z</time>
      </trkpt>
      <trkpt lat="45.92861" lon="4.73231">
        <ele>171</ele>
        <time>2017-05-16T08:32:29Z</time>
      </trkpt>
      <trkpt lat="45.92862" lon="4.73223">
        <ele>171</ele>
        <time>2017-05-16T08:32:30Z</time>
      </trkpt>
      <trkpt lat="45.92863" lon="4.73215">
        <ele>171</ele>
        <time>2017-05-16T08:32:31Z</time>
      </trkpt>
      <trkpt lat="45.92864" lon="4.73207">
        <ele>171</ele>
        <time>2017-05-16T08:32:32Z</time>
      </trkpt>
      <trkpt lat="45.92864" lon="4.73199">
        <ele>171</ele>
        <time>2017-05-16T08:32:33Z</time>
      </trkpt>
      <trkpt lat="45.92865" lon="4.73191">
        <ele>171</ele>
        <time>2017-05-16T08:32:34Z</time>
      </trkpt>
      <trkpt lat="45.92866" lon="4.73183">
        <ele>171</ele>
        <time>2017-05-16T08:32:35Z</time>
      </trkpt>
      <trkpt lat="45.92867" lon="4.73175">
        <ele>171</ele>
        <time>2017-05-16T08:32:36Z</time>
      </trkpt>
      <trkpt lat="45.92868" lon="4.73166">
        <ele>171</ele>
        <time>2017-05-16T08:32:37Z</time>
      </trkpt>
      <trkpt lat="45.92869" lon="4.73158">
        <ele>171</ele>
        <time>2017-05-16T08:32:38Z</time>
      </trkpt>
      <trkpt lat="45.9287" lon="4.7315">
        <ele>171</ele>
        <time>2017-05-16T08:32:39Z</time>
      </trkpt>
      <trkpt lat="45.92871" lon="4.73141">
        <ele>171</ele>
        <time>2017-05-16T08:32:40Z</time>
      </trkpt>
      <trkpt lat="45.92872" lon="4.73133">
        <ele>171</ele>
        <time>2017-05-16T08:32:41Z</time>
      </trkpt>
      <trkpt lat="45.92874" lon="4.73125">
        <ele>171</ele>
        <time>2017-05-16T08:32:42Z</time>
      </trkpt>
      <trkpt lat="45.92876" lon="4.73117">
        <ele>172</ele>
        <time>2017-05-16T08:32:43Z</time>
      </trkpt>
      <trkpt lat="45.92878" lon="4.73109">
        <ele>172</ele>
        <time>2017-05-16T08:32:44Z</time>
      </trkpt>
      <trkpt lat="45.92881" lon="4.73101">
        <ele>172</ele>
        <time>2017-05-16T08:32:45Z</time>
      </trkpt>
      <trkpt lat="45.92884" lon="4.73093">
        <ele>172</ele>
        <time>2017-05-16T08:32:46Z</time>
      </trkpt>
      <trkpt lat="45.92887" lon="4.73086">
        <ele>172</ele>
        <time>2017-05-16T08:32:47Z</time>
      </trkpt>
      <trkpt lat="45.9289" lon="4.73079">
        <ele>172</ele>
        <time>2017-05-16T08:32:48Z</time>
      </trkpt>
      <trkpt lat="45.92894" lon="4.73072">
        <ele>172</ele>
        <time>2017-05-16T08:32:49Z</time>
      </trkpt>
      <trkpt lat="45.92897" lon="4.73065">
        <ele>172</ele>
        <time>2017-05-16T08:32:50Z</time>
      </trkpt>
      <trkpt lat="45.92901" lon="4.73059">
        <ele>172</ele>
        <time>2017-05-16T08:32:51Z</time>
      </trkpt>
      <trkpt lat="45.92904" lon="4.73052">
        <ele>172</ele>
        <time>2017-05-16T08:32:52Z</time>
      </trkpt>
      <trkpt lat="45.92908" lon="4.73046">
        <ele>172</ele>
        <time>2017-05-16T08:32:53Z</time>
      </trkpt>
      <trkpt lat="45.92912" lon="4.73041">
        <ele>172</ele>
        <time>2017-05-16T08:32:54Z</time>
      </trkpt>
      <trkpt lat="45.92916" lon="4.73035">
        <ele>172</ele>
        <time>2017-05-16T08:32:55Z</time>
      </trkpt>
      <trkpt lat="45.9292" lon="4.7303">
        <ele>171</ele>
        <time>2017-05-16T08:32:56Z</time>
      </trkpt>
      <trkpt lat="45.92924" lon="4.73024">
        <ele>171</ele>
        <time>2017-05-16T08:32:57Z</time>
      </trkpt>
      <trkpt lat="45.92928" lon="4.73019">
        <ele>171</ele>
        <time>2017-05-16T08:32:58Z</time>
      </trkpt>
      <trkpt lat="45.92933" lon="4.73013">
        <ele>171</ele>
        <time>2017-05-16T08:32:59Z</time>
      </trkpt>
      <trkpt lat="45.92938" lon="4.73007">
        <ele>171</ele>
        <time>2017-05-16T08:33:00Z</time>
      </trkpt>
      <trkpt lat="45.92942" lon="4.73002">
        <ele>171</ele>
        <time>2017-05-16T08:33:01Z</time>
      </trkpt>
      <trkpt lat="45.92946" lon="4.72996">
        <ele>171</ele>
        <time>2017-05-16T08:33:02Z</time>
      </trkpt>
      <trkpt lat="45.92951" lon="4.72991">
        <ele>171</ele>
        <time>2017-05-16T08:33:03Z</time>
      </trkpt>
      <trkpt lat="45.92956" lon="4.72985">
        <ele>171</ele>
        <time>2017-05-16T08:33:04Z</time>
      </trkpt>
      <trkpt lat="45.9296" lon="4.7298">
        <ele>171</ele>
        <time>2017-05-16T08:33:05Z</time>
      </trkpt>
      <trkpt lat="45.92965" lon="4.72974">
        <ele>171</ele>
        <time>2017-05-16T08:33:06Z</time>
      </trkpt>
      <trkpt lat="45.9297" lon="4.72969">
        <ele>171</ele>
        <time>2017-05-16T08:33:07Z</time>
      </trkpt>
      <trkpt lat="45.92974" lon="4.72963">
        <ele>171</ele>
        <time>2017-05-16T08:33:08Z</time>
      </trkpt>
      <trkpt lat="45.92979" lon="4.72957">
        <ele>171</ele>
        <time>2017-05-16T08:33:09Z</time>
      </trkpt>
      <trkpt lat="45.92983" lon="4.72952">
        <ele>171</ele>
        <time>2017-05-16T08:33:10Z</time>
      </trkpt>
      <trkpt lat="45.92988" lon="4.72946">
        <ele>171</ele>
        <time>2017-05-16T08:33:11Z</time>
      </trkpt>
      <trkpt lat="45.92993" lon="4.72937">
        <ele>171</ele>
        <time>2017-05-16T08:33:12Z</time>
      </trkpt>
      <trkpt lat="45.92998" lon="4.72932">
        <ele>171</ele>
        <time>2017-05-16T08:33:13Z</time>
      </trkpt>
      <trkpt lat="45.93003" lon="4.72926">
        <ele>170</ele>
        <time>2017-05-16T08:33:14Z</time>
      </trkpt>
      <trkpt lat="45.93008" lon="4.72919">
        <ele>170</ele>
        <time>2017-05-16T08:33:15Z</time>
      </trkpt>
      <trkpt lat="45.93013" lon="4.72914">
        <ele>171</ele>
        <time>2017-05-16T08:33:16Z</time>
      </trkpt>
      <trkpt lat="45.93017" lon="4.72909">
        <ele>171</ele>
        <time>2017-05-16T08:33:17Z</time>
      </trkpt>
      <trkpt lat="45.93022" lon="4.72903">
        <ele>172</ele>
        <time>2017-05-16T08:33:18Z</time>
      </trkpt>
      <trkpt lat="45.93026" lon="4.72898">
        <ele>172</ele>
        <time>2017-05-16T08:33:19Z</time>
      </trkpt>
      <trkpt lat="45.93031" lon="4.72892">
        <ele>172</ele>
        <time>2017-05-16T08:33:20Z</time>
      </trkpt>
      <trkpt lat="45.93035" lon="4.72887">
        <ele>172</ele>
        <time>2017-05-16T08:33:21Z</time>
      </trkpt>
      <trkpt lat="45.93039" lon="4.72881">
        <ele>172</ele>
        <time>2017-05-16T08:33:22Z</time>
      </trkpt>
      <trkpt lat="45.93043" lon="4.72876">
        <ele>172</ele>
        <time>2017-05-16T08:33:23Z</time>
      </trkpt>
      <trkpt lat="45.93048" lon="4.7287">
        <ele>172</ele>
        <time>2017-05-16T08:33:24Z</time>
      </trkpt>
      <trkpt lat="45.93053" lon="4.72864">
        <ele>172</ele>
        <time>2017-05-16T08:33:25Z</time>
      </trkpt>
      <trkpt lat="45.93057" lon="4.72859">
        <ele>172</ele>
        <time>2017-05-16T08:33:26Z</time>
      </trkpt>
      <trkpt lat="45.93061" lon="4.72854">
        <ele>172</ele>
        <time>2017-05-16T08:33:27Z</time>
      </trkpt>
      <trkpt lat="45.93066" lon="4.7285">
        <ele>172</ele>
        <time>2017-05-16T08:33:28Z</time>
      </trkpt>
      <trkpt lat="45.9307" lon="4.72845">
        <ele>172</ele>
        <time>2017-05-16T08:33:29Z</time>
      </trkpt>
      <trkpt lat="45.93074" lon="4.72841">
        <ele>173</ele>
        <time>2017-05-16T08:33:30Z</time>
      </trkpt>
      <trkpt lat="45.93078" lon="4.72837">
        <ele>173</ele>
        <time>2017-05-16T08:33:31Z</time>
      </trkpt>
      <trkpt lat="45.93082" lon="4.72832">
        <ele>173</ele>
        <time>2017-05-16T08:33:32Z</time>
      </trkpt>
      <trkpt lat="45.93087" lon="4.72827">
        <ele>172</ele>
        <time>2017-05-16T08:33:33Z</time>
      </trkpt>
      <trkpt lat="45.93091" lon="4.72821">
        <ele>172</ele>
        <time>2017-05-16T08:33:34Z</time>
      </trkpt>
      <trkpt lat="45.93097" lon="4.72813">
        <ele>172</ele>
        <time>2017-05-16T08:33:36Z</time>
      </trkpt>
      <trkpt lat="45.93106" lon="4.72806">
        <ele>171</ele>
        <time>2017-05-16T08:33:37Z</time>
      </trkpt>
      <trkpt lat="45.93112" lon="4.728">
        <ele>171</ele>
        <time>2017-05-16T08:33:38Z</time>
      </trkpt>
      <trkpt lat="45.93117" lon="4.72794">
        <ele>171</ele>
        <time>2017-05-16T08:33:39Z</time>
      </trkpt>
      <trkpt lat="45.93122" lon="4.72789">
        <ele>171</ele>
        <time>2017-05-16T08:33:40Z</time>
      </trkpt>
      <trkpt lat="45.93127" lon="4.72783">
        <ele>171</ele>
        <time>2017-05-16T08:33:41Z</time>
      </trkpt>
      <trkpt lat="45.93132" lon="4.72778">
        <ele>171</ele>
        <time>2017-05-16T08:33:42Z</time>
      </trkpt>
      <trkpt lat="45.93138" lon="4.72774">
        <ele>171</ele>
        <time>2017-05-16T08:33:43Z</time>
      </trkpt>
      <trkpt lat="45.93142" lon="4.72769">
        <ele>171</ele>
        <time>2017-05-16T08:33:44Z</time>
      </trkpt>
      <trkpt lat="45.93146" lon="4.72762">
        <ele>171</ele>
        <time>2017-05-16T08:33:45Z</time>
      </trkpt>
      <trkpt lat="45.93151" lon="4.72757">
        <ele>170</ele>
        <time>2017-05-16T08:33:46Z</time>
      </trkpt>
      <trkpt lat="45.93156" lon="4.72751">
        <ele>170</ele>
        <time>2017-05-16T08:33:47Z</time>
      </trkpt>
      <trkpt lat="45.93161" lon="4.72745">
        <ele>170</ele>
        <time>2017-05-16T08:33:48Z</time>
      </trkpt>
      <trkpt lat="45.93166" lon="4.72739">
        <ele>170</ele>
        <time>2017-05-16T08:33:49Z</time>
      </trkpt>
      <trkpt lat="45.93171" lon="4.72733">
        <ele>170</ele>
        <time>2017-05-16T08:33:50Z</time>
      </trkpt>
      <trkpt lat="45.93175" lon="4.72727">
        <ele>170</ele>
        <time>2017-05-16T08:33:51Z</time>
      </trkpt>
      <trkpt lat="45.9318" lon="4.7272">
        <ele>169</ele>
        <time>2017-05-16T08:33:52Z</time>
      </trkpt>
      <trkpt lat="45.93185" lon="4.72715">
        <ele>169</ele>
        <time>2017-05-16T08:33:53Z</time>
      </trkpt>
      <trkpt lat="45.9319" lon="4.72709">
        <ele>169</ele>
        <time>2017-05-16T08:33:54Z</time>
      </trkpt>
      <trkpt lat="45.93195" lon="4.72703">
        <ele>169</ele>
        <time>2017-05-16T08:33:55Z</time>
      </trkpt>
      <trkpt lat="45.93199" lon="4.72698">
        <ele>169</ele>
        <time>2017-05-16T08:33:56Z</time>
      </trkpt>
      <trkpt lat="45.93204" lon="4.72692">
        <ele>169</ele>
        <time>2017-05-16T08:33:57Z</time>
      </trkpt>
      <trkpt lat="45.93208" lon="4.72687">
        <ele>169</ele>
        <time>2017-05-16T08:33:58Z</time>
      </trkpt>
      <trkpt lat="45.93213" lon="4.72681">
        <ele>169</ele>
        <time>2017-05-16T08:33:59Z</time>
      </trkpt>
      <trkpt lat="45.93218" lon="4.72676">
        <ele>169</ele>
        <time>2017-05-16T08:34:00Z</time>
      </trkpt>
      <trkpt lat="45.93223" lon="4.72671">
        <ele>169</ele>
        <time>2017-05-16T08:34:01Z</time>
      </trkpt>
      <trkpt lat="45.93228" lon="4.72665">
        <ele>169</ele>
        <time>2017-05-16T08:34:02Z</time>
      </trkpt>
      <trkpt lat="45.93233" lon="4.72659">
        <ele>169</ele>
        <time>2017-05-16T08:34:03Z</time>
      </trkpt>
      <trkpt lat="45.93238" lon="4.72653">
        <ele>169</ele>
        <time>2017-05-16T08:34:04Z</time>
      </trkpt>
      <trkpt lat="45.93243" lon="4.72647">
        <ele>170</ele>
        <time>2017-05-16T08:34:05Z</time>
      </trkpt>
      <trkpt lat="45.93248" lon="4.72641">
        <ele>170</ele>
        <time>2017-05-16T08:34:06Z</time>
      </trkpt>
      <trkpt lat="45.93252" lon="4.72636">
        <ele>170</ele>
        <time>2017-05-16T08:34:07Z</time>
      </trkpt>
      <trkpt lat="45.93257" lon="4.7263">
        <ele>170</ele>
        <time>2017-05-16T08:34:08Z</time>
      </trkpt>
      <trkpt lat="45.93262" lon="4.72624">
        <ele>170</ele>
        <time>2017-05-16T08:34:09Z</time>
      </trkpt>
      <trkpt lat="45.93266" lon="4.72619">
        <ele>170</ele>
        <time>2017-05-16T08:34:10Z</time>
      </trkpt>
      <trkpt lat="45.93271" lon="4.72614">
        <ele>170</ele>
        <time>2017-05-16T08:34:11Z</time>
      </trkpt>
      <trkpt lat="45.93275" lon="4.72609">
        <ele>170</ele>
        <time>2017-05-16T08:34:12Z</time>
      </trkpt>
      <trkpt lat="45.9328" lon="4.72603">
        <ele>170</ele>
        <time>2017-05-16T08:34:13Z</time>
      </trkpt>
      <trkpt lat="45.93284" lon="4.72598">
        <ele>170</ele>
        <time>2017-05-16T08:34:14Z</time>
      </trkpt>
      <trkpt lat="45.93289" lon="4.72592">
        <ele>170</ele>
        <time>2017-05-16T08:34:15Z</time>
      </trkpt>
      <trkpt lat="45.93294" lon="4.72587">
        <ele>170</ele>
        <time>2017-05-16T08:34:16Z</time>
      </trkpt>
      <trkpt lat="45.93299" lon="4.72582">
        <ele>171</ele>
        <time>2017-05-16T08:34:17Z</time>
      </trkpt>
      <trkpt lat="45.93303" lon="4.72576">
        <ele>171</ele>
        <time>2017-05-16T08:34:18Z</time>
      </trkpt>
      <trkpt lat="45.93308" lon="4.7257">
        <ele>171</ele>
        <time>2017-05-16T08:34:19Z</time>
      </trkpt>
      <trkpt lat="45.93314" lon="4.72564">
        <ele>171</ele>
        <time>2017-05-16T08:34:20Z</time>
      </trkpt>
      <trkpt lat="45.93319" lon="4.72559">
        <ele>171</ele>
        <time>2017-05-16T08:34:21Z</time>
      </trkpt>
      <trkpt lat="45.93324" lon="4.72554">
        <ele>172</ele>
        <time>2017-05-16T08:34:22Z</time>
      </trkpt>
      <trkpt lat="45.93329" lon="4.72549">
        <ele>172</ele>
        <time>2017-05-16T08:34:23Z</time>
      </trkpt>
      <trkpt lat="45.93334" lon="4.72543">
        <ele>171</ele>
        <time>2017-05-16T08:34:24Z</time>
      </trkpt>
      <trkpt lat="45.93338" lon="4.72538">
        <ele>171</ele>
        <time>2017-05-16T08:34:25Z</time>
      </trkpt>
      <trkpt lat="45.93343" lon="4.72533">
        <ele>172</ele>
        <time>2017-05-16T08:34:26Z</time>
      </trkpt>
      <trkpt lat="45.93347" lon="4.72529">
        <ele>172</ele>
        <time>2017-05-16T08:34:27Z</time>
      </trkpt>
      <trkpt lat="45.93351" lon="4.72524">
        <ele>172</ele>
        <time>2017-05-16T08:34:28Z</time>
      </trkpt>
      <trkpt lat="45.93355" lon="4.72519">
        <ele>172</ele>
        <time>2017-05-16T08:34:29Z</time>
      </trkpt>
      <trkpt lat="45.9336" lon="4.72514">
        <ele>172</ele>
        <time>2017-05-16T08:34:30Z</time>
      </trkpt>
      <trkpt lat="45.93364" lon="4.72509">
        <ele>172</ele>
        <time>2017-05-16T08:34:31Z</time>
      </trkpt>
      <trkpt lat="45.93368" lon="4.72504">
        <ele>172</ele>
        <time>2017-05-16T08:34:32Z</time>
      </trkpt>
      <trkpt lat="45.93372" lon="4.72499">
        <ele>173</ele>
        <time>2017-05-16T08:34:33Z</time>
      </trkpt>
      <trkpt lat="45.93376" lon="4.72494">
        <ele>173</ele>
        <time>2017-05-16T08:34:34Z</time>
      </trkpt>
      <trkpt lat="45.93381" lon="4.72489">
        <ele>173</ele>
        <time>2017-05-16T08:34:35Z</time>
      </trkpt>
      <trkpt lat="45.93385" lon="4.72484">
        <ele>173</ele>
        <time>2017-05-16T08:34:36Z</time>
      </trkpt>
      <trkpt lat="45.93389" lon="4.72478">
        <ele>173</ele>
        <time>2017-05-16T08:34:37Z</time>
      </trkpt>
      <trkpt lat="45.93393" lon="4.72472">
        <ele>173</ele>
        <time>2017-05-16T08:34:38Z</time>
      </trkpt>
      <trkpt lat="45.93395" lon="4.72466">
        <ele>173</ele>
        <time>2017-05-16T08:34:39Z</time>
      </trkpt>
      <trkpt lat="45.93398" lon="4.72459">
        <ele>173</ele>
        <time>2017-05-16T08:34:40Z</time>
      </trkpt>
      <trkpt lat="45.93399" lon="4.72452">
        <ele>173</ele>
        <time>2017-05-16T08:34:41Z</time>
      </trkpt>
      <trkpt lat="45.93401" lon="4.72445">
        <ele>173</ele>
        <time>2017-05-16T08:34:42Z</time>
      </trkpt>
      <trkpt lat="45.93404" lon="4.72438">
        <ele>173</ele>
        <time>2017-05-16T08:34:43Z</time>
      </trkpt>
      <trkpt lat="45.93407" lon="4.72432">
        <ele>173</ele>
        <time>2017-05-16T08:34:44Z</time>
      </trkpt>
      <trkpt lat="45.93411" lon="4.72427">
        <ele>174</ele>
        <time>2017-05-16T08:34:45Z</time>
      </trkpt>
      <trkpt lat="45.93416" lon="4.72423">
        <ele>174</ele>
        <time>2017-05-16T08:34:46Z</time>
      </trkpt>
      <trkpt lat="45.93422" lon="4.72419">
        <ele>174</ele>
        <time>2017-05-16T08:34:47Z</time>
      </trkpt>
      <trkpt lat="45.93427" lon="4.72416">
        <ele>174</ele>
        <time>2017-05-16T08:34:48Z</time>
      </trkpt>
      <trkpt lat="45.93432" lon="4.72413">
        <ele>174</ele>
        <time>2017-05-16T08:34:49Z</time>
      </trkpt>
      <trkpt lat="45.93438" lon="4.7241">
        <ele>174</ele>
        <time>2017-05-16T08:34:50Z</time>
      </trkpt>
      <trkpt lat="45.93443" lon="4.72407">
        <ele>173</ele>
        <time>2017-05-16T08:34:51Z</time>
      </trkpt>
      <trkpt lat="45.93449" lon="4.72403">
        <ele>173</ele>
        <time>2017-05-16T08:34:52Z</time>
      </trkpt>
      <trkpt lat="45.93454" lon="4.72399">
        <ele>173</ele>
        <time>2017-05-16T08:34:53Z</time>
      </trkpt>
      <trkpt lat="45.93459" lon="4.72394">
        <ele>173</ele>
        <time>2017-05-16T08:34:54Z</time>
      </trkpt>
      <trkpt lat="45.93464" lon="4.72388">
        <ele>173</ele>
        <time>2017-05-16T08:34:55Z</time>
      </trkpt>
      <trkpt lat="45.93468" lon="4.72382">
        <ele>173</ele>
        <time>2017-05-16T08:34:56Z</time>
      </trkpt>
      <trkpt lat="45.93473" lon="4.72376">
        <ele>173</ele>
        <time>2017-05-16T08:34:57Z</time>
      </trkpt>
      <trkpt lat="45.93477" lon="4.7237">
        <ele>173</ele>
        <time>2017-05-16T08:34:58Z</time>
      </trkpt>
      <trkpt lat="45.93481" lon="4.72363">
        <ele>173</ele>
        <time>2017-05-16T08:34:59Z</time>
      </trkpt>
      <trkpt lat="45.93485" lon="4.72357">
        <ele>173</ele>
        <time>2017-05-16T08:35:00Z</time>
      </trkpt>
      <trkpt lat="45.9349" lon="4.72351">
        <ele>173</ele>
        <time>2017-05-16T08:35:01Z</time>
      </trkpt>
      <trkpt lat="45.93494" lon="4.72346">
        <ele>173</ele>
        <time>2017-05-16T08:35:02Z</time>
      </trkpt>
      <trkpt lat="45.93498" lon="4.7234">
        <ele>173</ele>
        <time>2017-05-16T08:35:03Z</time>
      </trkpt>
      <trkpt lat="45.93501" lon="4.72333">
        <ele>173</ele>
        <time>2017-05-16T08:35:04Z</time>
      </trkpt>
      <trkpt lat="45.93505" lon="4.72328">
        <ele>173</ele>
        <time>2017-05-16T08:35:05Z</time>
      </trkpt>
      <trkpt lat="45.93509" lon="4.72323">
        <ele>173</ele>
        <time>2017-05-16T08:35:06Z</time>
      </trkpt>
      <trkpt lat="45.93513" lon="4.72318">
        <ele>173</ele>
        <time>2017-05-16T08:35:07Z</time>
      </trkpt>
      <trkpt lat="45.93517" lon="4.72312">
        <ele>173</ele>
        <time>2017-05-16T08:35:08Z</time>
      </trkpt>
      <trkpt lat="45.9352" lon="4.72306">
        <ele>173</ele>
        <time>2017-05-16T08:35:09Z</time>
      </trkpt>
      <trkpt lat="45.93523" lon="4.723">
        <ele>172</ele>
        <time>2017-05-16T08:35:10Z</time>
      </trkpt>
      <trkpt lat="45.93525" lon="4.72293">
        <ele>172</ele>
        <time>2017-05-16T08:35:11Z</time>
      </trkpt>
      <trkpt lat="45.93528" lon="4.72286">
        <ele>172</ele>
        <time>2017-05-16T08:35:12Z</time>
      </trkpt>
      <trkpt lat="45.9353" lon="4.7228">
        <ele>172</ele>
        <time>2017-05-16T08:35:13Z</time>
      </trkpt>
      <trkpt lat="45.93533" lon="4.72273">
        <ele>172</ele>
        <time>2017-05-16T08:35:14Z</time>
      </trkpt>
      <trkpt lat="45.93536" lon="4.72266">
        <ele>172</ele>
        <time>2017-05-16T08:35:15Z</time>
      </trkpt>
      <trkpt lat="45.93539" lon="4.72259">
        <ele>172</ele>
        <time>2017-05-16T08:35:16Z</time>
      </trkpt>
      <trkpt lat="45.93541" lon="4.72252">
        <ele>172</ele>
        <time>2017-05-16T08:35:17Z</time>
      </trkpt>
      <trkpt lat="45.93544" lon="4.72246">
        <ele>172</ele>
        <time>2017-05-16T08:35:18Z</time>
      </trkpt>
      <trkpt lat="45.93546" lon="4.72239">
        <ele>172</ele>
        <time>2017-05-16T08:35:19Z</time>
      </trkpt>
      <trkpt lat="45.9355" lon="4.72233">
        <ele>172</ele>
        <time>2017-05-16T08:35:20Z</time>
      </trkpt>
      <trkpt lat="45.93553" lon="4.72228">
        <ele>173</ele>
        <time>2017-05-16T08:35:21Z</time>
      </trkpt>
      <trkpt lat="45.93559" lon="4.72227">
        <ele>173</ele>
        <time>2017-05-16T08:35:22Z</time>
      </trkpt>
      <trkpt lat="45.93565" lon="4.72229">
        <ele>173</ele>
        <time>2017-05-16T08:35:23Z</time>
      </trkpt>
      <trkpt lat="45.9357" lon="4.72233">
        <ele>173</ele>
        <time>2017-05-16T08:35:24Z</time>
      </trkpt>
      <trkpt lat="45.93574" lon="4.72239">
        <ele>173</ele>
        <time>2017-05-16T08:35:25Z</time>
      </trkpt>
      <trkpt lat="45.93577" lon="4.72245">
        <ele>173</ele>
        <time>2017-05-16T08:35:26Z</time>
      </trkpt>
      <trkpt lat="45.93581" lon="4.7225">
        <ele>173</ele>
        <time>2017-05-16T08:35:27Z</time>
      </trkpt>
      <trkpt lat="45.93585" lon="4.72254">
        <ele>173</ele>
        <time>2017-05-16T08:35:28Z</time>
      </trkpt>
      <trkpt lat="45.93589" lon="4.72259">
        <ele>173</ele>
        <time>2017-05-16T08:35:29Z</time>
      </trkpt>
      <trkpt lat="45.93593" lon="4.72263">
        <ele>173</ele>
        <time>2017-05-16T08:35:30Z</time>
      </trkpt>
      <trkpt lat="45.93597" lon="4.72267">
        <ele>173</ele>
        <time>2017-05-16T08:35:31Z</time>
      </trkpt>
      <trkpt lat="45.93601" lon="4.72271">
        <ele>173</ele>
        <time>2017-05-16T08:35:32Z</time>
      </trkpt>
      <trkpt lat="45.93606" lon="4.72275">
        <ele>172</ele>
        <time>2017-05-16T08:35:33Z</time>
      </trkpt>
      <trkpt lat="45.93611" lon="4.72279">
        <ele>172</ele>
        <time>2017-05-16T08:35:34Z</time>
      </trkpt>
      <trkpt lat="45.93615" lon="4.72283">
        <ele>172</ele>
        <time>2017-05-16T08:35:35Z</time>
      </trkpt>
      <trkpt lat="45.9362" lon="4.72288">
        <ele>172</ele>
        <time>2017-05-16T08:35:36Z</time>
      </trkpt>
      <trkpt lat="45.93624" lon="4.72292">
        <ele>172</ele>
        <time>2017-05-16T08:35:37Z</time>
      </trkpt>
      <trkpt lat="45.93629" lon="4.72296">
        <ele>172</ele>
        <time>2017-05-16T08:35:38Z</time>
      </trkpt>
      <trkpt lat="45.93634" lon="4.723">
        <ele>172</ele>
        <time>2017-05-16T08:35:39Z</time>
      </trkpt>
      <trkpt lat="45.93638" lon="4.72305">
        <ele>172</ele>
        <time>2017-05-16T08:35:40Z</time>
      </trkpt>
      <trkpt lat="45.93643" lon="4.72309">
        <ele>172</ele>
        <time>2017-05-16T08:35:41Z</time>
      </trkpt>
      <trkpt lat="45.93648" lon="4.72314">
        <ele>172</ele>
        <time>2017-05-16T08:35:42Z</time>
      </trkpt>
      <trkpt lat="45.93653" lon="4.72319">
        <ele>172</ele>
        <time>2017-05-16T08:35:43Z</time>
      </trkpt>
      <trkpt lat="45.93658" lon="4.72324">
        <ele>172</ele>
        <time>2017-05-16T08:35:44Z</time>
      </trkpt>
      <trkpt lat="45.93663" lon="4.72329">
        <ele>171</ele>
        <time>2017-05-16T08:35:45Z</time>
      </trkpt>
      <trkpt lat="45.93668" lon="4.72334">
        <ele>171</ele>
        <time>2017-05-16T08:35:46Z</time>
      </trkpt>
      <trkpt lat="45.93672" lon="4.7234">
        <ele>171</ele>
        <time>2017-05-16T08:35:47Z</time>
      </trkpt>
      <trkpt lat="45.93677" lon="4.72346">
        <ele>171</ele>
        <time>2017-05-16T08:35:48Z</time>
      </trkpt>
      <trkpt lat="45.93682" lon="4.72351">
        <ele>171</ele>
        <time>2017-05-16T08:35:49Z</time>
      </trkpt>
      <trkpt lat="45.93686" lon="4.72355">
        <ele>171</ele>
        <time>2017-05-16T08:35:50Z</time>
      </trkpt>
      <trkpt lat="45.93691" lon="4.7236">
        <ele>171</ele>
        <time>2017-05-16T08:35:51Z</time>
      </trkpt>
      <trkpt lat="45.93695" lon="4.72365">
        <ele>171</ele>
        <time>2017-05-16T08:35:52Z</time>
      </trkpt>
      <trkpt lat="45.93699" lon="4.72369">
        <ele>171</ele>
        <time>2017-05-16T08:35:53Z</time>
      </trkpt>
      <trkpt lat="45.93706" lon="4.72374">
        <ele>171</ele>
        <time>2017-05-16T08:35:54Z</time>
      </trkpt>
      <trkpt lat="45.93711" lon="4.72378">
        <ele>171</ele>
        <time>2017-05-16T08:35:55Z</time>
      </trkpt>
      <trkpt lat="45.93715" lon="4.72382">
        <ele>171</ele>
        <time>2017-05-16T08:35:56Z</time>
      </trkpt>
      <trkpt lat="45.9372" lon="4.72386">
        <ele>171</ele>
        <time>2017-05-16T08:35:57Z</time>
      </trkpt>
      <trkpt lat="45.93724" lon="4.7239">
        <ele>171</ele>
        <time>2017-05-16T08:35:58Z</time>
      </trkpt>
      <trkpt lat="45.93728" lon="4.72394">
        <ele>171</ele>
        <time>2017-05-16T08:35:59Z</time>
      </trkpt>
      <trkpt lat="45.93732" lon="4.72398">
        <ele>171</ele>
        <time>2017-05-16T08:36:00Z</time>
      </trkpt>
      <trkpt lat="45.93737" lon="4.72403">
        <ele>171</ele>
        <time>2017-05-16T08:36:01Z</time>
      </trkpt>
      <trkpt lat="45.93741" lon="4.72408">
        <ele>171</ele>
        <time>2017-05-16T08:36:02Z</time>
      </trkpt>
      <trkpt lat="45.93746" lon="4.72413">
        <ele>171</ele>
        <time>2017-05-16T08:36:03Z</time>
      </trkpt>
      <trkpt lat="45.93752" lon="4.72417">
        <ele>171</ele>
        <time>2017-05-16T08:36:04Z</time>
      </trkpt>
      <trkpt lat="45.93757" lon="4.72422">
        <ele>171</ele>
        <time>2017-05-16T08:36:05Z</time>
      </trkpt>
      <trkpt lat="45.93761" lon="4.72427">
        <ele>171</ele>
        <time>2017-05-16T08:36:06Z</time>
      </trkpt>
      <trkpt lat="45.93766" lon="4.72432">
        <ele>171</ele>
        <time>2017-05-16T08:36:07Z</time>
      </trkpt>
      <trkpt lat="45.93771" lon="4.72436">
        <ele>171</ele>
        <time>2017-05-16T08:36:08Z</time>
      </trkpt>
      <trkpt lat="45.93776" lon="4.72441">
        <ele>172</ele>
        <time>2017-05-16T08:36:09Z</time>
      </trkpt>
      <trkpt lat="45.9378" lon="4.72446">
        <ele>172</ele>
        <time>2017-05-16T08:36:10Z</time>
      </trkpt>
      <trkpt lat="45.93785" lon="4.72451">
        <ele>172</ele>
        <time>2017-05-16T08:36:11Z</time>
      </trkpt>
      <trkpt lat="45.9379" lon="4.72456">
        <ele>172</ele>
        <time>2017-05-16T08:36:12Z</time>
      </trkpt>
      <trkpt lat="45.93796" lon="4.7246">
        <ele>172</ele>
        <time>2017-05-16T08:36:13Z</time>
      </trkpt>
      <trkpt lat="45.93801" lon="4.72466">
        <ele>172</ele>
        <time>2017-05-16T08:36:14Z</time>
      </trkpt>
      <trkpt lat="45.93807" lon="4.72472">
        <ele>172</ele>
        <time>2017-05-16T08:36:15Z</time>
      </trkpt>
      <trkpt lat="45.93812" lon="4.72477">
        <ele>172</ele>
        <time>2017-05-16T08:36:16Z</time>
      </trkpt>
      <trkpt lat="45.93816" lon="4.72481">
        <ele>172</ele>
        <time>2017-05-16T08:36:17Z</time>
      </trkpt>
      <trkpt lat="45.93822" lon="4.72486">
        <ele>173</ele>
        <time>2017-05-16T08:36:18Z</time>
      </trkpt>
      <trkpt lat="45.93826" lon="4.7249">
        <ele>173</ele>
        <time>2017-05-16T08:36:19Z</time>
      </trkpt>
      <trkpt lat="45.93831" lon="4.72494">
        <ele>173</ele>
        <time>2017-05-16T08:36:20Z</time>
      </trkpt>
      <trkpt lat="45.93834" lon="4.72498">
        <ele>174</ele>
        <time>2017-05-16T08:36:21Z</time>
      </trkpt>
      <trkpt lat="45.93838" lon="4.72502">
        <ele>174</ele>
        <time>2017-05-16T08:36:22Z</time>
      </trkpt>
      <trkpt lat="45.93843" lon="4.72507">
        <ele>174</ele>
        <time>2017-05-16T08:36:23Z</time>
      </trkpt>
      <trkpt lat="45.93849" lon="4.72511">
        <ele>174</ele>
        <time>2017-05-16T08:36:24Z</time>
      </trkpt>
      <trkpt lat="45.93854" lon="4.72518">
        <ele>173</ele>
        <time>2017-05-16T08:36:25Z</time>
      </trkpt>
      <trkpt lat="45.93858" lon="4.72522">
        <ele>173</ele>
        <time>2017-05-16T08:36:26Z</time>
      </trkpt>
      <trkpt lat="45.93863" lon="4.72523">
        <ele>173</ele>
        <time>2017-05-16T08:36:27Z</time>
      </trkpt>
      <trkpt lat="45.93869" lon="4.72521">
        <ele>173</ele>
        <time>2017-05-16T08:36:28Z</time>
      </trkpt>
      <trkpt lat="45.93874" lon="4.72517">
        <ele>173</ele>
        <time>2017-05-16T08:36:29Z</time>
      </trkpt>
      <trkpt lat="45.93879" lon="4.72513">
        <ele>173</ele>
        <time>2017-05-16T08:36:30Z</time>
      </trkpt>
      <trkpt lat="45.93883" lon="4.72507">
        <ele>173</ele>
        <time>2017-05-16T08:36:31Z</time>
      </trkpt>
      <trkpt lat="45.93888" lon="4.72502">
        <ele>173</ele>
        <time>2017-05-16T08:36:32Z</time>
      </trkpt>
      <trkpt lat="45.93892" lon="4.72496">
        <ele>172</ele>
        <time>2017-05-16T08:36:33Z</time>
      </trkpt>
      <trkpt lat="45.93897" lon="4.72491">
        <ele>172</ele>
        <time>2017-05-16T08:36:34Z</time>
      </trkpt>
      <trkpt lat="45.93902" lon="4.72486">
        <ele>172</ele>
        <time>2017-05-16T08:36:35Z</time>
      </trkpt>
      <trkpt lat="45.93907" lon="4.7248">
        <ele>172</ele>
        <time>2017-05-16T08:36:36Z</time>
      </trkpt>
      <trkpt lat="45.93912" lon="4.72475">
        <ele>172</ele>
        <time>2017-05-16T08:36:37Z</time>
      </trkpt>
      <trkpt lat="45.93917" lon="4.72468">
        <ele>172</ele>
        <time>2017-05-16T08:36:38Z</time>
      </trkpt>
      <trkpt lat="45.93922" lon="4.72462">
        <ele>171</ele>
        <time>2017-05-16T08:36:39Z</time>
      </trkpt>
      <trkpt lat="45.93927" lon="4.72456">
        <ele>171</ele>
        <time>2017-05-16T08:36:40Z</time>
      </trkpt>
      <trkpt lat="45.93932" lon="4.7245">
        <ele>171</ele>
        <time>2017-05-16T08:36:41Z</time>
      </trkpt>
      <trkpt lat="45.93937" lon="4.72444">
        <ele>171</ele>
        <time>2017-05-16T08:36:42Z</time>
      </trkpt>
      <trkpt lat="45.93942" lon="4.72438">
        <ele>171</ele>
        <time>2017-05-16T08:36:43Z</time>
      </trkpt>
      <trkpt lat="45.93947" lon="4.72432">
        <ele>171</ele>
        <time>2017-05-16T08:36:44Z</time>
      </trkpt>
      <trkpt lat="45.93953" lon="4.72425">
        <ele>171</ele>
        <time>2017-05-16T08:36:45Z</time>
      </trkpt>
      <trkpt lat="45.93958" lon="4.72419">
        <ele>171</ele>
        <time>2017-05-16T08:36:46Z</time>
      </trkpt>
      <trkpt lat="45.93963" lon="4.72413">
        <ele>171</ele>
        <time>2017-05-16T08:36:47Z</time>
      </trkpt>
      <trkpt lat="45.93968" lon="4.72407">
        <ele>171</ele>
        <time>2017-05-16T08:36:48Z</time>
      </trkpt>
      <trkpt lat="45.93973" lon="4.72401">
        <ele>171</ele>
        <time>2017-05-16T08:36:49Z</time>
      </trkpt>
      <trkpt lat="45.93978" lon="4.72395">
        <ele>171</ele>
        <time>2017-05-16T08:36:50Z</time>
      </trkpt>
      <trkpt lat="45.93984" lon="4.72389">
        <ele>171</ele>
        <time>2017-05-16T08:36:51Z</time>
      </trkpt>
      <trkpt lat="45.93988" lon="4.72383">
        <ele>171</ele>
        <time>2017-05-16T08:36:52Z</time>
      </trkpt>
      <trkpt lat="45.93993" lon="4.72377">
        <ele>171</ele>
        <time>2017-05-16T08:36:53Z</time>
      </trkpt>
      <trkpt lat="45.93998" lon="4.72371">
        <ele>171</ele>
        <time>2017-05-16T08:36:54Z</time>
      </trkpt>
      <trkpt lat="45.94003" lon="4.72365">
        <ele>171</ele>
        <time>2017-05-16T08:36:55Z</time>
      </trkpt>
      <trkpt lat="45.94008" lon="4.72359">
        <ele>171</ele>
        <time>2017-05-16T08:36:56Z</time>
      </trkpt>
      <trkpt lat="45.94013" lon="4.72354">
        <ele>171</ele>
        <time>2017-05-16T08:36:57Z</time>
      </trkpt>
      <trkpt lat="45.94018" lon="4.72348">
        <ele>171</ele>
        <time>2017-05-16T08:36:58Z</time>
      </trkpt>
      <trkpt lat="45.94022" lon="4.72343">
        <ele>171</ele>
        <time>2017-05-16T08:36:59Z</time>
      </trkpt>
      <trkpt lat="45.94027" lon="4.72337">
        <ele>171</ele>
        <time>2017-05-16T08:37:00Z</time>
      </trkpt>
      <trkpt lat="45.94031" lon="4.72332">
        <ele>171</ele>
        <time>2017-05-16T08:37:01Z</time>
      </trkpt>
      <trkpt lat="45.94035" lon="4.72326">
        <ele>171</ele>
        <time>2017-05-16T08:37:02Z</time>
      </trkpt>
      <trkpt lat="45.94039" lon="4.72321">
        <ele>171</ele>
        <time>2017-05-16T08:37:03Z</time>
      </trkpt>
      <trkpt lat="45.94043" lon="4.72316">
        <ele>171</ele>
        <time>2017-05-16T08:37:04Z</time>
      </trkpt>
      <trkpt lat="45.94047" lon="4.72311">
        <ele>171</ele>
        <time>2017-05-16T08:37:05Z</time>
      </trkpt>
      <trkpt lat="45.9405" lon="4.72306">
        <ele>171</ele>
        <time>2017-05-16T08:37:06Z</time>
      </trkpt>
      <trkpt lat="45.94054" lon="4.72302">
        <ele>171</ele>
        <time>2017-05-16T08:37:07Z</time>
      </trkpt>
      <trkpt lat="45.94058" lon="4.72297">
        <ele>171</ele>
        <time>2017-05-16T08:37:08Z</time>
      </trkpt>
      <trkpt lat="45.94062" lon="4.72293">
        <ele>171</ele>
        <time>2017-05-16T08:37:09Z</time>
      </trkpt>
      <trkpt lat="45.94066" lon="4.72289">
        <ele>171</ele>
        <time>2017-05-16T08:37:10Z</time>
      </trkpt>
      <trkpt lat="45.9407" lon="4.72284">
        <ele>171</ele>
        <time>2017-05-16T08:37:11Z</time>
      </trkpt>
      <trkpt lat="45.94074" lon="4.72281">
        <ele>171</ele>
        <time>2017-05-16T08:37:12Z</time>
      </trkpt>
      <trkpt lat="45.94079" lon="4.72279">
        <ele>171</ele>
        <time>2017-05-16T08:37:13Z</time>
      </trkpt>
      <trkpt lat="45.94083" lon="4.72277">
        <ele>171</ele>
        <time>2017-05-16T08:37:14Z</time>
      </trkpt>
      <trkpt lat="45.94089" lon="4.72275">
        <ele>171</ele>
        <time>2017-05-16T08:37:15Z</time>
      </trkpt>
      <trkpt lat="45.94094" lon="4.72275">
        <ele>171</ele>
        <time>2017-05-16T08:37:16Z</time>
      </trkpt>
      <trkpt lat="45.94099" lon="4.72276">
        <ele>171</ele>
        <time>2017-05-16T08:37:17Z</time>
      </trkpt>
      <trkpt lat="45.94104" lon="4.72277">
        <ele>171</ele>
        <time>2017-05-16T08:37:18Z</time>
      </trkpt>
      <trkpt lat="45.94109" lon="4.72278">
        <ele>171</ele>
        <time>2017-05-16T08:37:19Z</time>
      </trkpt>
      <trkpt lat="45.94115" lon="4.7228">
        <ele>171</ele>
        <time>2017-05-16T08:37:20Z</time>
      </trkpt>
      <trkpt lat="45.9412" lon="4.72282">
        <ele>171</ele>
        <time>2017-05-16T08:37:21Z</time>
      </trkpt>
      <trkpt lat="45.94126" lon="4.72285">
        <ele>171</ele>
        <time>2017-05-16T08:37:22Z</time>
      </trkpt>
      <trkpt lat="45.94131" lon="4.72287">
        <ele>171</ele>
        <time>2017-05-16T08:37:23Z</time>
      </trkpt>
      <trkpt lat="45.94136" lon="4.7229">
        <ele>171</ele>
        <time>2017-05-16T08:37:24Z</time>
      </trkpt>
      <trkpt lat="45.94142" lon="4.72293">
        <ele>171</ele>
        <time>2017-05-16T08:37:25Z</time>
      </trkpt>
      <trkpt lat="45.94148" lon="4.72295">
        <ele>171</ele>
        <time>2017-05-16T08:37:26Z</time>
      </trkpt>
      <trkpt lat="45.94154" lon="4.72296">
        <ele>171</ele>
        <time>2017-05-16T08:37:27Z</time>
      </trkpt>
      <trkpt lat="45.94159" lon="4.72297">
        <ele>171</ele>
        <time>2017-05-16T08:37:28Z</time>
      </trkpt>
      <trkpt lat="45.94165" lon="4.72298">
        <ele>171</ele>
        <time>2017-05-16T08:37:29Z</time>
      </trkpt>
      <trkpt lat="45.94171" lon="4.72299">
        <ele>171</ele>
        <time>2017-05-16T08:37:30Z</time>
      </trkpt>
      <trkpt lat="45.94176" lon="4.72299">
        <ele>171</ele>
        <time>2017-05-16T08:37:31Z</time>
      </trkpt>
      <trkpt lat="45.94182" lon="4.72299">
        <ele>171</ele>
        <time>2017-05-16T08:37:32Z</time>
      </trkpt>
      <trkpt lat="45.94188" lon="4.723">
        <ele>171</ele>
        <time>2017-05-16T08:37:33Z</time>
      </trkpt>
      <trkpt lat="45.94193" lon="4.723">
        <ele>171</ele>
        <time>2017-05-16T08:37:34Z</time>
      </trkpt>
      <trkpt lat="45.94198" lon="4.723">
        <ele>171</ele>
        <time>2017-05-16T08:37:35Z</time>
      </trkpt>
      <trkpt lat="45.94203" lon="4.72299">
        <ele>171</ele>
        <time>2017-05-16T08:37:36Z</time>
      </trkpt>
      <trkpt lat="45.94208" lon="4.72299">
        <ele>171</ele>
        <time>2017-05-16T08:37:37Z</time>
      </trkpt>
      <trkpt lat="45.94213" lon="4.72298">
        <ele>171</ele>
        <time>2017-05-16T08:37:38Z</time>
      </trkpt>
      <trkpt lat="45.94218" lon="4.72297">
        <ele>171</ele>
        <time>2017-05-16T08:37:39Z</time>
      </trkpt>
      <trkpt lat="45.94223" lon="4.72296">
        <ele>171</ele>
        <time>2017-05-16T08:37:40Z</time>
      </trkpt>
      <trkpt lat="45.94228" lon="4.72294">
        <ele>171</ele>
        <time>2017-05-16T08:37:41Z</time>
      </trkpt>
      <trkpt lat="45.94233" lon="4.72293">
        <ele>171</ele>
        <time>2017-05-16T08:37:42Z</time>
      </trkpt>
      <trkpt lat="45.94238" lon="4.72292">
        <ele>171</ele>
        <time>2017-05-16T08:37:43Z</time>
      </trkpt>
      <trkpt lat="45.94243" lon="4.72291">
        <ele>171</ele>
        <time>2017-05-16T08:37:44Z</time>
      </trkpt>
      <trkpt lat="45.94247" lon="4.72289">
        <ele>171</ele>
        <time>2017-05-16T08:37:45Z</time>
      </trkpt>
      <trkpt lat="45.94252" lon="4.72286">
        <ele>171</ele>
        <time>2017-05-16T08:37:46Z</time>
      </trkpt>
      <trkpt lat="45.94257" lon="4.72284">
        <ele>171</ele>
        <time>2017-05-16T08:37:47Z</time>
      </trkpt>
      <trkpt lat="45.94264" lon="4.72281">
        <ele>171</ele>
        <time>2017-05-16T08:37:49Z</time>
      </trkpt>
      <trkpt lat="45.94267" lon="4.72281">
        <ele>171</ele>
        <time>2017-05-16T08:37:50Z</time>
      </trkpt>
      <trkpt lat="45.94273" lon="4.72288">
        <ele>171</ele>
        <time>2017-05-16T08:37:54Z</time>
      </trkpt>
      <trkpt lat="45.94276" lon="4.72292">
        <ele>171</ele>
        <time>2017-05-16T08:37:55Z</time>
      </trkpt>
      <trkpt lat="45.9428" lon="4.72303">
        <ele>171</ele>
        <time>2017-05-16T08:37:57Z</time>
      </trkpt>
      <trkpt lat="45.94283" lon="4.72308">
        <ele>171</ele>
        <time>2017-05-16T08:37:58Z</time>
      </trkpt>
      <trkpt lat="45.94286" lon="4.72314">
        <ele>171</ele>
        <time>2017-05-16T08:37:59Z</time>
      </trkpt>
      <trkpt lat="45.94289" lon="4.7232">
        <ele>171</ele>
        <time>2017-05-16T08:38:00Z</time>
      </trkpt>
      <trkpt lat="45.94292" lon="4.72325">
        <ele>171</ele>
        <time>2017-05-16T08:38:01Z</time>
      </trkpt>
      <trkpt lat="45.94295" lon="4.72331">
        <ele>171</ele>
        <time>2017-05-16T08:38:02Z</time>
      </trkpt>
      <trkpt lat="45.94298" lon="4.72338">
        <ele>172</ele>
        <time>2017-05-16T08:38:03Z</time>
      </trkpt>
      <trkpt lat="45.94301" lon="4.72344">
        <ele>172</ele>
        <time>2017-05-16T08:38:04Z</time>
      </trkpt>
      <trkpt lat="45.94304" lon="4.7235">
        <ele>172</ele>
        <time>2017-05-16T08:38:05Z</time>
      </trkpt>
      <trkpt lat="45.94307" lon="4.72357">
        <ele>172</ele>
        <time>2017-05-16T08:38:06Z</time>
      </trkpt>
      <trkpt lat="45.94309" lon="4.72364">
        <ele>172</ele>
        <time>2017-05-16T08:38:07Z</time>
      </trkpt>
      <trkpt lat="45.94312" lon="4.7237">
        <ele>172</ele>
        <time>2017-05-16T08:38:08Z</time>
      </trkpt>
      <trkpt lat="45.94315" lon="4.72376">
        <ele>172</ele>
        <time>2017-05-16T08:38:09Z</time>
      </trkpt>
      <trkpt lat="45.94317" lon="4.72383">
        <ele>172</ele>
        <time>2017-05-16T08:38:10Z</time>
      </trkpt>
      <trkpt lat="45.9432" lon="4.72389">
        <ele>172</ele>
        <time>2017-05-16T08:38:11Z</time>
      </trkpt>
      <trkpt lat="45.94323" lon="4.72395">
        <ele>172</ele>
        <time>2017-05-16T08:38:12Z</time>
      </trkpt>
      <trkpt lat="45.94325" lon="4.72401">
        <ele>173</ele>
        <time>2017-05-16T08:38:13Z</time>
      </trkpt>
      <trkpt lat="45.94328" lon="4.72408">
        <ele>173</ele>
        <time>2017-05-16T08:38:14Z</time>
      </trkpt>
      <trkpt lat="45.9433" lon="4.72414">
        <ele>173</ele>
        <time>2017-05-16T08:38:15Z</time>
      </trkpt>
      <trkpt lat="45.94333" lon="4.72421">
        <ele>173</ele>
        <time>2017-05-16T08:38:16Z</time>
      </trkpt>
      <trkpt lat="45.94335" lon="4.72427">
        <ele>173</ele>
        <time>2017-05-16T08:38:17Z</time>
      </trkpt>
      <trkpt lat="45.94338" lon="4.72434">
        <ele>173</ele>
        <time>2017-05-16T08:38:18Z</time>
      </trkpt>
      <trkpt lat="45.94341" lon="4.7244">
        <ele>173</ele>
        <time>2017-05-16T08:38:19Z</time>
      </trkpt>
      <trkpt lat="45.94344" lon="4.72447">
        <ele>173</ele>
        <time>2017-05-16T08:38:20Z</time>
      </trkpt>
      <trkpt lat="45.94347" lon="4.72454">
        <ele>173</ele>
        <time>2017-05-16T08:38:21Z</time>
      </trkpt>
      <trkpt lat="45.9435" lon="4.72461">
        <ele>173</ele>
        <time>2017-05-16T08:38:22Z</time>
      </trkpt>
      <trkpt lat="45.94354" lon="4.72469">
        <ele>173</ele>
        <time>2017-05-16T08:38:23Z</time>
      </trkpt>
      <trkpt lat="45.94357" lon="4.72475">
        <ele>173</ele>
        <time>2017-05-16T08:38:24Z</time>
      </trkpt>
      <trkpt lat="45.9436" lon="4.72482">
        <ele>173</ele>
        <time>2017-05-16T08:38:25Z</time>
      </trkpt>
      <trkpt lat="45.94363" lon="4.72488">
        <ele>173</ele>
        <time>2017-05-16T08:38:26Z</time>
      </trkpt>
      <trkpt lat="45.94365" lon="4.72495">
        <ele>173</ele>
        <time>2017-05-16T08:38:27Z</time>
      </trkpt>
      <trkpt lat="45.94367" lon="4.72501">
        <ele>173</ele>
        <time>2017-05-16T08:38:28Z</time>
      </trkpt>
      <trkpt lat="45.94369" lon="4.72508">
        <ele>173</ele>
        <time>2017-05-16T08:38:29Z</time>
      </trkpt>
      <trkpt lat="45.94371" lon="4.72514">
        <ele>173</ele>
        <time>2017-05-16T08:38:30Z</time>
      </trkpt>
      <trkpt lat="45.94373" lon="4.72521">
        <ele>173</ele>
        <time>2017-05-16T08:38:31Z</time>
      </trkpt>
      <trkpt lat="45.94374" lon="4.72528">
        <ele>173</ele>
        <time>2017-05-16T08:38:32Z</time>
      </trkpt>
      <trkpt lat="45.94376" lon="4.72534">
        <ele>174</ele>
        <time>2017-05-16T08:38:33Z</time>
      </trkpt>
      <trkpt lat="45.94378" lon="4.72541">
        <ele>174</ele>
        <time>2017-05-16T08:38:34Z</time>
      </trkpt>
      <trkpt lat="45.94379" lon="4.72549">
        <ele>173</ele>
        <time>2017-05-16T08:38:35Z</time>
      </trkpt>
      <trkpt lat="45.94381" lon="4.72556">
        <ele>173</ele>
        <time>2017-05-16T08:38:36Z</time>
      </trkpt>
      <trkpt lat="45.94382" lon="4.72564">
        <ele>173</ele>
        <time>2017-05-16T08:38:37Z</time>
      </trkpt>
      <trkpt lat="45.94384" lon="4.72571">
        <ele>173</ele>
        <time>2017-05-16T08:38:38Z</time>
      </trkpt>
      <trkpt lat="45.94385" lon="4.72578">
        <ele>173</ele>
        <time>2017-05-16T08:38:39Z</time>
      </trkpt>
      <trkpt lat="45.94386" lon="4.72586">
        <ele>173</ele>
        <time>2017-05-16T08:38:40Z</time>
      </trkpt>
      <trkpt lat="45.94387" lon="4.72594">
        <ele>173</ele>
        <time>2017-05-16T08:38:41Z</time>
      </trkpt>
      <trkpt lat="45.94389" lon="4.72601">
        <ele>173</ele>
        <time>2017-05-16T08:38:42Z</time>
      </trkpt>
      <trkpt lat="45.94391" lon="4.72609">
        <ele>173</ele>
        <time>2017-05-16T08:38:43Z</time>
      </trkpt>
      <trkpt lat="45.94392" lon="4.72616">
        <ele>173</ele>
        <time>2017-05-16T08:38:44Z</time>
      </trkpt>
      <trkpt lat="45.94393" lon="4.72623">
        <ele>173</ele>
        <time>2017-05-16T08:38:45Z</time>
      </trkpt>
      <trkpt lat="45.94394" lon="4.72631">
        <ele>174</ele>
        <time>2017-05-16T08:38:46Z</time>
      </trkpt>
      <trkpt lat="45.94395" lon="4.72638">
        <ele>174</ele>
        <time>2017-05-16T08:38:47Z</time>
      </trkpt>
      <trkpt lat="45.94396" lon="4.72645">
        <ele>174</ele>
        <time>2017-05-16T08:38:48Z</time>
      </trkpt>
      <trkpt lat="45.94397" lon="4.72653">
        <ele>174</ele>
        <time>2017-05-16T08:38:49Z</time>
      </trkpt>
      <trkpt lat="45.94399" lon="4.7266">
        <ele>174</ele>
        <time>2017-05-16T08:38:50Z</time>
      </trkpt>
      <trkpt lat="45.944" lon="4.72667">
        <ele>173</ele>
        <time>2017-05-16T08:38:51Z</time>
      </trkpt>
      <trkpt lat="45.94401" lon="4.72675">
        <ele>173</ele>
        <time>2017-05-16T08:38:52Z</time>
      </trkpt>
      <trkpt lat="45.94403" lon="4.72682">
        <ele>173</ele>
        <time>2017-05-16T08:38:53Z</time>
      </trkpt>
      <trkpt lat="45.94404" lon="4.7269">
        <ele>173</ele>
        <time>2017-05-16T08:38:54Z</time>
      </trkpt>
      <trkpt lat="45.94404" lon="4.72698">
        <ele>172</ele>
        <time>2017-05-16T08:38:55Z</time>
      </trkpt>
      <trkpt lat="45.94405" lon="4.72705">
        <ele>172</ele>
        <time>2017-05-16T08:38:56Z</time>
      </trkpt>
      <trkpt lat="45.94406" lon="4.72713">
        <ele>172</ele>
        <time>2017-05-16T08:38:57Z</time>
      </trkpt>
      <trkpt lat="45.94407" lon="4.72721">
        <ele>172</ele>
        <time>2017-05-16T08:38:58Z</time>
      </trkpt>
      <trkpt lat="45.94409" lon="4.7273">
        <ele>172</ele>
        <time>2017-05-16T08:38:59Z</time>
      </trkpt>
      <trkpt lat="45.9441" lon="4.72738">
        <ele>171</ele>
        <time>2017-05-16T08:39:00Z</time>
      </trkpt>
      <trkpt lat="45.9441" lon="4.72745">
        <ele>171</ele>
        <time>2017-05-16T08:39:01Z</time>
      </trkpt>
      <trkpt lat="45.94411" lon="4.72753">
        <ele>170</ele>
        <time>2017-05-16T08:39:02Z</time>
      </trkpt>
      <trkpt lat="45.94412" lon="4.7276">
        <ele>170</ele>
        <time>2017-05-16T08:39:03Z</time>
      </trkpt>
      <trkpt lat="45.94413" lon="4.72767">
        <ele>170</ele>
        <time>2017-05-16T08:39:04Z</time>
      </trkpt>
      <trkpt lat="45.94414" lon="4.72774">
        <ele>169</ele>
        <time>2017-05-16T08:39:05Z</time>
      </trkpt>
      <trkpt lat="45.94416" lon="4.72781">
        <ele>169</ele>
        <time>2017-05-16T08:39:06Z</time>
      </trkpt>
      <trkpt lat="45.94417" lon="4.72788">
        <ele>168</ele>
        <time>2017-05-16T08:39:07Z</time>
      </trkpt>
      <trkpt lat="45.94418" lon="4.72796">
        <ele>168</ele>
        <time>2017-05-16T08:39:08Z</time>
      </trkpt>
      <trkpt lat="45.9442" lon="4.72803">
        <ele>167</ele>
        <time>2017-05-16T08:39:09Z</time>
      </trkpt>
      <trkpt lat="45.94421" lon="4.7281">
        <ele>167</ele>
        <time>2017-05-16T08:39:10Z</time>
      </trkpt>
      <trkpt lat="45.94422" lon="4.72817">
        <ele>167</ele>
        <time>2017-05-16T08:39:11Z</time>
      </trkpt>
      <trkpt lat="45.94423" lon="4.72824">
        <ele>167</ele>
        <time>2017-05-16T08:39:12Z</time>
      </trkpt>
      <trkpt lat="45.94424" lon="4.72831">
        <ele>166</ele>
        <time>2017-05-16T08:39:13Z</time>
      </trkpt>
      <trkpt lat="45.94425" lon="4.72838">
        <ele>166</ele>
        <time>2017-05-16T08:39:14Z</time>
      </trkpt>
      <trkpt lat="45.94426" lon="4.72845">
        <ele>166</ele>
        <time>2017-05-16T08:39:15Z</time>
      </trkpt>
      <trkpt lat="45.94427" lon="4.72852">
        <ele>166</ele>
        <time>2017-05-16T08:39:16Z</time>
      </trkpt>
      <trkpt lat="45.94428" lon="4.72859">
        <ele>166</ele>
        <time>2017-05-16T08:39:17Z</time>
      </trkpt>
      <trkpt lat="45.94429" lon="4.72865">
        <ele>166</ele>
        <time>2017-05-16T08:39:18Z</time>
      </trkpt>
      <trkpt lat="45.9443" lon="4.72872">
        <ele>166</ele>
        <time>2017-05-16T08:39:19Z</time>
      </trkpt>
      <trkpt lat="45.94431" lon="4.72878">
        <ele>166</ele>
        <time>2017-05-16T08:39:20Z</time>
      </trkpt>
      <trkpt lat="45.94432" lon="4.72891">
        <ele>166</ele>
        <time>2017-05-16T08:39:22Z</time>
      </trkpt>
      <trkpt lat="45.94433" lon="4.72897">
        <ele>166</ele>
        <time>2017-05-16T08:39:23Z</time>
      </trkpt>
      <trkpt lat="45.94434" lon="4.72903">
        <ele>166</ele>
        <time>2017-05-16T08:39:24Z</time>
      </trkpt>
      <trkpt lat="45.94435" lon="4.7291">
        <ele>166</ele>
        <time>2017-05-16T08:39:25Z</time>
      </trkpt>
      <trkpt lat="45.94435" lon="4.72918">
        <ele>167</ele>
        <time>2017-05-16T08:39:26Z</time>
      </trkpt>
      <trkpt lat="45.94437" lon="4.72925">
        <ele>167</ele>
        <time>2017-05-16T08:39:27Z</time>
      </trkpt>
      <trkpt lat="45.94438" lon="4.72932">
        <ele>167</ele>
        <time>2017-05-16T08:39:28Z</time>
      </trkpt>
      <trkpt lat="45.94439" lon="4.72939">
        <ele>167</ele>
        <time>2017-05-16T08:39:29Z</time>
      </trkpt>
      <trkpt lat="45.9444" lon="4.72946">
        <ele>167</ele>
        <time>2017-05-16T08:39:30Z</time>
      </trkpt>
      <trkpt lat="45.94441" lon="4.72954">
        <ele>167</ele>
        <time>2017-05-16T08:39:31Z</time>
      </trkpt>
      <trkpt lat="45.94442" lon="4.72962">
        <ele>167</ele>
        <time>2017-05-16T08:39:32Z</time>
      </trkpt>
      <trkpt lat="45.94444" lon="4.7297">
        <ele>167</ele>
        <time>2017-05-16T08:39:33Z</time>
      </trkpt>
      <trkpt lat="45.94445" lon="4.72979">
        <ele>167</ele>
        <time>2017-05-16T08:39:34Z</time>
      </trkpt>
      <trkpt lat="45.94446" lon="4.72988">
        <ele>167</ele>
        <time>2017-05-16T08:39:35Z</time>
      </trkpt>
      <trkpt lat="45.94447" lon="4.72997">
        <ele>167</ele>
        <time>2017-05-16T08:39:36Z</time>
      </trkpt>
      <trkpt lat="45.94449" lon="4.73007">
        <ele>169</ele>
        <time>2017-05-16T08:39:37Z</time>
      </trkpt>
      <trkpt lat="45.9445" lon="4.73016">
        <ele>169</ele>
        <time>2017-05-16T08:39:38Z</time>
      </trkpt>
      <trkpt lat="45.94451" lon="4.73026">
        <ele>169</ele>
        <time>2017-05-16T08:39:39Z</time>
      </trkpt>
      <trkpt lat="45.94453" lon="4.73037">
        <ele>169</ele>
        <time>2017-05-16T08:39:40Z</time>
      </trkpt>
      <trkpt lat="45.94454" lon="4.73047">
        <ele>169</ele>
        <time>2017-05-16T08:39:41Z</time>
      </trkpt>
      <trkpt lat="45.94455" lon="4.73058">
        <ele>170</ele>
        <time>2017-05-16T08:39:42Z</time>
      </trkpt>
      <trkpt lat="45.94456" lon="4.73069">
        <ele>170</ele>
        <time>2017-05-16T08:39:43Z</time>
      </trkpt>
      <trkpt lat="45.94457" lon="4.7308">
        <ele>170</ele>
        <time>2017-05-16T08:39:44Z</time>
      </trkpt>
      <trkpt lat="45.94459" lon="4.73091">
        <ele>171</ele>
        <time>2017-05-16T08:39:45Z</time>
      </trkpt>
      <trkpt lat="45.94459" lon="4.73102">
        <ele>171</ele>
        <time>2017-05-16T08:39:46Z</time>
      </trkpt>
      <trkpt lat="45.94461" lon="4.73112">
        <ele>172</ele>
        <time>2017-05-16T08:39:47Z</time>
      </trkpt>
      <trkpt lat="45.94462" lon="4.73122">
        <ele>172</ele>
        <time>2017-05-16T08:39:48Z</time>
      </trkpt>
      <trkpt lat="45.94464" lon="4.73132">
        <ele>172</ele>
        <time>2017-05-16T08:39:49Z</time>
      </trkpt>
      <trkpt lat="45.94465" lon="4.73141">
        <ele>172</ele>
        <time>2017-05-16T08:39:50Z</time>
      </trkpt>
      <trkpt lat="45.94466" lon="4.7315">
        <ele>172</ele>
        <time>2017-05-16T08:39:51Z</time>
      </trkpt>
      <trkpt lat="45.94468" lon="4.73159">
        <ele>172</ele>
        <time>2017-05-16T08:39:52Z</time>
      </trkpt>
      <trkpt lat="45.94469" lon="4.73167">
        <ele>174</ele>
        <time>2017-05-16T08:39:53Z</time>
      </trkpt>
      <trkpt lat="45.9447" lon="4.73176">
        <ele>174</ele>
        <time>2017-05-16T08:39:54Z</time>
      </trkpt>
      <trkpt lat="45.94472" lon="4.73184">
        <ele>174</ele>
        <time>2017-05-16T08:39:55Z</time>
      </trkpt>
      <trkpt lat="45.94473" lon="4.73192">
        <ele>174</ele>
        <time>2017-05-16T08:39:56Z</time>
      </trkpt>
      <trkpt lat="45.94475" lon="4.73201">
        <ele>174</ele>
        <time>2017-05-16T08:39:57Z</time>
      </trkpt>
      <trkpt lat="45.94476" lon="4.73209">
        <ele>175</ele>
        <time>2017-05-16T08:39:58Z</time>
      </trkpt>
      <trkpt lat="45.94478" lon="4.73216">
        <ele>175</ele>
        <time>2017-05-16T08:39:59Z</time>
      </trkpt>
      <trkpt lat="45.94479" lon="4.73224">
        <ele>175</ele>
        <time>2017-05-16T08:40:00Z</time>
      </trkpt>
      <trkpt lat="45.9448" lon="4.73232">
        <ele>175</ele>
        <time>2017-05-16T08:40:01Z</time>
      </trkpt>
      <trkpt lat="45.94481" lon="4.73239">
        <ele>175</ele>
        <time>2017-05-16T08:40:02Z</time>
      </trkpt>
      <trkpt lat="45.94482" lon="4.73245">
        <ele>175</ele>
        <time>2017-05-16T08:40:03Z</time>
      </trkpt>
      <trkpt lat="45.94483" lon="4.73251">
        <ele>176</ele>
        <time>2017-05-16T08:40:04Z</time>
      </trkpt>
      <trkpt lat="45.94483" lon="4.73258">
        <ele>176</ele>
        <time>2017-05-16T08:40:05Z</time>
      </trkpt>
      <trkpt lat="45.94484" lon="4.73265">
        <ele>177</ele>
        <time>2017-05-16T08:40:06Z</time>
      </trkpt>
      <trkpt lat="45.94485" lon="4.73273">
        <ele>177</ele>
        <time>2017-05-16T08:40:07Z</time>
      </trkpt>
      <trkpt lat="45.94486" lon="4.7328">
        <ele>177</ele>
        <time>2017-05-16T08:40:08Z</time>
      </trkpt>
      <trkpt lat="45.94486" lon="4.73286">
        <ele>177</ele>
        <time>2017-05-16T08:40:09Z</time>
      </trkpt>
      <trkpt lat="45.94487" lon="4.73293">
        <ele>177</ele>
        <time>2017-05-16T08:40:10Z</time>
      </trkpt>
      <trkpt lat="45.94487" lon="4.733">
        <ele>177</ele>
        <time>2017-05-16T08:40:11Z</time>
      </trkpt>
      <trkpt lat="45.94488" lon="4.73307">
        <ele>177</ele>
        <time>2017-05-16T08:40:12Z</time>
      </trkpt>
      <trkpt lat="45.94488" lon="4.73314">
        <ele>177</ele>
        <time>2017-05-16T08:40:13Z</time>
      </trkpt>
      <trkpt lat="45.94488" lon="4.73321">
        <ele>177</ele>
        <time>2017-05-16T08:40:14Z</time>
      </trkpt>
      <trkpt lat="45.94489" lon="4.73328">
        <ele>177</ele>
        <time>2017-05-16T08:40:15Z</time>
      </trkpt>
      <trkpt lat="45.94489" lon="4.73336">
        <ele>178</ele>
        <time>2017-05-16T08:40:16Z</time>
      </trkpt>
      <trkpt lat="45.9449" lon="4.73343">
        <ele>178</ele>
        <time>2017-05-16T08:40:17Z</time>
      </trkpt>
      <trkpt lat="45.94491" lon="4.7335">
        <ele>178</ele>
        <time>2017-05-16T08:40:18Z</time>
      </trkpt>
      <trkpt lat="45.94492" lon="4.73358">
        <ele>178</ele>
        <time>2017-05-16T08:40:19Z</time>
      </trkpt>
      <trkpt lat="45.94493" lon="4.73365">
        <ele>179</ele>
        <time>2017-05-16T08:40:20Z</time>
      </trkpt>
      <trkpt lat="45.94494" lon="4.73373">
        <ele>179</ele>
        <time>2017-05-16T08:40:21Z</time>
      </trkpt>
      <trkpt lat="45.94495" lon="4.7338">
        <ele>179</ele>
        <time>2017-05-16T08:40:22Z</time>
      </trkpt>
      <trkpt lat="45.94496" lon="4.73387">
        <ele>179</ele>
        <time>2017-05-16T08:40:23Z</time>
      </trkpt>
      <trkpt lat="45.94496" lon="4.73394">
        <ele>179</ele>
        <time>2017-05-16T08:40:24Z</time>
      </trkpt>
      <trkpt lat="45.94497" lon="4.73401">
        <ele>180</ele>
        <time>2017-05-16T08:40:25Z</time>
      </trkpt>
      <trkpt lat="45.94497" lon="4.73408">
        <ele>180</ele>
        <time>2017-05-16T08:40:26Z</time>
      </trkpt>
      <trkpt lat="45.94497" lon="4.73414">
        <ele>180</ele>
        <time>2017-05-16T08:40:27Z</time>
      </trkpt>
      <trkpt lat="45.94498" lon="4.7342">
        <ele>180</ele>
        <time>2017-05-16T08:40:28Z</time>
      </trkpt>
      <trkpt lat="45.94498" lon="4.73427">
        <ele>181</ele>
        <time>2017-05-16T08:40:29Z</time>
      </trkpt>
      <trkpt lat="45.94498" lon="4.73433">
        <ele>181</ele>
        <time>2017-05-16T08:40:30Z</time>
      </trkpt>
      <trkpt lat="45.94498" lon="4.7344">
        <ele>181</ele>
        <time>2017-05-16T08:40:31Z</time>
      </trkpt>
      <trkpt lat="45.94498" lon="4.73447">
        <ele>181</ele>
        <time>2017-05-16T08:40:32Z</time>
      </trkpt>
      <trkpt lat="45.94498" lon="4.73453">
        <ele>182</ele>
        <time>2017-05-16T08:40:33Z</time>
      </trkpt>
      <trkpt lat="45.94498" lon="4.73466">
        <ele>182</ele>
        <time>2017-05-16T08:40:35Z</time>
      </trkpt>
      <trkpt lat="45.94498" lon="4.73472">
        <ele>182</ele>
        <time>2017-05-16T08:40:36Z</time>
      </trkpt>
      <trkpt lat="45.94498" lon="4.73479">
        <ele>182</ele>
        <time>2017-05-16T08:40:37Z</time>
      </trkpt>
      <trkpt lat="45.94498" lon="4.73486">
        <ele>183</ele>
        <time>2017-05-16T08:40:38Z</time>
      </trkpt>
      <trkpt lat="45.94498" lon="4.73493">
        <ele>183</ele>
        <time>2017-05-16T08:40:39Z</time>
      </trkpt>
      <trkpt lat="45.94497" lon="4.735">
        <ele>183</ele>
        <time>2017-05-16T08:40:40Z</time>
      </trkpt>
      <trkpt lat="45.94496" lon="4.73507">
        <ele>183</ele>
        <time>2017-05-16T08:40:41Z</time>
      </trkpt>
      <trkpt lat="45.94496" lon="4.73513">
        <ele>184</ele>
        <time>2017-05-16T08:40:42Z</time>
      </trkpt>
      <trkpt lat="45.94496" lon="4.73525">
        <ele>184</ele>
        <time>2017-05-16T08:40:44Z</time>
      </trkpt>
      <trkpt lat="45.94496" lon="4.73531">
        <ele>184</ele>
        <time>2017-05-16T08:40:45Z</time>
      </trkpt>
      <trkpt lat="45.94495" lon="4.73538">
        <ele>184</ele>
        <time>2017-05-16T08:40:46Z</time>
      </trkpt>
      <trkpt lat="45.94495" lon="4.73545">
        <ele>185</ele>
        <time>2017-05-16T08:40:47Z</time>
      </trkpt>
      <trkpt lat="45.94495" lon="4.73552">
        <ele>185</ele>
        <time>2017-05-16T08:40:48Z</time>
      </trkpt>
      <trkpt lat="45.94495" lon="4.7356">
        <ele>185</ele>
        <time>2017-05-16T08:40:49Z</time>
      </trkpt>
      <trkpt lat="45.94495" lon="4.73568">
        <ele>185</ele>
        <time>2017-05-16T08:40:50Z</time>
      </trkpt>
      <trkpt lat="45.94494" lon="4.73575">
        <ele>185</ele>
        <time>2017-05-16T08:40:51Z</time>
      </trkpt>
      <trkpt lat="45.94494" lon="4.73583">
        <ele>185</ele>
        <time>2017-05-16T08:40:52Z</time>
      </trkpt>
      <trkpt lat="45.94493" lon="4.73591">
        <ele>185</ele>
        <time>2017-05-16T08:40:53Z</time>
      </trkpt>
      <trkpt lat="45.94492" lon="4.73598">
        <ele>185</ele>
        <time>2017-05-16T08:40:54Z</time>
      </trkpt>
      <trkpt lat="45.94491" lon="4.73605">
        <ele>186</ele>
        <time>2017-05-16T08:40:55Z</time>
      </trkpt>
      <trkpt lat="45.94491" lon="4.73612">
        <ele>186</ele>
        <time>2017-05-16T08:40:56Z</time>
      </trkpt>
      <trkpt lat="45.94491" lon="4.73619">
        <ele>186</ele>
        <time>2017-05-16T08:40:57Z</time>
      </trkpt>
      <trkpt lat="45.9449" lon="4.73626">
        <ele>186</ele>
        <time>2017-05-16T08:40:58Z</time>
      </trkpt>
      <trkpt lat="45.94489" lon="4.73633">
        <ele>186</ele>
        <time>2017-05-16T08:40:59Z</time>
      </trkpt>
      <trkpt lat="45.94488" lon="4.7364">
        <ele>186</ele>
        <time>2017-05-16T08:41:00Z</time>
      </trkpt>
      <trkpt lat="45.94488" lon="4.73646">
        <ele>186</ele>
        <time>2017-05-16T08:41:01Z</time>
      </trkpt>
      <trkpt lat="45.94486" lon="4.73653">
        <ele>186</ele>
        <time>2017-05-16T08:41:02Z</time>
      </trkpt>
      <trkpt lat="45.94486" lon="4.73659">
        <ele>185</ele>
        <time>2017-05-16T08:41:03Z</time>
      </trkpt>
      <trkpt lat="45.94485" lon="4.73665">
        <ele>185</ele>
        <time>2017-05-16T08:41:04Z</time>
      </trkpt>
      <trkpt lat="45.94484" lon="4.73672">
        <ele>186</ele>
        <time>2017-05-16T08:41:05Z</time>
      </trkpt>
      <trkpt lat="45.94483" lon="4.73679">
        <ele>186</ele>
        <time>2017-05-16T08:41:06Z</time>
      </trkpt>
      <trkpt lat="45.94482" lon="4.73687">
        <ele>186</ele>
        <time>2017-05-16T08:41:07Z</time>
      </trkpt>
      <trkpt lat="45.94481" lon="4.73694">
        <ele>186</ele>
        <time>2017-05-16T08:41:08Z</time>
      </trkpt>
      <trkpt lat="45.9448" lon="4.73701">
        <ele>186</ele>
        <time>2017-05-16T08:41:09Z</time>
      </trkpt>
      <trkpt lat="45.94479" lon="4.73708">
        <ele>186</ele>
        <time>2017-05-16T08:41:10Z</time>
      </trkpt>
      <trkpt lat="45.94478" lon="4.73716">
        <ele>186</ele>
        <time>2017-05-16T08:41:11Z</time>
      </trkpt>
      <trkpt lat="45.94477" lon="4.73723">
        <ele>186</ele>
        <time>2017-05-16T08:41:12Z</time>
      </trkpt>
      <trkpt lat="45.94477" lon="4.73731">
        <ele>186</ele>
        <time>2017-05-16T08:41:13Z</time>
      </trkpt>
      <trkpt lat="45.94477" lon="4.73738">
        <ele>186</ele>
        <time>2017-05-16T08:41:14Z</time>
      </trkpt>
      <trkpt lat="45.94476" lon="4.73744">
        <ele>186</ele>
        <time>2017-05-16T08:41:15Z</time>
      </trkpt>
      <trkpt lat="45.94475" lon="4.73756">
        <ele>186</ele>
        <time>2017-05-16T08:41:17Z</time>
      </trkpt>
      <trkpt lat="45.94475" lon="4.73763">
        <ele>186</ele>
        <time>2017-05-16T08:41:18Z</time>
      </trkpt>
      <trkpt lat="45.94477" lon="4.73769">
        <ele>186</ele>
        <time>2017-05-16T08:41:19Z</time>
      </trkpt>
      <trkpt lat="45.9448" lon="4.73775">
        <ele>186</ele>
        <time>2017-05-16T08:41:20Z</time>
      </trkpt>
      <trkpt lat="45.94484" lon="4.73778">
        <ele>186</ele>
        <time>2017-05-16T08:41:21Z</time>
      </trkpt>
      <trkpt lat="45.94488" lon="4.73781">
        <ele>186</ele>
        <time>2017-05-16T08:41:22Z</time>
      </trkpt>
      <trkpt lat="45.94492" lon="4.73783">
        <ele>186</ele>
        <time>2017-05-16T08:41:23Z</time>
      </trkpt>
      <trkpt lat="45.94497" lon="4.73787">
        <ele>186</ele>
        <time>2017-05-16T08:41:24Z</time>
      </trkpt>
      <trkpt lat="45.94501" lon="4.73791">
        <ele>186</ele>
        <time>2017-05-16T08:41:25Z</time>
      </trkpt>
      <trkpt lat="45.94505" lon="4.73795">
        <ele>186</ele>
        <time>2017-05-16T08:41:26Z</time>
      </trkpt>
      <trkpt lat="45.94509" lon="4.738">
        <ele>186</ele>
        <time>2017-05-16T08:41:27Z</time>
      </trkpt>
      <trkpt lat="45.94512" lon="4.73805">
        <ele>186</ele>
        <time>2017-05-16T08:41:28Z</time>
      </trkpt>
      <trkpt lat="45.94516" lon="4.7381">
        <ele>186</ele>
        <time>2017-05-16T08:41:29Z</time>
      </trkpt>
      <trkpt lat="45.94521" lon="4.73814">
        <ele>186</ele>
        <time>2017-05-16T08:41:30Z</time>
      </trkpt>
      <trkpt lat="45.94526" lon="4.73818">
        <ele>186</ele>
        <time>2017-05-16T08:41:31Z</time>
      </trkpt>
      <trkpt lat="45.9453" lon="4.73823">
        <ele>186</ele>
        <time>2017-05-16T08:41:32Z</time>
      </trkpt>
      <trkpt lat="45.94534" lon="4.73827">
        <ele>186</ele>
        <time>2017-05-16T08:41:33Z</time>
      </trkpt>
      <trkpt lat="45.94538" lon="4.7383">
        <ele>186</ele>
        <time>2017-05-16T08:41:34Z</time>
      </trkpt>
      <trkpt lat="45.94542" lon="4.73834">
        <ele>186</ele>
        <time>2017-05-16T08:41:35Z</time>
      </trkpt>
      <trkpt lat="45.94545" lon="4.73838">
        <ele>186</ele>
        <time>2017-05-16T08:41:36Z</time>
      </trkpt>
      <trkpt lat="45.94549" lon="4.73842">
        <ele>186</ele>
        <time>2017-05-16T08:41:37Z</time>
      </trkpt>
      <trkpt lat="45.94553" lon="4.73846">
        <ele>186</ele>
        <time>2017-05-16T08:41:38Z</time>
      </trkpt>
      <trkpt lat="45.94557" lon="4.7385">
        <ele>186</ele>
        <time>2017-05-16T08:41:39Z</time>
      </trkpt>
      <trkpt lat="45.94561" lon="4.73854">
        <ele>186</ele>
        <time>2017-05-16T08:41:40Z</time>
      </trkpt>
      <trkpt lat="45.94565" lon="4.73858">
        <ele>186</ele>
        <time>2017-05-16T08:41:41Z</time>
      </trkpt>
      <trkpt lat="45.94569" lon="4.73862">
        <ele>186</ele>
        <time>2017-05-16T08:41:42Z</time>
      </trkpt>
      <trkpt lat="45.94572" lon="4.73866">
        <ele>186</ele>
        <time>2017-05-16T08:41:43Z</time>
      </trkpt>
      <trkpt lat="45.94576" lon="4.7387">
        <ele>186</ele>
        <time>2017-05-16T08:41:44Z</time>
      </trkpt>
      <trkpt lat="45.94583" lon="4.73878">
        <ele>186</ele>
        <time>2017-05-16T08:41:46Z</time>
      </trkpt>
      <trkpt lat="45.94586" lon="4.73882">
        <ele>187</ele>
        <time>2017-05-16T08:41:47Z</time>
      </trkpt>
      <trkpt lat="45.9459" lon="4.73887">
        <ele>187</ele>
        <time>2017-05-16T08:41:48Z</time>
      </trkpt>
      <trkpt lat="45.94594" lon="4.73891">
        <ele>187</ele>
        <time>2017-05-16T08:41:49Z</time>
      </trkpt>
      <trkpt lat="45.94598" lon="4.73896">
        <ele>187</ele>
        <time>2017-05-16T08:41:50Z</time>
      </trkpt>
      <trkpt lat="45.94602" lon="4.73901">
        <ele>187</ele>
        <time>2017-05-16T08:41:51Z</time>
      </trkpt>
      <trkpt lat="45.94606" lon="4.73906">
        <ele>187</ele>
        <time>2017-05-16T08:41:52Z</time>
      </trkpt>
      <trkpt lat="45.9461" lon="4.73911">
        <ele>187</ele>
        <time>2017-05-16T08:41:53Z</time>
      </trkpt>
      <trkpt lat="45.94615" lon="4.73916">
        <ele>187</ele>
        <time>2017-05-16T08:41:54Z</time>
      </trkpt>
      <trkpt lat="45.94619" lon="4.73921">
        <ele>187</ele>
        <time>2017-05-16T08:41:55Z</time>
      </trkpt>
      <trkpt lat="45.94623" lon="4.73927">
        <ele>187</ele>
        <time>2017-05-16T08:41:56Z</time>
      </trkpt>
      <trkpt lat="45.94626" lon="4.73932">
        <ele>187</ele>
        <time>2017-05-16T08:41:57Z</time>
      </trkpt>
      <trkpt lat="45.9463" lon="4.73936">
        <ele>187</ele>
        <time>2017-05-16T08:41:58Z</time>
      </trkpt>
      <trkpt lat="45.94634" lon="4.7394">
        <ele>187</ele>
        <time>2017-05-16T08:41:59Z</time>
      </trkpt>
      <trkpt lat="45.94638" lon="4.73945">
        <ele>187</ele>
        <time>2017-05-16T08:42:00Z</time>
      </trkpt>
      <trkpt lat="45.94641" lon="4.73949">
        <ele>187</ele>
        <time>2017-05-16T08:42:01Z</time>
      </trkpt>
      <trkpt lat="45.94644" lon="4.73954">
        <ele>187</ele>
        <time>2017-05-16T08:42:02Z</time>
      </trkpt>
      <trkpt lat="45.94648" lon="4.73958">
        <ele>187</ele>
        <time>2017-05-16T08:42:03Z</time>
      </trkpt>
      <trkpt lat="45.94651" lon="4.73963">
        <ele>187</ele>
        <time>2017-05-16T08:42:04Z</time>
      </trkpt>
      <trkpt lat="45.94655" lon="4.73968">
        <ele>187</ele>
        <time>2017-05-16T08:42:05Z</time>
      </trkpt>
      <trkpt lat="45.94658" lon="4.73973">
        <ele>187</ele>
        <time>2017-05-16T08:42:06Z</time>
      </trkpt>
      <trkpt lat="45.94662" lon="4.73978">
        <ele>187</ele>
        <time>2017-05-16T08:42:07Z</time>
      </trkpt>
      <trkpt lat="45.94666" lon="4.73983">
        <ele>187</ele>
        <time>2017-05-16T08:42:08Z</time>
      </trkpt>
      <trkpt lat="45.9467" lon="4.73988">
        <ele>187</ele>
        <time>2017-05-16T08:42:09Z</time>
      </trkpt>
      <trkpt lat="45.94673" lon="4.73993">
        <ele>187</ele>
        <time>2017-05-16T08:42:10Z</time>
      </trkpt>
      <trkpt lat="45.94677" lon="4.73998">
        <ele>187</ele>
        <time>2017-05-16T08:42:11Z</time>
      </trkpt>
      <trkpt lat="45.94683" lon="4.74007">
        <ele>187</ele>
        <time>2017-05-16T08:42:13Z</time>
      </trkpt>
      <trkpt lat="45.94686" lon="4.74011">
        <ele>187</ele>
        <time>2017-05-16T08:42:14Z</time>
      </trkpt>
      <trkpt lat="45.94689" lon="4.74016">
        <ele>187</ele>
        <time>2017-05-16T08:42:15Z</time>
      </trkpt>
      <trkpt lat="45.94692" lon="4.74021">
        <ele>187</ele>
        <time>2017-05-16T08:42:16Z</time>
      </trkpt>
      <trkpt lat="45.94696" lon="4.74026">
        <ele>187</ele>
        <time>2017-05-16T08:42:17Z</time>
      </trkpt>
      <trkpt lat="45.947" lon="4.74031">
        <ele>187</ele>
        <time>2017-05-16T08:42:18Z</time>
      </trkpt>
      <trkpt lat="45.94704" lon="4.74036">
        <ele>187</ele>
        <time>2017-05-16T08:42:19Z</time>
      </trkpt>
      <trkpt lat="45.94708" lon="4.74041">
        <ele>187</ele>
        <time>2017-05-16T08:42:20Z</time>
      </trkpt>
      <trkpt lat="45.94712" lon="4.74047">
        <ele>187</ele>
        <time>2017-05-16T08:42:21Z</time>
      </trkpt>
      <trkpt lat="45.94716" lon="4.74052">
        <ele>187</ele>
        <time>2017-05-16T08:42:22Z</time>
      </trkpt>
      <trkpt lat="45.9472" lon="4.74058">
        <ele>187</ele>
        <time>2017-05-16T08:42:23Z</time>
      </trkpt>
      <trkpt lat="45.94724" lon="4.74063">
        <ele>188</ele>
        <time>2017-05-16T08:42:24Z</time>
      </trkpt>
      <trkpt lat="45.94728" lon="4.74068">
        <ele>188</ele>
        <time>2017-05-16T08:42:25Z</time>
      </trkpt>
      <trkpt lat="45.94732" lon="4.74073">
        <ele>188</ele>
        <time>2017-05-16T08:42:26Z</time>
      </trkpt>
      <trkpt lat="45.94735" lon="4.74078">
        <ele>188</ele>
        <time>2017-05-16T08:42:27Z</time>
      </trkpt>
      <trkpt lat="45.94739" lon="4.74083">
        <ele>188</ele>
        <time>2017-05-16T08:42:28Z</time>
      </trkpt>
      <trkpt lat="45.94743" lon="4.74088">
        <ele>188</ele>
        <time>2017-05-16T08:42:29Z</time>
      </trkpt>
      <trkpt lat="45.94747" lon="4.74093">
        <ele>188</ele>
        <time>2017-05-16T08:42:30Z</time>
      </trkpt>
      <trkpt lat="45.9475" lon="4.74097">
        <ele>188</ele>
        <time>2017-05-16T08:42:31Z</time>
      </trkpt>
      <trkpt lat="45.94754" lon="4.74102">
        <ele>189</ele>
        <time>2017-05-16T08:42:32Z</time>
      </trkpt>
      <trkpt lat="45.94757" lon="4.74106">
        <ele>189</ele>
        <time>2017-05-16T08:42:33Z</time>
      </trkpt>
      <trkpt lat="45.94761" lon="4.74111">
        <ele>189</ele>
        <time>2017-05-16T08:42:34Z</time>
      </trkpt>
      <trkpt lat="45.94764" lon="4.74116">
        <ele>189</ele>
        <time>2017-05-16T08:42:35Z</time>
      </trkpt>
      <trkpt lat="45.94767" lon="4.7412">
        <ele>189</ele>
        <time>2017-05-16T08:42:36Z</time>
      </trkpt>
      <trkpt lat="45.94771" lon="4.74125">
        <ele>189</ele>
        <time>2017-05-16T08:42:37Z</time>
      </trkpt>
      <trkpt lat="45.94774" lon="4.7413">
        <ele>189</ele>
        <time>2017-05-16T08:42:38Z</time>
      </trkpt>
      <trkpt lat="45.94778" lon="4.74134">
        <ele>189</ele>
        <time>2017-05-16T08:42:39Z</time>
      </trkpt>
      <trkpt lat="45.94781" lon="4.74139">
        <ele>189</ele>
        <time>2017-05-16T08:42:40Z</time>
      </trkpt>
      <trkpt lat="45.94786" lon="4.74148">
        <ele>189</ele>
        <time>2017-05-16T08:42:42Z</time>
      </trkpt>
      <trkpt lat="45.94789" lon="4.74153">
        <ele>189</ele>
        <time>2017-05-16T08:42:43Z</time>
      </trkpt>
      <trkpt lat="45.94792" lon="4.74159">
        <ele>189</ele>
        <time>2017-05-16T08:42:44Z</time>
      </trkpt>
      <trkpt lat="45.94796" lon="4.74165">
        <ele>189</ele>
        <time>2017-05-16T08:42:45Z</time>
      </trkpt>
      <trkpt lat="45.948" lon="4.7417">
        <ele>189</ele>
        <time>2017-05-16T08:42:46Z</time>
      </trkpt>
      <trkpt lat="45.94804" lon="4.74176">
        <ele>189</ele>
        <time>2017-05-16T08:42:47Z</time>
      </trkpt>
      <trkpt lat="45.94808" lon="4.74182">
        <ele>189</ele>
        <time>2017-05-16T08:42:48Z</time>
      </trkpt>
      <trkpt lat="45.94811" lon="4.74189">
        <ele>189</ele>
        <time>2017-05-16T08:42:49Z</time>
      </trkpt>
      <trkpt lat="45.94815" lon="4.74195">
        <ele>189</ele>
        <time>2017-05-16T08:42:50Z</time>
      </trkpt>
      <trkpt lat="45.94817" lon="4.74202">
        <ele>189</ele>
        <time>2017-05-16T08:42:51Z</time>
      </trkpt>
      <trkpt lat="45.9482" lon="4.74208">
        <ele>188</ele>
        <time>2017-05-16T08:42:52Z</time>
      </trkpt>
      <trkpt lat="45.94823" lon="4.74215">
        <ele>188</ele>
        <time>2017-05-16T08:42:53Z</time>
      </trkpt>
      <trkpt lat="45.94826" lon="4.74221">
        <ele>188</ele>
        <time>2017-05-16T08:42:54Z</time>
      </trkpt>
      <trkpt lat="45.9483" lon="4.74228">
        <ele>188</ele>
        <time>2017-05-16T08:42:55Z</time>
      </trkpt>
      <trkpt lat="45.94833" lon="4.74235">
        <ele>189</ele>
        <time>2017-05-16T08:42:56Z</time>
      </trkpt>
      <trkpt lat="45.94837" lon="4.74242">
        <ele>189</ele>
        <time>2017-05-16T08:42:57Z</time>
      </trkpt>
      <trkpt lat="45.94841" lon="4.74249">
        <ele>189</ele>
        <time>2017-05-16T08:42:58Z</time>
      </trkpt>
      <trkpt lat="45.94845" lon="4.74255">
        <ele>190</ele>
        <time>2017-05-16T08:42:59Z</time>
      </trkpt>
      <trkpt lat="45.94849" lon="4.74262">
        <ele>190</ele>
        <time>2017-05-16T08:43:00Z</time>
      </trkpt>
      <trkpt lat="45.94853" lon="4.74268">
        <ele>190</ele>
        <time>2017-05-16T08:43:01Z</time>
      </trkpt>
      <trkpt lat="45.94856" lon="4.74275">
        <ele>190</ele>
        <time>2017-05-16T08:43:02Z</time>
      </trkpt>
      <trkpt lat="45.9486" lon="4.74282">
        <ele>190</ele>
        <time>2017-05-16T08:43:03Z</time>
      </trkpt>
      <trkpt lat="45.94863" lon="4.74288">
        <ele>191</ele>
        <time>2017-05-16T08:43:04Z</time>
      </trkpt>
      <trkpt lat="45.94866" lon="4.74295">
        <ele>191</ele>
        <time>2017-05-16T08:43:05Z</time>
      </trkpt>
      <trkpt lat="45.94869" lon="4.74301">
        <ele>191</ele>
        <time>2017-05-16T08:43:06Z</time>
      </trkpt>
      <trkpt lat="45.94873" lon="4.74308">
        <ele>191</ele>
        <time>2017-05-16T08:43:07Z</time>
      </trkpt>
      <trkpt lat="45.94876" lon="4.74315">
        <ele>191</ele>
        <time>2017-05-16T08:43:08Z</time>
      </trkpt>
      <trkpt lat="45.94879" lon="4.74321">
        <ele>191</ele>
        <time>2017-05-16T08:43:09Z</time>
      </trkpt>
      <trkpt lat="45.94882" lon="4.74327">
        <ele>191</ele>
        <time>2017-05-16T08:43:10Z</time>
      </trkpt>
      <trkpt lat="45.94885" lon="4.74333">
        <ele>191</ele>
        <time>2017-05-16T08:43:11Z</time>
      </trkpt>
      <trkpt lat="45.94888" lon="4.74339">
        <ele>191</ele>
        <time>2017-05-16T08:43:12Z</time>
      </trkpt>
      <trkpt lat="45.94891" lon="4.74344">
        <ele>191</ele>
        <time>2017-05-16T08:43:13Z</time>
      </trkpt>
      <trkpt lat="45.94894" lon="4.7435">
        <ele>191</ele>
        <time>2017-05-16T08:43:14Z</time>
      </trkpt>
      <trkpt lat="45.94897" lon="4.74356">
        <ele>191</ele>
        <time>2017-05-16T08:43:15Z</time>
      </trkpt>
      <trkpt lat="45.949" lon="4.74363">
        <ele>191</ele>
        <time>2017-05-16T08:43:16Z</time>
      </trkpt>
      <trkpt lat="45.94903" lon="4.7437">
        <ele>191</ele>
        <time>2017-05-16T08:43:17Z</time>
      </trkpt>
      <trkpt lat="45.94907" lon="4.74376">
        <ele>191</ele>
        <time>2017-05-16T08:43:18Z</time>
      </trkpt>
      <trkpt lat="45.94911" lon="4.74382">
        <ele>191</ele>
        <time>2017-05-16T08:43:19Z</time>
      </trkpt>
      <trkpt lat="45.94914" lon="4.74389">
        <ele>191</ele>
        <time>2017-05-16T08:43:20Z</time>
      </trkpt>
      <trkpt lat="45.94918" lon="4.74396">
        <ele>192</ele>
        <time>2017-05-16T08:43:21Z</time>
      </trkpt>
      <trkpt lat="45.94922" lon="4.74402">
        <ele>192</ele>
        <time>2017-05-16T08:43:22Z</time>
      </trkpt>
      <trkpt lat="45.94925" lon="4.74408">
        <ele>192</ele>
        <time>2017-05-16T08:43:23Z</time>
      </trkpt>
      <trkpt lat="45.94928" lon="4.74414">
        <ele>192</ele>
        <time>2017-05-16T08:43:24Z</time>
      </trkpt>
      <trkpt lat="45.94931" lon="4.7442">
        <ele>192</ele>
        <time>2017-05-16T08:43:25Z</time>
      </trkpt>
      <trkpt lat="45.94933" lon="4.74426">
        <ele>192</ele>
        <time>2017-05-16T08:43:26Z</time>
      </trkpt>
      <trkpt lat="45.94936" lon="4.74432">
        <ele>192</ele>
        <time>2017-05-16T08:43:27Z</time>
      </trkpt>
      <trkpt lat="45.94939" lon="4.74437">
        <ele>192</ele>
        <time>2017-05-16T08:43:28Z</time>
      </trkpt>
      <trkpt lat="45.94942" lon="4.74444">
        <ele>192</ele>
        <time>2017-05-16T08:43:29Z</time>
      </trkpt>
      <trkpt lat="45.94945" lon="4.7445">
        <ele>192</ele>
        <time>2017-05-16T08:43:30Z</time>
      </trkpt>
      <trkpt lat="45.94948" lon="4.74456">
        <ele>192</ele>
        <time>2017-05-16T08:43:31Z</time>
      </trkpt>
      <trkpt lat="45.9495" lon="4.74462">
        <ele>193</ele>
        <time>2017-05-16T08:43:32Z</time>
      </trkpt>
      <trkpt lat="45.94953" lon="4.74467">
        <ele>193</ele>
        <time>2017-05-16T08:43:33Z</time>
      </trkpt>
      <trkpt lat="45.94956" lon="4.74472">
        <ele>193</ele>
        <time>2017-05-16T08:43:34Z</time>
      </trkpt>
      <trkpt lat="45.94959" lon="4.74477">
        <ele>193</ele>
        <time>2017-05-16T08:43:35Z</time>
      </trkpt>
      <trkpt lat="45.94961" lon="4.74483">
        <ele>193</ele>
        <time>2017-05-16T08:43:36Z</time>
      </trkpt>
      <trkpt lat="45.94965" lon="4.74488">
        <ele>193</ele>
        <time>2017-05-16T08:43:37Z</time>
      </trkpt>
      <trkpt lat="45.9497" lon="4.74493">
        <ele>193</ele>
        <time>2017-05-16T08:43:38Z</time>
      </trkpt>
      <trkpt lat="45.94974" lon="4.74499">
        <ele>193</ele>
        <time>2017-05-16T08:43:39Z</time>
      </trkpt>
      <trkpt lat="45.94977" lon="4.74505">
        <ele>193</ele>
        <time>2017-05-16T08:43:40Z</time>
      </trkpt>
      <trkpt lat="45.9498" lon="4.74512">
        <ele>193</ele>
        <time>2017-05-16T08:43:41Z</time>
      </trkpt>
      <trkpt lat="45.94984" lon="4.74519">
        <ele>193</ele>
        <time>2017-05-16T08:43:42Z</time>
      </trkpt>
      <trkpt lat="45.94988" lon="4.74526">
        <ele>193</ele>
        <time>2017-05-16T08:43:43Z</time>
      </trkpt>
      <trkpt lat="45.94991" lon="4.74533">
        <ele>193</ele>
        <time>2017-05-16T08:43:44Z</time>
      </trkpt>
      <trkpt lat="45.94994" lon="4.74539">
        <ele>193</ele>
        <time>2017-05-16T08:43:45Z</time>
      </trkpt>
      <trkpt lat="45.94998" lon="4.74546">
        <ele>193</ele>
        <time>2017-05-16T08:43:46Z</time>
      </trkpt>
      <trkpt lat="45.95001" lon="4.74552">
        <ele>194</ele>
        <time>2017-05-16T08:43:47Z</time>
      </trkpt>
      <trkpt lat="45.95004" lon="4.74559">
        <ele>194</ele>
        <time>2017-05-16T08:43:48Z</time>
      </trkpt>
      <trkpt lat="45.95007" lon="4.74565">
        <ele>194</ele>
        <time>2017-05-16T08:43:49Z</time>
      </trkpt>
      <trkpt lat="45.9501" lon="4.74571">
        <ele>194</ele>
        <time>2017-05-16T08:43:50Z</time>
      </trkpt>
      <trkpt lat="45.95013" lon="4.74577">
        <ele>194</ele>
        <time>2017-05-16T08:43:51Z</time>
      </trkpt>
      <trkpt lat="45.95017" lon="4.74582">
        <ele>194</ele>
        <time>2017-05-16T08:43:52Z</time>
      </trkpt>
      <trkpt lat="45.9502" lon="4.74588">
        <ele>194</ele>
        <time>2017-05-16T08:43:53Z</time>
      </trkpt>
      <trkpt lat="45.95023" lon="4.74593">
        <ele>194</ele>
        <time>2017-05-16T08:43:54Z</time>
      </trkpt>
      <trkpt lat="45.95026" lon="4.74599">
        <ele>194</ele>
        <time>2017-05-16T08:43:55Z</time>
      </trkpt>
      <trkpt lat="45.95029" lon="4.74604">
        <ele>194</ele>
        <time>2017-05-16T08:43:56Z</time>
      </trkpt>
      <trkpt lat="45.95032" lon="4.7461">
        <ele>194</ele>
        <time>2017-05-16T08:43:57Z</time>
      </trkpt>
      <trkpt lat="45.95034" lon="4.74615">
        <ele>194</ele>
        <time>2017-05-16T08:43:58Z</time>
      </trkpt>
      <trkpt lat="45.95038" lon="4.74621">
        <ele>194</ele>
        <time>2017-05-16T08:43:59Z</time>
      </trkpt>
      <trkpt lat="45.9504" lon="4.74627">
        <ele>194</ele>
        <time>2017-05-16T08:44:00Z</time>
      </trkpt>
      <trkpt lat="45.95044" lon="4.74633">
        <ele>194</ele>
        <time>2017-05-16T08:44:01Z</time>
      </trkpt>
      <trkpt lat="45.95046" lon="4.74639">
        <ele>194</ele>
        <time>2017-05-16T08:44:02Z</time>
      </trkpt>
      <trkpt lat="45.95049" lon="4.74644">
        <ele>194</ele>
        <time>2017-05-16T08:44:03Z</time>
      </trkpt>
      <trkpt lat="45.95052" lon="4.74649">
        <ele>194</ele>
        <time>2017-05-16T08:44:04Z</time>
      </trkpt>
      <trkpt lat="45.95055" lon="4.74655">
        <ele>194</ele>
        <time>2017-05-16T08:44:05Z</time>
      </trkpt>
      <trkpt lat="45.95057" lon="4.74661">
        <ele>194</ele>
        <time>2017-05-16T08:44:06Z</time>
      </trkpt>
      <trkpt lat="45.9506" lon="4.74666">
        <ele>194</ele>
        <time>2017-05-16T08:44:07Z</time>
      </trkpt>
      <trkpt lat="45.95064" lon="4.74672">
        <ele>194</ele>
        <time>2017-05-16T08:44:08Z</time>
      </trkpt>
      <trkpt lat="45.95067" lon="4.74679">
        <ele>194</ele>
        <time>2017-05-16T08:44:09Z</time>
      </trkpt>
      <trkpt lat="45.95071" lon="4.74685">
        <ele>194</ele>
        <time>2017-05-16T08:44:10Z</time>
      </trkpt>
      <trkpt lat="45.95074" lon="4.74692">
        <ele>194</ele>
        <time>2017-05-16T08:44:11Z</time>
      </trkpt>
      <trkpt lat="45.95078" lon="4.74698">
        <ele>194</ele>
        <time>2017-05-16T08:44:12Z</time>
      </trkpt>
      <trkpt lat="45.95082" lon="4.74705">
        <ele>194</ele>
        <time>2017-05-16T08:44:13Z</time>
      </trkpt>
      <trkpt lat="45.95086" lon="4.74712">
        <ele>194</ele>
        <time>2017-05-16T08:44:14Z</time>
      </trkpt>
      <trkpt lat="45.9509" lon="4.74719">
        <ele>194</ele>
        <time>2017-05-16T08:44:15Z</time>
      </trkpt>
      <trkpt lat="45.95094" lon="4.74725">
        <ele>194</ele>
        <time>2017-05-16T08:44:16Z</time>
      </trkpt>
      <trkpt lat="45.95098" lon="4.74731">
        <ele>194</ele>
        <time>2017-05-16T08:44:17Z</time>
      </trkpt>
      <trkpt lat="45.95102" lon="4.74738">
        <ele>194</ele>
        <time>2017-05-16T08:44:18Z</time>
      </trkpt>
      <trkpt lat="45.95106" lon="4.74744">
        <ele>194</ele>
        <time>2017-05-16T08:44:19Z</time>
      </trkpt>
      <trkpt lat="45.95109" lon="4.74751">
        <ele>194</ele>
        <time>2017-05-16T08:44:20Z</time>
      </trkpt>
      <trkpt lat="45.95113" lon="4.74757">
        <ele>194</ele>
        <time>2017-05-16T08:44:21Z</time>
      </trkpt>
      <trkpt lat="45.95117" lon="4.74764">
        <ele>194</ele>
        <time>2017-05-16T08:44:22Z</time>
      </trkpt>
      <trkpt lat="45.9512" lon="4.7477">
        <ele>194</ele>
        <time>2017-05-16T08:44:23Z</time>
      </trkpt>
      <trkpt lat="45.95124" lon="4.74777">
        <ele>194</ele>
        <time>2017-05-16T08:44:24Z</time>
      </trkpt>
      <trkpt lat="45.95128" lon="4.74783">
        <ele>194</ele>
        <time>2017-05-16T08:44:25Z</time>
      </trkpt>
      <trkpt lat="45.95132" lon="4.74789">
        <ele>194</ele>
        <time>2017-05-16T08:44:26Z</time>
      </trkpt>
      <trkpt lat="45.95135" lon="4.74795">
        <ele>194</ele>
        <time>2017-05-16T08:44:27Z</time>
      </trkpt>
      <trkpt lat="45.95139" lon="4.74801">
        <ele>194</ele>
        <time>2017-05-16T08:44:28Z</time>
      </trkpt>
      <trkpt lat="45.95142" lon="4.74807">
        <ele>194</ele>
        <time>2017-05-16T08:44:29Z</time>
      </trkpt>
      <trkpt lat="45.95146" lon="4.74813">
        <ele>194</ele>
        <time>2017-05-16T08:44:30Z</time>
      </trkpt>
      <trkpt lat="45.95149" lon="4.74818">
        <ele>194</ele>
        <time>2017-05-16T08:44:31Z</time>
      </trkpt>
      <trkpt lat="45.95153" lon="4.74823">
        <ele>194</ele>
        <time>2017-05-16T08:44:32Z</time>
      </trkpt>
      <trkpt lat="45.95156" lon="4.74828">
        <ele>194</ele>
        <time>2017-05-16T08:44:33Z</time>
      </trkpt>
      <trkpt lat="45.95162" lon="4.74837">
        <ele>194</ele>
        <time>2017-05-16T08:44:35Z</time>
      </trkpt>
      <trkpt lat="45.95165" lon="4.74843">
        <ele>193</ele>
        <time>2017-05-16T08:44:36Z</time>
      </trkpt>
      <trkpt lat="45.95168" lon="4.74848">
        <ele>194</ele>
        <time>2017-05-16T08:44:37Z</time>
      </trkpt>
      <trkpt lat="45.95171" lon="4.74854">
        <ele>194</ele>
        <time>2017-05-16T08:44:38Z</time>
      </trkpt>
      <trkpt lat="45.95174" lon="4.74859">
        <ele>194</ele>
        <time>2017-05-16T08:44:39Z</time>
      </trkpt>
      <trkpt lat="45.95179" lon="4.74864">
        <ele>194</ele>
        <time>2017-05-16T08:44:40Z</time>
      </trkpt>
      <trkpt lat="45.95182" lon="4.7487">
        <ele>194</ele>
        <time>2017-05-16T08:44:41Z</time>
      </trkpt>
      <trkpt lat="45.95186" lon="4.74875">
        <ele>194</ele>
        <time>2017-05-16T08:44:42Z</time>
      </trkpt>
      <trkpt lat="45.9519" lon="4.7488">
        <ele>194</ele>
        <time>2017-05-16T08:44:43Z</time>
      </trkpt>
      <trkpt lat="45.95194" lon="4.74886">
        <ele>194</ele>
        <time>2017-05-16T08:44:44Z</time>
      </trkpt>
      <trkpt lat="45.95197" lon="4.74893">
        <ele>194</ele>
        <time>2017-05-16T08:44:45Z</time>
      </trkpt>
      <trkpt lat="45.952" lon="4.74898">
        <ele>194</ele>
        <time>2017-05-16T08:44:46Z</time>
      </trkpt>
      <trkpt lat="45.95204" lon="4.74904">
        <ele>194</ele>
        <time>2017-05-16T08:44:47Z</time>
      </trkpt>
      <trkpt lat="45.95207" lon="4.74909">
        <ele>194</ele>
        <time>2017-05-16T08:44:48Z</time>
      </trkpt>
      <trkpt lat="45.9521" lon="4.74915">
        <ele>193</ele>
        <time>2017-05-16T08:44:49Z</time>
      </trkpt>
      <trkpt lat="45.95213" lon="4.7492">
        <ele>192</ele>
        <time>2017-05-16T08:44:50Z</time>
      </trkpt>
      <trkpt lat="45.95216" lon="4.74925">
        <ele>192</ele>
        <time>2017-05-16T08:44:51Z</time>
      </trkpt>
      <trkpt lat="45.9522" lon="4.74931">
        <ele>192</ele>
        <time>2017-05-16T08:44:52Z</time>
      </trkpt>
      <trkpt lat="45.95223" lon="4.74936">
        <ele>192</ele>
        <time>2017-05-16T08:44:53Z</time>
      </trkpt>
      <trkpt lat="45.95228" lon="4.74942">
        <ele>192</ele>
        <time>2017-05-16T08:44:54Z</time>
      </trkpt>
      <trkpt lat="45.95232" lon="4.74948">
        <ele>192</ele>
        <time>2017-05-16T08:44:55Z</time>
      </trkpt>
      <trkpt lat="45.95236" lon="4.74955">
        <ele>192</ele>
        <time>2017-05-16T08:44:56Z</time>
      </trkpt>
      <trkpt lat="45.9524" lon="4.74961">
        <ele>191</ele>
        <time>2017-05-16T08:44:57Z</time>
      </trkpt>
      <trkpt lat="45.95245" lon="4.74968">
        <ele>191</ele>
        <time>2017-05-16T08:44:58Z</time>
      </trkpt>
      <trkpt lat="45.95249" lon="4.74975">
        <ele>191</ele>
        <time>2017-05-16T08:44:59Z</time>
      </trkpt>
      <trkpt lat="45.95253" lon="4.74983">
        <ele>192</ele>
        <time>2017-05-16T08:45:00Z</time>
      </trkpt>
      <trkpt lat="45.95258" lon="4.74989">
        <ele>192</ele>
        <time>2017-05-16T08:45:01Z</time>
      </trkpt>
      <trkpt lat="45.95262" lon="4.74996">
        <ele>192</ele>
        <time>2017-05-16T08:45:02Z</time>
      </trkpt>
      <trkpt lat="45.95267" lon="4.75003">
        <ele>191</ele>
        <time>2017-05-16T08:45:03Z</time>
      </trkpt>
      <trkpt lat="45.95271" lon="4.75009">
        <ele>191</ele>
        <time>2017-05-16T08:45:04Z</time>
      </trkpt>
      <trkpt lat="45.95275" lon="4.75015">
        <ele>191</ele>
        <time>2017-05-16T08:45:05Z</time>
      </trkpt>
      <trkpt lat="45.9528" lon="4.75021">
        <ele>191</ele>
        <time>2017-05-16T08:45:06Z</time>
      </trkpt>
      <trkpt lat="45.95284" lon="4.75028">
        <ele>191</ele>
        <time>2017-05-16T08:45:07Z</time>
      </trkpt>
      <trkpt lat="45.95288" lon="4.75034">
        <ele>191</ele>
        <time>2017-05-16T08:45:08Z</time>
      </trkpt>
      <trkpt lat="45.95291" lon="4.7504">
        <ele>191</ele>
        <time>2017-05-16T08:45:09Z</time>
      </trkpt>
      <trkpt lat="45.95296" lon="4.75046">
        <ele>191</ele>
        <time>2017-05-16T08:45:10Z</time>
      </trkpt>
      <trkpt lat="45.953" lon="4.75052">
        <ele>191</ele>
        <time>2017-05-16T08:45:11Z</time>
      </trkpt>
      <trkpt lat="45.95304" lon="4.75058">
        <ele>191</ele>
        <time>2017-05-16T08:45:12Z</time>
      </trkpt>
      <trkpt lat="45.95308" lon="4.75064">
        <ele>192</ele>
        <time>2017-05-16T08:45:13Z</time>
      </trkpt>
      <trkpt lat="45.95312" lon="4.75071">
        <ele>192</ele>
        <time>2017-05-16T08:45:14Z</time>
      </trkpt>
      <trkpt lat="45.95316" lon="4.75077">
        <ele>192</ele>
        <time>2017-05-16T08:45:15Z</time>
      </trkpt>
      <trkpt lat="45.9532" lon="4.75083">
        <ele>192</ele>
        <time>2017-05-16T08:45:16Z</time>
      </trkpt>
      <trkpt lat="45.95324" lon="4.75089">
        <ele>191</ele>
        <time>2017-05-16T08:45:17Z</time>
      </trkpt>
      <trkpt lat="45.95328" lon="4.75095">
        <ele>191</ele>
        <time>2017-05-16T08:45:18Z</time>
      </trkpt>
      <trkpt lat="45.95331" lon="4.75101">
        <ele>190</ele>
        <time>2017-05-16T08:45:19Z</time>
      </trkpt>
      <trkpt lat="45.95334" lon="4.75107">
        <ele>192</ele>
        <time>2017-05-16T08:45:20Z</time>
      </trkpt>
      <trkpt lat="45.95338" lon="4.75113">
        <ele>192</ele>
        <time>2017-05-16T08:45:21Z</time>
      </trkpt>
      <trkpt lat="45.95342" lon="4.75119">
        <ele>191</ele>
        <time>2017-05-16T08:45:22Z</time>
      </trkpt>
      <trkpt lat="45.95345" lon="4.75125">
        <ele>191</ele>
        <time>2017-05-16T08:45:23Z</time>
      </trkpt>
      <trkpt lat="45.95349" lon="4.75131">
        <ele>191</ele>
        <time>2017-05-16T08:45:24Z</time>
      </trkpt>
      <trkpt lat="45.95352" lon="4.75137">
        <ele>191</ele>
        <time>2017-05-16T08:45:25Z</time>
      </trkpt>
      <trkpt lat="45.95356" lon="4.75143">
        <ele>191</ele>
        <time>2017-05-16T08:45:26Z</time>
      </trkpt>
      <trkpt lat="45.9536" lon="4.75149">
        <ele>191</ele>
        <time>2017-05-16T08:45:27Z</time>
      </trkpt>
      <trkpt lat="45.95364" lon="4.75155">
        <ele>191</ele>
        <time>2017-05-16T08:45:28Z</time>
      </trkpt>
      <trkpt lat="45.95369" lon="4.75161">
        <ele>191</ele>
        <time>2017-05-16T08:45:29Z</time>
      </trkpt>
      <trkpt lat="45.95373" lon="4.75168">
        <ele>188</ele>
        <time>2017-05-16T08:45:30Z</time>
      </trkpt>
      <trkpt lat="45.95377" lon="4.75175">
        <ele>189</ele>
        <time>2017-05-16T08:45:31Z</time>
      </trkpt>
      <trkpt lat="45.95381" lon="4.75181">
        <ele>189</ele>
        <time>2017-05-16T08:45:32Z</time>
      </trkpt>
      <trkpt lat="45.95385" lon="4.75188">
        <ele>189</ele>
        <time>2017-05-16T08:45:33Z</time>
      </trkpt>
      <trkpt lat="45.95389" lon="4.75194">
        <ele>189</ele>
        <time>2017-05-16T08:45:34Z</time>
      </trkpt>
      <trkpt lat="45.95393" lon="4.75201">
        <ele>189</ele>
        <time>2017-05-16T08:45:35Z</time>
      </trkpt>
      <trkpt lat="45.95397" lon="4.75208">
        <ele>188</ele>
        <time>2017-05-16T08:45:36Z</time>
      </trkpt>
      <trkpt lat="45.95401" lon="4.75215">
        <ele>188</ele>
        <time>2017-05-16T08:45:37Z</time>
      </trkpt>
      <trkpt lat="45.95404" lon="4.75222">
        <ele>188</ele>
        <time>2017-05-16T08:45:38Z</time>
      </trkpt>
      <trkpt lat="45.95408" lon="4.75229">
        <ele>188</ele>
        <time>2017-05-16T08:45:39Z</time>
      </trkpt>
      <trkpt lat="45.95412" lon="4.75236">
        <ele>189</ele>
        <time>2017-05-16T08:45:40Z</time>
      </trkpt>
      <trkpt lat="45.95416" lon="4.75243">
        <ele>189</ele>
        <time>2017-05-16T08:45:41Z</time>
      </trkpt>
      <trkpt lat="45.95419" lon="4.7525">
        <ele>189</ele>
        <time>2017-05-16T08:45:42Z</time>
      </trkpt>
      <trkpt lat="45.95423" lon="4.75258">
        <ele>189</ele>
        <time>2017-05-16T08:45:43Z</time>
      </trkpt>
      <trkpt lat="45.95427" lon="4.75265">
        <ele>189</ele>
        <time>2017-05-16T08:45:44Z</time>
      </trkpt>
      <trkpt lat="45.95431" lon="4.75273">
        <ele>188</ele>
        <time>2017-05-16T08:45:45Z</time>
      </trkpt>
      <trkpt lat="45.95435" lon="4.7528">
        <ele>188</ele>
        <time>2017-05-16T08:45:46Z</time>
      </trkpt>
      <trkpt lat="45.95439" lon="4.75288">
        <ele>188</ele>
        <time>2017-05-16T08:45:47Z</time>
      </trkpt>
      <trkpt lat="45.95442" lon="4.75296">
        <ele>188</ele>
        <time>2017-05-16T08:45:48Z</time>
      </trkpt>
      <trkpt lat="45.95446" lon="4.75304">
        <ele>188</ele>
        <time>2017-05-16T08:45:49Z</time>
      </trkpt>
      <trkpt lat="45.9545" lon="4.75311">
        <ele>188</ele>
        <time>2017-05-16T08:45:50Z</time>
      </trkpt>
      <trkpt lat="45.95454" lon="4.75319">
        <ele>188</ele>
        <time>2017-05-16T08:45:51Z</time>
      </trkpt>
      <trkpt lat="45.95458" lon="4.75327">
        <ele>188</ele>
        <time>2017-05-16T08:45:52Z</time>
      </trkpt>
      <trkpt lat="45.95463" lon="4.75335">
        <ele>185</ele>
        <time>2017-05-16T08:45:53Z</time>
      </trkpt>
      <trkpt lat="45.95466" lon="4.75342">
        <ele>185</ele>
        <time>2017-05-16T08:45:54Z</time>
      </trkpt>
      <trkpt lat="45.9547" lon="4.7535">
        <ele>185</ele>
        <time>2017-05-16T08:45:55Z</time>
      </trkpt>
      <trkpt lat="45.95474" lon="4.75357">
        <ele>185</ele>
        <time>2017-05-16T08:45:56Z</time>
      </trkpt>
      <trkpt lat="45.95479" lon="4.75365">
        <ele>185</ele>
        <time>2017-05-16T08:45:57Z</time>
      </trkpt>
      <trkpt lat="45.95482" lon="4.75373">
        <ele>185</ele>
        <time>2017-05-16T08:45:58Z</time>
      </trkpt>
      <trkpt lat="45.95486" lon="4.75381">
        <ele>185</ele>
        <time>2017-05-16T08:45:59Z</time>
      </trkpt>
      <trkpt lat="45.95489" lon="4.75389">
        <ele>185</ele>
        <time>2017-05-16T08:46:00Z</time>
      </trkpt>
      <trkpt lat="45.95493" lon="4.75397">
        <ele>185</ele>
        <time>2017-05-16T08:46:01Z</time>
      </trkpt>
      <trkpt lat="45.95496" lon="4.75405">
        <ele>185</ele>
        <time>2017-05-16T08:46:02Z</time>
      </trkpt>
      <trkpt lat="45.95499" lon="4.75414">
        <ele>185</ele>
        <time>2017-05-16T08:46:03Z</time>
      </trkpt>
      <trkpt lat="45.95502" lon="4.75423">
        <ele>186</ele>
        <time>2017-05-16T08:46:04Z</time>
      </trkpt>
      <trkpt lat="45.95504" lon="4.75432">
        <ele>186</ele>
        <time>2017-05-16T08:46:05Z</time>
      </trkpt>
      <trkpt lat="45.95505" lon="4.75442">
        <ele>186</ele>
        <time>2017-05-16T08:46:06Z</time>
      </trkpt>
      <trkpt lat="45.95506" lon="4.75452">
        <ele>186</ele>
        <time>2017-05-16T08:46:07Z</time>
      </trkpt>
      <trkpt lat="45.95506" lon="4.75462">
        <ele>186</ele>
        <time>2017-05-16T08:46:08Z</time>
      </trkpt>
      <trkpt lat="45.95505" lon="4.75472">
        <ele>186</ele>
        <time>2017-05-16T08:46:09Z</time>
      </trkpt>
      <trkpt lat="45.95505" lon="4.75482">
        <ele>186</ele>
        <time>2017-05-16T08:46:10Z</time>
      </trkpt>
      <trkpt lat="45.95507" lon="4.75491">
        <ele>185</ele>
        <time>2017-05-16T08:46:11Z</time>
      </trkpt>
      <trkpt lat="45.95511" lon="4.75498">
        <ele>185</ele>
        <time>2017-05-16T08:46:12Z</time>
      </trkpt>
      <trkpt lat="45.95515" lon="4.75504">
        <ele>185</ele>
        <time>2017-05-16T08:46:13Z</time>
      </trkpt>
      <trkpt lat="45.95521" lon="4.75507">
        <ele>185</ele>
        <time>2017-05-16T08:46:14Z</time>
      </trkpt>
      <trkpt lat="45.95526" lon="4.75511">
        <ele>185</ele>
        <time>2017-05-16T08:46:15Z</time>
      </trkpt>
      <trkpt lat="45.95531" lon="4.75514">
        <ele>185</ele>
        <time>2017-05-16T08:46:16Z</time>
      </trkpt>
      <trkpt lat="45.95536" lon="4.75519">
        <ele>186</ele>
        <time>2017-05-16T08:46:17Z</time>
      </trkpt>
      <trkpt lat="45.95541" lon="4.75524">
        <ele>186</ele>
        <time>2017-05-16T08:46:18Z</time>
      </trkpt>
      <trkpt lat="45.95546" lon="4.75529">
        <ele>186</ele>
        <time>2017-05-16T08:46:19Z</time>
      </trkpt>
      <trkpt lat="45.95551" lon="4.75534">
        <ele>186</ele>
        <time>2017-05-16T08:46:20Z</time>
      </trkpt>
      <trkpt lat="45.95556" lon="4.75539">
        <ele>186</ele>
        <time>2017-05-16T08:46:21Z</time>
      </trkpt>
      <trkpt lat="45.95561" lon="4.75544">
        <ele>186</ele>
        <time>2017-05-16T08:46:22Z</time>
      </trkpt>
      <trkpt lat="45.95566" lon="4.75549">
        <ele>186</ele>
        <time>2017-05-16T08:46:23Z</time>
      </trkpt>
      <trkpt lat="45.95571" lon="4.75554">
        <ele>186</ele>
        <time>2017-05-16T08:46:24Z</time>
      </trkpt>
      <trkpt lat="45.95576" lon="4.7556">
        <ele>186</ele>
        <time>2017-05-16T08:46:25Z</time>
      </trkpt>
      <trkpt lat="45.9558" lon="4.75566">
        <ele>186</ele>
        <time>2017-05-16T08:46:26Z</time>
      </trkpt>
      <trkpt lat="45.95584" lon="4.75573">
        <ele>187</ele>
        <time>2017-05-16T08:46:27Z</time>
      </trkpt>
      <trkpt lat="45.95588" lon="4.7558">
        <ele>187</ele>
        <time>2017-05-16T08:46:28Z</time>
      </trkpt>
      <trkpt lat="45.95591" lon="4.75588">
        <ele>187</ele>
        <time>2017-05-16T08:46:29Z</time>
      </trkpt>
      <trkpt lat="45.95595" lon="4.75596">
        <ele>187</ele>
        <time>2017-05-16T08:46:30Z</time>
      </trkpt>
      <trkpt lat="45.95598" lon="4.75604">
        <ele>187</ele>
        <time>2017-05-16T08:46:31Z</time>
      </trkpt>
      <trkpt lat="45.95601" lon="4.75612">
        <ele>187</ele>
        <time>2017-05-16T08:46:32Z</time>
      </trkpt>
      <trkpt lat="45.95605" lon="4.75621">
        <ele>188</ele>
        <time>2017-05-16T08:46:33Z</time>
      </trkpt>
      <trkpt lat="45.95607" lon="4.75629">
        <ele>188</ele>
        <time>2017-05-16T08:46:34Z</time>
      </trkpt>
      <trkpt lat="45.9561" lon="4.75638">
        <ele>188</ele>
        <time>2017-05-16T08:46:35Z</time>
      </trkpt>
      <trkpt lat="45.95612" lon="4.75648">
        <ele>188</ele>
        <time>2017-05-16T08:46:36Z</time>
      </trkpt>
      <trkpt lat="45.95614" lon="4.75658">
        <ele>188</ele>
        <time>2017-05-16T08:46:37Z</time>
      </trkpt>
      <trkpt lat="45.95616" lon="4.75667">
        <ele>187</ele>
        <time>2017-05-16T08:46:38Z</time>
      </trkpt>
      <trkpt lat="45.95618" lon="4.75677">
        <ele>187</ele>
        <time>2017-05-16T08:46:39Z</time>
      </trkpt>
      <trkpt lat="45.9562" lon="4.75687">
        <ele>187</ele>
        <time>2017-05-16T08:46:40Z</time>
      </trkpt>
      <trkpt lat="45.95622" lon="4.75696">
        <ele>187</ele>
        <time>2017-05-16T08:46:41Z</time>
      </trkpt>
      <trkpt lat="45.95623" lon="4.75705">
        <ele>187</ele>
        <time>2017-05-16T08:46:42Z</time>
      </trkpt>
      <trkpt lat="45.95624" lon="4.75715">
        <ele>187</ele>
        <time>2017-05-16T08:46:43Z</time>
      </trkpt>
      <trkpt lat="45.95625" lon="4.75724">
        <ele>187</ele>
        <time>2017-05-16T08:46:44Z</time>
      </trkpt>
      <trkpt lat="45.95627" lon="4.75734">
        <ele>187</ele>
        <time>2017-05-16T08:46:45Z</time>
      </trkpt>
      <trkpt lat="45.95628" lon="4.75744">
        <ele>187</ele>
        <time>2017-05-16T08:46:46Z</time>
      </trkpt>
      <trkpt lat="45.95629" lon="4.75754">
        <ele>186</ele>
        <time>2017-05-16T08:46:47Z</time>
      </trkpt>
      <trkpt lat="45.95631" lon="4.75763">
        <ele>185</ele>
        <time>2017-05-16T08:46:48Z</time>
      </trkpt>
      <trkpt lat="45.95632" lon="4.75773">
        <ele>185</ele>
        <time>2017-05-16T08:46:49Z</time>
      </trkpt>
      <trkpt lat="45.95633" lon="4.75784">
        <ele>185</ele>
        <time>2017-05-16T08:46:50Z</time>
      </trkpt>
      <trkpt lat="45.95635" lon="4.75794">
        <ele>185</ele>
        <time>2017-05-16T08:46:51Z</time>
      </trkpt>
      <trkpt lat="45.95637" lon="4.75804">
        <ele>185</ele>
        <time>2017-05-16T08:46:52Z</time>
      </trkpt>
      <trkpt lat="45.95639" lon="4.75814">
        <ele>185</ele>
        <time>2017-05-16T08:46:53Z</time>
      </trkpt>
      <trkpt lat="45.95641" lon="4.75823">
        <ele>185</ele>
        <time>2017-05-16T08:46:54Z</time>
      </trkpt>
      <trkpt lat="45.95643" lon="4.75833">
        <ele>185</ele>
        <time>2017-05-16T08:46:55Z</time>
      </trkpt>
      <trkpt lat="45.95645" lon="4.75842">
        <ele>184</ele>
        <time>2017-05-16T08:46:56Z</time>
      </trkpt>
      <trkpt lat="45.95648" lon="4.75851">
        <ele>184</ele>
        <time>2017-05-16T08:46:57Z</time>
      </trkpt>
      <trkpt lat="45.9565" lon="4.75861">
        <ele>184</ele>
        <time>2017-05-16T08:46:58Z</time>
      </trkpt>
      <trkpt lat="45.95652" lon="4.75869">
        <ele>184</ele>
        <time>2017-05-16T08:46:59Z</time>
      </trkpt>
      <trkpt lat="45.95655" lon="4.75878">
        <ele>184</ele>
        <time>2017-05-16T08:47:00Z</time>
      </trkpt>
      <trkpt lat="45.95658" lon="4.75886">
        <ele>184</ele>
        <time>2017-05-16T08:47:01Z</time>
      </trkpt>
      <trkpt lat="45.95662" lon="4.75894">
        <ele>184</ele>
        <time>2017-05-16T08:47:02Z</time>
      </trkpt>
      <trkpt lat="45.95665" lon="4.75903">
        <ele>184</ele>
        <time>2017-05-16T08:47:03Z</time>
      </trkpt>
      <trkpt lat="45.95668" lon="4.75911">
        <ele>185</ele>
        <time>2017-05-16T08:47:04Z</time>
      </trkpt>
      <trkpt lat="45.95672" lon="4.75919">
        <ele>184</ele>
        <time>2017-05-16T08:47:05Z</time>
      </trkpt>
      <trkpt lat="45.95676" lon="4.75927">
        <ele>185</ele>
        <time>2017-05-16T08:47:06Z</time>
      </trkpt>
      <trkpt lat="45.95679" lon="4.75936">
        <ele>185</ele>
        <time>2017-05-16T08:47:07Z</time>
      </trkpt>
      <trkpt lat="45.95683" lon="4.75944">
        <ele>185</ele>
        <time>2017-05-16T08:47:08Z</time>
      </trkpt>
      <trkpt lat="45.95687" lon="4.75951">
        <ele>185</ele>
        <time>2017-05-16T08:47:09Z</time>
      </trkpt>
      <trkpt lat="45.95691" lon="4.75958">
        <ele>185</ele>
        <time>2017-05-16T08:47:10Z</time>
      </trkpt>
      <trkpt lat="45.95694" lon="4.75966">
        <ele>185</ele>
        <time>2017-05-16T08:47:11Z</time>
      </trkpt>
      <trkpt lat="45.95697" lon="4.75973">
        <ele>185</ele>
        <time>2017-05-16T08:47:12Z</time>
      </trkpt>
      <trkpt lat="45.957" lon="4.7598">
        <ele>185</ele>
        <time>2017-05-16T08:47:13Z</time>
      </trkpt>
      <trkpt lat="45.95703" lon="4.75987">
        <ele>185</ele>
        <time>2017-05-16T08:47:14Z</time>
      </trkpt>
      <trkpt lat="45.95706" lon="4.75994">
        <ele>185</ele>
        <time>2017-05-16T08:47:15Z</time>
      </trkpt>
      <trkpt lat="45.95709" lon="4.76001">
        <ele>184</ele>
        <time>2017-05-16T08:47:16Z</time>
      </trkpt>
      <trkpt lat="45.95712" lon="4.76008">
        <ele>184</ele>
        <time>2017-05-16T08:47:17Z</time>
      </trkpt>
      <trkpt lat="45.95715" lon="4.76015">
        <ele>184</ele>
        <time>2017-05-16T08:47:18Z</time>
      </trkpt>
      <trkpt lat="45.95718" lon="4.76022">
        <ele>184</ele>
        <time>2017-05-16T08:47:19Z</time>
      </trkpt>
      <trkpt lat="45.95721" lon="4.7603">
        <ele>184</ele>
        <time>2017-05-16T08:47:20Z</time>
      </trkpt>
      <trkpt lat="45.95724" lon="4.76036">
        <ele>184</ele>
        <time>2017-05-16T08:47:21Z</time>
      </trkpt>
      <trkpt lat="45.95727" lon="4.76043">
        <ele>184</ele>
        <time>2017-05-16T08:47:22Z</time>
      </trkpt>
      <trkpt lat="45.9573" lon="4.76049">
        <ele>184</ele>
        <time>2017-05-16T08:47:23Z</time>
      </trkpt>
      <trkpt lat="45.95733" lon="4.76055">
        <ele>184</ele>
        <time>2017-05-16T08:47:24Z</time>
      </trkpt>
      <trkpt lat="45.95736" lon="4.76061">
        <ele>184</ele>
        <time>2017-05-16T08:47:25Z</time>
      </trkpt>
      <trkpt lat="45.95739" lon="4.76067">
        <ele>184</ele>
        <time>2017-05-16T08:47:26Z</time>
      </trkpt>
      <trkpt lat="45.95742" lon="4.76074">
        <ele>185</ele>
        <time>2017-05-16T08:47:27Z</time>
      </trkpt>
      <trkpt lat="45.95744" lon="4.76081">
        <ele>185</ele>
        <time>2017-05-16T08:47:28Z</time>
      </trkpt>
      <trkpt lat="45.95747" lon="4.76088">
        <ele>185</ele>
        <time>2017-05-16T08:47:29Z</time>
      </trkpt>
      <trkpt lat="45.95749" lon="4.76096">
        <ele>185</ele>
        <time>2017-05-16T08:47:30Z</time>
      </trkpt>
      <trkpt lat="45.95751" lon="4.76104">
        <ele>186</ele>
        <time>2017-05-16T08:47:31Z</time>
      </trkpt>
      <trkpt lat="45.95753" lon="4.76112">
        <ele>186</ele>
        <time>2017-05-16T08:47:32Z</time>
      </trkpt>
      <trkpt lat="45.95755" lon="4.76121">
        <ele>186</ele>
        <time>2017-05-16T08:47:33Z</time>
      </trkpt>
      <trkpt lat="45.95756" lon="4.7613">
        <ele>186</ele>
        <time>2017-05-16T08:47:34Z</time>
      </trkpt>
      <trkpt lat="45.95757" lon="4.7614">
        <ele>186</ele>
        <time>2017-05-16T08:47:35Z</time>
      </trkpt>
      <trkpt lat="45.95758" lon="4.76149">
        <ele>186</ele>
        <time>2017-05-16T08:47:36Z</time>
      </trkpt>
      <trkpt lat="45.95759" lon="4.76158">
        <ele>186</ele>
        <time>2017-05-16T08:47:37Z</time>
      </trkpt>
      <trkpt lat="45.9576" lon="4.76166">
        <ele>185</ele>
        <time>2017-05-16T08:47:38Z</time>
      </trkpt>
      <trkpt lat="45.9576" lon="4.76175">
        <ele>185</ele>
        <time>2017-05-16T08:47:39Z</time>
      </trkpt>
      <trkpt lat="45.9576" lon="4.76183">
        <ele>186</ele>
        <time>2017-05-16T08:47:40Z</time>
      </trkpt>
      <trkpt lat="45.95761" lon="4.76191">
        <ele>186</ele>
        <time>2017-05-16T08:47:41Z</time>
      </trkpt>
      <trkpt lat="45.95762" lon="4.76199">
        <ele>186</ele>
        <time>2017-05-16T08:47:42Z</time>
      </trkpt>
      <trkpt lat="45.95762" lon="4.76206">
        <ele>186</ele>
        <time>2017-05-16T08:47:43Z</time>
      </trkpt>
      <trkpt lat="45.95762" lon="4.76214">
        <ele>186</ele>
        <time>2017-05-16T08:47:44Z</time>
      </trkpt>
      <trkpt lat="45.95763" lon="4.76222">
        <ele>186</ele>
        <time>2017-05-16T08:47:45Z</time>
      </trkpt>
      <trkpt lat="45.95763" lon="4.76229">
        <ele>186</ele>
        <time>2017-05-16T08:47:46Z</time>
      </trkpt>
      <trkpt lat="45.95763" lon="4.76237">
        <ele>186</ele>
        <time>2017-05-16T08:47:47Z</time>
      </trkpt>
      <trkpt lat="45.95764" lon="4.76245">
        <ele>185</ele>
        <time>2017-05-16T08:47:48Z</time>
      </trkpt>
      <trkpt lat="45.95764" lon="4.76253">
        <ele>185</ele>
        <time>2017-05-16T08:47:49Z</time>
      </trkpt>
      <trkpt lat="45.95764" lon="4.76261">
        <ele>185</ele>
        <time>2017-05-16T08:47:50Z</time>
      </trkpt>
      <trkpt lat="45.95765" lon="4.76269">
        <ele>185</ele>
        <time>2017-05-16T08:47:51Z</time>
      </trkpt>
      <trkpt lat="45.95765" lon="4.76278">
        <ele>186</ele>
        <time>2017-05-16T08:47:52Z</time>
      </trkpt>
      <trkpt lat="45.95766" lon="4.76286">
        <ele>186</ele>
        <time>2017-05-16T08:47:53Z</time>
      </trkpt>
      <trkpt lat="45.95766" lon="4.76294">
        <ele>186</ele>
        <time>2017-05-16T08:47:54Z</time>
      </trkpt>
      <trkpt lat="45.95766" lon="4.76301">
        <ele>186</ele>
        <time>2017-05-16T08:47:55Z</time>
      </trkpt>
      <trkpt lat="45.95767" lon="4.76309">
        <ele>185</ele>
        <time>2017-05-16T08:47:56Z</time>
      </trkpt>
      <trkpt lat="45.95767" lon="4.76316">
        <ele>185</ele>
        <time>2017-05-16T08:47:57Z</time>
      </trkpt>
      <trkpt lat="45.95767" lon="4.76324">
        <ele>185</ele>
        <time>2017-05-16T08:47:58Z</time>
      </trkpt>
      <trkpt lat="45.95768" lon="4.76331">
        <ele>185</ele>
        <time>2017-05-16T08:47:59Z</time>
      </trkpt>
      <trkpt lat="45.95768" lon="4.76338">
        <ele>186</ele>
        <time>2017-05-16T08:48:00Z</time>
      </trkpt>
      <trkpt lat="45.95768" lon="4.76346">
        <ele>186</ele>
        <time>2017-05-16T08:48:01Z</time>
      </trkpt>
      <trkpt lat="45.95768" lon="4.76353">
        <ele>186</ele>
        <time>2017-05-16T08:48:02Z</time>
      </trkpt>
      <trkpt lat="45.95768" lon="4.76361">
        <ele>186</ele>
        <time>2017-05-16T08:48:03Z</time>
      </trkpt>
      <trkpt lat="45.95768" lon="4.76368">
        <ele>186</ele>
        <time>2017-05-16T08:48:04Z</time>
      </trkpt>
      <trkpt lat="45.95768" lon="4.76376">
        <ele>186</ele>
        <time>2017-05-16T08:48:05Z</time>
      </trkpt>
      <trkpt lat="45.95769" lon="4.76383">
        <ele>186</ele>
        <time>2017-05-16T08:48:06Z</time>
      </trkpt>
      <trkpt lat="45.95769" lon="4.76391">
        <ele>186</ele>
        <time>2017-05-16T08:48:07Z</time>
      </trkpt>
      <trkpt lat="45.9577" lon="4.76398">
        <ele>186</ele>
        <time>2017-05-16T08:48:08Z</time>
      </trkpt>
      <trkpt lat="45.9577" lon="4.76404">
        <ele>186</ele>
        <time>2017-05-16T08:48:09Z</time>
      </trkpt>
      <trkpt lat="45.95771" lon="4.76412">
        <ele>186</ele>
        <time>2017-05-16T08:48:10Z</time>
      </trkpt>
      <trkpt lat="45.95773" lon="4.76419">
        <ele>186</ele>
        <time>2017-05-16T08:48:11Z</time>
      </trkpt>
      <trkpt lat="45.95774" lon="4.76427">
        <ele>186</ele>
        <time>2017-05-16T08:48:12Z</time>
      </trkpt>
      <trkpt lat="45.95775" lon="4.76435">
        <ele>186</ele>
        <time>2017-05-16T08:48:13Z</time>
      </trkpt>
      <trkpt lat="45.95776" lon="4.76444">
        <ele>186</ele>
        <time>2017-05-16T08:48:14Z</time>
      </trkpt>
      <trkpt lat="45.95776" lon="4.76452">
        <ele>186</ele>
        <time>2017-05-16T08:48:15Z</time>
      </trkpt>
      <trkpt lat="45.95777" lon="4.7646">
        <ele>186</ele>
        <time>2017-05-16T08:48:16Z</time>
      </trkpt>
      <trkpt lat="45.95779" lon="4.76467">
        <ele>186</ele>
        <time>2017-05-16T08:48:17Z</time>
      </trkpt>
      <trkpt lat="45.9578" lon="4.76475">
        <ele>186</ele>
        <time>2017-05-16T08:48:18Z</time>
      </trkpt>
      <trkpt lat="45.95781" lon="4.76483">
        <ele>186</ele>
        <time>2017-05-16T08:48:19Z</time>
      </trkpt>
      <trkpt lat="45.95782" lon="4.76491">
        <ele>186</ele>
        <time>2017-05-16T08:48:20Z</time>
      </trkpt>
      <trkpt lat="45.95784" lon="4.76498">
        <ele>186</ele>
        <time>2017-05-16T08:48:21Z</time>
      </trkpt>
      <trkpt lat="45.95785" lon="4.76507">
        <ele>186</ele>
        <time>2017-05-16T08:48:22Z</time>
      </trkpt>
      <trkpt lat="45.95786" lon="4.76514">
        <ele>187</ele>
        <time>2017-05-16T08:48:23Z</time>
      </trkpt>
      <trkpt lat="45.95787" lon="4.76522">
        <ele>187</ele>
        <time>2017-05-16T08:48:24Z</time>
      </trkpt>
      <trkpt lat="45.95788" lon="4.76529">
        <ele>187</ele>
        <time>2017-05-16T08:48:25Z</time>
      </trkpt>
      <trkpt lat="45.95789" lon="4.76537">
        <ele>187</ele>
        <time>2017-05-16T08:48:26Z</time>
      </trkpt>
      <trkpt lat="45.9579" lon="4.76543">
        <ele>187</ele>
        <time>2017-05-16T08:48:27Z</time>
      </trkpt>
      <trkpt lat="45.95791" lon="4.7655">
        <ele>187</ele>
        <time>2017-05-16T08:48:28Z</time>
      </trkpt>
      <trkpt lat="45.95792" lon="4.76557">
        <ele>187</ele>
        <time>2017-05-16T08:48:29Z</time>
      </trkpt>
      <trkpt lat="45.95794" lon="4.76564">
        <ele>187</ele>
        <time>2017-05-16T08:48:30Z</time>
      </trkpt>
      <trkpt lat="45.95795" lon="4.76572">
        <ele>187</ele>
        <time>2017-05-16T08:48:31Z</time>
      </trkpt>
      <trkpt lat="45.95797" lon="4.7658">
        <ele>187</ele>
        <time>2017-05-16T08:48:32Z</time>
      </trkpt>
      <trkpt lat="45.95798" lon="4.76588">
        <ele>187</ele>
        <time>2017-05-16T08:48:33Z</time>
      </trkpt>
      <trkpt lat="45.95799" lon="4.76596">
        <ele>187</ele>
        <time>2017-05-16T08:48:34Z</time>
      </trkpt>
      <trkpt lat="45.958" lon="4.76605">
        <ele>187</ele>
        <time>2017-05-16T08:48:35Z</time>
      </trkpt>
      <trkpt lat="45.95802" lon="4.76613">
        <ele>188</ele>
        <time>2017-05-16T08:48:36Z</time>
      </trkpt>
      <trkpt lat="45.95803" lon="4.76621">
        <ele>188</ele>
        <time>2017-05-16T08:48:37Z</time>
      </trkpt>
      <trkpt lat="45.95804" lon="4.76629">
        <ele>188</ele>
        <time>2017-05-16T08:48:38Z</time>
      </trkpt>
      <trkpt lat="45.95805" lon="4.76636">
        <ele>188</ele>
        <time>2017-05-16T08:48:39Z</time>
      </trkpt>
      <trkpt lat="45.95806" lon="4.76644">
        <ele>188</ele>
        <time>2017-05-16T08:48:40Z</time>
      </trkpt>
      <trkpt lat="45.95807" lon="4.76652">
        <ele>188</ele>
        <time>2017-05-16T08:48:41Z</time>
      </trkpt>
      <trkpt lat="45.95808" lon="4.76659">
        <ele>188</ele>
        <time>2017-05-16T08:48:42Z</time>
      </trkpt>
      <trkpt lat="45.95809" lon="4.76667">
        <ele>189</ele>
        <time>2017-05-16T08:48:43Z</time>
      </trkpt>
      <trkpt lat="45.95811" lon="4.76675">
        <ele>189</ele>
        <time>2017-05-16T08:48:44Z</time>
      </trkpt>
      <trkpt lat="45.95812" lon="4.76682">
        <ele>189</ele>
        <time>2017-05-16T08:48:45Z</time>
      </trkpt>
      <trkpt lat="45.95813" lon="4.7669">
        <ele>189</ele>
        <time>2017-05-16T08:48:46Z</time>
      </trkpt>
      <trkpt lat="45.95814" lon="4.76696">
        <ele>189</ele>
        <time>2017-05-16T08:48:47Z</time>
      </trkpt>
      <trkpt lat="45.95814" lon="4.76703">
        <ele>189</ele>
        <time>2017-05-16T08:48:48Z</time>
      </trkpt>
      <trkpt lat="45.95815" lon="4.76709">
        <ele>189</ele>
        <time>2017-05-16T08:48:49Z</time>
      </trkpt>
      <trkpt lat="45.95816" lon="4.76716">
        <ele>189</ele>
        <time>2017-05-16T08:48:50Z</time>
      </trkpt>
      <trkpt lat="45.95817" lon="4.76724">
        <ele>189</ele>
        <time>2017-05-16T08:48:51Z</time>
      </trkpt>
      <trkpt lat="45.95818" lon="4.76732">
        <ele>190</ele>
        <time>2017-05-16T08:48:52Z</time>
      </trkpt>
      <trkpt lat="45.95819" lon="4.76739">
        <ele>190</ele>
        <time>2017-05-16T08:48:53Z</time>
      </trkpt>
      <trkpt lat="45.9582" lon="4.76747">
        <ele>190</ele>
        <time>2017-05-16T08:48:54Z</time>
      </trkpt>
      <trkpt lat="45.95821" lon="4.76755">
        <ele>190</ele>
        <time>2017-05-16T08:48:55Z</time>
      </trkpt>
      <trkpt lat="45.95822" lon="4.76762">
        <ele>190</ele>
        <time>2017-05-16T08:48:56Z</time>
      </trkpt>
      <trkpt lat="45.95823" lon="4.76769">
        <ele>190</ele>
        <time>2017-05-16T08:48:57Z</time>
      </trkpt>
      <trkpt lat="45.95824" lon="4.76776">
        <ele>190</ele>
        <time>2017-05-16T08:48:58Z</time>
      </trkpt>
      <trkpt lat="45.95825" lon="4.76783">
        <ele>190</ele>
        <time>2017-05-16T08:48:59Z</time>
      </trkpt>
      <trkpt lat="45.95825" lon="4.76789">
        <ele>190</ele>
        <time>2017-05-16T08:49:00Z</time>
      </trkpt>
      <trkpt lat="45.95826" lon="4.76796">
        <ele>190</ele>
        <time>2017-05-16T08:49:01Z</time>
      </trkpt>
      <trkpt lat="45.95826" lon="4.76802">
        <ele>190</ele>
        <time>2017-05-16T08:49:02Z</time>
      </trkpt>
      <trkpt lat="45.95826" lon="4.76809">
        <ele>190</ele>
        <time>2017-05-16T08:49:03Z</time>
      </trkpt>
      <trkpt lat="45.95826" lon="4.76816">
        <ele>190</ele>
        <time>2017-05-16T08:49:04Z</time>
      </trkpt>
      <trkpt lat="45.95826" lon="4.76823">
        <ele>190</ele>
        <time>2017-05-16T08:49:05Z</time>
      </trkpt>
      <trkpt lat="45.95825" lon="4.7683">
        <ele>190</ele>
        <time>2017-05-16T08:49:06Z</time>
      </trkpt>
      <trkpt lat="45.95825" lon="4.76837">
        <ele>190</ele>
        <time>2017-05-16T08:49:07Z</time>
      </trkpt>
      <trkpt lat="45.95823" lon="4.76844">
        <ele>190</ele>
        <time>2017-05-16T08:49:08Z</time>
      </trkpt>
      <trkpt lat="45.95822" lon="4.76851">
        <ele>189</ele>
        <time>2017-05-16T08:49:09Z</time>
      </trkpt>
      <trkpt lat="45.9582" lon="4.76859">
        <ele>189</ele>
        <time>2017-05-16T08:49:10Z</time>
      </trkpt>
      <trkpt lat="45.95819" lon="4.76866">
        <ele>189</ele>
        <time>2017-05-16T08:49:11Z</time>
      </trkpt>
      <trkpt lat="45.95818" lon="4.76873">
        <ele>189</ele>
        <time>2017-05-16T08:49:12Z</time>
      </trkpt>
      <trkpt lat="45.95818" lon="4.7688">
        <ele>189</ele>
        <time>2017-05-16T08:49:13Z</time>
      </trkpt>
      <trkpt lat="45.95816" lon="4.76887">
        <ele>189</ele>
        <time>2017-05-16T08:49:14Z</time>
      </trkpt>
      <trkpt lat="45.95815" lon="4.76894">
        <ele>189</ele>
        <time>2017-05-16T08:49:15Z</time>
      </trkpt>
      <trkpt lat="45.95813" lon="4.76901">
        <ele>189</ele>
        <time>2017-05-16T08:49:16Z</time>
      </trkpt>
      <trkpt lat="45.95812" lon="4.76908">
        <ele>189</ele>
        <time>2017-05-16T08:49:17Z</time>
      </trkpt>
      <trkpt lat="45.95811" lon="4.76916">
        <ele>189</ele>
        <time>2017-05-16T08:49:18Z</time>
      </trkpt>
      <trkpt lat="45.95809" lon="4.76924">
        <ele>189</ele>
        <time>2017-05-16T08:49:19Z</time>
      </trkpt>
      <trkpt lat="45.95807" lon="4.76932">
        <ele>189</ele>
        <time>2017-05-16T08:49:20Z</time>
      </trkpt>
      <trkpt lat="45.95805" lon="4.7694">
        <ele>189</ele>
        <time>2017-05-16T08:49:21Z</time>
      </trkpt>
      <trkpt lat="45.95804" lon="4.76948">
        <ele>189</ele>
        <time>2017-05-16T08:49:22Z</time>
      </trkpt>
      <trkpt lat="45.95802" lon="4.76955">
        <ele>189</ele>
        <time>2017-05-16T08:49:23Z</time>
      </trkpt>
      <trkpt lat="45.95801" lon="4.76962">
        <ele>189</ele>
        <time>2017-05-16T08:49:24Z</time>
      </trkpt>
      <trkpt lat="45.958" lon="4.7697">
        <ele>189</ele>
        <time>2017-05-16T08:49:25Z</time>
      </trkpt>
      <trkpt lat="45.95799" lon="4.76976">
        <ele>189</ele>
        <time>2017-05-16T08:49:26Z</time>
      </trkpt>
      <trkpt lat="45.95799" lon="4.76983">
        <ele>189</ele>
        <time>2017-05-16T08:49:27Z</time>
      </trkpt>
      <trkpt lat="45.95798" lon="4.7699">
        <ele>189</ele>
        <time>2017-05-16T08:49:28Z</time>
      </trkpt>
      <trkpt lat="45.95799" lon="4.76997">
        <ele>189</ele>
        <time>2017-05-16T08:49:29Z</time>
      </trkpt>
      <trkpt lat="45.958" lon="4.77005">
        <ele>190</ele>
        <time>2017-05-16T08:49:30Z</time>
      </trkpt>
      <trkpt lat="45.95801" lon="4.77013">
        <ele>190</ele>
        <time>2017-05-16T08:49:31Z</time>
      </trkpt>
      <trkpt lat="45.95803" lon="4.7702">
        <ele>190</ele>
        <time>2017-05-16T08:49:32Z</time>
      </trkpt>
      <trkpt lat="45.95805" lon="4.77027">
        <ele>190</ele>
        <time>2017-05-16T08:49:33Z</time>
      </trkpt>
      <trkpt lat="45.95807" lon="4.77033">
        <ele>190</ele>
        <time>2017-05-16T08:49:34Z</time>
      </trkpt>
      <trkpt lat="45.95809" lon="4.7704">
        <ele>190</ele>
        <time>2017-05-16T08:49:35Z</time>
      </trkpt>
      <trkpt lat="45.95811" lon="4.77046">
        <ele>190</ele>
        <time>2017-05-16T08:49:36Z</time>
      </trkpt>
      <trkpt lat="45.95813" lon="4.77052">
        <ele>190</ele>
        <time>2017-05-16T08:49:37Z</time>
      </trkpt>
      <trkpt lat="45.95816" lon="4.77059">
        <ele>190</ele>
        <time>2017-05-16T08:49:38Z</time>
      </trkpt>
      <trkpt lat="45.95819" lon="4.77065">
        <ele>190</ele>
        <time>2017-05-16T08:49:39Z</time>
      </trkpt>
      <trkpt lat="45.95821" lon="4.77072">
        <ele>191</ele>
        <time>2017-05-16T08:49:40Z</time>
      </trkpt>
      <trkpt lat="45.95824" lon="4.77079">
        <ele>191</ele>
        <time>2017-05-16T08:49:41Z</time>
      </trkpt>
      <trkpt lat="45.95826" lon="4.77086">
        <ele>191</ele>
        <time>2017-05-16T08:49:42Z</time>
      </trkpt>
      <trkpt lat="45.95829" lon="4.77093">
        <ele>191</ele>
        <time>2017-05-16T08:49:43Z</time>
      </trkpt>
      <trkpt lat="45.95831" lon="4.771">
        <ele>191</ele>
        <time>2017-05-16T08:49:44Z</time>
      </trkpt>
      <trkpt lat="45.95833" lon="4.77107">
        <ele>190</ele>
        <time>2017-05-16T08:49:45Z</time>
      </trkpt>
      <trkpt lat="45.95835" lon="4.77113">
        <ele>193</ele>
        <time>2017-05-16T08:49:46Z</time>
      </trkpt>
      <trkpt lat="45.95837" lon="4.77119">
        <ele>193</ele>
        <time>2017-05-16T08:49:47Z</time>
      </trkpt>
      <trkpt lat="45.95839" lon="4.77126">
        <ele>193</ele>
        <time>2017-05-16T08:49:48Z</time>
      </trkpt>
      <trkpt lat="45.95841" lon="4.77133">
        <ele>193</ele>
        <time>2017-05-16T08:49:49Z</time>
      </trkpt>
      <trkpt lat="45.95843" lon="4.7714">
        <ele>192</ele>
        <time>2017-05-16T08:49:50Z</time>
      </trkpt>
      <trkpt lat="45.95845" lon="4.77147">
        <ele>192</ele>
        <time>2017-05-16T08:49:51Z</time>
      </trkpt>
      <trkpt lat="45.95847" lon="4.77154">
        <ele>192</ele>
        <time>2017-05-16T08:49:52Z</time>
      </trkpt>
      <trkpt lat="45.95849" lon="4.77162">
        <ele>192</ele>
        <time>2017-05-16T08:49:53Z</time>
      </trkpt>
      <trkpt lat="45.95851" lon="4.77169">
        <ele>192</ele>
        <time>2017-05-16T08:49:54Z</time>
      </trkpt>
      <trkpt lat="45.95853" lon="4.77176">
        <ele>192</ele>
        <time>2017-05-16T08:49:55Z</time>
      </trkpt>
      <trkpt lat="45.95856" lon="4.77183">
        <ele>192</ele>
        <time>2017-05-16T08:49:56Z</time>
      </trkpt>
      <trkpt lat="45.95858" lon="4.7719">
        <ele>192</ele>
        <time>2017-05-16T08:49:57Z</time>
      </trkpt>
      <trkpt lat="45.9586" lon="4.77196">
        <ele>192</ele>
        <time>2017-05-16T08:49:58Z</time>
      </trkpt>
      <trkpt lat="45.95861" lon="4.77203">
        <ele>192</ele>
        <time>2017-05-16T08:49:59Z</time>
      </trkpt>
      <trkpt lat="45.95863" lon="4.77209">
        <ele>192</ele>
        <time>2017-05-16T08:50:00Z</time>
      </trkpt>
      <trkpt lat="45.95865" lon="4.77216">
        <ele>193</ele>
        <time>2017-05-16T08:50:01Z</time>
      </trkpt>
      <trkpt lat="45.95866" lon="4.77223">
        <ele>193</ele>
        <time>2017-05-16T08:50:02Z</time>
      </trkpt>
      <trkpt lat="45.95867" lon="4.77229">
        <ele>193</ele>
        <time>2017-05-16T08:50:03Z</time>
      </trkpt>
      <trkpt lat="45.95868" lon="4.77235">
        <ele>193</ele>
        <time>2017-05-16T08:50:04Z</time>
      </trkpt>
      <trkpt lat="45.95871" lon="4.77248">
        <ele>193</ele>
        <time>2017-05-16T08:50:06Z</time>
      </trkpt>
      <trkpt lat="45.95872" lon="4.77254">
        <ele>192</ele>
        <time>2017-05-16T08:50:07Z</time>
      </trkpt>
      <trkpt lat="45.95874" lon="4.7726">
        <ele>193</ele>
        <time>2017-05-16T08:50:08Z</time>
      </trkpt>
      <trkpt lat="45.95875" lon="4.77266">
        <ele>193</ele>
        <time>2017-05-16T08:50:09Z</time>
      </trkpt>
      <trkpt lat="45.95876" lon="4.77272">
        <ele>193</ele>
        <time>2017-05-16T08:50:10Z</time>
      </trkpt>
      <trkpt lat="45.95878" lon="4.77279">
        <ele>193</ele>
        <time>2017-05-16T08:50:11Z</time>
      </trkpt>
      <trkpt lat="45.95879" lon="4.77285">
        <ele>193</ele>
        <time>2017-05-16T08:50:12Z</time>
      </trkpt>
      <trkpt lat="45.9588" lon="4.77292">
        <ele>193</ele>
        <time>2017-05-16T08:50:13Z</time>
      </trkpt>
      <trkpt lat="45.95882" lon="4.77298">
        <ele>193</ele>
        <time>2017-05-16T08:50:14Z</time>
      </trkpt>
      <trkpt lat="45.95883" lon="4.77304">
        <ele>193</ele>
        <time>2017-05-16T08:50:15Z</time>
      </trkpt>
      <trkpt lat="45.95886" lon="4.77316">
        <ele>193</ele>
        <time>2017-05-16T08:50:17Z</time>
      </trkpt>
      <trkpt lat="45.95888" lon="4.77322">
        <ele>193</ele>
        <time>2017-05-16T08:50:18Z</time>
      </trkpt>
      <trkpt lat="45.9589" lon="4.77328">
        <ele>193</ele>
        <time>2017-05-16T08:50:19Z</time>
      </trkpt>
      <trkpt lat="45.95892" lon="4.77334">
        <ele>193</ele>
        <time>2017-05-16T08:50:20Z</time>
      </trkpt>
      <trkpt lat="45.95894" lon="4.77341">
        <ele>193</ele>
        <time>2017-05-16T08:50:21Z</time>
      </trkpt>
      <trkpt lat="45.95895" lon="4.77347">
        <ele>193</ele>
        <time>2017-05-16T08:50:22Z</time>
      </trkpt>
      <trkpt lat="45.95897" lon="4.77353">
        <ele>193</ele>
        <time>2017-05-16T08:50:23Z</time>
      </trkpt>
      <trkpt lat="45.95899" lon="4.77359">
        <ele>193</ele>
        <time>2017-05-16T08:50:24Z</time>
      </trkpt>
      <trkpt lat="45.95901" lon="4.77365">
        <ele>193</ele>
        <time>2017-05-16T08:50:25Z</time>
      </trkpt>
      <trkpt lat="45.95903" lon="4.77371">
        <ele>193</ele>
        <time>2017-05-16T08:50:26Z</time>
      </trkpt>
      <trkpt lat="45.95906" lon="4.77377">
        <ele>193</ele>
        <time>2017-05-16T08:50:27Z</time>
      </trkpt>
      <trkpt lat="45.95908" lon="4.77384">
        <ele>193</ele>
        <time>2017-05-16T08:50:28Z</time>
      </trkpt>
      <trkpt lat="45.9591" lon="4.7739">
        <ele>193</ele>
        <time>2017-05-16T08:50:29Z</time>
      </trkpt>
      <trkpt lat="45.95912" lon="4.77395">
        <ele>193</ele>
        <time>2017-05-16T08:50:30Z</time>
      </trkpt>
      <trkpt lat="45.95917" lon="4.77406">
        <ele>193</ele>
        <time>2017-05-16T08:50:32Z</time>
      </trkpt>
      <trkpt lat="45.95919" lon="4.77412">
        <ele>195</ele>
        <time>2017-05-16T08:50:33Z</time>
      </trkpt>
      <trkpt lat="45.95921" lon="4.77418">
        <ele>194</ele>
        <time>2017-05-16T08:50:34Z</time>
      </trkpt>
      <trkpt lat="45.95924" lon="4.77424">
        <ele>195</ele>
        <time>2017-05-16T08:50:35Z</time>
      </trkpt>
      <trkpt lat="45.95926" lon="4.7743">
        <ele>195</ele>
        <time>2017-05-16T08:50:36Z</time>
      </trkpt>
      <trkpt lat="45.95928" lon="4.77436">
        <ele>195</ele>
        <time>2017-05-16T08:50:37Z</time>
      </trkpt>
      <trkpt lat="45.95931" lon="4.77447">
        <ele>195</ele>
        <time>2017-05-16T08:50:39Z</time>
      </trkpt>
      <trkpt lat="45.95933" lon="4.77453">
        <ele>195</ele>
        <time>2017-05-16T08:50:40Z</time>
      </trkpt>
      <trkpt lat="45.95937" lon="4.77464">
        <ele>195</ele>
        <time>2017-05-16T08:50:42Z</time>
      </trkpt>
      <trkpt lat="45.95939" lon="4.7747">
        <ele>195</ele>
        <time>2017-05-16T08:50:43Z</time>
      </trkpt>
      <trkpt lat="45.95941" lon="4.77476">
        <ele>195</ele>
        <time>2017-05-16T08:50:44Z</time>
      </trkpt>
      <trkpt lat="45.95943" lon="4.77482">
        <ele>195</ele>
        <time>2017-05-16T08:50:45Z</time>
      </trkpt>
      <trkpt lat="45.95945" lon="4.77489">
        <ele>195</ele>
        <time>2017-05-16T08:50:46Z</time>
      </trkpt>
      <trkpt lat="45.95948" lon="4.77495">
        <ele>195</ele>
        <time>2017-05-16T08:50:47Z</time>
      </trkpt>
      <trkpt lat="45.9595" lon="4.77501">
        <ele>194</ele>
        <time>2017-05-16T08:50:48Z</time>
      </trkpt>
      <trkpt lat="45.95952" lon="4.77507">
        <ele>195</ele>
        <time>2017-05-16T08:50:49Z</time>
      </trkpt>
      <trkpt lat="45.95956" lon="4.77517">
        <ele>195</ele>
        <time>2017-05-16T08:50:51Z</time>
      </trkpt>
      <trkpt lat="45.95959" lon="4.77522">
        <ele>195</ele>
        <time>2017-05-16T08:50:52Z</time>
      </trkpt>
      <trkpt lat="45.95963" lon="4.77533">
        <ele>195</ele>
        <time>2017-05-16T08:50:54Z</time>
      </trkpt>
      <trkpt lat="45.95966" lon="4.77539">
        <ele>195</ele>
        <time>2017-05-16T08:50:55Z</time>
      </trkpt>
      <trkpt lat="45.95971" lon="4.77548">
        <ele>195</ele>
        <time>2017-05-16T08:50:57Z</time>
      </trkpt>
      <trkpt lat="45.95973" lon="4.77553">
        <ele>195</ele>
        <time>2017-05-16T08:50:58Z</time>
      </trkpt>
      <trkpt lat="45.95977" lon="4.77564">
        <ele>195</ele>
        <time>2017-05-16T08:51:00Z</time>
      </trkpt>
      <trkpt lat="45.95979" lon="4.7757">
        <ele>196</ele>
        <time>2017-05-16T08:51:01Z</time>
      </trkpt>
      <trkpt lat="45.95981" lon="4.77576">
        <ele>196</ele>
        <time>2017-05-16T08:51:02Z</time>
      </trkpt>
      <trkpt lat="45.95984" lon="4.77583">
        <ele>196</ele>
        <time>2017-05-16T08:51:03Z</time>
      </trkpt>
      <trkpt lat="45.95986" lon="4.7759">
        <ele>195</ele>
        <time>2017-05-16T08:51:04Z</time>
      </trkpt>
      <trkpt lat="45.95989" lon="4.77597">
        <ele>195</ele>
        <time>2017-05-16T08:51:05Z</time>
      </trkpt>
      <trkpt lat="45.95992" lon="4.77602">
        <ele>195</ele>
        <time>2017-05-16T08:51:06Z</time>
      </trkpt>
      <trkpt lat="45.95996" lon="4.77606">
        <ele>195</ele>
        <time>2017-05-16T08:51:07Z</time>
      </trkpt>
      <trkpt lat="45.96" lon="4.7761">
        <ele>198</ele>
        <time>2017-05-16T08:51:08Z</time>
      </trkpt>
      <trkpt lat="45.96004" lon="4.77614">
        <ele>199</ele>
        <time>2017-05-16T08:51:09Z</time>
      </trkpt>
      <trkpt lat="45.96009" lon="4.77618">
        <ele>199</ele>
        <time>2017-05-16T08:51:10Z</time>
      </trkpt>
      <trkpt lat="45.96012" lon="4.77622">
        <ele>199</ele>
        <time>2017-05-16T08:51:11Z</time>
      </trkpt>
      <trkpt lat="45.96016" lon="4.77627">
        <ele>199</ele>
        <time>2017-05-16T08:51:12Z</time>
      </trkpt>
      <trkpt lat="45.96019" lon="4.77631">
        <ele>199</ele>
        <time>2017-05-16T08:51:13Z</time>
      </trkpt>
      <trkpt lat="45.96023" lon="4.77635">
        <ele>199</ele>
        <time>2017-05-16T08:51:14Z</time>
      </trkpt>
      <trkpt lat="45.96026" lon="4.7764">
        <ele>199</ele>
        <time>2017-05-16T08:51:15Z</time>
      </trkpt>
      <trkpt lat="45.9603" lon="4.77643">
        <ele>199</ele>
        <time>2017-05-16T08:51:16Z</time>
      </trkpt>
      <trkpt lat="45.96035" lon="4.77646">
        <ele>199</ele>
        <time>2017-05-16T08:51:17Z</time>
      </trkpt>
      <trkpt lat="45.96042" lon="4.77655">
        <ele>199</ele>
        <time>2017-05-16T08:51:19Z</time>
      </trkpt>
      <trkpt lat="45.96045" lon="4.7766">
        <ele>199</ele>
        <time>2017-05-16T08:51:20Z</time>
      </trkpt>
      <trkpt lat="45.96048" lon="4.77665">
        <ele>199</ele>
        <time>2017-05-16T08:51:21Z</time>
      </trkpt>
      <trkpt lat="45.96052" lon="4.77669">
        <ele>197</ele>
        <time>2017-05-16T08:51:22Z</time>
      </trkpt>
      <trkpt lat="45.96055" lon="4.77674">
        <ele>197</ele>
        <time>2017-05-16T08:51:23Z</time>
      </trkpt>
      <trkpt lat="45.96059" lon="4.77678">
        <ele>197</ele>
        <time>2017-05-16T08:51:24Z</time>
      </trkpt>
      <trkpt lat="45.96065" lon="4.77687">
        <ele>197</ele>
        <time>2017-05-16T08:51:26Z</time>
      </trkpt>
      <trkpt lat="45.96068" lon="4.77692">
        <ele>197</ele>
        <time>2017-05-16T08:51:27Z</time>
      </trkpt>
      <trkpt lat="45.96072" lon="4.77697">
        <ele>197</ele>
        <time>2017-05-16T08:51:28Z</time>
      </trkpt>
      <trkpt lat="45.96075" lon="4.77702">
        <ele>197</ele>
        <time>2017-05-16T08:51:29Z</time>
      </trkpt>
      <trkpt lat="45.96079" lon="4.77708">
        <ele>197</ele>
        <time>2017-05-16T08:51:30Z</time>
      </trkpt>
      <trkpt lat="45.96082" lon="4.77714">
        <ele>196</ele>
        <time>2017-05-16T08:51:31Z</time>
      </trkpt>
      <trkpt lat="45.96086" lon="4.7772">
        <ele>199</ele>
        <time>2017-05-16T08:51:32Z</time>
      </trkpt>
      <trkpt lat="45.96089" lon="4.77725">
        <ele>199</ele>
        <time>2017-05-16T08:51:33Z</time>
      </trkpt>
      <trkpt lat="45.96092" lon="4.77731">
        <ele>198</ele>
        <time>2017-05-16T08:51:34Z</time>
      </trkpt>
      <trkpt lat="45.96095" lon="4.77737">
        <ele>198</ele>
        <time>2017-05-16T08:51:35Z</time>
      </trkpt>
      <trkpt lat="45.96098" lon="4.77742">
        <ele>198</ele>
        <time>2017-05-16T08:51:36Z</time>
      </trkpt>
      <trkpt lat="45.96101" lon="4.77747">
        <ele>198</ele>
        <time>2017-05-16T08:51:37Z</time>
      </trkpt>
      <trkpt lat="45.96107" lon="4.77756">
        <ele>197</ele>
        <time>2017-05-16T08:51:39Z</time>
      </trkpt>
      <trkpt lat="45.9611" lon="4.7776">
        <ele>197</ele>
        <time>2017-05-16T08:51:40Z</time>
      </trkpt>
      <trkpt lat="45.96115" lon="4.77769">
        <ele>197</ele>
        <time>2017-05-16T08:51:42Z</time>
      </trkpt>
      <trkpt lat="45.96118" lon="4.77773">
        <ele>197</ele>
        <time>2017-05-16T08:51:43Z</time>
      </trkpt>
      <trkpt lat="45.96123" lon="4.77782">
        <ele>197</ele>
        <time>2017-05-16T08:51:45Z</time>
      </trkpt>
      <trkpt lat="45.96126" lon="4.77786">
        <ele>197</ele>
        <time>2017-05-16T08:51:46Z</time>
      </trkpt>
      <trkpt lat="45.96131" lon="4.77796">
        <ele>197</ele>
        <time>2017-05-16T08:51:48Z</time>
      </trkpt>
      <trkpt lat="45.96133" lon="4.77802">
        <ele>197</ele>
        <time>2017-05-16T08:51:49Z</time>
      </trkpt>
      <trkpt lat="45.96138" lon="4.77813">
        <ele>197</ele>
        <time>2017-05-16T08:51:51Z</time>
      </trkpt>
      <trkpt lat="45.9614" lon="4.77818">
        <ele>198</ele>
        <time>2017-05-16T08:51:52Z</time>
      </trkpt>
      <trkpt lat="45.96143" lon="4.77824">
        <ele>198</ele>
        <time>2017-05-16T08:51:53Z</time>
      </trkpt>
      <trkpt lat="45.96146" lon="4.77829">
        <ele>198</ele>
        <time>2017-05-16T08:51:54Z</time>
      </trkpt>
      <trkpt lat="45.96149" lon="4.77834">
        <ele>196</ele>
        <time>2017-05-16T08:51:55Z</time>
      </trkpt>
      <trkpt lat="45.96152" lon="4.77839">
        <ele>197</ele>
        <time>2017-05-16T08:51:56Z</time>
      </trkpt>
      <trkpt lat="45.96155" lon="4.77844">
        <ele>197</ele>
        <time>2017-05-16T08:51:57Z</time>
      </trkpt>
      <trkpt lat="45.96158" lon="4.77849">
        <ele>196</ele>
        <time>2017-05-16T08:51:58Z</time>
      </trkpt>
      <trkpt lat="45.96164" lon="4.77858">
        <ele>196</ele>
        <time>2017-05-16T08:52:00Z</time>
      </trkpt>
      <trkpt lat="45.96167" lon="4.77863">
        <ele>196</ele>
        <time>2017-05-16T08:52:01Z</time>
      </trkpt>
      <trkpt lat="45.96172" lon="4.77872">
        <ele>201</ele>
        <time>2017-05-16T08:52:03Z</time>
      </trkpt>
      <trkpt lat="45.96175" lon="4.77877">
        <ele>201</ele>
        <time>2017-05-16T08:52:04Z</time>
      </trkpt>
      <trkpt lat="45.96178" lon="4.77881">
        <ele>201</ele>
        <time>2017-05-16T08:52:05Z</time>
      </trkpt>
      <trkpt lat="45.96182" lon="4.77886">
        <ele>201</ele>
        <time>2017-05-16T08:52:06Z</time>
      </trkpt>
      <trkpt lat="45.96185" lon="4.77892">
        <ele>200</ele>
        <time>2017-05-16T08:52:07Z</time>
      </trkpt>
      <trkpt lat="45.96189" lon="4.77897">
        <ele>200</ele>
        <time>2017-05-16T08:52:08Z</time>
      </trkpt>
      <trkpt lat="45.96193" lon="4.77903">
        <ele>201</ele>
        <time>2017-05-16T08:52:09Z</time>
      </trkpt>
      <trkpt lat="45.96197" lon="4.77909">
        <ele>201</ele>
        <time>2017-05-16T08:52:10Z</time>
      </trkpt>
      <trkpt lat="45.96201" lon="4.77915">
        <ele>201</ele>
        <time>2017-05-16T08:52:11Z</time>
      </trkpt>
      <trkpt lat="45.96205" lon="4.77921">
        <ele>199</ele>
        <time>2017-05-16T08:52:12Z</time>
      </trkpt>
      <trkpt lat="45.96209" lon="4.77927">
        <ele>199</ele>
        <time>2017-05-16T08:52:13Z</time>
      </trkpt>
      <trkpt lat="45.96213" lon="4.77933">
        <ele>199</ele>
        <time>2017-05-16T08:52:14Z</time>
      </trkpt>
      <trkpt lat="45.96217" lon="4.77938">
        <ele>199</ele>
        <time>2017-05-16T08:52:15Z</time>
      </trkpt>
      <trkpt lat="45.96221" lon="4.77943">
        <ele>199</ele>
        <time>2017-05-16T08:52:16Z</time>
      </trkpt>
      <trkpt lat="45.96224" lon="4.77948">
        <ele>199</ele>
        <time>2017-05-16T08:52:17Z</time>
      </trkpt>
      <trkpt lat="45.96228" lon="4.77953">
        <ele>199</ele>
        <time>2017-05-16T08:52:18Z</time>
      </trkpt>
      <trkpt lat="45.96232" lon="4.77958">
        <ele>199</ele>
        <time>2017-05-16T08:52:19Z</time>
      </trkpt>
      <trkpt lat="45.96236" lon="4.77962">
        <ele>199</ele>
        <time>2017-05-16T08:52:20Z</time>
      </trkpt>
      <trkpt lat="45.96239" lon="4.77966">
        <ele>198</ele>
        <time>2017-05-16T08:52:21Z</time>
      </trkpt>
      <trkpt lat="45.96243" lon="4.77971">
        <ele>198</ele>
        <time>2017-05-16T08:52:22Z</time>
      </trkpt>
      <trkpt lat="45.96248" lon="4.77975">
        <ele>198</ele>
        <time>2017-05-16T08:52:23Z</time>
      </trkpt>
      <trkpt lat="45.96251" lon="4.77979">
        <ele>202</ele>
        <time>2017-05-16T08:52:24Z</time>
      </trkpt>
      <trkpt lat="45.96256" lon="4.77982">
        <ele>201</ele>
        <time>2017-05-16T08:52:25Z</time>
      </trkpt>
      <trkpt lat="45.9626" lon="4.77986">
        <ele>201</ele>
        <time>2017-05-16T08:52:26Z</time>
      </trkpt>
      <trkpt lat="45.96264" lon="4.7799">
        <ele>201</ele>
        <time>2017-05-16T08:52:27Z</time>
      </trkpt>
      <trkpt lat="45.96269" lon="4.77994">
        <ele>201</ele>
        <time>2017-05-16T08:52:28Z</time>
      </trkpt>
      <trkpt lat="45.96273" lon="4.77998">
        <ele>202</ele>
        <time>2017-05-16T08:52:29Z</time>
      </trkpt>
      <trkpt lat="45.96277" lon="4.78003">
        <ele>198</ele>
        <time>2017-05-16T08:52:30Z</time>
      </trkpt>
      <trkpt lat="45.96281" lon="4.78007">
        <ele>198</ele>
        <time>2017-05-16T08:52:31Z</time>
      </trkpt>
      <trkpt lat="45.96286" lon="4.78011">
        <ele>199</ele>
        <time>2017-05-16T08:52:32Z</time>
      </trkpt>
      <trkpt lat="45.9629" lon="4.78015">
        <ele>199</ele>
        <time>2017-05-16T08:52:33Z</time>
      </trkpt>
      <trkpt lat="45.96294" lon="4.78019">
        <ele>199</ele>
        <time>2017-05-16T08:52:34Z</time>
      </trkpt>
      <trkpt lat="45.96298" lon="4.78023">
        <ele>199</ele>
        <time>2017-05-16T08:52:35Z</time>
      </trkpt>
      <trkpt lat="45.96302" lon="4.78028">
        <ele>199</ele>
        <time>2017-05-16T08:52:36Z</time>
      </trkpt>
      <trkpt lat="45.96306" lon="4.78033">
        <ele>199</ele>
        <time>2017-05-16T08:52:37Z</time>
      </trkpt>
      <trkpt lat="45.9631" lon="4.78038">
        <ele>199</ele>
        <time>2017-05-16T08:52:38Z</time>
      </trkpt>
      <trkpt lat="45.96314" lon="4.78042">
        <ele>199</ele>
        <time>2017-05-16T08:52:39Z</time>
      </trkpt>
      <trkpt lat="45.96318" lon="4.78047">
        <ele>199</ele>
        <time>2017-05-16T08:52:40Z</time>
      </trkpt>
      <trkpt lat="45.96322" lon="4.78051">
        <ele>199</ele>
        <time>2017-05-16T08:52:41Z</time>
      </trkpt>
      <trkpt lat="45.96325" lon="4.78056">
        <ele>199</ele>
        <time>2017-05-16T08:52:42Z</time>
      </trkpt>
      <trkpt lat="45.96329" lon="4.78061">
        <ele>199</ele>
        <time>2017-05-16T08:52:43Z</time>
      </trkpt>
      <trkpt lat="45.96333" lon="4.78066">
        <ele>198</ele>
        <time>2017-05-16T08:52:44Z</time>
      </trkpt>
      <trkpt lat="45.96337" lon="4.78071">
        <ele>200</ele>
        <time>2017-05-16T08:52:45Z</time>
      </trkpt>
      <trkpt lat="45.96341" lon="4.78076">
        <ele>200</ele>
        <time>2017-05-16T08:52:46Z</time>
      </trkpt>
      <trkpt lat="45.96345" lon="4.78081">
        <ele>200</ele>
        <time>2017-05-16T08:52:47Z</time>
      </trkpt>
      <trkpt lat="45.9635" lon="4.78085">
        <ele>199</ele>
        <time>2017-05-16T08:52:48Z</time>
      </trkpt>
      <trkpt lat="45.96354" lon="4.7809">
        <ele>199</ele>
        <time>2017-05-16T08:52:49Z</time>
      </trkpt>
      <trkpt lat="45.96358" lon="4.78094">
        <ele>199</ele>
        <time>2017-05-16T08:52:50Z</time>
      </trkpt>
      <trkpt lat="45.96363" lon="4.78098">
        <ele>199</ele>
        <time>2017-05-16T08:52:51Z</time>
      </trkpt>
      <trkpt lat="45.96368" lon="4.78102">
        <ele>199</ele>
        <time>2017-05-16T08:52:52Z</time>
      </trkpt>
      <trkpt lat="45.96373" lon="4.78106">
        <ele>199</ele>
        <time>2017-05-16T08:52:53Z</time>
      </trkpt>
      <trkpt lat="45.96379" lon="4.7811">
        <ele>199</ele>
        <time>2017-05-16T08:52:54Z</time>
      </trkpt>
      <trkpt lat="45.96383" lon="4.78114">
        <ele>200</ele>
        <time>2017-05-16T08:52:55Z</time>
      </trkpt>
      <trkpt lat="45.96388" lon="4.78119">
        <ele>199</ele>
        <time>2017-05-16T08:52:56Z</time>
      </trkpt>
      <trkpt lat="45.96391" lon="4.78123">
        <ele>199</ele>
        <time>2017-05-16T08:52:57Z</time>
      </trkpt>
      <trkpt lat="45.96395" lon="4.78127">
        <ele>199</ele>
        <time>2017-05-16T08:52:58Z</time>
      </trkpt>
      <trkpt lat="45.96399" lon="4.7813">
        <ele>199</ele>
        <time>2017-05-16T08:52:59Z</time>
      </trkpt>
      <trkpt lat="45.96404" lon="4.78133">
        <ele>199</ele>
        <time>2017-05-16T08:53:00Z</time>
      </trkpt>
      <trkpt lat="45.96408" lon="4.78137">
        <ele>199</ele>
        <time>2017-05-16T08:53:01Z</time>
      </trkpt>
      <trkpt lat="45.96413" lon="4.7814">
        <ele>199</ele>
        <time>2017-05-16T08:53:02Z</time>
      </trkpt>
      <trkpt lat="45.96416" lon="4.78144">
        <ele>199</ele>
        <time>2017-05-16T08:53:03Z</time>
      </trkpt>
      <trkpt lat="45.96421" lon="4.78149">
        <ele>202</ele>
        <time>2017-05-16T08:53:04Z</time>
      </trkpt>
      <trkpt lat="45.96425" lon="4.78153">
        <ele>202</ele>
        <time>2017-05-16T08:53:05Z</time>
      </trkpt>
      <trkpt lat="45.96429" lon="4.78157">
        <ele>202</ele>
        <time>2017-05-16T08:53:06Z</time>
      </trkpt>
      <trkpt lat="45.96434" lon="4.78161">
        <ele>202</ele>
        <time>2017-05-16T08:53:07Z</time>
      </trkpt>
      <trkpt lat="45.96438" lon="4.78165">
        <ele>202</ele>
        <time>2017-05-16T08:53:08Z</time>
      </trkpt>
      <trkpt lat="45.96442" lon="4.78169">
        <ele>199</ele>
        <time>2017-05-16T08:53:09Z</time>
      </trkpt>
      <trkpt lat="45.96447" lon="4.78172">
        <ele>199</ele>
        <time>2017-05-16T08:53:10Z</time>
      </trkpt>
      <trkpt lat="45.9645" lon="4.78176">
        <ele>199</ele>
        <time>2017-05-16T08:53:11Z</time>
      </trkpt>
      <trkpt lat="45.96454" lon="4.7818">
        <ele>200</ele>
        <time>2017-05-16T08:53:12Z</time>
      </trkpt>
      <trkpt lat="45.96458" lon="4.78184">
        <ele>200</ele>
        <time>2017-05-16T08:53:13Z</time>
      </trkpt>
      <trkpt lat="45.96463" lon="4.78187">
        <ele>200</ele>
        <time>2017-05-16T08:53:14Z</time>
      </trkpt>
      <trkpt lat="45.96468" lon="4.7819">
        <ele>200</ele>
        <time>2017-05-16T08:53:15Z</time>
      </trkpt>
      <trkpt lat="45.96472" lon="4.78192">
        <ele>200</ele>
        <time>2017-05-16T08:53:16Z</time>
      </trkpt>
      <trkpt lat="45.96477" lon="4.78194">
        <ele>200</ele>
        <time>2017-05-16T08:53:17Z</time>
      </trkpt>
      <trkpt lat="45.96481" lon="4.78196">
        <ele>200</ele>
        <time>2017-05-16T08:53:18Z</time>
      </trkpt>
      <trkpt lat="45.96489" lon="4.78202">
        <ele>200</ele>
        <time>2017-05-16T08:53:20Z</time>
      </trkpt>
      <trkpt lat="45.96494" lon="4.78206">
        <ele>200</ele>
        <time>2017-05-16T08:53:21Z</time>
      </trkpt>
      <trkpt lat="45.96498" lon="4.78211">
        <ele>200</ele>
        <time>2017-05-16T08:53:22Z</time>
      </trkpt>
      <trkpt lat="45.96501" lon="4.78216">
        <ele>204</ele>
        <time>2017-05-16T08:53:23Z</time>
      </trkpt>
      <trkpt lat="45.96505" lon="4.78221">
        <ele>204</ele>
        <time>2017-05-16T08:53:24Z</time>
      </trkpt>
      <trkpt lat="45.96509" lon="4.78227">
        <ele>203</ele>
        <time>2017-05-16T08:53:25Z</time>
      </trkpt>
      <trkpt lat="45.96513" lon="4.78233">
        <ele>203</ele>
        <time>2017-05-16T08:53:26Z</time>
      </trkpt>
      <trkpt lat="45.96517" lon="4.78239">
        <ele>203</ele>
        <time>2017-05-16T08:53:27Z</time>
      </trkpt>
      <trkpt lat="45.9652" lon="4.78246">
        <ele>203</ele>
        <time>2017-05-16T08:53:28Z</time>
      </trkpt>
      <trkpt lat="45.96523" lon="4.78252">
        <ele>199</ele>
        <time>2017-05-16T08:53:29Z</time>
      </trkpt>
      <trkpt lat="45.96527" lon="4.78257">
        <ele>200</ele>
        <time>2017-05-16T08:53:30Z</time>
      </trkpt>
      <trkpt lat="45.9653" lon="4.78262">
        <ele>200</ele>
        <time>2017-05-16T08:53:31Z</time>
      </trkpt>
      <trkpt lat="45.96534" lon="4.78267">
        <ele>200</ele>
        <time>2017-05-16T08:53:32Z</time>
      </trkpt>
      <trkpt lat="45.96537" lon="4.78272">
        <ele>200</ele>
        <time>2017-05-16T08:53:33Z</time>
      </trkpt>
      <trkpt lat="45.9654" lon="4.78276">
        <ele>200</ele>
        <time>2017-05-16T08:53:34Z</time>
      </trkpt>
      <trkpt lat="45.96544" lon="4.78281">
        <ele>200</ele>
        <time>2017-05-16T08:53:35Z</time>
      </trkpt>
      <trkpt lat="45.96547" lon="4.78286">
        <ele>200</ele>
        <time>2017-05-16T08:53:36Z</time>
      </trkpt>
      <trkpt lat="45.96551" lon="4.78291">
        <ele>200</ele>
        <time>2017-05-16T08:53:37Z</time>
      </trkpt>
      <trkpt lat="45.96555" lon="4.78295">
        <ele>200</ele>
        <time>2017-05-16T08:53:38Z</time>
      </trkpt>
      <trkpt lat="45.96559" lon="4.78299">
        <ele>200</ele>
        <time>2017-05-16T08:53:39Z</time>
      </trkpt>
      <trkpt lat="45.96563" lon="4.78303">
        <ele>200</ele>
        <time>2017-05-16T08:53:40Z</time>
      </trkpt>
      <trkpt lat="45.96567" lon="4.78307">
        <ele>200</ele>
        <time>2017-05-16T08:53:41Z</time>
      </trkpt>
      <trkpt lat="45.96572" lon="4.78311">
        <ele>199</ele>
        <time>2017-05-16T08:53:42Z</time>
      </trkpt>
      <trkpt lat="45.96575" lon="4.78315">
        <ele>199</ele>
        <time>2017-05-16T08:53:43Z</time>
      </trkpt>
      <trkpt lat="45.96579" lon="4.78319">
        <ele>199</ele>
        <time>2017-05-16T08:53:44Z</time>
      </trkpt>
      <trkpt lat="45.96583" lon="4.78323">
        <ele>199</ele>
        <time>2017-05-16T08:53:45Z</time>
      </trkpt>
      <trkpt lat="45.96587" lon="4.78327">
        <ele>200</ele>
        <time>2017-05-16T08:53:46Z</time>
      </trkpt>
      <trkpt lat="45.96591" lon="4.78331">
        <ele>200</ele>
        <time>2017-05-16T08:53:47Z</time>
      </trkpt>
      <trkpt lat="45.96596" lon="4.78335">
        <ele>199</ele>
        <time>2017-05-16T08:53:48Z</time>
      </trkpt>
      <trkpt lat="45.966" lon="4.7834">
        <ele>200</ele>
        <time>2017-05-16T08:53:49Z</time>
      </trkpt>
      <trkpt lat="45.96605" lon="4.78345">
        <ele>200</ele>
        <time>2017-05-16T08:53:50Z</time>
      </trkpt>
      <trkpt lat="45.9661" lon="4.78349">
        <ele>200</ele>
        <time>2017-05-16T08:53:51Z</time>
      </trkpt>
      <trkpt lat="45.96616" lon="4.78354">
        <ele>201</ele>
        <time>2017-05-16T08:53:52Z</time>
      </trkpt>
      <trkpt lat="45.9662" lon="4.78358">
        <ele>201</ele>
        <time>2017-05-16T08:53:53Z</time>
      </trkpt>
      <trkpt lat="45.96625" lon="4.78363">
        <ele>201</ele>
        <time>2017-05-16T08:53:54Z</time>
      </trkpt>
      <trkpt lat="45.9663" lon="4.78367">
        <ele>201</ele>
        <time>2017-05-16T08:53:55Z</time>
      </trkpt>
      <trkpt lat="45.96635" lon="4.78371">
        <ele>201</ele>
        <time>2017-05-16T08:53:56Z</time>
      </trkpt>
      <trkpt lat="45.96639" lon="4.78374">
        <ele>201</ele>
        <time>2017-05-16T08:53:57Z</time>
      </trkpt>
      <trkpt lat="45.96643" lon="4.78378">
        <ele>201</ele>
        <time>2017-05-16T08:53:58Z</time>
      </trkpt>
      <trkpt lat="45.96647" lon="4.78381">
        <ele>201</ele>
        <time>2017-05-16T08:53:59Z</time>
      </trkpt>
      <trkpt lat="45.96654" lon="4.78389">
        <ele>201</ele>
        <time>2017-05-16T08:54:01Z</time>
      </trkpt>
      <trkpt lat="45.96657" lon="4.78393">
        <ele>201</ele>
        <time>2017-05-16T08:54:02Z</time>
      </trkpt>
      <trkpt lat="45.96661" lon="4.78397">
        <ele>201</ele>
        <time>2017-05-16T08:54:03Z</time>
      </trkpt>
      <trkpt lat="45.96665" lon="4.784">
        <ele>201</ele>
        <time>2017-05-16T08:54:04Z</time>
      </trkpt>
      <trkpt lat="45.96669" lon="4.78404">
        <ele>203</ele>
        <time>2017-05-16T08:54:05Z</time>
      </trkpt>
      <trkpt lat="45.96672" lon="4.78408">
        <ele>203</ele>
        <time>2017-05-16T08:54:06Z</time>
      </trkpt>
      <trkpt lat="45.96676" lon="4.78412">
        <ele>203</ele>
        <time>2017-05-16T08:54:07Z</time>
      </trkpt>
      <trkpt lat="45.9668" lon="4.78415">
        <ele>203</ele>
        <time>2017-05-16T08:54:08Z</time>
      </trkpt>
      <trkpt lat="45.96684" lon="4.78419">
        <ele>202</ele>
        <time>2017-05-16T08:54:09Z</time>
      </trkpt>
      <trkpt lat="45.96688" lon="4.78422">
        <ele>202</ele>
        <time>2017-05-16T08:54:10Z</time>
      </trkpt>
      <trkpt lat="45.96695" lon="4.7843">
        <ele>202</ele>
        <time>2017-05-16T08:54:12Z</time>
      </trkpt>
      <trkpt lat="45.96698" lon="4.78434">
        <ele>203</ele>
        <time>2017-05-16T08:54:13Z</time>
      </trkpt>
      <trkpt lat="45.96702" lon="4.7844">
        <ele>203</ele>
        <time>2017-05-16T08:54:14Z</time>
      </trkpt>
      <trkpt lat="45.96706" lon="4.78444">
        <ele>203</ele>
        <time>2017-05-16T08:54:15Z</time>
      </trkpt>
      <trkpt lat="45.9671" lon="4.78449">
        <ele>203</ele>
        <time>2017-05-16T08:54:16Z</time>
      </trkpt>
      <trkpt lat="45.96714" lon="4.78453">
        <ele>203</ele>
        <time>2017-05-16T08:54:17Z</time>
      </trkpt>
      <trkpt lat="45.96719" lon="4.78458">
        <ele>203</ele>
        <time>2017-05-16T08:54:18Z</time>
      </trkpt>
      <trkpt lat="45.96724" lon="4.78461">
        <ele>203</ele>
        <time>2017-05-16T08:54:19Z</time>
      </trkpt>
      <trkpt lat="45.96729" lon="4.78465">
        <ele>203</ele>
        <time>2017-05-16T08:54:20Z</time>
      </trkpt>
      <trkpt lat="45.96733" lon="4.78469">
        <ele>203</ele>
        <time>2017-05-16T08:54:21Z</time>
      </trkpt>
      <trkpt lat="45.96738" lon="4.78474">
        <ele>203</ele>
        <time>2017-05-16T08:54:22Z</time>
      </trkpt>
      <trkpt lat="45.96742" lon="4.78479">
        <ele>203</ele>
        <time>2017-05-16T08:54:23Z</time>
      </trkpt>
      <trkpt lat="45.96747" lon="4.78483">
        <ele>203</ele>
        <time>2017-05-16T08:54:24Z</time>
      </trkpt>
      <trkpt lat="45.96751" lon="4.78488">
        <ele>204</ele>
        <time>2017-05-16T08:54:25Z</time>
      </trkpt>
      <trkpt lat="45.96755" lon="4.78492">
        <ele>204</ele>
        <time>2017-05-16T08:54:26Z</time>
      </trkpt>
      <trkpt lat="45.96759" lon="4.78497">
        <ele>204</ele>
        <time>2017-05-16T08:54:27Z</time>
      </trkpt>
      <trkpt lat="45.96763" lon="4.78503">
        <ele>203</ele>
        <time>2017-05-16T08:54:28Z</time>
      </trkpt>
      <trkpt lat="45.96767" lon="4.78509">
        <ele>203</ele>
        <time>2017-05-16T08:54:29Z</time>
      </trkpt>
      <trkpt lat="45.9677" lon="4.78515">
        <ele>203</ele>
        <time>2017-05-16T08:54:30Z</time>
      </trkpt>
      <trkpt lat="45.96774" lon="4.7852">
        <ele>203</ele>
        <time>2017-05-16T08:54:31Z</time>
      </trkpt>
      <trkpt lat="45.96778" lon="4.78526">
        <ele>203</ele>
        <time>2017-05-16T08:54:32Z</time>
      </trkpt>
      <trkpt lat="45.96781" lon="4.78531">
        <ele>203</ele>
        <time>2017-05-16T08:54:33Z</time>
      </trkpt>
      <trkpt lat="45.96787" lon="4.78541">
        <ele>203</ele>
        <time>2017-05-16T08:54:35Z</time>
      </trkpt>
      <trkpt lat="45.96789" lon="4.78545">
        <ele>203</ele>
        <time>2017-05-16T08:54:36Z</time>
      </trkpt>
      <trkpt lat="45.96795" lon="4.78554">
        <ele>203</ele>
        <time>2017-05-16T08:54:38Z</time>
      </trkpt>
      <trkpt lat="45.96798" lon="4.78559">
        <ele>203</ele>
        <time>2017-05-16T08:54:39Z</time>
      </trkpt>
      <trkpt lat="45.96801" lon="4.78565">
        <ele>203</ele>
        <time>2017-05-16T08:54:40Z</time>
      </trkpt>
      <trkpt lat="45.96805" lon="4.7857">
        <ele>203</ele>
        <time>2017-05-16T08:54:41Z</time>
      </trkpt>
      <trkpt lat="45.96808" lon="4.78575">
        <ele>203</ele>
        <time>2017-05-16T08:54:42Z</time>
      </trkpt>
      <trkpt lat="45.96811" lon="4.7858">
        <ele>203</ele>
        <time>2017-05-16T08:54:43Z</time>
      </trkpt>
      <trkpt lat="45.96816" lon="4.78589">
        <ele>202</ele>
        <time>2017-05-16T08:54:45Z</time>
      </trkpt>
      <trkpt lat="45.96818" lon="4.78595">
        <ele>202</ele>
        <time>2017-05-16T08:54:46Z</time>
      </trkpt>
      <trkpt lat="45.9682" lon="4.78601">
        <ele>202</ele>
        <time>2017-05-16T08:54:47Z</time>
      </trkpt>
      <trkpt lat="45.96822" lon="4.78608">
        <ele>202</ele>
        <time>2017-05-16T08:54:48Z</time>
      </trkpt>
      <trkpt lat="45.96825" lon="4.78615">
        <ele>202</ele>
        <time>2017-05-16T08:54:49Z</time>
      </trkpt>
      <trkpt lat="45.96827" lon="4.78623">
        <ele>201</ele>
        <time>2017-05-16T08:54:50Z</time>
      </trkpt>
      <trkpt lat="45.96829" lon="4.7863">
        <ele>201</ele>
        <time>2017-05-16T08:54:51Z</time>
      </trkpt>
      <trkpt lat="45.96832" lon="4.78637">
        <ele>201</ele>
        <time>2017-05-16T08:54:52Z</time>
      </trkpt>
      <trkpt lat="45.96834" lon="4.78644">
        <ele>203</ele>
        <time>2017-05-16T08:54:53Z</time>
      </trkpt>
      <trkpt lat="45.96837" lon="4.7865">
        <ele>202</ele>
        <time>2017-05-16T08:54:54Z</time>
      </trkpt>
      <trkpt lat="45.9684" lon="4.78655">
        <ele>202</ele>
        <time>2017-05-16T08:54:55Z</time>
      </trkpt>
      <trkpt lat="45.96843" lon="4.7866">
        <ele>202</ele>
        <time>2017-05-16T08:54:56Z</time>
      </trkpt>
      <trkpt lat="45.96847" lon="4.78664">
        <ele>202</ele>
        <time>2017-05-16T08:54:57Z</time>
      </trkpt>
      <trkpt lat="45.96849" lon="4.7867">
        <ele>202</ele>
        <time>2017-05-16T08:54:58Z</time>
      </trkpt>
      <trkpt lat="45.96854" lon="4.78681">
        <ele>202</ele>
        <time>2017-05-16T08:55:00Z</time>
      </trkpt>
      <trkpt lat="45.96857" lon="4.78686">
        <ele>202</ele>
        <time>2017-05-16T08:55:01Z</time>
      </trkpt>
      <trkpt lat="45.9686" lon="4.78692">
        <ele>202</ele>
        <time>2017-05-16T08:55:02Z</time>
      </trkpt>
      <trkpt lat="45.96862" lon="4.78697">
        <ele>202</ele>
        <time>2017-05-16T08:55:03Z</time>
      </trkpt>
      <trkpt lat="45.96867" lon="4.78707">
        <ele>202</ele>
        <time>2017-05-16T08:55:05Z</time>
      </trkpt>
      <trkpt lat="45.9687" lon="4.78711">
        <ele>202</ele>
        <time>2017-05-16T08:55:06Z</time>
      </trkpt>
      <trkpt lat="45.96874" lon="4.78721">
        <ele>202</ele>
        <time>2017-05-16T08:55:09Z</time>
      </trkpt>
      <trkpt lat="45.96875" lon="4.78722">
        <ele>202</ele>
        <time>2017-05-16T08:55:10Z</time>
      </trkpt>
      <trkpt lat="45.96878" lon="4.78733">
        <ele>202</ele>
        <time>2017-05-16T08:55:54Z</time>
      </trkpt>
      <trkpt lat="45.96879" lon="4.78737">
        <ele>202</ele>
        <time>2017-05-16T08:55:55Z</time>
      </trkpt>
      <trkpt lat="45.96881" lon="4.78746">
        <ele>202</ele>
        <time>2017-05-16T08:55:57Z</time>
      </trkpt>
      <trkpt lat="45.96883" lon="4.78751">
        <ele>201</ele>
        <time>2017-05-16T08:55:58Z</time>
      </trkpt>
      <trkpt lat="45.96886" lon="4.78756">
        <ele>201</ele>
        <time>2017-05-16T08:55:59Z</time>
      </trkpt>
      <trkpt lat="45.96889" lon="4.78761">
        <ele>201</ele>
        <time>2017-05-16T08:56:00Z</time>
      </trkpt>
      <trkpt lat="45.96893" lon="4.78766">
        <ele>201</ele>
        <time>2017-05-16T08:56:01Z</time>
      </trkpt>
      <trkpt lat="45.96895" lon="4.78772">
        <ele>201</ele>
        <time>2017-05-16T08:56:02Z</time>
      </trkpt>
      <trkpt lat="45.96898" lon="4.78778">
        <ele>201</ele>
        <time>2017-05-16T08:56:03Z</time>
      </trkpt>
      <trkpt lat="45.96901" lon="4.78784">
        <ele>201</ele>
        <time>2017-05-16T08:56:04Z</time>
      </trkpt>
      <trkpt lat="45.96904" lon="4.78789">
        <ele>201</ele>
        <time>2017-05-16T08:56:05Z</time>
      </trkpt>
      <trkpt lat="45.96906" lon="4.78795">
        <ele>201</ele>
        <time>2017-05-16T08:56:06Z</time>
      </trkpt>
      <trkpt lat="45.96909" lon="4.788">
        <ele>200</ele>
        <time>2017-05-16T08:56:07Z</time>
      </trkpt>
      <trkpt lat="45.96912" lon="4.78805">
        <ele>200</ele>
        <time>2017-05-16T08:56:08Z</time>
      </trkpt>
      <trkpt lat="45.96916" lon="4.7881">
        <ele>200</ele>
        <time>2017-05-16T08:56:09Z</time>
      </trkpt>
      <trkpt lat="45.96919" lon="4.78815">
        <ele>202</ele>
        <time>2017-05-16T08:56:10Z</time>
      </trkpt>
      <trkpt lat="45.96922" lon="4.78821">
        <ele>202</ele>
        <time>2017-05-16T08:56:11Z</time>
      </trkpt>
      <trkpt lat="45.96926" lon="4.78826">
        <ele>202</ele>
        <time>2017-05-16T08:56:12Z</time>
      </trkpt>
      <trkpt lat="45.9693" lon="4.78832">
        <ele>202</ele>
        <time>2017-05-16T08:56:13Z</time>
      </trkpt>
      <trkpt lat="45.96934" lon="4.78837">
        <ele>202</ele>
        <time>2017-05-16T08:56:14Z</time>
      </trkpt>
      <trkpt lat="45.96939" lon="4.78842">
        <ele>202</ele>
        <time>2017-05-16T08:56:15Z</time>
      </trkpt>
      <trkpt lat="45.96943" lon="4.78847">
        <ele>202</ele>
        <time>2017-05-16T08:56:16Z</time>
      </trkpt>
      <trkpt lat="45.96948" lon="4.78852">
        <ele>202</ele>
        <time>2017-05-16T08:56:17Z</time>
      </trkpt>
      <trkpt lat="45.96952" lon="4.78857">
        <ele>203</ele>
        <time>2017-05-16T08:56:18Z</time>
      </trkpt>
      <trkpt lat="45.96956" lon="4.78862">
        <ele>203</ele>
        <time>2017-05-16T08:56:19Z</time>
      </trkpt>
      <trkpt lat="45.9696" lon="4.78867">
        <ele>203</ele>
        <time>2017-05-16T08:56:20Z</time>
      </trkpt>
      <trkpt lat="45.96964" lon="4.78872">
        <ele>203</ele>
        <time>2017-05-16T08:56:21Z</time>
      </trkpt>
      <trkpt lat="45.96967" lon="4.78876">
        <ele>203</ele>
        <time>2017-05-16T08:56:22Z</time>
      </trkpt>
      <trkpt lat="45.96971" lon="4.78881">
        <ele>203</ele>
        <time>2017-05-16T08:56:23Z</time>
      </trkpt>
      <trkpt lat="45.96974" lon="4.78885">
        <ele>203</ele>
        <time>2017-05-16T08:56:24Z</time>
      </trkpt>
      <trkpt lat="45.96978" lon="4.78889">
        <ele>203</ele>
        <time>2017-05-16T08:56:25Z</time>
      </trkpt>
      <trkpt lat="45.96982" lon="4.78893">
        <ele>203</ele>
        <time>2017-05-16T08:56:26Z</time>
      </trkpt>
      <trkpt lat="45.96985" lon="4.78897">
        <ele>203</ele>
        <time>2017-05-16T08:56:27Z</time>
      </trkpt>
      <trkpt lat="45.96989" lon="4.78901">
        <ele>203</ele>
        <time>2017-05-16T08:56:28Z</time>
      </trkpt>
      <trkpt lat="45.96992" lon="4.78906">
        <ele>204</ele>
        <time>2017-05-16T08:56:29Z</time>
      </trkpt>
      <trkpt lat="45.96995" lon="4.7891">
        <ele>204</ele>
        <time>2017-05-16T08:56:30Z</time>
      </trkpt>
      <trkpt lat="45.96999" lon="4.78915">
        <ele>204</ele>
        <time>2017-05-16T08:56:31Z</time>
      </trkpt>
      <trkpt lat="45.97002" lon="4.7892">
        <ele>204</ele>
        <time>2017-05-16T08:56:32Z</time>
      </trkpt>
      <trkpt lat="45.97006" lon="4.78924">
        <ele>204</ele>
        <time>2017-05-16T08:56:33Z</time>
      </trkpt>
      <trkpt lat="45.9701" lon="4.78929">
        <ele>204</ele>
        <time>2017-05-16T08:56:34Z</time>
      </trkpt>
      <trkpt lat="45.97014" lon="4.78935">
        <ele>205</ele>
        <time>2017-05-16T08:56:35Z</time>
      </trkpt>
      <trkpt lat="45.97017" lon="4.78941">
        <ele>205</ele>
        <time>2017-05-16T08:56:36Z</time>
      </trkpt>
      <trkpt lat="45.97021" lon="4.78946">
        <ele>205</ele>
        <time>2017-05-16T08:56:37Z</time>
      </trkpt>
      <trkpt lat="45.97025" lon="4.78952">
        <ele>205</ele>
        <time>2017-05-16T08:56:38Z</time>
      </trkpt>
      <trkpt lat="45.97029" lon="4.78957">
        <ele>205</ele>
        <time>2017-05-16T08:56:39Z</time>
      </trkpt>
      <trkpt lat="45.97032" lon="4.78963">
        <ele>205</ele>
        <time>2017-05-16T08:56:40Z</time>
      </trkpt>
      <trkpt lat="45.97037" lon="4.78973">
        <ele>205</ele>
        <time>2017-05-16T08:56:42Z</time>
      </trkpt>
      <trkpt lat="45.97039" lon="4.78979">
        <ele>204</ele>
        <time>2017-05-16T08:56:43Z</time>
      </trkpt>
      <trkpt lat="45.97043" lon="4.78989">
        <ele>204</ele>
        <time>2017-05-16T08:56:45Z</time>
      </trkpt>
      <trkpt lat="45.97044" lon="4.78994">
        <ele>204</ele>
        <time>2017-05-16T08:56:46Z</time>
      </trkpt>
      <trkpt lat="45.97048" lon="4.79004">
        <ele>203</ele>
        <time>2017-05-16T08:56:48Z</time>
      </trkpt>
      <trkpt lat="45.9705" lon="4.7901">
        <ele>203</ele>
        <time>2017-05-16T08:56:49Z</time>
      </trkpt>
      <trkpt lat="45.97052" lon="4.79017">
        <ele>203</ele>
        <time>2017-05-16T08:56:50Z</time>
      </trkpt>
      <trkpt lat="45.97055" lon="4.79023">
        <ele>203</ele>
        <time>2017-05-16T08:56:51Z</time>
      </trkpt>
      <trkpt lat="45.97057" lon="4.7903">
        <ele>203</ele>
        <time>2017-05-16T08:56:52Z</time>
      </trkpt>
      <trkpt lat="45.97059" lon="4.79037">
        <ele>203</ele>
        <time>2017-05-16T08:56:53Z</time>
      </trkpt>
      <trkpt lat="45.9706" lon="4.79044">
        <ele>203</ele>
        <time>2017-05-16T08:56:54Z</time>
      </trkpt>
      <trkpt lat="45.97062" lon="4.79051">
        <ele>203</ele>
        <time>2017-05-16T08:56:55Z</time>
      </trkpt>
      <trkpt lat="45.97064" lon="4.79059">
        <ele>203</ele>
        <time>2017-05-16T08:56:56Z</time>
      </trkpt>
      <trkpt lat="45.97066" lon="4.79066">
        <ele>203</ele>
        <time>2017-05-16T08:56:57Z</time>
      </trkpt>
      <trkpt lat="45.97068" lon="4.79073">
        <ele>204</ele>
        <time>2017-05-16T08:56:58Z</time>
      </trkpt>
      <trkpt lat="45.9707" lon="4.79081">
        <ele>204</ele>
        <time>2017-05-16T08:56:59Z</time>
      </trkpt>
      <trkpt lat="45.97073" lon="4.79088">
        <ele>204</ele>
        <time>2017-05-16T08:57:00Z</time>
      </trkpt>
      <trkpt lat="45.97075" lon="4.79096">
        <ele>204</ele>
        <time>2017-05-16T08:57:01Z</time>
      </trkpt>
      <trkpt lat="45.97077" lon="4.79102">
        <ele>204</ele>
        <time>2017-05-16T08:57:02Z</time>
      </trkpt>
      <trkpt lat="45.97079" lon="4.79109">
        <ele>204</ele>
        <time>2017-05-16T08:57:03Z</time>
      </trkpt>
      <trkpt lat="45.97082" lon="4.79116">
        <ele>204</ele>
        <time>2017-05-16T08:57:04Z</time>
      </trkpt>
      <trkpt lat="45.97085" lon="4.79122">
        <ele>206</ele>
        <time>2017-05-16T08:57:05Z</time>
      </trkpt>
      <trkpt lat="45.97088" lon="4.79129">
        <ele>206</ele>
        <time>2017-05-16T08:57:06Z</time>
      </trkpt>
      <trkpt lat="45.97091" lon="4.79135">
        <ele>206</ele>
        <time>2017-05-16T08:57:07Z</time>
      </trkpt>
      <trkpt lat="45.97095" lon="4.79142">
        <ele>206</ele>
        <time>2017-05-16T08:57:08Z</time>
      </trkpt>
      <trkpt lat="45.97099" lon="4.79148">
        <ele>206</ele>
        <time>2017-05-16T08:57:09Z</time>
      </trkpt>
      <trkpt lat="45.97102" lon="4.79154">
        <ele>206</ele>
        <time>2017-05-16T08:57:10Z</time>
      </trkpt>
      <trkpt lat="45.97105" lon="4.79161">
        <ele>206</ele>
        <time>2017-05-16T08:57:11Z</time>
      </trkpt>
      <trkpt lat="45.97108" lon="4.79167">
        <ele>205</ele>
        <time>2017-05-16T08:57:12Z</time>
      </trkpt>
      <trkpt lat="45.97111" lon="4.79174">
        <ele>205</ele>
        <time>2017-05-16T08:57:13Z</time>
      </trkpt>
      <trkpt lat="45.97114" lon="4.7918">
        <ele>206</ele>
        <time>2017-05-16T08:57:14Z</time>
      </trkpt>
      <trkpt lat="45.97117" lon="4.79186">
        <ele>206</ele>
        <time>2017-05-16T08:57:15Z</time>
      </trkpt>
      <trkpt lat="45.9712" lon="4.79192">
        <ele>206</ele>
        <time>2017-05-16T08:57:16Z</time>
      </trkpt>
      <trkpt lat="45.97122" lon="4.79198">
        <ele>206</ele>
        <time>2017-05-16T08:57:17Z</time>
      </trkpt>
      <trkpt lat="45.97125" lon="4.79205">
        <ele>206</ele>
        <time>2017-05-16T08:57:18Z</time>
      </trkpt>
      <trkpt lat="45.97127" lon="4.79211">
        <ele>206</ele>
        <time>2017-05-16T08:57:19Z</time>
      </trkpt>
      <trkpt lat="45.97129" lon="4.79218">
        <ele>205</ele>
        <time>2017-05-16T08:57:20Z</time>
      </trkpt>
      <trkpt lat="45.97131" lon="4.79224">
        <ele>205</ele>
        <time>2017-05-16T08:57:21Z</time>
      </trkpt>
      <trkpt lat="45.97134" lon="4.79231">
        <ele>205</ele>
        <time>2017-05-16T08:57:22Z</time>
      </trkpt>
      <trkpt lat="45.97137" lon="4.79238">
        <ele>205</ele>
        <time>2017-05-16T08:57:23Z</time>
      </trkpt>
      <trkpt lat="45.97139" lon="4.79244">
        <ele>205</ele>
        <time>2017-05-16T08:57:24Z</time>
      </trkpt>
      <trkpt lat="45.97142" lon="4.79251">
        <ele>204</ele>
        <time>2017-05-16T08:57:25Z</time>
      </trkpt>
      <trkpt lat="45.97145" lon="4.79257">
        <ele>204</ele>
        <time>2017-05-16T08:57:26Z</time>
      </trkpt>
      <trkpt lat="45.97147" lon="4.79264">
        <ele>204</ele>
        <time>2017-05-16T08:57:27Z</time>
      </trkpt>
      <trkpt lat="45.9715" lon="4.7927">
        <ele>204</ele>
        <time>2017-05-16T08:57:28Z</time>
      </trkpt>
      <trkpt lat="45.97152" lon="4.79275">
        <ele>204</ele>
        <time>2017-05-16T08:57:29Z</time>
      </trkpt>
      <trkpt lat="45.97154" lon="4.79281">
        <ele>204</ele>
        <time>2017-05-16T08:57:30Z</time>
      </trkpt>
      <trkpt lat="45.97156" lon="4.79287">
        <ele>204</ele>
        <time>2017-05-16T08:57:31Z</time>
      </trkpt>
      <trkpt lat="45.97159" lon="4.79294">
        <ele>204</ele>
        <time>2017-05-16T08:57:32Z</time>
      </trkpt>
      <trkpt lat="45.97161" lon="4.793">
        <ele>204</ele>
        <time>2017-05-16T08:57:33Z</time>
      </trkpt>
      <trkpt lat="45.97163" lon="4.79306">
        <ele>204</ele>
        <time>2017-05-16T08:57:34Z</time>
      </trkpt>
      <trkpt lat="45.97166" lon="4.79311">
        <ele>204</ele>
        <time>2017-05-16T08:57:35Z</time>
      </trkpt>
      <trkpt lat="45.97168" lon="4.79317">
        <ele>207</ele>
        <time>2017-05-16T08:57:36Z</time>
      </trkpt>
      <trkpt lat="45.9717" lon="4.79323">
        <ele>206</ele>
        <time>2017-05-16T08:57:37Z</time>
      </trkpt>
      <trkpt lat="45.97173" lon="4.79329">
        <ele>206</ele>
        <time>2017-05-16T08:57:38Z</time>
      </trkpt>
      <trkpt lat="45.97177" lon="4.79334">
        <ele>206</ele>
        <time>2017-05-16T08:57:39Z</time>
      </trkpt>
      <trkpt lat="45.9718" lon="4.79339">
        <ele>206</ele>
        <time>2017-05-16T08:57:40Z</time>
      </trkpt>
      <trkpt lat="45.97182" lon="4.79345">
        <ele>207</ele>
        <time>2017-05-16T08:57:41Z</time>
      </trkpt>
      <trkpt lat="45.97185" lon="4.79352">
        <ele>207</ele>
        <time>2017-05-16T08:57:42Z</time>
      </trkpt>
      <trkpt lat="45.97188" lon="4.79358">
        <ele>207</ele>
        <time>2017-05-16T08:57:43Z</time>
      </trkpt>
      <trkpt lat="45.9719" lon="4.79364">
        <ele>207</ele>
        <time>2017-05-16T08:57:44Z</time>
      </trkpt>
      <trkpt lat="45.97193" lon="4.79371">
        <ele>207</ele>
        <time>2017-05-16T08:57:45Z</time>
      </trkpt>
      <trkpt lat="45.97196" lon="4.79377">
        <ele>207</ele>
        <time>2017-05-16T08:57:46Z</time>
      </trkpt>
      <trkpt lat="45.97198" lon="4.79384">
        <ele>207</ele>
        <time>2017-05-16T08:57:47Z</time>
      </trkpt>
      <trkpt lat="45.97201" lon="4.7939">
        <ele>207</ele>
        <time>2017-05-16T08:57:48Z</time>
      </trkpt>
      <trkpt lat="45.97203" lon="4.79396">
        <ele>207</ele>
        <time>2017-05-16T08:57:49Z</time>
      </trkpt>
      <trkpt lat="45.97205" lon="4.79402">
        <ele>208</ele>
        <time>2017-05-16T08:57:50Z</time>
      </trkpt>
      <trkpt lat="45.97208" lon="4.79407">
        <ele>208</ele>
        <time>2017-05-16T08:57:51Z</time>
      </trkpt>
      <trkpt lat="45.97212" lon="4.79418">
        <ele>208</ele>
        <time>2017-05-16T08:57:53Z</time>
      </trkpt>
      <trkpt lat="45.97214" lon="4.79423">
        <ele>208</ele>
        <time>2017-05-16T08:57:54Z</time>
      </trkpt>
      <trkpt lat="45.97218" lon="4.79433">
        <ele>208</ele>
        <time>2017-05-16T08:57:56Z</time>
      </trkpt>
      <trkpt lat="45.9722" lon="4.79439">
        <ele>208</ele>
        <time>2017-05-16T08:57:57Z</time>
      </trkpt>
      <trkpt lat="45.97222" lon="4.79445">
        <ele>209</ele>
        <time>2017-05-16T08:57:58Z</time>
      </trkpt>
      <trkpt lat="45.97224" lon="4.79451">
        <ele>209</ele>
        <time>2017-05-16T08:57:59Z</time>
      </trkpt>
      <trkpt lat="45.97226" lon="4.79457">
        <ele>209</ele>
        <time>2017-05-16T08:58:00Z</time>
      </trkpt>
      <trkpt lat="45.97228" lon="4.79464">
        <ele>209</ele>
        <time>2017-05-16T08:58:01Z</time>
      </trkpt>
      <trkpt lat="45.97231" lon="4.79471">
        <ele>209</ele>
        <time>2017-05-16T08:58:02Z</time>
      </trkpt>
      <trkpt lat="45.97233" lon="4.79478">
        <ele>209</ele>
        <time>2017-05-16T08:58:03Z</time>
      </trkpt>
      <trkpt lat="45.97235" lon="4.79485">
        <ele>209</ele>
        <time>2017-05-16T08:58:04Z</time>
      </trkpt>
      <trkpt lat="45.97237" lon="4.79491">
        <ele>210</ele>
        <time>2017-05-16T08:58:05Z</time>
      </trkpt>
      <trkpt lat="45.97239" lon="4.79503">
        <ele>210</ele>
        <time>2017-05-16T08:58:07Z</time>
      </trkpt>
      <trkpt lat="45.9724" lon="4.79509">
        <ele>210</ele>
        <time>2017-05-16T08:58:08Z</time>
      </trkpt>
      <trkpt lat="45.97243" lon="4.7952">
        <ele>210</ele>
        <time>2017-05-16T08:58:10Z</time>
      </trkpt>
      <trkpt lat="45.97244" lon="4.79526">
        <ele>210</ele>
        <time>2017-05-16T08:58:11Z</time>
      </trkpt>
      <trkpt lat="45.97246" lon="4.79538">
        <ele>210</ele>
        <time>2017-05-16T08:58:13Z</time>
      </trkpt>
      <trkpt lat="45.97247" lon="4.79544">
        <ele>210</ele>
        <time>2017-05-16T08:58:14Z</time>
      </trkpt>
      <trkpt lat="45.97248" lon="4.79551">
        <ele>210</ele>
        <time>2017-05-16T08:58:15Z</time>
      </trkpt>
      <trkpt lat="45.97249" lon="4.79557">
        <ele>210</ele>
        <time>2017-05-16T08:58:16Z</time>
      </trkpt>
      <trkpt lat="45.9725" lon="4.79564">
        <ele>210</ele>
        <time>2017-05-16T08:58:17Z</time>
      </trkpt>
      <trkpt lat="45.9725" lon="4.79571">
        <ele>210</ele>
        <time>2017-05-16T08:58:18Z</time>
      </trkpt>
      <trkpt lat="45.9725" lon="4.79578">
        <ele>210</ele>
        <time>2017-05-16T08:58:19Z</time>
      </trkpt>
      <trkpt lat="45.9725" lon="4.79586">
        <ele>210</ele>
        <time>2017-05-16T08:58:20Z</time>
      </trkpt>
      <trkpt lat="45.97252" lon="4.79592">
        <ele>211</ele>
        <time>2017-05-16T08:58:21Z</time>
      </trkpt>
      <trkpt lat="45.97253" lon="4.79599">
        <ele>212</ele>
        <time>2017-05-16T08:58:22Z</time>
      </trkpt>
      <trkpt lat="45.97252" lon="4.79605">
        <ele>212</ele>
        <time>2017-05-16T08:58:23Z</time>
      </trkpt>
      <trkpt lat="45.97252" lon="4.79612">
        <ele>213</ele>
        <time>2017-05-16T08:58:24Z</time>
      </trkpt>
      <trkpt lat="45.97252" lon="4.79619">
        <ele>213</ele>
        <time>2017-05-16T08:58:25Z</time>
      </trkpt>
      <trkpt lat="45.97253" lon="4.79626">
        <ele>213</ele>
        <time>2017-05-16T08:58:26Z</time>
      </trkpt>
      <trkpt lat="45.97253" lon="4.79633">
        <ele>213</ele>
        <time>2017-05-16T08:58:27Z</time>
      </trkpt>
      <trkpt lat="45.97253" lon="4.7964">
        <ele>212</ele>
        <time>2017-05-16T08:58:28Z</time>
      </trkpt>
      <trkpt lat="45.97253" lon="4.79647">
        <ele>212</ele>
        <time>2017-05-16T08:58:29Z</time>
      </trkpt>
      <trkpt lat="45.97252" lon="4.79653">
        <ele>211</ele>
        <time>2017-05-16T08:58:30Z</time>
      </trkpt>
      <trkpt lat="45.97251" lon="4.79661">
        <ele>210</ele>
        <time>2017-05-16T08:58:31Z</time>
      </trkpt>
      <trkpt lat="45.9725" lon="4.79668">
        <ele>208</ele>
        <time>2017-05-16T08:58:32Z</time>
      </trkpt>
      <trkpt lat="45.97248" lon="4.79676">
        <ele>208</ele>
        <time>2017-05-16T08:58:33Z</time>
      </trkpt>
      <trkpt lat="45.97247" lon="4.79684">
        <ele>208</ele>
        <time>2017-05-16T08:58:34Z</time>
      </trkpt>
      <trkpt lat="45.97246" lon="4.79691">
        <ele>208</ele>
        <time>2017-05-16T08:58:35Z</time>
      </trkpt>
      <trkpt lat="45.97244" lon="4.79698">
        <ele>208</ele>
        <time>2017-05-16T08:58:36Z</time>
      </trkpt>
      <trkpt lat="45.97243" lon="4.79705">
        <ele>208</ele>
        <time>2017-05-16T08:58:37Z</time>
      </trkpt>
      <trkpt lat="45.97242" lon="4.79711">
        <ele>209</ele>
        <time>2017-05-16T08:58:38Z</time>
      </trkpt>
      <trkpt lat="45.97242" lon="4.79718">
        <ele>209</ele>
        <time>2017-05-16T08:58:39Z</time>
      </trkpt>
      <trkpt lat="45.97241" lon="4.79725">
        <ele>209</ele>
        <time>2017-05-16T08:58:40Z</time>
      </trkpt>
      <trkpt lat="45.9724" lon="4.79732">
        <ele>209</ele>
        <time>2017-05-16T08:58:41Z</time>
      </trkpt>
      <trkpt lat="45.97239" lon="4.79739">
        <ele>209</ele>
        <time>2017-05-16T08:58:42Z</time>
      </trkpt>
      <trkpt lat="45.97239" lon="4.79745">
        <ele>209</ele>
        <time>2017-05-16T08:58:43Z</time>
      </trkpt>
      <trkpt lat="45.97238" lon="4.79753">
        <ele>209</ele>
        <time>2017-05-16T08:58:44Z</time>
      </trkpt>
      <trkpt lat="45.97238" lon="4.79765">
        <ele>209</ele>
        <time>2017-05-16T08:58:46Z</time>
      </trkpt>
      <trkpt lat="45.97237" lon="4.79771">
        <ele>210</ele>
        <time>2017-05-16T08:58:47Z</time>
      </trkpt>
      <trkpt lat="45.97237" lon="4.79784">
        <ele>210</ele>
        <time>2017-05-16T08:58:49Z</time>
      </trkpt>
      <trkpt lat="45.97237" lon="4.7979">
        <ele>210</ele>
        <time>2017-05-16T08:58:50Z</time>
      </trkpt>
      <trkpt lat="45.97237" lon="4.79797">
        <ele>210</ele>
        <time>2017-05-16T08:58:51Z</time>
      </trkpt>
      <trkpt lat="45.97237" lon="4.79804">
        <ele>210</ele>
        <time>2017-05-16T08:58:52Z</time>
      </trkpt>
      <trkpt lat="45.97237" lon="4.79811">
        <ele>210</ele>
        <time>2017-05-16T08:58:53Z</time>
      </trkpt>
      <trkpt lat="45.97237" lon="4.79818">
        <ele>211</ele>
        <time>2017-05-16T08:58:54Z</time>
      </trkpt>
      <trkpt lat="45.97236" lon="4.79825">
        <ele>211</ele>
        <time>2017-05-16T08:58:55Z</time>
      </trkpt>
      <trkpt lat="45.97236" lon="4.79832">
        <ele>211</ele>
        <time>2017-05-16T08:58:56Z</time>
      </trkpt>
      <trkpt lat="45.97236" lon="4.79839">
        <ele>211</ele>
        <time>2017-05-16T08:58:57Z</time>
      </trkpt>
      <trkpt lat="45.97236" lon="4.79845">
        <ele>211</ele>
        <time>2017-05-16T08:58:58Z</time>
      </trkpt>
      <trkpt lat="45.97237" lon="4.79851">
        <ele>211</ele>
        <time>2017-05-16T08:58:59Z</time>
      </trkpt>
      <trkpt lat="45.97239" lon="4.79857">
        <ele>211</ele>
        <time>2017-05-16T08:59:00Z</time>
      </trkpt>
      <trkpt lat="45.97241" lon="4.79869">
        <ele>211</ele>
        <time>2017-05-16T08:59:02Z</time>
      </trkpt>
      <trkpt lat="45.97243" lon="4.79874">
        <ele>211</ele>
        <time>2017-05-16T08:59:03Z</time>
      </trkpt>
      <trkpt lat="45.97245" lon="4.79886">
        <ele>211</ele>
        <time>2017-05-16T08:59:06Z</time>
      </trkpt>
      <trkpt lat="45.97247" lon="4.7989">
        <ele>211</ele>
        <time>2017-05-16T08:59:07Z</time>
      </trkpt>
      <trkpt lat="45.97249" lon="4.79899">
        <ele>211</ele>
        <time>2017-05-16T08:59:09Z</time>
      </trkpt>
      <trkpt lat="45.9725" lon="4.79902">
        <ele>212</ele>
        <time>2017-05-16T08:59:10Z</time>
      </trkpt>
      <trkpt lat="45.97251" lon="4.79913">
        <ele>212</ele>
        <time>2017-05-16T08:59:14Z</time>
      </trkpt>
      <trkpt lat="45.97252" lon="4.79916">
        <ele>212</ele>
        <time>2017-05-16T08:59:15Z</time>
      </trkpt>
      <trkpt lat="45.9726" lon="4.7992">
        <ele>212</ele>
        <time>2017-05-16T08:59:18Z</time>
      </trkpt>
      <trkpt lat="45.97263" lon="4.79919">
        <ele>212</ele>
        <time>2017-05-16T08:59:19Z</time>
      </trkpt>
      <trkpt lat="45.97269" lon="4.79917">
        <ele>212</ele>
        <time>2017-05-16T08:59:21Z</time>
      </trkpt>
      <trkpt lat="45.97273" lon="4.79917">
        <ele>213</ele>
        <time>2017-05-16T08:59:22Z</time>
      </trkpt>
      <trkpt lat="45.9728" lon="4.79916">
        <ele>213</ele>
        <time>2017-05-16T08:59:24Z</time>
      </trkpt>
      <trkpt lat="45.97284" lon="4.79915">
        <ele>213</ele>
        <time>2017-05-16T08:59:25Z</time>
      </trkpt>
      <trkpt lat="45.97292" lon="4.79915">
        <ele>213</ele>
        <time>2017-05-16T08:59:27Z</time>
      </trkpt>
      <trkpt lat="45.97296" lon="4.79915">
        <ele>213</ele>
        <time>2017-05-16T08:59:28Z</time>
      </trkpt>
      <trkpt lat="45.97303" lon="4.79914">
        <ele>213</ele>
        <time>2017-05-16T08:59:30Z</time>
      </trkpt>
      <trkpt lat="45.97307" lon="4.79914">
        <ele>213</ele>
        <time>2017-05-16T08:59:31Z</time>
      </trkpt>
      <trkpt lat="45.97314" lon="4.79914">
        <ele>213</ele>
        <time>2017-05-16T08:59:33Z</time>
      </trkpt>
      <trkpt lat="45.97317" lon="4.79913">
        <ele>213</ele>
        <time>2017-05-16T08:59:34Z</time>
      </trkpt>
      <trkpt lat="45.97325" lon="4.79911">
        <ele>213</ele>
        <time>2017-05-16T08:59:36Z</time>
      </trkpt>
      <trkpt lat="45.97329" lon="4.7991">
        <ele>213</ele>
        <time>2017-05-16T08:59:37Z</time>
      </trkpt>
      <trkpt lat="45.97337" lon="4.79909">
        <ele>214</ele>
        <time>2017-05-16T08:59:39Z</time>
      </trkpt>
      <trkpt lat="45.9734" lon="4.79909">
        <ele>215</ele>
        <time>2017-05-16T08:59:40Z</time>
      </trkpt>
      <trkpt lat="45.97346" lon="4.79908">
        <ele>215</ele>
        <time>2017-05-16T08:59:42Z</time>
      </trkpt>
      <trkpt lat="45.97349" lon="4.79907">
        <ele>215</ele>
        <time>2017-05-16T08:59:43Z</time>
      </trkpt>
      <trkpt lat="45.97355" lon="4.79906">
        <ele>216</ele>
        <time>2017-05-16T08:59:45Z</time>
      </trkpt>
      <trkpt lat="45.97359" lon="4.79905">
        <ele>216</ele>
        <time>2017-05-16T08:59:46Z</time>
      </trkpt>
      <trkpt lat="45.97366" lon="4.79904">
        <ele>216</ele>
        <time>2017-05-16T08:59:48Z</time>
      </trkpt>
      <trkpt lat="45.97369" lon="4.79904">
        <ele>217</ele>
        <time>2017-05-16T08:59:49Z</time>
      </trkpt>
      <trkpt lat="45.97375" lon="4.79903">
        <ele>217</ele>
        <time>2017-05-16T08:59:51Z</time>
      </trkpt>
      <trkpt lat="45.97379" lon="4.79902">
        <ele>217</ele>
        <time>2017-05-16T08:59:52Z</time>
      </trkpt>
      <trkpt lat="45.97387" lon="4.79901">
        <ele>217</ele>
        <time>2017-05-16T08:59:54Z</time>
      </trkpt>
      <trkpt lat="45.9739" lon="4.79901">
        <ele>217</ele>
        <time>2017-05-16T08:59:55Z</time>
      </trkpt>
      <trkpt lat="45.97399" lon="4.79899">
        <ele>217</ele>
        <time>2017-05-16T08:59:57Z</time>
      </trkpt>
      <trkpt lat="45.97404" lon="4.79899">
        <ele>217</ele>
        <time>2017-05-16T08:59:58Z</time>
      </trkpt>
      <trkpt lat="45.97412" lon="4.79898">
        <ele>217</ele>
        <time>2017-05-16T09:00:00Z</time>
      </trkpt>
      <trkpt lat="45.97416" lon="4.79898">
        <ele>217</ele>
        <time>2017-05-16T09:00:01Z</time>
      </trkpt>
      <trkpt lat="45.97424" lon="4.79899">
        <ele>219</ele>
        <time>2017-05-16T09:00:03Z</time>
      </trkpt>
      <trkpt lat="45.97428" lon="4.79899">
        <ele>219</ele>
        <time>2017-05-16T09:00:04Z</time>
      </trkpt>
      <trkpt lat="45.97434" lon="4.79899">
        <ele>219</ele>
        <time>2017-05-16T09:00:06Z</time>
      </trkpt>
      <trkpt lat="45.97438" lon="4.79899">
        <ele>220</ele>
        <time>2017-05-16T09:00:07Z</time>
      </trkpt>
      <trkpt lat="45.97447" lon="4.79899">
        <ele>220</ele>
        <time>2017-05-16T09:00:09Z</time>
      </trkpt>
      <trkpt lat="45.97451" lon="4.79898">
        <ele>220</ele>
        <time>2017-05-16T09:00:10Z</time>
      </trkpt>
      <trkpt lat="45.97458" lon="4.79897">
        <ele>220</ele>
        <time>2017-05-16T09:00:12Z</time>
      </trkpt>
      <trkpt lat="45.97462" lon="4.79896">
        <ele>220</ele>
        <time>2017-05-16T09:00:13Z</time>
      </trkpt>
      <trkpt lat="45.97469" lon="4.79895">
        <ele>221</ele>
        <time>2017-05-16T09:00:15Z</time>
      </trkpt>
      <trkpt lat="45.97473" lon="4.79895">
        <ele>221</ele>
        <time>2017-05-16T09:00:16Z</time>
      </trkpt>
      <trkpt lat="45.97481" lon="4.79894">
        <ele>221</ele>
        <time>2017-05-16T09:00:18Z</time>
      </trkpt>
      <trkpt lat="45.97484" lon="4.79894">
        <ele>221</ele>
        <time>2017-05-16T09:00:19Z</time>
      </trkpt>
      <trkpt lat="45.9749" lon="4.79893">
        <ele>221</ele>
        <time>2017-05-16T09:00:21Z</time>
      </trkpt>
      <trkpt lat="45.97493" lon="4.79893">
        <ele>221</ele>
        <time>2017-05-16T09:00:22Z</time>
      </trkpt>
      <trkpt lat="45.975" lon="4.79892">
        <ele>221</ele>
        <time>2017-05-16T09:00:24Z</time>
      </trkpt>
      <trkpt lat="45.97503" lon="4.79891">
        <ele>221</ele>
        <time>2017-05-16T09:00:25Z</time>
      </trkpt>
      <trkpt lat="45.97511" lon="4.79891">
        <ele>221</ele>
        <time>2017-05-16T09:00:27Z</time>
      </trkpt>
      <trkpt lat="45.97516" lon="4.79891">
        <ele>221</ele>
        <time>2017-05-16T09:00:28Z</time>
      </trkpt>
      <trkpt lat="45.97523" lon="4.7989">
        <ele>221</ele>
        <time>2017-05-16T09:00:30Z</time>
      </trkpt>
      <trkpt lat="45.97526" lon="4.79889">
        <ele>221</ele>
        <time>2017-05-16T09:00:31Z</time>
      </trkpt>
      <trkpt lat="45.97534" lon="4.79888">
        <ele>221</ele>
        <time>2017-05-16T09:00:33Z</time>
      </trkpt>
      <trkpt lat="45.97538" lon="4.79888">
        <ele>221</ele>
        <time>2017-05-16T09:00:34Z</time>
      </trkpt>
      <trkpt lat="45.97546" lon="4.79887">
        <ele>221</ele>
        <time>2017-05-16T09:00:36Z</time>
      </trkpt>
      <trkpt lat="45.97549" lon="4.79886">
        <ele>221</ele>
        <time>2017-05-16T09:00:37Z</time>
      </trkpt>
      <trkpt lat="45.97558" lon="4.79884">
        <ele>221</ele>
        <time>2017-05-16T09:00:39Z</time>
      </trkpt>
      <trkpt lat="45.97561" lon="4.79883">
        <ele>221</ele>
        <time>2017-05-16T09:00:40Z</time>
      </trkpt>
      <trkpt lat="45.97569" lon="4.7988">
        <ele>221</ele>
        <time>2017-05-16T09:00:42Z</time>
      </trkpt>
      <trkpt lat="45.97573" lon="4.79878">
        <ele>221</ele>
        <time>2017-05-16T09:00:43Z</time>
      </trkpt>
      <trkpt lat="45.9758" lon="4.79875">
        <ele>221</ele>
        <time>2017-05-16T09:00:45Z</time>
      </trkpt>
      <trkpt lat="45.97584" lon="4.79874">
        <ele>221</ele>
        <time>2017-05-16T09:00:46Z</time>
      </trkpt>
      <trkpt lat="45.97591" lon="4.79872">
        <ele>221</ele>
        <time>2017-05-16T09:00:48Z</time>
      </trkpt>
      <trkpt lat="45.97594" lon="4.79871">
        <ele>221</ele>
        <time>2017-05-16T09:00:49Z</time>
      </trkpt>
      <trkpt lat="45.97601" lon="4.79869">
        <ele>221</ele>
        <time>2017-05-16T09:00:51Z</time>
      </trkpt>
      <trkpt lat="45.97605" lon="4.79868">
        <ele>221</ele>
        <time>2017-05-16T09:00:52Z</time>
      </trkpt>
      <trkpt lat="45.97611" lon="4.79865">
        <ele>221</ele>
        <time>2017-05-16T09:00:54Z</time>
      </trkpt>
      <trkpt lat="45.97615" lon="4.79863">
        <ele>221</ele>
        <time>2017-05-16T09:00:55Z</time>
      </trkpt>
      <trkpt lat="45.97621" lon="4.79861">
        <ele>221</ele>
        <time>2017-05-16T09:00:57Z</time>
      </trkpt>
      <trkpt lat="45.97625" lon="4.79859">
        <ele>221</ele>
        <time>2017-05-16T09:00:58Z</time>
      </trkpt>
      <trkpt lat="45.97631" lon="4.79855">
        <ele>221</ele>
        <time>2017-05-16T09:01:00Z</time>
      </trkpt>
      <trkpt lat="45.97635" lon="4.79854">
        <ele>221</ele>
        <time>2017-05-16T09:01:01Z</time>
      </trkpt>
      <trkpt lat="45.97642" lon="4.79852">
        <ele>221</ele>
        <time>2017-05-16T09:01:03Z</time>
      </trkpt>
      <trkpt lat="45.97646" lon="4.7985">
        <ele>221</ele>
        <time>2017-05-16T09:01:04Z</time>
      </trkpt>
      <trkpt lat="45.97654" lon="4.79848">
        <ele>221</ele>
        <time>2017-05-16T09:01:06Z</time>
      </trkpt>
      <trkpt lat="45.97658" lon="4.79847">
        <ele>221</ele>
        <time>2017-05-16T09:01:07Z</time>
      </trkpt>
      <trkpt lat="45.97666" lon="4.79843">
        <ele>221</ele>
        <time>2017-05-16T09:01:09Z</time>
      </trkpt>
      <trkpt lat="45.9767" lon="4.79842">
        <ele>221</ele>
        <time>2017-05-16T09:01:10Z</time>
      </trkpt>
      <trkpt lat="45.97677" lon="4.7984">
        <ele>221</ele>
        <time>2017-05-16T09:01:12Z</time>
      </trkpt>
      <trkpt lat="45.97681" lon="4.79839">
        <ele>221</ele>
        <time>2017-05-16T09:01:13Z</time>
      </trkpt>
      <trkpt lat="45.97688" lon="4.79837">
        <ele>221</ele>
        <time>2017-05-16T09:01:15Z</time>
      </trkpt>
      <trkpt lat="45.97692" lon="4.79837">
        <ele>220</ele>
        <time>2017-05-16T09:01:16Z</time>
      </trkpt>
      <trkpt lat="45.97696" lon="4.79836">
        <ele>220</ele>
        <time>2017-05-16T09:01:17Z</time>
      </trkpt>
      <trkpt lat="45.97701" lon="4.79835">
        <ele>220</ele>
        <time>2017-05-16T09:01:18Z</time>
      </trkpt>
      <trkpt lat="45.97709" lon="4.79832">
        <ele>223</ele>
        <time>2017-05-16T09:01:20Z</time>
      </trkpt>
      <trkpt lat="45.97713" lon="4.79832">
        <ele>223</ele>
        <time>2017-05-16T09:01:21Z</time>
      </trkpt>
      <trkpt lat="45.97722" lon="4.7983">
        <ele>223</ele>
        <time>2017-05-16T09:01:23Z</time>
      </trkpt>
      <trkpt lat="45.97727" lon="4.79829">
        <ele>223</ele>
        <time>2017-05-16T09:01:24Z</time>
      </trkpt>
      <trkpt lat="45.97732" lon="4.79828">
        <ele>223</ele>
        <time>2017-05-16T09:01:25Z</time>
      </trkpt>
      <trkpt lat="45.97737" lon="4.79827">
        <ele>223</ele>
        <time>2017-05-16T09:01:26Z</time>
      </trkpt>
      <trkpt lat="45.97742" lon="4.79826">
        <ele>223</ele>
        <time>2017-05-16T09:01:27Z</time>
      </trkpt>
      <trkpt lat="45.97747" lon="4.79825">
        <ele>222</ele>
        <time>2017-05-16T09:01:28Z</time>
      </trkpt>
      <trkpt lat="45.97752" lon="4.79825">
        <ele>222</ele>
        <time>2017-05-16T09:01:29Z</time>
      </trkpt>
      <trkpt lat="45.97757" lon="4.79824">
        <ele>222</ele>
        <time>2017-05-16T09:01:30Z</time>
      </trkpt>
      <trkpt lat="45.97761" lon="4.79823">
        <ele>223</ele>
        <time>2017-05-16T09:01:31Z</time>
      </trkpt>
      <trkpt lat="45.97766" lon="4.79822">
        <ele>223</ele>
        <time>2017-05-16T09:01:32Z</time>
      </trkpt>
      <trkpt lat="45.97775" lon="4.79821">
        <ele>223</ele>
        <time>2017-05-16T09:01:34Z</time>
      </trkpt>
      <trkpt lat="45.9778" lon="4.7982">
        <ele>223</ele>
        <time>2017-05-16T09:01:35Z</time>
      </trkpt>
      <trkpt lat="45.97789" lon="4.79819">
        <ele>223</ele>
        <time>2017-05-16T09:01:37Z</time>
      </trkpt>
      <trkpt lat="45.97793" lon="4.79818">
        <ele>223</ele>
        <time>2017-05-16T09:01:38Z</time>
      </trkpt>
      <trkpt lat="45.97801" lon="4.79817">
        <ele>223</ele>
        <time>2017-05-16T09:01:40Z</time>
      </trkpt>
      <trkpt lat="45.97805" lon="4.79816">
        <ele>223</ele>
        <time>2017-05-16T09:01:41Z</time>
      </trkpt>
      <trkpt lat="45.97814" lon="4.79814">
        <ele>223</ele>
        <time>2017-05-16T09:01:43Z</time>
      </trkpt>
      <trkpt lat="45.97818" lon="4.79814">
        <ele>223</ele>
        <time>2017-05-16T09:01:44Z</time>
      </trkpt>
      <trkpt lat="45.97826" lon="4.79813">
        <ele>223</ele>
        <time>2017-05-16T09:01:46Z</time>
      </trkpt>
      <trkpt lat="45.9783" lon="4.79813">
        <ele>223</ele>
        <time>2017-05-16T09:01:47Z</time>
      </trkpt>
      <trkpt lat="45.97837" lon="4.79812">
        <ele>224</ele>
        <time>2017-05-16T09:01:49Z</time>
      </trkpt>
      <trkpt lat="45.97841" lon="4.79812">
        <ele>224</ele>
        <time>2017-05-16T09:01:50Z</time>
      </trkpt>
      <trkpt lat="45.97849" lon="4.79811">
        <ele>224</ele>
        <time>2017-05-16T09:01:52Z</time>
      </trkpt>
      <trkpt lat="45.97854" lon="4.7981">
        <ele>224</ele>
        <time>2017-05-16T09:01:53Z</time>
      </trkpt>
      <trkpt lat="45.97863" lon="4.79809">
        <ele>224</ele>
        <time>2017-05-16T09:01:55Z</time>
      </trkpt>
      <trkpt lat="45.97867" lon="4.79808">
        <ele>224</ele>
        <time>2017-05-16T09:01:56Z</time>
      </trkpt>
      <trkpt lat="45.97872" lon="4.79807">
        <ele>224</ele>
        <time>2017-05-16T09:01:57Z</time>
      </trkpt>
      <trkpt lat="45.97876" lon="4.79807">
        <ele>224</ele>
        <time>2017-05-16T09:01:58Z</time>
      </trkpt>
      <trkpt lat="45.97881" lon="4.79806">
        <ele>224</ele>
        <time>2017-05-16T09:01:59Z</time>
      </trkpt>
      <trkpt lat="45.97886" lon="4.79805">
        <ele>224</ele>
        <time>2017-05-16T09:02:00Z</time>
      </trkpt>
      <trkpt lat="45.97891" lon="4.79804">
        <ele>224</ele>
        <time>2017-05-16T09:02:01Z</time>
      </trkpt>
      <trkpt lat="45.97896" lon="4.79804">
        <ele>224</ele>
        <time>2017-05-16T09:02:02Z</time>
      </trkpt>
      <trkpt lat="45.97901" lon="4.79802">
        <ele>224</ele>
        <time>2017-05-16T09:02:03Z</time>
      </trkpt>
      <trkpt lat="45.97906" lon="4.79801">
        <ele>224</ele>
        <time>2017-05-16T09:02:04Z</time>
      </trkpt>
      <trkpt lat="45.97911" lon="4.798">
        <ele>224</ele>
        <time>2017-05-16T09:02:05Z</time>
      </trkpt>
      <trkpt lat="45.97917" lon="4.79798">
        <ele>224</ele>
        <time>2017-05-16T09:02:06Z</time>
      </trkpt>
      <trkpt lat="45.97922" lon="4.79797">
        <ele>224</ele>
        <time>2017-05-16T09:02:07Z</time>
      </trkpt>
      <trkpt lat="45.97926" lon="4.79797">
        <ele>224</ele>
        <time>2017-05-16T09:02:08Z</time>
      </trkpt>
      <trkpt lat="45.97931" lon="4.79796">
        <ele>224</ele>
        <time>2017-05-16T09:02:09Z</time>
      </trkpt>
      <trkpt lat="45.97935" lon="4.79795">
        <ele>224</ele>
        <time>2017-05-16T09:02:10Z</time>
      </trkpt>
      <trkpt lat="45.9794" lon="4.79794">
        <ele>224</ele>
        <time>2017-05-16T09:02:11Z</time>
      </trkpt>
      <trkpt lat="45.97944" lon="4.79793">
        <ele>224</ele>
        <time>2017-05-16T09:02:12Z</time>
      </trkpt>
      <trkpt lat="45.97949" lon="4.79793">
        <ele>224</ele>
        <time>2017-05-16T09:02:13Z</time>
      </trkpt>
      <trkpt lat="45.97953" lon="4.79792">
        <ele>224</ele>
        <time>2017-05-16T09:02:14Z</time>
      </trkpt>
      <trkpt lat="45.97958" lon="4.79791">
        <ele>224</ele>
        <time>2017-05-16T09:02:15Z</time>
      </trkpt>
      <trkpt lat="45.97963" lon="4.7979">
        <ele>224</ele>
        <time>2017-05-16T09:02:16Z</time>
      </trkpt>
      <trkpt lat="45.97971" lon="4.79789">
        <ele>224</ele>
        <time>2017-05-16T09:02:18Z</time>
      </trkpt>
      <trkpt lat="45.97976" lon="4.79788">
        <ele>224</ele>
        <time>2017-05-16T09:02:19Z</time>
      </trkpt>
      <trkpt lat="45.97981" lon="4.79787">
        <ele>224</ele>
        <time>2017-05-16T09:02:20Z</time>
      </trkpt>
      <trkpt lat="45.97986" lon="4.79786">
        <ele>224</ele>
        <time>2017-05-16T09:02:21Z</time>
      </trkpt>
      <trkpt lat="45.97991" lon="4.79785">
        <ele>224</ele>
        <time>2017-05-16T09:02:22Z</time>
      </trkpt>
      <trkpt lat="45.97996" lon="4.79784">
        <ele>224</ele>
        <time>2017-05-16T09:02:23Z</time>
      </trkpt>
      <trkpt lat="45.98001" lon="4.79784">
        <ele>223</ele>
        <time>2017-05-16T09:02:24Z</time>
      </trkpt>
      <trkpt lat="45.98006" lon="4.79783">
        <ele>223</ele>
        <time>2017-05-16T09:02:25Z</time>
      </trkpt>
      <trkpt lat="45.9801" lon="4.79783">
        <ele>223</ele>
        <time>2017-05-16T09:02:26Z</time>
      </trkpt>
      <trkpt lat="45.98015" lon="4.79782">
        <ele>223</ele>
        <time>2017-05-16T09:02:27Z</time>
      </trkpt>
      <trkpt lat="45.9802" lon="4.79781">
        <ele>223</ele>
        <time>2017-05-16T09:02:28Z</time>
      </trkpt>
      <trkpt lat="45.98026" lon="4.7978">
        <ele>223</ele>
        <time>2017-05-16T09:02:29Z</time>
      </trkpt>
      <trkpt lat="45.98031" lon="4.79779">
        <ele>223</ele>
        <time>2017-05-16T09:02:30Z</time>
      </trkpt>
      <trkpt lat="45.98037" lon="4.79779">
        <ele>223</ele>
        <time>2017-05-16T09:02:31Z</time>
      </trkpt>
      <trkpt lat="45.98043" lon="4.79778">
        <ele>223</ele>
        <time>2017-05-16T09:02:32Z</time>
      </trkpt>
      <trkpt lat="45.98049" lon="4.79777">
        <ele>223</ele>
        <time>2017-05-16T09:02:33Z</time>
      </trkpt>
      <trkpt lat="45.98055" lon="4.79776">
        <ele>223</ele>
        <time>2017-05-16T09:02:34Z</time>
      </trkpt>
      <trkpt lat="45.98061" lon="4.79776">
        <ele>223</ele>
        <time>2017-05-16T09:02:35Z</time>
      </trkpt>
      <trkpt lat="45.98066" lon="4.79775">
        <ele>223</ele>
        <time>2017-05-16T09:02:36Z</time>
      </trkpt>
      <trkpt lat="45.98072" lon="4.79774">
        <ele>223</ele>
        <time>2017-05-16T09:02:37Z</time>
      </trkpt>
      <trkpt lat="45.98077" lon="4.79773">
        <ele>223</ele>
        <time>2017-05-16T09:02:38Z</time>
      </trkpt>
      <trkpt lat="45.98082" lon="4.79772">
        <ele>223</ele>
        <time>2017-05-16T09:02:39Z</time>
      </trkpt>
      <trkpt lat="45.98087" lon="4.79771">
        <ele>223</ele>
        <time>2017-05-16T09:02:40Z</time>
      </trkpt>
      <trkpt lat="45.98092" lon="4.7977">
        <ele>223</ele>
        <time>2017-05-16T09:02:41Z</time>
      </trkpt>
      <trkpt lat="45.98097" lon="4.7977">
        <ele>223</ele>
        <time>2017-05-16T09:02:42Z</time>
      </trkpt>
      <trkpt lat="45.98102" lon="4.79769">
        <ele>224</ele>
        <time>2017-05-16T09:02:43Z</time>
      </trkpt>
      <trkpt lat="45.98107" lon="4.79769">
        <ele>224</ele>
        <time>2017-05-16T09:02:44Z</time>
      </trkpt>
      <trkpt lat="45.98112" lon="4.79769">
        <ele>224</ele>
        <time>2017-05-16T09:02:45Z</time>
      </trkpt>
      <trkpt lat="45.98116" lon="4.79768">
        <ele>224</ele>
        <time>2017-05-16T09:02:46Z</time>
      </trkpt>
      <trkpt lat="45.98121" lon="4.79767">
        <ele>224</ele>
        <time>2017-05-16T09:02:47Z</time>
      </trkpt>
      <trkpt lat="45.98126" lon="4.79766">
        <ele>224</ele>
        <time>2017-05-16T09:02:48Z</time>
      </trkpt>
      <trkpt lat="45.9813" lon="4.79766">
        <ele>224</ele>
        <time>2017-05-16T09:02:49Z</time>
      </trkpt>
      <trkpt lat="45.98135" lon="4.79765">
        <ele>224</ele>
        <time>2017-05-16T09:02:50Z</time>
      </trkpt>
      <trkpt lat="45.9814" lon="4.79765">
        <ele>224</ele>
        <time>2017-05-16T09:02:51Z</time>
      </trkpt>
      <trkpt lat="45.98145" lon="4.79764">
        <ele>225</ele>
        <time>2017-05-16T09:02:52Z</time>
      </trkpt>
      <trkpt lat="45.9815" lon="4.79764">
        <ele>225</ele>
        <time>2017-05-16T09:02:53Z</time>
      </trkpt>
      <trkpt lat="45.98158" lon="4.79766">
        <ele>225</ele>
        <time>2017-05-16T09:02:55Z</time>
      </trkpt>
      <trkpt lat="45.98161" lon="4.79769">
        <ele>225</ele>
        <time>2017-05-16T09:02:56Z</time>
      </trkpt>
      <trkpt lat="45.98167" lon="4.79776">
        <ele>226</ele>
        <time>2017-05-16T09:02:58Z</time>
      </trkpt>
      <trkpt lat="45.9817" lon="4.79781">
        <ele>226</ele>
        <time>2017-05-16T09:02:59Z</time>
      </trkpt>
      <trkpt lat="45.98175" lon="4.79791">
        <ele>226</ele>
        <time>2017-05-16T09:03:01Z</time>
      </trkpt>
      <trkpt lat="45.98176" lon="4.79797">
        <ele>226</ele>
        <time>2017-05-16T09:03:02Z</time>
      </trkpt>
      <trkpt lat="45.98178" lon="4.79804">
        <ele>225</ele>
        <time>2017-05-16T09:03:03Z</time>
      </trkpt>
      <trkpt lat="45.9818" lon="4.7981">
        <ele>225</ele>
        <time>2017-05-16T09:03:04Z</time>
      </trkpt>
      <trkpt lat="45.98183" lon="4.79816">
        <ele>225</ele>
        <time>2017-05-16T09:03:05Z</time>
      </trkpt>
      <trkpt lat="45.98186" lon="4.79823">
        <ele>225</ele>
        <time>2017-05-16T09:03:06Z</time>
      </trkpt>
      <trkpt lat="45.98189" lon="4.79831">
        <ele>225</ele>
        <time>2017-05-16T09:03:07Z</time>
      </trkpt>
      <trkpt lat="45.98192" lon="4.79839">
        <ele>225</ele>
        <time>2017-05-16T09:03:08Z</time>
      </trkpt>
      <trkpt lat="45.98195" lon="4.79847">
        <ele>225</ele>
        <time>2017-05-16T09:03:09Z</time>
      </trkpt>
      <trkpt lat="45.98198" lon="4.79856">
        <ele>225</ele>
        <time>2017-05-16T09:03:10Z</time>
      </trkpt>
      <trkpt lat="45.98201" lon="4.79864">
        <ele>225</ele>
        <time>2017-05-16T09:03:11Z</time>
      </trkpt>
      <trkpt lat="45.98205" lon="4.79872">
        <ele>225</ele>
        <time>2017-05-16T09:03:12Z</time>
      </trkpt>
      <trkpt lat="45.98207" lon="4.79881">
        <ele>225</ele>
        <time>2017-05-16T09:03:13Z</time>
      </trkpt>
      <trkpt lat="45.9821" lon="4.79889">
        <ele>225</ele>
        <time>2017-05-16T09:03:14Z</time>
      </trkpt>
      <trkpt lat="45.98213" lon="4.79897">
        <ele>225</ele>
        <time>2017-05-16T09:03:15Z</time>
      </trkpt>
      <trkpt lat="45.98215" lon="4.79905">
        <ele>225</ele>
        <time>2017-05-16T09:03:16Z</time>
      </trkpt>
      <trkpt lat="45.98218" lon="4.79912">
        <ele>225</ele>
        <time>2017-05-16T09:03:17Z</time>
      </trkpt>
      <trkpt lat="45.98221" lon="4.7992">
        <ele>225</ele>
        <time>2017-05-16T09:03:18Z</time>
      </trkpt>
      <trkpt lat="45.98223" lon="4.79927">
        <ele>225</ele>
        <time>2017-05-16T09:03:19Z</time>
      </trkpt>
      <trkpt lat="45.98225" lon="4.79934">
        <ele>225</ele>
        <time>2017-05-16T09:03:20Z</time>
      </trkpt>
      <trkpt lat="45.98228" lon="4.79941">
        <ele>225</ele>
        <time>2017-05-16T09:03:21Z</time>
      </trkpt>
      <trkpt lat="45.9823" lon="4.79948">
        <ele>225</ele>
        <time>2017-05-16T09:03:22Z</time>
      </trkpt>
      <trkpt lat="45.98232" lon="4.79954">
        <ele>225</ele>
        <time>2017-05-16T09:03:23Z</time>
      </trkpt>
      <trkpt lat="45.98233" lon="4.7996">
        <ele>225</ele>
        <time>2017-05-16T09:03:24Z</time>
      </trkpt>
      <trkpt lat="45.98236" lon="4.79967">
        <ele>225</ele>
        <time>2017-05-16T09:03:25Z</time>
      </trkpt>
      <trkpt lat="45.98238" lon="4.79973">
        <ele>225</ele>
        <time>2017-05-16T09:03:26Z</time>
      </trkpt>
      <trkpt lat="45.98242" lon="4.79984">
        <ele>225</ele>
        <time>2017-05-16T09:03:28Z</time>
      </trkpt>
      <trkpt lat="45.98244" lon="4.7999">
        <ele>226</ele>
        <time>2017-05-16T09:03:29Z</time>
      </trkpt>
      <trkpt lat="45.98246" lon="4.79996">
        <ele>226</ele>
        <time>2017-05-16T09:03:30Z</time>
      </trkpt>
      <trkpt lat="45.98248" lon="4.80002">
        <ele>226</ele>
        <time>2017-05-16T09:03:31Z</time>
      </trkpt>
      <trkpt lat="45.9825" lon="4.80009">
        <ele>227</ele>
        <time>2017-05-16T09:03:32Z</time>
      </trkpt>
      <trkpt lat="45.98253" lon="4.80016">
        <ele>228</ele>
        <time>2017-05-16T09:03:33Z</time>
      </trkpt>
      <trkpt lat="45.98255" lon="4.80022">
        <ele>228</ele>
        <time>2017-05-16T09:03:34Z</time>
      </trkpt>
      <trkpt lat="45.98258" lon="4.80029">
        <ele>228</ele>
        <time>2017-05-16T09:03:35Z</time>
      </trkpt>
      <trkpt lat="45.98261" lon="4.80036">
        <ele>228</ele>
        <time>2017-05-16T09:03:36Z</time>
      </trkpt>
      <trkpt lat="45.98263" lon="4.80044">
        <ele>228</ele>
        <time>2017-05-16T09:03:37Z</time>
      </trkpt>
      <trkpt lat="45.98266" lon="4.80051">
        <ele>228</ele>
        <time>2017-05-16T09:03:38Z</time>
      </trkpt>
      <trkpt lat="45.98269" lon="4.80059">
        <ele>228</ele>
        <time>2017-05-16T09:03:39Z</time>
      </trkpt>
      <trkpt lat="45.98272" lon="4.80066">
        <ele>228</ele>
        <time>2017-05-16T09:03:40Z</time>
      </trkpt>
      <trkpt lat="45.98274" lon="4.80073">
        <ele>228</ele>
        <time>2017-05-16T09:03:41Z</time>
      </trkpt>
      <trkpt lat="45.98277" lon="4.80079">
        <ele>228</ele>
        <time>2017-05-16T09:03:42Z</time>
      </trkpt>
      <trkpt lat="45.98279" lon="4.80086">
        <ele>228</ele>
        <time>2017-05-16T09:03:43Z</time>
      </trkpt>
      <trkpt lat="45.98281" lon="4.80092">
        <ele>228</ele>
        <time>2017-05-16T09:03:44Z</time>
      </trkpt>
      <trkpt lat="45.98284" lon="4.80098">
        <ele>228</ele>
        <time>2017-05-16T09:03:45Z</time>
      </trkpt>
      <trkpt lat="45.98287" lon="4.80105">
        <ele>228</ele>
        <time>2017-05-16T09:03:46Z</time>
      </trkpt>
      <trkpt lat="45.9829" lon="4.80113">
        <ele>228</ele>
        <time>2017-05-16T09:03:47Z</time>
      </trkpt>
      <trkpt lat="45.98293" lon="4.8012">
        <ele>228</ele>
        <time>2017-05-16T09:03:48Z</time>
      </trkpt>
      <trkpt lat="45.98295" lon="4.80128">
        <ele>228</ele>
        <time>2017-05-16T09:03:49Z</time>
      </trkpt>
      <trkpt lat="45.98297" lon="4.80135">
        <ele>228</ele>
        <time>2017-05-16T09:03:50Z</time>
      </trkpt>
      <trkpt lat="45.98299" lon="4.80142">
        <ele>228</ele>
        <time>2017-05-16T09:03:51Z</time>
      </trkpt>
      <trkpt lat="45.98302" lon="4.80149">
        <ele>228</ele>
        <time>2017-05-16T09:03:52Z</time>
      </trkpt>
      <trkpt lat="45.98304" lon="4.80156">
        <ele>228</ele>
        <time>2017-05-16T09:03:53Z</time>
      </trkpt>
      <trkpt lat="45.98307" lon="4.80163">
        <ele>228</ele>
        <time>2017-05-16T09:03:54Z</time>
      </trkpt>
      <trkpt lat="45.98309" lon="4.80169">
        <ele>227</ele>
        <time>2017-05-16T09:03:55Z</time>
      </trkpt>
      <trkpt lat="45.98311" lon="4.80175">
        <ele>227</ele>
        <time>2017-05-16T09:03:56Z</time>
      </trkpt>
      <trkpt lat="45.98314" lon="4.80182">
        <ele>227</ele>
        <time>2017-05-16T09:03:57Z</time>
      </trkpt>
      <trkpt lat="45.98316" lon="4.80189">
        <ele>227</ele>
        <time>2017-05-16T09:03:58Z</time>
      </trkpt>
      <trkpt lat="45.98318" lon="4.80196">
        <ele>227</ele>
        <time>2017-05-16T09:03:59Z</time>
      </trkpt>
      <trkpt lat="45.98321" lon="4.80203">
        <ele>227</ele>
        <time>2017-05-16T09:04:00Z</time>
      </trkpt>
      <trkpt lat="45.98323" lon="4.80209">
        <ele>227</ele>
        <time>2017-05-16T09:04:01Z</time>
      </trkpt>
      <trkpt lat="45.98325" lon="4.80216">
        <ele>227</ele>
        <time>2017-05-16T09:04:02Z</time>
      </trkpt>
      <trkpt lat="45.98326" lon="4.80223">
        <ele>227</ele>
        <time>2017-05-16T09:04:03Z</time>
      </trkpt>
      <trkpt lat="45.98326" lon="4.8023">
        <ele>228</ele>
        <time>2017-05-16T09:04:04Z</time>
      </trkpt>
      <trkpt lat="45.98325" lon="4.80237">
        <ele>228</ele>
        <time>2017-05-16T09:04:05Z</time>
      </trkpt>
      <trkpt lat="45.98323" lon="4.80244">
        <ele>228</ele>
        <time>2017-05-16T09:04:06Z</time>
      </trkpt>
      <trkpt lat="45.98321" lon="4.80251">
        <ele>228</ele>
        <time>2017-05-16T09:04:07Z</time>
      </trkpt>
      <trkpt lat="45.98319" lon="4.80259">
        <ele>228</ele>
        <time>2017-05-16T09:04:08Z</time>
      </trkpt>
      <trkpt lat="45.98318" lon="4.80266">
        <ele>227</ele>
        <time>2017-05-16T09:04:09Z</time>
      </trkpt>
      <trkpt lat="45.98315" lon="4.80275">
        <ele>227</ele>
        <time>2017-05-16T09:04:10Z</time>
      </trkpt>
      <trkpt lat="45.98313" lon="4.80283">
        <ele>226</ele>
        <time>2017-05-16T09:04:11Z</time>
      </trkpt>
      <trkpt lat="45.98311" lon="4.80291">
        <ele>226</ele>
        <time>2017-05-16T09:04:12Z</time>
      </trkpt>
      <trkpt lat="45.98309" lon="4.803">
        <ele>226</ele>
        <time>2017-05-16T09:04:13Z</time>
      </trkpt>
      <trkpt lat="45.98307" lon="4.80307">
        <ele>226</ele>
        <time>2017-05-16T09:04:14Z</time>
      </trkpt>
      <trkpt lat="45.98306" lon="4.80316">
        <ele>226</ele>
        <time>2017-05-16T09:04:15Z</time>
      </trkpt>
      <trkpt lat="45.98305" lon="4.80325">
        <ele>226</ele>
        <time>2017-05-16T09:04:16Z</time>
      </trkpt>
      <trkpt lat="45.98303" lon="4.80335">
        <ele>225</ele>
        <time>2017-05-16T09:04:17Z</time>
      </trkpt>
      <trkpt lat="45.98301" lon="4.80344">
        <ele>225</ele>
        <time>2017-05-16T09:04:18Z</time>
      </trkpt>
      <trkpt lat="45.98299" lon="4.80353">
        <ele>225</ele>
        <time>2017-05-16T09:04:19Z</time>
      </trkpt>
      <trkpt lat="45.98297" lon="4.80362">
        <ele>225</ele>
        <time>2017-05-16T09:04:20Z</time>
      </trkpt>
      <trkpt lat="45.98295" lon="4.80371">
        <ele>224</ele>
        <time>2017-05-16T09:04:21Z</time>
      </trkpt>
      <trkpt lat="45.98293" lon="4.80381">
        <ele>224</ele>
        <time>2017-05-16T09:04:22Z</time>
      </trkpt>
      <trkpt lat="45.98291" lon="4.80391">
        <ele>224</ele>
        <time>2017-05-16T09:04:23Z</time>
      </trkpt>
      <trkpt lat="45.98289" lon="4.804">
        <ele>224</ele>
        <time>2017-05-16T09:04:24Z</time>
      </trkpt>
      <trkpt lat="45.98287" lon="4.8041">
        <ele>224</ele>
        <time>2017-05-16T09:04:25Z</time>
      </trkpt>
      <trkpt lat="45.98284" lon="4.80421">
        <ele>223</ele>
        <time>2017-05-16T09:04:26Z</time>
      </trkpt>
      <trkpt lat="45.98283" lon="4.8043">
        <ele>223</ele>
        <time>2017-05-16T09:04:27Z</time>
      </trkpt>
      <trkpt lat="45.9828" lon="4.8044">
        <ele>223</ele>
        <time>2017-05-16T09:04:28Z</time>
      </trkpt>
      <trkpt lat="45.98279" lon="4.8045">
        <ele>223</ele>
        <time>2017-05-16T09:04:29Z</time>
      </trkpt>
      <trkpt lat="45.98277" lon="4.80459">
        <ele>223</ele>
        <time>2017-05-16T09:04:30Z</time>
      </trkpt>
      <trkpt lat="45.98275" lon="4.80469">
        <ele>223</ele>
        <time>2017-05-16T09:04:31Z</time>
      </trkpt>
      <trkpt lat="45.98273" lon="4.80477">
        <ele>223</ele>
        <time>2017-05-16T09:04:32Z</time>
      </trkpt>
      <trkpt lat="45.9827" lon="4.80486">
        <ele>223</ele>
        <time>2017-05-16T09:04:33Z</time>
      </trkpt>
      <trkpt lat="45.98268" lon="4.80495">
        <ele>223</ele>
        <time>2017-05-16T09:04:34Z</time>
      </trkpt>
      <trkpt lat="45.98266" lon="4.80503">
        <ele>223</ele>
        <time>2017-05-16T09:04:35Z</time>
      </trkpt>
      <trkpt lat="45.98264" lon="4.80512">
        <ele>223</ele>
        <time>2017-05-16T09:04:36Z</time>
      </trkpt>
      <trkpt lat="45.98261" lon="4.80519">
        <ele>223</ele>
        <time>2017-05-16T09:04:37Z</time>
      </trkpt>
      <trkpt lat="45.98259" lon="4.80526">
        <ele>223</ele>
        <time>2017-05-16T09:04:38Z</time>
      </trkpt>
      <trkpt lat="45.98256" lon="4.80533">
        <ele>224</ele>
        <time>2017-05-16T09:04:39Z</time>
      </trkpt>
      <trkpt lat="45.98254" lon="4.80541">
        <ele>224</ele>
        <time>2017-05-16T09:04:40Z</time>
      </trkpt>
      <trkpt lat="45.98252" lon="4.80547">
        <ele>224</ele>
        <time>2017-05-16T09:04:41Z</time>
      </trkpt>
      <trkpt lat="45.9825" lon="4.80554">
        <ele>223</ele>
        <time>2017-05-16T09:04:42Z</time>
      </trkpt>
      <trkpt lat="45.98248" lon="4.80561">
        <ele>223</ele>
        <time>2017-05-16T09:04:43Z</time>
      </trkpt>
      <trkpt lat="45.98247" lon="4.80568">
        <ele>224</ele>
        <time>2017-05-16T09:04:44Z</time>
      </trkpt>
      <trkpt lat="45.98245" lon="4.80575">
        <ele>224</ele>
        <time>2017-05-16T09:04:45Z</time>
      </trkpt>
      <trkpt lat="45.98243" lon="4.80581">
        <ele>224</ele>
        <time>2017-05-16T09:04:46Z</time>
      </trkpt>
      <trkpt lat="45.98242" lon="4.80587">
        <ele>224</ele>
        <time>2017-05-16T09:04:47Z</time>
      </trkpt>
      <trkpt lat="45.9824" lon="4.80593">
        <ele>224</ele>
        <time>2017-05-16T09:04:48Z</time>
      </trkpt>
      <trkpt lat="45.98238" lon="4.80599">
        <ele>224</ele>
        <time>2017-05-16T09:04:49Z</time>
      </trkpt>
      <trkpt lat="45.98236" lon="4.80606">
        <ele>224</ele>
        <time>2017-05-16T09:04:50Z</time>
      </trkpt>
      <trkpt lat="45.98234" lon="4.80612">
        <ele>224</ele>
        <time>2017-05-16T09:04:51Z</time>
      </trkpt>
      <trkpt lat="45.98232" lon="4.80619">
        <ele>224</ele>
        <time>2017-05-16T09:04:52Z</time>
      </trkpt>
      <trkpt lat="45.9823" lon="4.80625">
        <ele>224</ele>
        <time>2017-05-16T09:04:53Z</time>
      </trkpt>
      <trkpt lat="45.98228" lon="4.80631">
        <ele>224</ele>
        <time>2017-05-16T09:04:54Z</time>
      </trkpt>
      <trkpt lat="45.98226" lon="4.80637">
        <ele>224</ele>
        <time>2017-05-16T09:04:55Z</time>
      </trkpt>
      <trkpt lat="45.98223" lon="4.80643">
        <ele>224</ele>
        <time>2017-05-16T09:04:56Z</time>
      </trkpt>
      <trkpt lat="45.98221" lon="4.8065">
        <ele>224</ele>
        <time>2017-05-16T09:04:57Z</time>
      </trkpt>
      <trkpt lat="45.98216" lon="4.8066">
        <ele>224</ele>
        <time>2017-05-16T09:04:59Z</time>
      </trkpt>
      <trkpt lat="45.98214" lon="4.80664">
        <ele>224</ele>
        <time>2017-05-16T09:05:00Z</time>
      </trkpt>
      <trkpt lat="45.98207" lon="4.80669">
        <ele>224</ele>
        <time>2017-05-16T09:05:02Z</time>
      </trkpt>
      <trkpt lat="45.98203" lon="4.80671">
        <ele>225</ele>
        <time>2017-05-16T09:05:03Z</time>
      </trkpt>
      <trkpt lat="45.98196" lon="4.80676">
        <ele>225</ele>
        <time>2017-05-16T09:05:05Z</time>
      </trkpt>
      <trkpt lat="45.98192" lon="4.80678">
        <ele>225</ele>
        <time>2017-05-16T09:05:06Z</time>
      </trkpt>
      <trkpt lat="45.98188" lon="4.8068">
        <ele>225</ele>
        <time>2017-05-16T09:05:07Z</time>
      </trkpt>
      <trkpt lat="45.98183" lon="4.80681">
        <ele>225</ele>
        <time>2017-05-16T09:05:08Z</time>
      </trkpt>
      <trkpt lat="45.98177" lon="4.80682">
        <ele>225</ele>
        <time>2017-05-16T09:05:09Z</time>
      </trkpt>
      <trkpt lat="45.98172" lon="4.80683">
        <ele>225</ele>
        <time>2017-05-16T09:05:10Z</time>
      </trkpt>
      <trkpt lat="45.98167" lon="4.80684">
        <ele>227</ele>
        <time>2017-05-16T09:05:11Z</time>
      </trkpt>
      <trkpt lat="45.98159" lon="4.80686">
        <ele>227</ele>
        <time>2017-05-16T09:05:12Z</time>
      </trkpt>
      <trkpt lat="45.98154" lon="4.80686">
        <ele>227</ele>
        <time>2017-05-16T09:05:13Z</time>
      </trkpt>
      <trkpt lat="45.98149" lon="4.80688">
        <ele>227</ele>
        <time>2017-05-16T09:05:14Z</time>
      </trkpt>
      <trkpt lat="45.98145" lon="4.80688">
        <ele>228</ele>
        <time>2017-05-16T09:05:15Z</time>
      </trkpt>
      <trkpt lat="45.9814" lon="4.80688">
        <ele>228</ele>
        <time>2017-05-16T09:05:16Z</time>
      </trkpt>
      <trkpt lat="45.98132" lon="4.80688">
        <ele>228</ele>
        <time>2017-05-16T09:05:18Z</time>
      </trkpt>
      <trkpt lat="45.98128" lon="4.80688">
        <ele>228</ele>
        <time>2017-05-16T09:05:19Z</time>
      </trkpt>
      <trkpt lat="45.9812" lon="4.80689">
        <ele>228</ele>
        <time>2017-05-16T09:05:21Z</time>
      </trkpt>
      <trkpt lat="45.98116" lon="4.80689">
        <ele>228</ele>
        <time>2017-05-16T09:05:22Z</time>
      </trkpt>
      <trkpt lat="45.98108" lon="4.80689">
        <ele>228</ele>
        <time>2017-05-16T09:05:24Z</time>
      </trkpt>
      <trkpt lat="45.98104" lon="4.80689">
        <ele>228</ele>
        <time>2017-05-16T09:05:25Z</time>
      </trkpt>
      <trkpt lat="45.98095" lon="4.8069">
        <ele>228</ele>
        <time>2017-05-16T09:05:27Z</time>
      </trkpt>
      <trkpt lat="45.98091" lon="4.8069">
        <ele>228</ele>
        <time>2017-05-16T09:05:28Z</time>
      </trkpt>
      <trkpt lat="45.98084" lon="4.8069">
        <ele>228</ele>
        <time>2017-05-16T09:05:30Z</time>
      </trkpt>
      <trkpt lat="45.9808" lon="4.80691">
        <ele>230</ele>
        <time>2017-05-16T09:05:31Z</time>
      </trkpt>
      <trkpt lat="45.98073" lon="4.80691">
        <ele>230</ele>
        <time>2017-05-16T09:05:33Z</time>
      </trkpt>
      <trkpt lat="45.9807" lon="4.80692">
        <ele>230</ele>
        <time>2017-05-16T09:05:34Z</time>
      </trkpt>
      <trkpt lat="45.98062" lon="4.80693">
        <ele>230</ele>
        <time>2017-05-16T09:05:36Z</time>
      </trkpt>
      <trkpt lat="45.98059" lon="4.80695">
        <ele>230</ele>
        <time>2017-05-16T09:05:37Z</time>
      </trkpt>
      <trkpt lat="45.98051" lon="4.80696">
        <ele>230</ele>
        <time>2017-05-16T09:05:39Z</time>
      </trkpt>
      <trkpt lat="45.98047" lon="4.80696">
        <ele>230</ele>
        <time>2017-05-16T09:05:40Z</time>
      </trkpt>
      <trkpt lat="45.98039" lon="4.80698">
        <ele>230</ele>
        <time>2017-05-16T09:05:42Z</time>
      </trkpt>
      <trkpt lat="45.98035" lon="4.80699">
        <ele>230</ele>
        <time>2017-05-16T09:05:43Z</time>
      </trkpt>
      <trkpt lat="45.98029" lon="4.80704">
        <ele>231</ele>
        <time>2017-05-16T09:05:45Z</time>
      </trkpt>
      <trkpt lat="45.98027" lon="4.80709">
        <ele>231</ele>
        <time>2017-05-16T09:05:46Z</time>
      </trkpt>
      <trkpt lat="45.98029" lon="4.8072">
        <ele>231</ele>
        <time>2017-05-16T09:05:48Z</time>
      </trkpt>
      <trkpt lat="45.9803" lon="4.80725">
        <ele>231</ele>
        <time>2017-05-16T09:05:49Z</time>
      </trkpt>
      <trkpt lat="45.98031" lon="4.80734">
        <ele>231</ele>
        <time>2017-05-16T09:05:51Z</time>
      </trkpt>
      <trkpt lat="45.98033" lon="4.80738">
        <ele>231</ele>
        <time>2017-05-16T09:05:52Z</time>
      </trkpt>
      <trkpt lat="45.98036" lon="4.80747">
        <ele>231</ele>
        <time>2017-05-16T09:05:54Z</time>
      </trkpt>
      <trkpt lat="45.98037" lon="4.80751">
        <ele>233</ele>
        <time>2017-05-16T09:05:55Z</time>
      </trkpt>
      <trkpt lat="45.98039" lon="4.80762">
        <ele>233</ele>
        <time>2017-05-16T09:05:58Z</time>
      </trkpt>
      <trkpt lat="45.9804" lon="4.80766">
        <ele>233</ele>
        <time>2017-05-16T09:05:59Z</time>
      </trkpt>
      <trkpt lat="45.98043" lon="4.80776">
        <ele>233</ele>
        <time>2017-05-16T09:06:02Z</time>
      </trkpt>
      <trkpt lat="45.98044" lon="4.8078">
        <ele>233</ele>
        <time>2017-05-16T09:06:03Z</time>
      </trkpt>
      <trkpt lat="45.98046" lon="4.80791">
        <ele>233</ele>
        <time>2017-05-16T09:06:06Z</time>
      </trkpt>
      <trkpt lat="45.98047" lon="4.80794">
        <ele>233</ele>
        <time>2017-05-16T09:06:07Z</time>
      </trkpt>
      <trkpt lat="45.9805" lon="4.80806">
        <ele>234</ele>
        <time>2017-05-16T09:06:10Z</time>
      </trkpt>
      <trkpt lat="45.98051" lon="4.80811">
        <ele>234</ele>
        <time>2017-05-16T09:06:11Z</time>
      </trkpt>
      <trkpt lat="45.98052" lon="4.8082">
        <ele>234</ele>
        <time>2017-05-16T09:06:13Z</time>
      </trkpt>
      <trkpt lat="45.98053" lon="4.80825">
        <ele>234</ele>
        <time>2017-05-16T09:06:14Z</time>
      </trkpt>
      <trkpt lat="45.98055" lon="4.80837">
        <ele>236</ele>
        <time>2017-05-16T09:06:17Z</time>
      </trkpt>
      <trkpt lat="45.98057" lon="4.8084">
        <ele>236</ele>
        <time>2017-05-16T09:06:18Z</time>
      </trkpt>
      <trkpt lat="45.9806" lon="4.80851">
        <ele>236</ele>
        <time>2017-05-16T09:06:21Z</time>
      </trkpt>
      <trkpt lat="45.98061" lon="4.80855">
        <ele>236</ele>
        <time>2017-05-16T09:06:22Z</time>
      </trkpt>
      <trkpt lat="45.98062" lon="4.80863">
        <ele>237</ele>
        <time>2017-05-16T09:06:24Z</time>
      </trkpt>
      <trkpt lat="45.98063" lon="4.80867">
        <ele>237</ele>
        <time>2017-05-16T09:06:25Z</time>
      </trkpt>
      <trkpt lat="45.98065" lon="4.80876">
        <ele>237</ele>
        <time>2017-05-16T09:06:27Z</time>
      </trkpt>
      <trkpt lat="45.98066" lon="4.8088">
        <ele>237</ele>
        <time>2017-05-16T09:06:28Z</time>
      </trkpt>
      <trkpt lat="45.98069" lon="4.80891">
        <ele>238</ele>
        <time>2017-05-16T09:06:31Z</time>
      </trkpt>
      <trkpt lat="45.9807" lon="4.80894">
        <ele>238</ele>
        <time>2017-05-16T09:06:32Z</time>
      </trkpt>
      <trkpt lat="45.98073" lon="4.80902">
        <ele>238</ele>
        <time>2017-05-16T09:06:34Z</time>
      </trkpt>
      <trkpt lat="45.98074" lon="4.80907">
        <ele>238</ele>
        <time>2017-05-16T09:06:35Z</time>
      </trkpt>
      <trkpt lat="45.98076" lon="4.80918">
        <ele>240</ele>
        <time>2017-05-16T09:06:38Z</time>
      </trkpt>
      <trkpt lat="45.98077" lon="4.80922">
        <ele>240</ele>
        <time>2017-05-16T09:06:39Z</time>
      </trkpt>
      <trkpt lat="45.98081" lon="4.80933">
        <ele>240</ele>
        <time>2017-05-16T09:06:42Z</time>
      </trkpt>
      <trkpt lat="45.98082" lon="4.80937">
        <ele>240</ele>
        <time>2017-05-16T09:06:43Z</time>
      </trkpt>
      <trkpt lat="45.98083" lon="4.80946">
        <ele>240</ele>
        <time>2017-05-16T09:06:45Z</time>
      </trkpt>
      <trkpt lat="45.98083" lon="4.80951">
        <ele>241</ele>
        <time>2017-05-16T09:06:46Z</time>
      </trkpt>
      <trkpt lat="45.98086" lon="4.80959">
        <ele>239</ele>
        <time>2017-05-16T09:06:48Z</time>
      </trkpt>
      <trkpt lat="45.98087" lon="4.80963">
        <ele>239</ele>
        <time>2017-05-16T09:06:49Z</time>
      </trkpt>
      <trkpt lat="45.9809" lon="4.80971">
        <ele>239</ele>
        <time>2017-05-16T09:06:51Z</time>
      </trkpt>
      <trkpt lat="45.9809" lon="4.80975">
        <ele>239</ele>
        <time>2017-05-16T09:06:52Z</time>
      </trkpt>
      <trkpt lat="45.98092" lon="4.80984">
        <ele>240</ele>
        <time>2017-05-16T09:06:54Z</time>
      </trkpt>
      <trkpt lat="45.98094" lon="4.80989">
        <ele>240</ele>
        <time>2017-05-16T09:06:55Z</time>
      </trkpt>
      <trkpt lat="45.98097" lon="4.80997">
        <ele>240</ele>
        <time>2017-05-16T09:06:57Z</time>
      </trkpt>
      <trkpt lat="45.98099" lon="4.81002">
        <ele>242</ele>
        <time>2017-05-16T09:06:58Z</time>
      </trkpt>
      <trkpt lat="45.98102" lon="4.81011">
        <ele>242</ele>
        <time>2017-05-16T09:07:00Z</time>
      </trkpt>
      <trkpt lat="45.98104" lon="4.81016">
        <ele>242</ele>
        <time>2017-05-16T09:07:01Z</time>
      </trkpt>
      <trkpt lat="45.98107" lon="4.81025">
        <ele>242</ele>
        <time>2017-05-16T09:07:03Z</time>
      </trkpt>
      <trkpt lat="45.98109" lon="4.8103">
        <ele>242</ele>
        <time>2017-05-16T09:07:04Z</time>
      </trkpt>
      <trkpt lat="45.98112" lon="4.8104">
        <ele>242</ele>
        <time>2017-05-16T09:07:06Z</time>
      </trkpt>
      <trkpt lat="45.98114" lon="4.81045">
        <ele>242</ele>
        <time>2017-05-16T09:07:07Z</time>
      </trkpt>
      <trkpt lat="45.98117" lon="4.81055">
        <ele>243</ele>
        <time>2017-05-16T09:07:09Z</time>
      </trkpt>
      <trkpt lat="45.98119" lon="4.8106">
        <ele>243</ele>
        <time>2017-05-16T09:07:10Z</time>
      </trkpt>
      <trkpt lat="45.98122" lon="4.81069">
        <ele>243</ele>
        <time>2017-05-16T09:07:12Z</time>
      </trkpt>
      <trkpt lat="45.98124" lon="4.81074">
        <ele>243</ele>
        <time>2017-05-16T09:07:13Z</time>
      </trkpt>
      <trkpt lat="45.98127" lon="4.81084">
        <ele>245</ele>
        <time>2017-05-16T09:07:15Z</time>
      </trkpt>
      <trkpt lat="45.9813" lon="4.81087">
        <ele>245</ele>
        <time>2017-05-16T09:07:16Z</time>
      </trkpt>
      <trkpt lat="45.98133" lon="4.81096">
        <ele>245</ele>
        <time>2017-05-16T09:07:18Z</time>
      </trkpt>
      <trkpt lat="45.98135" lon="4.81101">
        <ele>245</ele>
        <time>2017-05-16T09:07:19Z</time>
      </trkpt>
      <trkpt lat="45.98138" lon="4.81111">
        <ele>245</ele>
        <time>2017-05-16T09:07:21Z</time>
      </trkpt>
      <trkpt lat="45.98139" lon="4.81115">
        <ele>245</ele>
        <time>2017-05-16T09:07:22Z</time>
      </trkpt>
      <trkpt lat="45.98142" lon="4.81126">
        <ele>245</ele>
        <time>2017-05-16T09:07:24Z</time>
      </trkpt>
      <trkpt lat="45.98145" lon="4.81131">
        <ele>245</ele>
        <time>2017-05-16T09:07:25Z</time>
      </trkpt>
      <trkpt lat="45.98147" lon="4.81137">
        <ele>245</ele>
        <time>2017-05-16T09:07:26Z</time>
      </trkpt>
      <trkpt lat="45.9815" lon="4.81142">
        <ele>245</ele>
        <time>2017-05-16T09:07:27Z</time>
      </trkpt>
      <trkpt lat="45.98152" lon="4.81148">
        <ele>245</ele>
        <time>2017-05-16T09:07:28Z</time>
      </trkpt>
      <trkpt lat="45.98154" lon="4.81155">
        <ele>245</ele>
        <time>2017-05-16T09:07:29Z</time>
      </trkpt>
      <trkpt lat="45.98156" lon="4.81161">
        <ele>245</ele>
        <time>2017-05-16T09:07:30Z</time>
      </trkpt>
      <trkpt lat="45.98158" lon="4.81167">
        <ele>245</ele>
        <time>2017-05-16T09:07:31Z</time>
      </trkpt>
      <trkpt lat="45.98161" lon="4.81177">
        <ele>246</ele>
        <time>2017-05-16T09:07:33Z</time>
      </trkpt>
      <trkpt lat="45.98163" lon="4.81181">
        <ele>246</ele>
        <time>2017-05-16T09:07:34Z</time>
      </trkpt>
      <trkpt lat="45.98163" lon="4.81191">
        <ele>246</ele>
        <time>2017-05-16T09:07:36Z</time>
      </trkpt>
      <trkpt lat="45.98164" lon="4.81196">
        <ele>246</ele>
        <time>2017-05-16T09:07:37Z</time>
      </trkpt>
      <trkpt lat="45.98165" lon="4.81207">
        <ele>247</ele>
        <time>2017-05-16T09:07:39Z</time>
      </trkpt>
      <trkpt lat="45.98166" lon="4.81213">
        <ele>247</ele>
        <time>2017-05-16T09:07:40Z</time>
      </trkpt>
      <trkpt lat="45.98168" lon="4.81224">
        <ele>246</ele>
        <time>2017-05-16T09:07:42Z</time>
      </trkpt>
      <trkpt lat="45.98169" lon="4.8123">
        <ele>246</ele>
        <time>2017-05-16T09:07:43Z</time>
      </trkpt>
      <trkpt lat="45.9817" lon="4.81241">
        <ele>247</ele>
        <time>2017-05-16T09:07:45Z</time>
      </trkpt>
      <trkpt lat="45.9817" lon="4.81247">
        <ele>247</ele>
        <time>2017-05-16T09:07:46Z</time>
      </trkpt>
      <trkpt lat="45.98172" lon="4.81258">
        <ele>248</ele>
        <time>2017-05-16T09:07:48Z</time>
      </trkpt>
      <trkpt lat="45.98173" lon="4.81263">
        <ele>247</ele>
        <time>2017-05-16T09:07:49Z</time>
      </trkpt>
      <trkpt lat="45.98174" lon="4.81275">
        <ele>247</ele>
        <time>2017-05-16T09:07:51Z</time>
      </trkpt>
      <trkpt lat="45.98175" lon="4.81281">
        <ele>247</ele>
        <time>2017-05-16T09:07:52Z</time>
      </trkpt>
      <trkpt lat="45.98179" lon="4.81287">
        <ele>247</ele>
        <time>2017-05-16T09:07:53Z</time>
      </trkpt>
      <trkpt lat="45.98179" lon="4.81294">
        <ele>247</ele>
        <time>2017-05-16T09:07:54Z</time>
      </trkpt>
      <trkpt lat="45.9818" lon="4.813">
        <ele>247</ele>
        <time>2017-05-16T09:07:55Z</time>
      </trkpt>
      <trkpt lat="45.98181" lon="4.81308">
        <ele>247</ele>
        <time>2017-05-16T09:07:56Z</time>
      </trkpt>
      <trkpt lat="45.98183" lon="4.81314">
        <ele>247</ele>
        <time>2017-05-16T09:07:57Z</time>
      </trkpt>
      <trkpt lat="45.98186" lon="4.81321">
        <ele>247</ele>
        <time>2017-05-16T09:07:58Z</time>
      </trkpt>
      <trkpt lat="45.98188" lon="4.81333">
        <ele>247</ele>
        <time>2017-05-16T09:08:00Z</time>
      </trkpt>
      <trkpt lat="45.98189" lon="4.81338">
        <ele>248</ele>
        <time>2017-05-16T09:08:01Z</time>
      </trkpt>
      <trkpt lat="45.98192" lon="4.81349">
        <ele>248</ele>
        <time>2017-05-16T09:08:03Z</time>
      </trkpt>
      <trkpt lat="45.98194" lon="4.81354">
        <ele>248</ele>
        <time>2017-05-16T09:08:04Z</time>
      </trkpt>
      <trkpt lat="45.98197" lon="4.81363">
        <ele>248</ele>
        <time>2017-05-16T09:08:06Z</time>
      </trkpt>
      <trkpt lat="45.98198" lon="4.81368">
        <ele>248</ele>
        <time>2017-05-16T09:08:07Z</time>
      </trkpt>
      <trkpt lat="45.982" lon="4.81377">
        <ele>248</ele>
        <time>2017-05-16T09:08:09Z</time>
      </trkpt>
      <trkpt lat="45.98201" lon="4.81382">
        <ele>248</ele>
        <time>2017-05-16T09:08:10Z</time>
      </trkpt>
      <trkpt lat="45.98204" lon="4.81392">
        <ele>248</ele>
        <time>2017-05-16T09:08:12Z</time>
      </trkpt>
      <trkpt lat="45.98206" lon="4.81397">
        <ele>248</ele>
        <time>2017-05-16T09:08:13Z</time>
      </trkpt>
      <trkpt lat="45.98209" lon="4.81407">
        <ele>248</ele>
        <time>2017-05-16T09:08:15Z</time>
      </trkpt>
      <trkpt lat="45.9821" lon="4.81412">
        <ele>248</ele>
        <time>2017-05-16T09:08:16Z</time>
      </trkpt>
      <trkpt lat="45.98214" lon="4.81422">
        <ele>249</ele>
        <time>2017-05-16T09:08:18Z</time>
      </trkpt>
      <trkpt lat="45.98215" lon="4.81428">
        <ele>249</ele>
        <time>2017-05-16T09:08:19Z</time>
      </trkpt>
      <trkpt lat="45.98218" lon="4.81438">
        <ele>249</ele>
        <time>2017-05-16T09:08:21Z</time>
      </trkpt>
      <trkpt lat="45.9822" lon="4.81443">
        <ele>249</ele>
        <time>2017-05-16T09:08:22Z</time>
      </trkpt>
      <trkpt lat="45.98223" lon="4.81454">
        <ele>249</ele>
        <time>2017-05-16T09:08:24Z</time>
      </trkpt>
      <trkpt lat="45.98225" lon="4.81459">
        <ele>249</ele>
        <time>2017-05-16T09:08:25Z</time>
      </trkpt>
      <trkpt lat="45.98228" lon="4.81469">
        <ele>249</ele>
        <time>2017-05-16T09:08:27Z</time>
      </trkpt>
      <trkpt lat="45.98229" lon="4.81475">
        <ele>249</ele>
        <time>2017-05-16T09:08:28Z</time>
      </trkpt>
      <trkpt lat="45.98233" lon="4.81485">
        <ele>249</ele>
        <time>2017-05-16T09:08:30Z</time>
      </trkpt>
      <trkpt lat="45.98235" lon="4.81491">
        <ele>249</ele>
        <time>2017-05-16T09:08:31Z</time>
      </trkpt>
      <trkpt lat="45.98239" lon="4.81502">
        <ele>249</ele>
        <time>2017-05-16T09:08:33Z</time>
      </trkpt>
      <trkpt lat="45.9824" lon="4.81508">
        <ele>249</ele>
        <time>2017-05-16T09:08:34Z</time>
      </trkpt>
      <trkpt lat="45.98242" lon="4.81515">
        <ele>249</ele>
        <time>2017-05-16T09:08:35Z</time>
      </trkpt>
      <trkpt lat="45.98245" lon="4.8152">
        <ele>249</ele>
        <time>2017-05-16T09:08:36Z</time>
      </trkpt>
      <trkpt lat="45.98247" lon="4.81527">
        <ele>249</ele>
        <time>2017-05-16T09:08:37Z</time>
      </trkpt>
      <trkpt lat="45.98249" lon="4.81533">
        <ele>249</ele>
        <time>2017-05-16T09:08:38Z</time>
      </trkpt>
      <trkpt lat="45.98251" lon="4.81539">
        <ele>247</ele>
        <time>2017-05-16T09:08:39Z</time>
      </trkpt>
      <trkpt lat="45.98253" lon="4.81545">
        <ele>247</ele>
        <time>2017-05-16T09:08:40Z</time>
      </trkpt>
      <trkpt lat="45.98255" lon="4.81551">
        <ele>247</ele>
        <time>2017-05-16T09:08:41Z</time>
      </trkpt>
      <trkpt lat="45.98257" lon="4.81557">
        <ele>247</ele>
        <time>2017-05-16T09:08:42Z</time>
      </trkpt>
      <trkpt lat="45.98261" lon="4.81569">
        <ele>247</ele>
        <time>2017-05-16T09:08:44Z</time>
      </trkpt>
      <trkpt lat="45.98263" lon="4.81574">
        <ele>247</ele>
        <time>2017-05-16T09:08:45Z</time>
      </trkpt>
      <trkpt lat="45.98265" lon="4.8158">
        <ele>247</ele>
        <time>2017-05-16T09:08:46Z</time>
      </trkpt>
      <trkpt lat="45.98267" lon="4.81586">
        <ele>247</ele>
        <time>2017-05-16T09:08:47Z</time>
      </trkpt>
      <trkpt lat="45.98269" lon="4.81592">
        <ele>247</ele>
        <time>2017-05-16T09:08:48Z</time>
      </trkpt>
      <trkpt lat="45.98272" lon="4.81598">
        <ele>247</ele>
        <time>2017-05-16T09:08:49Z</time>
      </trkpt>
      <trkpt lat="45.98274" lon="4.81604">
        <ele>247</ele>
        <time>2017-05-16T09:08:50Z</time>
      </trkpt>
      <trkpt lat="45.98276" lon="4.8161">
        <ele>247</ele>
        <time>2017-05-16T09:08:51Z</time>
      </trkpt>
      <trkpt lat="45.98279" lon="4.81615">
        <ele>247</ele>
        <time>2017-05-16T09:08:52Z</time>
      </trkpt>
      <trkpt lat="45.98282" lon="4.81621">
        <ele>247</ele>
        <time>2017-05-16T09:08:53Z</time>
      </trkpt>
      <trkpt lat="45.98288" lon="4.8163">
        <ele>247</ele>
        <time>2017-05-16T09:08:55Z</time>
      </trkpt>
      <trkpt lat="45.98291" lon="4.81634">
        <ele>247</ele>
        <time>2017-05-16T09:08:56Z</time>
      </trkpt>
      <trkpt lat="45.98295" lon="4.81639">
        <ele>247</ele>
        <time>2017-05-16T09:08:57Z</time>
      </trkpt>
      <trkpt lat="45.98299" lon="4.81643">
        <ele>247</ele>
        <time>2017-05-16T09:08:58Z</time>
      </trkpt>
      <trkpt lat="45.98303" lon="4.81647">
        <ele>246</ele>
        <time>2017-05-16T09:08:59Z</time>
      </trkpt>
      <trkpt lat="45.98307" lon="4.81651">
        <ele>246</ele>
        <time>2017-05-16T09:09:00Z</time>
      </trkpt>
      <trkpt lat="45.98311" lon="4.81654">
        <ele>246</ele>
        <time>2017-05-16T09:09:01Z</time>
      </trkpt>
      <trkpt lat="45.98315" lon="4.81658">
        <ele>246</ele>
        <time>2017-05-16T09:09:02Z</time>
      </trkpt>
      <trkpt lat="45.98319" lon="4.81662">
        <ele>246</ele>
        <time>2017-05-16T09:09:03Z</time>
      </trkpt>
      <trkpt lat="45.98323" lon="4.81665">
        <ele>246</ele>
        <time>2017-05-16T09:09:04Z</time>
      </trkpt>
      <trkpt lat="45.98331" lon="4.81671">
        <ele>246</ele>
        <time>2017-05-16T09:09:06Z</time>
      </trkpt>
      <trkpt lat="45.98335" lon="4.81673">
        <ele>246</ele>
        <time>2017-05-16T09:09:07Z</time>
      </trkpt>
      <trkpt lat="45.9834" lon="4.81675">
        <ele>245</ele>
        <time>2017-05-16T09:09:08Z</time>
      </trkpt>
      <trkpt lat="45.98345" lon="4.81676">
        <ele>245</ele>
        <time>2017-05-16T09:09:09Z</time>
      </trkpt>
      <trkpt lat="45.9835" lon="4.81677">
        <ele>245</ele>
        <time>2017-05-16T09:09:10Z</time>
      </trkpt>
      <trkpt lat="45.98355" lon="4.81677">
        <ele>245</ele>
        <time>2017-05-16T09:09:11Z</time>
      </trkpt>
      <trkpt lat="45.9836" lon="4.81676">
        <ele>244</ele>
        <time>2017-05-16T09:09:12Z</time>
      </trkpt>
      <trkpt lat="45.98365" lon="4.81675">
        <ele>244</ele>
        <time>2017-05-16T09:09:13Z</time>
      </trkpt>
      <trkpt lat="45.98371" lon="4.81675">
        <ele>244</ele>
        <time>2017-05-16T09:09:14Z</time>
      </trkpt>
      <trkpt lat="45.98376" lon="4.81674">
        <ele>244</ele>
        <time>2017-05-16T09:09:15Z</time>
      </trkpt>
      <trkpt lat="45.98381" lon="4.81673">
        <ele>244</ele>
        <time>2017-05-16T09:09:16Z</time>
      </trkpt>
      <trkpt lat="45.98386" lon="4.81672">
        <ele>243</ele>
        <time>2017-05-16T09:09:17Z</time>
      </trkpt>
      <trkpt lat="45.98391" lon="4.81671">
        <ele>243</ele>
        <time>2017-05-16T09:09:18Z</time>
      </trkpt>
      <trkpt lat="45.98396" lon="4.8167">
        <ele>243</ele>
        <time>2017-05-16T09:09:19Z</time>
      </trkpt>
      <trkpt lat="45.98401" lon="4.8167">
        <ele>243</ele>
        <time>2017-05-16T09:09:20Z</time>
      </trkpt>
      <trkpt lat="45.98406" lon="4.81668">
        <ele>242</ele>
        <time>2017-05-16T09:09:21Z</time>
      </trkpt>
      <trkpt lat="45.9841" lon="4.81667">
        <ele>241</ele>
        <time>2017-05-16T09:09:22Z</time>
      </trkpt>
      <trkpt lat="45.98415" lon="4.81666">
        <ele>241</ele>
        <time>2017-05-16T09:09:23Z</time>
      </trkpt>
      <trkpt lat="45.98423" lon="4.81667">
        <ele>241</ele>
        <time>2017-05-16T09:09:25Z</time>
      </trkpt>
      <trkpt lat="45.98427" lon="4.81668">
        <ele>240</ele>
        <time>2017-05-16T09:09:26Z</time>
      </trkpt>
      <trkpt lat="45.98435" lon="4.81674">
        <ele>240</ele>
        <time>2017-05-16T09:09:28Z</time>
      </trkpt>
      <trkpt lat="45.98439" lon="4.81678">
        <ele>240</ele>
        <time>2017-05-16T09:09:29Z</time>
      </trkpt>
      <trkpt lat="45.98443" lon="4.81682">
        <ele>239</ele>
        <time>2017-05-16T09:09:30Z</time>
      </trkpt>
      <trkpt lat="45.98446" lon="4.81687">
        <ele>239</ele>
        <time>2017-05-16T09:09:31Z</time>
      </trkpt>
      <trkpt lat="45.98449" lon="4.81692">
        <ele>239</ele>
        <time>2017-05-16T09:09:32Z</time>
      </trkpt>
      <trkpt lat="45.98451" lon="4.81698">
        <ele>239</ele>
        <time>2017-05-16T09:09:33Z</time>
      </trkpt>
      <trkpt lat="45.98454" lon="4.81704">
        <ele>239</ele>
        <time>2017-05-16T09:09:34Z</time>
      </trkpt>
      <trkpt lat="45.98458" lon="4.8171">
        <ele>239</ele>
        <time>2017-05-16T09:09:35Z</time>
      </trkpt>
      <trkpt lat="45.98462" lon="4.81715">
        <ele>239</ele>
        <time>2017-05-16T09:09:36Z</time>
      </trkpt>
      <trkpt lat="45.98466" lon="4.81722">
        <ele>239</ele>
        <time>2017-05-16T09:09:37Z</time>
      </trkpt>
      <trkpt lat="45.98471" lon="4.81728">
        <ele>239</ele>
        <time>2017-05-16T09:09:38Z</time>
      </trkpt>
      <trkpt lat="45.98477" lon="4.81734">
        <ele>238</ele>
        <time>2017-05-16T09:09:39Z</time>
      </trkpt>
      <trkpt lat="45.98482" lon="4.8174">
        <ele>238</ele>
        <time>2017-05-16T09:09:40Z</time>
      </trkpt>
      <trkpt lat="45.98488" lon="4.81746">
        <ele>238</ele>
        <time>2017-05-16T09:09:41Z</time>
      </trkpt>
      <trkpt lat="45.98495" lon="4.81752">
        <ele>238</ele>
        <time>2017-05-16T09:09:42Z</time>
      </trkpt>
      <trkpt lat="45.98501" lon="4.81759">
        <ele>237</ele>
        <time>2017-05-16T09:09:43Z</time>
      </trkpt>
      <trkpt lat="45.98507" lon="4.81766">
        <ele>237</ele>
        <time>2017-05-16T09:09:44Z</time>
      </trkpt>
      <trkpt lat="45.98513" lon="4.81774">
        <ele>238</ele>
        <time>2017-05-16T09:09:45Z</time>
      </trkpt>
      <trkpt lat="45.98518" lon="4.81783">
        <ele>238</ele>
        <time>2017-05-16T09:09:46Z</time>
      </trkpt>
      <trkpt lat="45.98524" lon="4.81791">
        <ele>238</ele>
        <time>2017-05-16T09:09:47Z</time>
      </trkpt>
      <trkpt lat="45.9853" lon="4.81799">
        <ele>238</ele>
        <time>2017-05-16T09:09:48Z</time>
      </trkpt>
      <trkpt lat="45.98535" lon="4.81806">
        <ele>238</ele>
        <time>2017-05-16T09:09:49Z</time>
      </trkpt>
      <trkpt lat="45.9854" lon="4.81811">
        <ele>238</ele>
        <time>2017-05-16T09:09:50Z</time>
      </trkpt>
      <trkpt lat="45.98546" lon="4.81813">
        <ele>238</ele>
        <time>2017-05-16T09:09:51Z</time>
      </trkpt>
      <trkpt lat="45.98552" lon="4.81813">
        <ele>238</ele>
        <time>2017-05-16T09:09:52Z</time>
      </trkpt>
      <trkpt lat="45.98558" lon="4.81809">
        <ele>238</ele>
        <time>2017-05-16T09:09:53Z</time>
      </trkpt>
      <trkpt lat="45.98563" lon="4.81804">
        <ele>238</ele>
        <time>2017-05-16T09:09:54Z</time>
      </trkpt>
      <trkpt lat="45.98567" lon="4.81799">
        <ele>238</ele>
        <time>2017-05-16T09:09:55Z</time>
      </trkpt>
      <trkpt lat="45.98571" lon="4.81793">
        <ele>238</ele>
        <time>2017-05-16T09:09:56Z</time>
      </trkpt>
      <trkpt lat="45.98576" lon="4.81788">
        <ele>238</ele>
        <time>2017-05-16T09:09:57Z</time>
      </trkpt>
      <trkpt lat="45.9858" lon="4.81784">
        <ele>238</ele>
        <time>2017-05-16T09:09:58Z</time>
      </trkpt>
      <trkpt lat="45.98584" lon="4.8178">
        <ele>238</ele>
        <time>2017-05-16T09:09:59Z</time>
      </trkpt>
      <trkpt lat="45.98589" lon="4.81776">
        <ele>238</ele>
        <time>2017-05-16T09:10:00Z</time>
      </trkpt>
      <trkpt lat="45.98593" lon="4.81774">
        <ele>238</ele>
        <time>2017-05-16T09:10:01Z</time>
      </trkpt>
      <trkpt lat="45.98598" lon="4.81771">
        <ele>238</ele>
        <time>2017-05-16T09:10:02Z</time>
      </trkpt>
      <trkpt lat="45.98603" lon="4.81769">
        <ele>238</ele>
        <time>2017-05-16T09:10:03Z</time>
      </trkpt>
      <trkpt lat="45.98608" lon="4.81768">
        <ele>238</ele>
        <time>2017-05-16T09:10:04Z</time>
      </trkpt>
      <trkpt lat="45.98614" lon="4.81766">
        <ele>238</ele>
        <time>2017-05-16T09:10:05Z</time>
      </trkpt>
      <trkpt lat="45.9862" lon="4.81764">
        <ele>238</ele>
        <time>2017-05-16T09:10:06Z</time>
      </trkpt>
      <trkpt lat="45.98626" lon="4.81762">
        <ele>238</ele>
        <time>2017-05-16T09:10:07Z</time>
      </trkpt>
      <trkpt lat="45.98632" lon="4.8176">
        <ele>238</ele>
        <time>2017-05-16T09:10:08Z</time>
      </trkpt>
      <trkpt lat="45.98638" lon="4.81758">
        <ele>238</ele>
        <time>2017-05-16T09:10:09Z</time>
      </trkpt>
      <trkpt lat="45.98644" lon="4.81756">
        <ele>238</ele>
        <time>2017-05-16T09:10:10Z</time>
      </trkpt>
      <trkpt lat="45.98649" lon="4.81754">
        <ele>238</ele>
        <time>2017-05-16T09:10:11Z</time>
      </trkpt>
      <trkpt lat="45.98655" lon="4.81752">
        <ele>238</ele>
        <time>2017-05-16T09:10:12Z</time>
      </trkpt>
      <trkpt lat="45.9866" lon="4.81751">
        <ele>238</ele>
        <time>2017-05-16T09:10:13Z</time>
      </trkpt>
      <trkpt lat="45.98665" lon="4.81749">
        <ele>238</ele>
        <time>2017-05-16T09:10:14Z</time>
      </trkpt>
      <trkpt lat="45.98671" lon="4.81747">
        <ele>238</ele>
        <time>2017-05-16T09:10:15Z</time>
      </trkpt>
      <trkpt lat="45.98675" lon="4.81745">
        <ele>238</ele>
        <time>2017-05-16T09:10:16Z</time>
      </trkpt>
      <trkpt lat="45.98681" lon="4.81744">
        <ele>238</ele>
        <time>2017-05-16T09:10:17Z</time>
      </trkpt>
      <trkpt lat="45.98685" lon="4.81743">
        <ele>238</ele>
        <time>2017-05-16T09:10:18Z</time>
      </trkpt>
      <trkpt lat="45.9869" lon="4.81742">
        <ele>238</ele>
        <time>2017-05-16T09:10:19Z</time>
      </trkpt>
      <trkpt lat="45.98694" lon="4.81741">
        <ele>239</ele>
        <time>2017-05-16T09:10:20Z</time>
      </trkpt>
      <trkpt lat="45.98699" lon="4.81739">
        <ele>239</ele>
        <time>2017-05-16T09:10:21Z</time>
      </trkpt>
      <trkpt lat="45.98704" lon="4.81737">
        <ele>239</ele>
        <time>2017-05-16T09:10:22Z</time>
      </trkpt>
      <trkpt lat="45.98709" lon="4.81734">
        <ele>239</ele>
        <time>2017-05-16T09:10:23Z</time>
      </trkpt>
      <trkpt lat="45.98715" lon="4.81734">
        <ele>239</ele>
        <time>2017-05-16T09:10:24Z</time>
      </trkpt>
      <trkpt lat="45.9872" lon="4.81734">
        <ele>239</ele>
        <time>2017-05-16T09:10:25Z</time>
      </trkpt>
      <trkpt lat="45.98728" lon="4.81739">
        <ele>239</ele>
        <time>2017-05-16T09:10:27Z</time>
      </trkpt>
      <trkpt lat="45.9873" lon="4.81744">
        <ele>240</ele>
        <time>2017-05-16T09:10:28Z</time>
      </trkpt>
      <trkpt lat="45.98734" lon="4.8175">
        <ele>240</ele>
        <time>2017-05-16T09:10:29Z</time>
      </trkpt>
      <trkpt lat="45.98737" lon="4.81756">
        <ele>240</ele>
        <time>2017-05-16T09:10:30Z</time>
      </trkpt>
      <trkpt lat="45.9874" lon="4.81762">
        <ele>240</ele>
        <time>2017-05-16T09:10:31Z</time>
      </trkpt>
      <trkpt lat="45.98743" lon="4.81768">
        <ele>240</ele>
        <time>2017-05-16T09:10:32Z</time>
      </trkpt>
      <trkpt lat="45.98747" lon="4.81775">
        <ele>240</ele>
        <time>2017-05-16T09:10:33Z</time>
      </trkpt>
      <trkpt lat="45.9875" lon="4.81781">
        <ele>241</ele>
        <time>2017-05-16T09:10:34Z</time>
      </trkpt>
      <trkpt lat="45.98754" lon="4.81788">
        <ele>241</ele>
        <time>2017-05-16T09:10:35Z</time>
      </trkpt>
      <trkpt lat="45.98757" lon="4.81795">
        <ele>240</ele>
        <time>2017-05-16T09:10:36Z</time>
      </trkpt>
      <trkpt lat="45.98761" lon="4.81802">
        <ele>240</ele>
        <time>2017-05-16T09:10:37Z</time>
      </trkpt>
      <trkpt lat="45.98764" lon="4.81809">
        <ele>240</ele>
        <time>2017-05-16T09:10:38Z</time>
      </trkpt>
      <trkpt lat="45.98768" lon="4.81816">
        <ele>240</ele>
        <time>2017-05-16T09:10:39Z</time>
      </trkpt>
      <trkpt lat="45.98771" lon="4.81824">
        <ele>240</ele>
        <time>2017-05-16T09:10:40Z</time>
      </trkpt>
      <trkpt lat="45.98774" lon="4.81831">
        <ele>240</ele>
        <time>2017-05-16T09:10:41Z</time>
      </trkpt>
      <trkpt lat="45.98778" lon="4.81839">
        <ele>239</ele>
        <time>2017-05-16T09:10:42Z</time>
      </trkpt>
      <trkpt lat="45.98782" lon="4.81846">
        <ele>239</ele>
        <time>2017-05-16T09:10:43Z</time>
      </trkpt>
      <trkpt lat="45.98785" lon="4.81854">
        <ele>239</ele>
        <time>2017-05-16T09:10:44Z</time>
      </trkpt>
      <trkpt lat="45.98789" lon="4.81862">
        <ele>239</ele>
        <time>2017-05-16T09:10:45Z</time>
      </trkpt>
      <trkpt lat="45.98792" lon="4.8187">
        <ele>239</ele>
        <time>2017-05-16T09:10:46Z</time>
      </trkpt>
      <trkpt lat="45.98795" lon="4.81878">
        <ele>239</ele>
        <time>2017-05-16T09:10:47Z</time>
      </trkpt>
      <trkpt lat="45.98798" lon="4.81887">
        <ele>239</ele>
        <time>2017-05-16T09:10:48Z</time>
      </trkpt>
      <trkpt lat="45.98799" lon="4.81896">
        <ele>239</ele>
        <time>2017-05-16T09:10:49Z</time>
      </trkpt>
      <trkpt lat="45.98801" lon="4.81904">
        <ele>239</ele>
        <time>2017-05-16T09:10:50Z</time>
      </trkpt>
      <trkpt lat="45.98802" lon="4.81913">
        <ele>239</ele>
        <time>2017-05-16T09:10:51Z</time>
      </trkpt>
      <trkpt lat="45.98803" lon="4.81921">
        <ele>239</ele>
        <time>2017-05-16T09:10:52Z</time>
      </trkpt>
      <trkpt lat="45.98804" lon="4.81929">
        <ele>239</ele>
        <time>2017-05-16T09:10:53Z</time>
      </trkpt>
      <trkpt lat="45.98806" lon="4.81936">
        <ele>239</ele>
        <time>2017-05-16T09:10:54Z</time>
      </trkpt>
      <trkpt lat="45.98807" lon="4.81944">
        <ele>239</ele>
        <time>2017-05-16T09:10:55Z</time>
      </trkpt>
      <trkpt lat="45.98808" lon="4.81951">
        <ele>239</ele>
        <time>2017-05-16T09:10:56Z</time>
      </trkpt>
      <trkpt lat="45.98809" lon="4.81958">
        <ele>239</ele>
        <time>2017-05-16T09:10:57Z</time>
      </trkpt>
      <trkpt lat="45.9881" lon="4.81966">
        <ele>239</ele>
        <time>2017-05-16T09:10:58Z</time>
      </trkpt>
      <trkpt lat="45.98811" lon="4.81973">
        <ele>239</ele>
        <time>2017-05-16T09:10:59Z</time>
      </trkpt>
      <trkpt lat="45.98812" lon="4.81981">
        <ele>239</ele>
        <time>2017-05-16T09:11:00Z</time>
      </trkpt>
      <trkpt lat="45.98813" lon="4.81989">
        <ele>238</ele>
        <time>2017-05-16T09:11:01Z</time>
      </trkpt>
      <trkpt lat="45.98814" lon="4.81997">
        <ele>238</ele>
        <time>2017-05-16T09:11:02Z</time>
      </trkpt>
      <trkpt lat="45.98816" lon="4.82004">
        <ele>238</ele>
        <time>2017-05-16T09:11:03Z</time>
      </trkpt>
      <trkpt lat="45.98817" lon="4.82011">
        <ele>238</ele>
        <time>2017-05-16T09:11:04Z</time>
      </trkpt>
      <trkpt lat="45.98818" lon="4.82018">
        <ele>238</ele>
        <time>2017-05-16T09:11:05Z</time>
      </trkpt>
      <trkpt lat="45.98819" lon="4.82025">
        <ele>238</ele>
        <time>2017-05-16T09:11:06Z</time>
      </trkpt>
      <trkpt lat="45.98819" lon="4.82033">
        <ele>238</ele>
        <time>2017-05-16T09:11:07Z</time>
      </trkpt>
      <trkpt lat="45.98821" lon="4.8204">
        <ele>238</ele>
        <time>2017-05-16T09:11:08Z</time>
      </trkpt>
      <trkpt lat="45.98822" lon="4.82049">
        <ele>238</ele>
        <time>2017-05-16T09:11:09Z</time>
      </trkpt>
      <trkpt lat="45.98824" lon="4.82057">
        <ele>237</ele>
        <time>2017-05-16T09:11:10Z</time>
      </trkpt>
      <trkpt lat="45.98826" lon="4.82066">
        <ele>237</ele>
        <time>2017-05-16T09:11:11Z</time>
      </trkpt>
      <trkpt lat="45.98827" lon="4.82075">
        <ele>237</ele>
        <time>2017-05-16T09:11:12Z</time>
      </trkpt>
      <trkpt lat="45.98829" lon="4.82084">
        <ele>236</ele>
        <time>2017-05-16T09:11:13Z</time>
      </trkpt>
      <trkpt lat="45.9883" lon="4.82093">
        <ele>237</ele>
        <time>2017-05-16T09:11:14Z</time>
      </trkpt>
      <trkpt lat="45.98833" lon="4.82103">
        <ele>237</ele>
        <time>2017-05-16T09:11:15Z</time>
      </trkpt>
      <trkpt lat="45.98835" lon="4.82112">
        <ele>236</ele>
        <time>2017-05-16T09:11:16Z</time>
      </trkpt>
      <trkpt lat="45.98836" lon="4.82121">
        <ele>236</ele>
        <time>2017-05-16T09:11:17Z</time>
      </trkpt>
      <trkpt lat="45.98838" lon="4.82129">
        <ele>236</ele>
        <time>2017-05-16T09:11:18Z</time>
      </trkpt>
      <trkpt lat="45.9884" lon="4.82138">
        <ele>236</ele>
        <time>2017-05-16T09:11:19Z</time>
      </trkpt>
      <trkpt lat="45.98842" lon="4.82146">
        <ele>236</ele>
        <time>2017-05-16T09:11:20Z</time>
      </trkpt>
      <trkpt lat="45.98844" lon="4.82154">
        <ele>236</ele>
        <time>2017-05-16T09:11:21Z</time>
      </trkpt>
      <trkpt lat="45.98845" lon="4.82162">
        <ele>236</ele>
        <time>2017-05-16T09:11:22Z</time>
      </trkpt>
      <trkpt lat="45.98847" lon="4.8217">
        <ele>236</ele>
        <time>2017-05-16T09:11:23Z</time>
      </trkpt>
      <trkpt lat="45.9885" lon="4.82177">
        <ele>236</ele>
        <time>2017-05-16T09:11:24Z</time>
      </trkpt>
      <trkpt lat="45.98853" lon="4.82184">
        <ele>236</ele>
        <time>2017-05-16T09:11:25Z</time>
      </trkpt>
      <trkpt lat="45.98855" lon="4.8219">
        <ele>236</ele>
        <time>2017-05-16T09:11:26Z</time>
      </trkpt>
      <trkpt lat="45.98857" lon="4.82197">
        <ele>236</ele>
        <time>2017-05-16T09:11:27Z</time>
      </trkpt>
      <trkpt lat="45.9886" lon="4.82203">
        <ele>236</ele>
        <time>2017-05-16T09:11:28Z</time>
      </trkpt>
      <trkpt lat="45.98863" lon="4.82209">
        <ele>236</ele>
        <time>2017-05-16T09:11:29Z</time>
      </trkpt>
      <trkpt lat="45.98866" lon="4.82215">
        <ele>236</ele>
        <time>2017-05-16T09:11:30Z</time>
      </trkpt>
      <trkpt lat="45.98869" lon="4.82221">
        <ele>236</ele>
        <time>2017-05-16T09:11:31Z</time>
      </trkpt>
      <trkpt lat="45.98871" lon="4.82228">
        <ele>236</ele>
        <time>2017-05-16T09:11:32Z</time>
      </trkpt>
      <trkpt lat="45.98874" lon="4.82234">
        <ele>236</ele>
        <time>2017-05-16T09:11:33Z</time>
      </trkpt>
      <trkpt lat="45.98877" lon="4.82241">
        <ele>236</ele>
        <time>2017-05-16T09:11:34Z</time>
      </trkpt>
      <trkpt lat="45.9888" lon="4.82247">
        <ele>236</ele>
        <time>2017-05-16T09:11:35Z</time>
      </trkpt>
      <trkpt lat="45.98883" lon="4.82254">
        <ele>236</ele>
        <time>2017-05-16T09:11:36Z</time>
      </trkpt>
      <trkpt lat="45.98886" lon="4.82261">
        <ele>236</ele>
        <time>2017-05-16T09:11:37Z</time>
      </trkpt>
      <trkpt lat="45.9889" lon="4.82267">
        <ele>236</ele>
        <time>2017-05-16T09:11:38Z</time>
      </trkpt>
      <trkpt lat="45.98893" lon="4.82274">
        <ele>236</ele>
        <time>2017-05-16T09:11:39Z</time>
      </trkpt>
      <trkpt lat="45.98897" lon="4.8228">
        <ele>236</ele>
        <time>2017-05-16T09:11:40Z</time>
      </trkpt>
      <trkpt lat="45.98901" lon="4.82286">
        <ele>236</ele>
        <time>2017-05-16T09:11:41Z</time>
      </trkpt>
      <trkpt lat="45.98905" lon="4.82291">
        <ele>237</ele>
        <time>2017-05-16T09:11:42Z</time>
      </trkpt>
      <trkpt lat="45.9891" lon="4.82296">
        <ele>237</ele>
        <time>2017-05-16T09:11:43Z</time>
      </trkpt>
      <trkpt lat="45.98915" lon="4.823">
        <ele>237</ele>
        <time>2017-05-16T09:11:44Z</time>
      </trkpt>
      <trkpt lat="45.98919" lon="4.82305">
        <ele>234</ele>
        <time>2017-05-16T09:11:45Z</time>
      </trkpt>
      <trkpt lat="45.98924" lon="4.8231">
        <ele>235</ele>
        <time>2017-05-16T09:11:46Z</time>
      </trkpt>
      <trkpt lat="45.98928" lon="4.82315">
        <ele>235</ele>
        <time>2017-05-16T09:11:47Z</time>
      </trkpt>
      <trkpt lat="45.98932" lon="4.82321">
        <ele>235</ele>
        <time>2017-05-16T09:11:48Z</time>
      </trkpt>
      <trkpt lat="45.98937" lon="4.82326">
        <ele>235</ele>
        <time>2017-05-16T09:11:49Z</time>
      </trkpt>
      <trkpt lat="45.98941" lon="4.82332">
        <ele>235</ele>
        <time>2017-05-16T09:11:50Z</time>
      </trkpt>
      <trkpt lat="45.98944" lon="4.82339">
        <ele>235</ele>
        <time>2017-05-16T09:11:51Z</time>
      </trkpt>
      <trkpt lat="45.98948" lon="4.82346">
        <ele>235</ele>
        <time>2017-05-16T09:11:52Z</time>
      </trkpt>
      <trkpt lat="45.98951" lon="4.82353">
        <ele>235</ele>
        <time>2017-05-16T09:11:53Z</time>
      </trkpt>
      <trkpt lat="45.98954" lon="4.8236">
        <ele>235</ele>
        <time>2017-05-16T09:11:54Z</time>
      </trkpt>
      <trkpt lat="45.98956" lon="4.82367">
        <ele>235</ele>
        <time>2017-05-16T09:11:55Z</time>
      </trkpt>
      <trkpt lat="45.98958" lon="4.82375">
        <ele>235</ele>
        <time>2017-05-16T09:11:56Z</time>
      </trkpt>
      <trkpt lat="45.9896" lon="4.82382">
        <ele>235</ele>
        <time>2017-05-16T09:11:57Z</time>
      </trkpt>
      <trkpt lat="45.98961" lon="4.82389">
        <ele>235</ele>
        <time>2017-05-16T09:11:58Z</time>
      </trkpt>
      <trkpt lat="45.98963" lon="4.82396">
        <ele>235</ele>
        <time>2017-05-16T09:11:59Z</time>
      </trkpt>
      <trkpt lat="45.98965" lon="4.82403">
        <ele>235</ele>
        <time>2017-05-16T09:12:00Z</time>
      </trkpt>
      <trkpt lat="45.98966" lon="4.8241">
        <ele>235</ele>
        <time>2017-05-16T09:12:01Z</time>
      </trkpt>
      <trkpt lat="45.98968" lon="4.82416">
        <ele>235</ele>
        <time>2017-05-16T09:12:02Z</time>
      </trkpt>
      <trkpt lat="45.9897" lon="4.82423">
        <ele>236</ele>
        <time>2017-05-16T09:12:03Z</time>
      </trkpt>
      <trkpt lat="45.98972" lon="4.82429">
        <ele>236</ele>
        <time>2017-05-16T09:12:04Z</time>
      </trkpt>
      <trkpt lat="45.98974" lon="4.82436">
        <ele>236</ele>
        <time>2017-05-16T09:12:05Z</time>
      </trkpt>
      <trkpt lat="45.98976" lon="4.82443">
        <ele>236</ele>
        <time>2017-05-16T09:12:06Z</time>
      </trkpt>
      <trkpt lat="45.98978" lon="4.8245">
        <ele>236</ele>
        <time>2017-05-16T09:12:07Z</time>
      </trkpt>
      <trkpt lat="45.9898" lon="4.82457">
        <ele>236</ele>
        <time>2017-05-16T09:12:08Z</time>
      </trkpt>
      <trkpt lat="45.98982" lon="4.82465">
        <ele>236</ele>
        <time>2017-05-16T09:12:09Z</time>
      </trkpt>
      <trkpt lat="45.98984" lon="4.82473">
        <ele>236</ele>
        <time>2017-05-16T09:12:10Z</time>
      </trkpt>
      <trkpt lat="45.98986" lon="4.82482">
        <ele>236</ele>
        <time>2017-05-16T09:12:11Z</time>
      </trkpt>
      <trkpt lat="45.98989" lon="4.82489">
        <ele>236</ele>
        <time>2017-05-16T09:12:12Z</time>
      </trkpt>
      <trkpt lat="45.98991" lon="4.82497">
        <ele>236</ele>
        <time>2017-05-16T09:12:13Z</time>
      </trkpt>
      <trkpt lat="45.98994" lon="4.82504">
        <ele>236</ele>
        <time>2017-05-16T09:12:14Z</time>
      </trkpt>
      <trkpt lat="45.98997" lon="4.8251">
        <ele>236</ele>
        <time>2017-05-16T09:12:15Z</time>
      </trkpt>
      <trkpt lat="45.99" lon="4.82516">
        <ele>235</ele>
        <time>2017-05-16T09:12:16Z</time>
      </trkpt>
      <trkpt lat="45.99003" lon="4.82522">
        <ele>235</ele>
        <time>2017-05-16T09:12:17Z</time>
      </trkpt>
      <trkpt lat="45.99006" lon="4.82528">
        <ele>235</ele>
        <time>2017-05-16T09:12:18Z</time>
      </trkpt>
      <trkpt lat="45.9901" lon="4.82534">
        <ele>235</ele>
        <time>2017-05-16T09:12:19Z</time>
      </trkpt>
      <trkpt lat="45.99013" lon="4.82539">
        <ele>235</ele>
        <time>2017-05-16T09:12:20Z</time>
      </trkpt>
      <trkpt lat="45.99017" lon="4.82543">
        <ele>235</ele>
        <time>2017-05-16T09:12:21Z</time>
      </trkpt>
      <trkpt lat="45.99021" lon="4.82548">
        <ele>235</ele>
        <time>2017-05-16T09:12:22Z</time>
      </trkpt>
      <trkpt lat="45.99025" lon="4.82552">
        <ele>235</ele>
        <time>2017-05-16T09:12:23Z</time>
      </trkpt>
      <trkpt lat="45.99029" lon="4.82556">
        <ele>235</ele>
        <time>2017-05-16T09:12:24Z</time>
      </trkpt>
      <trkpt lat="45.99033" lon="4.8256">
        <ele>235</ele>
        <time>2017-05-16T09:12:25Z</time>
      </trkpt>
      <trkpt lat="45.99038" lon="4.82563">
        <ele>235</ele>
        <time>2017-05-16T09:12:26Z</time>
      </trkpt>
      <trkpt lat="45.99043" lon="4.82566">
        <ele>235</ele>
        <time>2017-05-16T09:12:27Z</time>
      </trkpt>
      <trkpt lat="45.99049" lon="4.82569">
        <ele>235</ele>
        <time>2017-05-16T09:12:28Z</time>
      </trkpt>
      <trkpt lat="45.99054" lon="4.82571">
        <ele>235</ele>
        <time>2017-05-16T09:12:29Z</time>
      </trkpt>
      <trkpt lat="45.99059" lon="4.82573">
        <ele>235</ele>
        <time>2017-05-16T09:12:30Z</time>
      </trkpt>
      <trkpt lat="45.99064" lon="4.82575">
        <ele>235</ele>
        <time>2017-05-16T09:12:31Z</time>
      </trkpt>
      <trkpt lat="45.99068" lon="4.82577">
        <ele>235</ele>
        <time>2017-05-16T09:12:32Z</time>
      </trkpt>
      <trkpt lat="45.99073" lon="4.82586">
        <ele>235</ele>
        <time>2017-05-16T09:12:35Z</time>
      </trkpt>
      <trkpt lat="45.99073" lon="4.82591">
        <ele>235</ele>
        <time>2017-05-16T09:12:36Z</time>
      </trkpt>
      <trkpt lat="45.99069" lon="4.82601">
        <ele>235</ele>
        <time>2017-05-16T09:12:38Z</time>
      </trkpt>
      <trkpt lat="45.99067" lon="4.82605">
        <ele>236</ele>
        <time>2017-05-16T09:12:39Z</time>
      </trkpt>
      <trkpt lat="45.99062" lon="4.82613">
        <ele>236</ele>
        <time>2017-05-16T09:12:41Z</time>
      </trkpt>
      <trkpt lat="45.9906" lon="4.82618">
        <ele>236</ele>
        <time>2017-05-16T09:12:42Z</time>
      </trkpt>
      <trkpt lat="45.99057" lon="4.82629">
        <ele>236</ele>
        <time>2017-05-16T09:12:44Z</time>
      </trkpt>
      <trkpt lat="45.99055" lon="4.82633">
        <ele>236</ele>
        <time>2017-05-16T09:12:45Z</time>
      </trkpt>
      <trkpt lat="45.99051" lon="4.82642">
        <ele>236</ele>
        <time>2017-05-16T09:12:47Z</time>
      </trkpt>
      <trkpt lat="45.99048" lon="4.82646">
        <ele>236</ele>
        <time>2017-05-16T09:12:48Z</time>
      </trkpt>
      <trkpt lat="45.99044" lon="4.82655">
        <ele>236</ele>
        <time>2017-05-16T09:12:50Z</time>
      </trkpt>
      <trkpt lat="45.99042" lon="4.8266">
        <ele>236</ele>
        <time>2017-05-16T09:12:51Z</time>
      </trkpt>
      <trkpt lat="45.99038" lon="4.82668">
        <ele>238</ele>
        <time>2017-05-16T09:12:53Z</time>
      </trkpt>
      <trkpt lat="45.99036" lon="4.82672">
        <ele>238</ele>
        <time>2017-05-16T09:12:54Z</time>
      </trkpt>
      <trkpt lat="45.99032" lon="4.82682">
        <ele>238</ele>
        <time>2017-05-16T09:12:56Z</time>
      </trkpt>
      <trkpt lat="45.9903" lon="4.82686">
        <ele>238</ele>
        <time>2017-05-16T09:12:57Z</time>
      </trkpt>
      <trkpt lat="45.99027" lon="4.82695">
        <ele>238</ele>
        <time>2017-05-16T09:12:59Z</time>
      </trkpt>
      <trkpt lat="45.99024" lon="4.82699">
        <ele>238</ele>
        <time>2017-05-16T09:13:00Z</time>
      </trkpt>
      <trkpt lat="45.9902" lon="4.82709">
        <ele>238</ele>
        <time>2017-05-16T09:13:02Z</time>
      </trkpt>
      <trkpt lat="45.99017" lon="4.82713">
        <ele>239</ele>
        <time>2017-05-16T09:13:03Z</time>
      </trkpt>
      <trkpt lat="45.99013" lon="4.82722">
        <ele>239</ele>
        <time>2017-05-16T09:13:05Z</time>
      </trkpt>
      <trkpt lat="45.99012" lon="4.82727">
        <ele>239</ele>
        <time>2017-05-16T09:13:06Z</time>
      </trkpt>
      <trkpt lat="45.99007" lon="4.82736">
        <ele>240</ele>
        <time>2017-05-16T09:13:08Z</time>
      </trkpt>
      <trkpt lat="45.99005" lon="4.82741">
        <ele>240</ele>
        <time>2017-05-16T09:13:09Z</time>
      </trkpt>
      <trkpt lat="45.99002" lon="4.8275">
        <ele>241</ele>
        <time>2017-05-16T09:13:11Z</time>
      </trkpt>
      <trkpt lat="45.99" lon="4.82754">
        <ele>242</ele>
        <time>2017-05-16T09:13:12Z</time>
      </trkpt>
      <trkpt lat="45.98996" lon="4.82762">
        <ele>244</ele>
        <time>2017-05-16T09:13:14Z</time>
      </trkpt>
      <trkpt lat="45.98994" lon="4.82766">
        <ele>245</ele>
        <time>2017-05-16T09:13:15Z</time>
      </trkpt>
      <trkpt lat="45.9899" lon="4.82774">
        <ele>246</ele>
        <time>2017-05-16T09:13:17Z</time>
      </trkpt>
      <trkpt lat="45.98989" lon="4.82778">
        <ele>246</ele>
        <time>2017-05-16T09:13:18Z</time>
      </trkpt>
      <trkpt lat="45.98985" lon="4.82785">
        <ele>247</ele>
        <time>2017-05-16T09:13:20Z</time>
      </trkpt>
      <trkpt lat="45.98983" lon="4.82789">
        <ele>247</ele>
        <time>2017-05-16T09:13:21Z</time>
      </trkpt>
      <trkpt lat="45.98979" lon="4.828">
        <ele>248</ele>
        <time>2017-05-16T09:13:24Z</time>
      </trkpt>
      <trkpt lat="45.98978" lon="4.82803">
        <ele>248</ele>
        <time>2017-05-16T09:13:25Z</time>
      </trkpt>
      <trkpt lat="45.98973" lon="4.82812">
        <ele>248</ele>
        <time>2017-05-16T09:13:28Z</time>
      </trkpt>
      <trkpt lat="45.98972" lon="4.82815">
        <ele>249</ele>
        <time>2017-05-16T09:13:29Z</time>
      </trkpt>
      <trkpt lat="45.98968" lon="4.82823">
        <ele>249</ele>
        <time>2017-05-16T09:13:31Z</time>
      </trkpt>
      <trkpt lat="45.98967" lon="4.82827">
        <ele>249</ele>
        <time>2017-05-16T09:13:32Z</time>
      </trkpt>
      <trkpt lat="45.98963" lon="4.82836">
        <ele>252</ele>
        <time>2017-05-16T09:13:35Z</time>
      </trkpt>
      <trkpt lat="45.98961" lon="4.82839">
        <ele>252</ele>
        <time>2017-05-16T09:13:36Z</time>
      </trkpt>
      <trkpt lat="45.98957" lon="4.82849">
        <ele>252</ele>
        <time>2017-05-16T09:13:39Z</time>
      </trkpt>
      <trkpt lat="45.98956" lon="4.82852">
        <ele>252</ele>
        <time>2017-05-16T09:13:40Z</time>
      </trkpt>
      <trkpt lat="45.98952" lon="4.82863">
        <ele>252</ele>
        <time>2017-05-16T09:13:43Z</time>
      </trkpt>
      <trkpt lat="45.98951" lon="4.82867">
        <ele>253</ele>
        <time>2017-05-16T09:13:44Z</time>
      </trkpt>
      <trkpt lat="45.98946" lon="4.82876">
        <ele>253</ele>
        <time>2017-05-16T09:13:47Z</time>
      </trkpt>
      <trkpt lat="45.98945" lon="4.8288">
        <ele>253</ele>
        <time>2017-05-16T09:13:48Z</time>
      </trkpt>
      <trkpt lat="45.98942" lon="4.8289">
        <ele>253</ele>
        <time>2017-05-16T09:13:51Z</time>
      </trkpt>
      <trkpt lat="45.9894" lon="4.82892">
        <ele>253</ele>
        <time>2017-05-16T09:13:52Z</time>
      </trkpt>
      <trkpt lat="45.98936" lon="4.82902">
        <ele>254</ele>
        <time>2017-05-16T09:13:55Z</time>
      </trkpt>
      <trkpt lat="45.98934" lon="4.82905">
        <ele>254</ele>
        <time>2017-05-16T09:13:56Z</time>
      </trkpt>
      <trkpt lat="45.98931" lon="4.82915">
        <ele>254</ele>
        <time>2017-05-16T09:13:59Z</time>
      </trkpt>
      <trkpt lat="45.9893" lon="4.82917">
        <ele>255</ele>
        <time>2017-05-16T09:14:00Z</time>
      </trkpt>
      <trkpt lat="45.98925" lon="4.82925">
        <ele>255</ele>
        <time>2017-05-16T09:14:03Z</time>
      </trkpt>
      <trkpt lat="45.98924" lon="4.82928">
        <ele>255</ele>
        <time>2017-05-16T09:14:04Z</time>
      </trkpt>
      <trkpt lat="45.9892" lon="4.82936">
        <ele>255</ele>
        <time>2017-05-16T09:14:07Z</time>
      </trkpt>
      <trkpt lat="45.98919" lon="4.82939">
        <ele>255</ele>
        <time>2017-05-16T09:14:08Z</time>
      </trkpt>
      <trkpt lat="45.98915" lon="4.82949">
        <ele>258</ele>
        <time>2017-05-16T09:14:11Z</time>
      </trkpt>
      <trkpt lat="45.98914" lon="4.82952">
        <ele>258</ele>
        <time>2017-05-16T09:14:12Z</time>
      </trkpt>
      <trkpt lat="45.98907" lon="4.82959">
        <ele>259</ele>
        <time>2017-05-16T09:14:15Z</time>
      </trkpt>
      <trkpt lat="45.98906" lon="4.82962">
        <ele>259</ele>
        <time>2017-05-16T09:14:16Z</time>
      </trkpt>
      <trkpt lat="45.989" lon="4.82969">
        <ele>259</ele>
        <time>2017-05-16T09:14:19Z</time>
      </trkpt>
      <trkpt lat="45.98898" lon="4.82971">
        <ele>259</ele>
        <time>2017-05-16T09:14:20Z</time>
      </trkpt>
      <trkpt lat="45.98891" lon="4.82979">
        <ele>259</ele>
        <time>2017-05-16T09:14:23Z</time>
      </trkpt>
      <trkpt lat="45.98889" lon="4.82981">
        <ele>259</ele>
        <time>2017-05-16T09:14:24Z</time>
      </trkpt>
      <trkpt lat="45.98881" lon="4.82985">
        <ele>259</ele>
        <time>2017-05-16T09:14:27Z</time>
      </trkpt>
      <trkpt lat="45.98879" lon="4.82987">
        <ele>260</ele>
        <time>2017-05-16T09:14:28Z</time>
      </trkpt>
      <trkpt lat="45.98871" lon="4.82993">
        <ele>260</ele>
        <time>2017-05-16T09:14:31Z</time>
      </trkpt>
      <trkpt lat="45.9887" lon="4.82995">
        <ele>260</ele>
        <time>2017-05-16T09:14:32Z</time>
      </trkpt>
      <trkpt lat="45.98863" lon="4.83">
        <ele>260</ele>
        <time>2017-05-16T09:14:35Z</time>
      </trkpt>
      <trkpt lat="45.9886" lon="4.83002">
        <ele>261</ele>
        <time>2017-05-16T09:14:36Z</time>
      </trkpt>
      <trkpt lat="45.98854" lon="4.83006">
        <ele>261</ele>
        <time>2017-05-16T09:14:39Z</time>
      </trkpt>
      <trkpt lat="45.98852" lon="4.83007">
        <ele>261</ele>
        <time>2017-05-16T09:14:40Z</time>
      </trkpt>
      <trkpt lat="45.98844" lon="4.83012">
        <ele>261</ele>
        <time>2017-05-16T09:14:44Z</time>
      </trkpt>
      <trkpt lat="45.98842" lon="4.83014">
        <ele>261</ele>
        <time>2017-05-16T09:14:45Z</time>
      </trkpt>
      <trkpt lat="45.98835" lon="4.83019">
        <ele>261</ele>
        <time>2017-05-16T09:14:48Z</time>
      </trkpt>
      <trkpt lat="45.98833" lon="4.83021">
        <ele>264</ele>
        <time>2017-05-16T09:14:49Z</time>
      </trkpt>
      <trkpt lat="45.98825" lon="4.83025">
        <ele>264</ele>
        <time>2017-05-16T09:14:52Z</time>
      </trkpt>
      <trkpt lat="45.98822" lon="4.83026">
        <ele>264</ele>
        <time>2017-05-16T09:14:53Z</time>
      </trkpt>
      <trkpt lat="45.98815" lon="4.8303">
        <ele>264</ele>
        <time>2017-05-16T09:14:56Z</time>
      </trkpt>
      <trkpt lat="45.98813" lon="4.83031">
        <ele>264</ele>
        <time>2017-05-16T09:14:57Z</time>
      </trkpt>
      <trkpt lat="45.98807" lon="4.83036">
        <ele>264</ele>
        <time>2017-05-16T09:15:00Z</time>
      </trkpt>
      <trkpt lat="45.98805" lon="4.83038">
        <ele>264</ele>
        <time>2017-05-16T09:15:01Z</time>
      </trkpt>
      <trkpt lat="45.988" lon="4.83043">
        <ele>264</ele>
        <time>2017-05-16T09:15:03Z</time>
      </trkpt>
      <trkpt lat="45.98797" lon="4.83045">
        <ele>265</ele>
        <time>2017-05-16T09:15:04Z</time>
      </trkpt>
      <trkpt lat="45.9879" lon="4.83052">
        <ele>265</ele>
        <time>2017-05-16T09:15:07Z</time>
      </trkpt>
      <trkpt lat="45.98788" lon="4.83053">
        <ele>265</ele>
        <time>2017-05-16T09:15:08Z</time>
      </trkpt>
      <trkpt lat="45.98782" lon="4.83059">
        <ele>265</ele>
        <time>2017-05-16T09:15:11Z</time>
      </trkpt>
      <trkpt lat="45.98779" lon="4.83062">
        <ele>265</ele>
        <time>2017-05-16T09:15:12Z</time>
      </trkpt>
      <trkpt lat="45.98773" lon="4.83068">
        <ele>265</ele>
        <time>2017-05-16T09:15:15Z</time>
      </trkpt>
      <trkpt lat="45.9877" lon="4.8307">
        <ele>265</ele>
        <time>2017-05-16T09:15:16Z</time>
      </trkpt>
      <trkpt lat="45.98764" lon="4.83076">
        <ele>266</ele>
        <time>2017-05-16T09:15:19Z</time>
      </trkpt>
      <trkpt lat="45.98762" lon="4.83078">
        <ele>266</ele>
        <time>2017-05-16T09:15:20Z</time>
      </trkpt>
      <trkpt lat="45.98755" lon="4.83086">
        <ele>266</ele>
        <time>2017-05-16T09:15:23Z</time>
      </trkpt>
      <trkpt lat="45.98752" lon="4.83088">
        <ele>266</ele>
        <time>2017-05-16T09:15:24Z</time>
      </trkpt>
      <trkpt lat="45.98745" lon="4.83094">
        <ele>267</ele>
        <time>2017-05-16T09:15:27Z</time>
      </trkpt>
      <trkpt lat="45.98742" lon="4.83096">
        <ele>267</ele>
        <time>2017-05-16T09:15:28Z</time>
      </trkpt>
      <trkpt lat="45.98736" lon="4.83103">
        <ele>267</ele>
        <time>2017-05-16T09:15:31Z</time>
      </trkpt>
      <trkpt lat="45.98733" lon="4.83105">
        <ele>267</ele>
        <time>2017-05-16T09:15:32Z</time>
      </trkpt>
      <trkpt lat="45.98726" lon="4.83111">
        <ele>267</ele>
        <time>2017-05-16T09:15:34Z</time>
      </trkpt>
      <trkpt lat="45.98723" lon="4.83114">
        <ele>267</ele>
        <time>2017-05-16T09:15:35Z</time>
      </trkpt>
      <trkpt lat="45.98718" lon="4.83119">
        <ele>267</ele>
        <time>2017-05-16T09:15:37Z</time>
      </trkpt>
      <trkpt lat="45.98715" lon="4.83121">
        <ele>267</ele>
        <time>2017-05-16T09:15:38Z</time>
      </trkpt>
      <trkpt lat="45.9871" lon="4.83125">
        <ele>266</ele>
        <time>2017-05-16T09:15:40Z</time>
      </trkpt>
      <trkpt lat="45.98707" lon="4.83127">
        <ele>266</ele>
        <time>2017-05-16T09:15:41Z</time>
      </trkpt>
      <trkpt lat="45.98701" lon="4.83132">
        <ele>266</ele>
        <time>2017-05-16T09:15:43Z</time>
      </trkpt>
      <trkpt lat="45.98698" lon="4.83135">
        <ele>266</ele>
        <time>2017-05-16T09:15:44Z</time>
      </trkpt>
      <trkpt lat="45.98692" lon="4.8314">
        <ele>266</ele>
        <time>2017-05-16T09:15:46Z</time>
      </trkpt>
      <trkpt lat="45.98689" lon="4.83142">
        <ele>266</ele>
        <time>2017-05-16T09:15:47Z</time>
      </trkpt>
      <trkpt lat="45.98684" lon="4.83147">
        <ele>266</ele>
        <time>2017-05-16T09:15:49Z</time>
      </trkpt>
      <trkpt lat="45.98681" lon="4.83149">
        <ele>266</ele>
        <time>2017-05-16T09:15:50Z</time>
      </trkpt>
      <trkpt lat="45.98675" lon="4.83153">
        <ele>266</ele>
        <time>2017-05-16T09:15:52Z</time>
      </trkpt>
      <trkpt lat="45.98672" lon="4.83154">
        <ele>266</ele>
        <time>2017-05-16T09:15:53Z</time>
      </trkpt>
      <trkpt lat="45.98666" lon="4.83158">
        <ele>267</ele>
        <time>2017-05-16T09:15:55Z</time>
      </trkpt>
      <trkpt lat="45.98663" lon="4.8316">
        <ele>266</ele>
        <time>2017-05-16T09:15:56Z</time>
      </trkpt>
      <trkpt lat="45.98657" lon="4.83165">
        <ele>267</ele>
        <time>2017-05-16T09:15:58Z</time>
      </trkpt>
      <trkpt lat="45.98654" lon="4.83167">
        <ele>267</ele>
        <time>2017-05-16T09:15:59Z</time>
      </trkpt>
      <trkpt lat="45.98648" lon="4.83172">
        <ele>267</ele>
        <time>2017-05-16T09:16:01Z</time>
      </trkpt>
      <trkpt lat="45.98645" lon="4.83175">
        <ele>267</ele>
        <time>2017-05-16T09:16:02Z</time>
      </trkpt>
      <trkpt lat="45.98639" lon="4.83181">
        <ele>267</ele>
        <time>2017-05-16T09:16:04Z</time>
      </trkpt>
      <trkpt lat="45.98637" lon="4.83183">
        <ele>267</ele>
        <time>2017-05-16T09:16:05Z</time>
      </trkpt>
      <trkpt lat="45.98631" lon="4.83189">
        <ele>267</ele>
        <time>2017-05-16T09:16:07Z</time>
      </trkpt>
      <trkpt lat="45.98629" lon="4.83191">
        <ele>267</ele>
        <time>2017-05-16T09:16:08Z</time>
      </trkpt>
      <trkpt lat="45.98623" lon="4.83196">
        <ele>267</ele>
        <time>2017-05-16T09:16:10Z</time>
      </trkpt>
      <trkpt lat="45.9862" lon="4.83199">
        <ele>267</ele>
        <time>2017-05-16T09:16:11Z</time>
      </trkpt>
      <trkpt lat="45.98615" lon="4.83206">
        <ele>267</ele>
        <time>2017-05-16T09:16:13Z</time>
      </trkpt>
      <trkpt lat="45.98613" lon="4.83209">
        <ele>267</ele>
        <time>2017-05-16T09:16:14Z</time>
      </trkpt>
      <trkpt lat="45.98607" lon="4.83216">
        <ele>267</ele>
        <time>2017-05-16T09:16:16Z</time>
      </trkpt>
      <trkpt lat="45.98604" lon="4.83219">
        <ele>267</ele>
        <time>2017-05-16T09:16:17Z</time>
      </trkpt>
      <trkpt lat="45.98599" lon="4.83226">
        <ele>268</ele>
        <time>2017-05-16T09:16:19Z</time>
      </trkpt>
      <trkpt lat="45.98597" lon="4.83229">
        <ele>268</ele>
        <time>2017-05-16T09:16:20Z</time>
      </trkpt>
      <trkpt lat="45.98593" lon="4.83235">
        <ele>268</ele>
        <time>2017-05-16T09:16:22Z</time>
      </trkpt>
      <trkpt lat="45.9859" lon="4.83238">
        <ele>268</ele>
        <time>2017-05-16T09:16:23Z</time>
      </trkpt>
      <trkpt lat="45.98584" lon="4.83247">
        <ele>268</ele>
        <time>2017-05-16T09:16:25Z</time>
      </trkpt>
      <trkpt lat="45.98581" lon="4.83251">
        <ele>268</ele>
        <time>2017-05-16T09:16:26Z</time>
      </trkpt>
      <trkpt lat="45.98575" lon="4.83259">
        <ele>269</ele>
        <time>2017-05-16T09:16:28Z</time>
      </trkpt>
      <trkpt lat="45.98572" lon="4.83263">
        <ele>269</ele>
        <time>2017-05-16T09:16:29Z</time>
      </trkpt>
      <trkpt lat="45.98566" lon="4.83272">
        <ele>269</ele>
        <time>2017-05-16T09:16:31Z</time>
      </trkpt>
      <trkpt lat="45.98564" lon="4.83276">
        <ele>269</ele>
        <time>2017-05-16T09:16:32Z</time>
      </trkpt>
      <trkpt lat="45.98558" lon="4.83283">
        <ele>269</ele>
        <time>2017-05-16T09:16:34Z</time>
      </trkpt>
      <trkpt lat="45.98556" lon="4.83286">
        <ele>269</ele>
        <time>2017-05-16T09:16:35Z</time>
      </trkpt>
      <trkpt lat="45.9855" lon="4.83293">
        <ele>269</ele>
        <time>2017-05-16T09:16:37Z</time>
      </trkpt>
      <trkpt lat="45.98547" lon="4.83296">
        <ele>269</ele>
        <time>2017-05-16T09:16:38Z</time>
      </trkpt>
      <trkpt lat="45.98542" lon="4.83305">
        <ele>269</ele>
        <time>2017-05-16T09:16:40Z</time>
      </trkpt>
      <trkpt lat="45.98539" lon="4.8331">
        <ele>269</ele>
        <time>2017-05-16T09:16:41Z</time>
      </trkpt>
      <trkpt lat="45.98533" lon="4.83318">
        <ele>269</ele>
        <time>2017-05-16T09:16:43Z</time>
      </trkpt>
      <trkpt lat="45.9853" lon="4.83323">
        <ele>269</ele>
        <time>2017-05-16T09:16:44Z</time>
      </trkpt>
      <trkpt lat="45.98523" lon="4.8333">
        <ele>270</ele>
        <time>2017-05-16T09:16:46Z</time>
      </trkpt>
      <trkpt lat="45.9852" lon="4.83334">
        <ele>270</ele>
        <time>2017-05-16T09:16:47Z</time>
      </trkpt>
      <trkpt lat="45.98514" lon="4.83343">
        <ele>270</ele>
        <time>2017-05-16T09:16:49Z</time>
      </trkpt>
      <trkpt lat="45.9851" lon="4.83348">
        <ele>270</ele>
        <time>2017-05-16T09:16:50Z</time>
      </trkpt>
      <trkpt lat="45.98507" lon="4.83352">
        <ele>270</ele>
        <time>2017-05-16T09:16:51Z</time>
      </trkpt>
      <trkpt lat="45.98503" lon="4.83356">
        <ele>270</ele>
        <time>2017-05-16T09:16:52Z</time>
      </trkpt>
      <trkpt lat="45.985" lon="4.83361">
        <ele>270</ele>
        <time>2017-05-16T09:16:53Z</time>
      </trkpt>
      <trkpt lat="45.98496" lon="4.83366">
        <ele>270</ele>
        <time>2017-05-16T09:16:54Z</time>
      </trkpt>
      <trkpt lat="45.98492" lon="4.83371">
        <ele>270</ele>
        <time>2017-05-16T09:16:55Z</time>
      </trkpt>
      <trkpt lat="45.98489" lon="4.83377">
        <ele>269</ele>
        <time>2017-05-16T09:16:56Z</time>
      </trkpt>
      <trkpt lat="45.98485" lon="4.83382">
        <ele>269</ele>
        <time>2017-05-16T09:16:57Z</time>
      </trkpt>
      <trkpt lat="45.98481" lon="4.83388">
        <ele>269</ele>
        <time>2017-05-16T09:16:58Z</time>
      </trkpt>
      <trkpt lat="45.98477" lon="4.83393">
        <ele>269</ele>
        <time>2017-05-16T09:16:59Z</time>
      </trkpt>
      <trkpt lat="45.98474" lon="4.83399">
        <ele>269</ele>
        <time>2017-05-16T09:17:00Z</time>
      </trkpt>
      <trkpt lat="45.9847" lon="4.83404">
        <ele>269</ele>
        <time>2017-05-16T09:17:01Z</time>
      </trkpt>
      <trkpt lat="45.98466" lon="4.83409">
        <ele>269</ele>
        <time>2017-05-16T09:17:02Z</time>
      </trkpt>
      <trkpt lat="45.98463" lon="4.83413">
        <ele>269</ele>
        <time>2017-05-16T09:17:03Z</time>
      </trkpt>
      <trkpt lat="45.98459" lon="4.83417">
        <ele>269</ele>
        <time>2017-05-16T09:17:04Z</time>
      </trkpt>
      <trkpt lat="45.98453" lon="4.83425">
        <ele>269</ele>
        <time>2017-05-16T09:17:06Z</time>
      </trkpt>
      <trkpt lat="45.98449" lon="4.83429">
        <ele>269</ele>
        <time>2017-05-16T09:17:07Z</time>
      </trkpt>
      <trkpt lat="45.98445" lon="4.83434">
        <ele>268</ele>
        <time>2017-05-16T09:17:08Z</time>
      </trkpt>
      <trkpt lat="45.98442" lon="4.83439">
        <ele>268</ele>
        <time>2017-05-16T09:17:09Z</time>
      </trkpt>
      <trkpt lat="45.98438" lon="4.83444">
        <ele>268</ele>
        <time>2017-05-16T09:17:10Z</time>
      </trkpt>
      <trkpt lat="45.98434" lon="4.83449">
        <ele>268</ele>
        <time>2017-05-16T09:17:11Z</time>
      </trkpt>
      <trkpt lat="45.9843" lon="4.83455">
        <ele>268</ele>
        <time>2017-05-16T09:17:12Z</time>
      </trkpt>
      <trkpt lat="45.98427" lon="4.8346">
        <ele>268</ele>
        <time>2017-05-16T09:17:13Z</time>
      </trkpt>
      <trkpt lat="45.98423" lon="4.83465">
        <ele>268</ele>
        <time>2017-05-16T09:17:14Z</time>
      </trkpt>
      <trkpt lat="45.9842" lon="4.83469">
        <ele>268</ele>
        <time>2017-05-16T09:17:15Z</time>
      </trkpt>
      <trkpt lat="45.98414" lon="4.83479">
        <ele>269</ele>
        <time>2017-05-16T09:17:17Z</time>
      </trkpt>
      <trkpt lat="45.98411" lon="4.83483">
        <ele>269</ele>
        <time>2017-05-16T09:17:18Z</time>
      </trkpt>
      <trkpt lat="45.98406" lon="4.83488">
        <ele>269</ele>
        <time>2017-05-16T09:17:19Z</time>
      </trkpt>
      <trkpt lat="45.98402" lon="4.83494">
        <ele>269</ele>
        <time>2017-05-16T09:17:20Z</time>
      </trkpt>
      <trkpt lat="45.98398" lon="4.83501">
        <ele>269</ele>
        <time>2017-05-16T09:17:21Z</time>
      </trkpt>
      <trkpt lat="45.98394" lon="4.83507">
        <ele>269</ele>
        <time>2017-05-16T09:17:22Z</time>
      </trkpt>
      <trkpt lat="45.98389" lon="4.83513">
        <ele>269</ele>
        <time>2017-05-16T09:17:23Z</time>
      </trkpt>
      <trkpt lat="45.98385" lon="4.83518">
        <ele>269</ele>
        <time>2017-05-16T09:17:24Z</time>
      </trkpt>
      <trkpt lat="45.98382" lon="4.83523">
        <ele>269</ele>
        <time>2017-05-16T09:17:25Z</time>
      </trkpt>
      <trkpt lat="45.98378" lon="4.83528">
        <ele>269</ele>
        <time>2017-05-16T09:17:26Z</time>
      </trkpt>
      <trkpt lat="45.98374" lon="4.83533">
        <ele>269</ele>
        <time>2017-05-16T09:17:27Z</time>
      </trkpt>
      <trkpt lat="45.98371" lon="4.83538">
        <ele>269</ele>
        <time>2017-05-16T09:17:28Z</time>
      </trkpt>
      <trkpt lat="45.98367" lon="4.83543">
        <ele>269</ele>
        <time>2017-05-16T09:17:29Z</time>
      </trkpt>
      <trkpt lat="45.98363" lon="4.83549">
        <ele>269</ele>
        <time>2017-05-16T09:17:30Z</time>
      </trkpt>
      <trkpt lat="45.98359" lon="4.83554">
        <ele>269</ele>
        <time>2017-05-16T09:17:31Z</time>
      </trkpt>
      <trkpt lat="45.98355" lon="4.8356">
        <ele>269</ele>
        <time>2017-05-16T09:17:32Z</time>
      </trkpt>
      <trkpt lat="45.98351" lon="4.83565">
        <ele>269</ele>
        <time>2017-05-16T09:17:33Z</time>
      </trkpt>
      <trkpt lat="45.98347" lon="4.8357">
        <ele>269</ele>
        <time>2017-05-16T09:17:34Z</time>
      </trkpt>
      <trkpt lat="45.98343" lon="4.83575">
        <ele>270</ele>
        <time>2017-05-16T09:17:35Z</time>
      </trkpt>
      <trkpt lat="45.9834" lon="4.83579">
        <ele>270</ele>
        <time>2017-05-16T09:17:36Z</time>
      </trkpt>
      <trkpt lat="45.98336" lon="4.83584">
        <ele>270</ele>
        <time>2017-05-16T09:17:37Z</time>
      </trkpt>
      <trkpt lat="45.98333" lon="4.83589">
        <ele>270</ele>
        <time>2017-05-16T09:17:38Z</time>
      </trkpt>
      <trkpt lat="45.9833" lon="4.83594">
        <ele>270</ele>
        <time>2017-05-16T09:17:39Z</time>
      </trkpt>
      <trkpt lat="45.98326" lon="4.83599">
        <ele>271</ele>
        <time>2017-05-16T09:17:40Z</time>
      </trkpt>
      <trkpt lat="45.98323" lon="4.83603">
        <ele>271</ele>
        <time>2017-05-16T09:17:41Z</time>
      </trkpt>
      <trkpt lat="45.98319" lon="4.83609">
        <ele>271</ele>
        <time>2017-05-16T09:17:42Z</time>
      </trkpt>
      <trkpt lat="45.98316" lon="4.83614">
        <ele>271</ele>
        <time>2017-05-16T09:17:43Z</time>
      </trkpt>
      <trkpt lat="45.98312" lon="4.8362">
        <ele>271</ele>
        <time>2017-05-16T09:17:44Z</time>
      </trkpt>
      <trkpt lat="45.98309" lon="4.83627">
        <ele>271</ele>
        <time>2017-05-16T09:17:45Z</time>
      </trkpt>
      <trkpt lat="45.98305" lon="4.83633">
        <ele>271</ele>
        <time>2017-05-16T09:17:46Z</time>
      </trkpt>
      <trkpt lat="45.98302" lon="4.8364">
        <ele>271</ele>
        <time>2017-05-16T09:17:47Z</time>
      </trkpt>
      <trkpt lat="45.98299" lon="4.83647">
        <ele>271</ele>
        <time>2017-05-16T09:17:48Z</time>
      </trkpt>
      <trkpt lat="45.98296" lon="4.83654">
        <ele>271</ele>
        <time>2017-05-16T09:17:49Z</time>
      </trkpt>
      <trkpt lat="45.98294" lon="4.8366">
        <ele>271</ele>
        <time>2017-05-16T09:17:50Z</time>
      </trkpt>
      <trkpt lat="45.98291" lon="4.83666">
        <ele>272</ele>
        <time>2017-05-16T09:17:51Z</time>
      </trkpt>
      <trkpt lat="45.98289" lon="4.83672">
        <ele>272</ele>
        <time>2017-05-16T09:17:52Z</time>
      </trkpt>
      <trkpt lat="45.98287" lon="4.83678">
        <ele>272</ele>
        <time>2017-05-16T09:17:53Z</time>
      </trkpt>
      <trkpt lat="45.98285" lon="4.83684">
        <ele>272</ele>
        <time>2017-05-16T09:17:54Z</time>
      </trkpt>
      <trkpt lat="45.9828" lon="4.83695">
        <ele>272</ele>
        <time>2017-05-16T09:17:56Z</time>
      </trkpt>
      <trkpt lat="45.98278" lon="4.837">
        <ele>272</ele>
        <time>2017-05-16T09:17:57Z</time>
      </trkpt>
      <trkpt lat="45.98274" lon="4.83711">
        <ele>272</ele>
        <time>2017-05-16T09:17:59Z</time>
      </trkpt>
      <trkpt lat="45.98273" lon="4.83716">
        <ele>272</ele>
        <time>2017-05-16T09:18:00Z</time>
      </trkpt>
      <trkpt lat="45.98269" lon="4.83726">
        <ele>272</ele>
        <time>2017-05-16T09:18:02Z</time>
      </trkpt>
      <trkpt lat="45.98267" lon="4.83731">
        <ele>272</ele>
        <time>2017-05-16T09:18:03Z</time>
      </trkpt>
      <trkpt lat="45.98263" lon="4.83742">
        <ele>272</ele>
        <time>2017-05-16T09:18:05Z</time>
      </trkpt>
      <trkpt lat="45.98261" lon="4.83748">
        <ele>272</ele>
        <time>2017-05-16T09:18:06Z</time>
      </trkpt>
      <trkpt lat="45.98257" lon="4.83759">
        <ele>272</ele>
        <time>2017-05-16T09:18:08Z</time>
      </trkpt>
      <trkpt lat="45.98254" lon="4.83766">
        <ele>272</ele>
        <time>2017-05-16T09:18:09Z</time>
      </trkpt>
      <trkpt lat="45.98252" lon="4.83773">
        <ele>272</ele>
        <time>2017-05-16T09:18:10Z</time>
      </trkpt>
      <trkpt lat="45.98249" lon="4.8378">
        <ele>272</ele>
        <time>2017-05-16T09:18:11Z</time>
      </trkpt>
      <trkpt lat="45.98247" lon="4.83787">
        <ele>272</ele>
        <time>2017-05-16T09:18:12Z</time>
      </trkpt>
      <trkpt lat="45.98244" lon="4.83794">
        <ele>272</ele>
        <time>2017-05-16T09:18:13Z</time>
      </trkpt>
      <trkpt lat="45.98242" lon="4.838">
        <ele>272</ele>
        <time>2017-05-16T09:18:14Z</time>
      </trkpt>
      <trkpt lat="45.9824" lon="4.83807">
        <ele>272</ele>
        <time>2017-05-16T09:18:15Z</time>
      </trkpt>
      <trkpt lat="45.98238" lon="4.83813">
        <ele>272</ele>
        <time>2017-05-16T09:18:16Z</time>
      </trkpt>
      <trkpt lat="45.98237" lon="4.83819">
        <ele>272</ele>
        <time>2017-05-16T09:18:17Z</time>
      </trkpt>
      <trkpt lat="45.98233" lon="4.8383">
        <ele>272</ele>
        <time>2017-05-16T09:18:19Z</time>
      </trkpt>
      <trkpt lat="45.98231" lon="4.83835">
        <ele>272</ele>
        <time>2017-05-16T09:18:20Z</time>
      </trkpt>
      <trkpt lat="45.98227" lon="4.83846">
        <ele>272</ele>
        <time>2017-05-16T09:18:22Z</time>
      </trkpt>
      <trkpt lat="45.98225" lon="4.83852">
        <ele>272</ele>
        <time>2017-05-16T09:18:23Z</time>
      </trkpt>
      <trkpt lat="45.98223" lon="4.83859">
        <ele>272</ele>
        <time>2017-05-16T09:18:24Z</time>
      </trkpt>
      <trkpt lat="45.9822" lon="4.83866">
        <ele>272</ele>
        <time>2017-05-16T09:18:25Z</time>
      </trkpt>
      <trkpt lat="45.98218" lon="4.83873">
        <ele>272</ele>
        <time>2017-05-16T09:18:26Z</time>
      </trkpt>
      <trkpt lat="45.98216" lon="4.83881">
        <ele>272</ele>
        <time>2017-05-16T09:18:27Z</time>
      </trkpt>
      <trkpt lat="45.98213" lon="4.83887">
        <ele>273</ele>
        <time>2017-05-16T09:18:28Z</time>
      </trkpt>
      <trkpt lat="45.98211" lon="4.83894">
        <ele>273</ele>
        <time>2017-05-16T09:18:29Z</time>
      </trkpt>
      <trkpt lat="45.9821" lon="4.839">
        <ele>273</ele>
        <time>2017-05-16T09:18:30Z</time>
      </trkpt>
      <trkpt lat="45.98208" lon="4.83906">
        <ele>273</ele>
        <time>2017-05-16T09:18:31Z</time>
      </trkpt>
      <trkpt lat="45.98204" lon="4.83917">
        <ele>273</ele>
        <time>2017-05-16T09:18:33Z</time>
      </trkpt>
      <trkpt lat="45.98202" lon="4.83921">
        <ele>273</ele>
        <time>2017-05-16T09:18:34Z</time>
      </trkpt>
      <trkpt lat="45.98199" lon="4.83931">
        <ele>273</ele>
        <time>2017-05-16T09:18:36Z</time>
      </trkpt>
      <trkpt lat="45.98198" lon="4.83936">
        <ele>273</ele>
        <time>2017-05-16T09:18:37Z</time>
      </trkpt>
      <trkpt lat="45.98195" lon="4.83941">
        <ele>273</ele>
        <time>2017-05-16T09:18:38Z</time>
      </trkpt>
      <trkpt lat="45.98193" lon="4.83947">
        <ele>273</ele>
        <time>2017-05-16T09:18:39Z</time>
      </trkpt>
      <trkpt lat="45.98189" lon="4.83959">
        <ele>273</ele>
        <time>2017-05-16T09:18:41Z</time>
      </trkpt>
      <trkpt lat="45.98188" lon="4.83964">
        <ele>273</ele>
        <time>2017-05-16T09:18:42Z</time>
      </trkpt>
      <trkpt lat="45.98183" lon="4.83976">
        <ele>273</ele>
        <time>2017-05-16T09:18:44Z</time>
      </trkpt>
      <trkpt lat="45.98181" lon="4.83981">
        <ele>273</ele>
        <time>2017-05-16T09:18:45Z</time>
      </trkpt>
      <trkpt lat="45.98178" lon="4.83986">
        <ele>273</ele>
        <time>2017-05-16T09:18:46Z</time>
      </trkpt>
      <trkpt lat="45.98176" lon="4.83992">
        <ele>273</ele>
        <time>2017-05-16T09:18:47Z</time>
      </trkpt>
      <trkpt lat="45.98173" lon="4.83997">
        <ele>273</ele>
        <time>2017-05-16T09:18:48Z</time>
      </trkpt>
      <trkpt lat="45.9817" lon="4.84003">
        <ele>273</ele>
        <time>2017-05-16T09:18:49Z</time>
      </trkpt>
      <trkpt lat="45.98168" lon="4.84008">
        <ele>273</ele>
        <time>2017-05-16T09:18:50Z</time>
      </trkpt>
      <trkpt lat="45.98165" lon="4.84013">
        <ele>273</ele>
        <time>2017-05-16T09:18:51Z</time>
      </trkpt>
      <trkpt lat="45.98162" lon="4.84019">
        <ele>273</ele>
        <time>2017-05-16T09:18:52Z</time>
      </trkpt>
      <trkpt lat="45.98159" lon="4.84024">
        <ele>273</ele>
        <time>2017-05-16T09:18:53Z</time>
      </trkpt>
      <trkpt lat="45.98154" lon="4.84033">
        <ele>273</ele>
        <time>2017-05-16T09:18:55Z</time>
      </trkpt>
      <trkpt lat="45.98152" lon="4.84037">
        <ele>273</ele>
        <time>2017-05-16T09:18:56Z</time>
      </trkpt>
      <trkpt lat="45.98149" lon="4.84041">
        <ele>273</ele>
        <time>2017-05-16T09:18:57Z</time>
      </trkpt>
      <trkpt lat="45.98145" lon="4.84046">
        <ele>273</ele>
        <time>2017-05-16T09:18:58Z</time>
      </trkpt>
      <trkpt lat="45.98141" lon="4.84052">
        <ele>273</ele>
        <time>2017-05-16T09:18:59Z</time>
      </trkpt>
      <trkpt lat="45.98138" lon="4.84057">
        <ele>273</ele>
        <time>2017-05-16T09:19:00Z</time>
      </trkpt>
      <trkpt lat="45.98134" lon="4.84062">
        <ele>273</ele>
        <time>2017-05-16T09:19:01Z</time>
      </trkpt>
      <trkpt lat="45.9813" lon="4.84067">
        <ele>273</ele>
        <time>2017-05-16T09:19:02Z</time>
      </trkpt>
      <trkpt lat="45.98125" lon="4.84072">
        <ele>273</ele>
        <time>2017-05-16T09:19:03Z</time>
      </trkpt>
      <trkpt lat="45.98121" lon="4.84077">
        <ele>273</ele>
        <time>2017-05-16T09:19:04Z</time>
      </trkpt>
      <trkpt lat="45.98116" lon="4.84082">
        <ele>273</ele>
        <time>2017-05-16T09:19:05Z</time>
      </trkpt>
      <trkpt lat="45.98112" lon="4.84087">
        <ele>273</ele>
        <time>2017-05-16T09:19:06Z</time>
      </trkpt>
      <trkpt lat="45.98107" lon="4.84091">
        <ele>273</ele>
        <time>2017-05-16T09:19:07Z</time>
      </trkpt>
      <trkpt lat="45.98103" lon="4.84096">
        <ele>273</ele>
        <time>2017-05-16T09:19:08Z</time>
      </trkpt>
      <trkpt lat="45.98095" lon="4.84102">
        <ele>273</ele>
        <time>2017-05-16T09:19:10Z</time>
      </trkpt>
      <trkpt lat="45.98091" lon="4.84106">
        <ele>273</ele>
        <time>2017-05-16T09:19:11Z</time>
      </trkpt>
      <trkpt lat="45.98087" lon="4.84109">
        <ele>273</ele>
        <time>2017-05-16T09:19:12Z</time>
      </trkpt>
      <trkpt lat="45.98083" lon="4.84113">
        <ele>273</ele>
        <time>2017-05-16T09:19:13Z</time>
      </trkpt>
      <trkpt lat="45.98079" lon="4.84117">
        <ele>273</ele>
        <time>2017-05-16T09:19:14Z</time>
      </trkpt>
      <trkpt lat="45.98075" lon="4.84121">
        <ele>273</ele>
        <time>2017-05-16T09:19:15Z</time>
      </trkpt>
      <trkpt lat="45.98072" lon="4.84124">
        <ele>273</ele>
        <time>2017-05-16T09:19:16Z</time>
      </trkpt>
      <trkpt lat="45.98068" lon="4.84128">
        <ele>273</ele>
        <time>2017-05-16T09:19:17Z</time>
      </trkpt>
      <trkpt lat="45.98063" lon="4.84132">
        <ele>273</ele>
        <time>2017-05-16T09:19:18Z</time>
      </trkpt>
      <trkpt lat="45.98059" lon="4.84136">
        <ele>273</ele>
        <time>2017-05-16T09:19:19Z</time>
      </trkpt>
      <trkpt lat="45.98055" lon="4.84139">
        <ele>273</ele>
        <time>2017-05-16T09:19:20Z</time>
      </trkpt>
      <trkpt lat="45.98051" lon="4.84143">
        <ele>273</ele>
        <time>2017-05-16T09:19:21Z</time>
      </trkpt>
      <trkpt lat="45.98046" lon="4.84148">
        <ele>273</ele>
        <time>2017-05-16T09:19:22Z</time>
      </trkpt>
      <trkpt lat="45.98042" lon="4.84152">
        <ele>273</ele>
        <time>2017-05-16T09:19:23Z</time>
      </trkpt>
      <trkpt lat="45.98038" lon="4.84156">
        <ele>273</ele>
        <time>2017-05-16T09:19:24Z</time>
      </trkpt>
      <trkpt lat="45.98034" lon="4.84159">
        <ele>273</ele>
        <time>2017-05-16T09:19:25Z</time>
      </trkpt>
      <trkpt lat="45.9803" lon="4.84162">
        <ele>273</ele>
        <time>2017-05-16T09:19:26Z</time>
      </trkpt>
      <trkpt lat="45.98026" lon="4.84166">
        <ele>273</ele>
        <time>2017-05-16T09:19:27Z</time>
      </trkpt>
      <trkpt lat="45.98019" lon="4.84174">
        <ele>274</ele>
        <time>2017-05-16T09:19:29Z</time>
      </trkpt>
      <trkpt lat="45.98015" lon="4.84177">
        <ele>274</ele>
        <time>2017-05-16T09:19:30Z</time>
      </trkpt>
      <trkpt lat="45.98011" lon="4.84181">
        <ele>274</ele>
        <time>2017-05-16T09:19:31Z</time>
      </trkpt>
      <trkpt lat="45.98006" lon="4.84185">
        <ele>274</ele>
        <time>2017-05-16T09:19:32Z</time>
      </trkpt>
      <trkpt lat="45.98001" lon="4.84189">
        <ele>274</ele>
        <time>2017-05-16T09:19:33Z</time>
      </trkpt>
      <trkpt lat="45.97997" lon="4.84194">
        <ele>274</ele>
        <time>2017-05-16T09:19:34Z</time>
      </trkpt>
      <trkpt lat="45.97992" lon="4.84198">
        <ele>274</ele>
        <time>2017-05-16T09:19:35Z</time>
      </trkpt>
      <trkpt lat="45.97988" lon="4.84202">
        <ele>274</ele>
        <time>2017-05-16T09:19:36Z</time>
      </trkpt>
      <trkpt lat="45.97984" lon="4.84206">
        <ele>274</ele>
        <time>2017-05-16T09:19:37Z</time>
      </trkpt>
      <trkpt lat="45.9798" lon="4.8421">
        <ele>274</ele>
        <time>2017-05-16T09:19:38Z</time>
      </trkpt>
      <trkpt lat="45.97973" lon="4.84217">
        <ele>274</ele>
        <time>2017-05-16T09:19:40Z</time>
      </trkpt>
      <trkpt lat="45.97969" lon="4.84221">
        <ele>274</ele>
        <time>2017-05-16T09:19:41Z</time>
      </trkpt>
      <trkpt lat="45.97965" lon="4.84225">
        <ele>274</ele>
        <time>2017-05-16T09:19:42Z</time>
      </trkpt>
      <trkpt lat="45.97961" lon="4.84228">
        <ele>274</ele>
        <time>2017-05-16T09:19:43Z</time>
      </trkpt>
      <trkpt lat="45.97956" lon="4.84232">
        <ele>275</ele>
        <time>2017-05-16T09:19:44Z</time>
      </trkpt>
      <trkpt lat="45.97952" lon="4.84235">
        <ele>275</ele>
        <time>2017-05-16T09:19:45Z</time>
      </trkpt>
      <trkpt lat="45.97948" lon="4.8424">
        <ele>275</ele>
        <time>2017-05-16T09:19:46Z</time>
      </trkpt>
      <trkpt lat="45.97944" lon="4.84244">
        <ele>275</ele>
        <time>2017-05-16T09:19:47Z</time>
      </trkpt>
      <trkpt lat="45.9794" lon="4.84248">
        <ele>275</ele>
        <time>2017-05-16T09:19:48Z</time>
      </trkpt>
      <trkpt lat="45.97936" lon="4.84252">
        <ele>275</ele>
        <time>2017-05-16T09:19:49Z</time>
      </trkpt>
      <trkpt lat="45.97932" lon="4.84257">
        <ele>275</ele>
        <time>2017-05-16T09:19:50Z</time>
      </trkpt>
      <trkpt lat="45.97928" lon="4.84262">
        <ele>275</ele>
        <time>2017-05-16T09:19:51Z</time>
      </trkpt>
      <trkpt lat="45.97925" lon="4.84267">
        <ele>275</ele>
        <time>2017-05-16T09:19:52Z</time>
      </trkpt>
      <trkpt lat="45.97922" lon="4.84274">
        <ele>275</ele>
        <time>2017-05-16T09:19:53Z</time>
      </trkpt>
      <trkpt lat="45.97921" lon="4.84281">
        <ele>275</ele>
        <time>2017-05-16T09:19:54Z</time>
      </trkpt>
      <trkpt lat="45.97921" lon="4.84289">
        <ele>275</ele>
        <time>2017-05-16T09:19:55Z</time>
      </trkpt>
      <trkpt lat="45.97921" lon="4.84296">
        <ele>275</ele>
        <time>2017-05-16T09:19:56Z</time>
      </trkpt>
      <trkpt lat="45.97922" lon="4.84302">
        <ele>275</ele>
        <time>2017-05-16T09:19:57Z</time>
      </trkpt>
      <trkpt lat="45.97924" lon="4.84309">
        <ele>275</ele>
        <time>2017-05-16T09:19:58Z</time>
      </trkpt>
      <trkpt lat="45.97925" lon="4.84316">
        <ele>275</ele>
        <time>2017-05-16T09:19:59Z</time>
      </trkpt>
      <trkpt lat="45.97926" lon="4.84324">
        <ele>275</ele>
        <time>2017-05-16T09:20:00Z</time>
      </trkpt>
      <trkpt lat="45.97928" lon="4.84332">
        <ele>275</ele>
        <time>2017-05-16T09:20:01Z</time>
      </trkpt>
      <trkpt lat="45.97929" lon="4.8434">
        <ele>275</ele>
        <time>2017-05-16T09:20:02Z</time>
      </trkpt>
      <trkpt lat="45.9793" lon="4.84348">
        <ele>275</ele>
        <time>2017-05-16T09:20:03Z</time>
      </trkpt>
      <trkpt lat="45.97932" lon="4.84357">
        <ele>275</ele>
        <time>2017-05-16T09:20:04Z</time>
      </trkpt>
      <trkpt lat="45.97933" lon="4.84364">
        <ele>275</ele>
        <time>2017-05-16T09:20:05Z</time>
      </trkpt>
      <trkpt lat="45.97935" lon="4.84372">
        <ele>275</ele>
        <time>2017-05-16T09:20:06Z</time>
      </trkpt>
      <trkpt lat="45.97936" lon="4.8438">
        <ele>275</ele>
        <time>2017-05-16T09:20:07Z</time>
      </trkpt>
      <trkpt lat="45.97938" lon="4.84387">
        <ele>275</ele>
        <time>2017-05-16T09:20:08Z</time>
      </trkpt>
      <trkpt lat="45.97939" lon="4.84395">
        <ele>275</ele>
        <time>2017-05-16T09:20:09Z</time>
      </trkpt>
      <trkpt lat="45.9794" lon="4.84402">
        <ele>275</ele>
        <time>2017-05-16T09:20:10Z</time>
      </trkpt>
      <trkpt lat="45.97941" lon="4.8441">
        <ele>275</ele>
        <time>2017-05-16T09:20:11Z</time>
      </trkpt>
      <trkpt lat="45.97942" lon="4.84417">
        <ele>275</ele>
        <time>2017-05-16T09:20:12Z</time>
      </trkpt>
      <trkpt lat="45.97943" lon="4.84424">
        <ele>275</ele>
        <time>2017-05-16T09:20:13Z</time>
      </trkpt>
      <trkpt lat="45.97944" lon="4.84432">
        <ele>275</ele>
        <time>2017-05-16T09:20:14Z</time>
      </trkpt>
      <trkpt lat="45.97945" lon="4.8444">
        <ele>275</ele>
        <time>2017-05-16T09:20:15Z</time>
      </trkpt>
      <trkpt lat="45.97946" lon="4.84447">
        <ele>275</ele>
        <time>2017-05-16T09:20:16Z</time>
      </trkpt>
      <trkpt lat="45.97948" lon="4.84454">
        <ele>275</ele>
        <time>2017-05-16T09:20:17Z</time>
      </trkpt>
      <trkpt lat="45.97949" lon="4.8446">
        <ele>275</ele>
        <time>2017-05-16T09:20:18Z</time>
      </trkpt>
      <trkpt lat="45.9795" lon="4.84467">
        <ele>275</ele>
        <time>2017-05-16T09:20:19Z</time>
      </trkpt>
      <trkpt lat="45.97951" lon="4.84473">
        <ele>275</ele>
        <time>2017-05-16T09:20:20Z</time>
      </trkpt>
      <trkpt lat="45.97952" lon="4.84479">
        <ele>275</ele>
        <time>2017-05-16T09:20:21Z</time>
      </trkpt>
      <trkpt lat="45.97953" lon="4.84486">
        <ele>275</ele>
        <time>2017-05-16T09:20:22Z</time>
      </trkpt>
      <trkpt lat="45.97954" lon="4.84493">
        <ele>275</ele>
        <time>2017-05-16T09:20:23Z</time>
      </trkpt>
      <trkpt lat="45.97956" lon="4.845">
        <ele>275</ele>
        <time>2017-05-16T09:20:24Z</time>
      </trkpt>
      <trkpt lat="45.97957" lon="4.84507">
        <ele>275</ele>
        <time>2017-05-16T09:20:25Z</time>
      </trkpt>
      <trkpt lat="45.97959" lon="4.84514">
        <ele>275</ele>
        <time>2017-05-16T09:20:26Z</time>
      </trkpt>
      <trkpt lat="45.9796" lon="4.84522">
        <ele>275</ele>
        <time>2017-05-16T09:20:27Z</time>
      </trkpt>
      <trkpt lat="45.97962" lon="4.8453">
        <ele>275</ele>
        <time>2017-05-16T09:20:28Z</time>
      </trkpt>
      <trkpt lat="45.97963" lon="4.84538">
        <ele>275</ele>
        <time>2017-05-16T09:20:29Z</time>
      </trkpt>
      <trkpt lat="45.97964" lon="4.84546">
        <ele>275</ele>
        <time>2017-05-16T09:20:30Z</time>
      </trkpt>
      <trkpt lat="45.97965" lon="4.84554">
        <ele>275</ele>
        <time>2017-05-16T09:20:31Z</time>
      </trkpt>
      <trkpt lat="45.97966" lon="4.84561">
        <ele>275</ele>
        <time>2017-05-16T09:20:32Z</time>
      </trkpt>
      <trkpt lat="45.97968" lon="4.84569">
        <ele>275</ele>
        <time>2017-05-16T09:20:33Z</time>
      </trkpt>
      <trkpt lat="45.97969" lon="4.84576">
        <ele>275</ele>
        <time>2017-05-16T09:20:34Z</time>
      </trkpt>
      <trkpt lat="45.9797" lon="4.84583">
        <ele>275</ele>
        <time>2017-05-16T09:20:35Z</time>
      </trkpt>
      <trkpt lat="45.97971" lon="4.84591">
        <ele>275</ele>
        <time>2017-05-16T09:20:36Z</time>
      </trkpt>
      <trkpt lat="45.97972" lon="4.84598">
        <ele>275</ele>
        <time>2017-05-16T09:20:37Z</time>
      </trkpt>
      <trkpt lat="45.97973" lon="4.84605">
        <ele>275</ele>
        <time>2017-05-16T09:20:38Z</time>
      </trkpt>
      <trkpt lat="45.97975" lon="4.84612">
        <ele>275</ele>
        <time>2017-05-16T09:20:39Z</time>
      </trkpt>
      <trkpt lat="45.97976" lon="4.84619">
        <ele>275</ele>
        <time>2017-05-16T09:20:40Z</time>
      </trkpt>
      <trkpt lat="45.97977" lon="4.84626">
        <ele>275</ele>
        <time>2017-05-16T09:20:41Z</time>
      </trkpt>
      <trkpt lat="45.97978" lon="4.84633">
        <ele>275</ele>
        <time>2017-05-16T09:20:42Z</time>
      </trkpt>
      <trkpt lat="45.97979" lon="4.8464">
        <ele>275</ele>
        <time>2017-05-16T09:20:43Z</time>
      </trkpt>
      <trkpt lat="45.9798" lon="4.84649">
        <ele>275</ele>
        <time>2017-05-16T09:20:44Z</time>
      </trkpt>
      <trkpt lat="45.97981" lon="4.84656">
        <ele>274</ele>
        <time>2017-05-16T09:20:45Z</time>
      </trkpt>
      <trkpt lat="45.97982" lon="4.84664">
        <ele>274</ele>
        <time>2017-05-16T09:20:46Z</time>
      </trkpt>
      <trkpt lat="45.97983" lon="4.84672">
        <ele>275</ele>
        <time>2017-05-16T09:20:47Z</time>
      </trkpt>
      <trkpt lat="45.97983" lon="4.84679">
        <ele>275</ele>
        <time>2017-05-16T09:20:48Z</time>
      </trkpt>
      <trkpt lat="45.97984" lon="4.84686">
        <ele>275</ele>
        <time>2017-05-16T09:20:49Z</time>
      </trkpt>
      <trkpt lat="45.97985" lon="4.84693">
        <ele>275</ele>
        <time>2017-05-16T09:20:50Z</time>
      </trkpt>
      <trkpt lat="45.97986" lon="4.847">
        <ele>275</ele>
        <time>2017-05-16T09:20:51Z</time>
      </trkpt>
      <trkpt lat="45.97987" lon="4.84707">
        <ele>275</ele>
        <time>2017-05-16T09:20:52Z</time>
      </trkpt>
      <trkpt lat="45.97988" lon="4.84713">
        <ele>275</ele>
        <time>2017-05-16T09:20:53Z</time>
      </trkpt>
      <trkpt lat="45.97989" lon="4.84725">
        <ele>275</ele>
        <time>2017-05-16T09:20:55Z</time>
      </trkpt>
      <trkpt lat="45.97989" lon="4.8473">
        <ele>275</ele>
        <time>2017-05-16T09:20:56Z</time>
      </trkpt>
      <trkpt lat="45.9799" lon="4.84739">
        <ele>275</ele>
        <time>2017-05-16T09:20:58Z</time>
      </trkpt>
      <trkpt lat="45.9799" lon="4.84745">
        <ele>275</ele>
        <time>2017-05-16T09:20:59Z</time>
      </trkpt>
      <trkpt lat="45.97991" lon="4.84758">
        <ele>275</ele>
        <time>2017-05-16T09:21:01Z</time>
      </trkpt>
      <trkpt lat="45.97991" lon="4.84764">
        <ele>275</ele>
        <time>2017-05-16T09:21:02Z</time>
      </trkpt>
      <trkpt lat="45.97992" lon="4.84771">
        <ele>274</ele>
        <time>2017-05-16T09:21:03Z</time>
      </trkpt>
      <trkpt lat="45.97992" lon="4.84778">
        <ele>274</ele>
        <time>2017-05-16T09:21:04Z</time>
      </trkpt>
      <trkpt lat="45.97993" lon="4.84785">
        <ele>274</ele>
        <time>2017-05-16T09:21:05Z</time>
      </trkpt>
      <trkpt lat="45.97994" lon="4.84792">
        <ele>274</ele>
        <time>2017-05-16T09:21:06Z</time>
      </trkpt>
      <trkpt lat="45.97994" lon="4.84799">
        <ele>274</ele>
        <time>2017-05-16T09:21:07Z</time>
      </trkpt>
      <trkpt lat="45.97995" lon="4.84805">
        <ele>274</ele>
        <time>2017-05-16T09:21:08Z</time>
      </trkpt>
      <trkpt lat="45.97996" lon="4.84818">
        <ele>273</ele>
        <time>2017-05-16T09:21:10Z</time>
      </trkpt>
      <trkpt lat="45.97997" lon="4.84824">
        <ele>273</ele>
        <time>2017-05-16T09:21:11Z</time>
      </trkpt>
      <trkpt lat="45.97998" lon="4.84836">
        <ele>272</ele>
        <time>2017-05-16T09:21:13Z</time>
      </trkpt>
      <trkpt lat="45.97998" lon="4.84842">
        <ele>272</ele>
        <time>2017-05-16T09:21:14Z</time>
      </trkpt>
      <trkpt lat="45.97999" lon="4.84854">
        <ele>272</ele>
        <time>2017-05-16T09:21:16Z</time>
      </trkpt>
      <trkpt lat="45.98" lon="4.84859">
        <ele>272</ele>
        <time>2017-05-16T09:21:17Z</time>
      </trkpt>
      <trkpt lat="45.98001" lon="4.8487">
        <ele>272</ele>
        <time>2017-05-16T09:21:19Z</time>
      </trkpt>
      <trkpt lat="45.98001" lon="4.84876">
        <ele>272</ele>
        <time>2017-05-16T09:21:20Z</time>
      </trkpt>
      <trkpt lat="45.98001" lon="4.84882">
        <ele>272</ele>
        <time>2017-05-16T09:21:21Z</time>
      </trkpt>
      <trkpt lat="45.98001" lon="4.84889">
        <ele>272</ele>
        <time>2017-05-16T09:21:22Z</time>
      </trkpt>
      <trkpt lat="45.98002" lon="4.84901">
        <ele>272</ele>
        <time>2017-05-16T09:21:24Z</time>
      </trkpt>
      <trkpt lat="45.98003" lon="4.84907">
        <ele>272</ele>
        <time>2017-05-16T09:21:25Z</time>
      </trkpt>
      <trkpt lat="45.98003" lon="4.84919">
        <ele>272</ele>
        <time>2017-05-16T09:21:27Z</time>
      </trkpt>
      <trkpt lat="45.98004" lon="4.84925">
        <ele>272</ele>
        <time>2017-05-16T09:21:28Z</time>
      </trkpt>
      <trkpt lat="45.98005" lon="4.84936">
        <ele>272</ele>
        <time>2017-05-16T09:21:30Z</time>
      </trkpt>
      <trkpt lat="45.98005" lon="4.84942">
        <ele>272</ele>
        <time>2017-05-16T09:21:31Z</time>
      </trkpt>
      <trkpt lat="45.98006" lon="4.84954">
        <ele>272</ele>
        <time>2017-05-16T09:21:33Z</time>
      </trkpt>
      <trkpt lat="45.98007" lon="4.8496">
        <ele>272</ele>
        <time>2017-05-16T09:21:34Z</time>
      </trkpt>
      <trkpt lat="45.98008" lon="4.84966">
        <ele>272</ele>
        <time>2017-05-16T09:21:35Z</time>
      </trkpt>
      <trkpt lat="45.98008" lon="4.84974">
        <ele>272</ele>
        <time>2017-05-16T09:21:36Z</time>
      </trkpt>
      <trkpt lat="45.98009" lon="4.84982">
        <ele>272</ele>
        <time>2017-05-16T09:21:37Z</time>
      </trkpt>
      <trkpt lat="45.9801" lon="4.8499">
        <ele>272</ele>
        <time>2017-05-16T09:21:38Z</time>
      </trkpt>
      <trkpt lat="45.98011" lon="4.84998">
        <ele>272</ele>
        <time>2017-05-16T09:21:39Z</time>
      </trkpt>
      <trkpt lat="45.98012" lon="4.85006">
        <ele>272</ele>
        <time>2017-05-16T09:21:40Z</time>
      </trkpt>
      <trkpt lat="45.98013" lon="4.85013">
        <ele>272</ele>
        <time>2017-05-16T09:21:41Z</time>
      </trkpt>
      <trkpt lat="45.98013" lon="4.8502">
        <ele>273</ele>
        <time>2017-05-16T09:21:42Z</time>
      </trkpt>
      <trkpt lat="45.98014" lon="4.85027">
        <ele>273</ele>
        <time>2017-05-16T09:21:43Z</time>
      </trkpt>
      <trkpt lat="45.98015" lon="4.85035">
        <ele>273</ele>
        <time>2017-05-16T09:21:44Z</time>
      </trkpt>
      <trkpt lat="45.98015" lon="4.85041">
        <ele>273</ele>
        <time>2017-05-16T09:21:45Z</time>
      </trkpt>
      <trkpt lat="45.98015" lon="4.85048">
        <ele>273</ele>
        <time>2017-05-16T09:21:46Z</time>
      </trkpt>
      <trkpt lat="45.98015" lon="4.8506">
        <ele>273</ele>
        <time>2017-05-16T09:21:48Z</time>
      </trkpt>
      <trkpt lat="45.98014" lon="4.85066">
        <ele>273</ele>
        <time>2017-05-16T09:21:49Z</time>
      </trkpt>
      <trkpt lat="45.98014" lon="4.85078">
        <ele>273</ele>
        <time>2017-05-16T09:21:51Z</time>
      </trkpt>
      <trkpt lat="45.98015" lon="4.85084">
        <ele>274</ele>
        <time>2017-05-16T09:21:52Z</time>
      </trkpt>
      <trkpt lat="45.98015" lon="4.85097">
        <ele>274</ele>
        <time>2017-05-16T09:21:54Z</time>
      </trkpt>
      <trkpt lat="45.98016" lon="4.85103">
        <ele>274</ele>
        <time>2017-05-16T09:21:55Z</time>
      </trkpt>
      <trkpt lat="45.98018" lon="4.85109">
        <ele>274</ele>
        <time>2017-05-16T09:21:56Z</time>
      </trkpt>
      <trkpt lat="45.9802" lon="4.85115">
        <ele>274</ele>
        <time>2017-05-16T09:21:57Z</time>
      </trkpt>
      <trkpt lat="45.98023" lon="4.85127">
        <ele>274</ele>
        <time>2017-05-16T09:21:59Z</time>
      </trkpt>
      <trkpt lat="45.98025" lon="4.85133">
        <ele>274</ele>
        <time>2017-05-16T09:22:00Z</time>
      </trkpt>
      <trkpt lat="45.98028" lon="4.85143">
        <ele>275</ele>
        <time>2017-05-16T09:22:02Z</time>
      </trkpt>
      <trkpt lat="45.98029" lon="4.85148">
        <ele>275</ele>
        <time>2017-05-16T09:22:03Z</time>
      </trkpt>
      <trkpt lat="45.98031" lon="4.85154">
        <ele>275</ele>
        <time>2017-05-16T09:22:04Z</time>
      </trkpt>
      <trkpt lat="45.98033" lon="4.8516">
        <ele>275</ele>
        <time>2017-05-16T09:22:05Z</time>
      </trkpt>
      <trkpt lat="45.98036" lon="4.85167">
        <ele>275</ele>
        <time>2017-05-16T09:22:06Z</time>
      </trkpt>
      <trkpt lat="45.98038" lon="4.85173">
        <ele>275</ele>
        <time>2017-05-16T09:22:07Z</time>
      </trkpt>
      <trkpt lat="45.9804" lon="4.85179">
        <ele>276</ele>
        <time>2017-05-16T09:22:08Z</time>
      </trkpt>
      <trkpt lat="45.98041" lon="4.85185">
        <ele>276</ele>
        <time>2017-05-16T09:22:09Z</time>
      </trkpt>
      <trkpt lat="45.98045" lon="4.85196">
        <ele>276</ele>
        <time>2017-05-16T09:22:11Z</time>
      </trkpt>
      <trkpt lat="45.98046" lon="4.85202">
        <ele>276</ele>
        <time>2017-05-16T09:22:12Z</time>
      </trkpt>
      <trkpt lat="45.98049" lon="4.85211">
        <ele>276</ele>
        <time>2017-05-16T09:22:14Z</time>
      </trkpt>
      <trkpt lat="45.9805" lon="4.85215">
        <ele>276</ele>
        <time>2017-05-16T09:22:15Z</time>
      </trkpt>
      <trkpt lat="45.98053" lon="4.85223">
        <ele>276</ele>
        <time>2017-05-16T09:22:17Z</time>
      </trkpt>
      <trkpt lat="45.98054" lon="4.85228">
        <ele>276</ele>
        <time>2017-05-16T09:22:18Z</time>
      </trkpt>
      <trkpt lat="45.98058" lon="4.85237">
        <ele>276</ele>
        <time>2017-05-16T09:22:20Z</time>
      </trkpt>
      <trkpt lat="45.98061" lon="4.85242">
        <ele>276</ele>
        <time>2017-05-16T09:22:21Z</time>
      </trkpt>
      <trkpt lat="45.98064" lon="4.85247">
        <ele>276</ele>
        <time>2017-05-16T09:22:22Z</time>
      </trkpt>
      <trkpt lat="45.98067" lon="4.85252">
        <ele>276</ele>
        <time>2017-05-16T09:22:23Z</time>
      </trkpt>
      <trkpt lat="45.98071" lon="4.85257">
        <ele>276</ele>
        <time>2017-05-16T09:22:24Z</time>
      </trkpt>
      <trkpt lat="45.98074" lon="4.85263">
        <ele>276</ele>
        <time>2017-05-16T09:22:25Z</time>
      </trkpt>
      <trkpt lat="45.98077" lon="4.85269">
        <ele>276</ele>
        <time>2017-05-16T09:22:26Z</time>
      </trkpt>
      <trkpt lat="45.9808" lon="4.85275">
        <ele>276</ele>
        <time>2017-05-16T09:22:27Z</time>
      </trkpt>
      <trkpt lat="45.98083" lon="4.8528">
        <ele>276</ele>
        <time>2017-05-16T09:22:28Z</time>
      </trkpt>
      <trkpt lat="45.98086" lon="4.85286">
        <ele>276</ele>
        <time>2017-05-16T09:22:29Z</time>
      </trkpt>
      <trkpt lat="45.98088" lon="4.85292">
        <ele>276</ele>
        <time>2017-05-16T09:22:30Z</time>
      </trkpt>
      <trkpt lat="45.98091" lon="4.85298">
        <ele>276</ele>
        <time>2017-05-16T09:22:31Z</time>
      </trkpt>
      <trkpt lat="45.98093" lon="4.85304">
        <ele>276</ele>
        <time>2017-05-16T09:22:32Z</time>
      </trkpt>
      <trkpt lat="45.98096" lon="4.8531">
        <ele>276</ele>
        <time>2017-05-16T09:22:33Z</time>
      </trkpt>
      <trkpt lat="45.98098" lon="4.85315">
        <ele>276</ele>
        <time>2017-05-16T09:22:34Z</time>
      </trkpt>
      <trkpt lat="45.981" lon="4.85321">
        <ele>276</ele>
        <time>2017-05-16T09:22:35Z</time>
      </trkpt>
      <trkpt lat="45.98103" lon="4.85327">
        <ele>276</ele>
        <time>2017-05-16T09:22:36Z</time>
      </trkpt>
      <trkpt lat="45.98105" lon="4.85333">
        <ele>276</ele>
        <time>2017-05-16T09:22:37Z</time>
      </trkpt>
      <trkpt lat="45.98107" lon="4.85339">
        <ele>276</ele>
        <time>2017-05-16T09:22:38Z</time>
      </trkpt>
      <trkpt lat="45.98109" lon="4.85346">
        <ele>276</ele>
        <time>2017-05-16T09:22:39Z</time>
      </trkpt>
      <trkpt lat="45.98112" lon="4.85352">
        <ele>276</ele>
        <time>2017-05-16T09:22:40Z</time>
      </trkpt>
      <trkpt lat="45.98115" lon="4.85359">
        <ele>276</ele>
        <time>2017-05-16T09:22:41Z</time>
      </trkpt>
      <trkpt lat="45.98117" lon="4.85365">
        <ele>276</ele>
        <time>2017-05-16T09:22:42Z</time>
      </trkpt>
      <trkpt lat="45.9812" lon="4.85371">
        <ele>276</ele>
        <time>2017-05-16T09:22:43Z</time>
      </trkpt>
      <trkpt lat="45.98123" lon="4.85377">
        <ele>276</ele>
        <time>2017-05-16T09:22:44Z</time>
      </trkpt>
      <trkpt lat="45.98126" lon="4.85384">
        <ele>276</ele>
        <time>2017-05-16T09:22:45Z</time>
      </trkpt>
      <trkpt lat="45.98128" lon="4.8539">
        <ele>276</ele>
        <time>2017-05-16T09:22:46Z</time>
      </trkpt>
      <trkpt lat="45.9813" lon="4.85396">
        <ele>276</ele>
        <time>2017-05-16T09:22:47Z</time>
      </trkpt>
      <trkpt lat="45.98133" lon="4.85402">
        <ele>276</ele>
        <time>2017-05-16T09:22:48Z</time>
      </trkpt>
      <trkpt lat="45.98135" lon="4.85407">
        <ele>276</ele>
        <time>2017-05-16T09:22:49Z</time>
      </trkpt>
      <trkpt lat="45.98138" lon="4.85413">
        <ele>276</ele>
        <time>2017-05-16T09:22:50Z</time>
      </trkpt>
      <trkpt lat="45.98141" lon="4.8542">
        <ele>276</ele>
        <time>2017-05-16T09:22:51Z</time>
      </trkpt>
      <trkpt lat="45.98143" lon="4.85426">
        <ele>276</ele>
        <time>2017-05-16T09:22:52Z</time>
      </trkpt>
      <trkpt lat="45.98146" lon="4.85433">
        <ele>276</ele>
        <time>2017-05-16T09:22:53Z</time>
      </trkpt>
      <trkpt lat="45.98149" lon="4.8544">
        <ele>276</ele>
        <time>2017-05-16T09:22:54Z</time>
      </trkpt>
      <trkpt lat="45.98152" lon="4.85447">
        <ele>276</ele>
        <time>2017-05-16T09:22:55Z</time>
      </trkpt>
      <trkpt lat="45.98155" lon="4.85454">
        <ele>276</ele>
        <time>2017-05-16T09:22:56Z</time>
      </trkpt>
      <trkpt lat="45.98158" lon="4.8546">
        <ele>275</ele>
        <time>2017-05-16T09:22:57Z</time>
      </trkpt>
      <trkpt lat="45.9816" lon="4.85466">
        <ele>275</ele>
        <time>2017-05-16T09:22:58Z</time>
      </trkpt>
      <trkpt lat="45.98162" lon="4.85473">
        <ele>275</ele>
        <time>2017-05-16T09:22:59Z</time>
      </trkpt>
      <trkpt lat="45.98165" lon="4.85478">
        <ele>275</ele>
        <time>2017-05-16T09:23:00Z</time>
      </trkpt>
      <trkpt lat="45.98168" lon="4.85484">
        <ele>275</ele>
        <time>2017-05-16T09:23:01Z</time>
      </trkpt>
      <trkpt lat="45.9817" lon="4.8549">
        <ele>275</ele>
        <time>2017-05-16T09:23:02Z</time>
      </trkpt>
      <trkpt lat="45.98173" lon="4.85497">
        <ele>275</ele>
        <time>2017-05-16T09:23:03Z</time>
      </trkpt>
      <trkpt lat="45.98175" lon="4.85504">
        <ele>275</ele>
        <time>2017-05-16T09:23:04Z</time>
      </trkpt>
      <trkpt lat="45.98178" lon="4.8551">
        <ele>275</ele>
        <time>2017-05-16T09:23:05Z</time>
      </trkpt>
      <trkpt lat="45.98181" lon="4.85517">
        <ele>275</ele>
        <time>2017-05-16T09:23:06Z</time>
      </trkpt>
      <trkpt lat="45.98184" lon="4.85525">
        <ele>276</ele>
        <time>2017-05-16T09:23:07Z</time>
      </trkpt>
      <trkpt lat="45.98187" lon="4.85532">
        <ele>276</ele>
        <time>2017-05-16T09:23:08Z</time>
      </trkpt>
      <trkpt lat="45.9819" lon="4.8554">
        <ele>276</ele>
        <time>2017-05-16T09:23:09Z</time>
      </trkpt>
      <trkpt lat="45.98193" lon="4.85548">
        <ele>276</ele>
        <time>2017-05-16T09:23:10Z</time>
      </trkpt>
      <trkpt lat="45.98197" lon="4.85556">
        <ele>276</ele>
        <time>2017-05-16T09:23:11Z</time>
      </trkpt>
      <trkpt lat="45.982" lon="4.85563">
        <ele>276</ele>
        <time>2017-05-16T09:23:12Z</time>
      </trkpt>
      <trkpt lat="45.98203" lon="4.85571">
        <ele>276</ele>
        <time>2017-05-16T09:23:13Z</time>
      </trkpt>
      <trkpt lat="45.98205" lon="4.85578">
        <ele>276</ele>
        <time>2017-05-16T09:23:14Z</time>
      </trkpt>
      <trkpt lat="45.98208" lon="4.85585">
        <ele>277</ele>
        <time>2017-05-16T09:23:15Z</time>
      </trkpt>
      <trkpt lat="45.98211" lon="4.85592">
        <ele>277</ele>
        <time>2017-05-16T09:23:16Z</time>
      </trkpt>
      <trkpt lat="45.98213" lon="4.85599">
        <ele>277</ele>
        <time>2017-05-16T09:23:17Z</time>
      </trkpt>
      <trkpt lat="45.98216" lon="4.85605">
        <ele>277</ele>
        <time>2017-05-16T09:23:18Z</time>
      </trkpt>
      <trkpt lat="45.98219" lon="4.85611">
        <ele>277</ele>
        <time>2017-05-16T09:23:19Z</time>
      </trkpt>
      <trkpt lat="45.98221" lon="4.85617">
        <ele>277</ele>
        <time>2017-05-16T09:23:20Z</time>
      </trkpt>
      <trkpt lat="45.98223" lon="4.85623">
        <ele>277</ele>
        <time>2017-05-16T09:23:21Z</time>
      </trkpt>
      <trkpt lat="45.98226" lon="4.85629">
        <ele>277</ele>
        <time>2017-05-16T09:23:22Z</time>
      </trkpt>
      <trkpt lat="45.98228" lon="4.85636">
        <ele>277</ele>
        <time>2017-05-16T09:23:23Z</time>
      </trkpt>
      <trkpt lat="45.98231" lon="4.85642">
        <ele>277</ele>
        <time>2017-05-16T09:23:24Z</time>
      </trkpt>
      <trkpt lat="45.98233" lon="4.85649">
        <ele>277</ele>
        <time>2017-05-16T09:23:25Z</time>
      </trkpt>
      <trkpt lat="45.98236" lon="4.85656">
        <ele>276</ele>
        <time>2017-05-16T09:23:26Z</time>
      </trkpt>
      <trkpt lat="45.98239" lon="4.85663">
        <ele>276</ele>
        <time>2017-05-16T09:23:27Z</time>
      </trkpt>
      <trkpt lat="45.98242" lon="4.8567">
        <ele>276</ele>
        <time>2017-05-16T09:23:28Z</time>
      </trkpt>
      <trkpt lat="45.98245" lon="4.85677">
        <ele>276</ele>
        <time>2017-05-16T09:23:29Z</time>
      </trkpt>
      <trkpt lat="45.98248" lon="4.85685">
        <ele>276</ele>
        <time>2017-05-16T09:23:30Z</time>
      </trkpt>
      <trkpt lat="45.98251" lon="4.85692">
        <ele>275</ele>
        <time>2017-05-16T09:23:31Z</time>
      </trkpt>
      <trkpt lat="45.98254" lon="4.85699">
        <ele>275</ele>
        <time>2017-05-16T09:23:32Z</time>
      </trkpt>
      <trkpt lat="45.98256" lon="4.85706">
        <ele>275</ele>
        <time>2017-05-16T09:23:33Z</time>
      </trkpt>
      <trkpt lat="45.98259" lon="4.85713">
        <ele>275</ele>
        <time>2017-05-16T09:23:34Z</time>
      </trkpt>
      <trkpt lat="45.98262" lon="4.8572">
        <ele>275</ele>
        <time>2017-05-16T09:23:35Z</time>
      </trkpt>
      <trkpt lat="45.98265" lon="4.85727">
        <ele>275</ele>
        <time>2017-05-16T09:23:36Z</time>
      </trkpt>
      <trkpt lat="45.98267" lon="4.85733">
        <ele>275</ele>
        <time>2017-05-16T09:23:37Z</time>
      </trkpt>
      <trkpt lat="45.98269" lon="4.85739">
        <ele>275</ele>
        <time>2017-05-16T09:23:38Z</time>
      </trkpt>
      <trkpt lat="45.98272" lon="4.85746">
        <ele>275</ele>
        <time>2017-05-16T09:23:39Z</time>
      </trkpt>
      <trkpt lat="45.98274" lon="4.85752">
        <ele>275</ele>
        <time>2017-05-16T09:23:40Z</time>
      </trkpt>
      <trkpt lat="45.98277" lon="4.85758">
        <ele>275</ele>
        <time>2017-05-16T09:23:41Z</time>
      </trkpt>
      <trkpt lat="45.98279" lon="4.85764">
        <ele>275</ele>
        <time>2017-05-16T09:23:42Z</time>
      </trkpt>
      <trkpt lat="45.98282" lon="4.85769">
        <ele>275</ele>
        <time>2017-05-16T09:23:43Z</time>
      </trkpt>
      <trkpt lat="45.98284" lon="4.85775">
        <ele>275</ele>
        <time>2017-05-16T09:23:44Z</time>
      </trkpt>
      <trkpt lat="45.98287" lon="4.85781">
        <ele>275</ele>
        <time>2017-05-16T09:23:45Z</time>
      </trkpt>
      <trkpt lat="45.98289" lon="4.85787">
        <ele>275</ele>
        <time>2017-05-16T09:23:46Z</time>
      </trkpt>
      <trkpt lat="45.98292" lon="4.85792">
        <ele>275</ele>
        <time>2017-05-16T09:23:47Z</time>
      </trkpt>
      <trkpt lat="45.98295" lon="4.85798">
        <ele>275</ele>
        <time>2017-05-16T09:23:48Z</time>
      </trkpt>
      <trkpt lat="45.98297" lon="4.85804">
        <ele>275</ele>
        <time>2017-05-16T09:23:49Z</time>
      </trkpt>
      <trkpt lat="45.98299" lon="4.8581">
        <ele>275</ele>
        <time>2017-05-16T09:23:50Z</time>
      </trkpt>
      <trkpt lat="45.98302" lon="4.85817">
        <ele>275</ele>
        <time>2017-05-16T09:23:51Z</time>
      </trkpt>
      <trkpt lat="45.98304" lon="4.85823">
        <ele>275</ele>
        <time>2017-05-16T09:23:52Z</time>
      </trkpt>
      <trkpt lat="45.98307" lon="4.8583">
        <ele>275</ele>
        <time>2017-05-16T09:23:53Z</time>
      </trkpt>
      <trkpt lat="45.9831" lon="4.85836">
        <ele>276</ele>
        <time>2017-05-16T09:23:54Z</time>
      </trkpt>
      <trkpt lat="45.98312" lon="4.85843">
        <ele>276</ele>
        <time>2017-05-16T09:23:55Z</time>
      </trkpt>
      <trkpt lat="45.98316" lon="4.8585">
        <ele>276</ele>
        <time>2017-05-16T09:23:56Z</time>
      </trkpt>
      <trkpt lat="45.98318" lon="4.85856">
        <ele>276</ele>
        <time>2017-05-16T09:23:57Z</time>
      </trkpt>
      <trkpt lat="45.9832" lon="4.85862">
        <ele>276</ele>
        <time>2017-05-16T09:23:58Z</time>
      </trkpt>
      <trkpt lat="45.98323" lon="4.85869">
        <ele>276</ele>
        <time>2017-05-16T09:23:59Z</time>
      </trkpt>
      <trkpt lat="45.98327" lon="4.8588">
        <ele>276</ele>
        <time>2017-05-16T09:24:01Z</time>
      </trkpt>
      <trkpt lat="45.98328" lon="4.85886">
        <ele>276</ele>
        <time>2017-05-16T09:24:02Z</time>
      </trkpt>
      <trkpt lat="45.98331" lon="4.85892">
        <ele>276</ele>
        <time>2017-05-16T09:24:03Z</time>
      </trkpt>
      <trkpt lat="45.98333" lon="4.85898">
        <ele>276</ele>
        <time>2017-05-16T09:24:04Z</time>
      </trkpt>
      <trkpt lat="45.98335" lon="4.85904">
        <ele>276</ele>
        <time>2017-05-16T09:24:05Z</time>
      </trkpt>
      <trkpt lat="45.98338" lon="4.85911">
        <ele>276</ele>
        <time>2017-05-16T09:24:06Z</time>
      </trkpt>
      <trkpt lat="45.98341" lon="4.85917">
        <ele>276</ele>
        <time>2017-05-16T09:24:07Z</time>
      </trkpt>
      <trkpt lat="45.98344" lon="4.85924">
        <ele>276</ele>
        <time>2017-05-16T09:24:08Z</time>
      </trkpt>
      <trkpt lat="45.98346" lon="4.8593">
        <ele>276</ele>
        <time>2017-05-16T09:24:09Z</time>
      </trkpt>
      <trkpt lat="45.98349" lon="4.85936">
        <ele>276</ele>
        <time>2017-05-16T09:24:10Z</time>
      </trkpt>
      <trkpt lat="45.98351" lon="4.85942">
        <ele>276</ele>
        <time>2017-05-16T09:24:11Z</time>
      </trkpt>
      <trkpt lat="45.98353" lon="4.85948">
        <ele>276</ele>
        <time>2017-05-16T09:24:12Z</time>
      </trkpt>
      <trkpt lat="45.98356" lon="4.85954">
        <ele>276</ele>
        <time>2017-05-16T09:24:13Z</time>
      </trkpt>
      <trkpt lat="45.98358" lon="4.85959">
        <ele>276</ele>
        <time>2017-05-16T09:24:14Z</time>
      </trkpt>
      <trkpt lat="45.9836" lon="4.85965">
        <ele>276</ele>
        <time>2017-05-16T09:24:15Z</time>
      </trkpt>
      <trkpt lat="45.98363" lon="4.85971">
        <ele>276</ele>
        <time>2017-05-16T09:24:16Z</time>
      </trkpt>
      <trkpt lat="45.98365" lon="4.85977">
        <ele>276</ele>
        <time>2017-05-16T09:24:17Z</time>
      </trkpt>
      <trkpt lat="45.98367" lon="4.85983">
        <ele>276</ele>
        <time>2017-05-16T09:24:18Z</time>
      </trkpt>
      <trkpt lat="45.98369" lon="4.8599">
        <ele>277</ele>
        <time>2017-05-16T09:24:19Z</time>
      </trkpt>
      <trkpt lat="45.98372" lon="4.85997">
        <ele>277</ele>
        <time>2017-05-16T09:24:20Z</time>
      </trkpt>
      <trkpt lat="45.98375" lon="4.86005">
        <ele>277</ele>
        <time>2017-05-16T09:24:21Z</time>
      </trkpt>
      <trkpt lat="45.98378" lon="4.86013">
        <ele>277</ele>
        <time>2017-05-16T09:24:22Z</time>
      </trkpt>
      <trkpt lat="45.98381" lon="4.8602">
        <ele>277</ele>
        <time>2017-05-16T09:24:23Z</time>
      </trkpt>
      <trkpt lat="45.98383" lon="4.86028">
        <ele>277</ele>
        <time>2017-05-16T09:24:24Z</time>
      </trkpt>
      <trkpt lat="45.98385" lon="4.86035">
        <ele>277</ele>
        <time>2017-05-16T09:24:25Z</time>
      </trkpt>
      <trkpt lat="45.98388" lon="4.86042">
        <ele>277</ele>
        <time>2017-05-16T09:24:26Z</time>
      </trkpt>
      <trkpt lat="45.98389" lon="4.86049">
        <ele>277</ele>
        <time>2017-05-16T09:24:27Z</time>
      </trkpt>
      <trkpt lat="45.98391" lon="4.86054">
        <ele>277</ele>
        <time>2017-05-16T09:24:28Z</time>
      </trkpt>
      <trkpt lat="45.98395" lon="4.86064">
        <ele>277</ele>
        <time>2017-05-16T09:24:30Z</time>
      </trkpt>
      <trkpt lat="45.98397" lon="4.8607">
        <ele>277</ele>
        <time>2017-05-16T09:24:31Z</time>
      </trkpt>
      <trkpt lat="45.984" lon="4.86081">
        <ele>277</ele>
        <time>2017-05-16T09:24:33Z</time>
      </trkpt>
      <trkpt lat="45.98401" lon="4.86087">
        <ele>277</ele>
        <time>2017-05-16T09:24:34Z</time>
      </trkpt>
      <trkpt lat="45.98403" lon="4.86098">
        <ele>277</ele>
        <time>2017-05-16T09:24:36Z</time>
      </trkpt>
      <trkpt lat="45.98404" lon="4.86103">
        <ele>277</ele>
        <time>2017-05-16T09:24:37Z</time>
      </trkpt>
      <trkpt lat="45.98405" lon="4.86113">
        <ele>277</ele>
        <time>2017-05-16T09:24:39Z</time>
      </trkpt>
      <trkpt lat="45.98407" lon="4.86117">
        <ele>277</ele>
        <time>2017-05-16T09:24:40Z</time>
      </trkpt>
      <trkpt lat="45.98408" lon="4.86128">
        <ele>276</ele>
        <time>2017-05-16T09:24:42Z</time>
      </trkpt>
      <trkpt lat="45.98409" lon="4.86133">
        <ele>276</ele>
        <time>2017-05-16T09:24:43Z</time>
      </trkpt>
      <trkpt lat="45.9841" lon="4.86144">
        <ele>276</ele>
        <time>2017-05-16T09:24:45Z</time>
      </trkpt>
      <trkpt lat="45.98411" lon="4.86149">
        <ele>276</ele>
        <time>2017-05-16T09:24:46Z</time>
      </trkpt>
      <trkpt lat="45.98413" lon="4.8616">
        <ele>276</ele>
        <time>2017-05-16T09:24:48Z</time>
      </trkpt>
      <trkpt lat="45.98413" lon="4.86165">
        <ele>276</ele>
        <time>2017-05-16T09:24:49Z</time>
      </trkpt>
      <trkpt lat="45.98416" lon="4.86176">
        <ele>276</ele>
        <time>2017-05-16T09:24:51Z</time>
      </trkpt>
      <trkpt lat="45.98417" lon="4.8618">
        <ele>275</ele>
        <time>2017-05-16T09:24:52Z</time>
      </trkpt>
      <trkpt lat="45.98419" lon="4.8619">
        <ele>275</ele>
        <time>2017-05-16T09:24:54Z</time>
      </trkpt>
      <trkpt lat="45.9842" lon="4.86196">
        <ele>275</ele>
        <time>2017-05-16T09:24:55Z</time>
      </trkpt>
      <trkpt lat="45.98422" lon="4.86207">
        <ele>275</ele>
        <time>2017-05-16T09:24:57Z</time>
      </trkpt>
      <trkpt lat="45.98423" lon="4.86213">
        <ele>275</ele>
        <time>2017-05-16T09:24:58Z</time>
      </trkpt>
      <trkpt lat="45.98424" lon="4.8622">
        <ele>275</ele>
        <time>2017-05-16T09:24:59Z</time>
      </trkpt>
      <trkpt lat="45.98425" lon="4.86226">
        <ele>275</ele>
        <time>2017-05-16T09:25:00Z</time>
      </trkpt>
      <trkpt lat="45.98426" lon="4.86233">
        <ele>275</ele>
        <time>2017-05-16T09:25:01Z</time>
      </trkpt>
      <trkpt lat="45.98427" lon="4.86241">
        <ele>275</ele>
        <time>2017-05-16T09:25:02Z</time>
      </trkpt>
      <trkpt lat="45.98428" lon="4.86249">
        <ele>275</ele>
        <time>2017-05-16T09:25:03Z</time>
      </trkpt>
      <trkpt lat="45.9843" lon="4.86258">
        <ele>275</ele>
        <time>2017-05-16T09:25:04Z</time>
      </trkpt>
      <trkpt lat="45.98431" lon="4.86267">
        <ele>275</ele>
        <time>2017-05-16T09:25:05Z</time>
      </trkpt>
      <trkpt lat="45.98433" lon="4.86277">
        <ele>276</ele>
        <time>2017-05-16T09:25:06Z</time>
      </trkpt>
      <trkpt lat="45.98435" lon="4.86287">
        <ele>276</ele>
        <time>2017-05-16T09:25:07Z</time>
      </trkpt>
      <trkpt lat="45.98436" lon="4.86297">
        <ele>276</ele>
        <time>2017-05-16T09:25:08Z</time>
      </trkpt>
      <trkpt lat="45.98438" lon="4.86307">
        <ele>276</ele>
        <time>2017-05-16T09:25:09Z</time>
      </trkpt>
      <trkpt lat="45.9844" lon="4.86318">
        <ele>276</ele>
        <time>2017-05-16T09:25:10Z</time>
      </trkpt>
      <trkpt lat="45.98443" lon="4.86327">
        <ele>276</ele>
        <time>2017-05-16T09:25:11Z</time>
      </trkpt>
      <trkpt lat="45.98445" lon="4.86337">
        <ele>277</ele>
        <time>2017-05-16T09:25:12Z</time>
      </trkpt>
      <trkpt lat="45.98448" lon="4.86347">
        <ele>277</ele>
        <time>2017-05-16T09:25:13Z</time>
      </trkpt>
      <trkpt lat="45.98451" lon="4.86356">
        <ele>277</ele>
        <time>2017-05-16T09:25:14Z</time>
      </trkpt>
      <trkpt lat="45.98454" lon="4.86365">
        <ele>277</ele>
        <time>2017-05-16T09:25:15Z</time>
      </trkpt>
      <trkpt lat="45.98456" lon="4.86373">
        <ele>277</ele>
        <time>2017-05-16T09:25:16Z</time>
      </trkpt>
      <trkpt lat="45.98459" lon="4.86382">
        <ele>277</ele>
        <time>2017-05-16T09:25:17Z</time>
      </trkpt>
      <trkpt lat="45.98463" lon="4.8639">
        <ele>277</ele>
        <time>2017-05-16T09:25:18Z</time>
      </trkpt>
      <trkpt lat="45.98466" lon="4.86398">
        <ele>277</ele>
        <time>2017-05-16T09:25:19Z</time>
      </trkpt>
      <trkpt lat="45.98469" lon="4.86406">
        <ele>277</ele>
        <time>2017-05-16T09:25:20Z</time>
      </trkpt>
      <trkpt lat="45.98472" lon="4.86414">
        <ele>277</ele>
        <time>2017-05-16T09:25:21Z</time>
      </trkpt>
      <trkpt lat="45.98475" lon="4.86421">
        <ele>278</ele>
        <time>2017-05-16T09:25:22Z</time>
      </trkpt>
      <trkpt lat="45.98478" lon="4.86429">
        <ele>278</ele>
        <time>2017-05-16T09:25:23Z</time>
      </trkpt>
      <trkpt lat="45.98481" lon="4.86435">
        <ele>278</ele>
        <time>2017-05-16T09:25:24Z</time>
      </trkpt>
      <trkpt lat="45.98485" lon="4.86442">
        <ele>278</ele>
        <time>2017-05-16T09:25:25Z</time>
      </trkpt>
      <trkpt lat="45.98488" lon="4.86449">
        <ele>278</ele>
        <time>2017-05-16T09:25:26Z</time>
      </trkpt>
      <trkpt lat="45.98491" lon="4.86455">
        <ele>278</ele>
        <time>2017-05-16T09:25:27Z</time>
      </trkpt>
      <trkpt lat="45.98494" lon="4.86462">
        <ele>278</ele>
        <time>2017-05-16T09:25:28Z</time>
      </trkpt>
      <trkpt lat="45.98497" lon="4.86468">
        <ele>279</ele>
        <time>2017-05-16T09:25:29Z</time>
      </trkpt>
      <trkpt lat="45.985" lon="4.86474">
        <ele>279</ele>
        <time>2017-05-16T09:25:30Z</time>
      </trkpt>
      <trkpt lat="45.98503" lon="4.8648">
        <ele>278</ele>
        <time>2017-05-16T09:25:31Z</time>
      </trkpt>
      <trkpt lat="45.98506" lon="4.86487">
        <ele>279</ele>
        <time>2017-05-16T09:25:32Z</time>
      </trkpt>
      <trkpt lat="45.98508" lon="4.86494">
        <ele>279</ele>
        <time>2017-05-16T09:25:33Z</time>
      </trkpt>
      <trkpt lat="45.98511" lon="4.865">
        <ele>279</ele>
        <time>2017-05-16T09:25:34Z</time>
      </trkpt>
      <trkpt lat="45.98514" lon="4.86506">
        <ele>279</ele>
        <time>2017-05-16T09:25:35Z</time>
      </trkpt>
      <trkpt lat="45.98517" lon="4.86512">
        <ele>279</ele>
        <time>2017-05-16T09:25:36Z</time>
      </trkpt>
      <trkpt lat="45.98519" lon="4.86518">
        <ele>279</ele>
        <time>2017-05-16T09:25:37Z</time>
      </trkpt>
      <trkpt lat="45.98523" lon="4.86525">
        <ele>279</ele>
        <time>2017-05-16T09:25:38Z</time>
      </trkpt>
      <trkpt lat="45.98526" lon="4.86531">
        <ele>279</ele>
        <time>2017-05-16T09:25:39Z</time>
      </trkpt>
      <trkpt lat="45.9853" lon="4.86538">
        <ele>279</ele>
        <time>2017-05-16T09:25:40Z</time>
      </trkpt>
      <trkpt lat="45.98533" lon="4.86545">
        <ele>279</ele>
        <time>2017-05-16T09:25:41Z</time>
      </trkpt>
      <trkpt lat="45.98537" lon="4.86552">
        <ele>279</ele>
        <time>2017-05-16T09:25:42Z</time>
      </trkpt>
      <trkpt lat="45.9854" lon="4.86559">
        <ele>278</ele>
        <time>2017-05-16T09:25:43Z</time>
      </trkpt>
      <trkpt lat="45.98543" lon="4.86566">
        <ele>278</ele>
        <time>2017-05-16T09:25:44Z</time>
      </trkpt>
      <trkpt lat="45.98546" lon="4.86573">
        <ele>278</ele>
        <time>2017-05-16T09:25:45Z</time>
      </trkpt>
      <trkpt lat="45.98547" lon="4.8658">
        <ele>278</ele>
        <time>2017-05-16T09:25:46Z</time>
      </trkpt>
      <trkpt lat="45.98549" lon="4.86588">
        <ele>278</ele>
        <time>2017-05-16T09:25:47Z</time>
      </trkpt>
      <trkpt lat="45.98551" lon="4.86595">
        <ele>278</ele>
        <time>2017-05-16T09:25:48Z</time>
      </trkpt>
      <trkpt lat="45.98553" lon="4.86603">
        <ele>278</ele>
        <time>2017-05-16T09:25:49Z</time>
      </trkpt>
      <trkpt lat="45.98554" lon="4.8661">
        <ele>278</ele>
        <time>2017-05-16T09:25:50Z</time>
      </trkpt>
      <trkpt lat="45.98556" lon="4.86616">
        <ele>278</ele>
        <time>2017-05-16T09:25:51Z</time>
      </trkpt>
      <trkpt lat="45.98557" lon="4.86624">
        <ele>278</ele>
        <time>2017-05-16T09:25:52Z</time>
      </trkpt>
      <trkpt lat="45.98558" lon="4.86632">
        <ele>278</ele>
        <time>2017-05-16T09:25:53Z</time>
      </trkpt>
      <trkpt lat="45.9856" lon="4.8664">
        <ele>277</ele>
        <time>2017-05-16T09:25:54Z</time>
      </trkpt>
      <trkpt lat="45.98561" lon="4.86648">
        <ele>277</ele>
        <time>2017-05-16T09:25:55Z</time>
      </trkpt>
      <trkpt lat="45.98562" lon="4.86657">
        <ele>277</ele>
        <time>2017-05-16T09:25:56Z</time>
      </trkpt>
      <trkpt lat="45.98563" lon="4.86665">
        <ele>277</ele>
        <time>2017-05-16T09:25:57Z</time>
      </trkpt>
      <trkpt lat="45.98564" lon="4.86674">
        <ele>277</ele>
        <time>2017-05-16T09:25:58Z</time>
      </trkpt>
      <trkpt lat="45.98564" lon="4.86682">
        <ele>277</ele>
        <time>2017-05-16T09:25:59Z</time>
      </trkpt>
      <trkpt lat="45.98565" lon="4.86691">
        <ele>277</ele>
        <time>2017-05-16T09:26:00Z</time>
      </trkpt>
      <trkpt lat="45.98565" lon="4.86698">
        <ele>277</ele>
        <time>2017-05-16T09:26:01Z</time>
      </trkpt>
      <trkpt lat="45.98565" lon="4.86705">
        <ele>277</ele>
        <time>2017-05-16T09:26:02Z</time>
      </trkpt>
      <trkpt lat="45.98564" lon="4.86712">
        <ele>277</ele>
        <time>2017-05-16T09:26:03Z</time>
      </trkpt>
      <trkpt lat="45.98565" lon="4.8672">
        <ele>277</ele>
        <time>2017-05-16T09:26:04Z</time>
      </trkpt>
      <trkpt lat="45.98565" lon="4.86727">
        <ele>277</ele>
        <time>2017-05-16T09:26:05Z</time>
      </trkpt>
      <trkpt lat="45.98565" lon="4.86733">
        <ele>277</ele>
        <time>2017-05-16T09:26:06Z</time>
      </trkpt>
      <trkpt lat="45.98566" lon="4.86746">
        <ele>277</ele>
        <time>2017-05-16T09:26:08Z</time>
      </trkpt>
      <trkpt lat="45.98567" lon="4.86752">
        <ele>277</ele>
        <time>2017-05-16T09:26:09Z</time>
      </trkpt>
      <trkpt lat="45.98568" lon="4.86765">
        <ele>277</ele>
        <time>2017-05-16T09:26:11Z</time>
      </trkpt>
      <trkpt lat="45.98569" lon="4.86771">
        <ele>277</ele>
        <time>2017-05-16T09:26:12Z</time>
      </trkpt>
      <trkpt lat="45.98571" lon="4.86778">
        <ele>277</ele>
        <time>2017-05-16T09:26:13Z</time>
      </trkpt>
      <trkpt lat="45.98572" lon="4.86784">
        <ele>277</ele>
        <time>2017-05-16T09:26:14Z</time>
      </trkpt>
      <trkpt lat="45.98574" lon="4.86791">
        <ele>277</ele>
        <time>2017-05-16T09:26:15Z</time>
      </trkpt>
      <trkpt lat="45.98575" lon="4.86797">
        <ele>278</ele>
        <time>2017-05-16T09:26:16Z</time>
      </trkpt>
      <trkpt lat="45.98575" lon="4.86804">
        <ele>278</ele>
        <time>2017-05-16T09:26:17Z</time>
      </trkpt>
      <trkpt lat="45.98577" lon="4.86812">
        <ele>278</ele>
        <time>2017-05-16T09:26:18Z</time>
      </trkpt>
      <trkpt lat="45.98578" lon="4.8682">
        <ele>277</ele>
        <time>2017-05-16T09:26:19Z</time>
      </trkpt>
      <trkpt lat="45.98579" lon="4.86829">
        <ele>277</ele>
        <time>2017-05-16T09:26:20Z</time>
      </trkpt>
      <trkpt lat="45.98579" lon="4.86837">
        <ele>278</ele>
        <time>2017-05-16T09:26:21Z</time>
      </trkpt>
      <trkpt lat="45.9858" lon="4.86846">
        <ele>278</ele>
        <time>2017-05-16T09:26:22Z</time>
      </trkpt>
      <trkpt lat="45.98581" lon="4.86857">
        <ele>279</ele>
        <time>2017-05-16T09:26:23Z</time>
      </trkpt>
      <trkpt lat="45.98581" lon="4.86865">
        <ele>279</ele>
        <time>2017-05-16T09:26:24Z</time>
      </trkpt>
      <trkpt lat="45.98581" lon="4.86873">
        <ele>279</ele>
        <time>2017-05-16T09:26:25Z</time>
      </trkpt>
      <trkpt lat="45.98581" lon="4.86882">
        <ele>279</ele>
        <time>2017-05-16T09:26:26Z</time>
      </trkpt>
      <trkpt lat="45.98581" lon="4.8689">
        <ele>279</ele>
        <time>2017-05-16T09:26:27Z</time>
      </trkpt>
      <trkpt lat="45.9858" lon="4.86898">
        <ele>279</ele>
        <time>2017-05-16T09:26:28Z</time>
      </trkpt>
      <trkpt lat="45.9858" lon="4.86905">
        <ele>279</ele>
        <time>2017-05-16T09:26:29Z</time>
      </trkpt>
      <trkpt lat="45.98579" lon="4.86913">
        <ele>279</ele>
        <time>2017-05-16T09:26:30Z</time>
      </trkpt>
      <trkpt lat="45.98579" lon="4.86922">
        <ele>280</ele>
        <time>2017-05-16T09:26:31Z</time>
      </trkpt>
      <trkpt lat="45.98579" lon="4.8693">
        <ele>280</ele>
        <time>2017-05-16T09:26:32Z</time>
      </trkpt>
      <trkpt lat="45.98578" lon="4.86938">
        <ele>281</ele>
        <time>2017-05-16T09:26:33Z</time>
      </trkpt>
      <trkpt lat="45.98578" lon="4.86947">
        <ele>281</ele>
        <time>2017-05-16T09:26:34Z</time>
      </trkpt>
      <trkpt lat="45.98578" lon="4.86955">
        <ele>281</ele>
        <time>2017-05-16T09:26:35Z</time>
      </trkpt>
      <trkpt lat="45.98578" lon="4.86963">
        <ele>281</ele>
        <time>2017-05-16T09:26:36Z</time>
      </trkpt>
      <trkpt lat="45.98578" lon="4.8697">
        <ele>281</ele>
        <time>2017-05-16T09:26:37Z</time>
      </trkpt>
      <trkpt lat="45.98579" lon="4.86979">
        <ele>281</ele>
        <time>2017-05-16T09:26:38Z</time>
      </trkpt>
      <trkpt lat="45.9858" lon="4.86987">
        <ele>281</ele>
        <time>2017-05-16T09:26:39Z</time>
      </trkpt>
      <trkpt lat="45.98581" lon="4.86996">
        <ele>280</ele>
        <time>2017-05-16T09:26:40Z</time>
      </trkpt>
      <trkpt lat="45.98582" lon="4.87005">
        <ele>280</ele>
        <time>2017-05-16T09:26:41Z</time>
      </trkpt>
      <trkpt lat="45.98584" lon="4.87014">
        <ele>279</ele>
        <time>2017-05-16T09:26:42Z</time>
      </trkpt>
      <trkpt lat="45.98586" lon="4.87023">
        <ele>279</ele>
        <time>2017-05-16T09:26:43Z</time>
      </trkpt>
      <trkpt lat="45.98589" lon="4.87032">
        <ele>279</ele>
        <time>2017-05-16T09:26:44Z</time>
      </trkpt>
      <trkpt lat="45.9859" lon="4.8704">
        <ele>279</ele>
        <time>2017-05-16T09:26:45Z</time>
      </trkpt>
      <trkpt lat="45.98592" lon="4.87048">
        <ele>279</ele>
        <time>2017-05-16T09:26:46Z</time>
      </trkpt>
      <trkpt lat="45.98594" lon="4.87057">
        <ele>279</ele>
        <time>2017-05-16T09:26:47Z</time>
      </trkpt>
      <trkpt lat="45.98595" lon="4.87064">
        <ele>279</ele>
        <time>2017-05-16T09:26:48Z</time>
      </trkpt>
      <trkpt lat="45.98596" lon="4.87072">
        <ele>279</ele>
        <time>2017-05-16T09:26:49Z</time>
      </trkpt>
      <trkpt lat="45.98598" lon="4.8708">
        <ele>279</ele>
        <time>2017-05-16T09:26:50Z</time>
      </trkpt>
      <trkpt lat="45.98599" lon="4.87088">
        <ele>279</ele>
        <time>2017-05-16T09:26:51Z</time>
      </trkpt>
      <trkpt lat="45.986" lon="4.87096">
        <ele>279</ele>
        <time>2017-05-16T09:26:52Z</time>
      </trkpt>
      <trkpt lat="45.98601" lon="4.87104">
        <ele>279</ele>
        <time>2017-05-16T09:26:53Z</time>
      </trkpt>
      <trkpt lat="45.98602" lon="4.87113">
        <ele>279</ele>
        <time>2017-05-16T09:26:54Z</time>
      </trkpt>
      <trkpt lat="45.98602" lon="4.87121">
        <ele>279</ele>
        <time>2017-05-16T09:26:55Z</time>
      </trkpt>
      <trkpt lat="45.98602" lon="4.87129">
        <ele>279</ele>
        <time>2017-05-16T09:26:56Z</time>
      </trkpt>
      <trkpt lat="45.98602" lon="4.87136">
        <ele>278</ele>
        <time>2017-05-16T09:26:57Z</time>
      </trkpt>
      <trkpt lat="45.98602" lon="4.87145">
        <ele>278</ele>
        <time>2017-05-16T09:26:58Z</time>
      </trkpt>
      <trkpt lat="45.98602" lon="4.87153">
        <ele>278</ele>
        <time>2017-05-16T09:26:59Z</time>
      </trkpt>
      <trkpt lat="45.98601" lon="4.87161">
        <ele>278</ele>
        <time>2017-05-16T09:27:00Z</time>
      </trkpt>
      <trkpt lat="45.986" lon="4.87168">
        <ele>277</ele>
        <time>2017-05-16T09:27:01Z</time>
      </trkpt>
      <trkpt lat="45.986" lon="4.87175">
        <ele>277</ele>
        <time>2017-05-16T09:27:02Z</time>
      </trkpt>
      <trkpt lat="45.986" lon="4.87184">
        <ele>277</ele>
        <time>2017-05-16T09:27:03Z</time>
      </trkpt>
      <trkpt lat="45.986" lon="4.87191">
        <ele>277</ele>
        <time>2017-05-16T09:27:04Z</time>
      </trkpt>
      <trkpt lat="45.98599" lon="4.87199">
        <ele>277</ele>
        <time>2017-05-16T09:27:05Z</time>
      </trkpt>
      <trkpt lat="45.98598" lon="4.87207">
        <ele>277</ele>
        <time>2017-05-16T09:27:06Z</time>
      </trkpt>
      <trkpt lat="45.98597" lon="4.87216">
        <ele>277</ele>
        <time>2017-05-16T09:27:07Z</time>
      </trkpt>
      <trkpt lat="45.98597" lon="4.87225">
        <ele>277</ele>
        <time>2017-05-16T09:27:08Z</time>
      </trkpt>
      <trkpt lat="45.98596" lon="4.87233">
        <ele>277</ele>
        <time>2017-05-16T09:27:09Z</time>
      </trkpt>
      <trkpt lat="45.98595" lon="4.87242">
        <ele>277</ele>
        <time>2017-05-16T09:27:10Z</time>
      </trkpt>
      <trkpt lat="45.98596" lon="4.87251">
        <ele>276</ele>
        <time>2017-05-16T09:27:11Z</time>
      </trkpt>
      <trkpt lat="45.98595" lon="4.87259">
        <ele>275</ele>
        <time>2017-05-16T09:27:12Z</time>
      </trkpt>
      <trkpt lat="45.98594" lon="4.87268">
        <ele>275</ele>
        <time>2017-05-16T09:27:13Z</time>
      </trkpt>
      <trkpt lat="45.98594" lon="4.87278">
        <ele>275</ele>
        <time>2017-05-16T09:27:14Z</time>
      </trkpt>
      <trkpt lat="45.98594" lon="4.87287">
        <ele>275</ele>
        <time>2017-05-16T09:27:15Z</time>
      </trkpt>
      <trkpt lat="45.98594" lon="4.87297">
        <ele>275</ele>
        <time>2017-05-16T09:27:16Z</time>
      </trkpt>
      <trkpt lat="45.98595" lon="4.87306">
        <ele>274</ele>
        <time>2017-05-16T09:27:17Z</time>
      </trkpt>
      <trkpt lat="45.98595" lon="4.87315">
        <ele>274</ele>
        <time>2017-05-16T09:27:18Z</time>
      </trkpt>
      <trkpt lat="45.98596" lon="4.87324">
        <ele>274</ele>
        <time>2017-05-16T09:27:19Z</time>
      </trkpt>
      <trkpt lat="45.98597" lon="4.87333">
        <ele>274</ele>
        <time>2017-05-16T09:27:20Z</time>
      </trkpt>
      <trkpt lat="45.98599" lon="4.87343">
        <ele>272</ele>
        <time>2017-05-16T09:27:21Z</time>
      </trkpt>
      <trkpt lat="45.98602" lon="4.87353">
        <ele>272</ele>
        <time>2017-05-16T09:27:22Z</time>
      </trkpt>
      <trkpt lat="45.98604" lon="4.87362">
        <ele>272</ele>
        <time>2017-05-16T09:27:23Z</time>
      </trkpt>
      <trkpt lat="45.98606" lon="4.87372">
        <ele>271</ele>
        <time>2017-05-16T09:27:24Z</time>
      </trkpt>
      <trkpt lat="45.98607" lon="4.87382">
        <ele>271</ele>
        <time>2017-05-16T09:27:25Z</time>
      </trkpt>
      <trkpt lat="45.9861" lon="4.87392">
        <ele>271</ele>
        <time>2017-05-16T09:27:26Z</time>
      </trkpt>
      <trkpt lat="45.98611" lon="4.87402">
        <ele>271</ele>
        <time>2017-05-16T09:27:27Z</time>
      </trkpt>
      <trkpt lat="45.98613" lon="4.87412">
        <ele>271</ele>
        <time>2017-05-16T09:27:28Z</time>
      </trkpt>
      <trkpt lat="45.98615" lon="4.87422">
        <ele>269</ele>
        <time>2017-05-16T09:27:29Z</time>
      </trkpt>
      <trkpt lat="45.98617" lon="4.87433">
        <ele>269</ele>
        <time>2017-05-16T09:27:30Z</time>
      </trkpt>
      <trkpt lat="45.98619" lon="4.87444">
        <ele>269</ele>
        <time>2017-05-16T09:27:31Z</time>
      </trkpt>
      <trkpt lat="45.98621" lon="4.87455">
        <ele>268</ele>
        <time>2017-05-16T09:27:32Z</time>
      </trkpt>
      <trkpt lat="45.98623" lon="4.87465">
        <ele>268</ele>
        <time>2017-05-16T09:27:33Z</time>
      </trkpt>
      <trkpt lat="45.98625" lon="4.87475">
        <ele>268</ele>
        <time>2017-05-16T09:27:34Z</time>
      </trkpt>
      <trkpt lat="45.98627" lon="4.87486">
        <ele>268</ele>
        <time>2017-05-16T09:27:35Z</time>
      </trkpt>
      <trkpt lat="45.98629" lon="4.87496">
        <ele>268</ele>
        <time>2017-05-16T09:27:36Z</time>
      </trkpt>
      <trkpt lat="45.98631" lon="4.87506">
        <ele>267</ele>
        <time>2017-05-16T09:27:37Z</time>
      </trkpt>
      <trkpt lat="45.98633" lon="4.87517">
        <ele>267</ele>
        <time>2017-05-16T09:27:38Z</time>
      </trkpt>
      <trkpt lat="45.98635" lon="4.87527">
        <ele>267</ele>
        <time>2017-05-16T09:27:39Z</time>
      </trkpt>
      <trkpt lat="45.98637" lon="4.87537">
        <ele>267</ele>
        <time>2017-05-16T09:27:40Z</time>
      </trkpt>
      <trkpt lat="45.9864" lon="4.87547">
        <ele>267</ele>
        <time>2017-05-16T09:27:41Z</time>
      </trkpt>
      <trkpt lat="45.98644" lon="4.87556">
        <ele>267</ele>
        <time>2017-05-16T09:27:42Z</time>
      </trkpt>
      <trkpt lat="45.98649" lon="4.87564">
        <ele>267</ele>
        <time>2017-05-16T09:27:43Z</time>
      </trkpt>
      <trkpt lat="45.98655" lon="4.8757">
        <ele>267</ele>
        <time>2017-05-16T09:27:44Z</time>
      </trkpt>
      <trkpt lat="45.98663" lon="4.87572">
        <ele>267</ele>
        <time>2017-05-16T09:27:45Z</time>
      </trkpt>
      <trkpt lat="45.9867" lon="4.87573">
        <ele>267</ele>
        <time>2017-05-16T09:27:46Z</time>
      </trkpt>
      <trkpt lat="45.98675" lon="4.87572">
        <ele>267</ele>
        <time>2017-05-16T09:27:47Z</time>
      </trkpt>
      <trkpt lat="45.98681" lon="4.87571">
        <ele>267</ele>
        <time>2017-05-16T09:27:48Z</time>
      </trkpt>
      <trkpt lat="45.98686" lon="4.8757">
        <ele>267</ele>
        <time>2017-05-16T09:27:49Z</time>
      </trkpt>
      <trkpt lat="45.98691" lon="4.87569">
        <ele>267</ele>
        <time>2017-05-16T09:27:50Z</time>
      </trkpt>
      <trkpt lat="45.98696" lon="4.87568">
        <ele>267</ele>
        <time>2017-05-16T09:27:51Z</time>
      </trkpt>
      <trkpt lat="45.98701" lon="4.87567">
        <ele>267</ele>
        <time>2017-05-16T09:27:52Z</time>
      </trkpt>
      <trkpt lat="45.98706" lon="4.87566">
        <ele>267</ele>
        <time>2017-05-16T09:27:53Z</time>
      </trkpt>
      <trkpt lat="45.9871" lon="4.87566">
        <ele>267</ele>
        <time>2017-05-16T09:27:54Z</time>
      </trkpt>
      <trkpt lat="45.98714" lon="4.87565">
        <ele>267</ele>
        <time>2017-05-16T09:27:55Z</time>
      </trkpt>
      <trkpt lat="45.98719" lon="4.87564">
        <ele>267</ele>
        <time>2017-05-16T09:27:56Z</time>
      </trkpt>
      <trkpt lat="45.98724" lon="4.87564">
        <ele>267</ele>
        <time>2017-05-16T09:27:57Z</time>
      </trkpt>
      <trkpt lat="45.9873" lon="4.87563">
        <ele>267</ele>
        <time>2017-05-16T09:27:58Z</time>
      </trkpt>
      <trkpt lat="45.98736" lon="4.87563">
        <ele>267</ele>
        <time>2017-05-16T09:27:59Z</time>
      </trkpt>
      <trkpt lat="45.9874" lon="4.87564">
        <ele>267</ele>
        <time>2017-05-16T09:28:00Z</time>
      </trkpt>
      <trkpt lat="45.98745" lon="4.87565">
        <ele>267</ele>
        <time>2017-05-16T09:28:01Z</time>
      </trkpt>
      <trkpt lat="45.9875" lon="4.87567">
        <ele>267</ele>
        <time>2017-05-16T09:28:02Z</time>
      </trkpt>
      <trkpt lat="45.98757" lon="4.87573">
        <ele>268</ele>
        <time>2017-05-16T09:28:04Z</time>
      </trkpt>
      <trkpt lat="45.98761" lon="4.87576">
        <ele>269</ele>
        <time>2017-05-16T09:28:05Z</time>
      </trkpt>
      <trkpt lat="45.98766" lon="4.8758">
        <ele>269</ele>
        <time>2017-05-16T09:28:06Z</time>
      </trkpt>
      <trkpt lat="45.9877" lon="4.87584">
        <ele>270</ele>
        <time>2017-05-16T09:28:07Z</time>
      </trkpt>
      <trkpt lat="45.98774" lon="4.87588">
        <ele>270</ele>
        <time>2017-05-16T09:28:08Z</time>
      </trkpt>
      <trkpt lat="45.98779" lon="4.87591">
        <ele>270</ele>
        <time>2017-05-16T09:28:09Z</time>
      </trkpt>
      <trkpt lat="45.98783" lon="4.87594">
        <ele>271</ele>
        <time>2017-05-16T09:28:10Z</time>
      </trkpt>
      <trkpt lat="45.98787" lon="4.87597">
        <ele>271</ele>
        <time>2017-05-16T09:28:11Z</time>
      </trkpt>
      <trkpt lat="45.98791" lon="4.87602">
        <ele>271</ele>
        <time>2017-05-16T09:28:12Z</time>
      </trkpt>
      <trkpt lat="45.98795" lon="4.87606">
        <ele>271</ele>
        <time>2017-05-16T09:28:13Z</time>
      </trkpt>
      <trkpt lat="45.988" lon="4.87617">
        <ele>271</ele>
        <time>2017-05-16T09:28:15Z</time>
      </trkpt>
      <trkpt lat="45.98803" lon="4.87622">
        <ele>271</ele>
        <time>2017-05-16T09:28:16Z</time>
      </trkpt>
      <trkpt lat="45.98805" lon="4.87628">
        <ele>271</ele>
        <time>2017-05-16T09:28:17Z</time>
      </trkpt>
      <trkpt lat="45.98807" lon="4.87635">
        <ele>271</ele>
        <time>2017-05-16T09:28:18Z</time>
      </trkpt>
      <trkpt lat="45.9881" lon="4.87647">
        <ele>272</ele>
        <time>2017-05-16T09:28:20Z</time>
      </trkpt>
      <trkpt lat="45.98811" lon="4.87652">
        <ele>272</ele>
        <time>2017-05-16T09:28:21Z</time>
      </trkpt>
      <trkpt lat="45.98813" lon="4.87664">
        <ele>272</ele>
        <time>2017-05-16T09:28:23Z</time>
      </trkpt>
      <trkpt lat="45.98815" lon="4.87669">
        <ele>273</ele>
        <time>2017-05-16T09:28:24Z</time>
      </trkpt>
      <trkpt lat="45.98816" lon="4.8768">
        <ele>273</ele>
        <time>2017-05-16T09:28:26Z</time>
      </trkpt>
      <trkpt lat="45.98817" lon="4.87686">
        <ele>273</ele>
        <time>2017-05-16T09:28:27Z</time>
      </trkpt>
      <trkpt lat="45.98818" lon="4.87692">
        <ele>273</ele>
        <time>2017-05-16T09:28:28Z</time>
      </trkpt>
      <trkpt lat="45.98821" lon="4.87698">
        <ele>273</ele>
        <time>2017-05-16T09:28:29Z</time>
      </trkpt>
      <trkpt lat="45.98823" lon="4.87704">
        <ele>273</ele>
        <time>2017-05-16T09:28:30Z</time>
      </trkpt>
      <trkpt lat="45.98826" lon="4.87709">
        <ele>273</ele>
        <time>2017-05-16T09:28:31Z</time>
      </trkpt>
      <trkpt lat="45.98829" lon="4.87721">
        <ele>274</ele>
        <time>2017-05-16T09:28:34Z</time>
      </trkpt>
      <trkpt lat="45.9883" lon="4.87724">
        <ele>274</ele>
        <time>2017-05-16T09:28:35Z</time>
      </trkpt>
      <trkpt lat="45.98832" lon="4.87734">
        <ele>273</ele>
        <time>2017-05-16T09:28:37Z</time>
      </trkpt>
      <trkpt lat="45.98832" lon="4.87738">
        <ele>273</ele>
        <time>2017-05-16T09:28:38Z</time>
      </trkpt>
      <trkpt lat="45.98834" lon="4.87748">
        <ele>273</ele>
        <time>2017-05-16T09:28:40Z</time>
      </trkpt>
      <trkpt lat="45.98835" lon="4.87753">
        <ele>273</ele>
        <time>2017-05-16T09:28:41Z</time>
      </trkpt>
      <trkpt lat="45.98838" lon="4.87765">
        <ele>273</ele>
        <time>2017-05-16T09:28:43Z</time>
      </trkpt>
      <trkpt lat="45.98839" lon="4.87771">
        <ele>273</ele>
        <time>2017-05-16T09:28:44Z</time>
      </trkpt>
      <trkpt lat="45.98841" lon="4.87778">
        <ele>273</ele>
        <time>2017-05-16T09:28:45Z</time>
      </trkpt>
      <trkpt lat="45.98842" lon="4.87784">
        <ele>273</ele>
        <time>2017-05-16T09:28:46Z</time>
      </trkpt>
      <trkpt lat="45.98844" lon="4.8779">
        <ele>273</ele>
        <time>2017-05-16T09:28:47Z</time>
      </trkpt>
      <trkpt lat="45.98847" lon="4.87797">
        <ele>273</ele>
        <time>2017-05-16T09:28:48Z</time>
      </trkpt>
      <trkpt lat="45.98849" lon="4.87803">
        <ele>273</ele>
        <time>2017-05-16T09:28:49Z</time>
      </trkpt>
      <trkpt lat="45.98852" lon="4.8781">
        <ele>273</ele>
        <time>2017-05-16T09:28:50Z</time>
      </trkpt>
      <trkpt lat="45.98854" lon="4.87816">
        <ele>273</ele>
        <time>2017-05-16T09:28:51Z</time>
      </trkpt>
      <trkpt lat="45.98856" lon="4.87822">
        <ele>273</ele>
        <time>2017-05-16T09:28:52Z</time>
      </trkpt>
      <trkpt lat="45.98859" lon="4.87828">
        <ele>273</ele>
        <time>2017-05-16T09:28:53Z</time>
      </trkpt>
      <trkpt lat="45.98862" lon="4.87834">
        <ele>273</ele>
        <time>2017-05-16T09:28:54Z</time>
      </trkpt>
      <trkpt lat="45.98864" lon="4.87839">
        <ele>273</ele>
        <time>2017-05-16T09:28:55Z</time>
      </trkpt>
      <trkpt lat="45.98867" lon="4.87845">
        <ele>273</ele>
        <time>2017-05-16T09:28:56Z</time>
      </trkpt>
      <trkpt lat="45.9887" lon="4.87851">
        <ele>273</ele>
        <time>2017-05-16T09:28:57Z</time>
      </trkpt>
      <trkpt lat="45.98874" lon="4.87858">
        <ele>273</ele>
        <time>2017-05-16T09:28:58Z</time>
      </trkpt>
      <trkpt lat="45.98877" lon="4.87865">
        <ele>272</ele>
        <time>2017-05-16T09:28:59Z</time>
      </trkpt>
      <trkpt lat="45.98881" lon="4.8787">
        <ele>272</ele>
        <time>2017-05-16T09:29:00Z</time>
      </trkpt>
      <trkpt lat="45.98885" lon="4.87876">
        <ele>272</ele>
        <time>2017-05-16T09:29:01Z</time>
      </trkpt>
      <trkpt lat="45.98888" lon="4.87881">
        <ele>272</ele>
        <time>2017-05-16T09:29:02Z</time>
      </trkpt>
      <trkpt lat="45.98892" lon="4.87886">
        <ele>272</ele>
        <time>2017-05-16T09:29:03Z</time>
      </trkpt>
      <trkpt lat="45.98896" lon="4.87892">
        <ele>272</ele>
        <time>2017-05-16T09:29:04Z</time>
      </trkpt>
      <trkpt lat="45.989" lon="4.87896">
        <ele>272</ele>
        <time>2017-05-16T09:29:05Z</time>
      </trkpt>
      <trkpt lat="45.98904" lon="4.87901">
        <ele>272</ele>
        <time>2017-05-16T09:29:06Z</time>
      </trkpt>
      <trkpt lat="45.98911" lon="4.87907">
        <ele>272</ele>
        <time>2017-05-16T09:29:08Z</time>
      </trkpt>
      <trkpt lat="45.98915" lon="4.8791">
        <ele>271</ele>
        <time>2017-05-16T09:29:09Z</time>
      </trkpt>
      <trkpt lat="45.9892" lon="4.87915">
        <ele>272</ele>
        <time>2017-05-16T09:29:11Z</time>
      </trkpt>
      <trkpt lat="45.98923" lon="4.87918">
        <ele>272</ele>
        <time>2017-05-16T09:29:12Z</time>
      </trkpt>
      <trkpt lat="45.98929" lon="4.87923">
        <ele>272</ele>
        <time>2017-05-16T09:29:14Z</time>
      </trkpt>
      <trkpt lat="45.98932" lon="4.87925">
        <ele>272</ele>
        <time>2017-05-16T09:29:15Z</time>
      </trkpt>
      <trkpt lat="45.98938" lon="4.87929">
        <ele>273</ele>
        <time>2017-05-16T09:29:17Z</time>
      </trkpt>
      <trkpt lat="45.98941" lon="4.87931">
        <ele>273</ele>
        <time>2017-05-16T09:29:18Z</time>
      </trkpt>
      <trkpt lat="45.98947" lon="4.87935">
        <ele>273</ele>
        <time>2017-05-16T09:29:20Z</time>
      </trkpt>
      <trkpt lat="45.98951" lon="4.87937">
        <ele>273</ele>
        <time>2017-05-16T09:29:21Z</time>
      </trkpt>
      <trkpt lat="45.98957" lon="4.87941">
        <ele>273</ele>
        <time>2017-05-16T09:29:23Z</time>
      </trkpt>
      <trkpt lat="45.9896" lon="4.87944">
        <ele>273</ele>
        <time>2017-05-16T09:29:24Z</time>
      </trkpt>
      <trkpt lat="45.98967" lon="4.87947">
        <ele>274</ele>
        <time>2017-05-16T09:29:26Z</time>
      </trkpt>
      <trkpt lat="45.98969" lon="4.87949">
        <ele>274</ele>
        <time>2017-05-16T09:29:27Z</time>
      </trkpt>
      <trkpt lat="45.98977" lon="4.87954">
        <ele>274</ele>
        <time>2017-05-16T09:29:29Z</time>
      </trkpt>
      <trkpt lat="45.98981" lon="4.87956">
        <ele>274</ele>
        <time>2017-05-16T09:29:30Z</time>
      </trkpt>
      <trkpt lat="45.98987" lon="4.87962">
        <ele>274</ele>
        <time>2017-05-16T09:29:32Z</time>
      </trkpt>
      <trkpt lat="45.98991" lon="4.87964">
        <ele>274</ele>
        <time>2017-05-16T09:29:33Z</time>
      </trkpt>
      <trkpt lat="45.98998" lon="4.87968">
        <ele>274</ele>
        <time>2017-05-16T09:29:35Z</time>
      </trkpt>
      <trkpt lat="45.99002" lon="4.8797">
        <ele>276</ele>
        <time>2017-05-16T09:29:36Z</time>
      </trkpt>
      <trkpt lat="45.99009" lon="4.87974">
        <ele>276</ele>
        <time>2017-05-16T09:29:38Z</time>
      </trkpt>
      <trkpt lat="45.99013" lon="4.87976">
        <ele>276</ele>
        <time>2017-05-16T09:29:39Z</time>
      </trkpt>
      <trkpt lat="45.9902" lon="4.8798">
        <ele>276</ele>
        <time>2017-05-16T09:29:41Z</time>
      </trkpt>
      <trkpt lat="45.99024" lon="4.87982">
        <ele>276</ele>
        <time>2017-05-16T09:29:42Z</time>
      </trkpt>
      <trkpt lat="45.99031" lon="4.87986">
        <ele>276</ele>
        <time>2017-05-16T09:29:44Z</time>
      </trkpt>
      <trkpt lat="45.99035" lon="4.87988">
        <ele>276</ele>
        <time>2017-05-16T09:29:45Z</time>
      </trkpt>
      <trkpt lat="45.99041" lon="4.87991">
        <ele>276</ele>
        <time>2017-05-16T09:29:47Z</time>
      </trkpt>
      <trkpt lat="45.99044" lon="4.87993">
        <ele>277</ele>
        <time>2017-05-16T09:29:48Z</time>
      </trkpt>
      <trkpt lat="45.99051" lon="4.87996">
        <ele>277</ele>
        <time>2017-05-16T09:29:50Z</time>
      </trkpt>
      <trkpt lat="45.99055" lon="4.87998">
        <ele>277</ele>
        <time>2017-05-16T09:29:51Z</time>
      </trkpt>
      <trkpt lat="45.99062" lon="4.88002">
        <ele>277</ele>
        <time>2017-05-16T09:29:53Z</time>
      </trkpt>
      <trkpt lat="45.99066" lon="4.88004">
        <ele>277</ele>
        <time>2017-05-16T09:29:54Z</time>
      </trkpt>
      <trkpt lat="45.99072" lon="4.88007">
        <ele>277</ele>
        <time>2017-05-16T09:29:56Z</time>
      </trkpt>
      <trkpt lat="45.99075" lon="4.88009">
        <ele>278</ele>
        <time>2017-05-16T09:29:57Z</time>
      </trkpt>
      <trkpt lat="45.99082" lon="4.88013">
        <ele>278</ele>
        <time>2017-05-16T09:29:59Z</time>
      </trkpt>
      <trkpt lat="45.99087" lon="4.88014">
        <ele>278</ele>
        <time>2017-05-16T09:30:00Z</time>
      </trkpt>
      <trkpt lat="45.99095" lon="4.88017">
        <ele>278</ele>
        <time>2017-05-16T09:30:02Z</time>
      </trkpt>
      <trkpt lat="45.99098" lon="4.88019">
        <ele>278</ele>
        <time>2017-05-16T09:30:03Z</time>
      </trkpt>
      <trkpt lat="45.99106" lon="4.88023">
        <ele>278</ele>
        <time>2017-05-16T09:30:05Z</time>
      </trkpt>
      <trkpt lat="45.99109" lon="4.88025">
        <ele>278</ele>
        <time>2017-05-16T09:30:06Z</time>
      </trkpt>
      <trkpt lat="45.99116" lon="4.88029">
        <ele>278</ele>
        <time>2017-05-16T09:30:08Z</time>
      </trkpt>
      <trkpt lat="45.99119" lon="4.88031">
        <ele>278</ele>
        <time>2017-05-16T09:30:09Z</time>
      </trkpt>
      <trkpt lat="45.99126" lon="4.88035">
        <ele>279</ele>
        <time>2017-05-16T09:30:11Z</time>
      </trkpt>
      <trkpt lat="45.99129" lon="4.88037">
        <ele>279</ele>
        <time>2017-05-16T09:30:12Z</time>
      </trkpt>
      <trkpt lat="45.99136" lon="4.88041">
        <ele>279</ele>
        <time>2017-05-16T09:30:14Z</time>
      </trkpt>
      <trkpt lat="45.99139" lon="4.88043">
        <ele>279</ele>
        <time>2017-05-16T09:30:15Z</time>
      </trkpt>
      <trkpt lat="45.99146" lon="4.88047">
        <ele>279</ele>
        <time>2017-05-16T09:30:17Z</time>
      </trkpt>
      <trkpt lat="45.9915" lon="4.88049">
        <ele>279</ele>
        <time>2017-05-16T09:30:18Z</time>
      </trkpt>
      <trkpt lat="45.99156" lon="4.88053">
        <ele>279</ele>
        <time>2017-05-16T09:30:20Z</time>
      </trkpt>
      <trkpt lat="45.9916" lon="4.88056">
        <ele>279</ele>
        <time>2017-05-16T09:30:21Z</time>
      </trkpt>
      <trkpt lat="45.99166" lon="4.88061">
        <ele>279</ele>
        <time>2017-05-16T09:30:23Z</time>
      </trkpt>
      <trkpt lat="45.99169" lon="4.88063">
        <ele>279</ele>
        <time>2017-05-16T09:30:24Z</time>
      </trkpt>
      <trkpt lat="45.99175" lon="4.88068">
        <ele>279</ele>
        <time>2017-05-16T09:30:26Z</time>
      </trkpt>
      <trkpt lat="45.99178" lon="4.88071">
        <ele>279</ele>
        <time>2017-05-16T09:30:27Z</time>
      </trkpt>
      <trkpt lat="45.99184" lon="4.88077">
        <ele>279</ele>
        <time>2017-05-16T09:30:29Z</time>
      </trkpt>
      <trkpt lat="45.99188" lon="4.8808">
        <ele>279</ele>
        <time>2017-05-16T09:30:30Z</time>
      </trkpt>
      <trkpt lat="45.99195" lon="4.88085">
        <ele>280</ele>
        <time>2017-05-16T09:30:32Z</time>
      </trkpt>
      <trkpt lat="45.99198" lon="4.88088">
        <ele>280</ele>
        <time>2017-05-16T09:30:33Z</time>
      </trkpt>
      <trkpt lat="45.99205" lon="4.88093">
        <ele>280</ele>
        <time>2017-05-16T09:30:35Z</time>
      </trkpt>
      <trkpt lat="45.99208" lon="4.88096">
        <ele>280</ele>
        <time>2017-05-16T09:30:36Z</time>
      </trkpt>
      <trkpt lat="45.99215" lon="4.88102">
        <ele>280</ele>
        <time>2017-05-16T09:30:38Z</time>
      </trkpt>
      <trkpt lat="45.99218" lon="4.88106">
        <ele>280</ele>
        <time>2017-05-16T09:30:39Z</time>
      </trkpt>
      <trkpt lat="45.99224" lon="4.88111">
        <ele>280</ele>
        <time>2017-05-16T09:30:41Z</time>
      </trkpt>
      <trkpt lat="45.99227" lon="4.88114">
        <ele>280</ele>
        <time>2017-05-16T09:30:42Z</time>
      </trkpt>
      <trkpt lat="45.99233" lon="4.88119">
        <ele>280</ele>
        <time>2017-05-16T09:30:44Z</time>
      </trkpt>
      <trkpt lat="45.99237" lon="4.88122">
        <ele>280</ele>
        <time>2017-05-16T09:30:45Z</time>
      </trkpt>
      <trkpt lat="45.99243" lon="4.88128">
        <ele>280</ele>
        <time>2017-05-16T09:30:47Z</time>
      </trkpt>
      <trkpt lat="45.99246" lon="4.88131">
        <ele>280</ele>
        <time>2017-05-16T09:30:48Z</time>
      </trkpt>
      <trkpt lat="45.99253" lon="4.88137">
        <ele>283</ele>
        <time>2017-05-16T09:30:50Z</time>
      </trkpt>
      <trkpt lat="45.99256" lon="4.8814">
        <ele>283</ele>
        <time>2017-05-16T09:30:51Z</time>
      </trkpt>
      <trkpt lat="45.99263" lon="4.88146">
        <ele>283</ele>
        <time>2017-05-16T09:30:53Z</time>
      </trkpt>
      <trkpt lat="45.99266" lon="4.88148">
        <ele>283</ele>
        <time>2017-05-16T09:30:54Z</time>
      </trkpt>
      <trkpt lat="45.99273" lon="4.88154">
        <ele>283</ele>
        <time>2017-05-16T09:30:56Z</time>
      </trkpt>
      <trkpt lat="45.99277" lon="4.88156">
        <ele>283</ele>
        <time>2017-05-16T09:30:57Z</time>
      </trkpt>
      <trkpt lat="45.99283" lon="4.88163">
        <ele>284</ele>
        <time>2017-05-16T09:30:59Z</time>
      </trkpt>
      <trkpt lat="45.99287" lon="4.88166">
        <ele>284</ele>
        <time>2017-05-16T09:31:00Z</time>
      </trkpt>
      <trkpt lat="45.99294" lon="4.88171">
        <ele>284</ele>
        <time>2017-05-16T09:31:02Z</time>
      </trkpt>
      <trkpt lat="45.99298" lon="4.88174">
        <ele>284</ele>
        <time>2017-05-16T09:31:03Z</time>
      </trkpt>
      <trkpt lat="45.99305" lon="4.88181">
        <ele>285</ele>
        <time>2017-05-16T09:31:05Z</time>
      </trkpt>
      <trkpt lat="45.99308" lon="4.88184">
        <ele>285</ele>
        <time>2017-05-16T09:31:06Z</time>
      </trkpt>
      <trkpt lat="45.99316" lon="4.88191">
        <ele>285</ele>
        <time>2017-05-16T09:31:08Z</time>
      </trkpt>
      <trkpt lat="45.99319" lon="4.88194">
        <ele>285</ele>
        <time>2017-05-16T09:31:09Z</time>
      </trkpt>
      <trkpt lat="45.99326" lon="4.88201">
        <ele>285</ele>
        <time>2017-05-16T09:31:11Z</time>
      </trkpt>
      <trkpt lat="45.99329" lon="4.88203">
        <ele>285</ele>
        <time>2017-05-16T09:31:12Z</time>
      </trkpt>
      <trkpt lat="45.99336" lon="4.88209">
        <ele>287</ele>
        <time>2017-05-16T09:31:14Z</time>
      </trkpt>
      <trkpt lat="45.99339" lon="4.88212">
        <ele>287</ele>
        <time>2017-05-16T09:31:15Z</time>
      </trkpt>
      <trkpt lat="45.99345" lon="4.88217">
        <ele>287</ele>
        <time>2017-05-16T09:31:17Z</time>
      </trkpt>
      <trkpt lat="45.99349" lon="4.88221">
        <ele>287</ele>
        <time>2017-05-16T09:31:18Z</time>
      </trkpt>
      <trkpt lat="45.99356" lon="4.88228">
        <ele>287</ele>
        <time>2017-05-16T09:31:20Z</time>
      </trkpt>
      <trkpt lat="45.9936" lon="4.88232">
        <ele>287</ele>
        <time>2017-05-16T09:31:21Z</time>
      </trkpt>
      <trkpt lat="45.99367" lon="4.8824">
        <ele>287</ele>
        <time>2017-05-16T09:31:23Z</time>
      </trkpt>
      <trkpt lat="45.9937" lon="4.88245">
        <ele>287</ele>
        <time>2017-05-16T09:31:24Z</time>
      </trkpt>
      <trkpt lat="45.99373" lon="4.88249">
        <ele>287</ele>
        <time>2017-05-16T09:31:25Z</time>
      </trkpt>
      <trkpt lat="45.99377" lon="4.88254">
        <ele>285</ele>
        <time>2017-05-16T09:31:26Z</time>
      </trkpt>
      <trkpt lat="45.99382" lon="4.88264">
        <ele>285</ele>
        <time>2017-05-16T09:31:28Z</time>
      </trkpt>
      <trkpt lat="45.99384" lon="4.88269">
        <ele>285</ele>
        <time>2017-05-16T09:31:29Z</time>
      </trkpt>
      <trkpt lat="45.99387" lon="4.88281">
        <ele>284</ele>
        <time>2017-05-16T09:31:31Z</time>
      </trkpt>
      <trkpt lat="45.99389" lon="4.88287">
        <ele>284</ele>
        <time>2017-05-16T09:31:32Z</time>
      </trkpt>
      <trkpt lat="45.99392" lon="4.88297">
        <ele>284</ele>
        <time>2017-05-16T09:31:34Z</time>
      </trkpt>
      <trkpt lat="45.99394" lon="4.88303">
        <ele>284</ele>
        <time>2017-05-16T09:31:35Z</time>
      </trkpt>
      <trkpt lat="45.99399" lon="4.88313">
        <ele>283</ele>
        <time>2017-05-16T09:31:37Z</time>
      </trkpt>
      <trkpt lat="45.99401" lon="4.88319">
        <ele>283</ele>
        <time>2017-05-16T09:31:38Z</time>
      </trkpt>
      <trkpt lat="45.99406" lon="4.88328">
        <ele>283</ele>
        <time>2017-05-16T09:31:40Z</time>
      </trkpt>
      <trkpt lat="45.99409" lon="4.88333">
        <ele>283</ele>
        <time>2017-05-16T09:31:41Z</time>
      </trkpt>
      <trkpt lat="45.99412" lon="4.88342">
        <ele>282</ele>
        <time>2017-05-16T09:31:43Z</time>
      </trkpt>
      <trkpt lat="45.99413" lon="4.88346">
        <ele>282</ele>
        <time>2017-05-16T09:31:44Z</time>
      </trkpt>
      <trkpt lat="45.99416" lon="4.88356">
        <ele>282</ele>
        <time>2017-05-16T09:31:46Z</time>
      </trkpt>
      <trkpt lat="45.99419" lon="4.88362">
        <ele>283</ele>
        <time>2017-05-16T09:31:47Z</time>
      </trkpt>
      <trkpt lat="45.99421" lon="4.88367">
        <ele>283</ele>
        <time>2017-05-16T09:31:48Z</time>
      </trkpt>
      <trkpt lat="45.99424" lon="4.88373">
        <ele>283</ele>
        <time>2017-05-16T09:31:49Z</time>
      </trkpt>
      <trkpt lat="45.99426" lon="4.8838">
        <ele>283</ele>
        <time>2017-05-16T09:31:50Z</time>
      </trkpt>
      <trkpt lat="45.99429" lon="4.88386">
        <ele>283</ele>
        <time>2017-05-16T09:31:51Z</time>
      </trkpt>
      <trkpt lat="45.99432" lon="4.88393">
        <ele>283</ele>
        <time>2017-05-16T09:31:52Z</time>
      </trkpt>
      <trkpt lat="45.99435" lon="4.88399">
        <ele>283</ele>
        <time>2017-05-16T09:31:53Z</time>
      </trkpt>
      <trkpt lat="45.99439" lon="4.88404">
        <ele>283</ele>
        <time>2017-05-16T09:31:54Z</time>
      </trkpt>
      <trkpt lat="45.99443" lon="4.88409">
        <ele>283</ele>
        <time>2017-05-16T09:31:55Z</time>
      </trkpt>
      <trkpt lat="45.99447" lon="4.88414">
        <ele>283</ele>
        <time>2017-05-16T09:31:56Z</time>
      </trkpt>
      <trkpt lat="45.99452" lon="4.88418">
        <ele>283</ele>
        <time>2017-05-16T09:31:57Z</time>
      </trkpt>
      <trkpt lat="45.99457" lon="4.88422">
        <ele>283</ele>
        <time>2017-05-16T09:31:58Z</time>
      </trkpt>
      <trkpt lat="45.99461" lon="4.88426">
        <ele>284</ele>
        <time>2017-05-16T09:31:59Z</time>
      </trkpt>
      <trkpt lat="45.99466" lon="4.8843">
        <ele>284</ele>
        <time>2017-05-16T09:32:00Z</time>
      </trkpt>
      <trkpt lat="45.9947" lon="4.88434">
        <ele>284</ele>
        <time>2017-05-16T09:32:01Z</time>
      </trkpt>
      <trkpt lat="45.99473" lon="4.88438">
        <ele>284</ele>
        <time>2017-05-16T09:32:02Z</time>
      </trkpt>
      <trkpt lat="45.99477" lon="4.88442">
        <ele>284</ele>
        <time>2017-05-16T09:32:03Z</time>
      </trkpt>
      <trkpt lat="45.9948" lon="4.88447">
        <ele>284</ele>
        <time>2017-05-16T09:32:04Z</time>
      </trkpt>
      <trkpt lat="45.99483" lon="4.88452">
        <ele>284</ele>
        <time>2017-05-16T09:32:05Z</time>
      </trkpt>
      <trkpt lat="45.99486" lon="4.88457">
        <ele>284</ele>
        <time>2017-05-16T09:32:06Z</time>
      </trkpt>
      <trkpt lat="45.99489" lon="4.88462">
        <ele>284</ele>
        <time>2017-05-16T09:32:07Z</time>
      </trkpt>
      <trkpt lat="45.99493" lon="4.88469">
        <ele>284</ele>
        <time>2017-05-16T09:32:08Z</time>
      </trkpt>
      <trkpt lat="45.99496" lon="4.88475">
        <ele>284</ele>
        <time>2017-05-16T09:32:09Z</time>
      </trkpt>
      <trkpt lat="45.995" lon="4.88481">
        <ele>284</ele>
        <time>2017-05-16T09:32:10Z</time>
      </trkpt>
      <trkpt lat="45.99504" lon="4.88488">
        <ele>284</ele>
        <time>2017-05-16T09:32:11Z</time>
      </trkpt>
      <trkpt lat="45.99508" lon="4.88494">
        <ele>284</ele>
        <time>2017-05-16T09:32:12Z</time>
      </trkpt>
      <trkpt lat="45.99512" lon="4.885">
        <ele>284</ele>
        <time>2017-05-16T09:32:13Z</time>
      </trkpt>
      <trkpt lat="45.99515" lon="4.88506">
        <ele>285</ele>
        <time>2017-05-16T09:32:14Z</time>
      </trkpt>
      <trkpt lat="45.99518" lon="4.88512">
        <ele>285</ele>
        <time>2017-05-16T09:32:15Z</time>
      </trkpt>
      <trkpt lat="45.99521" lon="4.88518">
        <ele>285</ele>
        <time>2017-05-16T09:32:16Z</time>
      </trkpt>
      <trkpt lat="45.99524" lon="4.88524">
        <ele>285</ele>
        <time>2017-05-16T09:32:17Z</time>
      </trkpt>
      <trkpt lat="45.99526" lon="4.8853">
        <ele>285</ele>
        <time>2017-05-16T09:32:18Z</time>
      </trkpt>
      <trkpt lat="45.99529" lon="4.88536">
        <ele>285</ele>
        <time>2017-05-16T09:32:19Z</time>
      </trkpt>
      <trkpt lat="45.99532" lon="4.88541">
        <ele>285</ele>
        <time>2017-05-16T09:32:20Z</time>
      </trkpt>
      <trkpt lat="45.99535" lon="4.88546">
        <ele>285</ele>
        <time>2017-05-16T09:32:21Z</time>
      </trkpt>
      <trkpt lat="45.99539" lon="4.88556">
        <ele>285</ele>
        <time>2017-05-16T09:32:23Z</time>
      </trkpt>
      <trkpt lat="45.99541" lon="4.88562">
        <ele>285</ele>
        <time>2017-05-16T09:32:24Z</time>
      </trkpt>
      <trkpt lat="45.99543" lon="4.88568">
        <ele>285</ele>
        <time>2017-05-16T09:32:25Z</time>
      </trkpt>
      <trkpt lat="45.99544" lon="4.88574">
        <ele>286</ele>
        <time>2017-05-16T09:32:26Z</time>
      </trkpt>
      <trkpt lat="45.99546" lon="4.88581">
        <ele>286</ele>
        <time>2017-05-16T09:32:27Z</time>
      </trkpt>
      <trkpt lat="45.99547" lon="4.88587">
        <ele>286</ele>
        <time>2017-05-16T09:32:28Z</time>
      </trkpt>
      <trkpt lat="45.99548" lon="4.88594">
        <ele>286</ele>
        <time>2017-05-16T09:32:29Z</time>
      </trkpt>
      <trkpt lat="45.99549" lon="4.88601">
        <ele>286</ele>
        <time>2017-05-16T09:32:30Z</time>
      </trkpt>
      <trkpt lat="45.9955" lon="4.88608">
        <ele>286</ele>
        <time>2017-05-16T09:32:31Z</time>
      </trkpt>
      <trkpt lat="45.9955" lon="4.88615">
        <ele>286</ele>
        <time>2017-05-16T09:32:32Z</time>
      </trkpt>
      <trkpt lat="45.99551" lon="4.88621">
        <ele>286</ele>
        <time>2017-05-16T09:32:33Z</time>
      </trkpt>
      <trkpt lat="45.99552" lon="4.88628">
        <ele>286</ele>
        <time>2017-05-16T09:32:34Z</time>
      </trkpt>
      <trkpt lat="45.99552" lon="4.88636">
        <ele>286</ele>
        <time>2017-05-16T09:32:35Z</time>
      </trkpt>
      <trkpt lat="45.99552" lon="4.88644">
        <ele>286</ele>
        <time>2017-05-16T09:32:36Z</time>
      </trkpt>
      <trkpt lat="45.99553" lon="4.88652">
        <ele>286</ele>
        <time>2017-05-16T09:32:37Z</time>
      </trkpt>
      <trkpt lat="45.99554" lon="4.8866">
        <ele>286</ele>
        <time>2017-05-16T09:32:38Z</time>
      </trkpt>
      <trkpt lat="45.99555" lon="4.88669">
        <ele>286</ele>
        <time>2017-05-16T09:32:39Z</time>
      </trkpt>
      <trkpt lat="45.99556" lon="4.88677">
        <ele>286</ele>
        <time>2017-05-16T09:32:40Z</time>
      </trkpt>
      <trkpt lat="45.99557" lon="4.88686">
        <ele>286</ele>
        <time>2017-05-16T09:32:41Z</time>
      </trkpt>
      <trkpt lat="45.99557" lon="4.88694">
        <ele>286</ele>
        <time>2017-05-16T09:32:42Z</time>
      </trkpt>
      <trkpt lat="45.99558" lon="4.88702">
        <ele>286</ele>
        <time>2017-05-16T09:32:43Z</time>
      </trkpt>
      <trkpt lat="45.99559" lon="4.8871">
        <ele>286</ele>
        <time>2017-05-16T09:32:44Z</time>
      </trkpt>
      <trkpt lat="45.9956" lon="4.88717">
        <ele>286</ele>
        <time>2017-05-16T09:32:45Z</time>
      </trkpt>
      <trkpt lat="45.99561" lon="4.88724">
        <ele>286</ele>
        <time>2017-05-16T09:32:46Z</time>
      </trkpt>
      <trkpt lat="45.99561" lon="4.88731">
        <ele>286</ele>
        <time>2017-05-16T09:32:47Z</time>
      </trkpt>
      <trkpt lat="45.99562" lon="4.88737">
        <ele>287</ele>
        <time>2017-05-16T09:32:48Z</time>
      </trkpt>
      <trkpt lat="45.99564" lon="4.88749">
        <ele>287</ele>
        <time>2017-05-16T09:32:50Z</time>
      </trkpt>
      <trkpt lat="45.99564" lon="4.88756">
        <ele>287</ele>
        <time>2017-05-16T09:32:51Z</time>
      </trkpt>
      <trkpt lat="45.99565" lon="4.88762">
        <ele>287</ele>
        <time>2017-05-16T09:32:52Z</time>
      </trkpt>
      <trkpt lat="45.99565" lon="4.88769">
        <ele>287</ele>
        <time>2017-05-16T09:32:53Z</time>
      </trkpt>
      <trkpt lat="45.99566" lon="4.88776">
        <ele>287</ele>
        <time>2017-05-16T09:32:54Z</time>
      </trkpt>
      <trkpt lat="45.99567" lon="4.88783">
        <ele>287</ele>
        <time>2017-05-16T09:32:55Z</time>
      </trkpt>
      <trkpt lat="45.99567" lon="4.8879">
        <ele>287</ele>
        <time>2017-05-16T09:32:56Z</time>
      </trkpt>
      <trkpt lat="45.99568" lon="4.88797">
        <ele>287</ele>
        <time>2017-05-16T09:32:57Z</time>
      </trkpt>
      <trkpt lat="45.99568" lon="4.88804">
        <ele>287</ele>
        <time>2017-05-16T09:32:58Z</time>
      </trkpt>
      <trkpt lat="45.99569" lon="4.88811">
        <ele>287</ele>
        <time>2017-05-16T09:32:59Z</time>
      </trkpt>
      <trkpt lat="45.9957" lon="4.88818">
        <ele>287</ele>
        <time>2017-05-16T09:33:00Z</time>
      </trkpt>
      <trkpt lat="45.99571" lon="4.88824">
        <ele>287</ele>
        <time>2017-05-16T09:33:01Z</time>
      </trkpt>
      <trkpt lat="45.99571" lon="4.88831">
        <ele>287</ele>
        <time>2017-05-16T09:33:02Z</time>
      </trkpt>
      <trkpt lat="45.99572" lon="4.88837">
        <ele>287</ele>
        <time>2017-05-16T09:33:03Z</time>
      </trkpt>
      <trkpt lat="45.99573" lon="4.88843">
        <ele>287</ele>
        <time>2017-05-16T09:33:04Z</time>
      </trkpt>
      <trkpt lat="45.99573" lon="4.8885">
        <ele>287</ele>
        <time>2017-05-16T09:33:05Z</time>
      </trkpt>
      <trkpt lat="45.99574" lon="4.88858">
        <ele>287</ele>
        <time>2017-05-16T09:33:06Z</time>
      </trkpt>
      <trkpt lat="45.99574" lon="4.88865">
        <ele>287</ele>
        <time>2017-05-16T09:33:07Z</time>
      </trkpt>
      <trkpt lat="45.99574" lon="4.88873">
        <ele>287</ele>
        <time>2017-05-16T09:33:08Z</time>
      </trkpt>
      <trkpt lat="45.99575" lon="4.88881">
        <ele>287</ele>
        <time>2017-05-16T09:33:09Z</time>
      </trkpt>
      <trkpt lat="45.99575" lon="4.88889">
        <ele>287</ele>
        <time>2017-05-16T09:33:10Z</time>
      </trkpt>
      <trkpt lat="45.99576" lon="4.88898">
        <ele>287</ele>
        <time>2017-05-16T09:33:11Z</time>
      </trkpt>
      <trkpt lat="45.99576" lon="4.88907">
        <ele>287</ele>
        <time>2017-05-16T09:33:12Z</time>
      </trkpt>
      <trkpt lat="45.99576" lon="4.88915">
        <ele>287</ele>
        <time>2017-05-16T09:33:13Z</time>
      </trkpt>
      <trkpt lat="45.99577" lon="4.88923">
        <ele>287</ele>
        <time>2017-05-16T09:33:14Z</time>
      </trkpt>
      <trkpt lat="45.99578" lon="4.8893">
        <ele>287</ele>
        <time>2017-05-16T09:33:15Z</time>
      </trkpt>
      <trkpt lat="45.99578" lon="4.88937">
        <ele>287</ele>
        <time>2017-05-16T09:33:16Z</time>
      </trkpt>
      <trkpt lat="45.99579" lon="4.88944">
        <ele>287</ele>
        <time>2017-05-16T09:33:17Z</time>
      </trkpt>
      <trkpt lat="45.99579" lon="4.88951">
        <ele>287</ele>
        <time>2017-05-16T09:33:18Z</time>
      </trkpt>
      <trkpt lat="45.9958" lon="4.88957">
        <ele>287</ele>
        <time>2017-05-16T09:33:19Z</time>
      </trkpt>
      <trkpt lat="45.99581" lon="4.88969">
        <ele>287</ele>
        <time>2017-05-16T09:33:21Z</time>
      </trkpt>
      <trkpt lat="45.99581" lon="4.88975">
        <ele>287</ele>
        <time>2017-05-16T09:33:22Z</time>
      </trkpt>
      <trkpt lat="45.99581" lon="4.88986">
        <ele>288</ele>
        <time>2017-05-16T09:33:24Z</time>
      </trkpt>
      <trkpt lat="45.99581" lon="4.88992">
        <ele>288</ele>
        <time>2017-05-16T09:33:25Z</time>
      </trkpt>
      <trkpt lat="45.99581" lon="4.89004">
        <ele>288</ele>
        <time>2017-05-16T09:33:27Z</time>
      </trkpt>
      <trkpt lat="45.99581" lon="4.89011">
        <ele>288</ele>
        <time>2017-05-16T09:33:28Z</time>
      </trkpt>
      <trkpt lat="45.9958" lon="4.89023">
        <ele>288</ele>
        <time>2017-05-16T09:33:30Z</time>
      </trkpt>
      <trkpt lat="45.9958" lon="4.89029">
        <ele>288</ele>
        <time>2017-05-16T09:33:31Z</time>
      </trkpt>
      <trkpt lat="45.99578" lon="4.89042">
        <ele>288</ele>
        <time>2017-05-16T09:33:33Z</time>
      </trkpt>
      <trkpt lat="45.99577" lon="4.89047">
        <ele>288</ele>
        <time>2017-05-16T09:33:34Z</time>
      </trkpt>
      <trkpt lat="45.99576" lon="4.89058">
        <ele>289</ele>
        <time>2017-05-16T09:33:36Z</time>
      </trkpt>
      <trkpt lat="45.99575" lon="4.89063">
        <ele>289</ele>
        <time>2017-05-16T09:33:37Z</time>
      </trkpt>
      <trkpt lat="45.99573" lon="4.89072">
        <ele>289</ele>
        <time>2017-05-16T09:33:39Z</time>
      </trkpt>
      <trkpt lat="45.99573" lon="4.89076">
        <ele>289</ele>
        <time>2017-05-16T09:33:40Z</time>
      </trkpt>
      <trkpt lat="45.99573" lon="4.89086">
        <ele>289</ele>
        <time>2017-05-16T09:33:42Z</time>
      </trkpt>
      <trkpt lat="45.99573" lon="4.89091">
        <ele>289</ele>
        <time>2017-05-16T09:33:43Z</time>
      </trkpt>
      <trkpt lat="45.99571" lon="4.89104">
        <ele>289</ele>
        <time>2017-05-16T09:33:45Z</time>
      </trkpt>
      <trkpt lat="45.9957" lon="4.8911">
        <ele>289</ele>
        <time>2017-05-16T09:33:46Z</time>
      </trkpt>
      <trkpt lat="45.9957" lon="4.89117">
        <ele>289</ele>
        <time>2017-05-16T09:33:47Z</time>
      </trkpt>
      <trkpt lat="45.99571" lon="4.89124">
        <ele>289</ele>
        <time>2017-05-16T09:33:48Z</time>
      </trkpt>
      <trkpt lat="45.99571" lon="4.89131">
        <ele>289</ele>
        <time>2017-05-16T09:33:49Z</time>
      </trkpt>
      <trkpt lat="45.99571" lon="4.89138">
        <ele>289</ele>
        <time>2017-05-16T09:33:50Z</time>
      </trkpt>
      <trkpt lat="45.99571" lon="4.89145">
        <ele>289</ele>
        <time>2017-05-16T09:33:51Z</time>
      </trkpt>
      <trkpt lat="45.99571" lon="4.89152">
        <ele>289</ele>
        <time>2017-05-16T09:33:52Z</time>
      </trkpt>
      <trkpt lat="45.99572" lon="4.89164">
        <ele>288</ele>
        <time>2017-05-16T09:33:54Z</time>
      </trkpt>
      <trkpt lat="45.99573" lon="4.8917">
        <ele>288</ele>
        <time>2017-05-16T09:33:55Z</time>
      </trkpt>
      <trkpt lat="45.99573" lon="4.89182">
        <ele>288</ele>
        <time>2017-05-16T09:33:57Z</time>
      </trkpt>
      <trkpt lat="45.99574" lon="4.89189">
        <ele>288</ele>
        <time>2017-05-16T09:33:58Z</time>
      </trkpt>
      <trkpt lat="45.99574" lon="4.89195">
        <ele>288</ele>
        <time>2017-05-16T09:33:59Z</time>
      </trkpt>
      <trkpt lat="45.99575" lon="4.89202">
        <ele>288</ele>
        <time>2017-05-16T09:34:00Z</time>
      </trkpt>
      <trkpt lat="45.99576" lon="4.89209">
        <ele>288</ele>
        <time>2017-05-16T09:34:01Z</time>
      </trkpt>
      <trkpt lat="45.99577" lon="4.89215">
        <ele>288</ele>
        <time>2017-05-16T09:34:02Z</time>
      </trkpt>
      <trkpt lat="45.99577" lon="4.89222">
        <ele>288</ele>
        <time>2017-05-16T09:34:03Z</time>
      </trkpt>
      <trkpt lat="45.99578" lon="4.89229">
        <ele>288</ele>
        <time>2017-05-16T09:34:04Z</time>
      </trkpt>
      <trkpt lat="45.99578" lon="4.89236">
        <ele>288</ele>
        <time>2017-05-16T09:34:05Z</time>
      </trkpt>
      <trkpt lat="45.99579" lon="4.89243">
        <ele>288</ele>
        <time>2017-05-16T09:34:06Z</time>
      </trkpt>
      <trkpt lat="45.99579" lon="4.8925">
        <ele>288</ele>
        <time>2017-05-16T09:34:07Z</time>
      </trkpt>
      <trkpt lat="45.99579" lon="4.89258">
        <ele>288</ele>
        <time>2017-05-16T09:34:08Z</time>
      </trkpt>
      <trkpt lat="45.9958" lon="4.89266">
        <ele>288</ele>
        <time>2017-05-16T09:34:09Z</time>
      </trkpt>
      <trkpt lat="45.99581" lon="4.89273">
        <ele>288</ele>
        <time>2017-05-16T09:34:10Z</time>
      </trkpt>
      <trkpt lat="45.99581" lon="4.89281">
        <ele>288</ele>
        <time>2017-05-16T09:34:11Z</time>
      </trkpt>
      <trkpt lat="45.99582" lon="4.89287">
        <ele>288</ele>
        <time>2017-05-16T09:34:12Z</time>
      </trkpt>
      <trkpt lat="45.99582" lon="4.89299">
        <ele>288</ele>
        <time>2017-05-16T09:34:14Z</time>
      </trkpt>
      <trkpt lat="45.99583" lon="4.89305">
        <ele>288</ele>
        <time>2017-05-16T09:34:15Z</time>
      </trkpt>
      <trkpt lat="45.99584" lon="4.89317">
        <ele>289</ele>
        <time>2017-05-16T09:34:17Z</time>
      </trkpt>
      <trkpt lat="45.99584" lon="4.89323">
        <ele>289</ele>
        <time>2017-05-16T09:34:18Z</time>
      </trkpt>
      <trkpt lat="45.99585" lon="4.89335">
        <ele>289</ele>
        <time>2017-05-16T09:34:20Z</time>
      </trkpt>
      <trkpt lat="45.99585" lon="4.89342">
        <ele>289</ele>
        <time>2017-05-16T09:34:21Z</time>
      </trkpt>
      <trkpt lat="45.99586" lon="4.89354">
        <ele>289</ele>
        <time>2017-05-16T09:34:23Z</time>
      </trkpt>
      <trkpt lat="45.99586" lon="4.89361">
        <ele>289</ele>
        <time>2017-05-16T09:34:24Z</time>
      </trkpt>
      <trkpt lat="45.99588" lon="4.89373">
        <ele>289</ele>
        <time>2017-05-16T09:34:26Z</time>
      </trkpt>
      <trkpt lat="45.99588" lon="4.89379">
        <ele>290</ele>
        <time>2017-05-16T09:34:27Z</time>
      </trkpt>
      <trkpt lat="45.99588" lon="4.89391">
        <ele>290</ele>
        <time>2017-05-16T09:34:29Z</time>
      </trkpt>
      <trkpt lat="45.99588" lon="4.89399">
        <ele>290</ele>
        <time>2017-05-16T09:34:30Z</time>
      </trkpt>
      <trkpt lat="45.99589" lon="4.89406">
        <ele>290</ele>
        <time>2017-05-16T09:34:31Z</time>
      </trkpt>
      <trkpt lat="45.9959" lon="4.89414">
        <ele>290</ele>
        <time>2017-05-16T09:34:32Z</time>
      </trkpt>
      <trkpt lat="45.9959" lon="4.89421">
        <ele>290</ele>
        <time>2017-05-16T09:34:33Z</time>
      </trkpt>
      <trkpt lat="45.99591" lon="4.89429">
        <ele>290</ele>
        <time>2017-05-16T09:34:34Z</time>
      </trkpt>
      <trkpt lat="45.99592" lon="4.89437">
        <ele>290</ele>
        <time>2017-05-16T09:34:35Z</time>
      </trkpt>
      <trkpt lat="45.99593" lon="4.89444">
        <ele>290</ele>
        <time>2017-05-16T09:34:36Z</time>
      </trkpt>
      <trkpt lat="45.99593" lon="4.89452">
        <ele>290</ele>
        <time>2017-05-16T09:34:37Z</time>
      </trkpt>
      <trkpt lat="45.99594" lon="4.89459">
        <ele>290</ele>
        <time>2017-05-16T09:34:38Z</time>
      </trkpt>
      <trkpt lat="45.99594" lon="4.89467">
        <ele>290</ele>
        <time>2017-05-16T09:34:39Z</time>
      </trkpt>
      <trkpt lat="45.99595" lon="4.89475">
        <ele>290</ele>
        <time>2017-05-16T09:34:40Z</time>
      </trkpt>
      <trkpt lat="45.99595" lon="4.89482">
        <ele>290</ele>
        <time>2017-05-16T09:34:41Z</time>
      </trkpt>
      <trkpt lat="45.99595" lon="4.89489">
        <ele>290</ele>
        <time>2017-05-16T09:34:42Z</time>
      </trkpt>
      <trkpt lat="45.99596" lon="4.89497">
        <ele>290</ele>
        <time>2017-05-16T09:34:43Z</time>
      </trkpt>
      <trkpt lat="45.99596" lon="4.89505">
        <ele>290</ele>
        <time>2017-05-16T09:34:44Z</time>
      </trkpt>
      <trkpt lat="45.99596" lon="4.89512">
        <ele>290</ele>
        <time>2017-05-16T09:34:45Z</time>
      </trkpt>
      <trkpt lat="45.99597" lon="4.89519">
        <ele>290</ele>
        <time>2017-05-16T09:34:46Z</time>
      </trkpt>
      <trkpt lat="45.99597" lon="4.89526">
        <ele>291</ele>
        <time>2017-05-16T09:34:47Z</time>
      </trkpt>
      <trkpt lat="45.99598" lon="4.89533">
        <ele>291</ele>
        <time>2017-05-16T09:34:48Z</time>
      </trkpt>
      <trkpt lat="45.99598" lon="4.89545">
        <ele>291</ele>
        <time>2017-05-16T09:34:50Z</time>
      </trkpt>
      <trkpt lat="45.99599" lon="4.89551">
        <ele>291</ele>
        <time>2017-05-16T09:34:51Z</time>
      </trkpt>
      <trkpt lat="45.996" lon="4.89564">
        <ele>291</ele>
        <time>2017-05-16T09:34:53Z</time>
      </trkpt>
      <trkpt lat="45.996" lon="4.89571">
        <ele>291</ele>
        <time>2017-05-16T09:34:54Z</time>
      </trkpt>
      <trkpt lat="45.99601" lon="4.89577">
        <ele>291</ele>
        <time>2017-05-16T09:34:55Z</time>
      </trkpt>
      <trkpt lat="45.99601" lon="4.89584">
        <ele>292</ele>
        <time>2017-05-16T09:34:56Z</time>
      </trkpt>
      <trkpt lat="45.99603" lon="4.89596">
        <ele>292</ele>
        <time>2017-05-16T09:34:58Z</time>
      </trkpt>
      <trkpt lat="45.99603" lon="4.89603">
        <ele>292</ele>
        <time>2017-05-16T09:34:59Z</time>
      </trkpt>
      <trkpt lat="45.99603" lon="4.8961">
        <ele>291</ele>
        <time>2017-05-16T09:35:00Z</time>
      </trkpt>
      <trkpt lat="45.99603" lon="4.89617">
        <ele>291</ele>
        <time>2017-05-16T09:35:01Z</time>
      </trkpt>
      <trkpt lat="45.99603" lon="4.89624">
        <ele>291</ele>
        <time>2017-05-16T09:35:02Z</time>
      </trkpt>
      <trkpt lat="45.99602" lon="4.89631">
        <ele>291</ele>
        <time>2017-05-16T09:35:03Z</time>
      </trkpt>
      <trkpt lat="45.99602" lon="4.89638">
        <ele>291</ele>
        <time>2017-05-16T09:35:04Z</time>
      </trkpt>
      <trkpt lat="45.99602" lon="4.89645">
        <ele>291</ele>
        <time>2017-05-16T09:35:05Z</time>
      </trkpt>
      <trkpt lat="45.99601" lon="4.89652">
        <ele>292</ele>
        <time>2017-05-16T09:35:06Z</time>
      </trkpt>
      <trkpt lat="45.99601" lon="4.89659">
        <ele>292</ele>
        <time>2017-05-16T09:35:07Z</time>
      </trkpt>
      <trkpt lat="45.99601" lon="4.89666">
        <ele>292</ele>
        <time>2017-05-16T09:35:08Z</time>
      </trkpt>
      <trkpt lat="45.996" lon="4.89672">
        <ele>292</ele>
        <time>2017-05-16T09:35:09Z</time>
      </trkpt>
      <trkpt lat="45.99601" lon="4.89683">
        <ele>292</ele>
        <time>2017-05-16T09:35:11Z</time>
      </trkpt>
      <trkpt lat="45.99601" lon="4.89688">
        <ele>292</ele>
        <time>2017-05-16T09:35:12Z</time>
      </trkpt>
      <trkpt lat="45.99599" lon="4.89699">
        <ele>292</ele>
        <time>2017-05-16T09:35:14Z</time>
      </trkpt>
      <trkpt lat="45.99599" lon="4.89705">
        <ele>292</ele>
        <time>2017-05-16T09:35:15Z</time>
      </trkpt>
      <trkpt lat="45.99599" lon="4.89715">
        <ele>292</ele>
        <time>2017-05-16T09:35:17Z</time>
      </trkpt>
      <trkpt lat="45.996" lon="4.8972">
        <ele>292</ele>
        <time>2017-05-16T09:35:18Z</time>
      </trkpt>
      <trkpt lat="45.996" lon="4.89732">
        <ele>292</ele>
        <time>2017-05-16T09:35:20Z</time>
      </trkpt>
      <trkpt lat="45.99601" lon="4.89738">
        <ele>292</ele>
        <time>2017-05-16T09:35:21Z</time>
      </trkpt>
      <trkpt lat="45.996" lon="4.89749">
        <ele>292</ele>
        <time>2017-05-16T09:35:23Z</time>
      </trkpt>
      <trkpt lat="45.996" lon="4.89755">
        <ele>292</ele>
        <time>2017-05-16T09:35:24Z</time>
      </trkpt>
      <trkpt lat="45.996" lon="4.89767">
        <ele>292</ele>
        <time>2017-05-16T09:35:26Z</time>
      </trkpt>
      <trkpt lat="45.99599" lon="4.89774">
        <ele>292</ele>
        <time>2017-05-16T09:35:27Z</time>
      </trkpt>
      <trkpt lat="45.99599" lon="4.89781">
        <ele>292</ele>
        <time>2017-05-16T09:35:28Z</time>
      </trkpt>
      <trkpt lat="45.99599" lon="4.89789">
        <ele>292</ele>
        <time>2017-05-16T09:35:29Z</time>
      </trkpt>
      <trkpt lat="45.99599" lon="4.89797">
        <ele>292</ele>
        <time>2017-05-16T09:35:30Z</time>
      </trkpt>
      <trkpt lat="45.99598" lon="4.89803">
        <ele>292</ele>
        <time>2017-05-16T09:35:31Z</time>
      </trkpt>
      <trkpt lat="45.99598" lon="4.89816">
        <ele>292</ele>
        <time>2017-05-16T09:35:33Z</time>
      </trkpt>
      <trkpt lat="45.99598" lon="4.89821">
        <ele>293</ele>
        <time>2017-05-16T09:35:34Z</time>
      </trkpt>
      <trkpt lat="45.99597" lon="4.89831">
        <ele>293</ele>
        <time>2017-05-16T09:35:36Z</time>
      </trkpt>
      <trkpt lat="45.99597" lon="4.89836">
        <ele>293</ele>
        <time>2017-05-16T09:35:37Z</time>
      </trkpt>
      <trkpt lat="45.99596" lon="4.89847">
        <ele>293</ele>
        <time>2017-05-16T09:35:39Z</time>
      </trkpt>
      <trkpt lat="45.99596" lon="4.89854">
        <ele>293</ele>
        <time>2017-05-16T09:35:40Z</time>
      </trkpt>
      <trkpt lat="45.99595" lon="4.89862">
        <ele>293</ele>
        <time>2017-05-16T09:35:41Z</time>
      </trkpt>
      <trkpt lat="45.99595" lon="4.8987">
        <ele>293</ele>
        <time>2017-05-16T09:35:42Z</time>
      </trkpt>
      <trkpt lat="45.99594" lon="4.89877">
        <ele>292</ele>
        <time>2017-05-16T09:35:43Z</time>
      </trkpt>
      <trkpt lat="45.99594" lon="4.89883">
        <ele>292</ele>
        <time>2017-05-16T09:35:44Z</time>
      </trkpt>
      <trkpt lat="45.99594" lon="4.8989">
        <ele>292</ele>
        <time>2017-05-16T09:35:45Z</time>
      </trkpt>
      <trkpt lat="45.99594" lon="4.89897">
        <ele>292</ele>
        <time>2017-05-16T09:35:46Z</time>
      </trkpt>
      <trkpt lat="45.99595" lon="4.89905">
        <ele>292</ele>
        <time>2017-05-16T09:35:47Z</time>
      </trkpt>
      <trkpt lat="45.99595" lon="4.89911">
        <ele>292</ele>
        <time>2017-05-16T09:35:48Z</time>
      </trkpt>
      <trkpt lat="45.99595" lon="4.89923">
        <ele>293</ele>
        <time>2017-05-16T09:35:50Z</time>
      </trkpt>
      <trkpt lat="45.99595" lon="4.89929">
        <ele>293</ele>
        <time>2017-05-16T09:35:51Z</time>
      </trkpt>
      <trkpt lat="45.99595" lon="4.89935">
        <ele>293</ele>
        <time>2017-05-16T09:35:52Z</time>
      </trkpt>
      <trkpt lat="45.99596" lon="4.89942">
        <ele>293</ele>
        <time>2017-05-16T09:35:53Z</time>
      </trkpt>
      <trkpt lat="45.99596" lon="4.89949">
        <ele>294</ele>
        <time>2017-05-16T09:35:54Z</time>
      </trkpt>
      <trkpt lat="45.99597" lon="4.89955">
        <ele>294</ele>
        <time>2017-05-16T09:35:55Z</time>
      </trkpt>
      <trkpt lat="45.99598" lon="4.89968">
        <ele>294</ele>
        <time>2017-05-16T09:35:57Z</time>
      </trkpt>
      <trkpt lat="45.99598" lon="4.89974">
        <ele>294</ele>
        <time>2017-05-16T09:35:58Z</time>
      </trkpt>
      <trkpt lat="45.99599" lon="4.89985">
        <ele>294</ele>
        <time>2017-05-16T09:36:00Z</time>
      </trkpt>
      <trkpt lat="45.996" lon="4.89991">
        <ele>295</ele>
        <time>2017-05-16T09:36:01Z</time>
      </trkpt>
      <trkpt lat="45.99603" lon="4.90003">
        <ele>296</ele>
        <time>2017-05-16T09:36:03Z</time>
      </trkpt>
      <trkpt lat="45.99603" lon="4.90008">
        <ele>296</ele>
        <time>2017-05-16T09:36:04Z</time>
      </trkpt>
      <trkpt lat="45.99606" lon="4.90019">
        <ele>296</ele>
        <time>2017-05-16T09:36:06Z</time>
      </trkpt>
      <trkpt lat="45.99608" lon="4.90025">
        <ele>296</ele>
        <time>2017-05-16T09:36:07Z</time>
      </trkpt>
      <trkpt lat="45.99611" lon="4.90031">
        <ele>296</ele>
        <time>2017-05-16T09:36:08Z</time>
      </trkpt>
      <trkpt lat="45.99613" lon="4.90036">
        <ele>296</ele>
        <time>2017-05-16T09:36:09Z</time>
      </trkpt>
      <trkpt lat="45.99617" lon="4.90047">
        <ele>297</ele>
        <time>2017-05-16T09:36:11Z</time>
      </trkpt>
      <trkpt lat="45.99619" lon="4.90054">
        <ele>297</ele>
        <time>2017-05-16T09:36:12Z</time>
      </trkpt>
      <trkpt lat="45.99621" lon="4.9006">
        <ele>297</ele>
        <time>2017-05-16T09:36:13Z</time>
      </trkpt>
      <trkpt lat="45.99623" lon="4.90065">
        <ele>297</ele>
        <time>2017-05-16T09:36:14Z</time>
      </trkpt>
      <trkpt lat="45.99625" lon="4.90071">
        <ele>297</ele>
        <time>2017-05-16T09:36:15Z</time>
      </trkpt>
      <trkpt lat="45.99627" lon="4.90077">
        <ele>297</ele>
        <time>2017-05-16T09:36:16Z</time>
      </trkpt>
      <trkpt lat="45.99629" lon="4.90084">
        <ele>298</ele>
        <time>2017-05-16T09:36:17Z</time>
      </trkpt>
      <trkpt lat="45.9963" lon="4.9009">
        <ele>299</ele>
        <time>2017-05-16T09:36:18Z</time>
      </trkpt>
      <trkpt lat="45.99633" lon="4.901">
        <ele>299</ele>
        <time>2017-05-16T09:36:20Z</time>
      </trkpt>
      <trkpt lat="45.99634" lon="4.90106">
        <ele>299</ele>
        <time>2017-05-16T09:36:21Z</time>
      </trkpt>
      <trkpt lat="45.99637" lon="4.90115">
        <ele>299</ele>
        <time>2017-05-16T09:36:23Z</time>
      </trkpt>
      <trkpt lat="45.99639" lon="4.90119">
        <ele>299</ele>
        <time>2017-05-16T09:36:24Z</time>
      </trkpt>
      <trkpt lat="45.99641" lon="4.90128">
        <ele>299</ele>
        <time>2017-05-16T09:36:26Z</time>
      </trkpt>
      <trkpt lat="45.99642" lon="4.90132">
        <ele>299</ele>
        <time>2017-05-16T09:36:27Z</time>
      </trkpt>
      <trkpt lat="45.99645" lon="4.90142">
        <ele>299</ele>
        <time>2017-05-16T09:36:29Z</time>
      </trkpt>
      <trkpt lat="45.99646" lon="4.90146">
        <ele>300</ele>
        <time>2017-05-16T09:36:30Z</time>
      </trkpt>
      <trkpt lat="45.99649" lon="4.90155">
        <ele>300</ele>
        <time>2017-05-16T09:36:32Z</time>
      </trkpt>
      <trkpt lat="45.9965" lon="4.90161">
        <ele>300</ele>
        <time>2017-05-16T09:36:33Z</time>
      </trkpt>
      <trkpt lat="45.99653" lon="4.9017">
        <ele>301</ele>
        <time>2017-05-16T09:36:35Z</time>
      </trkpt>
      <trkpt lat="45.99654" lon="4.90175">
        <ele>301</ele>
        <time>2017-05-16T09:36:36Z</time>
      </trkpt>
      <trkpt lat="45.99658" lon="4.90186">
        <ele>301</ele>
        <time>2017-05-16T09:36:38Z</time>
      </trkpt>
      <trkpt lat="45.9966" lon="4.90191">
        <ele>301</ele>
        <time>2017-05-16T09:36:39Z</time>
      </trkpt>
      <trkpt lat="45.99662" lon="4.90202">
        <ele>302</ele>
        <time>2017-05-16T09:36:41Z</time>
      </trkpt>
      <trkpt lat="45.99663" lon="4.90208">
        <ele>302</ele>
        <time>2017-05-16T09:36:42Z</time>
      </trkpt>
      <trkpt lat="45.99665" lon="4.90214">
        <ele>302</ele>
        <time>2017-05-16T09:36:43Z</time>
      </trkpt>
      <trkpt lat="45.99667" lon="4.9022">
        <ele>303</ele>
        <time>2017-05-16T09:36:44Z</time>
      </trkpt>
      <trkpt lat="45.99671" lon="4.90231">
        <ele>304</ele>
        <time>2017-05-16T09:36:46Z</time>
      </trkpt>
      <trkpt lat="45.99672" lon="4.90237">
        <ele>304</ele>
        <time>2017-05-16T09:36:47Z</time>
      </trkpt>
      <trkpt lat="45.99674" lon="4.90249">
        <ele>304</ele>
        <time>2017-05-16T09:36:49Z</time>
      </trkpt>
      <trkpt lat="45.99675" lon="4.90254">
        <ele>304</ele>
        <time>2017-05-16T09:36:50Z</time>
      </trkpt>
      <trkpt lat="45.99674" lon="4.90265">
        <ele>304</ele>
        <time>2017-05-16T09:36:52Z</time>
      </trkpt>
      <trkpt lat="45.99674" lon="4.9027">
        <ele>304</ele>
        <time>2017-05-16T09:36:53Z</time>
      </trkpt>
      <trkpt lat="45.99672" lon="4.90281">
        <ele>304</ele>
        <time>2017-05-16T09:36:55Z</time>
      </trkpt>
      <trkpt lat="45.99672" lon="4.90288">
        <ele>304</ele>
        <time>2017-05-16T09:36:56Z</time>
      </trkpt>
      <trkpt lat="45.99671" lon="4.90294">
        <ele>304</ele>
        <time>2017-05-16T09:36:57Z</time>
      </trkpt>
      <trkpt lat="45.9967" lon="4.90301">
        <ele>304</ele>
        <time>2017-05-16T09:36:58Z</time>
      </trkpt>
      <trkpt lat="45.99668" lon="4.90311">
        <ele>304</ele>
        <time>2017-05-16T09:37:00Z</time>
      </trkpt>
      <trkpt lat="45.99668" lon="4.90316">
        <ele>303</ele>
        <time>2017-05-16T09:37:01Z</time>
      </trkpt>
      <trkpt lat="45.99668" lon="4.90328">
        <ele>303</ele>
        <time>2017-05-16T09:37:06Z</time>
      </trkpt>
      <trkpt lat="45.99669" lon="4.90329">
        <ele>303</ele>
        <time>2017-05-16T09:37:07Z</time>
      </trkpt>
      <trkpt lat="45.99677" lon="4.90334">
        <ele>302</ele>
        <time>2017-05-16T09:37:12Z</time>
      </trkpt>
      <trkpt lat="45.99679" lon="4.90337">
        <ele>302</ele>
        <time>2017-05-16T09:37:13Z</time>
      </trkpt>
      <trkpt lat="45.99681" lon="4.90345">
        <ele>302</ele>
        <time>2017-05-16T09:37:15Z</time>
      </trkpt>
      <trkpt lat="45.99681" lon="4.9035">
        <ele>302</ele>
        <time>2017-05-16T09:37:16Z</time>
      </trkpt>
      <trkpt lat="45.99681" lon="4.90356">
        <ele>302</ele>
        <time>2017-05-16T09:37:17Z</time>
      </trkpt>
      <trkpt lat="45.99677" lon="4.90363">
        <ele>302</ele>
        <time>2017-05-16T09:37:18Z</time>
      </trkpt>
      <trkpt lat="45.99676" lon="4.90369">
        <ele>302</ele>
        <time>2017-05-16T09:37:19Z</time>
      </trkpt>
      <trkpt lat="45.99674" lon="4.90375">
        <ele>302</ele>
        <time>2017-05-16T09:37:20Z</time>
      </trkpt>
      <trkpt lat="45.99673" lon="4.90382">
        <ele>302</ele>
        <time>2017-05-16T09:37:21Z</time>
      </trkpt>
      <trkpt lat="45.9967" lon="4.9039">
        <ele>302</ele>
        <time>2017-05-16T09:37:22Z</time>
      </trkpt>
      <trkpt lat="45.99668" lon="4.904">
        <ele>302</ele>
        <time>2017-05-16T09:37:23Z</time>
      </trkpt>
      <trkpt lat="45.99666" lon="4.90409">
        <ele>301</ele>
        <time>2017-05-16T09:37:24Z</time>
      </trkpt>
      <trkpt lat="45.99665" lon="4.90419">
        <ele>301</ele>
        <time>2017-05-16T09:37:25Z</time>
      </trkpt>
      <trkpt lat="45.99662" lon="4.90427">
        <ele>301</ele>
        <time>2017-05-16T09:37:26Z</time>
      </trkpt>
      <trkpt lat="45.99659" lon="4.90433">
        <ele>300</ele>
        <time>2017-05-16T09:37:27Z</time>
      </trkpt>
      <trkpt lat="45.99654" lon="4.90437">
        <ele>300</ele>
        <time>2017-05-16T09:37:28Z</time>
      </trkpt>
      <trkpt lat="45.99649" lon="4.90439">
        <ele>300</ele>
        <time>2017-05-16T09:37:29Z</time>
      </trkpt>
      <trkpt lat="45.99644" lon="4.90441">
        <ele>300</ele>
        <time>2017-05-16T09:37:30Z</time>
      </trkpt>
      <trkpt lat="45.9964" lon="4.90444">
        <ele>300</ele>
        <time>2017-05-16T09:37:31Z</time>
      </trkpt>
      <trkpt lat="45.99636" lon="4.90446">
        <ele>300</ele>
        <time>2017-05-16T09:37:32Z</time>
      </trkpt>
      <trkpt lat="45.99631" lon="4.90448">
        <ele>300</ele>
        <time>2017-05-16T09:37:33Z</time>
      </trkpt>
      <trkpt lat="45.99626" lon="4.90449">
        <ele>300</ele>
        <time>2017-05-16T09:37:34Z</time>
      </trkpt>
      <trkpt lat="45.99622" lon="4.90449">
        <ele>300</ele>
        <time>2017-05-16T09:37:35Z</time>
      </trkpt>
      <trkpt lat="45.99617" lon="4.90449">
        <ele>300</ele>
        <time>2017-05-16T09:37:36Z</time>
      </trkpt>
      <trkpt lat="45.99612" lon="4.90449">
        <ele>300</ele>
        <time>2017-05-16T09:37:37Z</time>
      </trkpt>
      <trkpt lat="45.99607" lon="4.9045">
        <ele>300</ele>
        <time>2017-05-16T09:37:38Z</time>
      </trkpt>
      <trkpt lat="45.99602" lon="4.90449">
        <ele>300</ele>
        <time>2017-05-16T09:37:39Z</time>
      </trkpt>
      <trkpt lat="45.99598" lon="4.9045">
        <ele>300</ele>
        <time>2017-05-16T09:37:40Z</time>
      </trkpt>
      <trkpt lat="45.99593" lon="4.9045">
        <ele>300</ele>
        <time>2017-05-16T09:37:41Z</time>
      </trkpt>
      <trkpt lat="45.99587" lon="4.90451">
        <ele>300</ele>
        <time>2017-05-16T09:37:42Z</time>
      </trkpt>
      <trkpt lat="45.99582" lon="4.90452">
        <ele>299</ele>
        <time>2017-05-16T09:37:43Z</time>
      </trkpt>
      <trkpt lat="45.99577" lon="4.90455">
        <ele>299</ele>
        <time>2017-05-16T09:37:44Z</time>
      </trkpt>
      <trkpt lat="45.99573" lon="4.90459">
        <ele>299</ele>
        <time>2017-05-16T09:37:45Z</time>
      </trkpt>
      <trkpt lat="45.99568" lon="4.90464">
        <ele>299</ele>
        <time>2017-05-16T09:37:46Z</time>
      </trkpt>
      <trkpt lat="45.99564" lon="4.90469">
        <ele>299</ele>
        <time>2017-05-16T09:37:47Z</time>
      </trkpt>
      <trkpt lat="45.9956" lon="4.90474">
        <ele>299</ele>
        <time>2017-05-16T09:37:48Z</time>
      </trkpt>
      <trkpt lat="45.99555" lon="4.90479">
        <ele>299</ele>
        <time>2017-05-16T09:37:49Z</time>
      </trkpt>
      <trkpt lat="45.99551" lon="4.90484">
        <ele>299</ele>
        <time>2017-05-16T09:37:50Z</time>
      </trkpt>
      <trkpt lat="45.99547" lon="4.90489">
        <ele>299</ele>
        <time>2017-05-16T09:37:51Z</time>
      </trkpt>
      <trkpt lat="45.99543" lon="4.90493">
        <ele>299</ele>
        <time>2017-05-16T09:37:52Z</time>
      </trkpt>
      <trkpt lat="45.99539" lon="4.90498">
        <ele>299</ele>
        <time>2017-05-16T09:37:53Z</time>
      </trkpt>
      <trkpt lat="45.99535" lon="4.90501">
        <ele>299</ele>
        <time>2017-05-16T09:37:54Z</time>
      </trkpt>
      <trkpt lat="45.99531" lon="4.90505">
        <ele>299</ele>
        <time>2017-05-16T09:37:55Z</time>
      </trkpt>
      <trkpt lat="45.99527" lon="4.90509">
        <ele>299</ele>
        <time>2017-05-16T09:37:56Z</time>
      </trkpt>
      <trkpt lat="45.99524" lon="4.90513">
        <ele>299</ele>
        <time>2017-05-16T09:37:57Z</time>
      </trkpt>
      <trkpt lat="45.9952" lon="4.90518">
        <ele>299</ele>
        <time>2017-05-16T09:37:58Z</time>
      </trkpt>
      <trkpt lat="45.99517" lon="4.90522">
        <ele>299</ele>
        <time>2017-05-16T09:37:59Z</time>
      </trkpt>
      <trkpt lat="45.99513" lon="4.90527">
        <ele>299</ele>
        <time>2017-05-16T09:38:00Z</time>
      </trkpt>
      <trkpt lat="45.99509" lon="4.90531">
        <ele>299</ele>
        <time>2017-05-16T09:38:01Z</time>
      </trkpt>
      <trkpt lat="45.99505" lon="4.90536">
        <ele>299</ele>
        <time>2017-05-16T09:38:02Z</time>
      </trkpt>
      <trkpt lat="45.995" lon="4.9054">
        <ele>299</ele>
        <time>2017-05-16T09:38:03Z</time>
      </trkpt>
      <trkpt lat="45.99496" lon="4.90545">
        <ele>299</ele>
        <time>2017-05-16T09:38:04Z</time>
      </trkpt>
      <trkpt lat="45.99492" lon="4.9055">
        <ele>299</ele>
        <time>2017-05-16T09:38:05Z</time>
      </trkpt>
      <trkpt lat="45.99488" lon="4.90555">
        <ele>299</ele>
        <time>2017-05-16T09:38:06Z</time>
      </trkpt>
      <trkpt lat="45.99484" lon="4.9056">
        <ele>299</ele>
        <time>2017-05-16T09:38:07Z</time>
      </trkpt>
      <trkpt lat="45.9948" lon="4.90564">
        <ele>299</ele>
        <time>2017-05-16T09:38:08Z</time>
      </trkpt>
      <trkpt lat="45.99476" lon="4.90568">
        <ele>299</ele>
        <time>2017-05-16T09:38:09Z</time>
      </trkpt>
      <trkpt lat="45.99472" lon="4.90573">
        <ele>299</ele>
        <time>2017-05-16T09:38:10Z</time>
      </trkpt>
      <trkpt lat="45.99466" lon="4.90582">
        <ele>299</ele>
        <time>2017-05-16T09:38:12Z</time>
      </trkpt>
      <trkpt lat="45.99463" lon="4.90586">
        <ele>298</ele>
        <time>2017-05-16T09:38:13Z</time>
      </trkpt>
      <trkpt lat="45.99459" lon="4.90591">
        <ele>298</ele>
        <time>2017-05-16T09:38:14Z</time>
      </trkpt>
      <trkpt lat="45.99455" lon="4.90595">
        <ele>298</ele>
        <time>2017-05-16T09:38:15Z</time>
      </trkpt>
      <trkpt lat="45.99451" lon="4.906">
        <ele>298</ele>
        <time>2017-05-16T09:38:16Z</time>
      </trkpt>
      <trkpt lat="45.9945" lon="4.90607">
        <ele>298</ele>
        <time>2017-05-16T09:38:17Z</time>
      </trkpt>
      <trkpt lat="45.99446" lon="4.90611">
        <ele>298</ele>
        <time>2017-05-16T09:38:18Z</time>
      </trkpt>
      <trkpt lat="45.99443" lon="4.90615">
        <ele>298</ele>
        <time>2017-05-16T09:38:19Z</time>
      </trkpt>
      <trkpt lat="45.99439" lon="4.90619">
        <ele>298</ele>
        <time>2017-05-16T09:38:20Z</time>
      </trkpt>
      <trkpt lat="45.99435" lon="4.90624">
        <ele>298</ele>
        <time>2017-05-16T09:38:21Z</time>
      </trkpt>
      <trkpt lat="45.99432" lon="4.90628">
        <ele>298</ele>
        <time>2017-05-16T09:38:22Z</time>
      </trkpt>
      <trkpt lat="45.99428" lon="4.90632">
        <ele>298</ele>
        <time>2017-05-16T09:38:23Z</time>
      </trkpt>
      <trkpt lat="45.99424" lon="4.90636">
        <ele>298</ele>
        <time>2017-05-16T09:38:24Z</time>
      </trkpt>
      <trkpt lat="45.9942" lon="4.90639">
        <ele>298</ele>
        <time>2017-05-16T09:38:25Z</time>
      </trkpt>
      <trkpt lat="45.99416" lon="4.90643">
        <ele>298</ele>
        <time>2017-05-16T09:38:26Z</time>
      </trkpt>
      <trkpt lat="45.99412" lon="4.90647">
        <ele>298</ele>
        <time>2017-05-16T09:38:27Z</time>
      </trkpt>
      <trkpt lat="45.99409" lon="4.90652">
        <ele>298</ele>
        <time>2017-05-16T09:38:28Z</time>
      </trkpt>
      <trkpt lat="45.99405" lon="4.90656">
        <ele>298</ele>
        <time>2017-05-16T09:38:29Z</time>
      </trkpt>
      <trkpt lat="45.99398" lon="4.90665">
        <ele>298</ele>
        <time>2017-05-16T09:38:31Z</time>
      </trkpt>
      <trkpt lat="45.99394" lon="4.90669">
        <ele>298</ele>
        <time>2017-05-16T09:38:32Z</time>
      </trkpt>
      <trkpt lat="45.99391" lon="4.90673">
        <ele>298</ele>
        <time>2017-05-16T09:38:33Z</time>
      </trkpt>
      <trkpt lat="45.99387" lon="4.90678">
        <ele>298</ele>
        <time>2017-05-16T09:38:34Z</time>
      </trkpt>
      <trkpt lat="45.99383" lon="4.90682">
        <ele>298</ele>
        <time>2017-05-16T09:38:35Z</time>
      </trkpt>
      <trkpt lat="45.99379" lon="4.90687">
        <ele>298</ele>
        <time>2017-05-16T09:38:36Z</time>
      </trkpt>
      <trkpt lat="45.99375" lon="4.90693">
        <ele>299</ele>
        <time>2017-05-16T09:38:37Z</time>
      </trkpt>
      <trkpt lat="45.99371" lon="4.90698">
        <ele>299</ele>
        <time>2017-05-16T09:38:38Z</time>
      </trkpt>
      <trkpt lat="45.99368" lon="4.90703">
        <ele>299</ele>
        <time>2017-05-16T09:38:39Z</time>
      </trkpt>
      <trkpt lat="45.99364" lon="4.90707">
        <ele>299</ele>
        <time>2017-05-16T09:38:40Z</time>
      </trkpt>
      <trkpt lat="45.9936" lon="4.90712">
        <ele>299</ele>
        <time>2017-05-16T09:38:41Z</time>
      </trkpt>
      <trkpt lat="45.99356" lon="4.90716">
        <ele>299</ele>
        <time>2017-05-16T09:38:42Z</time>
      </trkpt>
      <trkpt lat="45.99353" lon="4.9072">
        <ele>299</ele>
        <time>2017-05-16T09:38:43Z</time>
      </trkpt>
      <trkpt lat="45.99349" lon="4.90724">
        <ele>299</ele>
        <time>2017-05-16T09:38:44Z</time>
      </trkpt>
      <trkpt lat="45.99346" lon="4.90729">
        <ele>299</ele>
        <time>2017-05-16T09:38:45Z</time>
      </trkpt>
      <trkpt lat="45.99342" lon="4.90735">
        <ele>299</ele>
        <time>2017-05-16T09:38:46Z</time>
      </trkpt>
      <trkpt lat="45.99338" lon="4.90742">
        <ele>300</ele>
        <time>2017-05-16T09:38:47Z</time>
      </trkpt>
      <trkpt lat="45.99334" lon="4.90748">
        <ele>300</ele>
        <time>2017-05-16T09:38:48Z</time>
      </trkpt>
      <trkpt lat="45.9933" lon="4.90754">
        <ele>300</ele>
        <time>2017-05-16T09:38:49Z</time>
      </trkpt>
      <trkpt lat="45.99325" lon="4.9076">
        <ele>300</ele>
        <time>2017-05-16T09:38:50Z</time>
      </trkpt>
      <trkpt lat="45.99321" lon="4.90766">
        <ele>300</ele>
        <time>2017-05-16T09:38:51Z</time>
      </trkpt>
      <trkpt lat="45.99316" lon="4.90771">
        <ele>300</ele>
        <time>2017-05-16T09:38:52Z</time>
      </trkpt>
      <trkpt lat="45.99312" lon="4.90776">
        <ele>300</ele>
        <time>2017-05-16T09:38:53Z</time>
      </trkpt>
      <trkpt lat="45.99308" lon="4.9078">
        <ele>300</ele>
        <time>2017-05-16T09:38:54Z</time>
      </trkpt>
      <trkpt lat="45.99304" lon="4.90784">
        <ele>300</ele>
        <time>2017-05-16T09:38:55Z</time>
      </trkpt>
      <trkpt lat="45.993" lon="4.90788">
        <ele>300</ele>
        <time>2017-05-16T09:38:56Z</time>
      </trkpt>
      <trkpt lat="45.99296" lon="4.90792">
        <ele>300</ele>
        <time>2017-05-16T09:38:57Z</time>
      </trkpt>
      <trkpt lat="45.99292" lon="4.90796">
        <ele>300</ele>
        <time>2017-05-16T09:38:58Z</time>
      </trkpt>
      <trkpt lat="45.99288" lon="4.90799">
        <ele>300</ele>
        <time>2017-05-16T09:38:59Z</time>
      </trkpt>
      <trkpt lat="45.99284" lon="4.90803">
        <ele>300</ele>
        <time>2017-05-16T09:39:00Z</time>
      </trkpt>
      <trkpt lat="45.99277" lon="4.90811">
        <ele>300</ele>
        <time>2017-05-16T09:39:02Z</time>
      </trkpt>
      <trkpt lat="45.99274" lon="4.90815">
        <ele>300</ele>
        <time>2017-05-16T09:39:03Z</time>
      </trkpt>
      <trkpt lat="45.9927" lon="4.90819">
        <ele>300</ele>
        <time>2017-05-16T09:39:04Z</time>
      </trkpt>
      <trkpt lat="45.99266" lon="4.90823">
        <ele>300</ele>
        <time>2017-05-16T09:39:05Z</time>
      </trkpt>
      <trkpt lat="45.99262" lon="4.90828">
        <ele>300</ele>
        <time>2017-05-16T09:39:06Z</time>
      </trkpt>
      <trkpt lat="45.99258" lon="4.90833">
        <ele>300</ele>
        <time>2017-05-16T09:39:07Z</time>
      </trkpt>
      <trkpt lat="45.99254" lon="4.90838">
        <ele>300</ele>
        <time>2017-05-16T09:39:08Z</time>
      </trkpt>
      <trkpt lat="45.9925" lon="4.90843">
        <ele>300</ele>
        <time>2017-05-16T09:39:09Z</time>
      </trkpt>
      <trkpt lat="45.99246" lon="4.90847">
        <ele>300</ele>
        <time>2017-05-16T09:39:10Z</time>
      </trkpt>
      <trkpt lat="45.99243" lon="4.90852">
        <ele>300</ele>
        <time>2017-05-16T09:39:11Z</time>
      </trkpt>
      <trkpt lat="45.99239" lon="4.90856">
        <ele>300</ele>
        <time>2017-05-16T09:39:12Z</time>
      </trkpt>
      <trkpt lat="45.99236" lon="4.9086">
        <ele>300</ele>
        <time>2017-05-16T09:39:13Z</time>
      </trkpt>
      <trkpt lat="45.99232" lon="4.90865">
        <ele>300</ele>
        <time>2017-05-16T09:39:14Z</time>
      </trkpt>
      <trkpt lat="45.99228" lon="4.9087">
        <ele>300</ele>
        <time>2017-05-16T09:39:15Z</time>
      </trkpt>
      <trkpt lat="45.99224" lon="4.90874">
        <ele>300</ele>
        <time>2017-05-16T09:39:16Z</time>
      </trkpt>
      <trkpt lat="45.99219" lon="4.9088">
        <ele>299</ele>
        <time>2017-05-16T09:39:17Z</time>
      </trkpt>
      <trkpt lat="45.99215" lon="4.90886">
        <ele>299</ele>
        <time>2017-05-16T09:39:18Z</time>
      </trkpt>
      <trkpt lat="45.9921" lon="4.90892">
        <ele>299</ele>
        <time>2017-05-16T09:39:19Z</time>
      </trkpt>
      <trkpt lat="45.99206" lon="4.90897">
        <ele>300</ele>
        <time>2017-05-16T09:39:20Z</time>
      </trkpt>
      <trkpt lat="45.99201" lon="4.90902">
        <ele>300</ele>
        <time>2017-05-16T09:39:21Z</time>
      </trkpt>
      <trkpt lat="45.99196" lon="4.90908">
        <ele>300</ele>
        <time>2017-05-16T09:39:22Z</time>
      </trkpt>
      <trkpt lat="45.99192" lon="4.90912">
        <ele>300</ele>
        <time>2017-05-16T09:39:23Z</time>
      </trkpt>
      <trkpt lat="45.99188" lon="4.90917">
        <ele>300</ele>
        <time>2017-05-16T09:39:24Z</time>
      </trkpt>
      <trkpt lat="45.99184" lon="4.90922">
        <ele>300</ele>
        <time>2017-05-16T09:39:25Z</time>
      </trkpt>
      <trkpt lat="45.9918" lon="4.90927">
        <ele>300</ele>
        <time>2017-05-16T09:39:26Z</time>
      </trkpt>
      <trkpt lat="45.99176" lon="4.90931">
        <ele>300</ele>
        <time>2017-05-16T09:39:27Z</time>
      </trkpt>
      <trkpt lat="45.99173" lon="4.90936">
        <ele>300</ele>
        <time>2017-05-16T09:39:28Z</time>
      </trkpt>
      <trkpt lat="45.99169" lon="4.9094">
        <ele>300</ele>
        <time>2017-05-16T09:39:29Z</time>
      </trkpt>
      <trkpt lat="45.99166" lon="4.90944">
        <ele>300</ele>
        <time>2017-05-16T09:39:30Z</time>
      </trkpt>
      <trkpt lat="45.99162" lon="4.90948">
        <ele>300</ele>
        <time>2017-05-16T09:39:31Z</time>
      </trkpt>
      <trkpt lat="45.99158" lon="4.90953">
        <ele>300</ele>
        <time>2017-05-16T09:39:32Z</time>
      </trkpt>
      <trkpt lat="45.99154" lon="4.90958">
        <ele>300</ele>
        <time>2017-05-16T09:39:33Z</time>
      </trkpt>
      <trkpt lat="45.99151" lon="4.90963">
        <ele>300</ele>
        <time>2017-05-16T09:39:34Z</time>
      </trkpt>
      <trkpt lat="45.99148" lon="4.90967">
        <ele>300</ele>
        <time>2017-05-16T09:39:35Z</time>
      </trkpt>
      <trkpt lat="45.99141" lon="4.90975">
        <ele>300</ele>
        <time>2017-05-16T09:39:37Z</time>
      </trkpt>
      <trkpt lat="45.99138" lon="4.90979">
        <ele>300</ele>
        <time>2017-05-16T09:39:38Z</time>
      </trkpt>
      <trkpt lat="45.99134" lon="4.90983">
        <ele>300</ele>
        <time>2017-05-16T09:39:39Z</time>
      </trkpt>
      <trkpt lat="45.99131" lon="4.90989">
        <ele>300</ele>
        <time>2017-05-16T09:39:40Z</time>
      </trkpt>
      <trkpt lat="45.99127" lon="4.90995">
        <ele>301</ele>
        <time>2017-05-16T09:39:41Z</time>
      </trkpt>
      <trkpt lat="45.99123" lon="4.90999">
        <ele>301</ele>
        <time>2017-05-16T09:39:42Z</time>
      </trkpt>
      <trkpt lat="45.99119" lon="4.91004">
        <ele>301</ele>
        <time>2017-05-16T09:39:43Z</time>
      </trkpt>
      <trkpt lat="45.99115" lon="4.9101">
        <ele>301</ele>
        <time>2017-05-16T09:39:44Z</time>
      </trkpt>
      <trkpt lat="45.99111" lon="4.91015">
        <ele>301</ele>
        <time>2017-05-16T09:39:45Z</time>
      </trkpt>
      <trkpt lat="45.99108" lon="4.9102">
        <ele>301</ele>
        <time>2017-05-16T09:39:46Z</time>
      </trkpt>
      <trkpt lat="45.99104" lon="4.91025">
        <ele>301</ele>
        <time>2017-05-16T09:39:47Z</time>
      </trkpt>
      <trkpt lat="45.991" lon="4.91029">
        <ele>301</ele>
        <time>2017-05-16T09:39:48Z</time>
      </trkpt>
      <trkpt lat="45.99098" lon="4.91036">
        <ele>301</ele>
        <time>2017-05-16T09:39:49Z</time>
      </trkpt>
      <trkpt lat="45.99095" lon="4.9104">
        <ele>301</ele>
        <time>2017-05-16T09:39:50Z</time>
      </trkpt>
      <trkpt lat="45.99091" lon="4.91044">
        <ele>301</ele>
        <time>2017-05-16T09:39:51Z</time>
      </trkpt>
      <trkpt lat="45.99087" lon="4.91048">
        <ele>301</ele>
        <time>2017-05-16T09:39:52Z</time>
      </trkpt>
      <trkpt lat="45.9908" lon="4.91056">
        <ele>300</ele>
        <time>2017-05-16T09:39:54Z</time>
      </trkpt>
      <trkpt lat="45.99077" lon="4.9106">
        <ele>300</ele>
        <time>2017-05-16T09:39:55Z</time>
      </trkpt>
      <trkpt lat="45.99073" lon="4.91065">
        <ele>300</ele>
        <time>2017-05-16T09:39:56Z</time>
      </trkpt>
      <trkpt lat="45.9907" lon="4.9107">
        <ele>300</ele>
        <time>2017-05-16T09:39:57Z</time>
      </trkpt>
      <trkpt lat="45.99064" lon="4.91079">
        <ele>300</ele>
        <time>2017-05-16T09:39:59Z</time>
      </trkpt>
      <trkpt lat="45.9906" lon="4.91083">
        <ele>300</ele>
        <time>2017-05-16T09:40:00Z</time>
      </trkpt>
      <trkpt lat="45.99057" lon="4.91087">
        <ele>299</ele>
        <time>2017-05-16T09:40:01Z</time>
      </trkpt>
      <trkpt lat="45.99053" lon="4.91091">
        <ele>299</ele>
        <time>2017-05-16T09:40:02Z</time>
      </trkpt>
      <trkpt lat="45.99049" lon="4.91096">
        <ele>299</ele>
        <time>2017-05-16T09:40:03Z</time>
      </trkpt>
      <trkpt lat="45.99046" lon="4.911">
        <ele>299</ele>
        <time>2017-05-16T09:40:04Z</time>
      </trkpt>
      <trkpt lat="45.99042" lon="4.91104">
        <ele>299</ele>
        <time>2017-05-16T09:40:05Z</time>
      </trkpt>
      <trkpt lat="45.99038" lon="4.91109">
        <ele>299</ele>
        <time>2017-05-16T09:40:06Z</time>
      </trkpt>
      <trkpt lat="45.99034" lon="4.91113">
        <ele>299</ele>
        <time>2017-05-16T09:40:07Z</time>
      </trkpt>
      <trkpt lat="45.99031" lon="4.91118">
        <ele>299</ele>
        <time>2017-05-16T09:40:08Z</time>
      </trkpt>
      <trkpt lat="45.99027" lon="4.91123">
        <ele>299</ele>
        <time>2017-05-16T09:40:09Z</time>
      </trkpt>
      <trkpt lat="45.99023" lon="4.91128">
        <ele>299</ele>
        <time>2017-05-16T09:40:10Z</time>
      </trkpt>
      <trkpt lat="45.99018" lon="4.91133">
        <ele>299</ele>
        <time>2017-05-16T09:40:11Z</time>
      </trkpt>
      <trkpt lat="45.99014" lon="4.91137">
        <ele>299</ele>
        <time>2017-05-16T09:40:12Z</time>
      </trkpt>
      <trkpt lat="45.9901" lon="4.91142">
        <ele>299</ele>
        <time>2017-05-16T09:40:13Z</time>
      </trkpt>
      <trkpt lat="45.99007" lon="4.91147">
        <ele>299</ele>
        <time>2017-05-16T09:40:14Z</time>
      </trkpt>
      <trkpt lat="45.99001" lon="4.91156">
        <ele>299</ele>
        <time>2017-05-16T09:40:16Z</time>
      </trkpt>
      <trkpt lat="45.98998" lon="4.9116">
        <ele>299</ele>
        <time>2017-05-16T09:40:17Z</time>
      </trkpt>
      <trkpt lat="45.98991" lon="4.91168">
        <ele>299</ele>
        <time>2017-05-16T09:40:19Z</time>
      </trkpt>
      <trkpt lat="45.98987" lon="4.9117">
        <ele>299</ele>
        <time>2017-05-16T09:40:20Z</time>
      </trkpt>
      <trkpt lat="45.9898" lon="4.91179">
        <ele>299</ele>
        <time>2017-05-16T09:40:22Z</time>
      </trkpt>
      <trkpt lat="45.98977" lon="4.91184">
        <ele>299</ele>
        <time>2017-05-16T09:40:23Z</time>
      </trkpt>
      <trkpt lat="45.98972" lon="4.91194">
        <ele>299</ele>
        <time>2017-05-16T09:40:25Z</time>
      </trkpt>
      <trkpt lat="45.98969" lon="4.91198">
        <ele>299</ele>
        <time>2017-05-16T09:40:26Z</time>
      </trkpt>
      <trkpt lat="45.98962" lon="4.91206">
        <ele>299</ele>
        <time>2017-05-16T09:40:28Z</time>
      </trkpt>
      <trkpt lat="45.98959" lon="4.9121">
        <ele>299</ele>
        <time>2017-05-16T09:40:29Z</time>
      </trkpt>
      <trkpt lat="45.98955" lon="4.91215">
        <ele>299</ele>
        <time>2017-05-16T09:40:30Z</time>
      </trkpt>
      <trkpt lat="45.9895" lon="4.91219">
        <ele>299</ele>
        <time>2017-05-16T09:40:31Z</time>
      </trkpt>
      <trkpt lat="45.98946" lon="4.91223">
        <ele>299</ele>
        <time>2017-05-16T09:40:32Z</time>
      </trkpt>
      <trkpt lat="45.98942" lon="4.91228">
        <ele>299</ele>
        <time>2017-05-16T09:40:33Z</time>
      </trkpt>
      <trkpt lat="45.98939" lon="4.91232">
        <ele>299</ele>
        <time>2017-05-16T09:40:34Z</time>
      </trkpt>
      <trkpt lat="45.98935" lon="4.91236">
        <ele>299</ele>
        <time>2017-05-16T09:40:35Z</time>
      </trkpt>
      <trkpt lat="45.98931" lon="4.91241">
        <ele>299</ele>
        <time>2017-05-16T09:40:36Z</time>
      </trkpt>
      <trkpt lat="45.98928" lon="4.91246">
        <ele>299</ele>
        <time>2017-05-16T09:40:37Z</time>
      </trkpt>
      <trkpt lat="45.98921" lon="4.91253">
        <ele>299</ele>
        <time>2017-05-16T09:40:39Z</time>
      </trkpt>
      <trkpt lat="45.98918" lon="4.91257">
        <ele>299</ele>
        <time>2017-05-16T09:40:40Z</time>
      </trkpt>
      <trkpt lat="45.98911" lon="4.91265">
        <ele>299</ele>
        <time>2017-05-16T09:40:42Z</time>
      </trkpt>
      <trkpt lat="45.98907" lon="4.91269">
        <ele>299</ele>
        <time>2017-05-16T09:40:43Z</time>
      </trkpt>
      <trkpt lat="45.98904" lon="4.91274">
        <ele>299</ele>
        <time>2017-05-16T09:40:44Z</time>
      </trkpt>
      <trkpt lat="45.989" lon="4.91278">
        <ele>299</ele>
        <time>2017-05-16T09:40:45Z</time>
      </trkpt>
      <trkpt lat="45.98896" lon="4.91283">
        <ele>299</ele>
        <time>2017-05-16T09:40:46Z</time>
      </trkpt>
      <trkpt lat="45.98892" lon="4.91288">
        <ele>299</ele>
        <time>2017-05-16T09:40:47Z</time>
      </trkpt>
      <trkpt lat="45.98888" lon="4.91292">
        <ele>299</ele>
        <time>2017-05-16T09:40:48Z</time>
      </trkpt>
      <trkpt lat="45.98884" lon="4.91297">
        <ele>299</ele>
        <time>2017-05-16T09:40:49Z</time>
      </trkpt>
      <trkpt lat="45.9888" lon="4.91302">
        <ele>299</ele>
        <time>2017-05-16T09:40:50Z</time>
      </trkpt>
      <trkpt lat="45.98875" lon="4.91308">
        <ele>298</ele>
        <time>2017-05-16T09:40:51Z</time>
      </trkpt>
      <trkpt lat="45.98871" lon="4.91314">
        <ele>298</ele>
        <time>2017-05-16T09:40:52Z</time>
      </trkpt>
      <trkpt lat="45.98867" lon="4.91319">
        <ele>298</ele>
        <time>2017-05-16T09:40:53Z</time>
      </trkpt>
      <trkpt lat="45.98863" lon="4.91323">
        <ele>298</ele>
        <time>2017-05-16T09:40:54Z</time>
      </trkpt>
      <trkpt lat="45.98859" lon="4.91327">
        <ele>298</ele>
        <time>2017-05-16T09:40:55Z</time>
      </trkpt>
      <trkpt lat="45.98855" lon="4.91331">
        <ele>298</ele>
        <time>2017-05-16T09:40:56Z</time>
      </trkpt>
      <trkpt lat="45.98851" lon="4.91336">
        <ele>298</ele>
        <time>2017-05-16T09:40:57Z</time>
      </trkpt>
      <trkpt lat="45.98847" lon="4.9134">
        <ele>298</ele>
        <time>2017-05-16T09:40:58Z</time>
      </trkpt>
      <trkpt lat="45.98843" lon="4.91344">
        <ele>298</ele>
        <time>2017-05-16T09:40:59Z</time>
      </trkpt>
      <trkpt lat="45.9884" lon="4.91349">
        <ele>298</ele>
        <time>2017-05-16T09:41:00Z</time>
      </trkpt>
      <trkpt lat="45.98836" lon="4.91354">
        <ele>298</ele>
        <time>2017-05-16T09:41:01Z</time>
      </trkpt>
      <trkpt lat="45.98832" lon="4.91358">
        <ele>298</ele>
        <time>2017-05-16T09:41:02Z</time>
      </trkpt>
      <trkpt lat="45.98829" lon="4.91363">
        <ele>298</ele>
        <time>2017-05-16T09:41:03Z</time>
      </trkpt>
      <trkpt lat="45.98825" lon="4.91368">
        <ele>298</ele>
        <time>2017-05-16T09:41:04Z</time>
      </trkpt>
      <trkpt lat="45.98821" lon="4.91373">
        <ele>299</ele>
        <time>2017-05-16T09:41:05Z</time>
      </trkpt>
      <trkpt lat="45.98818" lon="4.91378">
        <ele>299</ele>
        <time>2017-05-16T09:41:06Z</time>
      </trkpt>
      <trkpt lat="45.98814" lon="4.91383">
        <ele>299</ele>
        <time>2017-05-16T09:41:07Z</time>
      </trkpt>
      <trkpt lat="45.9881" lon="4.91387">
        <ele>299</ele>
        <time>2017-05-16T09:41:08Z</time>
      </trkpt>
      <trkpt lat="45.98807" lon="4.91392">
        <ele>299</ele>
        <time>2017-05-16T09:41:09Z</time>
      </trkpt>
      <trkpt lat="45.988" lon="4.914">
        <ele>299</ele>
        <time>2017-05-16T09:41:11Z</time>
      </trkpt>
      <trkpt lat="45.98797" lon="4.91405">
        <ele>299</ele>
        <time>2017-05-16T09:41:12Z</time>
      </trkpt>
      <trkpt lat="45.98793" lon="4.91409">
        <ele>299</ele>
        <time>2017-05-16T09:41:13Z</time>
      </trkpt>
      <trkpt lat="45.9879" lon="4.91414">
        <ele>299</ele>
        <time>2017-05-16T09:41:14Z</time>
      </trkpt>
      <trkpt lat="45.98786" lon="4.91419">
        <ele>298</ele>
        <time>2017-05-16T09:41:15Z</time>
      </trkpt>
      <trkpt lat="45.98782" lon="4.91424">
        <ele>298</ele>
        <time>2017-05-16T09:41:16Z</time>
      </trkpt>
      <trkpt lat="45.98778" lon="4.91428">
        <ele>298</ele>
        <time>2017-05-16T09:41:17Z</time>
      </trkpt>
      <trkpt lat="45.98775" lon="4.91433">
        <ele>298</ele>
        <time>2017-05-16T09:41:18Z</time>
      </trkpt>
      <trkpt lat="45.98771" lon="4.91438">
        <ele>298</ele>
        <time>2017-05-16T09:41:19Z</time>
      </trkpt>
      <trkpt lat="45.98767" lon="4.91443">
        <ele>298</ele>
        <time>2017-05-16T09:41:20Z</time>
      </trkpt>
      <trkpt lat="45.98763" lon="4.91448">
        <ele>298</ele>
        <time>2017-05-16T09:41:21Z</time>
      </trkpt>
      <trkpt lat="45.98759" lon="4.91452">
        <ele>298</ele>
        <time>2017-05-16T09:41:22Z</time>
      </trkpt>
      <trkpt lat="45.98755" lon="4.91457">
        <ele>298</ele>
        <time>2017-05-16T09:41:23Z</time>
      </trkpt>
      <trkpt lat="45.98751" lon="4.91462">
        <ele>298</ele>
        <time>2017-05-16T09:41:24Z</time>
      </trkpt>
      <trkpt lat="45.98748" lon="4.91467">
        <ele>299</ele>
        <time>2017-05-16T09:41:25Z</time>
      </trkpt>
      <trkpt lat="45.98744" lon="4.91472">
        <ele>299</ele>
        <time>2017-05-16T09:41:26Z</time>
      </trkpt>
      <trkpt lat="45.9874" lon="4.91476">
        <ele>299</ele>
        <time>2017-05-16T09:41:27Z</time>
      </trkpt>
      <trkpt lat="45.98737" lon="4.91481">
        <ele>299</ele>
        <time>2017-05-16T09:41:28Z</time>
      </trkpt>
      <trkpt lat="45.98733" lon="4.91485">
        <ele>299</ele>
        <time>2017-05-16T09:41:29Z</time>
      </trkpt>
      <trkpt lat="45.98729" lon="4.9149">
        <ele>299</ele>
        <time>2017-05-16T09:41:30Z</time>
      </trkpt>
      <trkpt lat="45.98725" lon="4.91494">
        <ele>299</ele>
        <time>2017-05-16T09:41:31Z</time>
      </trkpt>
      <trkpt lat="45.98721" lon="4.91499">
        <ele>299</ele>
        <time>2017-05-16T09:41:32Z</time>
      </trkpt>
      <trkpt lat="45.98717" lon="4.91504">
        <ele>299</ele>
        <time>2017-05-16T09:41:33Z</time>
      </trkpt>
      <trkpt lat="45.98713" lon="4.91509">
        <ele>299</ele>
        <time>2017-05-16T09:41:34Z</time>
      </trkpt>
      <trkpt lat="45.98708" lon="4.91514">
        <ele>299</ele>
        <time>2017-05-16T09:41:35Z</time>
      </trkpt>
      <trkpt lat="45.98704" lon="4.91519">
        <ele>299</ele>
        <time>2017-05-16T09:41:36Z</time>
      </trkpt>
      <trkpt lat="45.98699" lon="4.91523">
        <ele>299</ele>
        <time>2017-05-16T09:41:37Z</time>
      </trkpt>
      <trkpt lat="45.98695" lon="4.91528">
        <ele>299</ele>
        <time>2017-05-16T09:41:38Z</time>
      </trkpt>
      <trkpt lat="45.98691" lon="4.91532">
        <ele>299</ele>
        <time>2017-05-16T09:41:39Z</time>
      </trkpt>
      <trkpt lat="45.98686" lon="4.91537">
        <ele>299</ele>
        <time>2017-05-16T09:41:40Z</time>
      </trkpt>
      <trkpt lat="45.98682" lon="4.91542">
        <ele>299</ele>
        <time>2017-05-16T09:41:41Z</time>
      </trkpt>
      <trkpt lat="45.98678" lon="4.91547">
        <ele>299</ele>
        <time>2017-05-16T09:41:42Z</time>
      </trkpt>
      <trkpt lat="45.98673" lon="4.91551">
        <ele>299</ele>
        <time>2017-05-16T09:41:43Z</time>
      </trkpt>
      <trkpt lat="45.98669" lon="4.91557">
        <ele>299</ele>
        <time>2017-05-16T09:41:44Z</time>
      </trkpt>
      <trkpt lat="45.98665" lon="4.91562">
        <ele>299</ele>
        <time>2017-05-16T09:41:45Z</time>
      </trkpt>
      <trkpt lat="45.9866" lon="4.91567">
        <ele>299</ele>
        <time>2017-05-16T09:41:46Z</time>
      </trkpt>
      <trkpt lat="45.98656" lon="4.91572">
        <ele>299</ele>
        <time>2017-05-16T09:41:47Z</time>
      </trkpt>
      <trkpt lat="45.98651" lon="4.91576">
        <ele>299</ele>
        <time>2017-05-16T09:41:48Z</time>
      </trkpt>
      <trkpt lat="45.98647" lon="4.91581">
        <ele>299</ele>
        <time>2017-05-16T09:41:49Z</time>
      </trkpt>
      <trkpt lat="45.98643" lon="4.91586">
        <ele>299</ele>
        <time>2017-05-16T09:41:50Z</time>
      </trkpt>
      <trkpt lat="45.98638" lon="4.91591">
        <ele>298</ele>
        <time>2017-05-16T09:41:51Z</time>
      </trkpt>
      <trkpt lat="45.98634" lon="4.91596">
        <ele>298</ele>
        <time>2017-05-16T09:41:52Z</time>
      </trkpt>
      <trkpt lat="45.9863" lon="4.91602">
        <ele>298</ele>
        <time>2017-05-16T09:41:53Z</time>
      </trkpt>
      <trkpt lat="45.98625" lon="4.91607">
        <ele>298</ele>
        <time>2017-05-16T09:41:54Z</time>
      </trkpt>
      <trkpt lat="45.98621" lon="4.91612">
        <ele>298</ele>
        <time>2017-05-16T09:41:55Z</time>
      </trkpt>
      <trkpt lat="45.98616" lon="4.91617">
        <ele>298</ele>
        <time>2017-05-16T09:41:56Z</time>
      </trkpt>
      <trkpt lat="45.98612" lon="4.91622">
        <ele>298</ele>
        <time>2017-05-16T09:41:57Z</time>
      </trkpt>
      <trkpt lat="45.98608" lon="4.91627">
        <ele>298</ele>
        <time>2017-05-16T09:41:58Z</time>
      </trkpt>
      <trkpt lat="45.98605" lon="4.91631">
        <ele>298</ele>
        <time>2017-05-16T09:41:59Z</time>
      </trkpt>
      <trkpt lat="45.98601" lon="4.91636">
        <ele>298</ele>
        <time>2017-05-16T09:42:00Z</time>
      </trkpt>
      <trkpt lat="45.98597" lon="4.9164">
        <ele>298</ele>
        <time>2017-05-16T09:42:01Z</time>
      </trkpt>
      <trkpt lat="45.98593" lon="4.91645">
        <ele>298</ele>
        <time>2017-05-16T09:42:02Z</time>
      </trkpt>
      <trkpt lat="45.98589" lon="4.91649">
        <ele>298</ele>
        <time>2017-05-16T09:42:03Z</time>
      </trkpt>
      <trkpt lat="45.98585" lon="4.91655">
        <ele>298</ele>
        <time>2017-05-16T09:42:04Z</time>
      </trkpt>
      <trkpt lat="45.98581" lon="4.9166">
        <ele>298</ele>
        <time>2017-05-16T09:42:05Z</time>
      </trkpt>
      <trkpt lat="45.98576" lon="4.91666">
        <ele>298</ele>
        <time>2017-05-16T09:42:06Z</time>
      </trkpt>
      <trkpt lat="45.98571" lon="4.91672">
        <ele>298</ele>
        <time>2017-05-16T09:42:07Z</time>
      </trkpt>
      <trkpt lat="45.98566" lon="4.91679">
        <ele>298</ele>
        <time>2017-05-16T09:42:08Z</time>
      </trkpt>
      <trkpt lat="45.98561" lon="4.91685">
        <ele>298</ele>
        <time>2017-05-16T09:42:09Z</time>
      </trkpt>
      <trkpt lat="45.98557" lon="4.91691">
        <ele>298</ele>
        <time>2017-05-16T09:42:10Z</time>
      </trkpt>
      <trkpt lat="45.98552" lon="4.91697">
        <ele>298</ele>
        <time>2017-05-16T09:42:11Z</time>
      </trkpt>
      <trkpt lat="45.98548" lon="4.91703">
        <ele>298</ele>
        <time>2017-05-16T09:42:12Z</time>
      </trkpt>
      <trkpt lat="45.98543" lon="4.91707">
        <ele>298</ele>
        <time>2017-05-16T09:42:13Z</time>
      </trkpt>
      <trkpt lat="45.98539" lon="4.91713">
        <ele>297</ele>
        <time>2017-05-16T09:42:14Z</time>
      </trkpt>
      <trkpt lat="45.98535" lon="4.91717">
        <ele>297</ele>
        <time>2017-05-16T09:42:15Z</time>
      </trkpt>
      <trkpt lat="45.98531" lon="4.91722">
        <ele>297</ele>
        <time>2017-05-16T09:42:16Z</time>
      </trkpt>
      <trkpt lat="45.98527" lon="4.91727">
        <ele>297</ele>
        <time>2017-05-16T09:42:17Z</time>
      </trkpt>
      <trkpt lat="45.98523" lon="4.91732">
        <ele>297</ele>
        <time>2017-05-16T09:42:18Z</time>
      </trkpt>
      <trkpt lat="45.98519" lon="4.91736">
        <ele>297</ele>
        <time>2017-05-16T09:42:19Z</time>
      </trkpt>
      <trkpt lat="45.98516" lon="4.9174">
        <ele>297</ele>
        <time>2017-05-16T09:42:20Z</time>
      </trkpt>
      <trkpt lat="45.9851" lon="4.91747">
        <ele>297</ele>
        <time>2017-05-16T09:42:22Z</time>
      </trkpt>
      <trkpt lat="45.98506" lon="4.91752">
        <ele>297</ele>
        <time>2017-05-16T09:42:23Z</time>
      </trkpt>
      <trkpt lat="45.98503" lon="4.91757">
        <ele>297</ele>
        <time>2017-05-16T09:42:24Z</time>
      </trkpt>
      <trkpt lat="45.98499" lon="4.91761">
        <ele>297</ele>
        <time>2017-05-16T09:42:25Z</time>
      </trkpt>
      <trkpt lat="45.98495" lon="4.91766">
        <ele>297</ele>
        <time>2017-05-16T09:42:26Z</time>
      </trkpt>
      <trkpt lat="45.98491" lon="4.91771">
        <ele>297</ele>
        <time>2017-05-16T09:42:27Z</time>
      </trkpt>
      <trkpt lat="45.98487" lon="4.91777">
        <ele>297</ele>
        <time>2017-05-16T09:42:28Z</time>
      </trkpt>
      <trkpt lat="45.98483" lon="4.91781">
        <ele>297</ele>
        <time>2017-05-16T09:42:29Z</time>
      </trkpt>
      <trkpt lat="45.98479" lon="4.91787">
        <ele>297</ele>
        <time>2017-05-16T09:42:30Z</time>
      </trkpt>
      <trkpt lat="45.98475" lon="4.91791">
        <ele>297</ele>
        <time>2017-05-16T09:42:31Z</time>
      </trkpt>
      <trkpt lat="45.98471" lon="4.91796">
        <ele>297</ele>
        <time>2017-05-16T09:42:32Z</time>
      </trkpt>
      <trkpt lat="45.98467" lon="4.91801">
        <ele>297</ele>
        <time>2017-05-16T09:42:33Z</time>
      </trkpt>
      <trkpt lat="45.98464" lon="4.91807">
        <ele>297</ele>
        <time>2017-05-16T09:42:34Z</time>
      </trkpt>
      <trkpt lat="45.9846" lon="4.91811">
        <ele>297</ele>
        <time>2017-05-16T09:42:35Z</time>
      </trkpt>
      <trkpt lat="45.98456" lon="4.91815">
        <ele>297</ele>
        <time>2017-05-16T09:42:36Z</time>
      </trkpt>
      <trkpt lat="45.98452" lon="4.9182">
        <ele>297</ele>
        <time>2017-05-16T09:42:37Z</time>
      </trkpt>
      <trkpt lat="45.98449" lon="4.91824">
        <ele>297</ele>
        <time>2017-05-16T09:42:38Z</time>
      </trkpt>
      <trkpt lat="45.98445" lon="4.91829">
        <ele>297</ele>
        <time>2017-05-16T09:42:39Z</time>
      </trkpt>
      <trkpt lat="45.98442" lon="4.91834">
        <ele>297</ele>
        <time>2017-05-16T09:42:40Z</time>
      </trkpt>
      <trkpt lat="45.98438" lon="4.91838">
        <ele>297</ele>
        <time>2017-05-16T09:42:41Z</time>
      </trkpt>
      <trkpt lat="45.98435" lon="4.91843">
        <ele>297</ele>
        <time>2017-05-16T09:42:42Z</time>
      </trkpt>
      <trkpt lat="45.98431" lon="4.91848">
        <ele>297</ele>
        <time>2017-05-16T09:42:43Z</time>
      </trkpt>
      <trkpt lat="45.98428" lon="4.91852">
        <ele>297</ele>
        <time>2017-05-16T09:42:44Z</time>
      </trkpt>
      <trkpt lat="45.98424" lon="4.91856">
        <ele>297</ele>
        <time>2017-05-16T09:42:45Z</time>
      </trkpt>
      <trkpt lat="45.98421" lon="4.91861">
        <ele>297</ele>
        <time>2017-05-16T09:42:46Z</time>
      </trkpt>
      <trkpt lat="45.98417" lon="4.91866">
        <ele>297</ele>
        <time>2017-05-16T09:42:47Z</time>
      </trkpt>
      <trkpt lat="45.98413" lon="4.91871">
        <ele>297</ele>
        <time>2017-05-16T09:42:48Z</time>
      </trkpt>
      <trkpt lat="45.98409" lon="4.91875">
        <ele>297</ele>
        <time>2017-05-16T09:42:49Z</time>
      </trkpt>
      <trkpt lat="45.98406" lon="4.9188">
        <ele>298</ele>
        <time>2017-05-16T09:42:50Z</time>
      </trkpt>
      <trkpt lat="45.98402" lon="4.91885">
        <ele>298</ele>
        <time>2017-05-16T09:42:51Z</time>
      </trkpt>
      <trkpt lat="45.98398" lon="4.91891">
        <ele>298</ele>
        <time>2017-05-16T09:42:52Z</time>
      </trkpt>
      <trkpt lat="45.98394" lon="4.91895">
        <ele>298</ele>
        <time>2017-05-16T09:42:53Z</time>
      </trkpt>
      <trkpt lat="45.98389" lon="4.919">
        <ele>298</ele>
        <time>2017-05-16T09:42:54Z</time>
      </trkpt>
      <trkpt lat="45.98385" lon="4.91904">
        <ele>298</ele>
        <time>2017-05-16T09:42:55Z</time>
      </trkpt>
      <trkpt lat="45.98381" lon="4.9191">
        <ele>298</ele>
        <time>2017-05-16T09:42:56Z</time>
      </trkpt>
      <trkpt lat="45.98377" lon="4.91915">
        <ele>298</ele>
        <time>2017-05-16T09:42:57Z</time>
      </trkpt>
      <trkpt lat="45.98373" lon="4.91921">
        <ele>298</ele>
        <time>2017-05-16T09:42:58Z</time>
      </trkpt>
      <trkpt lat="45.98368" lon="4.91925">
        <ele>298</ele>
        <time>2017-05-16T09:42:59Z</time>
      </trkpt>
      <trkpt lat="45.98365" lon="4.91931">
        <ele>298</ele>
        <time>2017-05-16T09:43:00Z</time>
      </trkpt>
      <trkpt lat="45.98361" lon="4.91936">
        <ele>298</ele>
        <time>2017-05-16T09:43:01Z</time>
      </trkpt>
      <trkpt lat="45.98357" lon="4.9194">
        <ele>298</ele>
        <time>2017-05-16T09:43:02Z</time>
      </trkpt>
      <trkpt lat="45.98354" lon="4.91945">
        <ele>298</ele>
        <time>2017-05-16T09:43:03Z</time>
      </trkpt>
      <trkpt lat="45.9835" lon="4.91949">
        <ele>298</ele>
        <time>2017-05-16T09:43:04Z</time>
      </trkpt>
      <trkpt lat="45.98346" lon="4.91954">
        <ele>298</ele>
        <time>2017-05-16T09:43:05Z</time>
      </trkpt>
      <trkpt lat="45.98342" lon="4.91959">
        <ele>297</ele>
        <time>2017-05-16T09:43:06Z</time>
      </trkpt>
      <trkpt lat="45.98338" lon="4.91965">
        <ele>297</ele>
        <time>2017-05-16T09:43:07Z</time>
      </trkpt>
      <trkpt lat="45.98334" lon="4.9197">
        <ele>297</ele>
        <time>2017-05-16T09:43:08Z</time>
      </trkpt>
      <trkpt lat="45.9833" lon="4.91975">
        <ele>298</ele>
        <time>2017-05-16T09:43:09Z</time>
      </trkpt>
      <trkpt lat="45.98326" lon="4.91982">
        <ele>298</ele>
        <time>2017-05-16T09:43:10Z</time>
      </trkpt>
      <trkpt lat="45.98321" lon="4.91988">
        <ele>298</ele>
        <time>2017-05-16T09:43:11Z</time>
      </trkpt>
      <trkpt lat="45.98316" lon="4.91994">
        <ele>298</ele>
        <time>2017-05-16T09:43:12Z</time>
      </trkpt>
      <trkpt lat="45.98311" lon="4.92">
        <ele>298</ele>
        <time>2017-05-16T09:43:13Z</time>
      </trkpt>
      <trkpt lat="45.98306" lon="4.92005">
        <ele>298</ele>
        <time>2017-05-16T09:43:14Z</time>
      </trkpt>
      <trkpt lat="45.98302" lon="4.92011">
        <ele>298</ele>
        <time>2017-05-16T09:43:15Z</time>
      </trkpt>
      <trkpt lat="45.98297" lon="4.92017">
        <ele>298</ele>
        <time>2017-05-16T09:43:16Z</time>
      </trkpt>
      <trkpt lat="45.98293" lon="4.92022">
        <ele>298</ele>
        <time>2017-05-16T09:43:17Z</time>
      </trkpt>
      <trkpt lat="45.98289" lon="4.92027">
        <ele>298</ele>
        <time>2017-05-16T09:43:18Z</time>
      </trkpt>
      <trkpt lat="45.98284" lon="4.92032">
        <ele>298</ele>
        <time>2017-05-16T09:43:19Z</time>
      </trkpt>
      <trkpt lat="45.98279" lon="4.92036">
        <ele>298</ele>
        <time>2017-05-16T09:43:20Z</time>
      </trkpt>
      <trkpt lat="45.98275" lon="4.9204">
        <ele>298</ele>
        <time>2017-05-16T09:43:21Z</time>
      </trkpt>
      <trkpt lat="45.98272" lon="4.92045">
        <ele>298</ele>
        <time>2017-05-16T09:43:22Z</time>
      </trkpt>
      <trkpt lat="45.98268" lon="4.9205">
        <ele>298</ele>
        <time>2017-05-16T09:43:23Z</time>
      </trkpt>
      <trkpt lat="45.98264" lon="4.92054">
        <ele>298</ele>
        <time>2017-05-16T09:43:24Z</time>
      </trkpt>
      <trkpt lat="45.9826" lon="4.92059">
        <ele>298</ele>
        <time>2017-05-16T09:43:25Z</time>
      </trkpt>
      <trkpt lat="45.98257" lon="4.92063">
        <ele>298</ele>
        <time>2017-05-16T09:43:26Z</time>
      </trkpt>
      <trkpt lat="45.98252" lon="4.92066">
        <ele>299</ele>
        <time>2017-05-16T09:43:27Z</time>
      </trkpt>
      <trkpt lat="45.98248" lon="4.92071">
        <ele>299</ele>
        <time>2017-05-16T09:43:28Z</time>
      </trkpt>
      <trkpt lat="45.98244" lon="4.92075">
        <ele>299</ele>
        <time>2017-05-16T09:43:29Z</time>
      </trkpt>
      <trkpt lat="45.9824" lon="4.9208">
        <ele>299</ele>
        <time>2017-05-16T09:43:30Z</time>
      </trkpt>
      <trkpt lat="45.98237" lon="4.92085">
        <ele>299</ele>
        <time>2017-05-16T09:43:31Z</time>
      </trkpt>
      <trkpt lat="45.98233" lon="4.92089">
        <ele>299</ele>
        <time>2017-05-16T09:43:32Z</time>
      </trkpt>
      <trkpt lat="45.9823" lon="4.92094">
        <ele>299</ele>
        <time>2017-05-16T09:43:33Z</time>
      </trkpt>
      <trkpt lat="45.98223" lon="4.92101">
        <ele>299</ele>
        <time>2017-05-16T09:43:35Z</time>
      </trkpt>
      <trkpt lat="45.9822" lon="4.92106">
        <ele>299</ele>
        <time>2017-05-16T09:43:36Z</time>
      </trkpt>
      <trkpt lat="45.98216" lon="4.9211">
        <ele>299</ele>
        <time>2017-05-16T09:43:37Z</time>
      </trkpt>
      <trkpt lat="45.98213" lon="4.92114">
        <ele>299</ele>
        <time>2017-05-16T09:43:38Z</time>
      </trkpt>
      <trkpt lat="45.98209" lon="4.92119">
        <ele>299</ele>
        <time>2017-05-16T09:43:39Z</time>
      </trkpt>
      <trkpt lat="45.98206" lon="4.92124">
        <ele>299</ele>
        <time>2017-05-16T09:43:40Z</time>
      </trkpt>
      <trkpt lat="45.98202" lon="4.92128">
        <ele>299</ele>
        <time>2017-05-16T09:43:41Z</time>
      </trkpt>
      <trkpt lat="45.98198" lon="4.92133">
        <ele>299</ele>
        <time>2017-05-16T09:43:42Z</time>
      </trkpt>
      <trkpt lat="45.98194" lon="4.92138">
        <ele>299</ele>
        <time>2017-05-16T09:43:43Z</time>
      </trkpt>
      <trkpt lat="45.98191" lon="4.92142">
        <ele>299</ele>
        <time>2017-05-16T09:43:44Z</time>
      </trkpt>
      <trkpt lat="45.98187" lon="4.92147">
        <ele>299</ele>
        <time>2017-05-16T09:43:45Z</time>
      </trkpt>
      <trkpt lat="45.98183" lon="4.92152">
        <ele>299</ele>
        <time>2017-05-16T09:43:46Z</time>
      </trkpt>
      <trkpt lat="45.98179" lon="4.92158">
        <ele>299</ele>
        <time>2017-05-16T09:43:47Z</time>
      </trkpt>
      <trkpt lat="45.98175" lon="4.92162">
        <ele>299</ele>
        <time>2017-05-16T09:43:48Z</time>
      </trkpt>
      <trkpt lat="45.9817" lon="4.92167">
        <ele>299</ele>
        <time>2017-05-16T09:43:49Z</time>
      </trkpt>
      <trkpt lat="45.98166" lon="4.92172">
        <ele>299</ele>
        <time>2017-05-16T09:43:50Z</time>
      </trkpt>
      <trkpt lat="45.98162" lon="4.92176">
        <ele>299</ele>
        <time>2017-05-16T09:43:51Z</time>
      </trkpt>
      <trkpt lat="45.98158" lon="4.92181">
        <ele>299</ele>
        <time>2017-05-16T09:43:52Z</time>
      </trkpt>
      <trkpt lat="45.98154" lon="4.92186">
        <ele>299</ele>
        <time>2017-05-16T09:43:53Z</time>
      </trkpt>
      <trkpt lat="45.98151" lon="4.9219">
        <ele>299</ele>
        <time>2017-05-16T09:43:54Z</time>
      </trkpt>
      <trkpt lat="45.98147" lon="4.92194">
        <ele>299</ele>
        <time>2017-05-16T09:43:55Z</time>
      </trkpt>
      <trkpt lat="45.98143" lon="4.92198">
        <ele>299</ele>
        <time>2017-05-16T09:43:56Z</time>
      </trkpt>
      <trkpt lat="45.9814" lon="4.92203">
        <ele>299</ele>
        <time>2017-05-16T09:43:57Z</time>
      </trkpt>
      <trkpt lat="45.98137" lon="4.92207">
        <ele>299</ele>
        <time>2017-05-16T09:43:58Z</time>
      </trkpt>
      <trkpt lat="45.98134" lon="4.92212">
        <ele>299</ele>
        <time>2017-05-16T09:43:59Z</time>
      </trkpt>
      <trkpt lat="45.9813" lon="4.92216">
        <ele>299</ele>
        <time>2017-05-16T09:44:00Z</time>
      </trkpt>
      <trkpt lat="45.98127" lon="4.92221">
        <ele>299</ele>
        <time>2017-05-16T09:44:01Z</time>
      </trkpt>
      <trkpt lat="45.98123" lon="4.92225">
        <ele>299</ele>
        <time>2017-05-16T09:44:02Z</time>
      </trkpt>
      <trkpt lat="45.9812" lon="4.92229">
        <ele>299</ele>
        <time>2017-05-16T09:44:03Z</time>
      </trkpt>
      <trkpt lat="45.98116" lon="4.92234">
        <ele>299</ele>
        <time>2017-05-16T09:44:04Z</time>
      </trkpt>
      <trkpt lat="45.98113" lon="4.92239">
        <ele>299</ele>
        <time>2017-05-16T09:44:05Z</time>
      </trkpt>
      <trkpt lat="45.98109" lon="4.92244">
        <ele>299</ele>
        <time>2017-05-16T09:44:06Z</time>
      </trkpt>
      <trkpt lat="45.98106" lon="4.92249">
        <ele>299</ele>
        <time>2017-05-16T09:44:07Z</time>
      </trkpt>
      <trkpt lat="45.98102" lon="4.92254">
        <ele>300</ele>
        <time>2017-05-16T09:44:08Z</time>
      </trkpt>
      <trkpt lat="45.98098" lon="4.92259">
        <ele>300</ele>
        <time>2017-05-16T09:44:09Z</time>
      </trkpt>
      <trkpt lat="45.98094" lon="4.92264">
        <ele>300</ele>
        <time>2017-05-16T09:44:10Z</time>
      </trkpt>
      <trkpt lat="45.98091" lon="4.92269">
        <ele>300</ele>
        <time>2017-05-16T09:44:11Z</time>
      </trkpt>
      <trkpt lat="45.98087" lon="4.92274">
        <ele>300</ele>
        <time>2017-05-16T09:44:12Z</time>
      </trkpt>
      <trkpt lat="45.98083" lon="4.92278">
        <ele>299</ele>
        <time>2017-05-16T09:44:13Z</time>
      </trkpt>
      <trkpt lat="45.9808" lon="4.92283">
        <ele>299</ele>
        <time>2017-05-16T09:44:14Z</time>
      </trkpt>
      <trkpt lat="45.98076" lon="4.92288">
        <ele>299</ele>
        <time>2017-05-16T09:44:15Z</time>
      </trkpt>
      <trkpt lat="45.98073" lon="4.92293">
        <ele>299</ele>
        <time>2017-05-16T09:44:16Z</time>
      </trkpt>
      <trkpt lat="45.98069" lon="4.92298">
        <ele>299</ele>
        <time>2017-05-16T09:44:17Z</time>
      </trkpt>
      <trkpt lat="45.98065" lon="4.92303">
        <ele>299</ele>
        <time>2017-05-16T09:44:18Z</time>
      </trkpt>
      <trkpt lat="45.98062" lon="4.92307">
        <ele>299</ele>
        <time>2017-05-16T09:44:19Z</time>
      </trkpt>
      <trkpt lat="45.98058" lon="4.92312">
        <ele>299</ele>
        <time>2017-05-16T09:44:20Z</time>
      </trkpt>
      <trkpt lat="45.98054" lon="4.92316">
        <ele>299</ele>
        <time>2017-05-16T09:44:21Z</time>
      </trkpt>
      <trkpt lat="45.9805" lon="4.92321">
        <ele>299</ele>
        <time>2017-05-16T09:44:22Z</time>
      </trkpt>
      <trkpt lat="45.98045" lon="4.92325">
        <ele>299</ele>
        <time>2017-05-16T09:44:23Z</time>
      </trkpt>
      <trkpt lat="45.98041" lon="4.92331">
        <ele>299</ele>
        <time>2017-05-16T09:44:24Z</time>
      </trkpt>
      <trkpt lat="45.98037" lon="4.92337">
        <ele>299</ele>
        <time>2017-05-16T09:44:25Z</time>
      </trkpt>
      <trkpt lat="45.98032" lon="4.92342">
        <ele>299</ele>
        <time>2017-05-16T09:44:26Z</time>
      </trkpt>
      <trkpt lat="45.98027" lon="4.92348">
        <ele>298</ele>
        <time>2017-05-16T09:44:27Z</time>
      </trkpt>
      <trkpt lat="45.98023" lon="4.92353">
        <ele>298</ele>
        <time>2017-05-16T09:44:28Z</time>
      </trkpt>
      <trkpt lat="45.98018" lon="4.92358">
        <ele>298</ele>
        <time>2017-05-16T09:44:29Z</time>
      </trkpt>
      <trkpt lat="45.98014" lon="4.92363">
        <ele>298</ele>
        <time>2017-05-16T09:44:30Z</time>
      </trkpt>
      <trkpt lat="45.9801" lon="4.92369">
        <ele>298</ele>
        <time>2017-05-16T09:44:31Z</time>
      </trkpt>
      <trkpt lat="45.98006" lon="4.92374">
        <ele>298</ele>
        <time>2017-05-16T09:44:32Z</time>
      </trkpt>
      <trkpt lat="45.98002" lon="4.92379">
        <ele>298</ele>
        <time>2017-05-16T09:44:33Z</time>
      </trkpt>
      <trkpt lat="45.97998" lon="4.92384">
        <ele>298</ele>
        <time>2017-05-16T09:44:34Z</time>
      </trkpt>
      <trkpt lat="45.97994" lon="4.92388">
        <ele>298</ele>
        <time>2017-05-16T09:44:35Z</time>
      </trkpt>
      <trkpt lat="45.97991" lon="4.92393">
        <ele>298</ele>
        <time>2017-05-16T09:44:36Z</time>
      </trkpt>
      <trkpt lat="45.97987" lon="4.92397">
        <ele>298</ele>
        <time>2017-05-16T09:44:37Z</time>
      </trkpt>
      <trkpt lat="45.97984" lon="4.92402">
        <ele>298</ele>
        <time>2017-05-16T09:44:38Z</time>
      </trkpt>
      <trkpt lat="45.9798" lon="4.92407">
        <ele>298</ele>
        <time>2017-05-16T09:44:39Z</time>
      </trkpt>
      <trkpt lat="45.97976" lon="4.92412">
        <ele>298</ele>
        <time>2017-05-16T09:44:40Z</time>
      </trkpt>
      <trkpt lat="45.97971" lon="4.92417">
        <ele>298</ele>
        <time>2017-05-16T09:44:41Z</time>
      </trkpt>
      <trkpt lat="45.97967" lon="4.92422">
        <ele>298</ele>
        <time>2017-05-16T09:44:42Z</time>
      </trkpt>
      <trkpt lat="45.97962" lon="4.92428">
        <ele>298</ele>
        <time>2017-05-16T09:44:43Z</time>
      </trkpt>
      <trkpt lat="45.97958" lon="4.92433">
        <ele>299</ele>
        <time>2017-05-16T09:44:44Z</time>
      </trkpt>
      <trkpt lat="45.97953" lon="4.92439">
        <ele>299</ele>
        <time>2017-05-16T09:44:45Z</time>
      </trkpt>
      <trkpt lat="45.97949" lon="4.92444">
        <ele>299</ele>
        <time>2017-05-16T09:44:46Z</time>
      </trkpt>
      <trkpt lat="45.97945" lon="4.92449">
        <ele>299</ele>
        <time>2017-05-16T09:44:47Z</time>
      </trkpt>
      <trkpt lat="45.97941" lon="4.92454">
        <ele>299</ele>
        <time>2017-05-16T09:44:48Z</time>
      </trkpt>
      <trkpt lat="45.97937" lon="4.92459">
        <ele>299</ele>
        <time>2017-05-16T09:44:49Z</time>
      </trkpt>
      <trkpt lat="45.97933" lon="4.92464">
        <ele>299</ele>
        <time>2017-05-16T09:44:50Z</time>
      </trkpt>
      <trkpt lat="45.97929" lon="4.92468">
        <ele>299</ele>
        <time>2017-05-16T09:44:51Z</time>
      </trkpt>
      <trkpt lat="45.97926" lon="4.92473">
        <ele>299</ele>
        <time>2017-05-16T09:44:52Z</time>
      </trkpt>
      <trkpt lat="45.97922" lon="4.92477">
        <ele>299</ele>
        <time>2017-05-16T09:44:53Z</time>
      </trkpt>
      <trkpt lat="45.97919" lon="4.92481">
        <ele>299</ele>
        <time>2017-05-16T09:44:54Z</time>
      </trkpt>
      <trkpt lat="45.97912" lon="4.92489">
        <ele>299</ele>
        <time>2017-05-16T09:44:56Z</time>
      </trkpt>
      <trkpt lat="45.97909" lon="4.92494">
        <ele>299</ele>
        <time>2017-05-16T09:44:57Z</time>
      </trkpt>
      <trkpt lat="45.97905" lon="4.92498">
        <ele>299</ele>
        <time>2017-05-16T09:44:58Z</time>
      </trkpt>
      <trkpt lat="45.97901" lon="4.92502">
        <ele>299</ele>
        <time>2017-05-16T09:44:59Z</time>
      </trkpt>
      <trkpt lat="45.97898" lon="4.92506">
        <ele>299</ele>
        <time>2017-05-16T09:45:00Z</time>
      </trkpt>
      <trkpt lat="45.97894" lon="4.92511">
        <ele>300</ele>
        <time>2017-05-16T09:45:01Z</time>
      </trkpt>
      <trkpt lat="45.9789" lon="4.92516">
        <ele>300</ele>
        <time>2017-05-16T09:45:02Z</time>
      </trkpt>
      <trkpt lat="45.97886" lon="4.92521">
        <ele>300</ele>
        <time>2017-05-16T09:45:03Z</time>
      </trkpt>
      <trkpt lat="45.97882" lon="4.92526">
        <ele>300</ele>
        <time>2017-05-16T09:45:04Z</time>
      </trkpt>
      <trkpt lat="45.97878" lon="4.9253">
        <ele>300</ele>
        <time>2017-05-16T09:45:05Z</time>
      </trkpt>
      <trkpt lat="45.97874" lon="4.92534">
        <ele>300</ele>
        <time>2017-05-16T09:45:06Z</time>
      </trkpt>
      <trkpt lat="45.97871" lon="4.92538">
        <ele>300</ele>
        <time>2017-05-16T09:45:07Z</time>
      </trkpt>
      <trkpt lat="45.97864" lon="4.92546">
        <ele>300</ele>
        <time>2017-05-16T09:45:09Z</time>
      </trkpt>
      <trkpt lat="45.97861" lon="4.9255">
        <ele>300</ele>
        <time>2017-05-16T09:45:10Z</time>
      </trkpt>
      <trkpt lat="45.97858" lon="4.92554">
        <ele>300</ele>
        <time>2017-05-16T09:45:11Z</time>
      </trkpt>
      <trkpt lat="45.97854" lon="4.92559">
        <ele>300</ele>
        <time>2017-05-16T09:45:12Z</time>
      </trkpt>
      <trkpt lat="45.97851" lon="4.92563">
        <ele>300</ele>
        <time>2017-05-16T09:45:13Z</time>
      </trkpt>
      <trkpt lat="45.97847" lon="4.92568">
        <ele>300</ele>
        <time>2017-05-16T09:45:14Z</time>
      </trkpt>
      <trkpt lat="45.97843" lon="4.92572">
        <ele>300</ele>
        <time>2017-05-16T09:45:15Z</time>
      </trkpt>
      <trkpt lat="45.97839" lon="4.92577">
        <ele>300</ele>
        <time>2017-05-16T09:45:16Z</time>
      </trkpt>
      <trkpt lat="45.97835" lon="4.92582">
        <ele>300</ele>
        <time>2017-05-16T09:45:17Z</time>
      </trkpt>
      <trkpt lat="45.97831" lon="4.92587">
        <ele>300</ele>
        <time>2017-05-16T09:45:18Z</time>
      </trkpt>
      <trkpt lat="45.97827" lon="4.92592">
        <ele>300</ele>
        <time>2017-05-16T09:45:19Z</time>
      </trkpt>
      <trkpt lat="45.97823" lon="4.92597">
        <ele>300</ele>
        <time>2017-05-16T09:45:20Z</time>
      </trkpt>
      <trkpt lat="45.97819" lon="4.92602">
        <ele>300</ele>
        <time>2017-05-16T09:45:21Z</time>
      </trkpt>
      <trkpt lat="45.97815" lon="4.92606">
        <ele>300</ele>
        <time>2017-05-16T09:45:22Z</time>
      </trkpt>
      <trkpt lat="45.97812" lon="4.9261">
        <ele>300</ele>
        <time>2017-05-16T09:45:23Z</time>
      </trkpt>
      <trkpt lat="45.97808" lon="4.92615">
        <ele>300</ele>
        <time>2017-05-16T09:45:24Z</time>
      </trkpt>
      <trkpt lat="45.97804" lon="4.92619">
        <ele>300</ele>
        <time>2017-05-16T09:45:25Z</time>
      </trkpt>
      <trkpt lat="45.978" lon="4.92624">
        <ele>300</ele>
        <time>2017-05-16T09:45:26Z</time>
      </trkpt>
      <trkpt lat="45.97797" lon="4.92629">
        <ele>301</ele>
        <time>2017-05-16T09:45:27Z</time>
      </trkpt>
      <trkpt lat="45.97793" lon="4.92634">
        <ele>301</ele>
        <time>2017-05-16T09:45:28Z</time>
      </trkpt>
      <trkpt lat="45.9779" lon="4.92638">
        <ele>300</ele>
        <time>2017-05-16T09:45:29Z</time>
      </trkpt>
      <trkpt lat="45.97786" lon="4.92643">
        <ele>300</ele>
        <time>2017-05-16T09:45:30Z</time>
      </trkpt>
      <trkpt lat="45.97783" lon="4.92647">
        <ele>300</ele>
        <time>2017-05-16T09:45:31Z</time>
      </trkpt>
      <trkpt lat="45.97779" lon="4.92651">
        <ele>300</ele>
        <time>2017-05-16T09:45:32Z</time>
      </trkpt>
      <trkpt lat="45.97775" lon="4.92655">
        <ele>300</ele>
        <time>2017-05-16T09:45:33Z</time>
      </trkpt>
      <trkpt lat="45.97771" lon="4.92659">
        <ele>300</ele>
        <time>2017-05-16T09:45:34Z</time>
      </trkpt>
      <trkpt lat="45.97767" lon="4.92663">
        <ele>300</ele>
        <time>2017-05-16T09:45:35Z</time>
      </trkpt>
      <trkpt lat="45.97763" lon="4.92668">
        <ele>300</ele>
        <time>2017-05-16T09:45:36Z</time>
      </trkpt>
      <trkpt lat="45.9776" lon="4.92672">
        <ele>300</ele>
        <time>2017-05-16T09:45:37Z</time>
      </trkpt>
      <trkpt lat="45.97756" lon="4.92676">
        <ele>300</ele>
        <time>2017-05-16T09:45:38Z</time>
      </trkpt>
      <trkpt lat="45.97752" lon="4.92679">
        <ele>300</ele>
        <time>2017-05-16T09:45:39Z</time>
      </trkpt>
      <trkpt lat="45.97748" lon="4.92683">
        <ele>301</ele>
        <time>2017-05-16T09:45:40Z</time>
      </trkpt>
      <trkpt lat="45.97744" lon="4.92687">
        <ele>301</ele>
        <time>2017-05-16T09:45:41Z</time>
      </trkpt>
      <trkpt lat="45.9774" lon="4.92691">
        <ele>301</ele>
        <time>2017-05-16T09:45:42Z</time>
      </trkpt>
      <trkpt lat="45.97736" lon="4.92695">
        <ele>301</ele>
        <time>2017-05-16T09:45:43Z</time>
      </trkpt>
      <trkpt lat="45.97733" lon="4.927">
        <ele>301</ele>
        <time>2017-05-16T09:45:44Z</time>
      </trkpt>
      <trkpt lat="45.97729" lon="4.92705">
        <ele>301</ele>
        <time>2017-05-16T09:45:45Z</time>
      </trkpt>
      <trkpt lat="45.97725" lon="4.9271">
        <ele>301</ele>
        <time>2017-05-16T09:45:46Z</time>
      </trkpt>
      <trkpt lat="45.97721" lon="4.92715">
        <ele>301</ele>
        <time>2017-05-16T09:45:47Z</time>
      </trkpt>
      <trkpt lat="45.97716" lon="4.92719">
        <ele>301</ele>
        <time>2017-05-16T09:45:48Z</time>
      </trkpt>
      <trkpt lat="45.97712" lon="4.92724">
        <ele>301</ele>
        <time>2017-05-16T09:45:49Z</time>
      </trkpt>
      <trkpt lat="45.97709" lon="4.92729">
        <ele>301</ele>
        <time>2017-05-16T09:45:50Z</time>
      </trkpt>
      <trkpt lat="45.97705" lon="4.92734">
        <ele>302</ele>
        <time>2017-05-16T09:45:51Z</time>
      </trkpt>
      <trkpt lat="45.97701" lon="4.92738">
        <ele>302</ele>
        <time>2017-05-16T09:45:52Z</time>
      </trkpt>
      <trkpt lat="45.97697" lon="4.92742">
        <ele>302</ele>
        <time>2017-05-16T09:45:53Z</time>
      </trkpt>
      <trkpt lat="45.97693" lon="4.92747">
        <ele>302</ele>
        <time>2017-05-16T09:45:54Z</time>
      </trkpt>
      <trkpt lat="45.97689" lon="4.92751">
        <ele>302</ele>
        <time>2017-05-16T09:45:55Z</time>
      </trkpt>
      <trkpt lat="45.97686" lon="4.92756">
        <ele>302</ele>
        <time>2017-05-16T09:45:56Z</time>
      </trkpt>
      <trkpt lat="45.97682" lon="4.9276">
        <ele>302</ele>
        <time>2017-05-16T09:45:57Z</time>
      </trkpt>
      <trkpt lat="45.97678" lon="4.92765">
        <ele>302</ele>
        <time>2017-05-16T09:45:58Z</time>
      </trkpt>
      <trkpt lat="45.97675" lon="4.92769">
        <ele>302</ele>
        <time>2017-05-16T09:45:59Z</time>
      </trkpt>
      <trkpt lat="45.97671" lon="4.92774">
        <ele>302</ele>
        <time>2017-05-16T09:46:00Z</time>
      </trkpt>
      <trkpt lat="45.97666" lon="4.92781">
        <ele>301</ele>
        <time>2017-05-16T09:46:01Z</time>
      </trkpt>
      <trkpt lat="45.97662" lon="4.92785">
        <ele>301</ele>
        <time>2017-05-16T09:46:02Z</time>
      </trkpt>
      <trkpt lat="45.97655" lon="4.92793">
        <ele>301</ele>
        <time>2017-05-16T09:46:04Z</time>
      </trkpt>
      <trkpt lat="45.97652" lon="4.92797">
        <ele>301</ele>
        <time>2017-05-16T09:46:05Z</time>
      </trkpt>
      <trkpt lat="45.97648" lon="4.92801">
        <ele>300</ele>
        <time>2017-05-16T09:46:06Z</time>
      </trkpt>
      <trkpt lat="45.97645" lon="4.92805">
        <ele>300</ele>
        <time>2017-05-16T09:46:07Z</time>
      </trkpt>
      <trkpt lat="45.97641" lon="4.92809">
        <ele>300</ele>
        <time>2017-05-16T09:46:08Z</time>
      </trkpt>
      <trkpt lat="45.97637" lon="4.92814">
        <ele>300</ele>
        <time>2017-05-16T09:46:09Z</time>
      </trkpt>
      <trkpt lat="45.97633" lon="4.92818">
        <ele>300</ele>
        <time>2017-05-16T09:46:10Z</time>
      </trkpt>
      <trkpt lat="45.97629" lon="4.92823">
        <ele>300</ele>
        <time>2017-05-16T09:46:11Z</time>
      </trkpt>
      <trkpt lat="45.97625" lon="4.92827">
        <ele>300</ele>
        <time>2017-05-16T09:46:12Z</time>
      </trkpt>
      <trkpt lat="45.97621" lon="4.92832">
        <ele>300</ele>
        <time>2017-05-16T09:46:13Z</time>
      </trkpt>
      <trkpt lat="45.97616" lon="4.92837">
        <ele>298</ele>
        <time>2017-05-16T09:46:14Z</time>
      </trkpt>
      <trkpt lat="45.97612" lon="4.92842">
        <ele>298</ele>
        <time>2017-05-16T09:46:15Z</time>
      </trkpt>
      <trkpt lat="45.97608" lon="4.92847">
        <ele>298</ele>
        <time>2017-05-16T09:46:16Z</time>
      </trkpt>
      <trkpt lat="45.97604" lon="4.92853">
        <ele>298</ele>
        <time>2017-05-16T09:46:17Z</time>
      </trkpt>
      <trkpt lat="45.976" lon="4.92858">
        <ele>298</ele>
        <time>2017-05-16T09:46:18Z</time>
      </trkpt>
      <trkpt lat="45.97596" lon="4.92864">
        <ele>298</ele>
        <time>2017-05-16T09:46:19Z</time>
      </trkpt>
      <trkpt lat="45.97592" lon="4.92869">
        <ele>298</ele>
        <time>2017-05-16T09:46:20Z</time>
      </trkpt>
      <trkpt lat="45.97588" lon="4.92873">
        <ele>298</ele>
        <time>2017-05-16T09:46:21Z</time>
      </trkpt>
      <trkpt lat="45.97584" lon="4.92878">
        <ele>298</ele>
        <time>2017-05-16T09:46:22Z</time>
      </trkpt>
      <trkpt lat="45.9758" lon="4.92882">
        <ele>298</ele>
        <time>2017-05-16T09:46:23Z</time>
      </trkpt>
      <trkpt lat="45.97576" lon="4.92887">
        <ele>298</ele>
        <time>2017-05-16T09:46:24Z</time>
      </trkpt>
      <trkpt lat="45.97572" lon="4.92892">
        <ele>298</ele>
        <time>2017-05-16T09:46:25Z</time>
      </trkpt>
      <trkpt lat="45.97568" lon="4.92897">
        <ele>298</ele>
        <time>2017-05-16T09:46:26Z</time>
      </trkpt>
      <trkpt lat="45.97563" lon="4.92903">
        <ele>298</ele>
        <time>2017-05-16T09:46:27Z</time>
      </trkpt>
      <trkpt lat="45.97559" lon="4.92909">
        <ele>298</ele>
        <time>2017-05-16T09:46:28Z</time>
      </trkpt>
      <trkpt lat="45.97554" lon="4.92915">
        <ele>298</ele>
        <time>2017-05-16T09:46:29Z</time>
      </trkpt>
      <trkpt lat="45.9755" lon="4.92921">
        <ele>298</ele>
        <time>2017-05-16T09:46:30Z</time>
      </trkpt>
      <trkpt lat="45.97546" lon="4.92927">
        <ele>299</ele>
        <time>2017-05-16T09:46:31Z</time>
      </trkpt>
      <trkpt lat="45.97541" lon="4.92935">
        <ele>299</ele>
        <time>2017-05-16T09:46:32Z</time>
      </trkpt>
      <trkpt lat="45.97536" lon="4.92942">
        <ele>299</ele>
        <time>2017-05-16T09:46:33Z</time>
      </trkpt>
      <trkpt lat="45.97532" lon="4.92948">
        <ele>299</ele>
        <time>2017-05-16T09:46:34Z</time>
      </trkpt>
      <trkpt lat="45.97528" lon="4.92954">
        <ele>299</ele>
        <time>2017-05-16T09:46:35Z</time>
      </trkpt>
      <trkpt lat="45.97525" lon="4.92959">
        <ele>299</ele>
        <time>2017-05-16T09:46:36Z</time>
      </trkpt>
      <trkpt lat="45.97521" lon="4.92964">
        <ele>299</ele>
        <time>2017-05-16T09:46:37Z</time>
      </trkpt>
      <trkpt lat="45.97518" lon="4.92969">
        <ele>299</ele>
        <time>2017-05-16T09:46:38Z</time>
      </trkpt>
      <trkpt lat="45.97514" lon="4.92974">
        <ele>299</ele>
        <time>2017-05-16T09:46:39Z</time>
      </trkpt>
      <trkpt lat="45.97511" lon="4.92979">
        <ele>299</ele>
        <time>2017-05-16T09:46:40Z</time>
      </trkpt>
      <trkpt lat="45.97508" lon="4.92984">
        <ele>299</ele>
        <time>2017-05-16T09:46:41Z</time>
      </trkpt>
      <trkpt lat="45.97504" lon="4.92987">
        <ele>299</ele>
        <time>2017-05-16T09:46:42Z</time>
      </trkpt>
      <trkpt lat="45.975" lon="4.92991">
        <ele>299</ele>
        <time>2017-05-16T09:46:43Z</time>
      </trkpt>
      <trkpt lat="45.97497" lon="4.92995">
        <ele>299</ele>
        <time>2017-05-16T09:46:44Z</time>
      </trkpt>
      <trkpt lat="45.97493" lon="4.93">
        <ele>299</ele>
        <time>2017-05-16T09:46:45Z</time>
      </trkpt>
      <trkpt lat="45.97489" lon="4.93004">
        <ele>299</ele>
        <time>2017-05-16T09:46:46Z</time>
      </trkpt>
      <trkpt lat="45.97486" lon="4.93008">
        <ele>299</ele>
        <time>2017-05-16T09:46:47Z</time>
      </trkpt>
      <trkpt lat="45.97482" lon="4.93013">
        <ele>299</ele>
        <time>2017-05-16T09:46:48Z</time>
      </trkpt>
      <trkpt lat="45.97479" lon="4.93017">
        <ele>299</ele>
        <time>2017-05-16T09:46:49Z</time>
      </trkpt>
      <trkpt lat="45.97472" lon="4.93025">
        <ele>299</ele>
        <time>2017-05-16T09:46:51Z</time>
      </trkpt>
      <trkpt lat="45.97469" lon="4.93029">
        <ele>299</ele>
        <time>2017-05-16T09:46:52Z</time>
      </trkpt>
      <trkpt lat="45.97462" lon="4.93037">
        <ele>299</ele>
        <time>2017-05-16T09:46:54Z</time>
      </trkpt>
      <trkpt lat="45.97459" lon="4.93041">
        <ele>299</ele>
        <time>2017-05-16T09:46:55Z</time>
      </trkpt>
      <trkpt lat="45.97456" lon="4.93045">
        <ele>299</ele>
        <time>2017-05-16T09:46:56Z</time>
      </trkpt>
      <trkpt lat="45.97452" lon="4.93049">
        <ele>299</ele>
        <time>2017-05-16T09:46:57Z</time>
      </trkpt>
      <trkpt lat="45.97448" lon="4.93054">
        <ele>299</ele>
        <time>2017-05-16T09:46:58Z</time>
      </trkpt>
      <trkpt lat="45.97445" lon="4.93059">
        <ele>299</ele>
        <time>2017-05-16T09:46:59Z</time>
      </trkpt>
      <trkpt lat="45.97441" lon="4.93062">
        <ele>299</ele>
        <time>2017-05-16T09:47:00Z</time>
      </trkpt>
      <trkpt lat="45.97437" lon="4.93067">
        <ele>299</ele>
        <time>2017-05-16T09:47:01Z</time>
      </trkpt>
      <trkpt lat="45.97434" lon="4.93071">
        <ele>299</ele>
        <time>2017-05-16T09:47:02Z</time>
      </trkpt>
      <trkpt lat="45.97431" lon="4.93076">
        <ele>299</ele>
        <time>2017-05-16T09:47:03Z</time>
      </trkpt>
      <trkpt lat="45.97425" lon="4.93085">
        <ele>299</ele>
        <time>2017-05-16T09:47:05Z</time>
      </trkpt>
      <trkpt lat="45.97421" lon="4.93089">
        <ele>299</ele>
        <time>2017-05-16T09:47:06Z</time>
      </trkpt>
      <trkpt lat="45.97418" lon="4.93094">
        <ele>299</ele>
        <time>2017-05-16T09:47:07Z</time>
      </trkpt>
      <trkpt lat="45.97414" lon="4.93098">
        <ele>299</ele>
        <time>2017-05-16T09:47:08Z</time>
      </trkpt>
      <trkpt lat="45.97407" lon="4.93105">
        <ele>300</ele>
        <time>2017-05-16T09:47:10Z</time>
      </trkpt>
      <trkpt lat="45.97404" lon="4.93109">
        <ele>300</ele>
        <time>2017-05-16T09:47:11Z</time>
      </trkpt>
      <trkpt lat="45.97398" lon="4.93116">
        <ele>300</ele>
        <time>2017-05-16T09:47:13Z</time>
      </trkpt>
      <trkpt lat="45.97395" lon="4.9312">
        <ele>300</ele>
        <time>2017-05-16T09:47:14Z</time>
      </trkpt>
      <trkpt lat="45.9739" lon="4.93127">
        <ele>300</ele>
        <time>2017-05-16T09:47:16Z</time>
      </trkpt>
      <trkpt lat="45.97386" lon="4.9313">
        <ele>300</ele>
        <time>2017-05-16T09:47:17Z</time>
      </trkpt>
      <trkpt lat="45.97383" lon="4.93134">
        <ele>300</ele>
        <time>2017-05-16T09:47:18Z</time>
      </trkpt>
      <trkpt lat="45.97379" lon="4.93139">
        <ele>300</ele>
        <time>2017-05-16T09:47:19Z</time>
      </trkpt>
      <trkpt lat="45.97375" lon="4.93143">
        <ele>300</ele>
        <time>2017-05-16T09:47:20Z</time>
      </trkpt>
      <trkpt lat="45.97371" lon="4.93148">
        <ele>300</ele>
        <time>2017-05-16T09:47:21Z</time>
      </trkpt>
      <trkpt lat="45.97367" lon="4.93152">
        <ele>300</ele>
        <time>2017-05-16T09:47:22Z</time>
      </trkpt>
      <trkpt lat="45.97363" lon="4.93156">
        <ele>300</ele>
        <time>2017-05-16T09:47:23Z</time>
      </trkpt>
      <trkpt lat="45.97358" lon="4.9316">
        <ele>300</ele>
        <time>2017-05-16T09:47:24Z</time>
      </trkpt>
      <trkpt lat="45.97354" lon="4.93164">
        <ele>300</ele>
        <time>2017-05-16T09:47:25Z</time>
      </trkpt>
      <trkpt lat="45.9735" lon="4.93169">
        <ele>301</ele>
        <time>2017-05-16T09:47:26Z</time>
      </trkpt>
      <trkpt lat="45.97346" lon="4.93174">
        <ele>301</ele>
        <time>2017-05-16T09:47:27Z</time>
      </trkpt>
      <trkpt lat="45.97342" lon="4.93179">
        <ele>301</ele>
        <time>2017-05-16T09:47:28Z</time>
      </trkpt>
      <trkpt lat="45.97337" lon="4.93184">
        <ele>301</ele>
        <time>2017-05-16T09:47:29Z</time>
      </trkpt>
      <trkpt lat="45.97333" lon="4.93188">
        <ele>301</ele>
        <time>2017-05-16T09:47:30Z</time>
      </trkpt>
      <trkpt lat="45.97329" lon="4.93192">
        <ele>301</ele>
        <time>2017-05-16T09:47:31Z</time>
      </trkpt>
      <trkpt lat="45.97325" lon="4.93196">
        <ele>301</ele>
        <time>2017-05-16T09:47:32Z</time>
      </trkpt>
      <trkpt lat="45.97321" lon="4.932">
        <ele>301</ele>
        <time>2017-05-16T09:47:33Z</time>
      </trkpt>
      <trkpt lat="45.97317" lon="4.93203">
        <ele>301</ele>
        <time>2017-05-16T09:47:34Z</time>
      </trkpt>
      <trkpt lat="45.97313" lon="4.93208">
        <ele>301</ele>
        <time>2017-05-16T09:47:35Z</time>
      </trkpt>
      <trkpt lat="45.97309" lon="4.93211">
        <ele>301</ele>
        <time>2017-05-16T09:47:36Z</time>
      </trkpt>
      <trkpt lat="45.97305" lon="4.93215">
        <ele>301</ele>
        <time>2017-05-16T09:47:37Z</time>
      </trkpt>
      <trkpt lat="45.97299" lon="4.93222">
        <ele>301</ele>
        <time>2017-05-16T09:47:39Z</time>
      </trkpt>
      <trkpt lat="45.97296" lon="4.93225">
        <ele>301</ele>
        <time>2017-05-16T09:47:40Z</time>
      </trkpt>
      <trkpt lat="45.9729" lon="4.93233">
        <ele>301</ele>
        <time>2017-05-16T09:47:42Z</time>
      </trkpt>
      <trkpt lat="45.97287" lon="4.93236">
        <ele>301</ele>
        <time>2017-05-16T09:47:43Z</time>
      </trkpt>
      <trkpt lat="45.97281" lon="4.93243">
        <ele>301</ele>
        <time>2017-05-16T09:47:45Z</time>
      </trkpt>
      <trkpt lat="45.97277" lon="4.93248">
        <ele>301</ele>
        <time>2017-05-16T09:47:46Z</time>
      </trkpt>
      <trkpt lat="45.97272" lon="4.93252">
        <ele>302</ele>
        <time>2017-05-16T09:47:47Z</time>
      </trkpt>
      <trkpt lat="45.97269" lon="4.93257">
        <ele>301</ele>
        <time>2017-05-16T09:47:48Z</time>
      </trkpt>
      <trkpt lat="45.97264" lon="4.93262">
        <ele>301</ele>
        <time>2017-05-16T09:47:49Z</time>
      </trkpt>
      <trkpt lat="45.9726" lon="4.93267">
        <ele>301</ele>
        <time>2017-05-16T09:47:50Z</time>
      </trkpt>
      <trkpt lat="45.97257" lon="4.93273">
        <ele>302</ele>
        <time>2017-05-16T09:47:51Z</time>
      </trkpt>
      <trkpt lat="45.97253" lon="4.93278">
        <ele>302</ele>
        <time>2017-05-16T09:47:52Z</time>
      </trkpt>
      <trkpt lat="45.97249" lon="4.93284">
        <ele>300</ele>
        <time>2017-05-16T09:47:53Z</time>
      </trkpt>
      <trkpt lat="45.97245" lon="4.93289">
        <ele>300</ele>
        <time>2017-05-16T09:47:54Z</time>
      </trkpt>
      <trkpt lat="45.97242" lon="4.93294">
        <ele>300</ele>
        <time>2017-05-16T09:47:55Z</time>
      </trkpt>
      <trkpt lat="45.97238" lon="4.93299">
        <ele>300</ele>
        <time>2017-05-16T09:47:56Z</time>
      </trkpt>
      <trkpt lat="45.97235" lon="4.93304">
        <ele>300</ele>
        <time>2017-05-16T09:47:57Z</time>
      </trkpt>
      <trkpt lat="45.97232" lon="4.93308">
        <ele>300</ele>
        <time>2017-05-16T09:47:58Z</time>
      </trkpt>
      <trkpt lat="45.97225" lon="4.93316">
        <ele>300</ele>
        <time>2017-05-16T09:48:00Z</time>
      </trkpt>
      <trkpt lat="45.97222" lon="4.9332">
        <ele>300</ele>
        <time>2017-05-16T09:48:01Z</time>
      </trkpt>
      <trkpt lat="45.97218" lon="4.93324">
        <ele>300</ele>
        <time>2017-05-16T09:48:02Z</time>
      </trkpt>
      <trkpt lat="45.97215" lon="4.93328">
        <ele>300</ele>
        <time>2017-05-16T09:48:03Z</time>
      </trkpt>
      <trkpt lat="45.97209" lon="4.93338">
        <ele>301</ele>
        <time>2017-05-16T09:48:05Z</time>
      </trkpt>
      <trkpt lat="45.97207" lon="4.93342">
        <ele>301</ele>
        <time>2017-05-16T09:48:06Z</time>
      </trkpt>
      <trkpt lat="45.97203" lon="4.93347">
        <ele>301</ele>
        <time>2017-05-16T09:48:07Z</time>
      </trkpt>
      <trkpt lat="45.97199" lon="4.93352">
        <ele>301</ele>
        <time>2017-05-16T09:48:08Z</time>
      </trkpt>
      <trkpt lat="45.97195" lon="4.93357">
        <ele>301</ele>
        <time>2017-05-16T09:48:09Z</time>
      </trkpt>
      <trkpt lat="45.97191" lon="4.93361">
        <ele>301</ele>
        <time>2017-05-16T09:48:10Z</time>
      </trkpt>
      <trkpt lat="45.97186" lon="4.93366">
        <ele>301</ele>
        <time>2017-05-16T09:48:11Z</time>
      </trkpt>
      <trkpt lat="45.97182" lon="4.93371">
        <ele>301</ele>
        <time>2017-05-16T09:48:12Z</time>
      </trkpt>
      <trkpt lat="45.97178" lon="4.93376">
        <ele>301</ele>
        <time>2017-05-16T09:48:13Z</time>
      </trkpt>
      <trkpt lat="45.97174" lon="4.9338">
        <ele>301</ele>
        <time>2017-05-16T09:48:14Z</time>
      </trkpt>
      <trkpt lat="45.97169" lon="4.93385">
        <ele>301</ele>
        <time>2017-05-16T09:48:15Z</time>
      </trkpt>
      <trkpt lat="45.97165" lon="4.9339">
        <ele>301</ele>
        <time>2017-05-16T09:48:16Z</time>
      </trkpt>
      <trkpt lat="45.9716" lon="4.93395">
        <ele>301</ele>
        <time>2017-05-16T09:48:17Z</time>
      </trkpt>
      <trkpt lat="45.97156" lon="4.93399">
        <ele>301</ele>
        <time>2017-05-16T09:48:18Z</time>
      </trkpt>
      <trkpt lat="45.97152" lon="4.93403">
        <ele>301</ele>
        <time>2017-05-16T09:48:19Z</time>
      </trkpt>
      <trkpt lat="45.97149" lon="4.93407">
        <ele>301</ele>
        <time>2017-05-16T09:48:20Z</time>
      </trkpt>
      <trkpt lat="45.97143" lon="4.93415">
        <ele>301</ele>
        <time>2017-05-16T09:48:22Z</time>
      </trkpt>
      <trkpt lat="45.9714" lon="4.93418">
        <ele>301</ele>
        <time>2017-05-16T09:48:23Z</time>
      </trkpt>
      <trkpt lat="45.97136" lon="4.93422">
        <ele>301</ele>
        <time>2017-05-16T09:48:24Z</time>
      </trkpt>
      <trkpt lat="45.97132" lon="4.93427">
        <ele>301</ele>
        <time>2017-05-16T09:48:25Z</time>
      </trkpt>
      <trkpt lat="45.97128" lon="4.93431">
        <ele>301</ele>
        <time>2017-05-16T09:48:26Z</time>
      </trkpt>
      <trkpt lat="45.97125" lon="4.93436">
        <ele>301</ele>
        <time>2017-05-16T09:48:27Z</time>
      </trkpt>
      <trkpt lat="45.9712" lon="4.93442">
        <ele>301</ele>
        <time>2017-05-16T09:48:28Z</time>
      </trkpt>
      <trkpt lat="45.97116" lon="4.93447">
        <ele>301</ele>
        <time>2017-05-16T09:48:29Z</time>
      </trkpt>
      <trkpt lat="45.97112" lon="4.93452">
        <ele>301</ele>
        <time>2017-05-16T09:48:30Z</time>
      </trkpt>
      <trkpt lat="45.97107" lon="4.93457">
        <ele>301</ele>
        <time>2017-05-16T09:48:31Z</time>
      </trkpt>
      <trkpt lat="45.97103" lon="4.93462">
        <ele>301</ele>
        <time>2017-05-16T09:48:32Z</time>
      </trkpt>
      <trkpt lat="45.97099" lon="4.93467">
        <ele>301</ele>
        <time>2017-05-16T09:48:33Z</time>
      </trkpt>
      <trkpt lat="45.97095" lon="4.93471">
        <ele>301</ele>
        <time>2017-05-16T09:48:34Z</time>
      </trkpt>
      <trkpt lat="45.97092" lon="4.93475">
        <ele>301</ele>
        <time>2017-05-16T09:48:35Z</time>
      </trkpt>
      <trkpt lat="45.97089" lon="4.9348">
        <ele>301</ele>
        <time>2017-05-16T09:48:36Z</time>
      </trkpt>
      <trkpt lat="45.97085" lon="4.93486">
        <ele>301</ele>
        <time>2017-05-16T09:48:37Z</time>
      </trkpt>
      <trkpt lat="45.97082" lon="4.93491">
        <ele>300</ele>
        <time>2017-05-16T09:48:38Z</time>
      </trkpt>
      <trkpt lat="45.97078" lon="4.93495">
        <ele>300</ele>
        <time>2017-05-16T09:48:39Z</time>
      </trkpt>
      <trkpt lat="45.97073" lon="4.935">
        <ele>299</ele>
        <time>2017-05-16T09:48:40Z</time>
      </trkpt>
      <trkpt lat="45.97069" lon="4.93504">
        <ele>299</ele>
        <time>2017-05-16T09:48:41Z</time>
      </trkpt>
      <trkpt lat="45.97065" lon="4.93509">
        <ele>299</ele>
        <time>2017-05-16T09:48:42Z</time>
      </trkpt>
      <trkpt lat="45.97061" lon="4.93515">
        <ele>299</ele>
        <time>2017-05-16T09:48:43Z</time>
      </trkpt>
      <trkpt lat="45.97056" lon="4.9352">
        <ele>299</ele>
        <time>2017-05-16T09:48:44Z</time>
      </trkpt>
      <trkpt lat="45.97052" lon="4.93524">
        <ele>299</ele>
        <time>2017-05-16T09:48:45Z</time>
      </trkpt>
      <trkpt lat="45.97048" lon="4.93529">
        <ele>299</ele>
        <time>2017-05-16T09:48:46Z</time>
      </trkpt>
      <trkpt lat="45.97044" lon="4.93535">
        <ele>299</ele>
        <time>2017-05-16T09:48:47Z</time>
      </trkpt>
      <trkpt lat="45.9704" lon="4.9354">
        <ele>299</ele>
        <time>2017-05-16T09:48:48Z</time>
      </trkpt>
      <trkpt lat="45.97037" lon="4.93546">
        <ele>299</ele>
        <time>2017-05-16T09:48:49Z</time>
      </trkpt>
      <trkpt lat="45.97033" lon="4.93552">
        <ele>299</ele>
        <time>2017-05-16T09:48:50Z</time>
      </trkpt>
      <trkpt lat="45.97029" lon="4.93557">
        <ele>299</ele>
        <time>2017-05-16T09:48:51Z</time>
      </trkpt>
      <trkpt lat="45.97025" lon="4.93562">
        <ele>299</ele>
        <time>2017-05-16T09:48:52Z</time>
      </trkpt>
      <trkpt lat="45.97021" lon="4.93567">
        <ele>299</ele>
        <time>2017-05-16T09:48:53Z</time>
      </trkpt>
      <trkpt lat="45.97017" lon="4.93572">
        <ele>299</ele>
        <time>2017-05-16T09:48:54Z</time>
      </trkpt>
      <trkpt lat="45.97013" lon="4.93576">
        <ele>299</ele>
        <time>2017-05-16T09:48:55Z</time>
      </trkpt>
      <trkpt lat="45.97009" lon="4.93582">
        <ele>299</ele>
        <time>2017-05-16T09:48:56Z</time>
      </trkpt>
      <trkpt lat="45.97005" lon="4.93587">
        <ele>299</ele>
        <time>2017-05-16T09:48:57Z</time>
      </trkpt>
      <trkpt lat="45.97001" lon="4.93592">
        <ele>299</ele>
        <time>2017-05-16T09:48:58Z</time>
      </trkpt>
      <trkpt lat="45.96997" lon="4.93597">
        <ele>299</ele>
        <time>2017-05-16T09:48:59Z</time>
      </trkpt>
      <trkpt lat="45.96993" lon="4.93603">
        <ele>299</ele>
        <time>2017-05-16T09:49:00Z</time>
      </trkpt>
      <trkpt lat="45.96989" lon="4.93608">
        <ele>299</ele>
        <time>2017-05-16T09:49:01Z</time>
      </trkpt>
      <trkpt lat="45.96985" lon="4.93614">
        <ele>299</ele>
        <time>2017-05-16T09:49:02Z</time>
      </trkpt>
      <trkpt lat="45.9698" lon="4.93618">
        <ele>299</ele>
        <time>2017-05-16T09:49:03Z</time>
      </trkpt>
      <trkpt lat="45.96975" lon="4.93623">
        <ele>299</ele>
        <time>2017-05-16T09:49:04Z</time>
      </trkpt>
      <trkpt lat="45.9697" lon="4.93628">
        <ele>299</ele>
        <time>2017-05-16T09:49:05Z</time>
      </trkpt>
      <trkpt lat="45.96966" lon="4.93633">
        <ele>299</ele>
        <time>2017-05-16T09:49:06Z</time>
      </trkpt>
      <trkpt lat="45.96962" lon="4.93638">
        <ele>299</ele>
        <time>2017-05-16T09:49:07Z</time>
      </trkpt>
      <trkpt lat="45.96958" lon="4.93644">
        <ele>299</ele>
        <time>2017-05-16T09:49:08Z</time>
      </trkpt>
      <trkpt lat="45.96955" lon="4.9365">
        <ele>299</ele>
        <time>2017-05-16T09:49:09Z</time>
      </trkpt>
      <trkpt lat="45.9695" lon="4.93655">
        <ele>299</ele>
        <time>2017-05-16T09:49:10Z</time>
      </trkpt>
      <trkpt lat="45.96946" lon="4.9366">
        <ele>298</ele>
        <time>2017-05-16T09:49:11Z</time>
      </trkpt>
      <trkpt lat="45.96942" lon="4.93666">
        <ele>298</ele>
        <time>2017-05-16T09:49:12Z</time>
      </trkpt>
      <trkpt lat="45.96937" lon="4.93671">
        <ele>298</ele>
        <time>2017-05-16T09:49:13Z</time>
      </trkpt>
      <trkpt lat="45.96933" lon="4.93676">
        <ele>298</ele>
        <time>2017-05-16T09:49:14Z</time>
      </trkpt>
      <trkpt lat="45.96929" lon="4.93681">
        <ele>298</ele>
        <time>2017-05-16T09:49:15Z</time>
      </trkpt>
      <trkpt lat="45.96924" lon="4.93686">
        <ele>298</ele>
        <time>2017-05-16T09:49:16Z</time>
      </trkpt>
      <trkpt lat="45.9692" lon="4.93691">
        <ele>298</ele>
        <time>2017-05-16T09:49:17Z</time>
      </trkpt>
      <trkpt lat="45.96915" lon="4.93695">
        <ele>297</ele>
        <time>2017-05-16T09:49:18Z</time>
      </trkpt>
      <trkpt lat="45.96911" lon="4.937">
        <ele>297</ele>
        <time>2017-05-16T09:49:19Z</time>
      </trkpt>
      <trkpt lat="45.96907" lon="4.93705">
        <ele>297</ele>
        <time>2017-05-16T09:49:20Z</time>
      </trkpt>
      <trkpt lat="45.96902" lon="4.93709">
        <ele>297</ele>
        <time>2017-05-16T09:49:21Z</time>
      </trkpt>
      <trkpt lat="45.96897" lon="4.93713">
        <ele>297</ele>
        <time>2017-05-16T09:49:22Z</time>
      </trkpt>
      <trkpt lat="45.96892" lon="4.93717">
        <ele>297</ele>
        <time>2017-05-16T09:49:23Z</time>
      </trkpt>
      <trkpt lat="45.96887" lon="4.93721">
        <ele>297</ele>
        <time>2017-05-16T09:49:24Z</time>
      </trkpt>
      <trkpt lat="45.96882" lon="4.93724">
        <ele>297</ele>
        <time>2017-05-16T09:49:25Z</time>
      </trkpt>
      <trkpt lat="45.96877" lon="4.93728">
        <ele>297</ele>
        <time>2017-05-16T09:49:26Z</time>
      </trkpt>
      <trkpt lat="45.96872" lon="4.93731">
        <ele>297</ele>
        <time>2017-05-16T09:49:27Z</time>
      </trkpt>
      <trkpt lat="45.96867" lon="4.93734">
        <ele>297</ele>
        <time>2017-05-16T09:49:28Z</time>
      </trkpt>
      <trkpt lat="45.96861" lon="4.93737">
        <ele>297</ele>
        <time>2017-05-16T09:49:29Z</time>
      </trkpt>
      <trkpt lat="45.96856" lon="4.93739">
        <ele>297</ele>
        <time>2017-05-16T09:49:30Z</time>
      </trkpt>
      <trkpt lat="45.96851" lon="4.93741">
        <ele>297</ele>
        <time>2017-05-16T09:49:31Z</time>
      </trkpt>
      <trkpt lat="45.96845" lon="4.93743">
        <ele>296</ele>
        <time>2017-05-16T09:49:32Z</time>
      </trkpt>
      <trkpt lat="45.9684" lon="4.93745">
        <ele>296</ele>
        <time>2017-05-16T09:49:33Z</time>
      </trkpt>
      <trkpt lat="45.96834" lon="4.93747">
        <ele>296</ele>
        <time>2017-05-16T09:49:34Z</time>
      </trkpt>
      <trkpt lat="45.9683" lon="4.9375">
        <ele>296</ele>
        <time>2017-05-16T09:49:35Z</time>
      </trkpt>
      <trkpt lat="45.96825" lon="4.93752">
        <ele>296</ele>
        <time>2017-05-16T09:49:36Z</time>
      </trkpt>
      <trkpt lat="45.9682" lon="4.93754">
        <ele>296</ele>
        <time>2017-05-16T09:49:37Z</time>
      </trkpt>
      <trkpt lat="45.96815" lon="4.93757">
        <ele>296</ele>
        <time>2017-05-16T09:49:38Z</time>
      </trkpt>
      <trkpt lat="45.96809" lon="4.93759">
        <ele>295</ele>
        <time>2017-05-16T09:49:39Z</time>
      </trkpt>
      <trkpt lat="45.96804" lon="4.9376">
        <ele>295</ele>
        <time>2017-05-16T09:49:40Z</time>
      </trkpt>
      <trkpt lat="45.96798" lon="4.93763">
        <ele>295</ele>
        <time>2017-05-16T09:49:41Z</time>
      </trkpt>
      <trkpt lat="45.96792" lon="4.93765">
        <ele>295</ele>
        <time>2017-05-16T09:49:42Z</time>
      </trkpt>
      <trkpt lat="45.96786" lon="4.93767">
        <ele>295</ele>
        <time>2017-05-16T09:49:43Z</time>
      </trkpt>
      <trkpt lat="45.9678" lon="4.93769">
        <ele>295</ele>
        <time>2017-05-16T09:49:44Z</time>
      </trkpt>
      <trkpt lat="45.96773" lon="4.93771">
        <ele>295</ele>
        <time>2017-05-16T09:49:45Z</time>
      </trkpt>
      <trkpt lat="45.96767" lon="4.93774">
        <ele>295</ele>
        <time>2017-05-16T09:49:46Z</time>
      </trkpt>
      <trkpt lat="45.96761" lon="4.93776">
        <ele>295</ele>
        <time>2017-05-16T09:49:47Z</time>
      </trkpt>
      <trkpt lat="45.96755" lon="4.93778">
        <ele>295</ele>
        <time>2017-05-16T09:49:48Z</time>
      </trkpt>
      <trkpt lat="45.96749" lon="4.9378">
        <ele>295</ele>
        <time>2017-05-16T09:49:49Z</time>
      </trkpt>
      <trkpt lat="45.96743" lon="4.93782">
        <ele>296</ele>
        <time>2017-05-16T09:49:50Z</time>
      </trkpt>
      <trkpt lat="45.96738" lon="4.93784">
        <ele>296</ele>
        <time>2017-05-16T09:49:51Z</time>
      </trkpt>
      <trkpt lat="45.96732" lon="4.93786">
        <ele>296</ele>
        <time>2017-05-16T09:49:52Z</time>
      </trkpt>
      <trkpt lat="45.96726" lon="4.93789">
        <ele>296</ele>
        <time>2017-05-16T09:49:53Z</time>
      </trkpt>
      <trkpt lat="45.96721" lon="4.93791">
        <ele>296</ele>
        <time>2017-05-16T09:49:54Z</time>
      </trkpt>
      <trkpt lat="45.96715" lon="4.93793">
        <ele>296</ele>
        <time>2017-05-16T09:49:55Z</time>
      </trkpt>
      <trkpt lat="45.9671" lon="4.93795">
        <ele>296</ele>
        <time>2017-05-16T09:49:56Z</time>
      </trkpt>
      <trkpt lat="45.96705" lon="4.93796">
        <ele>296</ele>
        <time>2017-05-16T09:49:57Z</time>
      </trkpt>
      <trkpt lat="45.967" lon="4.93798">
        <ele>296</ele>
        <time>2017-05-16T09:49:58Z</time>
      </trkpt>
      <trkpt lat="45.96695" lon="4.938">
        <ele>297</ele>
        <time>2017-05-16T09:49:59Z</time>
      </trkpt>
      <trkpt lat="45.9669" lon="4.93801">
        <ele>297</ele>
        <time>2017-05-16T09:50:00Z</time>
      </trkpt>
      <trkpt lat="45.96685" lon="4.93803">
        <ele>297</ele>
        <time>2017-05-16T09:50:01Z</time>
      </trkpt>
      <trkpt lat="45.9668" lon="4.93805">
        <ele>297</ele>
        <time>2017-05-16T09:50:02Z</time>
      </trkpt>
      <trkpt lat="45.96674" lon="4.93807">
        <ele>297</ele>
        <time>2017-05-16T09:50:03Z</time>
      </trkpt>
      <trkpt lat="45.96668" lon="4.93809">
        <ele>297</ele>
        <time>2017-05-16T09:50:04Z</time>
      </trkpt>
      <trkpt lat="45.96662" lon="4.93811">
        <ele>297</ele>
        <time>2017-05-16T09:50:05Z</time>
      </trkpt>
      <trkpt lat="45.96656" lon="4.93814">
        <ele>297</ele>
        <time>2017-05-16T09:50:06Z</time>
      </trkpt>
      <trkpt lat="45.9665" lon="4.93816">
        <ele>297</ele>
        <time>2017-05-16T09:50:07Z</time>
      </trkpt>
      <trkpt lat="45.96643" lon="4.93818">
        <ele>297</ele>
        <time>2017-05-16T09:50:08Z</time>
      </trkpt>
      <trkpt lat="45.96637" lon="4.9382">
        <ele>297</ele>
        <time>2017-05-16T09:50:09Z</time>
      </trkpt>
      <trkpt lat="45.9663" lon="4.93822">
        <ele>297</ele>
        <time>2017-05-16T09:50:10Z</time>
      </trkpt>
      <trkpt lat="45.96624" lon="4.93825">
        <ele>297</ele>
        <time>2017-05-16T09:50:11Z</time>
      </trkpt>
      <trkpt lat="45.96617" lon="4.93827">
        <ele>297</ele>
        <time>2017-05-16T09:50:12Z</time>
      </trkpt>
      <trkpt lat="45.96612" lon="4.93829">
        <ele>297</ele>
        <time>2017-05-16T09:50:13Z</time>
      </trkpt>
      <trkpt lat="45.96606" lon="4.93831">
        <ele>297</ele>
        <time>2017-05-16T09:50:14Z</time>
      </trkpt>
      <trkpt lat="45.966" lon="4.93833">
        <ele>297</ele>
        <time>2017-05-16T09:50:15Z</time>
      </trkpt>
      <trkpt lat="45.96595" lon="4.93835">
        <ele>296</ele>
        <time>2017-05-16T09:50:16Z</time>
      </trkpt>
      <trkpt lat="45.96589" lon="4.93837">
        <ele>296</ele>
        <time>2017-05-16T09:50:17Z</time>
      </trkpt>
      <trkpt lat="45.96583" lon="4.93838">
        <ele>296</ele>
        <time>2017-05-16T09:50:18Z</time>
      </trkpt>
      <trkpt lat="45.96578" lon="4.93841">
        <ele>296</ele>
        <time>2017-05-16T09:50:19Z</time>
      </trkpt>
      <trkpt lat="45.96572" lon="4.93843">
        <ele>296</ele>
        <time>2017-05-16T09:50:20Z</time>
      </trkpt>
      <trkpt lat="45.96566" lon="4.93844">
        <ele>296</ele>
        <time>2017-05-16T09:50:21Z</time>
      </trkpt>
      <trkpt lat="45.9656" lon="4.93846">
        <ele>296</ele>
        <time>2017-05-16T09:50:22Z</time>
      </trkpt>
      <trkpt lat="45.96554" lon="4.93848">
        <ele>296</ele>
        <time>2017-05-16T09:50:23Z</time>
      </trkpt>
      <trkpt lat="45.96548" lon="4.9385">
        <ele>296</ele>
        <time>2017-05-16T09:50:24Z</time>
      </trkpt>
      <trkpt lat="45.96542" lon="4.93852">
        <ele>296</ele>
        <time>2017-05-16T09:50:25Z</time>
      </trkpt>
      <trkpt lat="45.96536" lon="4.93854">
        <ele>296</ele>
        <time>2017-05-16T09:50:26Z</time>
      </trkpt>
      <trkpt lat="45.96531" lon="4.93856">
        <ele>296</ele>
        <time>2017-05-16T09:50:27Z</time>
      </trkpt>
      <trkpt lat="45.96525" lon="4.93858">
        <ele>296</ele>
        <time>2017-05-16T09:50:28Z</time>
      </trkpt>
      <trkpt lat="45.9652" lon="4.9386">
        <ele>296</ele>
        <time>2017-05-16T09:50:29Z</time>
      </trkpt>
      <trkpt lat="45.96514" lon="4.93862">
        <ele>296</ele>
        <time>2017-05-16T09:50:30Z</time>
      </trkpt>
      <trkpt lat="45.96509" lon="4.93864">
        <ele>296</ele>
        <time>2017-05-16T09:50:31Z</time>
      </trkpt>
      <trkpt lat="45.96503" lon="4.93866">
        <ele>296</ele>
        <time>2017-05-16T09:50:32Z</time>
      </trkpt>
      <trkpt lat="45.96498" lon="4.93868">
        <ele>296</ele>
        <time>2017-05-16T09:50:33Z</time>
      </trkpt>
      <trkpt lat="45.96493" lon="4.9387">
        <ele>296</ele>
        <time>2017-05-16T09:50:34Z</time>
      </trkpt>
      <trkpt lat="45.96487" lon="4.93871">
        <ele>296</ele>
        <time>2017-05-16T09:50:35Z</time>
      </trkpt>
      <trkpt lat="45.96482" lon="4.93873">
        <ele>296</ele>
        <time>2017-05-16T09:50:36Z</time>
      </trkpt>
      <trkpt lat="45.96477" lon="4.93875">
        <ele>295</ele>
        <time>2017-05-16T09:50:37Z</time>
      </trkpt>
      <trkpt lat="45.96471" lon="4.93877">
        <ele>295</ele>
        <time>2017-05-16T09:50:38Z</time>
      </trkpt>
      <trkpt lat="45.96466" lon="4.93879">
        <ele>295</ele>
        <time>2017-05-16T09:50:39Z</time>
      </trkpt>
      <trkpt lat="45.9646" lon="4.9388">
        <ele>295</ele>
        <time>2017-05-16T09:50:40Z</time>
      </trkpt>
      <trkpt lat="45.96454" lon="4.93883">
        <ele>296</ele>
        <time>2017-05-16T09:50:41Z</time>
      </trkpt>
      <trkpt lat="45.96447" lon="4.93885">
        <ele>296</ele>
        <time>2017-05-16T09:50:42Z</time>
      </trkpt>
      <trkpt lat="45.9644" lon="4.93888">
        <ele>296</ele>
        <time>2017-05-16T09:50:43Z</time>
      </trkpt>
      <trkpt lat="45.96434" lon="4.9389">
        <ele>296</ele>
        <time>2017-05-16T09:50:44Z</time>
      </trkpt>
      <trkpt lat="45.96428" lon="4.93892">
        <ele>296</ele>
        <time>2017-05-16T09:50:45Z</time>
      </trkpt>
      <trkpt lat="45.96422" lon="4.93894">
        <ele>296</ele>
        <time>2017-05-16T09:50:46Z</time>
      </trkpt>
      <trkpt lat="45.96416" lon="4.93896">
        <ele>295</ele>
        <time>2017-05-16T09:50:47Z</time>
      </trkpt>
      <trkpt lat="45.96409" lon="4.93899">
        <ele>295</ele>
        <time>2017-05-16T09:50:48Z</time>
      </trkpt>
      <trkpt lat="45.96403" lon="4.93901">
        <ele>295</ele>
        <time>2017-05-16T09:50:49Z</time>
      </trkpt>
      <trkpt lat="45.96397" lon="4.93903">
        <ele>295</ele>
        <time>2017-05-16T09:50:50Z</time>
      </trkpt>
      <trkpt lat="45.96391" lon="4.93905">
        <ele>294</ele>
        <time>2017-05-16T09:50:51Z</time>
      </trkpt>
      <trkpt lat="45.96385" lon="4.93908">
        <ele>294</ele>
        <time>2017-05-16T09:50:52Z</time>
      </trkpt>
      <trkpt lat="45.96379" lon="4.9391">
        <ele>294</ele>
        <time>2017-05-16T09:50:53Z</time>
      </trkpt>
      <trkpt lat="45.96373" lon="4.93912">
        <ele>294</ele>
        <time>2017-05-16T09:50:54Z</time>
      </trkpt>
      <trkpt lat="45.96367" lon="4.93915">
        <ele>294</ele>
        <time>2017-05-16T09:50:55Z</time>
      </trkpt>
      <trkpt lat="45.96361" lon="4.93917">
        <ele>294</ele>
        <time>2017-05-16T09:50:56Z</time>
      </trkpt>
      <trkpt lat="45.96355" lon="4.93919">
        <ele>294</ele>
        <time>2017-05-16T09:50:57Z</time>
      </trkpt>
      <trkpt lat="45.96349" lon="4.93921">
        <ele>293</ele>
        <time>2017-05-16T09:50:58Z</time>
      </trkpt>
      <trkpt lat="45.96343" lon="4.93923">
        <ele>293</ele>
        <time>2017-05-16T09:50:59Z</time>
      </trkpt>
      <trkpt lat="45.96337" lon="4.93925">
        <ele>293</ele>
        <time>2017-05-16T09:51:00Z</time>
      </trkpt>
      <trkpt lat="45.96331" lon="4.93928">
        <ele>292</ele>
        <time>2017-05-16T09:51:01Z</time>
      </trkpt>
      <trkpt lat="45.96325" lon="4.9393">
        <ele>292</ele>
        <time>2017-05-16T09:51:02Z</time>
      </trkpt>
      <trkpt lat="45.96319" lon="4.93932">
        <ele>292</ele>
        <time>2017-05-16T09:51:03Z</time>
      </trkpt>
      <trkpt lat="45.96314" lon="4.93934">
        <ele>292</ele>
        <time>2017-05-16T09:51:04Z</time>
      </trkpt>
      <trkpt lat="45.96308" lon="4.93937">
        <ele>292</ele>
        <time>2017-05-16T09:51:05Z</time>
      </trkpt>
      <trkpt lat="45.96302" lon="4.93939">
        <ele>292</ele>
        <time>2017-05-16T09:51:06Z</time>
      </trkpt>
      <trkpt lat="45.96296" lon="4.93941">
        <ele>292</ele>
        <time>2017-05-16T09:51:07Z</time>
      </trkpt>
      <trkpt lat="45.96291" lon="4.93943">
        <ele>292</ele>
        <time>2017-05-16T09:51:08Z</time>
      </trkpt>
      <trkpt lat="45.96285" lon="4.93945">
        <ele>291</ele>
        <time>2017-05-16T09:51:09Z</time>
      </trkpt>
      <trkpt lat="45.96279" lon="4.93948">
        <ele>291</ele>
        <time>2017-05-16T09:51:10Z</time>
      </trkpt>
      <trkpt lat="45.96273" lon="4.93951">
        <ele>291</ele>
        <time>2017-05-16T09:51:11Z</time>
      </trkpt>
      <trkpt lat="45.96267" lon="4.93954">
        <ele>291</ele>
        <time>2017-05-16T09:51:12Z</time>
      </trkpt>
      <trkpt lat="45.96261" lon="4.93957">
        <ele>291</ele>
        <time>2017-05-16T09:51:13Z</time>
      </trkpt>
      <trkpt lat="45.96256" lon="4.9396">
        <ele>291</ele>
        <time>2017-05-16T09:51:14Z</time>
      </trkpt>
      <trkpt lat="45.96251" lon="4.93963">
        <ele>291</ele>
        <time>2017-05-16T09:51:15Z</time>
      </trkpt>
      <trkpt lat="45.96246" lon="4.93966">
        <ele>290</ele>
        <time>2017-05-16T09:51:16Z</time>
      </trkpt>
      <trkpt lat="45.96241" lon="4.93969">
        <ele>290</ele>
        <time>2017-05-16T09:51:17Z</time>
      </trkpt>
      <trkpt lat="45.96236" lon="4.93971">
        <ele>290</ele>
        <time>2017-05-16T09:51:18Z</time>
      </trkpt>
      <trkpt lat="45.96231" lon="4.93975">
        <ele>290</ele>
        <time>2017-05-16T09:51:19Z</time>
      </trkpt>
      <trkpt lat="45.96226" lon="4.93979">
        <ele>290</ele>
        <time>2017-05-16T09:51:20Z</time>
      </trkpt>
      <trkpt lat="45.9622" lon="4.93983">
        <ele>290</ele>
        <time>2017-05-16T09:51:21Z</time>
      </trkpt>
      <trkpt lat="45.96215" lon="4.93988">
        <ele>290</ele>
        <time>2017-05-16T09:51:22Z</time>
      </trkpt>
      <trkpt lat="45.9621" lon="4.93992">
        <ele>290</ele>
        <time>2017-05-16T09:51:23Z</time>
      </trkpt>
      <trkpt lat="45.96205" lon="4.93997">
        <ele>290</ele>
        <time>2017-05-16T09:51:24Z</time>
      </trkpt>
      <trkpt lat="45.96199" lon="4.94001">
        <ele>290</ele>
        <time>2017-05-16T09:51:25Z</time>
      </trkpt>
      <trkpt lat="45.96195" lon="4.94004">
        <ele>290</ele>
        <time>2017-05-16T09:51:26Z</time>
      </trkpt>
      <trkpt lat="45.9619" lon="4.94009">
        <ele>290</ele>
        <time>2017-05-16T09:51:27Z</time>
      </trkpt>
      <trkpt lat="45.96185" lon="4.94012">
        <ele>290</ele>
        <time>2017-05-16T09:51:28Z</time>
      </trkpt>
      <trkpt lat="45.9618" lon="4.94016">
        <ele>290</ele>
        <time>2017-05-16T09:51:29Z</time>
      </trkpt>
      <trkpt lat="45.96175" lon="4.9402">
        <ele>290</ele>
        <time>2017-05-16T09:51:30Z</time>
      </trkpt>
      <trkpt lat="45.96171" lon="4.94023">
        <ele>290</ele>
        <time>2017-05-16T09:51:31Z</time>
      </trkpt>
      <trkpt lat="45.96167" lon="4.94026">
        <ele>290</ele>
        <time>2017-05-16T09:51:32Z</time>
      </trkpt>
      <trkpt lat="45.96163" lon="4.94029">
        <ele>290</ele>
        <time>2017-05-16T09:51:33Z</time>
      </trkpt>
      <trkpt lat="45.96159" lon="4.94032">
        <ele>290</ele>
        <time>2017-05-16T09:51:34Z</time>
      </trkpt>
      <trkpt lat="45.96154" lon="4.94035">
        <ele>290</ele>
        <time>2017-05-16T09:51:35Z</time>
      </trkpt>
      <trkpt lat="45.9615" lon="4.94039">
        <ele>290</ele>
        <time>2017-05-16T09:51:36Z</time>
      </trkpt>
      <trkpt lat="45.96146" lon="4.94043">
        <ele>290</ele>
        <time>2017-05-16T09:51:37Z</time>
      </trkpt>
      <trkpt lat="45.96141" lon="4.94047">
        <ele>290</ele>
        <time>2017-05-16T09:51:38Z</time>
      </trkpt>
      <trkpt lat="45.96135" lon="4.94051">
        <ele>290</ele>
        <time>2017-05-16T09:51:39Z</time>
      </trkpt>
      <trkpt lat="45.9613" lon="4.94056">
        <ele>290</ele>
        <time>2017-05-16T09:51:40Z</time>
      </trkpt>
      <trkpt lat="45.96124" lon="4.94061">
        <ele>290</ele>
        <time>2017-05-16T09:51:41Z</time>
      </trkpt>
      <trkpt lat="45.96119" lon="4.94065">
        <ele>290</ele>
        <time>2017-05-16T09:51:42Z</time>
      </trkpt>
      <trkpt lat="45.96113" lon="4.9407">
        <ele>290</ele>
        <time>2017-05-16T09:51:43Z</time>
      </trkpt>
      <trkpt lat="45.96107" lon="4.94075">
        <ele>291</ele>
        <time>2017-05-16T09:51:44Z</time>
      </trkpt>
      <trkpt lat="45.96101" lon="4.9408">
        <ele>291</ele>
        <time>2017-05-16T09:51:45Z</time>
      </trkpt>
      <trkpt lat="45.96096" lon="4.94085">
        <ele>291</ele>
        <time>2017-05-16T09:51:46Z</time>
      </trkpt>
      <trkpt lat="45.9609" lon="4.9409">
        <ele>291</ele>
        <time>2017-05-16T09:51:47Z</time>
      </trkpt>
      <trkpt lat="45.96085" lon="4.94095">
        <ele>291</ele>
        <time>2017-05-16T09:51:48Z</time>
      </trkpt>
      <trkpt lat="45.96079" lon="4.94099">
        <ele>291</ele>
        <time>2017-05-16T09:51:49Z</time>
      </trkpt>
      <trkpt lat="45.96074" lon="4.94103">
        <ele>291</ele>
        <time>2017-05-16T09:51:50Z</time>
      </trkpt>
      <trkpt lat="45.96069" lon="4.94108">
        <ele>291</ele>
        <time>2017-05-16T09:51:51Z</time>
      </trkpt>
      <trkpt lat="45.96064" lon="4.94111">
        <ele>291</ele>
        <time>2017-05-16T09:51:52Z</time>
      </trkpt>
      <trkpt lat="45.9606" lon="4.94115">
        <ele>291</ele>
        <time>2017-05-16T09:51:53Z</time>
      </trkpt>
      <trkpt lat="45.96055" lon="4.94119">
        <ele>291</ele>
        <time>2017-05-16T09:51:54Z</time>
      </trkpt>
      <trkpt lat="45.9605" lon="4.94122">
        <ele>291</ele>
        <time>2017-05-16T09:51:55Z</time>
      </trkpt>
      <trkpt lat="45.96046" lon="4.94124">
        <ele>291</ele>
        <time>2017-05-16T09:51:56Z</time>
      </trkpt>
      <trkpt lat="45.96042" lon="4.94126">
        <ele>291</ele>
        <time>2017-05-16T09:51:57Z</time>
      </trkpt>
      <trkpt lat="45.96037" lon="4.94127">
        <ele>291</ele>
        <time>2017-05-16T09:51:58Z</time>
      </trkpt>
      <trkpt lat="45.96033" lon="4.94128">
        <ele>291</ele>
        <time>2017-05-16T09:51:59Z</time>
      </trkpt>
      <trkpt lat="45.96028" lon="4.94128">
        <ele>291</ele>
        <time>2017-05-16T09:52:00Z</time>
      </trkpt>
      <trkpt lat="45.96023" lon="4.94128">
        <ele>291</ele>
        <time>2017-05-16T09:52:01Z</time>
      </trkpt>
      <trkpt lat="45.96018" lon="4.94128">
        <ele>291</ele>
        <time>2017-05-16T09:52:02Z</time>
      </trkpt>
      <trkpt lat="45.96013" lon="4.94126">
        <ele>291</ele>
        <time>2017-05-16T09:52:03Z</time>
      </trkpt>
      <trkpt lat="45.96008" lon="4.94125">
        <ele>291</ele>
        <time>2017-05-16T09:52:04Z</time>
      </trkpt>
      <trkpt lat="45.96002" lon="4.94123">
        <ele>291</ele>
        <time>2017-05-16T09:52:05Z</time>
      </trkpt>
      <trkpt lat="45.95996" lon="4.94122">
        <ele>291</ele>
        <time>2017-05-16T09:52:06Z</time>
      </trkpt>
      <trkpt lat="45.9599" lon="4.9412">
        <ele>292</ele>
        <time>2017-05-16T09:52:07Z</time>
      </trkpt>
      <trkpt lat="45.95985" lon="4.94118">
        <ele>292</ele>
        <time>2017-05-16T09:52:08Z</time>
      </trkpt>
      <trkpt lat="45.95979" lon="4.94116">
        <ele>292</ele>
        <time>2017-05-16T09:52:09Z</time>
      </trkpt>
      <trkpt lat="45.95974" lon="4.94114">
        <ele>292</ele>
        <time>2017-05-16T09:52:10Z</time>
      </trkpt>
      <trkpt lat="45.95969" lon="4.94113">
        <ele>292</ele>
        <time>2017-05-16T09:52:11Z</time>
      </trkpt>
      <trkpt lat="45.95964" lon="4.94112">
        <ele>292</ele>
        <time>2017-05-16T09:52:12Z</time>
      </trkpt>
      <trkpt lat="45.95958" lon="4.94111">
        <ele>292</ele>
        <time>2017-05-16T09:52:13Z</time>
      </trkpt>
      <trkpt lat="45.95954" lon="4.9411">
        <ele>292</ele>
        <time>2017-05-16T09:52:14Z</time>
      </trkpt>
      <trkpt lat="45.95949" lon="4.94107">
        <ele>292</ele>
        <time>2017-05-16T09:52:15Z</time>
      </trkpt>
      <trkpt lat="45.95943" lon="4.94106">
        <ele>292</ele>
        <time>2017-05-16T09:52:16Z</time>
      </trkpt>
      <trkpt lat="45.95938" lon="4.94105">
        <ele>292</ele>
        <time>2017-05-16T09:52:17Z</time>
      </trkpt>
      <trkpt lat="45.95933" lon="4.94104">
        <ele>292</ele>
        <time>2017-05-16T09:52:18Z</time>
      </trkpt>
      <trkpt lat="45.95928" lon="4.94102">
        <ele>292</ele>
        <time>2017-05-16T09:52:19Z</time>
      </trkpt>
      <trkpt lat="45.95923" lon="4.941">
        <ele>292</ele>
        <time>2017-05-16T09:52:20Z</time>
      </trkpt>
      <trkpt lat="45.95918" lon="4.94099">
        <ele>292</ele>
        <time>2017-05-16T09:52:21Z</time>
      </trkpt>
      <trkpt lat="45.95913" lon="4.94097">
        <ele>293</ele>
        <time>2017-05-16T09:52:22Z</time>
      </trkpt>
      <trkpt lat="45.95908" lon="4.94096">
        <ele>293</ele>
        <time>2017-05-16T09:52:23Z</time>
      </trkpt>
      <trkpt lat="45.95903" lon="4.94095">
        <ele>293</ele>
        <time>2017-05-16T09:52:24Z</time>
      </trkpt>
      <trkpt lat="45.95899" lon="4.94093">
        <ele>293</ele>
        <time>2017-05-16T09:52:25Z</time>
      </trkpt>
      <trkpt lat="45.95894" lon="4.94092">
        <ele>293</ele>
        <time>2017-05-16T09:52:26Z</time>
      </trkpt>
      <trkpt lat="45.95888" lon="4.94091">
        <ele>293</ele>
        <time>2017-05-16T09:52:27Z</time>
      </trkpt>
      <trkpt lat="45.95883" lon="4.94089">
        <ele>293</ele>
        <time>2017-05-16T09:52:28Z</time>
      </trkpt>
      <trkpt lat="45.95878" lon="4.94087">
        <ele>293</ele>
        <time>2017-05-16T09:52:29Z</time>
      </trkpt>
      <trkpt lat="45.95872" lon="4.94085">
        <ele>293</ele>
        <time>2017-05-16T09:52:30Z</time>
      </trkpt>
      <trkpt lat="45.95866" lon="4.94084">
        <ele>293</ele>
        <time>2017-05-16T09:52:31Z</time>
      </trkpt>
      <trkpt lat="45.95861" lon="4.94084">
        <ele>294</ele>
        <time>2017-05-16T09:52:32Z</time>
      </trkpt>
      <trkpt lat="45.95854" lon="4.94083">
        <ele>293</ele>
        <time>2017-05-16T09:52:33Z</time>
      </trkpt>
      <trkpt lat="45.95848" lon="4.94081">
        <ele>293</ele>
        <time>2017-05-16T09:52:34Z</time>
      </trkpt>
      <trkpt lat="45.95842" lon="4.9408">
        <ele>294</ele>
        <time>2017-05-16T09:52:35Z</time>
      </trkpt>
      <trkpt lat="45.95836" lon="4.94079">
        <ele>294</ele>
        <time>2017-05-16T09:52:36Z</time>
      </trkpt>
      <trkpt lat="45.9583" lon="4.94077">
        <ele>294</ele>
        <time>2017-05-16T09:52:37Z</time>
      </trkpt>
      <trkpt lat="45.95825" lon="4.94076">
        <ele>294</ele>
        <time>2017-05-16T09:52:38Z</time>
      </trkpt>
      <trkpt lat="45.95819" lon="4.94075">
        <ele>294</ele>
        <time>2017-05-16T09:52:39Z</time>
      </trkpt>
      <trkpt lat="45.95814" lon="4.94073">
        <ele>294</ele>
        <time>2017-05-16T09:52:40Z</time>
      </trkpt>
      <trkpt lat="45.95808" lon="4.94072">
        <ele>294</ele>
        <time>2017-05-16T09:52:41Z</time>
      </trkpt>
      <trkpt lat="45.95804" lon="4.94071">
        <ele>294</ele>
        <time>2017-05-16T09:52:42Z</time>
      </trkpt>
      <trkpt lat="45.95799" lon="4.94071">
        <ele>294</ele>
        <time>2017-05-16T09:52:43Z</time>
      </trkpt>
      <trkpt lat="45.95791" lon="4.94074">
        <ele>294</ele>
        <time>2017-05-16T09:52:45Z</time>
      </trkpt>
      <trkpt lat="45.95787" lon="4.94071">
        <ele>294</ele>
        <time>2017-05-16T09:52:46Z</time>
      </trkpt>
      <trkpt lat="45.95778" lon="4.94069">
        <ele>294</ele>
        <time>2017-05-16T09:52:48Z</time>
      </trkpt>
      <trkpt lat="45.95774" lon="4.94068">
        <ele>294</ele>
        <time>2017-05-16T09:52:49Z</time>
      </trkpt>
      <trkpt lat="45.95766" lon="4.94064">
        <ele>294</ele>
        <time>2017-05-16T09:52:51Z</time>
      </trkpt>
      <trkpt lat="45.95761" lon="4.94063">
        <ele>294</ele>
        <time>2017-05-16T09:52:52Z</time>
      </trkpt>
      <trkpt lat="45.95756" lon="4.94062">
        <ele>294</ele>
        <time>2017-05-16T09:52:53Z</time>
      </trkpt>
      <trkpt lat="45.95752" lon="4.94061">
        <ele>295</ele>
        <time>2017-05-16T09:52:54Z</time>
      </trkpt>
      <trkpt lat="45.95747" lon="4.94061">
        <ele>295</ele>
        <time>2017-05-16T09:52:55Z</time>
      </trkpt>
      <trkpt lat="45.95741" lon="4.9406">
        <ele>295</ele>
        <time>2017-05-16T09:52:56Z</time>
      </trkpt>
      <trkpt lat="45.95736" lon="4.94059">
        <ele>295</ele>
        <time>2017-05-16T09:52:57Z</time>
      </trkpt>
      <trkpt lat="45.95731" lon="4.94056">
        <ele>295</ele>
        <time>2017-05-16T09:52:58Z</time>
      </trkpt>
      <trkpt lat="45.95726" lon="4.94054">
        <ele>295</ele>
        <time>2017-05-16T09:52:59Z</time>
      </trkpt>
      <trkpt lat="45.95721" lon="4.94052">
        <ele>295</ele>
        <time>2017-05-16T09:53:00Z</time>
      </trkpt>
      <trkpt lat="45.95716" lon="4.94051">
        <ele>295</ele>
        <time>2017-05-16T09:53:01Z</time>
      </trkpt>
      <trkpt lat="45.95711" lon="4.9405">
        <ele>295</ele>
        <time>2017-05-16T09:53:02Z</time>
      </trkpt>
      <trkpt lat="45.95706" lon="4.94049">
        <ele>295</ele>
        <time>2017-05-16T09:53:03Z</time>
      </trkpt>
      <trkpt lat="45.95702" lon="4.94048">
        <ele>295</ele>
        <time>2017-05-16T09:53:04Z</time>
      </trkpt>
      <trkpt lat="45.95697" lon="4.94047">
        <ele>295</ele>
        <time>2017-05-16T09:53:05Z</time>
      </trkpt>
      <trkpt lat="45.95693" lon="4.94045">
        <ele>295</ele>
        <time>2017-05-16T09:53:06Z</time>
      </trkpt>
      <trkpt lat="45.95684" lon="4.94043">
        <ele>295</ele>
        <time>2017-05-16T09:53:08Z</time>
      </trkpt>
      <trkpt lat="45.9568" lon="4.94042">
        <ele>295</ele>
        <time>2017-05-16T09:53:09Z</time>
      </trkpt>
      <trkpt lat="45.95671" lon="4.9404">
        <ele>295</ele>
        <time>2017-05-16T09:53:11Z</time>
      </trkpt>
      <trkpt lat="45.95667" lon="4.94037">
        <ele>295</ele>
        <time>2017-05-16T09:53:12Z</time>
      </trkpt>
      <trkpt lat="45.95665" lon="4.94028">
        <ele>294</ele>
        <time>2017-05-16T09:53:14Z</time>
      </trkpt>
      <trkpt lat="45.95667" lon="4.94024">
        <ele>294</ele>
        <time>2017-05-16T09:53:15Z</time>
      </trkpt>
      <trkpt lat="45.95669" lon="4.94013">
        <ele>295</ele>
        <time>2017-05-16T09:53:17Z</time>
      </trkpt>
      <trkpt lat="45.9567" lon="4.94007">
        <ele>296</ele>
        <time>2017-05-16T09:53:18Z</time>
      </trkpt>
      <trkpt lat="45.95667" lon="4.93996">
        <ele>296</ele>
        <time>2017-05-16T09:53:20Z</time>
      </trkpt>
      <trkpt lat="45.95663" lon="4.93991">
        <ele>295</ele>
        <time>2017-05-16T09:53:21Z</time>
      </trkpt>
      <trkpt lat="45.95656" lon="4.93986">
        <ele>295</ele>
        <time>2017-05-16T09:53:23Z</time>
      </trkpt>
      <trkpt lat="45.95653" lon="4.93984">
        <ele>295</ele>
        <time>2017-05-16T09:53:24Z</time>
      </trkpt>
      <trkpt lat="45.95647" lon="4.93975">
        <ele>294</ele>
        <time>2017-05-16T09:53:26Z</time>
      </trkpt>
      <trkpt lat="45.95645" lon="4.93969">
        <ele>294</ele>
        <time>2017-05-16T09:53:27Z</time>
      </trkpt>
      <trkpt lat="45.95644" lon="4.93961">
        <ele>294</ele>
        <time>2017-05-16T09:53:28Z</time>
      </trkpt>
      <trkpt lat="45.95644" lon="4.93953">
        <ele>294</ele>
        <time>2017-05-16T09:53:29Z</time>
      </trkpt>
      <trkpt lat="45.95643" lon="4.93945">
        <ele>294</ele>
        <time>2017-05-16T09:53:30Z</time>
      </trkpt>
      <trkpt lat="45.95643" lon="4.93936">
        <ele>294</ele>
        <time>2017-05-16T09:53:31Z</time>
      </trkpt>
      <trkpt lat="45.95646" lon="4.93926">
        <ele>294</ele>
        <time>2017-05-16T09:53:32Z</time>
      </trkpt>
      <trkpt lat="45.95648" lon="4.93917">
        <ele>294</ele>
        <time>2017-05-16T09:53:33Z</time>
      </trkpt>
      <trkpt lat="45.9565" lon="4.93907">
        <ele>292</ele>
        <time>2017-05-16T09:53:34Z</time>
      </trkpt>
      <trkpt lat="45.95652" lon="4.93899">
        <ele>292</ele>
        <time>2017-05-16T09:53:35Z</time>
      </trkpt>
      <trkpt lat="45.95653" lon="4.93891">
        <ele>292</ele>
        <time>2017-05-16T09:53:36Z</time>
      </trkpt>
      <trkpt lat="45.95654" lon="4.93883">
        <ele>291</ele>
        <time>2017-05-16T09:53:37Z</time>
      </trkpt>
      <trkpt lat="45.95654" lon="4.93874">
        <ele>291</ele>
        <time>2017-05-16T09:53:38Z</time>
      </trkpt>
      <trkpt lat="45.95651" lon="4.93867">
        <ele>290</ele>
        <time>2017-05-16T09:53:39Z</time>
      </trkpt>
      <trkpt lat="45.95645" lon="4.93861">
        <ele>290</ele>
        <time>2017-05-16T09:53:40Z</time>
      </trkpt>
      <trkpt lat="45.9564" lon="4.93856">
        <ele>290</ele>
        <time>2017-05-16T09:53:41Z</time>
      </trkpt>
      <trkpt lat="45.95634" lon="4.93852">
        <ele>290</ele>
        <time>2017-05-16T09:53:42Z</time>
      </trkpt>
      <trkpt lat="45.95628" lon="4.93848">
        <ele>290</ele>
        <time>2017-05-16T09:53:43Z</time>
      </trkpt>
      <trkpt lat="45.95622" lon="4.93844">
        <ele>290</ele>
        <time>2017-05-16T09:53:44Z</time>
      </trkpt>
      <trkpt lat="45.95616" lon="4.9384">
        <ele>290</ele>
        <time>2017-05-16T09:53:45Z</time>
      </trkpt>
      <trkpt lat="45.9561" lon="4.93837">
        <ele>290</ele>
        <time>2017-05-16T09:53:46Z</time>
      </trkpt>
      <trkpt lat="45.95605" lon="4.93834">
        <ele>290</ele>
        <time>2017-05-16T09:53:47Z</time>
      </trkpt>
      <trkpt lat="45.956" lon="4.93829">
        <ele>289</ele>
        <time>2017-05-16T09:53:48Z</time>
      </trkpt>
      <trkpt lat="45.95595" lon="4.93824">
        <ele>289</ele>
        <time>2017-05-16T09:53:49Z</time>
      </trkpt>
      <trkpt lat="45.95591" lon="4.93819">
        <ele>289</ele>
        <time>2017-05-16T09:53:50Z</time>
      </trkpt>
      <trkpt lat="45.95587" lon="4.93814">
        <ele>289</ele>
        <time>2017-05-16T09:53:51Z</time>
      </trkpt>
      <trkpt lat="45.95583" lon="4.93809">
        <ele>290</ele>
        <time>2017-05-16T09:53:52Z</time>
      </trkpt>
      <trkpt lat="45.95579" lon="4.93805">
        <ele>290</ele>
        <time>2017-05-16T09:53:53Z</time>
      </trkpt>
      <trkpt lat="45.95575" lon="4.938">
        <ele>290</ele>
        <time>2017-05-16T09:53:54Z</time>
      </trkpt>
      <trkpt lat="45.95571" lon="4.93795">
        <ele>290</ele>
        <time>2017-05-16T09:53:55Z</time>
      </trkpt>
      <trkpt lat="45.95568" lon="4.93789">
        <ele>290</ele>
        <time>2017-05-16T09:53:56Z</time>
      </trkpt>
      <trkpt lat="45.95566" lon="4.93782">
        <ele>290</ele>
        <time>2017-05-16T09:53:57Z</time>
      </trkpt>
      <trkpt lat="45.95565" lon="4.93775">
        <ele>290</ele>
        <time>2017-05-16T09:53:58Z</time>
      </trkpt>
      <trkpt lat="45.95564" lon="4.93769">
        <ele>290</ele>
        <time>2017-05-16T09:53:59Z</time>
      </trkpt>
      <trkpt lat="45.95563" lon="4.93762">
        <ele>290</ele>
        <time>2017-05-16T09:54:00Z</time>
      </trkpt>
      <trkpt lat="45.95563" lon="4.93755">
        <ele>290</ele>
        <time>2017-05-16T09:54:01Z</time>
      </trkpt>
      <trkpt lat="45.95563" lon="4.93749">
        <ele>290</ele>
        <time>2017-05-16T09:54:02Z</time>
      </trkpt>
      <trkpt lat="45.95562" lon="4.93742">
        <ele>290</ele>
        <time>2017-05-16T09:54:03Z</time>
      </trkpt>
      <trkpt lat="45.95563" lon="4.93735">
        <ele>290</ele>
        <time>2017-05-16T09:54:04Z</time>
      </trkpt>
      <trkpt lat="45.95562" lon="4.93728">
        <ele>290</ele>
        <time>2017-05-16T09:54:05Z</time>
      </trkpt>
      <trkpt lat="45.95562" lon="4.9372">
        <ele>290</ele>
        <time>2017-05-16T09:54:06Z</time>
      </trkpt>
      <trkpt lat="45.95562" lon="4.93712">
        <ele>290</ele>
        <time>2017-05-16T09:54:07Z</time>
      </trkpt>
      <trkpt lat="45.95561" lon="4.93705">
        <ele>290</ele>
        <time>2017-05-16T09:54:08Z</time>
      </trkpt>
      <trkpt lat="45.95561" lon="4.93697">
        <ele>290</ele>
        <time>2017-05-16T09:54:09Z</time>
      </trkpt>
      <trkpt lat="45.95561" lon="4.93688">
        <ele>290</ele>
        <time>2017-05-16T09:54:10Z</time>
      </trkpt>
      <trkpt lat="45.95562" lon="4.9368">
        <ele>290</ele>
        <time>2017-05-16T09:54:11Z</time>
      </trkpt>
      <trkpt lat="45.95562" lon="4.93672">
        <ele>289</ele>
        <time>2017-05-16T09:54:12Z</time>
      </trkpt>
      <trkpt lat="45.95563" lon="4.93664">
        <ele>289</ele>
        <time>2017-05-16T09:54:13Z</time>
      </trkpt>
      <trkpt lat="45.95563" lon="4.93656">
        <ele>289</ele>
        <time>2017-05-16T09:54:14Z</time>
      </trkpt>
      <trkpt lat="45.95564" lon="4.93649">
        <ele>289</ele>
        <time>2017-05-16T09:54:15Z</time>
      </trkpt>
      <trkpt lat="45.95565" lon="4.93642">
        <ele>289</ele>
        <time>2017-05-16T09:54:16Z</time>
      </trkpt>
      <trkpt lat="45.95567" lon="4.93635">
        <ele>289</ele>
        <time>2017-05-16T09:54:17Z</time>
      </trkpt>
      <trkpt lat="45.95568" lon="4.93629">
        <ele>289</ele>
        <time>2017-05-16T09:54:18Z</time>
      </trkpt>
      <trkpt lat="45.9557" lon="4.93622">
        <ele>289</ele>
        <time>2017-05-16T09:54:19Z</time>
      </trkpt>
      <trkpt lat="45.95569" lon="4.93615">
        <ele>289</ele>
        <time>2017-05-16T09:54:20Z</time>
      </trkpt>
      <trkpt lat="45.95569" lon="4.93608">
        <ele>289</ele>
        <time>2017-05-16T09:54:21Z</time>
      </trkpt>
      <trkpt lat="45.9557" lon="4.936">
        <ele>289</ele>
        <time>2017-05-16T09:54:22Z</time>
      </trkpt>
      <trkpt lat="45.9557" lon="4.93593">
        <ele>289</ele>
        <time>2017-05-16T09:54:23Z</time>
      </trkpt>
      <trkpt lat="45.95571" lon="4.93584">
        <ele>289</ele>
        <time>2017-05-16T09:54:24Z</time>
      </trkpt>
      <trkpt lat="45.95571" lon="4.93576">
        <ele>289</ele>
        <time>2017-05-16T09:54:25Z</time>
      </trkpt>
      <trkpt lat="45.95572" lon="4.93568">
        <ele>289</ele>
        <time>2017-05-16T09:54:26Z</time>
      </trkpt>
      <trkpt lat="45.95573" lon="4.9356">
        <ele>289</ele>
        <time>2017-05-16T09:54:27Z</time>
      </trkpt>
      <trkpt lat="45.95573" lon="4.93551">
        <ele>289</ele>
        <time>2017-05-16T09:54:28Z</time>
      </trkpt>
      <trkpt lat="45.95573" lon="4.93542">
        <ele>289</ele>
        <time>2017-05-16T09:54:29Z</time>
      </trkpt>
      <trkpt lat="45.95573" lon="4.93534">
        <ele>290</ele>
        <time>2017-05-16T09:54:30Z</time>
      </trkpt>
      <trkpt lat="45.95571" lon="4.93524">
        <ele>290</ele>
        <time>2017-05-16T09:54:31Z</time>
      </trkpt>
      <trkpt lat="45.95569" lon="4.93514">
        <ele>290</ele>
        <time>2017-05-16T09:54:32Z</time>
      </trkpt>
      <trkpt lat="45.95567" lon="4.93505">
        <ele>290</ele>
        <time>2017-05-16T09:54:33Z</time>
      </trkpt>
      <trkpt lat="45.95565" lon="4.93498">
        <ele>290</ele>
        <time>2017-05-16T09:54:34Z</time>
      </trkpt>
      <trkpt lat="45.95562" lon="4.9349">
        <ele>290</ele>
        <time>2017-05-16T09:54:35Z</time>
      </trkpt>
      <trkpt lat="45.9556" lon="4.93483">
        <ele>289</ele>
        <time>2017-05-16T09:54:36Z</time>
      </trkpt>
      <trkpt lat="45.95557" lon="4.93475">
        <ele>289</ele>
        <time>2017-05-16T09:54:37Z</time>
      </trkpt>
      <trkpt lat="45.95555" lon="4.93469">
        <ele>289</ele>
        <time>2017-05-16T09:54:38Z</time>
      </trkpt>
      <trkpt lat="45.95552" lon="4.93462">
        <ele>289</ele>
        <time>2017-05-16T09:54:39Z</time>
      </trkpt>
      <trkpt lat="45.95549" lon="4.93456">
        <ele>289</ele>
        <time>2017-05-16T09:54:40Z</time>
      </trkpt>
      <trkpt lat="45.95547" lon="4.93449">
        <ele>289</ele>
        <time>2017-05-16T09:54:41Z</time>
      </trkpt>
      <trkpt lat="45.95544" lon="4.93442">
        <ele>289</ele>
        <time>2017-05-16T09:54:42Z</time>
      </trkpt>
      <trkpt lat="45.95541" lon="4.93435">
        <ele>289</ele>
        <time>2017-05-16T09:54:43Z</time>
      </trkpt>
      <trkpt lat="45.95538" lon="4.93427">
        <ele>289</ele>
        <time>2017-05-16T09:54:44Z</time>
      </trkpt>
      <trkpt lat="45.95536" lon="4.9342">
        <ele>289</ele>
        <time>2017-05-16T09:54:45Z</time>
      </trkpt>
      <trkpt lat="45.95533" lon="4.93413">
        <ele>289</ele>
        <time>2017-05-16T09:54:46Z</time>
      </trkpt>
      <trkpt lat="45.9553" lon="4.93406">
        <ele>289</ele>
        <time>2017-05-16T09:54:47Z</time>
      </trkpt>
      <trkpt lat="45.95529" lon="4.93398">
        <ele>289</ele>
        <time>2017-05-16T09:54:48Z</time>
      </trkpt>
      <trkpt lat="45.95526" lon="4.93391">
        <ele>289</ele>
        <time>2017-05-16T09:54:49Z</time>
      </trkpt>
      <trkpt lat="45.95523" lon="4.93385">
        <ele>289</ele>
        <time>2017-05-16T09:54:50Z</time>
      </trkpt>
      <trkpt lat="45.95519" lon="4.93379">
        <ele>289</ele>
        <time>2017-05-16T09:54:51Z</time>
      </trkpt>
      <trkpt lat="45.95516" lon="4.93374">
        <ele>289</ele>
        <time>2017-05-16T09:54:52Z</time>
      </trkpt>
      <trkpt lat="45.95513" lon="4.93368">
        <ele>289</ele>
        <time>2017-05-16T09:54:53Z</time>
      </trkpt>
      <trkpt lat="45.95511" lon="4.93362">
        <ele>289</ele>
        <time>2017-05-16T09:54:54Z</time>
      </trkpt>
      <trkpt lat="45.95509" lon="4.93355">
        <ele>289</ele>
        <time>2017-05-16T09:54:55Z</time>
      </trkpt>
      <trkpt lat="45.95507" lon="4.93348">
        <ele>289</ele>
        <time>2017-05-16T09:54:56Z</time>
      </trkpt>
      <trkpt lat="45.95504" lon="4.93341">
        <ele>289</ele>
        <time>2017-05-16T09:54:57Z</time>
      </trkpt>
      <trkpt lat="45.95502" lon="4.93334">
        <ele>289</ele>
        <time>2017-05-16T09:54:58Z</time>
      </trkpt>
      <trkpt lat="45.955" lon="4.93328">
        <ele>289</ele>
        <time>2017-05-16T09:54:59Z</time>
      </trkpt>
      <trkpt lat="45.95497" lon="4.93321">
        <ele>289</ele>
        <time>2017-05-16T09:55:00Z</time>
      </trkpt>
      <trkpt lat="45.95494" lon="4.93315">
        <ele>290</ele>
        <time>2017-05-16T09:55:01Z</time>
      </trkpt>
      <trkpt lat="45.95492" lon="4.93309">
        <ele>290</ele>
        <time>2017-05-16T09:55:02Z</time>
      </trkpt>
      <trkpt lat="45.95489" lon="4.93302">
        <ele>290</ele>
        <time>2017-05-16T09:55:03Z</time>
      </trkpt>
      <trkpt lat="45.95486" lon="4.93296">
        <ele>290</ele>
        <time>2017-05-16T09:55:04Z</time>
      </trkpt>
      <trkpt lat="45.95483" lon="4.93289">
        <ele>290</ele>
        <time>2017-05-16T09:55:05Z</time>
      </trkpt>
      <trkpt lat="45.9548" lon="4.93283">
        <ele>290</ele>
        <time>2017-05-16T09:55:06Z</time>
      </trkpt>
      <trkpt lat="45.95478" lon="4.93277">
        <ele>290</ele>
        <time>2017-05-16T09:55:07Z</time>
      </trkpt>
      <trkpt lat="45.95475" lon="4.9327">
        <ele>290</ele>
        <time>2017-05-16T09:55:08Z</time>
      </trkpt>
      <trkpt lat="45.95472" lon="4.93263">
        <ele>290</ele>
        <time>2017-05-16T09:55:09Z</time>
      </trkpt>
      <trkpt lat="45.95469" lon="4.93257">
        <ele>290</ele>
        <time>2017-05-16T09:55:10Z</time>
      </trkpt>
      <trkpt lat="45.95467" lon="4.9325">
        <ele>290</ele>
        <time>2017-05-16T09:55:11Z</time>
      </trkpt>
      <trkpt lat="45.95464" lon="4.93244">
        <ele>290</ele>
        <time>2017-05-16T09:55:12Z</time>
      </trkpt>
      <trkpt lat="45.95461" lon="4.93238">
        <ele>290</ele>
        <time>2017-05-16T09:55:13Z</time>
      </trkpt>
      <trkpt lat="45.95459" lon="4.93231">
        <ele>290</ele>
        <time>2017-05-16T09:55:14Z</time>
      </trkpt>
      <trkpt lat="45.95456" lon="4.93224">
        <ele>291</ele>
        <time>2017-05-16T09:55:15Z</time>
      </trkpt>
      <trkpt lat="45.95453" lon="4.93217">
        <ele>291</ele>
        <time>2017-05-16T09:55:16Z</time>
      </trkpt>
      <trkpt lat="45.95451" lon="4.93211">
        <ele>291</ele>
        <time>2017-05-16T09:55:17Z</time>
      </trkpt>
      <trkpt lat="45.9545" lon="4.93203">
        <ele>291</ele>
        <time>2017-05-16T09:55:18Z</time>
      </trkpt>
      <trkpt lat="45.9545" lon="4.93197">
        <ele>291</ele>
        <time>2017-05-16T09:55:19Z</time>
      </trkpt>
      <trkpt lat="45.95451" lon="4.9319">
        <ele>291</ele>
        <time>2017-05-16T09:55:20Z</time>
      </trkpt>
      <trkpt lat="45.95453" lon="4.93184">
        <ele>291</ele>
        <time>2017-05-16T09:55:21Z</time>
      </trkpt>
      <trkpt lat="45.95456" lon="4.93179">
        <ele>291</ele>
        <time>2017-05-16T09:55:22Z</time>
      </trkpt>
      <trkpt lat="45.95459" lon="4.93174">
        <ele>290</ele>
        <time>2017-05-16T09:55:23Z</time>
      </trkpt>
      <trkpt lat="45.95466" lon="4.93167">
        <ele>290</ele>
        <time>2017-05-16T09:55:25Z</time>
      </trkpt>
      <trkpt lat="45.9547" lon="4.93165">
        <ele>290</ele>
        <time>2017-05-16T09:55:26Z</time>
      </trkpt>
      <trkpt lat="45.95477" lon="4.93159">
        <ele>290</ele>
        <time>2017-05-16T09:55:28Z</time>
      </trkpt>
      <trkpt lat="45.95481" lon="4.93156">
        <ele>290</ele>
        <time>2017-05-16T09:55:29Z</time>
      </trkpt>
      <trkpt lat="45.95489" lon="4.93152">
        <ele>290</ele>
        <time>2017-05-16T09:55:31Z</time>
      </trkpt>
      <trkpt lat="45.95493" lon="4.93149">
        <ele>290</ele>
        <time>2017-05-16T09:55:32Z</time>
      </trkpt>
      <trkpt lat="45.955" lon="4.93144">
        <ele>290</ele>
        <time>2017-05-16T09:55:34Z</time>
      </trkpt>
      <trkpt lat="45.95503" lon="4.93141">
        <ele>289</ele>
        <time>2017-05-16T09:55:35Z</time>
      </trkpt>
      <trkpt lat="45.9551" lon="4.93136">
        <ele>289</ele>
        <time>2017-05-16T09:55:37Z</time>
      </trkpt>
      <trkpt lat="45.95514" lon="4.93133">
        <ele>289</ele>
        <time>2017-05-16T09:55:38Z</time>
      </trkpt>
      <trkpt lat="45.95519" lon="4.93129">
        <ele>289</ele>
        <time>2017-05-16T09:55:40Z</time>
      </trkpt>
      <trkpt lat="45.95522" lon="4.93125">
        <ele>289</ele>
        <time>2017-05-16T09:55:41Z</time>
      </trkpt>
      <trkpt lat="45.95527" lon="4.93117">
        <ele>289</ele>
        <time>2017-05-16T09:55:43Z</time>
      </trkpt>
      <trkpt lat="45.9553" lon="4.93113">
        <ele>289</ele>
        <time>2017-05-16T09:55:44Z</time>
      </trkpt>
      <trkpt lat="45.95535" lon="4.93103">
        <ele>289</ele>
        <time>2017-05-16T09:55:46Z</time>
      </trkpt>
      <trkpt lat="45.95537" lon="4.93099">
        <ele>289</ele>
        <time>2017-05-16T09:55:47Z</time>
      </trkpt>
      <trkpt lat="45.9554" lon="4.93088">
        <ele>290</ele>
        <time>2017-05-16T09:55:49Z</time>
      </trkpt>
      <trkpt lat="45.95542" lon="4.93081">
        <ele>290</ele>
        <time>2017-05-16T09:55:50Z</time>
      </trkpt>
      <trkpt lat="45.95543" lon="4.93071">
        <ele>290</ele>
        <time>2017-05-16T09:55:51Z</time>
      </trkpt>
      <trkpt lat="45.95544" lon="4.93061">
        <ele>290</ele>
        <time>2017-05-16T09:55:52Z</time>
      </trkpt>
      <trkpt lat="45.95545" lon="4.93052">
        <ele>290</ele>
        <time>2017-05-16T09:55:53Z</time>
      </trkpt>
      <trkpt lat="45.95548" lon="4.93041">
        <ele>291</ele>
        <time>2017-05-16T09:55:54Z</time>
      </trkpt>
      <trkpt lat="45.95549" lon="4.93033">
        <ele>291</ele>
        <time>2017-05-16T09:55:55Z</time>
      </trkpt>
      <trkpt lat="45.9555" lon="4.93025">
        <ele>291</ele>
        <time>2017-05-16T09:55:56Z</time>
      </trkpt>
      <trkpt lat="45.9555" lon="4.93017">
        <ele>291</ele>
        <time>2017-05-16T09:55:57Z</time>
      </trkpt>
      <trkpt lat="45.95551" lon="4.93008">
        <ele>291</ele>
        <time>2017-05-16T09:55:58Z</time>
      </trkpt>
      <trkpt lat="45.95552" lon="4.93001">
        <ele>291</ele>
        <time>2017-05-16T09:55:59Z</time>
      </trkpt>
      <trkpt lat="45.95553" lon="4.92994">
        <ele>292</ele>
        <time>2017-05-16T09:56:00Z</time>
      </trkpt>
      <trkpt lat="45.95555" lon="4.92987">
        <ele>292</ele>
        <time>2017-05-16T09:56:01Z</time>
      </trkpt>
      <trkpt lat="45.95557" lon="4.9298">
        <ele>292</ele>
        <time>2017-05-16T09:56:02Z</time>
      </trkpt>
      <trkpt lat="45.95558" lon="4.92974">
        <ele>292</ele>
        <time>2017-05-16T09:56:03Z</time>
      </trkpt>
      <trkpt lat="45.95559" lon="4.92967">
        <ele>292</ele>
        <time>2017-05-16T09:56:04Z</time>
      </trkpt>
      <trkpt lat="45.9556" lon="4.9296">
        <ele>292</ele>
        <time>2017-05-16T09:56:05Z</time>
      </trkpt>
      <trkpt lat="45.9556" lon="4.92953">
        <ele>292</ele>
        <time>2017-05-16T09:56:06Z</time>
      </trkpt>
      <trkpt lat="45.95561" lon="4.92946">
        <ele>292</ele>
        <time>2017-05-16T09:56:07Z</time>
      </trkpt>
      <trkpt lat="45.95562" lon="4.92939">
        <ele>292</ele>
        <time>2017-05-16T09:56:08Z</time>
      </trkpt>
      <trkpt lat="45.95563" lon="4.92931">
        <ele>293</ele>
        <time>2017-05-16T09:56:09Z</time>
      </trkpt>
      <trkpt lat="45.95564" lon="4.92924">
        <ele>293</ele>
        <time>2017-05-16T09:56:10Z</time>
      </trkpt>
      <trkpt lat="45.95565" lon="4.92917">
        <ele>294</ele>
        <time>2017-05-16T09:56:11Z</time>
      </trkpt>
      <trkpt lat="45.95565" lon="4.9291">
        <ele>294</ele>
        <time>2017-05-16T09:56:12Z</time>
      </trkpt>
      <trkpt lat="45.95566" lon="4.92903">
        <ele>294</ele>
        <time>2017-05-16T09:56:13Z</time>
      </trkpt>
      <trkpt lat="45.95568" lon="4.92897">
        <ele>294</ele>
        <time>2017-05-16T09:56:14Z</time>
      </trkpt>
      <trkpt lat="45.95569" lon="4.92884">
        <ele>294</ele>
        <time>2017-05-16T09:56:16Z</time>
      </trkpt>
      <trkpt lat="45.9557" lon="4.92878">
        <ele>294</ele>
        <time>2017-05-16T09:56:17Z</time>
      </trkpt>
      <trkpt lat="45.95571" lon="4.92871">
        <ele>294</ele>
        <time>2017-05-16T09:56:18Z</time>
      </trkpt>
      <trkpt lat="45.95572" lon="4.92864">
        <ele>294</ele>
        <time>2017-05-16T09:56:19Z</time>
      </trkpt>
      <trkpt lat="45.95573" lon="4.92857">
        <ele>294</ele>
        <time>2017-05-16T09:56:20Z</time>
      </trkpt>
      <trkpt lat="45.95575" lon="4.92849">
        <ele>294</ele>
        <time>2017-05-16T09:56:21Z</time>
      </trkpt>
      <trkpt lat="45.95576" lon="4.92841">
        <ele>294</ele>
        <time>2017-05-16T09:56:22Z</time>
      </trkpt>
      <trkpt lat="45.95577" lon="4.92833">
        <ele>295</ele>
        <time>2017-05-16T09:56:23Z</time>
      </trkpt>
      <trkpt lat="45.95578" lon="4.92825">
        <ele>295</ele>
        <time>2017-05-16T09:56:24Z</time>
      </trkpt>
      <trkpt lat="45.95579" lon="4.92817">
        <ele>295</ele>
        <time>2017-05-16T09:56:25Z</time>
      </trkpt>
      <trkpt lat="45.95581" lon="4.92808">
        <ele>294</ele>
        <time>2017-05-16T09:56:26Z</time>
      </trkpt>
      <trkpt lat="45.95583" lon="4.92801">
        <ele>294</ele>
        <time>2017-05-16T09:56:27Z</time>
      </trkpt>
      <trkpt lat="45.95584" lon="4.92793">
        <ele>295</ele>
        <time>2017-05-16T09:56:28Z</time>
      </trkpt>
      <trkpt lat="45.95586" lon="4.92786">
        <ele>295</ele>
        <time>2017-05-16T09:56:29Z</time>
      </trkpt>
      <trkpt lat="45.95587" lon="4.92779">
        <ele>295</ele>
        <time>2017-05-16T09:56:30Z</time>
      </trkpt>
      <trkpt lat="45.95588" lon="4.92772">
        <ele>295</ele>
        <time>2017-05-16T09:56:31Z</time>
      </trkpt>
      <trkpt lat="45.95589" lon="4.92766">
        <ele>295</ele>
        <time>2017-05-16T09:56:32Z</time>
      </trkpt>
      <trkpt lat="45.95591" lon="4.92758">
        <ele>295</ele>
        <time>2017-05-16T09:56:33Z</time>
      </trkpt>
      <trkpt lat="45.95591" lon="4.92751">
        <ele>295</ele>
        <time>2017-05-16T09:56:34Z</time>
      </trkpt>
      <trkpt lat="45.95593" lon="4.92744">
        <ele>295</ele>
        <time>2017-05-16T09:56:35Z</time>
      </trkpt>
      <trkpt lat="45.95594" lon="4.92736">
        <ele>295</ele>
        <time>2017-05-16T09:56:36Z</time>
      </trkpt>
      <trkpt lat="45.95596" lon="4.92729">
        <ele>295</ele>
        <time>2017-05-16T09:56:37Z</time>
      </trkpt>
      <trkpt lat="45.95597" lon="4.92721">
        <ele>295</ele>
        <time>2017-05-16T09:56:38Z</time>
      </trkpt>
      <trkpt lat="45.95598" lon="4.92714">
        <ele>295</ele>
        <time>2017-05-16T09:56:39Z</time>
      </trkpt>
      <trkpt lat="45.95599" lon="4.92707">
        <ele>295</ele>
        <time>2017-05-16T09:56:40Z</time>
      </trkpt>
      <trkpt lat="45.956" lon="4.927">
        <ele>295</ele>
        <time>2017-05-16T09:56:41Z</time>
      </trkpt>
      <trkpt lat="45.95601" lon="4.92693">
        <ele>295</ele>
        <time>2017-05-16T09:56:42Z</time>
      </trkpt>
      <trkpt lat="45.95603" lon="4.92686">
        <ele>295</ele>
        <time>2017-05-16T09:56:43Z</time>
      </trkpt>
      <trkpt lat="45.95605" lon="4.92679">
        <ele>294</ele>
        <time>2017-05-16T09:56:44Z</time>
      </trkpt>
      <trkpt lat="45.95606" lon="4.92672">
        <ele>294</ele>
        <time>2017-05-16T09:56:45Z</time>
      </trkpt>
      <trkpt lat="45.95608" lon="4.92666">
        <ele>294</ele>
        <time>2017-05-16T09:56:46Z</time>
      </trkpt>
      <trkpt lat="45.95609" lon="4.92659">
        <ele>294</ele>
        <time>2017-05-16T09:56:47Z</time>
      </trkpt>
      <trkpt lat="45.95611" lon="4.92651">
        <ele>294</ele>
        <time>2017-05-16T09:56:48Z</time>
      </trkpt>
      <trkpt lat="45.95612" lon="4.92643">
        <ele>294</ele>
        <time>2017-05-16T09:56:49Z</time>
      </trkpt>
      <trkpt lat="45.95613" lon="4.92636">
        <ele>294</ele>
        <time>2017-05-16T09:56:50Z</time>
      </trkpt>
      <trkpt lat="45.95614" lon="4.92628">
        <ele>294</ele>
        <time>2017-05-16T09:56:51Z</time>
      </trkpt>
      <trkpt lat="45.95614" lon="4.92619">
        <ele>294</ele>
        <time>2017-05-16T09:56:52Z</time>
      </trkpt>
      <trkpt lat="45.95615" lon="4.92612">
        <ele>294</ele>
        <time>2017-05-16T09:56:53Z</time>
      </trkpt>
      <trkpt lat="45.95616" lon="4.92604">
        <ele>294</ele>
        <time>2017-05-16T09:56:54Z</time>
      </trkpt>
      <trkpt lat="45.95619" lon="4.92595">
        <ele>294</ele>
        <time>2017-05-16T09:56:55Z</time>
      </trkpt>
      <trkpt lat="45.95622" lon="4.92586">
        <ele>294</ele>
        <time>2017-05-16T09:56:56Z</time>
      </trkpt>
      <trkpt lat="45.95625" lon="4.92578">
        <ele>294</ele>
        <time>2017-05-16T09:56:57Z</time>
      </trkpt>
      <trkpt lat="45.95626" lon="4.9257">
        <ele>294</ele>
        <time>2017-05-16T09:56:58Z</time>
      </trkpt>
      <trkpt lat="45.95628" lon="4.92562">
        <ele>294</ele>
        <time>2017-05-16T09:56:59Z</time>
      </trkpt>
      <trkpt lat="45.95629" lon="4.92555">
        <ele>294</ele>
        <time>2017-05-16T09:57:00Z</time>
      </trkpt>
      <trkpt lat="45.95629" lon="4.92548">
        <ele>294</ele>
        <time>2017-05-16T09:57:01Z</time>
      </trkpt>
      <trkpt lat="45.9563" lon="4.92541">
        <ele>294</ele>
        <time>2017-05-16T09:57:02Z</time>
      </trkpt>
      <trkpt lat="45.9563" lon="4.92534">
        <ele>294</ele>
        <time>2017-05-16T09:57:03Z</time>
      </trkpt>
      <trkpt lat="45.9563" lon="4.92526">
        <ele>294</ele>
        <time>2017-05-16T09:57:04Z</time>
      </trkpt>
      <trkpt lat="45.95631" lon="4.92517">
        <ele>294</ele>
        <time>2017-05-16T09:57:05Z</time>
      </trkpt>
      <trkpt lat="45.95631" lon="4.92509">
        <ele>294</ele>
        <time>2017-05-16T09:57:06Z</time>
      </trkpt>
      <trkpt lat="45.95632" lon="4.925">
        <ele>294</ele>
        <time>2017-05-16T09:57:07Z</time>
      </trkpt>
      <trkpt lat="45.95633" lon="4.92491">
        <ele>293</ele>
        <time>2017-05-16T09:57:08Z</time>
      </trkpt>
      <trkpt lat="45.95633" lon="4.92482">
        <ele>293</ele>
        <time>2017-05-16T09:57:09Z</time>
      </trkpt>
      <trkpt lat="45.95635" lon="4.92472">
        <ele>293</ele>
        <time>2017-05-16T09:57:10Z</time>
      </trkpt>
      <trkpt lat="45.95636" lon="4.92464">
        <ele>293</ele>
        <time>2017-05-16T09:57:11Z</time>
      </trkpt>
      <trkpt lat="45.95637" lon="4.92455">
        <ele>293</ele>
        <time>2017-05-16T09:57:12Z</time>
      </trkpt>
      <trkpt lat="45.95639" lon="4.92447">
        <ele>293</ele>
        <time>2017-05-16T09:57:13Z</time>
      </trkpt>
      <trkpt lat="45.9564" lon="4.92439">
        <ele>293</ele>
        <time>2017-05-16T09:57:14Z</time>
      </trkpt>
      <trkpt lat="45.95642" lon="4.9243">
        <ele>293</ele>
        <time>2017-05-16T09:57:15Z</time>
      </trkpt>
      <trkpt lat="45.95643" lon="4.92422">
        <ele>293</ele>
        <time>2017-05-16T09:57:16Z</time>
      </trkpt>
      <trkpt lat="45.95644" lon="4.92415">
        <ele>293</ele>
        <time>2017-05-16T09:57:17Z</time>
      </trkpt>
      <trkpt lat="45.95645" lon="4.92408">
        <ele>293</ele>
        <time>2017-05-16T09:57:18Z</time>
      </trkpt>
      <trkpt lat="45.95647" lon="4.924">
        <ele>293</ele>
        <time>2017-05-16T09:57:19Z</time>
      </trkpt>
      <trkpt lat="45.95648" lon="4.92393">
        <ele>293</ele>
        <time>2017-05-16T09:57:20Z</time>
      </trkpt>
      <trkpt lat="45.95649" lon="4.92385">
        <ele>293</ele>
        <time>2017-05-16T09:57:21Z</time>
      </trkpt>
      <trkpt lat="45.9565" lon="4.92377">
        <ele>293</ele>
        <time>2017-05-16T09:57:22Z</time>
      </trkpt>
      <trkpt lat="45.9565" lon="4.92368">
        <ele>293</ele>
        <time>2017-05-16T09:57:23Z</time>
      </trkpt>
      <trkpt lat="45.95652" lon="4.9236">
        <ele>293</ele>
        <time>2017-05-16T09:57:24Z</time>
      </trkpt>
      <trkpt lat="45.95653" lon="4.92351">
        <ele>293</ele>
        <time>2017-05-16T09:57:25Z</time>
      </trkpt>
      <trkpt lat="45.95654" lon="4.92343">
        <ele>293</ele>
        <time>2017-05-16T09:57:26Z</time>
      </trkpt>
      <trkpt lat="45.95654" lon="4.92334">
        <ele>293</ele>
        <time>2017-05-16T09:57:27Z</time>
      </trkpt>
      <trkpt lat="45.95655" lon="4.92325">
        <ele>293</ele>
        <time>2017-05-16T09:57:28Z</time>
      </trkpt>
      <trkpt lat="45.95655" lon="4.92317">
        <ele>293</ele>
        <time>2017-05-16T09:57:29Z</time>
      </trkpt>
      <trkpt lat="45.95655" lon="4.9231">
        <ele>293</ele>
        <time>2017-05-16T09:57:30Z</time>
      </trkpt>
      <trkpt lat="45.95655" lon="4.92302">
        <ele>293</ele>
        <time>2017-05-16T09:57:31Z</time>
      </trkpt>
      <trkpt lat="45.95656" lon="4.92295">
        <ele>293</ele>
        <time>2017-05-16T09:57:32Z</time>
      </trkpt>
      <trkpt lat="45.95656" lon="4.92288">
        <ele>293</ele>
        <time>2017-05-16T09:57:33Z</time>
      </trkpt>
      <trkpt lat="45.95657" lon="4.92279">
        <ele>293</ele>
        <time>2017-05-16T09:57:34Z</time>
      </trkpt>
      <trkpt lat="45.95657" lon="4.92271">
        <ele>294</ele>
        <time>2017-05-16T09:57:35Z</time>
      </trkpt>
      <trkpt lat="45.95658" lon="4.92262">
        <ele>294</ele>
        <time>2017-05-16T09:57:36Z</time>
      </trkpt>
      <trkpt lat="45.95658" lon="4.92253">
        <ele>294</ele>
        <time>2017-05-16T09:57:37Z</time>
      </trkpt>
      <trkpt lat="45.95659" lon="4.92243">
        <ele>294</ele>
        <time>2017-05-16T09:57:38Z</time>
      </trkpt>
      <trkpt lat="45.95659" lon="4.92234">
        <ele>294</ele>
        <time>2017-05-16T09:57:39Z</time>
      </trkpt>
      <trkpt lat="45.95659" lon="4.92224">
        <ele>294</ele>
        <time>2017-05-16T09:57:40Z</time>
      </trkpt>
      <trkpt lat="45.95659" lon="4.92215">
        <ele>294</ele>
        <time>2017-05-16T09:57:41Z</time>
      </trkpt>
      <trkpt lat="45.9566" lon="4.92206">
        <ele>294</ele>
        <time>2017-05-16T09:57:42Z</time>
      </trkpt>
      <trkpt lat="45.95661" lon="4.92197">
        <ele>295</ele>
        <time>2017-05-16T09:57:43Z</time>
      </trkpt>
      <trkpt lat="45.95662" lon="4.92188">
        <ele>295</ele>
        <time>2017-05-16T09:57:44Z</time>
      </trkpt>
      <trkpt lat="45.95663" lon="4.9218">
        <ele>296</ele>
        <time>2017-05-16T09:57:45Z</time>
      </trkpt>
      <trkpt lat="45.95663" lon="4.92172">
        <ele>296</ele>
        <time>2017-05-16T09:57:46Z</time>
      </trkpt>
      <trkpt lat="45.95663" lon="4.92165">
        <ele>297</ele>
        <time>2017-05-16T09:57:47Z</time>
      </trkpt>
      <trkpt lat="45.95663" lon="4.92157">
        <ele>296</ele>
        <time>2017-05-16T09:57:48Z</time>
      </trkpt>
      <trkpt lat="45.95663" lon="4.9215">
        <ele>296</ele>
        <time>2017-05-16T09:57:49Z</time>
      </trkpt>
      <trkpt lat="45.95663" lon="4.92144">
        <ele>296</ele>
        <time>2017-05-16T09:57:50Z</time>
      </trkpt>
      <trkpt lat="45.95664" lon="4.92137">
        <ele>296</ele>
        <time>2017-05-16T09:57:51Z</time>
      </trkpt>
      <trkpt lat="45.95665" lon="4.9213">
        <ele>296</ele>
        <time>2017-05-16T09:57:52Z</time>
      </trkpt>
      <trkpt lat="45.95665" lon="4.92123">
        <ele>296</ele>
        <time>2017-05-16T09:57:53Z</time>
      </trkpt>
      <trkpt lat="45.95665" lon="4.92115">
        <ele>296</ele>
        <time>2017-05-16T09:57:54Z</time>
      </trkpt>
      <trkpt lat="45.95665" lon="4.92107">
        <ele>297</ele>
        <time>2017-05-16T09:57:55Z</time>
      </trkpt>
      <trkpt lat="45.95666" lon="4.921">
        <ele>297</ele>
        <time>2017-05-16T09:57:56Z</time>
      </trkpt>
      <trkpt lat="45.95666" lon="4.92093">
        <ele>298</ele>
        <time>2017-05-16T09:57:57Z</time>
      </trkpt>
      <trkpt lat="45.95666" lon="4.9208">
        <ele>299</ele>
        <time>2017-05-16T09:57:59Z</time>
      </trkpt>
      <trkpt lat="45.95667" lon="4.92074">
        <ele>300</ele>
        <time>2017-05-16T09:58:00Z</time>
      </trkpt>
      <trkpt lat="45.95669" lon="4.92062">
        <ele>300</ele>
        <time>2017-05-16T09:58:02Z</time>
      </trkpt>
      <trkpt lat="45.9567" lon="4.92056">
        <ele>300</ele>
        <time>2017-05-16T09:58:03Z</time>
      </trkpt>
      <trkpt lat="45.9567" lon="4.92049">
        <ele>300</ele>
        <time>2017-05-16T09:58:04Z</time>
      </trkpt>
      <trkpt lat="45.9567" lon="4.92041">
        <ele>300</ele>
        <time>2017-05-16T09:58:05Z</time>
      </trkpt>
      <trkpt lat="45.95669" lon="4.92033">
        <ele>300</ele>
        <time>2017-05-16T09:58:06Z</time>
      </trkpt>
      <trkpt lat="45.95666" lon="4.92027">
        <ele>297</ele>
        <time>2017-05-16T09:58:07Z</time>
      </trkpt>
      <trkpt lat="45.95663" lon="4.92019">
        <ele>297</ele>
        <time>2017-05-16T09:58:08Z</time>
      </trkpt>
      <trkpt lat="45.95659" lon="4.92013">
        <ele>297</ele>
        <time>2017-05-16T09:58:09Z</time>
      </trkpt>
      <trkpt lat="45.95655" lon="4.92007">
        <ele>297</ele>
        <time>2017-05-16T09:58:10Z</time>
      </trkpt>
      <trkpt lat="45.95652" lon="4.92001">
        <ele>297</ele>
        <time>2017-05-16T09:58:11Z</time>
      </trkpt>
      <trkpt lat="45.95649" lon="4.91994">
        <ele>296</ele>
        <time>2017-05-16T09:58:12Z</time>
      </trkpt>
      <trkpt lat="45.95646" lon="4.91987">
        <ele>296</ele>
        <time>2017-05-16T09:58:13Z</time>
      </trkpt>
      <trkpt lat="45.95643" lon="4.9198">
        <ele>296</ele>
        <time>2017-05-16T09:58:14Z</time>
      </trkpt>
      <trkpt lat="45.9564" lon="4.91974">
        <ele>295</ele>
        <time>2017-05-16T09:58:15Z</time>
      </trkpt>
      <trkpt lat="45.95638" lon="4.91968">
        <ele>295</ele>
        <time>2017-05-16T09:58:16Z</time>
      </trkpt>
      <trkpt lat="45.95634" lon="4.91963">
        <ele>295</ele>
        <time>2017-05-16T09:58:17Z</time>
      </trkpt>
      <trkpt lat="45.95631" lon="4.91957">
        <ele>295</ele>
        <time>2017-05-16T09:58:18Z</time>
      </trkpt>
      <trkpt lat="45.95628" lon="4.91952">
        <ele>295</ele>
        <time>2017-05-16T09:58:19Z</time>
      </trkpt>
      <trkpt lat="45.95624" lon="4.91946">
        <ele>295</ele>
        <time>2017-05-16T09:58:20Z</time>
      </trkpt>
      <trkpt lat="45.95619" lon="4.91941">
        <ele>294</ele>
        <time>2017-05-16T09:58:21Z</time>
      </trkpt>
      <trkpt lat="45.95613" lon="4.91933">
        <ele>294</ele>
        <time>2017-05-16T09:58:23Z</time>
      </trkpt>
      <trkpt lat="45.95609" lon="4.91929">
        <ele>294</ele>
        <time>2017-05-16T09:58:24Z</time>
      </trkpt>
      <trkpt lat="45.95604" lon="4.91925">
        <ele>294</ele>
        <time>2017-05-16T09:58:25Z</time>
      </trkpt>
      <trkpt lat="45.95598" lon="4.91921">
        <ele>294</ele>
        <time>2017-05-16T09:58:26Z</time>
      </trkpt>
      <trkpt lat="45.95593" lon="4.91917">
        <ele>293</ele>
        <time>2017-05-16T09:58:27Z</time>
      </trkpt>
      <trkpt lat="45.95589" lon="4.91912">
        <ele>293</ele>
        <time>2017-05-16T09:58:28Z</time>
      </trkpt>
      <trkpt lat="45.95583" lon="4.91908">
        <ele>293</ele>
        <time>2017-05-16T09:58:29Z</time>
      </trkpt>
      <trkpt lat="45.95576" lon="4.91901">
        <ele>294</ele>
        <time>2017-05-16T09:58:30Z</time>
      </trkpt>
      <trkpt lat="45.95568" lon="4.91897">
        <ele>294</ele>
        <time>2017-05-16T09:58:31Z</time>
      </trkpt>
      <trkpt lat="45.9556" lon="4.91894">
        <ele>294</ele>
        <time>2017-05-16T09:58:32Z</time>
      </trkpt>
      <trkpt lat="45.95554" lon="4.9189">
        <ele>294</ele>
        <time>2017-05-16T09:58:33Z</time>
      </trkpt>
      <trkpt lat="45.95548" lon="4.91886">
        <ele>294</ele>
        <time>2017-05-16T09:58:34Z</time>
      </trkpt>
      <trkpt lat="45.95542" lon="4.91882">
        <ele>294</ele>
        <time>2017-05-16T09:58:35Z</time>
      </trkpt>
      <trkpt lat="45.95537" lon="4.91878">
        <ele>294</ele>
        <time>2017-05-16T09:58:36Z</time>
      </trkpt>
      <trkpt lat="45.95531" lon="4.91874">
        <ele>295</ele>
        <time>2017-05-16T09:58:37Z</time>
      </trkpt>
      <trkpt lat="45.95525" lon="4.91871">
        <ele>295</ele>
        <time>2017-05-16T09:58:38Z</time>
      </trkpt>
      <trkpt lat="45.9552" lon="4.91868">
        <ele>295</ele>
        <time>2017-05-16T09:58:39Z</time>
      </trkpt>
      <trkpt lat="45.95515" lon="4.91865">
        <ele>295</ele>
        <time>2017-05-16T09:58:40Z</time>
      </trkpt>
      <trkpt lat="45.9551" lon="4.91861">
        <ele>295</ele>
        <time>2017-05-16T09:58:41Z</time>
      </trkpt>
      <trkpt lat="45.95506" lon="4.91857">
        <ele>295</ele>
        <time>2017-05-16T09:58:42Z</time>
      </trkpt>
      <trkpt lat="45.95501" lon="4.91853">
        <ele>295</ele>
        <time>2017-05-16T09:58:43Z</time>
      </trkpt>
      <trkpt lat="45.95497" lon="4.91849">
        <ele>295</ele>
        <time>2017-05-16T09:58:44Z</time>
      </trkpt>
      <trkpt lat="45.95491" lon="4.91846">
        <ele>295</ele>
        <time>2017-05-16T09:58:45Z</time>
      </trkpt>
      <trkpt lat="45.95487" lon="4.91842">
        <ele>295</ele>
        <time>2017-05-16T09:58:46Z</time>
      </trkpt>
      <trkpt lat="45.95483" lon="4.91838">
        <ele>295</ele>
        <time>2017-05-16T09:58:47Z</time>
      </trkpt>
      <trkpt lat="45.95479" lon="4.91834">
        <ele>295</ele>
        <time>2017-05-16T09:58:48Z</time>
      </trkpt>
      <trkpt lat="45.95475" lon="4.91829">
        <ele>297</ele>
        <time>2017-05-16T09:58:49Z</time>
      </trkpt>
      <trkpt lat="45.95471" lon="4.91824">
        <ele>297</ele>
        <time>2017-05-16T09:58:50Z</time>
      </trkpt>
      <trkpt lat="45.95466" lon="4.91819">
        <ele>297</ele>
        <time>2017-05-16T09:58:51Z</time>
      </trkpt>
      <trkpt lat="45.95462" lon="4.91813">
        <ele>297</ele>
        <time>2017-05-16T09:58:52Z</time>
      </trkpt>
      <trkpt lat="45.95458" lon="4.91807">
        <ele>298</ele>
        <time>2017-05-16T09:58:53Z</time>
      </trkpt>
      <trkpt lat="45.95455" lon="4.918">
        <ele>298</ele>
        <time>2017-05-16T09:58:54Z</time>
      </trkpt>
      <trkpt lat="45.95452" lon="4.91794">
        <ele>298</ele>
        <time>2017-05-16T09:58:55Z</time>
      </trkpt>
      <trkpt lat="45.95448" lon="4.91789">
        <ele>298</ele>
        <time>2017-05-16T09:58:56Z</time>
      </trkpt>
      <trkpt lat="45.95444" lon="4.91784">
        <ele>298</ele>
        <time>2017-05-16T09:58:57Z</time>
      </trkpt>
      <trkpt lat="45.95441" lon="4.91777">
        <ele>298</ele>
        <time>2017-05-16T09:58:58Z</time>
      </trkpt>
      <trkpt lat="45.95437" lon="4.91771">
        <ele>298</ele>
        <time>2017-05-16T09:58:59Z</time>
      </trkpt>
      <trkpt lat="45.95433" lon="4.91764">
        <ele>298</ele>
        <time>2017-05-16T09:59:00Z</time>
      </trkpt>
      <trkpt lat="45.95431" lon="4.91757">
        <ele>298</ele>
        <time>2017-05-16T09:59:01Z</time>
      </trkpt>
      <trkpt lat="45.95428" lon="4.9175">
        <ele>298</ele>
        <time>2017-05-16T09:59:02Z</time>
      </trkpt>
      <trkpt lat="45.95425" lon="4.91744">
        <ele>299</ele>
        <time>2017-05-16T09:59:03Z</time>
      </trkpt>
      <trkpt lat="45.95423" lon="4.91738">
        <ele>300</ele>
        <time>2017-05-16T09:59:04Z</time>
      </trkpt>
      <trkpt lat="45.9542" lon="4.91727">
        <ele>300</ele>
        <time>2017-05-16T09:59:06Z</time>
      </trkpt>
      <trkpt lat="45.95419" lon="4.91723">
        <ele>300</ele>
        <time>2017-05-16T09:59:07Z</time>
      </trkpt>
      <trkpt lat="45.95418" lon="4.91712">
        <ele>301</ele>
        <time>2017-05-16T09:59:10Z</time>
      </trkpt>
      <trkpt lat="45.95417" lon="4.91709">
        <ele>301</ele>
        <time>2017-05-16T09:59:11Z</time>
      </trkpt>
      <trkpt lat="45.95416" lon="4.91698">
        <ele>299</ele>
        <time>2017-05-16T09:59:14Z</time>
      </trkpt>
      <trkpt lat="45.95416" lon="4.91695">
        <ele>300</ele>
        <time>2017-05-16T09:59:15Z</time>
      </trkpt>
      <trkpt lat="45.95412" lon="4.91684">
        <ele>300</ele>
        <time>2017-05-16T09:59:19Z</time>
      </trkpt>
      <trkpt lat="45.95411" lon="4.91682">
        <ele>300</ele>
        <time>2017-05-16T09:59:20Z</time>
      </trkpt>
      <trkpt lat="45.95408" lon="4.91672">
        <ele>300</ele>
        <time>2017-05-16T09:59:23Z</time>
      </trkpt>
      <trkpt lat="45.95407" lon="4.91669">
        <ele>300</ele>
        <time>2017-05-16T09:59:24Z</time>
      </trkpt>
      <trkpt lat="45.95402" lon="4.91658">
        <ele>301</ele>
        <time>2017-05-16T09:59:27Z</time>
      </trkpt>
      <trkpt lat="45.95401" lon="4.91655">
        <ele>301</ele>
        <time>2017-05-16T09:59:28Z</time>
      </trkpt>
      <trkpt lat="45.954" lon="4.91651">
        <ele>301</ele>
        <time>2017-05-16T09:59:29Z</time>
      </trkpt>
      <trkpt lat="45.95395" lon="4.91644">
        <ele>301</ele>
        <time>2017-05-16T09:59:30Z</time>
      </trkpt>
      <trkpt lat="45.95393" lon="4.91635">
        <ele>301</ele>
        <time>2017-05-16T09:59:32Z</time>
      </trkpt>
      <trkpt lat="45.95389" lon="4.9163">
        <ele>301</ele>
        <time>2017-05-16T09:59:33Z</time>
      </trkpt>
      <trkpt lat="45.95386" lon="4.91619">
        <ele>301</ele>
        <time>2017-05-16T09:59:36Z</time>
      </trkpt>
      <trkpt lat="45.95385" lon="4.91615">
        <ele>301</ele>
        <time>2017-05-16T09:59:37Z</time>
      </trkpt>
      <trkpt lat="45.95383" lon="4.91606">
        <ele>301</ele>
        <time>2017-05-16T09:59:40Z</time>
      </trkpt>
      <trkpt lat="45.95382" lon="4.91602">
        <ele>301</ele>
        <time>2017-05-16T09:59:41Z</time>
      </trkpt>
      <trkpt lat="45.95378" lon="4.91592">
        <ele>301</ele>
        <time>2017-05-16T09:59:44Z</time>
      </trkpt>
      <trkpt lat="45.95378" lon="4.91589">
        <ele>301</ele>
        <time>2017-05-16T09:59:45Z</time>
      </trkpt>
      <trkpt lat="45.95375" lon="4.91577">
        <ele>300</ele>
        <time>2017-05-16T09:59:48Z</time>
      </trkpt>
      <trkpt lat="45.95374" lon="4.91573">
        <ele>300</ele>
        <time>2017-05-16T09:59:49Z</time>
      </trkpt>
      <trkpt lat="45.95373" lon="4.91564">
        <ele>300</ele>
        <time>2017-05-16T09:59:51Z</time>
      </trkpt>
      <trkpt lat="45.95371" lon="4.9156">
        <ele>300</ele>
        <time>2017-05-16T09:59:52Z</time>
      </trkpt>
      <trkpt lat="45.95367" lon="4.91551">
        <ele>300</ele>
        <time>2017-05-16T09:59:54Z</time>
      </trkpt>
      <trkpt lat="45.95365" lon="4.91547">
        <ele>300</ele>
        <time>2017-05-16T09:59:55Z</time>
      </trkpt>
      <trkpt lat="45.95359" lon="4.91537">
        <ele>300</ele>
        <time>2017-05-16T09:59:58Z</time>
      </trkpt>
      <trkpt lat="45.95358" lon="4.91533">
        <ele>299</ele>
        <time>2017-05-16T09:59:59Z</time>
      </trkpt>
      <trkpt lat="45.95356" lon="4.91528">
        <ele>299</ele>
        <time>2017-05-16T10:00:00Z</time>
      </trkpt>
      <trkpt lat="45.95352" lon="4.91521">
        <ele>299</ele>
        <time>2017-05-16T10:00:01Z</time>
      </trkpt>
      <trkpt lat="45.95349" lon="4.9151">
        <ele>299</ele>
        <time>2017-05-16T10:00:03Z</time>
      </trkpt>
      <trkpt lat="45.95348" lon="4.91505">
        <ele>299</ele>
        <time>2017-05-16T10:00:04Z</time>
      </trkpt>
      <trkpt lat="45.95345" lon="4.91493">
        <ele>298</ele>
        <time>2017-05-16T10:00:07Z</time>
      </trkpt>
      <trkpt lat="45.95344" lon="4.91489">
        <ele>298</ele>
        <time>2017-05-16T10:00:08Z</time>
      </trkpt>
      <trkpt lat="45.95341" lon="4.9148">
        <ele>298</ele>
        <time>2017-05-16T10:00:10Z</time>
      </trkpt>
      <trkpt lat="45.9534" lon="4.91476">
        <ele>298</ele>
        <time>2017-05-16T10:00:11Z</time>
      </trkpt>
      <trkpt lat="45.95338" lon="4.91466">
        <ele>298</ele>
        <time>2017-05-16T10:00:13Z</time>
      </trkpt>
      <trkpt lat="45.95337" lon="4.91461">
        <ele>298</ele>
        <time>2017-05-16T10:00:14Z</time>
      </trkpt>
      <trkpt lat="45.95335" lon="4.9145">
        <ele>298</ele>
        <time>2017-05-16T10:00:16Z</time>
      </trkpt>
      <trkpt lat="45.95335" lon="4.91446">
        <ele>298</ele>
        <time>2017-05-16T10:00:17Z</time>
      </trkpt>
      <trkpt lat="45.95332" lon="4.91438">
        <ele>298</ele>
        <time>2017-05-16T10:00:19Z</time>
      </trkpt>
      <trkpt lat="45.95331" lon="4.91434">
        <ele>298</ele>
        <time>2017-05-16T10:00:20Z</time>
      </trkpt>
      <trkpt lat="45.95329" lon="4.91423">
        <ele>298</ele>
        <time>2017-05-16T10:00:23Z</time>
      </trkpt>
      <trkpt lat="45.95329" lon="4.91419">
        <ele>298</ele>
        <time>2017-05-16T10:00:24Z</time>
      </trkpt>
      <trkpt lat="45.95327" lon="4.91407">
        <ele>298</ele>
        <time>2017-05-16T10:00:28Z</time>
      </trkpt>
      <trkpt lat="45.95326" lon="4.91404">
        <ele>298</ele>
        <time>2017-05-16T10:00:29Z</time>
      </trkpt>
      <trkpt lat="45.95323" lon="4.91392">
        <ele>298</ele>
        <time>2017-05-16T10:00:32Z</time>
      </trkpt>
      <trkpt lat="45.95321" lon="4.91386">
        <ele>298</ele>
        <time>2017-05-16T10:00:33Z</time>
      </trkpt>
      <trkpt lat="45.95319" lon="4.91374">
        <ele>298</ele>
        <time>2017-05-16T10:00:36Z</time>
      </trkpt>
      <trkpt lat="45.95318" lon="4.91371">
        <ele>298</ele>
        <time>2017-05-16T10:00:37Z</time>
      </trkpt>
      <trkpt lat="45.95316" lon="4.91363">
        <ele>298</ele>
        <time>2017-05-16T10:00:39Z</time>
      </trkpt>
      <trkpt lat="45.95314" lon="4.91358">
        <ele>298</ele>
        <time>2017-05-16T10:00:40Z</time>
      </trkpt>
      <trkpt lat="45.95313" lon="4.91346">
        <ele>297</ele>
        <time>2017-05-16T10:00:43Z</time>
      </trkpt>
      <trkpt lat="45.95311" lon="4.91342">
        <ele>297</ele>
        <time>2017-05-16T10:00:44Z</time>
      </trkpt>
      <trkpt lat="45.95311" lon="4.91333">
        <ele>298</ele>
        <time>2017-05-16T10:00:46Z</time>
      </trkpt>
      <trkpt lat="45.95311" lon="4.91329">
        <ele>298</ele>
        <time>2017-05-16T10:00:47Z</time>
      </trkpt>
      <trkpt lat="45.95309" lon="4.91319">
        <ele>298</ele>
        <time>2017-05-16T10:00:49Z</time>
      </trkpt>
      <trkpt lat="45.95308" lon="4.91315">
        <ele>298</ele>
        <time>2017-05-16T10:00:50Z</time>
      </trkpt>
      <trkpt lat="45.95307" lon="4.91305">
        <ele>298</ele>
        <time>2017-05-16T10:00:53Z</time>
      </trkpt>
      <trkpt lat="45.95307" lon="4.91301">
        <ele>298</ele>
        <time>2017-05-16T10:00:54Z</time>
      </trkpt>
      <trkpt lat="45.95306" lon="4.91291">
        <ele>298</ele>
        <time>2017-05-16T10:00:56Z</time>
      </trkpt>
      <trkpt lat="45.95305" lon="4.91283">
        <ele>298</ele>
        <time>2017-05-16T10:00:57Z</time>
      </trkpt>
      <trkpt lat="45.95303" lon="4.91272">
        <ele>298</ele>
        <time>2017-05-16T10:00:59Z</time>
      </trkpt>
      <trkpt lat="45.95302" lon="4.91267">
        <ele>298</ele>
        <time>2017-05-16T10:01:00Z</time>
      </trkpt>
      <trkpt lat="45.95301" lon="4.91259">
        <ele>298</ele>
        <time>2017-05-16T10:01:02Z</time>
      </trkpt>
      <trkpt lat="45.95298" lon="4.91252">
        <ele>298</ele>
        <time>2017-05-16T10:01:03Z</time>
      </trkpt>
      <trkpt lat="45.95293" lon="4.91244">
        <ele>299</ele>
        <time>2017-05-16T10:01:04Z</time>
      </trkpt>
      <trkpt lat="45.95291" lon="4.9124">
        <ele>299</ele>
        <time>2017-05-16T10:01:05Z</time>
      </trkpt>
      <trkpt lat="45.95289" lon="4.9123">
        <ele>299</ele>
        <time>2017-05-16T10:01:08Z</time>
      </trkpt>
      <trkpt lat="45.95288" lon="4.91225">
        <ele>299</ele>
        <time>2017-05-16T10:01:09Z</time>
      </trkpt>
      <trkpt lat="45.95287" lon="4.9122">
        <ele>299</ele>
        <time>2017-05-16T10:01:10Z</time>
      </trkpt>
      <trkpt lat="45.95288" lon="4.91211">
        <ele>299</ele>
        <time>2017-05-16T10:01:11Z</time>
      </trkpt>
      <trkpt lat="45.9529" lon="4.91201">
        <ele>299</ele>
        <time>2017-05-16T10:01:12Z</time>
      </trkpt>
      <trkpt lat="45.95288" lon="4.91197">
        <ele>299</ele>
        <time>2017-05-16T10:01:13Z</time>
      </trkpt>
      <trkpt lat="45.95285" lon="4.9119">
        <ele>299</ele>
        <time>2017-05-16T10:01:15Z</time>
      </trkpt>
      <trkpt lat="45.95283" lon="4.91186">
        <ele>299</ele>
        <time>2017-05-16T10:01:16Z</time>
      </trkpt>
      <trkpt lat="45.9528" lon="4.91179">
        <ele>299</ele>
        <time>2017-05-16T10:01:18Z</time>
      </trkpt>
      <trkpt lat="45.95278" lon="4.91175">
        <ele>299</ele>
        <time>2017-05-16T10:01:19Z</time>
      </trkpt>
      <trkpt lat="45.95272" lon="4.91166">
        <ele>299</ele>
        <time>2017-05-16T10:01:21Z</time>
      </trkpt>
      <trkpt lat="45.95269" lon="4.91161">
        <ele>299</ele>
        <time>2017-05-16T10:01:22Z</time>
      </trkpt>
      <trkpt lat="45.95263" lon="4.91153">
        <ele>299</ele>
        <time>2017-05-16T10:01:24Z</time>
      </trkpt>
      <trkpt lat="45.95259" lon="4.91149">
        <ele>299</ele>
        <time>2017-05-16T10:01:25Z</time>
      </trkpt>
      <trkpt lat="45.95254" lon="4.91142">
        <ele>299</ele>
        <time>2017-05-16T10:01:27Z</time>
      </trkpt>
      <trkpt lat="45.95251" lon="4.91138">
        <ele>299</ele>
        <time>2017-05-16T10:01:28Z</time>
      </trkpt>
      <trkpt lat="45.95246" lon="4.9113">
        <ele>298</ele>
        <time>2017-05-16T10:01:31Z</time>
      </trkpt>
      <trkpt lat="45.95245" lon="4.91126">
        <ele>298</ele>
        <time>2017-05-16T10:01:32Z</time>
      </trkpt>
      <trkpt lat="45.9524" lon="4.91118">
        <ele>298</ele>
        <time>2017-05-16T10:01:34Z</time>
      </trkpt>
      <trkpt lat="45.95238" lon="4.91117">
        <ele>298</ele>
        <time>2017-05-16T10:01:35Z</time>
      </trkpt>
      <trkpt lat="45.95233" lon="4.91108">
        <ele>298</ele>
        <time>2017-05-16T10:01:37Z</time>
      </trkpt>
      <trkpt lat="45.95231" lon="4.91105">
        <ele>298</ele>
        <time>2017-05-16T10:01:38Z</time>
      </trkpt>
      <trkpt lat="45.95225" lon="4.91097">
        <ele>298</ele>
        <time>2017-05-16T10:01:41Z</time>
      </trkpt>
      <trkpt lat="45.95224" lon="4.91094">
        <ele>298</ele>
        <time>2017-05-16T10:01:42Z</time>
      </trkpt>
      <trkpt lat="45.95218" lon="4.91088">
        <ele>298</ele>
        <time>2017-05-16T10:01:45Z</time>
      </trkpt>
      <trkpt lat="45.95216" lon="4.91086">
        <ele>298</ele>
        <time>2017-05-16T10:01:46Z</time>
      </trkpt>
      <trkpt lat="45.95209" lon="4.91081">
        <ele>297</ele>
        <time>2017-05-16T10:01:48Z</time>
      </trkpt>
      <trkpt lat="45.95207" lon="4.91079">
        <ele>297</ele>
        <time>2017-05-16T10:01:49Z</time>
      </trkpt>
      <trkpt lat="45.952" lon="4.91073">
        <ele>297</ele>
        <time>2017-05-16T10:01:53Z</time>
      </trkpt>
      <trkpt lat="45.95198" lon="4.91071">
        <ele>297</ele>
        <time>2017-05-16T10:01:54Z</time>
      </trkpt>
      <trkpt lat="45.95192" lon="4.91062">
        <ele>297</ele>
        <time>2017-05-16T10:01:57Z</time>
      </trkpt>
      <trkpt lat="45.9519" lon="4.91059">
        <ele>297</ele>
        <time>2017-05-16T10:01:58Z</time>
      </trkpt>
      <trkpt lat="45.95186" lon="4.91049">
        <ele>297</ele>
        <time>2017-05-16T10:02:01Z</time>
      </trkpt>
      <trkpt lat="45.95185" lon="4.91046">
        <ele>297</ele>
        <time>2017-05-16T10:02:02Z</time>
      </trkpt>
      <trkpt lat="45.95178" lon="4.91038">
        <ele>297</ele>
        <time>2017-05-16T10:02:06Z</time>
      </trkpt>
      <trkpt lat="45.95177" lon="4.91038">
        <ele>297</ele>
        <time>2017-05-16T10:02:07Z</time>
      </trkpt>
      <trkpt lat="45.95175" lon="4.91039">
        <ele>297</ele>
        <time>2017-05-16T10:07:59Z</time>
      </trkpt>
      <trkpt lat="45.95166" lon="4.91042">
        <ele>297</ele>
        <time>2017-05-16T10:08:00Z</time>
      </trkpt>
      <trkpt lat="45.95171" lon="4.91052">
        <ele>297</ele>
        <time>2017-05-16T10:11:33Z</time>
      </trkpt>
      <trkpt lat="45.95173" lon="4.91055">
        <ele>297</ele>
        <time>2017-05-16T10:11:34Z</time>
      </trkpt>
      <trkpt lat="45.95177" lon="4.91063">
        <ele>297</ele>
        <time>2017-05-16T10:11:37Z</time>
      </trkpt>
      <trkpt lat="45.95178" lon="4.91065">
        <ele>297</ele>
        <time>2017-05-16T10:11:38Z</time>
      </trkpt>
      <trkpt lat="45.95183" lon="4.91075">
        <ele>297</ele>
        <time>2017-05-16T10:11:42Z</time>
      </trkpt>
      <trkpt lat="45.95185" lon="4.91077">
        <ele>297</ele>
        <time>2017-05-16T10:11:43Z</time>
      </trkpt>
      <trkpt lat="45.95191" lon="4.91082">
        <ele>297</ele>
        <time>2017-05-16T10:11:46Z</time>
      </trkpt>
      <trkpt lat="45.95193" lon="4.91083">
        <ele>297</ele>
        <time>2017-05-16T10:11:47Z</time>
      </trkpt>
      <trkpt lat="45.95201" lon="4.91088">
        <ele>297</ele>
        <time>2017-05-16T10:11:51Z</time>
      </trkpt>
      <trkpt lat="45.95202" lon="4.91087">
        <ele>297</ele>
        <time>2017-05-16T10:11:52Z</time>
      </trkpt>
      <trkpt lat="45.95201" lon="4.91075">
        <ele>297</ele>
        <time>2017-05-16T10:11:57Z</time>
      </trkpt>
      <trkpt lat="45.952" lon="4.91072">
        <ele>297</ele>
        <time>2017-05-16T10:11:58Z</time>
      </trkpt>
      <trkpt lat="45.95195" lon="4.91062">
        <ele>297</ele>
        <time>2017-05-16T10:12:01Z</time>
      </trkpt>
      <trkpt lat="45.95193" lon="4.91057">
        <ele>297</ele>
        <time>2017-05-16T10:12:02Z</time>
      </trkpt>
      <trkpt lat="45.95189" lon="4.91046">
        <ele>297</ele>
        <time>2017-05-16T10:12:05Z</time>
      </trkpt>
      <trkpt lat="45.95188" lon="4.91042">
        <ele>297</ele>
        <time>2017-05-16T10:12:06Z</time>
      </trkpt>
      <trkpt lat="45.95185" lon="4.91032">
        <ele>297</ele>
        <time>2017-05-16T10:12:08Z</time>
      </trkpt>
      <trkpt lat="45.95183" lon="4.91027">
        <ele>297</ele>
        <time>2017-05-16T10:12:09Z</time>
      </trkpt>
      <trkpt lat="45.95179" lon="4.91017">
        <ele>297</ele>
        <time>2017-05-16T10:12:11Z</time>
      </trkpt>
      <trkpt lat="45.95178" lon="4.91011">
        <ele>298</ele>
        <time>2017-05-16T10:12:12Z</time>
      </trkpt>
      <trkpt lat="45.95176" lon="4.91001">
        <ele>298</ele>
        <time>2017-05-16T10:12:14Z</time>
      </trkpt>
      <trkpt lat="45.95176" lon="4.90996">
        <ele>298</ele>
        <time>2017-05-16T10:12:15Z</time>
      </trkpt>
      <trkpt lat="45.95174" lon="4.90986">
        <ele>298</ele>
        <time>2017-05-16T10:12:17Z</time>
      </trkpt>
      <trkpt lat="45.95174" lon="4.90981">
        <ele>298</ele>
        <time>2017-05-16T10:12:18Z</time>
      </trkpt>
      <trkpt lat="45.95173" lon="4.90969">
        <ele>298</ele>
        <time>2017-05-16T10:12:20Z</time>
      </trkpt>
      <trkpt lat="45.95173" lon="4.90964">
        <ele>298</ele>
        <time>2017-05-16T10:12:21Z</time>
      </trkpt>
      <trkpt lat="45.95173" lon="4.90958">
        <ele>297</ele>
        <time>2017-05-16T10:12:22Z</time>
      </trkpt>
      <trkpt lat="45.95173" lon="4.90949">
        <ele>297</ele>
        <time>2017-05-16T10:12:23Z</time>
      </trkpt>
      <trkpt lat="45.95174" lon="4.90942">
        <ele>297</ele>
        <time>2017-05-16T10:12:24Z</time>
      </trkpt>
      <trkpt lat="45.95174" lon="4.90935">
        <ele>297</ele>
        <time>2017-05-16T10:12:25Z</time>
      </trkpt>
      <trkpt lat="45.95175" lon="4.90928">
        <ele>297</ele>
        <time>2017-05-16T10:12:26Z</time>
      </trkpt>
      <trkpt lat="45.95175" lon="4.90921">
        <ele>297</ele>
        <time>2017-05-16T10:12:27Z</time>
      </trkpt>
      <trkpt lat="45.95176" lon="4.90913">
        <ele>297</ele>
        <time>2017-05-16T10:12:28Z</time>
      </trkpt>
      <trkpt lat="45.95177" lon="4.90906">
        <ele>298</ele>
        <time>2017-05-16T10:12:29Z</time>
      </trkpt>
      <trkpt lat="45.95178" lon="4.909">
        <ele>298</ele>
        <time>2017-05-16T10:12:30Z</time>
      </trkpt>
      <trkpt lat="45.95179" lon="4.90893">
        <ele>298</ele>
        <time>2017-05-16T10:12:31Z</time>
      </trkpt>
      <trkpt lat="45.9518" lon="4.90887">
        <ele>298</ele>
        <time>2017-05-16T10:12:32Z</time>
      </trkpt>
      <trkpt lat="45.95181" lon="4.9088">
        <ele>298</ele>
        <time>2017-05-16T10:12:33Z</time>
      </trkpt>
      <trkpt lat="45.95182" lon="4.90868">
        <ele>298</ele>
        <time>2017-05-16T10:12:35Z</time>
      </trkpt>
      <trkpt lat="45.95182" lon="4.90862">
        <ele>298</ele>
        <time>2017-05-16T10:12:36Z</time>
      </trkpt>
      <trkpt lat="45.95182" lon="4.90856">
        <ele>298</ele>
        <time>2017-05-16T10:12:37Z</time>
      </trkpt>
      <trkpt lat="45.95182" lon="4.90849">
        <ele>298</ele>
        <time>2017-05-16T10:12:38Z</time>
      </trkpt>
      <trkpt lat="45.95182" lon="4.90842">
        <ele>298</ele>
        <time>2017-05-16T10:12:39Z</time>
      </trkpt>
      <trkpt lat="45.95182" lon="4.90835">
        <ele>298</ele>
        <time>2017-05-16T10:12:40Z</time>
      </trkpt>
      <trkpt lat="45.95181" lon="4.90829">
        <ele>298</ele>
        <time>2017-05-16T10:12:41Z</time>
      </trkpt>
      <trkpt lat="45.9518" lon="4.90822">
        <ele>298</ele>
        <time>2017-05-16T10:12:42Z</time>
      </trkpt>
      <trkpt lat="45.95178" lon="4.90815">
        <ele>298</ele>
        <time>2017-05-16T10:12:43Z</time>
      </trkpt>
      <trkpt lat="45.95177" lon="4.90808">
        <ele>298</ele>
        <time>2017-05-16T10:12:44Z</time>
      </trkpt>
      <trkpt lat="45.95176" lon="4.90801">
        <ele>298</ele>
        <time>2017-05-16T10:12:45Z</time>
      </trkpt>
      <trkpt lat="45.95174" lon="4.90794">
        <ele>298</ele>
        <time>2017-05-16T10:12:46Z</time>
      </trkpt>
      <trkpt lat="45.95174" lon="4.90787">
        <ele>298</ele>
        <time>2017-05-16T10:12:47Z</time>
      </trkpt>
      <trkpt lat="45.95174" lon="4.9078">
        <ele>298</ele>
        <time>2017-05-16T10:12:48Z</time>
      </trkpt>
      <trkpt lat="45.95175" lon="4.90772">
        <ele>298</ele>
        <time>2017-05-16T10:12:49Z</time>
      </trkpt>
      <trkpt lat="45.95175" lon="4.90766">
        <ele>298</ele>
        <time>2017-05-16T10:12:50Z</time>
      </trkpt>
      <trkpt lat="45.95176" lon="4.90759">
        <ele>298</ele>
        <time>2017-05-16T10:12:51Z</time>
      </trkpt>
      <trkpt lat="45.95177" lon="4.90753">
        <ele>298</ele>
        <time>2017-05-16T10:12:52Z</time>
      </trkpt>
      <trkpt lat="45.95179" lon="4.90742">
        <ele>297</ele>
        <time>2017-05-16T10:12:54Z</time>
      </trkpt>
      <trkpt lat="45.95178" lon="4.90736">
        <ele>297</ele>
        <time>2017-05-16T10:12:55Z</time>
      </trkpt>
      <trkpt lat="45.95178" lon="4.90729">
        <ele>297</ele>
        <time>2017-05-16T10:12:56Z</time>
      </trkpt>
      <trkpt lat="45.95178" lon="4.90722">
        <ele>297</ele>
        <time>2017-05-16T10:12:57Z</time>
      </trkpt>
      <trkpt lat="45.95178" lon="4.90715">
        <ele>297</ele>
        <time>2017-05-16T10:12:58Z</time>
      </trkpt>
      <trkpt lat="45.95178" lon="4.90708">
        <ele>297</ele>
        <time>2017-05-16T10:12:59Z</time>
      </trkpt>
      <trkpt lat="45.95178" lon="4.90701">
        <ele>297</ele>
        <time>2017-05-16T10:13:00Z</time>
      </trkpt>
      <trkpt lat="45.95178" lon="4.90693">
        <ele>297</ele>
        <time>2017-05-16T10:13:01Z</time>
      </trkpt>
      <trkpt lat="45.95178" lon="4.90685">
        <ele>297</ele>
        <time>2017-05-16T10:13:02Z</time>
      </trkpt>
      <trkpt lat="45.95178" lon="4.90676">
        <ele>296</ele>
        <time>2017-05-16T10:13:03Z</time>
      </trkpt>
      <trkpt lat="45.95176" lon="4.90663">
        <ele>295</ele>
        <time>2017-05-16T10:13:04Z</time>
      </trkpt>
      <trkpt lat="45.95175" lon="4.90653">
        <ele>295</ele>
        <time>2017-05-16T10:13:05Z</time>
      </trkpt>
      <trkpt lat="45.95177" lon="4.90645">
        <ele>295</ele>
        <time>2017-05-16T10:13:06Z</time>
      </trkpt>
      <trkpt lat="45.95177" lon="4.90636">
        <ele>295</ele>
        <time>2017-05-16T10:13:07Z</time>
      </trkpt>
      <trkpt lat="45.95177" lon="4.90628">
        <ele>295</ele>
        <time>2017-05-16T10:13:08Z</time>
      </trkpt>
      <trkpt lat="45.95177" lon="4.9062">
        <ele>295</ele>
        <time>2017-05-16T10:13:09Z</time>
      </trkpt>
      <trkpt lat="45.95178" lon="4.90612">
        <ele>295</ele>
        <time>2017-05-16T10:13:10Z</time>
      </trkpt>
      <trkpt lat="45.95179" lon="4.90604">
        <ele>295</ele>
        <time>2017-05-16T10:13:11Z</time>
      </trkpt>
      <trkpt lat="45.9518" lon="4.90597">
        <ele>294</ele>
        <time>2017-05-16T10:13:12Z</time>
      </trkpt>
      <trkpt lat="45.95181" lon="4.90588">
        <ele>294</ele>
        <time>2017-05-16T10:13:13Z</time>
      </trkpt>
      <trkpt lat="45.95184" lon="4.90573">
        <ele>293</ele>
        <time>2017-05-16T10:13:14Z</time>
      </trkpt>
      <trkpt lat="45.95186" lon="4.90562">
        <ele>293</ele>
        <time>2017-05-16T10:13:15Z</time>
      </trkpt>
      <trkpt lat="45.95187" lon="4.90551">
        <ele>293</ele>
        <time>2017-05-16T10:13:16Z</time>
      </trkpt>
      <trkpt lat="45.95188" lon="4.90539">
        <ele>293</ele>
        <time>2017-05-16T10:13:17Z</time>
      </trkpt>
      <trkpt lat="45.95189" lon="4.90528">
        <ele>292</ele>
        <time>2017-05-16T10:13:18Z</time>
      </trkpt>
      <trkpt lat="45.9519" lon="4.90519">
        <ele>292</ele>
        <time>2017-05-16T10:13:19Z</time>
      </trkpt>
      <trkpt lat="45.9519" lon="4.90509">
        <ele>292</ele>
        <time>2017-05-16T10:13:20Z</time>
      </trkpt>
      <trkpt lat="45.95191" lon="4.905">
        <ele>292</ele>
        <time>2017-05-16T10:13:21Z</time>
      </trkpt>
      <trkpt lat="45.95191" lon="4.90491">
        <ele>291</ele>
        <time>2017-05-16T10:13:22Z</time>
      </trkpt>
      <trkpt lat="45.95192" lon="4.90482">
        <ele>290</ele>
        <time>2017-05-16T10:13:23Z</time>
      </trkpt>
      <trkpt lat="45.95192" lon="4.90474">
        <ele>290</ele>
        <time>2017-05-16T10:13:24Z</time>
      </trkpt>
      <trkpt lat="45.95193" lon="4.90464">
        <ele>290</ele>
        <time>2017-05-16T10:13:25Z</time>
      </trkpt>
      <trkpt lat="45.95193" lon="4.90455">
        <ele>290</ele>
        <time>2017-05-16T10:13:26Z</time>
      </trkpt>
      <trkpt lat="45.95193" lon="4.90446">
        <ele>290</ele>
        <time>2017-05-16T10:13:27Z</time>
      </trkpt>
      <trkpt lat="45.95194" lon="4.90437">
        <ele>290</ele>
        <time>2017-05-16T10:13:28Z</time>
      </trkpt>
      <trkpt lat="45.95194" lon="4.90429">
        <ele>289</ele>
        <time>2017-05-16T10:13:29Z</time>
      </trkpt>
      <trkpt lat="45.95194" lon="4.90421">
        <ele>289</ele>
        <time>2017-05-16T10:13:30Z</time>
      </trkpt>
      <trkpt lat="45.95194" lon="4.90413">
        <ele>288</ele>
        <time>2017-05-16T10:13:31Z</time>
      </trkpt>
      <trkpt lat="45.95194" lon="4.90406">
        <ele>288</ele>
        <time>2017-05-16T10:13:32Z</time>
      </trkpt>
      <trkpt lat="45.95195" lon="4.90398">
        <ele>288</ele>
        <time>2017-05-16T10:13:33Z</time>
      </trkpt>
      <trkpt lat="45.95196" lon="4.9039">
        <ele>288</ele>
        <time>2017-05-16T10:13:34Z</time>
      </trkpt>
      <trkpt lat="45.95198" lon="4.9038">
        <ele>288</ele>
        <time>2017-05-16T10:13:35Z</time>
      </trkpt>
      <trkpt lat="45.95199" lon="4.90371">
        <ele>288</ele>
        <time>2017-05-16T10:13:36Z</time>
      </trkpt>
      <trkpt lat="45.952" lon="4.90363">
        <ele>288</ele>
        <time>2017-05-16T10:13:37Z</time>
      </trkpt>
      <trkpt lat="45.95202" lon="4.90355">
        <ele>288</ele>
        <time>2017-05-16T10:13:38Z</time>
      </trkpt>
      <trkpt lat="45.95203" lon="4.90346">
        <ele>288</ele>
        <time>2017-05-16T10:13:39Z</time>
      </trkpt>
      <trkpt lat="45.95204" lon="4.90337">
        <ele>288</ele>
        <time>2017-05-16T10:13:40Z</time>
      </trkpt>
      <trkpt lat="45.95206" lon="4.90327">
        <ele>287</ele>
        <time>2017-05-16T10:13:41Z</time>
      </trkpt>
      <trkpt lat="45.95208" lon="4.90317">
        <ele>287</ele>
        <time>2017-05-16T10:13:42Z</time>
      </trkpt>
      <trkpt lat="45.95209" lon="4.90308">
        <ele>287</ele>
        <time>2017-05-16T10:13:43Z</time>
      </trkpt>
      <trkpt lat="45.9521" lon="4.90299">
        <ele>287</ele>
        <time>2017-05-16T10:13:44Z</time>
      </trkpt>
      <trkpt lat="45.95212" lon="4.90291">
        <ele>287</ele>
        <time>2017-05-16T10:13:45Z</time>
      </trkpt>
      <trkpt lat="45.95213" lon="4.90283">
        <ele>287</ele>
        <time>2017-05-16T10:13:46Z</time>
      </trkpt>
      <trkpt lat="45.95214" lon="4.90274">
        <ele>287</ele>
        <time>2017-05-16T10:13:47Z</time>
      </trkpt>
      <trkpt lat="45.95215" lon="4.90266">
        <ele>287</ele>
        <time>2017-05-16T10:13:48Z</time>
      </trkpt>
      <trkpt lat="45.95215" lon="4.90257">
        <ele>287</ele>
        <time>2017-05-16T10:13:49Z</time>
      </trkpt>
      <trkpt lat="45.95214" lon="4.90249">
        <ele>286</ele>
        <time>2017-05-16T10:13:50Z</time>
      </trkpt>
      <trkpt lat="45.95213" lon="4.9024">
        <ele>286</ele>
        <time>2017-05-16T10:13:51Z</time>
      </trkpt>
      <trkpt lat="45.95212" lon="4.90232">
        <ele>286</ele>
        <time>2017-05-16T10:13:52Z</time>
      </trkpt>
      <trkpt lat="45.95212" lon="4.90223">
        <ele>286</ele>
        <time>2017-05-16T10:13:53Z</time>
      </trkpt>
      <trkpt lat="45.95211" lon="4.90214">
        <ele>286</ele>
        <time>2017-05-16T10:13:54Z</time>
      </trkpt>
      <trkpt lat="45.9521" lon="4.90205">
        <ele>286</ele>
        <time>2017-05-16T10:13:55Z</time>
      </trkpt>
      <trkpt lat="45.95209" lon="4.90196">
        <ele>286</ele>
        <time>2017-05-16T10:13:56Z</time>
      </trkpt>
      <trkpt lat="45.95208" lon="4.90188">
        <ele>287</ele>
        <time>2017-05-16T10:13:57Z</time>
      </trkpt>
      <trkpt lat="45.95205" lon="4.9018">
        <ele>287</ele>
        <time>2017-05-16T10:13:58Z</time>
      </trkpt>
      <trkpt lat="45.95202" lon="4.90173">
        <ele>287</ele>
        <time>2017-05-16T10:13:59Z</time>
      </trkpt>
      <trkpt lat="45.95195" lon="4.9017">
        <ele>287</ele>
        <time>2017-05-16T10:14:00Z</time>
      </trkpt>
      <trkpt lat="45.9519" lon="4.90169">
        <ele>287</ele>
        <time>2017-05-16T10:14:01Z</time>
      </trkpt>
      <trkpt lat="45.95184" lon="4.90169">
        <ele>287</ele>
        <time>2017-05-16T10:14:02Z</time>
      </trkpt>
      <trkpt lat="45.95178" lon="4.9017">
        <ele>287</ele>
        <time>2017-05-16T10:14:03Z</time>
      </trkpt>
      <trkpt lat="45.95172" lon="4.90171">
        <ele>287</ele>
        <time>2017-05-16T10:14:04Z</time>
      </trkpt>
      <trkpt lat="45.95165" lon="4.90172">
        <ele>287</ele>
        <time>2017-05-16T10:14:05Z</time>
      </trkpt>
      <trkpt lat="45.95158" lon="4.90173">
        <ele>287</ele>
        <time>2017-05-16T10:14:06Z</time>
      </trkpt>
      <trkpt lat="45.95152" lon="4.90173">
        <ele>287</ele>
        <time>2017-05-16T10:14:07Z</time>
      </trkpt>
      <trkpt lat="45.95145" lon="4.90171">
        <ele>287</ele>
        <time>2017-05-16T10:14:08Z</time>
      </trkpt>
      <trkpt lat="45.95139" lon="4.90169">
        <ele>287</ele>
        <time>2017-05-16T10:14:09Z</time>
      </trkpt>
      <trkpt lat="45.95132" lon="4.90167">
        <ele>286</ele>
        <time>2017-05-16T10:14:10Z</time>
      </trkpt>
      <trkpt lat="45.95126" lon="4.90163">
        <ele>286</ele>
        <time>2017-05-16T10:14:11Z</time>
      </trkpt>
      <trkpt lat="45.9512" lon="4.90159">
        <ele>286</ele>
        <time>2017-05-16T10:14:12Z</time>
      </trkpt>
      <trkpt lat="45.95114" lon="4.90155">
        <ele>286</ele>
        <time>2017-05-16T10:14:13Z</time>
      </trkpt>
      <trkpt lat="45.95109" lon="4.9015">
        <ele>286</ele>
        <time>2017-05-16T10:14:14Z</time>
      </trkpt>
      <trkpt lat="45.95103" lon="4.90146">
        <ele>286</ele>
        <time>2017-05-16T10:14:15Z</time>
      </trkpt>
      <trkpt lat="45.95098" lon="4.90141">
        <ele>286</ele>
        <time>2017-05-16T10:14:16Z</time>
      </trkpt>
      <trkpt lat="45.95094" lon="4.90136">
        <ele>286</ele>
        <time>2017-05-16T10:14:17Z</time>
      </trkpt>
      <trkpt lat="45.95089" lon="4.90131">
        <ele>286</ele>
        <time>2017-05-16T10:14:18Z</time>
      </trkpt>
      <trkpt lat="45.95085" lon="4.90125">
        <ele>286</ele>
        <time>2017-05-16T10:14:19Z</time>
      </trkpt>
      <trkpt lat="45.9508" lon="4.90119">
        <ele>285</ele>
        <time>2017-05-16T10:14:20Z</time>
      </trkpt>
      <trkpt lat="45.95076" lon="4.90113">
        <ele>285</ele>
        <time>2017-05-16T10:14:21Z</time>
      </trkpt>
      <trkpt lat="45.95071" lon="4.90108">
        <ele>285</ele>
        <time>2017-05-16T10:14:22Z</time>
      </trkpt>
      <trkpt lat="45.95067" lon="4.90102">
        <ele>285</ele>
        <time>2017-05-16T10:14:23Z</time>
      </trkpt>
      <trkpt lat="45.95062" lon="4.90097">
        <ele>285</ele>
        <time>2017-05-16T10:14:24Z</time>
      </trkpt>
      <trkpt lat="45.95058" lon="4.90091">
        <ele>285</ele>
        <time>2017-05-16T10:14:25Z</time>
      </trkpt>
      <trkpt lat="45.95054" lon="4.90085">
        <ele>285</ele>
        <time>2017-05-16T10:14:26Z</time>
      </trkpt>
      <trkpt lat="45.95049" lon="4.9008">
        <ele>285</ele>
        <time>2017-05-16T10:14:27Z</time>
      </trkpt>
      <trkpt lat="45.95045" lon="4.90074">
        <ele>285</ele>
        <time>2017-05-16T10:14:28Z</time>
      </trkpt>
      <trkpt lat="45.95041" lon="4.90069">
        <ele>285</ele>
        <time>2017-05-16T10:14:29Z</time>
      </trkpt>
      <trkpt lat="45.95037" lon="4.90063">
        <ele>285</ele>
        <time>2017-05-16T10:14:30Z</time>
      </trkpt>
      <trkpt lat="45.95033" lon="4.90057">
        <ele>285</ele>
        <time>2017-05-16T10:14:31Z</time>
      </trkpt>
      <trkpt lat="45.95029" lon="4.90052">
        <ele>285</ele>
        <time>2017-05-16T10:14:32Z</time>
      </trkpt>
      <trkpt lat="45.95025" lon="4.90046">
        <ele>284</ele>
        <time>2017-05-16T10:14:33Z</time>
      </trkpt>
      <trkpt lat="45.95022" lon="4.9004">
        <ele>284</ele>
        <time>2017-05-16T10:14:34Z</time>
      </trkpt>
      <trkpt lat="45.95018" lon="4.90034">
        <ele>284</ele>
        <time>2017-05-16T10:14:35Z</time>
      </trkpt>
      <trkpt lat="45.95015" lon="4.90028">
        <ele>284</ele>
        <time>2017-05-16T10:14:36Z</time>
      </trkpt>
      <trkpt lat="45.95011" lon="4.90022">
        <ele>284</ele>
        <time>2017-05-16T10:14:37Z</time>
      </trkpt>
      <trkpt lat="45.95008" lon="4.90016">
        <ele>284</ele>
        <time>2017-05-16T10:14:38Z</time>
      </trkpt>
      <trkpt lat="45.95005" lon="4.90009">
        <ele>284</ele>
        <time>2017-05-16T10:14:39Z</time>
      </trkpt>
      <trkpt lat="45.95002" lon="4.90003">
        <ele>283</ele>
        <time>2017-05-16T10:14:40Z</time>
      </trkpt>
      <trkpt lat="45.94998" lon="4.89996">
        <ele>283</ele>
        <time>2017-05-16T10:14:41Z</time>
      </trkpt>
      <trkpt lat="45.94995" lon="4.89989">
        <ele>283</ele>
        <time>2017-05-16T10:14:42Z</time>
      </trkpt>
      <trkpt lat="45.94991" lon="4.89983">
        <ele>284</ele>
        <time>2017-05-16T10:14:43Z</time>
      </trkpt>
      <trkpt lat="45.94987" lon="4.89976">
        <ele>284</ele>
        <time>2017-05-16T10:14:44Z</time>
      </trkpt>
      <trkpt lat="45.94983" lon="4.89969">
        <ele>284</ele>
        <time>2017-05-16T10:14:45Z</time>
      </trkpt>
      <trkpt lat="45.94979" lon="4.89962">
        <ele>284</ele>
        <time>2017-05-16T10:14:46Z</time>
      </trkpt>
      <trkpt lat="45.94975" lon="4.89955">
        <ele>284</ele>
        <time>2017-05-16T10:14:47Z</time>
      </trkpt>
      <trkpt lat="45.94971" lon="4.89949">
        <ele>284</ele>
        <time>2017-05-16T10:14:48Z</time>
      </trkpt>
      <trkpt lat="45.94966" lon="4.89942">
        <ele>284</ele>
        <time>2017-05-16T10:14:49Z</time>
      </trkpt>
      <trkpt lat="45.94961" lon="4.89936">
        <ele>284</ele>
        <time>2017-05-16T10:14:50Z</time>
      </trkpt>
      <trkpt lat="45.94956" lon="4.8993">
        <ele>284</ele>
        <time>2017-05-16T10:14:51Z</time>
      </trkpt>
      <trkpt lat="45.94952" lon="4.89924">
        <ele>284</ele>
        <time>2017-05-16T10:14:52Z</time>
      </trkpt>
      <trkpt lat="45.94948" lon="4.89918">
        <ele>284</ele>
        <time>2017-05-16T10:14:53Z</time>
      </trkpt>
      <trkpt lat="45.94943" lon="4.89913">
        <ele>284</ele>
        <time>2017-05-16T10:14:54Z</time>
      </trkpt>
      <trkpt lat="45.9494" lon="4.89907">
        <ele>284</ele>
        <time>2017-05-16T10:14:55Z</time>
      </trkpt>
      <trkpt lat="45.94936" lon="4.89901">
        <ele>284</ele>
        <time>2017-05-16T10:14:56Z</time>
      </trkpt>
      <trkpt lat="45.94932" lon="4.89895">
        <ele>284</ele>
        <time>2017-05-16T10:14:57Z</time>
      </trkpt>
      <trkpt lat="45.9493" lon="4.89889">
        <ele>284</ele>
        <time>2017-05-16T10:14:58Z</time>
      </trkpt>
      <trkpt lat="45.94927" lon="4.89882">
        <ele>284</ele>
        <time>2017-05-16T10:14:59Z</time>
      </trkpt>
      <trkpt lat="45.94926" lon="4.89875">
        <ele>284</ele>
        <time>2017-05-16T10:15:00Z</time>
      </trkpt>
      <trkpt lat="45.94925" lon="4.89867">
        <ele>284</ele>
        <time>2017-05-16T10:15:01Z</time>
      </trkpt>
      <trkpt lat="45.94924" lon="4.89859">
        <ele>284</ele>
        <time>2017-05-16T10:15:02Z</time>
      </trkpt>
      <trkpt lat="45.94924" lon="4.89851">
        <ele>284</ele>
        <time>2017-05-16T10:15:03Z</time>
      </trkpt>
      <trkpt lat="45.94923" lon="4.89843">
        <ele>284</ele>
        <time>2017-05-16T10:15:04Z</time>
      </trkpt>
      <trkpt lat="45.94923" lon="4.89835">
        <ele>284</ele>
        <time>2017-05-16T10:15:05Z</time>
      </trkpt>
      <trkpt lat="45.94923" lon="4.89826">
        <ele>284</ele>
        <time>2017-05-16T10:15:06Z</time>
      </trkpt>
      <trkpt lat="45.94924" lon="4.89819">
        <ele>284</ele>
        <time>2017-05-16T10:15:07Z</time>
      </trkpt>
      <trkpt lat="45.94926" lon="4.89812">
        <ele>284</ele>
        <time>2017-05-16T10:15:08Z</time>
      </trkpt>
      <trkpt lat="45.94928" lon="4.89805">
        <ele>284</ele>
        <time>2017-05-16T10:15:09Z</time>
      </trkpt>
      <trkpt lat="45.94929" lon="4.89798">
        <ele>284</ele>
        <time>2017-05-16T10:15:10Z</time>
      </trkpt>
      <trkpt lat="45.94931" lon="4.89791">
        <ele>284</ele>
        <time>2017-05-16T10:15:11Z</time>
      </trkpt>
      <trkpt lat="45.94933" lon="4.89783">
        <ele>284</ele>
        <time>2017-05-16T10:15:12Z</time>
      </trkpt>
      <trkpt lat="45.94934" lon="4.89776">
        <ele>284</ele>
        <time>2017-05-16T10:15:13Z</time>
      </trkpt>
      <trkpt lat="45.94935" lon="4.89769">
        <ele>284</ele>
        <time>2017-05-16T10:15:14Z</time>
      </trkpt>
      <trkpt lat="45.94937" lon="4.89761">
        <ele>284</ele>
        <time>2017-05-16T10:15:15Z</time>
      </trkpt>
      <trkpt lat="45.94939" lon="4.89753">
        <ele>284</ele>
        <time>2017-05-16T10:15:16Z</time>
      </trkpt>
      <trkpt lat="45.94941" lon="4.89745">
        <ele>284</ele>
        <time>2017-05-16T10:15:17Z</time>
      </trkpt>
      <trkpt lat="45.94944" lon="4.89737">
        <ele>284</ele>
        <time>2017-05-16T10:15:18Z</time>
      </trkpt>
      <trkpt lat="45.94945" lon="4.8973">
        <ele>284</ele>
        <time>2017-05-16T10:15:19Z</time>
      </trkpt>
      <trkpt lat="45.94947" lon="4.89722">
        <ele>284</ele>
        <time>2017-05-16T10:15:20Z</time>
      </trkpt>
      <trkpt lat="45.94949" lon="4.89714">
        <ele>284</ele>
        <time>2017-05-16T10:15:21Z</time>
      </trkpt>
      <trkpt lat="45.94951" lon="4.89707">
        <ele>284</ele>
        <time>2017-05-16T10:15:22Z</time>
      </trkpt>
      <trkpt lat="45.94954" lon="4.897">
        <ele>284</ele>
        <time>2017-05-16T10:15:23Z</time>
      </trkpt>
      <trkpt lat="45.94956" lon="4.89693">
        <ele>284</ele>
        <time>2017-05-16T10:15:24Z</time>
      </trkpt>
      <trkpt lat="45.94958" lon="4.89686">
        <ele>284</ele>
        <time>2017-05-16T10:15:25Z</time>
      </trkpt>
      <trkpt lat="45.9496" lon="4.89678">
        <ele>284</ele>
        <time>2017-05-16T10:15:26Z</time>
      </trkpt>
      <trkpt lat="45.94962" lon="4.89671">
        <ele>284</ele>
        <time>2017-05-16T10:15:27Z</time>
      </trkpt>
      <trkpt lat="45.94964" lon="4.89664">
        <ele>285</ele>
        <time>2017-05-16T10:15:28Z</time>
      </trkpt>
      <trkpt lat="45.94966" lon="4.89656">
        <ele>285</ele>
        <time>2017-05-16T10:15:29Z</time>
      </trkpt>
      <trkpt lat="45.94969" lon="4.89648">
        <ele>285</ele>
        <time>2017-05-16T10:15:30Z</time>
      </trkpt>
      <trkpt lat="45.94971" lon="4.89641">
        <ele>285</ele>
        <time>2017-05-16T10:15:31Z</time>
      </trkpt>
      <trkpt lat="45.94973" lon="4.89633">
        <ele>285</ele>
        <time>2017-05-16T10:15:32Z</time>
      </trkpt>
      <trkpt lat="45.94975" lon="4.89626">
        <ele>285</ele>
        <time>2017-05-16T10:15:33Z</time>
      </trkpt>
      <trkpt lat="45.94977" lon="4.8962">
        <ele>285</ele>
        <time>2017-05-16T10:15:34Z</time>
      </trkpt>
      <trkpt lat="45.94979" lon="4.89613">
        <ele>285</ele>
        <time>2017-05-16T10:15:35Z</time>
      </trkpt>
      <trkpt lat="45.9498" lon="4.89605">
        <ele>285</ele>
        <time>2017-05-16T10:15:36Z</time>
      </trkpt>
      <trkpt lat="45.94982" lon="4.89598">
        <ele>284</ele>
        <time>2017-05-16T10:15:37Z</time>
      </trkpt>
      <trkpt lat="45.94984" lon="4.89591">
        <ele>284</ele>
        <time>2017-05-16T10:15:38Z</time>
      </trkpt>
      <trkpt lat="45.94986" lon="4.89583">
        <ele>284</ele>
        <time>2017-05-16T10:15:39Z</time>
      </trkpt>
      <trkpt lat="45.94988" lon="4.89576">
        <ele>284</ele>
        <time>2017-05-16T10:15:40Z</time>
      </trkpt>
      <trkpt lat="45.9499" lon="4.89569">
        <ele>284</ele>
        <time>2017-05-16T10:15:41Z</time>
      </trkpt>
      <trkpt lat="45.94992" lon="4.89562">
        <ele>284</ele>
        <time>2017-05-16T10:15:42Z</time>
      </trkpt>
      <trkpt lat="45.94994" lon="4.89555">
        <ele>285</ele>
        <time>2017-05-16T10:15:43Z</time>
      </trkpt>
      <trkpt lat="45.94996" lon="4.89549">
        <ele>284</ele>
        <time>2017-05-16T10:15:44Z</time>
      </trkpt>
      <trkpt lat="45.94999" lon="4.89542">
        <ele>284</ele>
        <time>2017-05-16T10:15:45Z</time>
      </trkpt>
      <trkpt lat="45.95002" lon="4.89536">
        <ele>283</ele>
        <time>2017-05-16T10:15:46Z</time>
      </trkpt>
      <trkpt lat="45.95006" lon="4.89531">
        <ele>283</ele>
        <time>2017-05-16T10:15:47Z</time>
      </trkpt>
      <trkpt lat="45.95012" lon="4.89526">
        <ele>283</ele>
        <time>2017-05-16T10:15:48Z</time>
      </trkpt>
      <trkpt lat="45.95017" lon="4.89523">
        <ele>283</ele>
        <time>2017-05-16T10:15:49Z</time>
      </trkpt>
      <trkpt lat="45.95023" lon="4.89522">
        <ele>283</ele>
        <time>2017-05-16T10:15:50Z</time>
      </trkpt>
      <trkpt lat="45.95029" lon="4.8952">
        <ele>283</ele>
        <time>2017-05-16T10:15:51Z</time>
      </trkpt>
      <trkpt lat="45.95035" lon="4.8952">
        <ele>283</ele>
        <time>2017-05-16T10:15:52Z</time>
      </trkpt>
      <trkpt lat="45.9504" lon="4.89519">
        <ele>283</ele>
        <time>2017-05-16T10:15:53Z</time>
      </trkpt>
      <trkpt lat="45.95046" lon="4.89518">
        <ele>283</ele>
        <time>2017-05-16T10:15:54Z</time>
      </trkpt>
      <trkpt lat="45.95052" lon="4.89516">
        <ele>283</ele>
        <time>2017-05-16T10:15:55Z</time>
      </trkpt>
      <trkpt lat="45.95058" lon="4.89515">
        <ele>283</ele>
        <time>2017-05-16T10:15:56Z</time>
      </trkpt>
      <trkpt lat="45.95063" lon="4.89513">
        <ele>282</ele>
        <time>2017-05-16T10:15:57Z</time>
      </trkpt>
      <trkpt lat="45.95069" lon="4.8951">
        <ele>282</ele>
        <time>2017-05-16T10:15:58Z</time>
      </trkpt>
      <trkpt lat="45.95074" lon="4.89506">
        <ele>282</ele>
        <time>2017-05-16T10:15:59Z</time>
      </trkpt>
      <trkpt lat="45.95079" lon="4.89501">
        <ele>282</ele>
        <time>2017-05-16T10:16:00Z</time>
      </trkpt>
      <trkpt lat="45.95082" lon="4.89494">
        <ele>282</ele>
        <time>2017-05-16T10:16:01Z</time>
      </trkpt>
      <trkpt lat="45.95082" lon="4.89484">
        <ele>282</ele>
        <time>2017-05-16T10:16:02Z</time>
      </trkpt>
      <trkpt lat="45.95082" lon="4.89475">
        <ele>282</ele>
        <time>2017-05-16T10:16:03Z</time>
      </trkpt>
      <trkpt lat="45.9508" lon="4.89466">
        <ele>282</ele>
        <time>2017-05-16T10:16:04Z</time>
      </trkpt>
      <trkpt lat="45.95079" lon="4.89458">
        <ele>282</ele>
        <time>2017-05-16T10:16:05Z</time>
      </trkpt>
      <trkpt lat="45.95077" lon="4.8945">
        <ele>282</ele>
        <time>2017-05-16T10:16:06Z</time>
      </trkpt>
      <trkpt lat="45.95075" lon="4.89443">
        <ele>282</ele>
        <time>2017-05-16T10:16:07Z</time>
      </trkpt>
      <trkpt lat="45.95074" lon="4.89435">
        <ele>282</ele>
        <time>2017-05-16T10:16:08Z</time>
      </trkpt>
      <trkpt lat="45.95073" lon="4.89427">
        <ele>282</ele>
        <time>2017-05-16T10:16:09Z</time>
      </trkpt>
      <trkpt lat="45.95072" lon="4.89419">
        <ele>282</ele>
        <time>2017-05-16T10:16:10Z</time>
      </trkpt>
      <trkpt lat="45.95072" lon="4.89411">
        <ele>283</ele>
        <time>2017-05-16T10:16:11Z</time>
      </trkpt>
      <trkpt lat="45.9507" lon="4.89402">
        <ele>283</ele>
        <time>2017-05-16T10:16:12Z</time>
      </trkpt>
      <trkpt lat="45.95069" lon="4.89393">
        <ele>283</ele>
        <time>2017-05-16T10:16:13Z</time>
      </trkpt>
      <trkpt lat="45.95069" lon="4.89385">
        <ele>283</ele>
        <time>2017-05-16T10:16:14Z</time>
      </trkpt>
      <trkpt lat="45.95068" lon="4.89376">
        <ele>283</ele>
        <time>2017-05-16T10:16:15Z</time>
      </trkpt>
      <trkpt lat="45.95068" lon="4.89367">
        <ele>283</ele>
        <time>2017-05-16T10:16:16Z</time>
      </trkpt>
      <trkpt lat="45.95068" lon="4.89359">
        <ele>283</ele>
        <time>2017-05-16T10:16:17Z</time>
      </trkpt>
      <trkpt lat="45.95068" lon="4.8935">
        <ele>283</ele>
        <time>2017-05-16T10:16:18Z</time>
      </trkpt>
      <trkpt lat="45.95068" lon="4.89342">
        <ele>283</ele>
        <time>2017-05-16T10:16:19Z</time>
      </trkpt>
      <trkpt lat="45.95068" lon="4.89334">
        <ele>283</ele>
        <time>2017-05-16T10:16:20Z</time>
      </trkpt>
      <trkpt lat="45.95069" lon="4.89325">
        <ele>283</ele>
        <time>2017-05-16T10:16:21Z</time>
      </trkpt>
      <trkpt lat="45.95069" lon="4.89316">
        <ele>283</ele>
        <time>2017-05-16T10:16:22Z</time>
      </trkpt>
      <trkpt lat="45.9507" lon="4.89307">
        <ele>283</ele>
        <time>2017-05-16T10:16:23Z</time>
      </trkpt>
      <trkpt lat="45.95071" lon="4.89298">
        <ele>283</ele>
        <time>2017-05-16T10:16:24Z</time>
      </trkpt>
      <trkpt lat="45.95071" lon="4.8929">
        <ele>283</ele>
        <time>2017-05-16T10:16:25Z</time>
      </trkpt>
      <trkpt lat="45.95072" lon="4.89281">
        <ele>283</ele>
        <time>2017-05-16T10:16:26Z</time>
      </trkpt>
      <trkpt lat="45.95072" lon="4.89272">
        <ele>283</ele>
        <time>2017-05-16T10:16:27Z</time>
      </trkpt>
      <trkpt lat="45.95072" lon="4.89263">
        <ele>283</ele>
        <time>2017-05-16T10:16:28Z</time>
      </trkpt>
      <trkpt lat="45.95073" lon="4.89255">
        <ele>283</ele>
        <time>2017-05-16T10:16:29Z</time>
      </trkpt>
      <trkpt lat="45.95073" lon="4.89247">
        <ele>283</ele>
        <time>2017-05-16T10:16:30Z</time>
      </trkpt>
      <trkpt lat="45.95074" lon="4.89239">
        <ele>284</ele>
        <time>2017-05-16T10:16:31Z</time>
      </trkpt>
      <trkpt lat="45.95074" lon="4.89231">
        <ele>284</ele>
        <time>2017-05-16T10:16:32Z</time>
      </trkpt>
      <trkpt lat="45.95074" lon="4.89224">
        <ele>284</ele>
        <time>2017-05-16T10:16:33Z</time>
      </trkpt>
      <trkpt lat="45.95075" lon="4.89217">
        <ele>284</ele>
        <time>2017-05-16T10:16:34Z</time>
      </trkpt>
      <trkpt lat="45.95075" lon="4.89211">
        <ele>284</ele>
        <time>2017-05-16T10:16:35Z</time>
      </trkpt>
      <trkpt lat="45.95075" lon="4.89204">
        <ele>284</ele>
        <time>2017-05-16T10:16:36Z</time>
      </trkpt>
      <trkpt lat="45.95076" lon="4.89191">
        <ele>284</ele>
        <time>2017-05-16T10:16:38Z</time>
      </trkpt>
      <trkpt lat="45.95076" lon="4.89183">
        <ele>284</ele>
        <time>2017-05-16T10:16:39Z</time>
      </trkpt>
      <trkpt lat="45.95076" lon="4.89176">
        <ele>284</ele>
        <time>2017-05-16T10:16:40Z</time>
      </trkpt>
      <trkpt lat="45.95078" lon="4.89165">
        <ele>284</ele>
        <time>2017-05-16T10:16:41Z</time>
      </trkpt>
      <trkpt lat="45.9508" lon="4.89156">
        <ele>284</ele>
        <time>2017-05-16T10:16:42Z</time>
      </trkpt>
      <trkpt lat="45.95081" lon="4.89147">
        <ele>284</ele>
        <time>2017-05-16T10:16:43Z</time>
      </trkpt>
      <trkpt lat="45.95082" lon="4.89139">
        <ele>285</ele>
        <time>2017-05-16T10:16:44Z</time>
      </trkpt>
      <trkpt lat="45.95083" lon="4.89131">
        <ele>285</ele>
        <time>2017-05-16T10:16:45Z</time>
      </trkpt>
      <trkpt lat="45.95084" lon="4.89123">
        <ele>283</ele>
        <time>2017-05-16T10:16:46Z</time>
      </trkpt>
      <trkpt lat="45.95085" lon="4.89114">
        <ele>283</ele>
        <time>2017-05-16T10:16:47Z</time>
      </trkpt>
      <trkpt lat="45.95086" lon="4.89107">
        <ele>283</ele>
        <time>2017-05-16T10:16:48Z</time>
      </trkpt>
      <trkpt lat="45.95088" lon="4.891">
        <ele>283</ele>
        <time>2017-05-16T10:16:49Z</time>
      </trkpt>
      <trkpt lat="45.95088" lon="4.89093">
        <ele>284</ele>
        <time>2017-05-16T10:16:50Z</time>
      </trkpt>
      <trkpt lat="45.95089" lon="4.89085">
        <ele>284</ele>
        <time>2017-05-16T10:16:51Z</time>
      </trkpt>
      <trkpt lat="45.9509" lon="4.89077">
        <ele>284</ele>
        <time>2017-05-16T10:16:52Z</time>
      </trkpt>
      <trkpt lat="45.9509" lon="4.89068">
        <ele>284</ele>
        <time>2017-05-16T10:16:53Z</time>
      </trkpt>
      <trkpt lat="45.95091" lon="4.8906">
        <ele>284</ele>
        <time>2017-05-16T10:16:54Z</time>
      </trkpt>
      <trkpt lat="45.95092" lon="4.89051">
        <ele>284</ele>
        <time>2017-05-16T10:16:55Z</time>
      </trkpt>
      <trkpt lat="45.95093" lon="4.89043">
        <ele>284</ele>
        <time>2017-05-16T10:16:56Z</time>
      </trkpt>
      <trkpt lat="45.95093" lon="4.89034">
        <ele>284</ele>
        <time>2017-05-16T10:16:57Z</time>
      </trkpt>
      <trkpt lat="45.95094" lon="4.89025">
        <ele>284</ele>
        <time>2017-05-16T10:16:58Z</time>
      </trkpt>
      <trkpt lat="45.95094" lon="4.89017">
        <ele>284</ele>
        <time>2017-05-16T10:16:59Z</time>
      </trkpt>
      <trkpt lat="45.95095" lon="4.89009">
        <ele>284</ele>
        <time>2017-05-16T10:17:00Z</time>
      </trkpt>
      <trkpt lat="45.95096" lon="4.89001">
        <ele>284</ele>
        <time>2017-05-16T10:17:01Z</time>
      </trkpt>
      <trkpt lat="45.95097" lon="4.88994">
        <ele>285</ele>
        <time>2017-05-16T10:17:02Z</time>
      </trkpt>
      <trkpt lat="45.95098" lon="4.88988">
        <ele>285</ele>
        <time>2017-05-16T10:17:03Z</time>
      </trkpt>
      <trkpt lat="45.95098" lon="4.88981">
        <ele>284</ele>
        <time>2017-05-16T10:17:04Z</time>
      </trkpt>
      <trkpt lat="45.95098" lon="4.88974">
        <ele>284</ele>
        <time>2017-05-16T10:17:05Z</time>
      </trkpt>
      <trkpt lat="45.95099" lon="4.88968">
        <ele>284</ele>
        <time>2017-05-16T10:17:06Z</time>
      </trkpt>
      <trkpt lat="45.95099" lon="4.88961">
        <ele>284</ele>
        <time>2017-05-16T10:17:07Z</time>
      </trkpt>
      <trkpt lat="45.95099" lon="4.88948">
        <ele>285</ele>
        <time>2017-05-16T10:17:09Z</time>
      </trkpt>
      <trkpt lat="45.951" lon="4.88942">
        <ele>285</ele>
        <time>2017-05-16T10:17:10Z</time>
      </trkpt>
      <trkpt lat="45.951" lon="4.88935">
        <ele>285</ele>
        <time>2017-05-16T10:17:11Z</time>
      </trkpt>
      <trkpt lat="45.95101" lon="4.88927">
        <ele>285</ele>
        <time>2017-05-16T10:17:12Z</time>
      </trkpt>
      <trkpt lat="45.95102" lon="4.88919">
        <ele>285</ele>
        <time>2017-05-16T10:17:13Z</time>
      </trkpt>
      <trkpt lat="45.95102" lon="4.88911">
        <ele>285</ele>
        <time>2017-05-16T10:17:14Z</time>
      </trkpt>
      <trkpt lat="45.95103" lon="4.88902">
        <ele>285</ele>
        <time>2017-05-16T10:17:15Z</time>
      </trkpt>
      <trkpt lat="45.95103" lon="4.88893">
        <ele>285</ele>
        <time>2017-05-16T10:17:16Z</time>
      </trkpt>
      <trkpt lat="45.95104" lon="4.88884">
        <ele>285</ele>
        <time>2017-05-16T10:17:17Z</time>
      </trkpt>
      <trkpt lat="45.95105" lon="4.88875">
        <ele>285</ele>
        <time>2017-05-16T10:17:18Z</time>
      </trkpt>
      <trkpt lat="45.95105" lon="4.88867">
        <ele>285</ele>
        <time>2017-05-16T10:17:19Z</time>
      </trkpt>
      <trkpt lat="45.95105" lon="4.88859">
        <ele>285</ele>
        <time>2017-05-16T10:17:20Z</time>
      </trkpt>
      <trkpt lat="45.95106" lon="4.88851">
        <ele>285</ele>
        <time>2017-05-16T10:17:21Z</time>
      </trkpt>
      <trkpt lat="45.95106" lon="4.88844">
        <ele>285</ele>
        <time>2017-05-16T10:17:22Z</time>
      </trkpt>
      <trkpt lat="45.95107" lon="4.88836">
        <ele>285</ele>
        <time>2017-05-16T10:17:23Z</time>
      </trkpt>
      <trkpt lat="45.95107" lon="4.8883">
        <ele>286</ele>
        <time>2017-05-16T10:17:24Z</time>
      </trkpt>
      <trkpt lat="45.95108" lon="4.88823">
        <ele>286</ele>
        <time>2017-05-16T10:17:25Z</time>
      </trkpt>
      <trkpt lat="45.95108" lon="4.88817">
        <ele>286</ele>
        <time>2017-05-16T10:17:26Z</time>
      </trkpt>
      <trkpt lat="45.95109" lon="4.88804">
        <ele>286</ele>
        <time>2017-05-16T10:17:28Z</time>
      </trkpt>
      <trkpt lat="45.9511" lon="4.88798">
        <ele>286</ele>
        <time>2017-05-16T10:17:29Z</time>
      </trkpt>
      <trkpt lat="45.95111" lon="4.88791">
        <ele>286</ele>
        <time>2017-05-16T10:17:30Z</time>
      </trkpt>
      <trkpt lat="45.95111" lon="4.88785">
        <ele>287</ele>
        <time>2017-05-16T10:17:31Z</time>
      </trkpt>
      <trkpt lat="45.95111" lon="4.88778">
        <ele>287</ele>
        <time>2017-05-16T10:17:32Z</time>
      </trkpt>
      <trkpt lat="45.95111" lon="4.88771">
        <ele>287</ele>
        <time>2017-05-16T10:17:33Z</time>
      </trkpt>
      <trkpt lat="45.95111" lon="4.88764">
        <ele>287</ele>
        <time>2017-05-16T10:17:34Z</time>
      </trkpt>
      <trkpt lat="45.95112" lon="4.88758">
        <ele>287</ele>
        <time>2017-05-16T10:17:35Z</time>
      </trkpt>
      <trkpt lat="45.95112" lon="4.8875">
        <ele>287</ele>
        <time>2017-05-16T10:17:36Z</time>
      </trkpt>
      <trkpt lat="45.95112" lon="4.88744">
        <ele>288</ele>
        <time>2017-05-16T10:17:37Z</time>
      </trkpt>
      <trkpt lat="45.9511" lon="4.88731">
        <ele>288</ele>
        <time>2017-05-16T10:17:39Z</time>
      </trkpt>
      <trkpt lat="45.9511" lon="4.88724">
        <ele>289</ele>
        <time>2017-05-16T10:17:40Z</time>
      </trkpt>
      <trkpt lat="45.95109" lon="4.88712">
        <ele>289</ele>
        <time>2017-05-16T10:17:42Z</time>
      </trkpt>
      <trkpt lat="45.95109" lon="4.88705">
        <ele>289</ele>
        <time>2017-05-16T10:17:43Z</time>
      </trkpt>
      <trkpt lat="45.9511" lon="4.88694">
        <ele>289</ele>
        <time>2017-05-16T10:17:45Z</time>
      </trkpt>
      <trkpt lat="45.9511" lon="4.88688">
        <ele>289</ele>
        <time>2017-05-16T10:17:46Z</time>
      </trkpt>
      <trkpt lat="45.9511" lon="4.88675">
        <ele>289</ele>
        <time>2017-05-16T10:17:48Z</time>
      </trkpt>
      <trkpt lat="45.9511" lon="4.88669">
        <ele>289</ele>
        <time>2017-05-16T10:17:49Z</time>
      </trkpt>
      <trkpt lat="45.9511" lon="4.88662">
        <ele>290</ele>
        <time>2017-05-16T10:17:50Z</time>
      </trkpt>
      <trkpt lat="45.9511" lon="4.88656">
        <ele>290</ele>
        <time>2017-05-16T10:17:51Z</time>
      </trkpt>
      <trkpt lat="45.9511" lon="4.88649">
        <ele>290</ele>
        <time>2017-05-16T10:17:52Z</time>
      </trkpt>
      <trkpt lat="45.9511" lon="4.88643">
        <ele>290</ele>
        <time>2017-05-16T10:17:53Z</time>
      </trkpt>
      <trkpt lat="45.9511" lon="4.88637">
        <ele>290</ele>
        <time>2017-05-16T10:17:54Z</time>
      </trkpt>
      <trkpt lat="45.95111" lon="4.8863">
        <ele>290</ele>
        <time>2017-05-16T10:17:55Z</time>
      </trkpt>
      <trkpt lat="45.95112" lon="4.88618">
        <ele>290</ele>
        <time>2017-05-16T10:17:57Z</time>
      </trkpt>
      <trkpt lat="45.95113" lon="4.88611">
        <ele>290</ele>
        <time>2017-05-16T10:17:58Z</time>
      </trkpt>
      <trkpt lat="45.95115" lon="4.88599">
        <ele>290</ele>
        <time>2017-05-16T10:18:00Z</time>
      </trkpt>
      <trkpt lat="45.95116" lon="4.88594">
        <ele>290</ele>
        <time>2017-05-16T10:18:01Z</time>
      </trkpt>
      <trkpt lat="45.95118" lon="4.88582">
        <ele>291</ele>
        <time>2017-05-16T10:18:03Z</time>
      </trkpt>
      <trkpt lat="45.95118" lon="4.88575">
        <ele>291</ele>
        <time>2017-05-16T10:18:04Z</time>
      </trkpt>
      <trkpt lat="45.95118" lon="4.88568">
        <ele>291</ele>
        <time>2017-05-16T10:18:05Z</time>
      </trkpt>
      <trkpt lat="45.95118" lon="4.88561">
        <ele>291</ele>
        <time>2017-05-16T10:18:06Z</time>
      </trkpt>
      <trkpt lat="45.95116" lon="4.88548">
        <ele>291</ele>
        <time>2017-05-16T10:18:08Z</time>
      </trkpt>
      <trkpt lat="45.95114" lon="4.88542">
        <ele>291</ele>
        <time>2017-05-16T10:18:09Z</time>
      </trkpt>
      <trkpt lat="45.95113" lon="4.88535">
        <ele>291</ele>
        <time>2017-05-16T10:18:10Z</time>
      </trkpt>
      <trkpt lat="45.95111" lon="4.88529">
        <ele>291</ele>
        <time>2017-05-16T10:18:11Z</time>
      </trkpt>
      <trkpt lat="45.9511" lon="4.88522">
        <ele>291</ele>
        <time>2017-05-16T10:18:12Z</time>
      </trkpt>
      <trkpt lat="45.95109" lon="4.88515">
        <ele>291</ele>
        <time>2017-05-16T10:18:13Z</time>
      </trkpt>
      <trkpt lat="45.95107" lon="4.88507">
        <ele>291</ele>
        <time>2017-05-16T10:18:14Z</time>
      </trkpt>
      <trkpt lat="45.95106" lon="4.885">
        <ele>291</ele>
        <time>2017-05-16T10:18:15Z</time>
      </trkpt>
      <trkpt lat="45.95105" lon="4.88493">
        <ele>291</ele>
        <time>2017-05-16T10:18:16Z</time>
      </trkpt>
      <trkpt lat="45.95103" lon="4.88485">
        <ele>291</ele>
        <time>2017-05-16T10:18:17Z</time>
      </trkpt>
      <trkpt lat="45.95101" lon="4.88479">
        <ele>291</ele>
        <time>2017-05-16T10:18:18Z</time>
      </trkpt>
      <trkpt lat="45.951" lon="4.88472">
        <ele>291</ele>
        <time>2017-05-16T10:18:19Z</time>
      </trkpt>
      <trkpt lat="45.951" lon="4.88459">
        <ele>291</ele>
        <time>2017-05-16T10:18:21Z</time>
      </trkpt>
      <trkpt lat="45.95101" lon="4.88452">
        <ele>291</ele>
        <time>2017-05-16T10:18:22Z</time>
      </trkpt>
      <trkpt lat="45.95102" lon="4.88445">
        <ele>291</ele>
        <time>2017-05-16T10:18:23Z</time>
      </trkpt>
      <trkpt lat="45.95103" lon="4.88438">
        <ele>291</ele>
        <time>2017-05-16T10:18:24Z</time>
      </trkpt>
      <trkpt lat="45.95104" lon="4.88431">
        <ele>291</ele>
        <time>2017-05-16T10:18:25Z</time>
      </trkpt>
      <trkpt lat="45.95106" lon="4.88424">
        <ele>291</ele>
        <time>2017-05-16T10:18:26Z</time>
      </trkpt>
      <trkpt lat="45.95108" lon="4.88418">
        <ele>291</ele>
        <time>2017-05-16T10:18:27Z</time>
      </trkpt>
      <trkpt lat="45.95109" lon="4.88411">
        <ele>291</ele>
        <time>2017-05-16T10:18:28Z</time>
      </trkpt>
      <trkpt lat="45.95111" lon="4.88405">
        <ele>291</ele>
        <time>2017-05-16T10:18:29Z</time>
      </trkpt>
      <trkpt lat="45.95112" lon="4.88398">
        <ele>291</ele>
        <time>2017-05-16T10:18:30Z</time>
      </trkpt>
      <trkpt lat="45.95113" lon="4.88391">
        <ele>291</ele>
        <time>2017-05-16T10:18:31Z</time>
      </trkpt>
      <trkpt lat="45.95114" lon="4.88385">
        <ele>291</ele>
        <time>2017-05-16T10:18:32Z</time>
      </trkpt>
      <trkpt lat="45.95114" lon="4.88378">
        <ele>291</ele>
        <time>2017-05-16T10:18:33Z</time>
      </trkpt>
      <trkpt lat="45.95115" lon="4.8837">
        <ele>290</ele>
        <time>2017-05-16T10:18:34Z</time>
      </trkpt>
      <trkpt lat="45.95115" lon="4.88364">
        <ele>290</ele>
        <time>2017-05-16T10:18:35Z</time>
      </trkpt>
      <trkpt lat="45.95117" lon="4.88356">
        <ele>290</ele>
        <time>2017-05-16T10:18:36Z</time>
      </trkpt>
      <trkpt lat="45.95118" lon="4.88347">
        <ele>290</ele>
        <time>2017-05-16T10:18:37Z</time>
      </trkpt>
      <trkpt lat="45.95119" lon="4.88339">
        <ele>290</ele>
        <time>2017-05-16T10:18:38Z</time>
      </trkpt>
      <trkpt lat="45.9512" lon="4.8833">
        <ele>289</ele>
        <time>2017-05-16T10:18:39Z</time>
      </trkpt>
      <trkpt lat="45.95121" lon="4.88322">
        <ele>289</ele>
        <time>2017-05-16T10:18:40Z</time>
      </trkpt>
      <trkpt lat="45.95123" lon="4.88314">
        <ele>289</ele>
        <time>2017-05-16T10:18:41Z</time>
      </trkpt>
      <trkpt lat="45.95125" lon="4.88305">
        <ele>289</ele>
        <time>2017-05-16T10:18:42Z</time>
      </trkpt>
      <trkpt lat="45.95127" lon="4.88297">
        <ele>289</ele>
        <time>2017-05-16T10:18:43Z</time>
      </trkpt>
      <trkpt lat="45.95128" lon="4.88289">
        <ele>289</ele>
        <time>2017-05-16T10:18:44Z</time>
      </trkpt>
      <trkpt lat="45.95129" lon="4.88282">
        <ele>289</ele>
        <time>2017-05-16T10:18:45Z</time>
      </trkpt>
      <trkpt lat="45.95129" lon="4.88274">
        <ele>289</ele>
        <time>2017-05-16T10:18:46Z</time>
      </trkpt>
      <trkpt lat="45.95129" lon="4.88266">
        <ele>289</ele>
        <time>2017-05-16T10:18:47Z</time>
      </trkpt>
      <trkpt lat="45.95129" lon="4.88258">
        <ele>289</ele>
        <time>2017-05-16T10:18:48Z</time>
      </trkpt>
      <trkpt lat="45.95128" lon="4.88251">
        <ele>289</ele>
        <time>2017-05-16T10:18:49Z</time>
      </trkpt>
      <trkpt lat="45.95127" lon="4.88244">
        <ele>287</ele>
        <time>2017-05-16T10:18:50Z</time>
      </trkpt>
      <trkpt lat="45.95128" lon="4.88238">
        <ele>287</ele>
        <time>2017-05-16T10:18:51Z</time>
      </trkpt>
      <trkpt lat="45.95128" lon="4.88231">
        <ele>287</ele>
        <time>2017-05-16T10:18:52Z</time>
      </trkpt>
      <trkpt lat="45.95129" lon="4.88224">
        <ele>287</ele>
        <time>2017-05-16T10:18:53Z</time>
      </trkpt>
      <trkpt lat="45.9513" lon="4.88217">
        <ele>287</ele>
        <time>2017-05-16T10:18:54Z</time>
      </trkpt>
      <trkpt lat="45.95132" lon="4.88209">
        <ele>287</ele>
        <time>2017-05-16T10:18:55Z</time>
      </trkpt>
      <trkpt lat="45.95135" lon="4.88202">
        <ele>287</ele>
        <time>2017-05-16T10:18:56Z</time>
      </trkpt>
      <trkpt lat="45.95138" lon="4.88196">
        <ele>287</ele>
        <time>2017-05-16T10:18:57Z</time>
      </trkpt>
      <trkpt lat="45.95142" lon="4.88192">
        <ele>286</ele>
        <time>2017-05-16T10:18:58Z</time>
      </trkpt>
      <trkpt lat="45.95146" lon="4.88188">
        <ele>286</ele>
        <time>2017-05-16T10:18:59Z</time>
      </trkpt>
      <trkpt lat="45.9515" lon="4.88186">
        <ele>286</ele>
        <time>2017-05-16T10:19:00Z</time>
      </trkpt>
      <trkpt lat="45.95155" lon="4.88184">
        <ele>286</ele>
        <time>2017-05-16T10:19:01Z</time>
      </trkpt>
      <trkpt lat="45.9516" lon="4.88183">
        <ele>286</ele>
        <time>2017-05-16T10:19:02Z</time>
      </trkpt>
      <trkpt lat="45.95165" lon="4.88179">
        <ele>286</ele>
        <time>2017-05-16T10:19:03Z</time>
      </trkpt>
      <trkpt lat="45.95169" lon="4.88172">
        <ele>285</ele>
        <time>2017-05-16T10:19:04Z</time>
      </trkpt>
      <trkpt lat="45.95171" lon="4.88163">
        <ele>284</ele>
        <time>2017-05-16T10:19:05Z</time>
      </trkpt>
      <trkpt lat="45.95174" lon="4.88155">
        <ele>284</ele>
        <time>2017-05-16T10:19:06Z</time>
      </trkpt>
      <trkpt lat="45.95176" lon="4.88146">
        <ele>283</ele>
        <time>2017-05-16T10:19:07Z</time>
      </trkpt>
      <trkpt lat="45.95177" lon="4.88138">
        <ele>283</ele>
        <time>2017-05-16T10:19:08Z</time>
      </trkpt>
      <trkpt lat="45.95179" lon="4.88129">
        <ele>282</ele>
        <time>2017-05-16T10:19:09Z</time>
      </trkpt>
      <trkpt lat="45.95181" lon="4.8812">
        <ele>282</ele>
        <time>2017-05-16T10:19:10Z</time>
      </trkpt>
      <trkpt lat="45.95183" lon="4.88111">
        <ele>282</ele>
        <time>2017-05-16T10:19:11Z</time>
      </trkpt>
      <trkpt lat="45.95185" lon="4.88103">
        <ele>282</ele>
        <time>2017-05-16T10:19:12Z</time>
      </trkpt>
      <trkpt lat="45.95187" lon="4.88095">
        <ele>282</ele>
        <time>2017-05-16T10:19:13Z</time>
      </trkpt>
      <trkpt lat="45.95188" lon="4.88087">
        <ele>282</ele>
        <time>2017-05-16T10:19:14Z</time>
      </trkpt>
      <trkpt lat="45.9519" lon="4.88078">
        <ele>281</ele>
        <time>2017-05-16T10:19:15Z</time>
      </trkpt>
      <trkpt lat="45.95192" lon="4.88069">
        <ele>281</ele>
        <time>2017-05-16T10:19:16Z</time>
      </trkpt>
      <trkpt lat="45.95194" lon="4.88062">
        <ele>281</ele>
        <time>2017-05-16T10:19:17Z</time>
      </trkpt>
      <trkpt lat="45.95196" lon="4.88053">
        <ele>281</ele>
        <time>2017-05-16T10:19:18Z</time>
      </trkpt>
      <trkpt lat="45.95199" lon="4.88046">
        <ele>281</ele>
        <time>2017-05-16T10:19:19Z</time>
      </trkpt>
      <trkpt lat="45.95202" lon="4.88039">
        <ele>281</ele>
        <time>2017-05-16T10:19:20Z</time>
      </trkpt>
      <trkpt lat="45.95206" lon="4.88034">
        <ele>281</ele>
        <time>2017-05-16T10:19:21Z</time>
      </trkpt>
      <trkpt lat="45.9521" lon="4.88028">
        <ele>281</ele>
        <time>2017-05-16T10:19:22Z</time>
      </trkpt>
      <trkpt lat="45.95214" lon="4.88023">
        <ele>281</ele>
        <time>2017-05-16T10:19:23Z</time>
      </trkpt>
      <trkpt lat="45.95218" lon="4.88018">
        <ele>281</ele>
        <time>2017-05-16T10:19:24Z</time>
      </trkpt>
      <trkpt lat="45.95222" lon="4.88013">
        <ele>281</ele>
        <time>2017-05-16T10:19:25Z</time>
      </trkpt>
      <trkpt lat="45.95225" lon="4.88008">
        <ele>281</ele>
        <time>2017-05-16T10:19:26Z</time>
      </trkpt>
      <trkpt lat="45.95229" lon="4.88002">
        <ele>280</ele>
        <time>2017-05-16T10:19:27Z</time>
      </trkpt>
      <trkpt lat="45.95232" lon="4.87997">
        <ele>281</ele>
        <time>2017-05-16T10:19:28Z</time>
      </trkpt>
      <trkpt lat="45.95237" lon="4.87992">
        <ele>281</ele>
        <time>2017-05-16T10:19:29Z</time>
      </trkpt>
      <trkpt lat="45.95241" lon="4.87986">
        <ele>281</ele>
        <time>2017-05-16T10:19:30Z</time>
      </trkpt>
      <trkpt lat="45.95245" lon="4.87981">
        <ele>281</ele>
        <time>2017-05-16T10:19:31Z</time>
      </trkpt>
      <trkpt lat="45.95249" lon="4.87974">
        <ele>282</ele>
        <time>2017-05-16T10:19:32Z</time>
      </trkpt>
      <trkpt lat="45.95253" lon="4.87967">
        <ele>280</ele>
        <time>2017-05-16T10:19:33Z</time>
      </trkpt>
      <trkpt lat="45.95257" lon="4.8796">
        <ele>280</ele>
        <time>2017-05-16T10:19:34Z</time>
      </trkpt>
      <trkpt lat="45.9526" lon="4.87953">
        <ele>280</ele>
        <time>2017-05-16T10:19:35Z</time>
      </trkpt>
      <trkpt lat="45.95262" lon="4.87946">
        <ele>280</ele>
        <time>2017-05-16T10:19:36Z</time>
      </trkpt>
      <trkpt lat="45.95263" lon="4.87938">
        <ele>280</ele>
        <time>2017-05-16T10:19:37Z</time>
      </trkpt>
      <trkpt lat="45.95264" lon="4.8793">
        <ele>281</ele>
        <time>2017-05-16T10:19:38Z</time>
      </trkpt>
      <trkpt lat="45.95265" lon="4.87922">
        <ele>281</ele>
        <time>2017-05-16T10:19:39Z</time>
      </trkpt>
      <trkpt lat="45.95265" lon="4.87914">
        <ele>281</ele>
        <time>2017-05-16T10:19:40Z</time>
      </trkpt>
      <trkpt lat="45.95264" lon="4.87906">
        <ele>281</ele>
        <time>2017-05-16T10:19:41Z</time>
      </trkpt>
      <trkpt lat="45.95262" lon="4.87898">
        <ele>281</ele>
        <time>2017-05-16T10:19:42Z</time>
      </trkpt>
      <trkpt lat="45.9526" lon="4.87891">
        <ele>281</ele>
        <time>2017-05-16T10:19:43Z</time>
      </trkpt>
      <trkpt lat="45.95258" lon="4.87883">
        <ele>281</ele>
        <time>2017-05-16T10:19:44Z</time>
      </trkpt>
      <trkpt lat="45.95256" lon="4.87876">
        <ele>281</ele>
        <time>2017-05-16T10:19:45Z</time>
      </trkpt>
      <trkpt lat="45.95254" lon="4.87869">
        <ele>281</ele>
        <time>2017-05-16T10:19:46Z</time>
      </trkpt>
      <trkpt lat="45.95254" lon="4.87862">
        <ele>281</ele>
        <time>2017-05-16T10:19:47Z</time>
      </trkpt>
      <trkpt lat="45.95252" lon="4.87855">
        <ele>281</ele>
        <time>2017-05-16T10:19:48Z</time>
      </trkpt>
      <trkpt lat="45.9525" lon="4.87848">
        <ele>281</ele>
        <time>2017-05-16T10:19:49Z</time>
      </trkpt>
      <trkpt lat="45.95248" lon="4.87842">
        <ele>283</ele>
        <time>2017-05-16T10:19:50Z</time>
      </trkpt>
      <trkpt lat="45.95246" lon="4.87836">
        <ele>282</ele>
        <time>2017-05-16T10:19:51Z</time>
      </trkpt>
      <trkpt lat="45.95245" lon="4.87829">
        <ele>282</ele>
        <time>2017-05-16T10:19:52Z</time>
      </trkpt>
      <trkpt lat="45.95244" lon="4.87822">
        <ele>282</ele>
        <time>2017-05-16T10:19:53Z</time>
      </trkpt>
      <trkpt lat="45.95244" lon="4.87815">
        <ele>282</ele>
        <time>2017-05-16T10:19:54Z</time>
      </trkpt>
      <trkpt lat="45.95244" lon="4.87804">
        <ele>282</ele>
        <time>2017-05-16T10:19:56Z</time>
      </trkpt>
      <trkpt lat="45.95244" lon="4.87802">
        <ele>282</ele>
        <time>2017-05-16T10:19:57Z</time>
      </trkpt>
      <trkpt lat="45.95244" lon="4.87802">
        <ele>282</ele>
        <time>2017-05-16T10:19:58Z</time>
      </trkpt>
      <trkpt lat="45.95243" lon="4.87802">
        <ele>282</ele>
        <time>2017-05-16T10:20:11Z</time>
      </trkpt>
      <trkpt lat="45.95242" lon="4.87801">
        <ele>282</ele>
        <time>2017-05-16T10:20:12Z</time>
      </trkpt>
      <trkpt lat="45.95241" lon="4.87791">
        <ele>282</ele>
        <time>2017-05-16T10:20:16Z</time>
      </trkpt>
      <trkpt lat="45.9524" lon="4.87788">
        <ele>282</ele>
        <time>2017-05-16T10:20:17Z</time>
      </trkpt>
      <trkpt lat="45.95238" lon="4.87778">
        <ele>282</ele>
        <time>2017-05-16T10:20:20Z</time>
      </trkpt>
      <trkpt lat="45.95237" lon="4.87774">
        <ele>282</ele>
        <time>2017-05-16T10:20:21Z</time>
      </trkpt>
      <trkpt lat="45.95236" lon="4.87764">
        <ele>281</ele>
        <time>2017-05-16T10:20:23Z</time>
      </trkpt>
      <trkpt lat="45.95234" lon="4.87758">
        <ele>281</ele>
        <time>2017-05-16T10:20:24Z</time>
      </trkpt>
      <trkpt lat="45.95233" lon="4.87752">
        <ele>281</ele>
        <time>2017-05-16T10:20:25Z</time>
      </trkpt>
      <trkpt lat="45.95232" lon="4.87745">
        <ele>280</ele>
        <time>2017-05-16T10:20:26Z</time>
      </trkpt>
      <trkpt lat="45.95231" lon="4.87738">
        <ele>280</ele>
        <time>2017-05-16T10:20:27Z</time>
      </trkpt>
      <trkpt lat="45.95229" lon="4.8773">
        <ele>280</ele>
        <time>2017-05-16T10:20:28Z</time>
      </trkpt>
      <trkpt lat="45.95228" lon="4.87723">
        <ele>280</ele>
        <time>2017-05-16T10:20:29Z</time>
      </trkpt>
      <trkpt lat="45.95227" lon="4.87716">
        <ele>279</ele>
        <time>2017-05-16T10:20:30Z</time>
      </trkpt>
      <trkpt lat="45.95227" lon="4.87709">
        <ele>279</ele>
        <time>2017-05-16T10:20:31Z</time>
      </trkpt>
      <trkpt lat="45.95226" lon="4.87701">
        <ele>279</ele>
        <time>2017-05-16T10:20:32Z</time>
      </trkpt>
      <trkpt lat="45.95226" lon="4.87692">
        <ele>279</ele>
        <time>2017-05-16T10:20:33Z</time>
      </trkpt>
      <trkpt lat="45.95225" lon="4.87683">
        <ele>278</ele>
        <time>2017-05-16T10:20:34Z</time>
      </trkpt>
      <trkpt lat="45.95224" lon="4.87674">
        <ele>278</ele>
        <time>2017-05-16T10:20:35Z</time>
      </trkpt>
      <trkpt lat="45.95222" lon="4.87664">
        <ele>276</ele>
        <time>2017-05-16T10:20:36Z</time>
      </trkpt>
      <trkpt lat="45.95221" lon="4.87653">
        <ele>276</ele>
        <time>2017-05-16T10:20:37Z</time>
      </trkpt>
      <trkpt lat="45.9522" lon="4.87643">
        <ele>276</ele>
        <time>2017-05-16T10:20:38Z</time>
      </trkpt>
      <trkpt lat="45.95218" lon="4.87632">
        <ele>276</ele>
        <time>2017-05-16T10:20:39Z</time>
      </trkpt>
      <trkpt lat="45.95217" lon="4.87621">
        <ele>276</ele>
        <time>2017-05-16T10:20:40Z</time>
      </trkpt>
      <trkpt lat="45.95216" lon="4.8761">
        <ele>276</ele>
        <time>2017-05-16T10:20:41Z</time>
      </trkpt>
      <trkpt lat="45.95215" lon="4.87598">
        <ele>276</ele>
        <time>2017-05-16T10:20:42Z</time>
      </trkpt>
      <trkpt lat="45.95214" lon="4.87586">
        <ele>276</ele>
        <time>2017-05-16T10:20:43Z</time>
      </trkpt>
      <trkpt lat="45.95213" lon="4.87574">
        <ele>274</ele>
        <time>2017-05-16T10:20:44Z</time>
      </trkpt>
      <trkpt lat="45.95212" lon="4.87562">
        <ele>274</ele>
        <time>2017-05-16T10:20:45Z</time>
      </trkpt>
      <trkpt lat="45.95211" lon="4.8755">
        <ele>274</ele>
        <time>2017-05-16T10:20:46Z</time>
      </trkpt>
      <trkpt lat="45.95209" lon="4.87538">
        <ele>274</ele>
        <time>2017-05-16T10:20:47Z</time>
      </trkpt>
      <trkpt lat="45.95207" lon="4.87526">
        <ele>274</ele>
        <time>2017-05-16T10:20:48Z</time>
      </trkpt>
      <trkpt lat="45.95204" lon="4.87514">
        <ele>273</ele>
        <time>2017-05-16T10:20:49Z</time>
      </trkpt>
      <trkpt lat="45.95201" lon="4.87503">
        <ele>273</ele>
        <time>2017-05-16T10:20:50Z</time>
      </trkpt>
      <trkpt lat="45.95198" lon="4.87492">
        <ele>272</ele>
        <time>2017-05-16T10:20:51Z</time>
      </trkpt>
      <trkpt lat="45.95196" lon="4.87481">
        <ele>272</ele>
        <time>2017-05-16T10:20:52Z</time>
      </trkpt>
      <trkpt lat="45.95194" lon="4.8747">
        <ele>272</ele>
        <time>2017-05-16T10:20:53Z</time>
      </trkpt>
      <trkpt lat="45.95191" lon="4.8746">
        <ele>272</ele>
        <time>2017-05-16T10:20:54Z</time>
      </trkpt>
      <trkpt lat="45.95188" lon="4.87449">
        <ele>272</ele>
        <time>2017-05-16T10:20:55Z</time>
      </trkpt>
      <trkpt lat="45.95185" lon="4.8744">
        <ele>272</ele>
        <time>2017-05-16T10:20:56Z</time>
      </trkpt>
      <trkpt lat="45.95181" lon="4.8743">
        <ele>271</ele>
        <time>2017-05-16T10:20:57Z</time>
      </trkpt>
      <trkpt lat="45.95179" lon="4.87421">
        <ele>271</ele>
        <time>2017-05-16T10:20:58Z</time>
      </trkpt>
      <trkpt lat="45.95177" lon="4.87412">
        <ele>271</ele>
        <time>2017-05-16T10:20:59Z</time>
      </trkpt>
      <trkpt lat="45.95175" lon="4.87404">
        <ele>271</ele>
        <time>2017-05-16T10:21:00Z</time>
      </trkpt>
      <trkpt lat="45.95174" lon="4.87397">
        <ele>271</ele>
        <time>2017-05-16T10:21:01Z</time>
      </trkpt>
      <trkpt lat="45.95172" lon="4.87389">
        <ele>271</ele>
        <time>2017-05-16T10:21:02Z</time>
      </trkpt>
      <trkpt lat="45.95171" lon="4.87382">
        <ele>271</ele>
        <time>2017-05-16T10:21:03Z</time>
      </trkpt>
      <trkpt lat="45.95169" lon="4.87374">
        <ele>271</ele>
        <time>2017-05-16T10:21:04Z</time>
      </trkpt>
      <trkpt lat="45.95168" lon="4.87367">
        <ele>271</ele>
        <time>2017-05-16T10:21:05Z</time>
      </trkpt>
      <trkpt lat="45.95166" lon="4.8736">
        <ele>272</ele>
        <time>2017-05-16T10:21:06Z</time>
      </trkpt>
      <trkpt lat="45.95165" lon="4.87353">
        <ele>272</ele>
        <time>2017-05-16T10:21:07Z</time>
      </trkpt>
      <trkpt lat="45.95163" lon="4.87346">
        <ele>272</ele>
        <time>2017-05-16T10:21:08Z</time>
      </trkpt>
      <trkpt lat="45.95161" lon="4.8734">
        <ele>272</ele>
        <time>2017-05-16T10:21:09Z</time>
      </trkpt>
      <trkpt lat="45.95159" lon="4.87333">
        <ele>272</ele>
        <time>2017-05-16T10:21:10Z</time>
      </trkpt>
      <trkpt lat="45.95158" lon="4.87325">
        <ele>272</ele>
        <time>2017-05-16T10:21:11Z</time>
      </trkpt>
      <trkpt lat="45.95157" lon="4.87318">
        <ele>273</ele>
        <time>2017-05-16T10:21:12Z</time>
      </trkpt>
      <trkpt lat="45.95155" lon="4.87311">
        <ele>273</ele>
        <time>2017-05-16T10:21:13Z</time>
      </trkpt>
      <trkpt lat="45.95154" lon="4.87304">
        <ele>274</ele>
        <time>2017-05-16T10:21:14Z</time>
      </trkpt>
      <trkpt lat="45.95152" lon="4.87296">
        <ele>274</ele>
        <time>2017-05-16T10:21:15Z</time>
      </trkpt>
      <trkpt lat="45.9515" lon="4.87289">
        <ele>274</ele>
        <time>2017-05-16T10:21:16Z</time>
      </trkpt>
      <trkpt lat="45.95149" lon="4.87281">
        <ele>274</ele>
        <time>2017-05-16T10:21:17Z</time>
      </trkpt>
      <trkpt lat="45.95147" lon="4.87274">
        <ele>274</ele>
        <time>2017-05-16T10:21:18Z</time>
      </trkpt>
      <trkpt lat="45.95146" lon="4.87266">
        <ele>274</ele>
        <time>2017-05-16T10:21:19Z</time>
      </trkpt>
      <trkpt lat="45.95145" lon="4.87259">
        <ele>274</ele>
        <time>2017-05-16T10:21:20Z</time>
      </trkpt>
      <trkpt lat="45.95143" lon="4.87252">
        <ele>274</ele>
        <time>2017-05-16T10:21:21Z</time>
      </trkpt>
      <trkpt lat="45.95141" lon="4.87244">
        <ele>275</ele>
        <time>2017-05-16T10:21:22Z</time>
      </trkpt>
      <trkpt lat="45.95139" lon="4.87236">
        <ele>276</ele>
        <time>2017-05-16T10:21:23Z</time>
      </trkpt>
      <trkpt lat="45.95136" lon="4.87228">
        <ele>276</ele>
        <time>2017-05-16T10:21:24Z</time>
      </trkpt>
      <trkpt lat="45.95134" lon="4.87221">
        <ele>276</ele>
        <time>2017-05-16T10:21:25Z</time>
      </trkpt>
      <trkpt lat="45.95132" lon="4.87213">
        <ele>276</ele>
        <time>2017-05-16T10:21:26Z</time>
      </trkpt>
      <trkpt lat="45.9513" lon="4.87205">
        <ele>276</ele>
        <time>2017-05-16T10:21:27Z</time>
      </trkpt>
      <trkpt lat="45.95129" lon="4.87198">
        <ele>276</ele>
        <time>2017-05-16T10:21:28Z</time>
      </trkpt>
      <trkpt lat="45.95127" lon="4.8719">
        <ele>276</ele>
        <time>2017-05-16T10:21:29Z</time>
      </trkpt>
      <trkpt lat="45.95126" lon="4.87182">
        <ele>276</ele>
        <time>2017-05-16T10:21:30Z</time>
      </trkpt>
      <trkpt lat="45.95124" lon="4.87174">
        <ele>276</ele>
        <time>2017-05-16T10:21:31Z</time>
      </trkpt>
      <trkpt lat="45.95122" lon="4.87166">
        <ele>276</ele>
        <time>2017-05-16T10:21:32Z</time>
      </trkpt>
      <trkpt lat="45.95121" lon="4.87158">
        <ele>277</ele>
        <time>2017-05-16T10:21:33Z</time>
      </trkpt>
      <trkpt lat="45.95119" lon="4.87151">
        <ele>277</ele>
        <time>2017-05-16T10:21:34Z</time>
      </trkpt>
      <trkpt lat="45.95117" lon="4.87143">
        <ele>277</ele>
        <time>2017-05-16T10:21:35Z</time>
      </trkpt>
      <trkpt lat="45.95116" lon="4.87136">
        <ele>277</ele>
        <time>2017-05-16T10:21:36Z</time>
      </trkpt>
      <trkpt lat="45.95114" lon="4.87128">
        <ele>277</ele>
        <time>2017-05-16T10:21:37Z</time>
      </trkpt>
      <trkpt lat="45.95112" lon="4.87121">
        <ele>277</ele>
        <time>2017-05-16T10:21:38Z</time>
      </trkpt>
      <trkpt lat="45.95109" lon="4.87113">
        <ele>277</ele>
        <time>2017-05-16T10:21:39Z</time>
      </trkpt>
      <trkpt lat="45.95107" lon="4.87106">
        <ele>277</ele>
        <time>2017-05-16T10:21:40Z</time>
      </trkpt>
      <trkpt lat="45.95105" lon="4.87098">
        <ele>277</ele>
        <time>2017-05-16T10:21:41Z</time>
      </trkpt>
      <trkpt lat="45.95102" lon="4.8709">
        <ele>277</ele>
        <time>2017-05-16T10:21:42Z</time>
      </trkpt>
      <trkpt lat="45.951" lon="4.87083">
        <ele>277</ele>
        <time>2017-05-16T10:21:43Z</time>
      </trkpt>
      <trkpt lat="45.95097" lon="4.87077">
        <ele>277</ele>
        <time>2017-05-16T10:21:44Z</time>
      </trkpt>
      <trkpt lat="45.95095" lon="4.87071">
        <ele>277</ele>
        <time>2017-05-16T10:21:45Z</time>
      </trkpt>
      <trkpt lat="45.95092" lon="4.87065">
        <ele>277</ele>
        <time>2017-05-16T10:21:46Z</time>
      </trkpt>
      <trkpt lat="45.95089" lon="4.87059">
        <ele>277</ele>
        <time>2017-05-16T10:21:47Z</time>
      </trkpt>
      <trkpt lat="45.95087" lon="4.87053">
        <ele>277</ele>
        <time>2017-05-16T10:21:48Z</time>
      </trkpt>
      <trkpt lat="45.95084" lon="4.87047">
        <ele>277</ele>
        <time>2017-05-16T10:21:49Z</time>
      </trkpt>
      <trkpt lat="45.95082" lon="4.87041">
        <ele>277</ele>
        <time>2017-05-16T10:21:50Z</time>
      </trkpt>
      <trkpt lat="45.95079" lon="4.87035">
        <ele>277</ele>
        <time>2017-05-16T10:21:51Z</time>
      </trkpt>
      <trkpt lat="45.95076" lon="4.87029">
        <ele>277</ele>
        <time>2017-05-16T10:21:52Z</time>
      </trkpt>
      <trkpt lat="45.95072" lon="4.87023">
        <ele>277</ele>
        <time>2017-05-16T10:21:53Z</time>
      </trkpt>
      <trkpt lat="45.95068" lon="4.87017">
        <ele>277</ele>
        <time>2017-05-16T10:21:54Z</time>
      </trkpt>
      <trkpt lat="45.95064" lon="4.87011">
        <ele>277</ele>
        <time>2017-05-16T10:21:55Z</time>
      </trkpt>
      <trkpt lat="45.95061" lon="4.87005">
        <ele>277</ele>
        <time>2017-05-16T10:21:56Z</time>
      </trkpt>
      <trkpt lat="45.95058" lon="4.86999">
        <ele>276</ele>
        <time>2017-05-16T10:21:57Z</time>
      </trkpt>
      <trkpt lat="45.95055" lon="4.86991">
        <ele>276</ele>
        <time>2017-05-16T10:21:58Z</time>
      </trkpt>
      <trkpt lat="45.95052" lon="4.86984">
        <ele>276</ele>
        <time>2017-05-16T10:21:59Z</time>
      </trkpt>
      <trkpt lat="45.95049" lon="4.86976">
        <ele>276</ele>
        <time>2017-05-16T10:22:00Z</time>
      </trkpt>
      <trkpt lat="45.95047" lon="4.86969">
        <ele>276</ele>
        <time>2017-05-16T10:22:01Z</time>
      </trkpt>
      <trkpt lat="45.95044" lon="4.86961">
        <ele>276</ele>
        <time>2017-05-16T10:22:02Z</time>
      </trkpt>
      <trkpt lat="45.95042" lon="4.86953">
        <ele>276</ele>
        <time>2017-05-16T10:22:03Z</time>
      </trkpt>
      <trkpt lat="45.9504" lon="4.86945">
        <ele>276</ele>
        <time>2017-05-16T10:22:04Z</time>
      </trkpt>
      <trkpt lat="45.95037" lon="4.86937">
        <ele>276</ele>
        <time>2017-05-16T10:22:05Z</time>
      </trkpt>
      <trkpt lat="45.95035" lon="4.86928">
        <ele>276</ele>
        <time>2017-05-16T10:22:06Z</time>
      </trkpt>
      <trkpt lat="45.95033" lon="4.86919">
        <ele>276</ele>
        <time>2017-05-16T10:22:07Z</time>
      </trkpt>
      <trkpt lat="45.9503" lon="4.8691">
        <ele>275</ele>
        <time>2017-05-16T10:22:08Z</time>
      </trkpt>
      <trkpt lat="45.95027" lon="4.86901">
        <ele>275</ele>
        <time>2017-05-16T10:22:09Z</time>
      </trkpt>
      <trkpt lat="45.95025" lon="4.86892">
        <ele>275</ele>
        <time>2017-05-16T10:22:10Z</time>
      </trkpt>
      <trkpt lat="45.95022" lon="4.86884">
        <ele>275</ele>
        <time>2017-05-16T10:22:11Z</time>
      </trkpt>
      <trkpt lat="45.95019" lon="4.86875">
        <ele>275</ele>
        <time>2017-05-16T10:22:12Z</time>
      </trkpt>
      <trkpt lat="45.95016" lon="4.86868">
        <ele>275</ele>
        <time>2017-05-16T10:22:13Z</time>
      </trkpt>
      <trkpt lat="45.95013" lon="4.8686">
        <ele>275</ele>
        <time>2017-05-16T10:22:14Z</time>
      </trkpt>
      <trkpt lat="45.95011" lon="4.86852">
        <ele>275</ele>
        <time>2017-05-16T10:22:15Z</time>
      </trkpt>
      <trkpt lat="45.95008" lon="4.86845">
        <ele>276</ele>
        <time>2017-05-16T10:22:16Z</time>
      </trkpt>
      <trkpt lat="45.95006" lon="4.86838">
        <ele>276</ele>
        <time>2017-05-16T10:22:17Z</time>
      </trkpt>
      <trkpt lat="45.95003" lon="4.86832">
        <ele>276</ele>
        <time>2017-05-16T10:22:18Z</time>
      </trkpt>
      <trkpt lat="45.95" lon="4.86826">
        <ele>275</ele>
        <time>2017-05-16T10:22:19Z</time>
      </trkpt>
      <trkpt lat="45.94998" lon="4.8682">
        <ele>276</ele>
        <time>2017-05-16T10:22:20Z</time>
      </trkpt>
      <trkpt lat="45.94995" lon="4.86814">
        <ele>276</ele>
        <time>2017-05-16T10:22:21Z</time>
      </trkpt>
      <trkpt lat="45.94991" lon="4.86808">
        <ele>276</ele>
        <time>2017-05-16T10:22:22Z</time>
      </trkpt>
      <trkpt lat="45.94988" lon="4.86802">
        <ele>276</ele>
        <time>2017-05-16T10:22:23Z</time>
      </trkpt>
      <trkpt lat="45.94985" lon="4.86796">
        <ele>276</ele>
        <time>2017-05-16T10:22:24Z</time>
      </trkpt>
      <trkpt lat="45.94981" lon="4.86791">
        <ele>276</ele>
        <time>2017-05-16T10:22:25Z</time>
      </trkpt>
      <trkpt lat="45.94977" lon="4.86784">
        <ele>275</ele>
        <time>2017-05-16T10:22:26Z</time>
      </trkpt>
      <trkpt lat="45.94974" lon="4.86777">
        <ele>275</ele>
        <time>2017-05-16T10:22:27Z</time>
      </trkpt>
      <trkpt lat="45.9497" lon="4.8677">
        <ele>275</ele>
        <time>2017-05-16T10:22:28Z</time>
      </trkpt>
      <trkpt lat="45.94966" lon="4.86763">
        <ele>275</ele>
        <time>2017-05-16T10:22:29Z</time>
      </trkpt>
      <trkpt lat="45.94962" lon="4.86756">
        <ele>275</ele>
        <time>2017-05-16T10:22:30Z</time>
      </trkpt>
      <trkpt lat="45.94958" lon="4.86749">
        <ele>275</ele>
        <time>2017-05-16T10:22:31Z</time>
      </trkpt>
      <trkpt lat="45.94955" lon="4.86741">
        <ele>275</ele>
        <time>2017-05-16T10:22:32Z</time>
      </trkpt>
      <trkpt lat="45.94952" lon="4.86733">
        <ele>275</ele>
        <time>2017-05-16T10:22:33Z</time>
      </trkpt>
      <trkpt lat="45.94949" lon="4.86726">
        <ele>275</ele>
        <time>2017-05-16T10:22:34Z</time>
      </trkpt>
      <trkpt lat="45.94947" lon="4.86718">
        <ele>275</ele>
        <time>2017-05-16T10:22:35Z</time>
      </trkpt>
      <trkpt lat="45.94945" lon="4.86711">
        <ele>275</ele>
        <time>2017-05-16T10:22:36Z</time>
      </trkpt>
      <trkpt lat="45.94943" lon="4.86703">
        <ele>276</ele>
        <time>2017-05-16T10:22:37Z</time>
      </trkpt>
      <trkpt lat="45.94943" lon="4.86695">
        <ele>276</ele>
        <time>2017-05-16T10:22:38Z</time>
      </trkpt>
      <trkpt lat="45.94942" lon="4.86688">
        <ele>276</ele>
        <time>2017-05-16T10:22:39Z</time>
      </trkpt>
      <trkpt lat="45.94941" lon="4.86681">
        <ele>276</ele>
        <time>2017-05-16T10:22:40Z</time>
      </trkpt>
      <trkpt lat="45.94941" lon="4.86675">
        <ele>276</ele>
        <time>2017-05-16T10:22:41Z</time>
      </trkpt>
      <trkpt lat="45.94941" lon="4.86668">
        <ele>276</ele>
        <time>2017-05-16T10:22:42Z</time>
      </trkpt>
      <trkpt lat="45.94942" lon="4.86662">
        <ele>276</ele>
        <time>2017-05-16T10:22:43Z</time>
      </trkpt>
      <trkpt lat="45.94944" lon="4.86656">
        <ele>276</ele>
        <time>2017-05-16T10:22:44Z</time>
      </trkpt>
      <trkpt lat="45.94947" lon="4.86649">
        <ele>276</ele>
        <time>2017-05-16T10:22:45Z</time>
      </trkpt>
      <trkpt lat="45.9495" lon="4.86643">
        <ele>276</ele>
        <time>2017-05-16T10:22:46Z</time>
      </trkpt>
      <trkpt lat="45.94953" lon="4.86638">
        <ele>276</ele>
        <time>2017-05-16T10:22:47Z</time>
      </trkpt>
      <trkpt lat="45.94958" lon="4.86633">
        <ele>276</ele>
        <time>2017-05-16T10:22:48Z</time>
      </trkpt>
      <trkpt lat="45.94963" lon="4.86629">
        <ele>275</ele>
        <time>2017-05-16T10:22:49Z</time>
      </trkpt>
      <trkpt lat="45.94967" lon="4.86626">
        <ele>275</ele>
        <time>2017-05-16T10:22:50Z</time>
      </trkpt>
      <trkpt lat="45.94973" lon="4.86624">
        <ele>275</ele>
        <time>2017-05-16T10:22:51Z</time>
      </trkpt>
      <trkpt lat="45.94978" lon="4.86622">
        <ele>275</ele>
        <time>2017-05-16T10:22:52Z</time>
      </trkpt>
      <trkpt lat="45.94983" lon="4.86621">
        <ele>275</ele>
        <time>2017-05-16T10:22:53Z</time>
      </trkpt>
      <trkpt lat="45.94989" lon="4.8662">
        <ele>275</ele>
        <time>2017-05-16T10:22:54Z</time>
      </trkpt>
      <trkpt lat="45.94994" lon="4.8662">
        <ele>275</ele>
        <time>2017-05-16T10:22:55Z</time>
      </trkpt>
      <trkpt lat="45.95" lon="4.86619">
        <ele>273</ele>
        <time>2017-05-16T10:22:56Z</time>
      </trkpt>
      <trkpt lat="45.95006" lon="4.86618">
        <ele>273</ele>
        <time>2017-05-16T10:22:57Z</time>
      </trkpt>
      <trkpt lat="45.95012" lon="4.86617">
        <ele>273</ele>
        <time>2017-05-16T10:22:58Z</time>
      </trkpt>
      <trkpt lat="45.95017" lon="4.86615">
        <ele>273</ele>
        <time>2017-05-16T10:22:59Z</time>
      </trkpt>
      <trkpt lat="45.95023" lon="4.86614">
        <ele>273</ele>
        <time>2017-05-16T10:23:00Z</time>
      </trkpt>
      <trkpt lat="45.95029" lon="4.86612">
        <ele>273</ele>
        <time>2017-05-16T10:23:01Z</time>
      </trkpt>
      <trkpt lat="45.95035" lon="4.8661">
        <ele>273</ele>
        <time>2017-05-16T10:23:02Z</time>
      </trkpt>
      <trkpt lat="45.95041" lon="4.86608">
        <ele>273</ele>
        <time>2017-05-16T10:23:03Z</time>
      </trkpt>
      <trkpt lat="45.95047" lon="4.86606">
        <ele>272</ele>
        <time>2017-05-16T10:23:04Z</time>
      </trkpt>
      <trkpt lat="45.95053" lon="4.86604">
        <ele>272</ele>
        <time>2017-05-16T10:23:05Z</time>
      </trkpt>
      <trkpt lat="45.95059" lon="4.86602">
        <ele>272</ele>
        <time>2017-05-16T10:23:06Z</time>
      </trkpt>
      <trkpt lat="45.95066" lon="4.86601">
        <ele>272</ele>
        <time>2017-05-16T10:23:07Z</time>
      </trkpt>
      <trkpt lat="45.95073" lon="4.86599">
        <ele>272</ele>
        <time>2017-05-16T10:23:08Z</time>
      </trkpt>
      <trkpt lat="45.95079" lon="4.86597">
        <ele>272</ele>
        <time>2017-05-16T10:23:09Z</time>
      </trkpt>
      <trkpt lat="45.95086" lon="4.86596">
        <ele>271</ele>
        <time>2017-05-16T10:23:10Z</time>
      </trkpt>
      <trkpt lat="45.95092" lon="4.86594">
        <ele>271</ele>
        <time>2017-05-16T10:23:11Z</time>
      </trkpt>
      <trkpt lat="45.95099" lon="4.86593">
        <ele>271</ele>
        <time>2017-05-16T10:23:12Z</time>
      </trkpt>
      <trkpt lat="45.95106" lon="4.86591">
        <ele>271</ele>
        <time>2017-05-16T10:23:13Z</time>
      </trkpt>
      <trkpt lat="45.95113" lon="4.8659">
        <ele>271</ele>
        <time>2017-05-16T10:23:14Z</time>
      </trkpt>
      <trkpt lat="45.9512" lon="4.86588">
        <ele>270</ele>
        <time>2017-05-16T10:23:15Z</time>
      </trkpt>
      <trkpt lat="45.95127" lon="4.86587">
        <ele>270</ele>
        <time>2017-05-16T10:23:16Z</time>
      </trkpt>
      <trkpt lat="45.95134" lon="4.86586">
        <ele>270</ele>
        <time>2017-05-16T10:23:17Z</time>
      </trkpt>
      <trkpt lat="45.95141" lon="4.86586">
        <ele>270</ele>
        <time>2017-05-16T10:23:18Z</time>
      </trkpt>
      <trkpt lat="45.95148" lon="4.86586">
        <ele>270</ele>
        <time>2017-05-16T10:23:19Z</time>
      </trkpt>
      <trkpt lat="45.95155" lon="4.86585">
        <ele>270</ele>
        <time>2017-05-16T10:23:20Z</time>
      </trkpt>
      <trkpt lat="45.95162" lon="4.86584">
        <ele>269</ele>
        <time>2017-05-16T10:23:21Z</time>
      </trkpt>
      <trkpt lat="45.9517" lon="4.86583">
        <ele>269</ele>
        <time>2017-05-16T10:23:22Z</time>
      </trkpt>
      <trkpt lat="45.95177" lon="4.86583">
        <ele>269</ele>
        <time>2017-05-16T10:23:23Z</time>
      </trkpt>
      <trkpt lat="45.95184" lon="4.86582">
        <ele>269</ele>
        <time>2017-05-16T10:23:24Z</time>
      </trkpt>
      <trkpt lat="45.95192" lon="4.86582">
        <ele>269</ele>
        <time>2017-05-16T10:23:25Z</time>
      </trkpt>
      <trkpt lat="45.95199" lon="4.86582">
        <ele>268</ele>
        <time>2017-05-16T10:23:26Z</time>
      </trkpt>
      <trkpt lat="45.95207" lon="4.86583">
        <ele>268</ele>
        <time>2017-05-16T10:23:27Z</time>
      </trkpt>
      <trkpt lat="45.95215" lon="4.86583">
        <ele>268</ele>
        <time>2017-05-16T10:23:28Z</time>
      </trkpt>
      <trkpt lat="45.95222" lon="4.86584">
        <ele>269</ele>
        <time>2017-05-16T10:23:29Z</time>
      </trkpt>
      <trkpt lat="45.9523" lon="4.86586">
        <ele>269</ele>
        <time>2017-05-16T10:23:30Z</time>
      </trkpt>
      <trkpt lat="45.95237" lon="4.86587">
        <ele>269</ele>
        <time>2017-05-16T10:23:31Z</time>
      </trkpt>
      <trkpt lat="45.95243" lon="4.86588">
        <ele>268</ele>
        <time>2017-05-16T10:23:32Z</time>
      </trkpt>
      <trkpt lat="45.95249" lon="4.86588">
        <ele>268</ele>
        <time>2017-05-16T10:23:33Z</time>
      </trkpt>
      <trkpt lat="45.95254" lon="4.86588">
        <ele>268</ele>
        <time>2017-05-16T10:23:34Z</time>
      </trkpt>
      <trkpt lat="45.9526" lon="4.86586">
        <ele>268</ele>
        <time>2017-05-16T10:23:36Z</time>
      </trkpt>
      <trkpt lat="45.95262" lon="4.86584">
        <ele>268</ele>
        <time>2017-05-16T10:23:37Z</time>
      </trkpt>
      <trkpt lat="45.95266" lon="4.86578">
        <ele>267</ele>
        <time>2017-05-16T10:23:39Z</time>
      </trkpt>
      <trkpt lat="45.95267" lon="4.86572">
        <ele>267</ele>
        <time>2017-05-16T10:23:40Z</time>
      </trkpt>
      <trkpt lat="45.95263" lon="4.86561">
        <ele>267</ele>
        <time>2017-05-16T10:23:42Z</time>
      </trkpt>
      <trkpt lat="45.95259" lon="4.86556">
        <ele>267</ele>
        <time>2017-05-16T10:23:43Z</time>
      </trkpt>
      <trkpt lat="45.95256" lon="4.86551">
        <ele>267</ele>
        <time>2017-05-16T10:23:44Z</time>
      </trkpt>
      <trkpt lat="45.95253" lon="4.86546">
        <ele>267</ele>
        <time>2017-05-16T10:23:45Z</time>
      </trkpt>
      <trkpt lat="45.95249" lon="4.86541">
        <ele>268</ele>
        <time>2017-05-16T10:23:46Z</time>
      </trkpt>
      <trkpt lat="45.95245" lon="4.86536">
        <ele>268</ele>
        <time>2017-05-16T10:23:47Z</time>
      </trkpt>
      <trkpt lat="45.9524" lon="4.86532">
        <ele>268</ele>
        <time>2017-05-16T10:23:48Z</time>
      </trkpt>
      <trkpt lat="45.95235" lon="4.86527">
        <ele>268</ele>
        <time>2017-05-16T10:23:49Z</time>
      </trkpt>
      <trkpt lat="45.95231" lon="4.86523">
        <ele>268</ele>
        <time>2017-05-16T10:23:50Z</time>
      </trkpt>
      <trkpt lat="45.95226" lon="4.86518">
        <ele>268</ele>
        <time>2017-05-16T10:23:51Z</time>
      </trkpt>
      <trkpt lat="45.95222" lon="4.86513">
        <ele>268</ele>
        <time>2017-05-16T10:23:52Z</time>
      </trkpt>
      <trkpt lat="45.95218" lon="4.86507">
        <ele>268</ele>
        <time>2017-05-16T10:23:53Z</time>
      </trkpt>
      <trkpt lat="45.95214" lon="4.86502">
        <ele>268</ele>
        <time>2017-05-16T10:23:54Z</time>
      </trkpt>
      <trkpt lat="45.9521" lon="4.86498">
        <ele>268</ele>
        <time>2017-05-16T10:23:55Z</time>
      </trkpt>
      <trkpt lat="45.95206" lon="4.86493">
        <ele>268</ele>
        <time>2017-05-16T10:23:56Z</time>
      </trkpt>
      <trkpt lat="45.95201" lon="4.86489">
        <ele>268</ele>
        <time>2017-05-16T10:23:57Z</time>
      </trkpt>
      <trkpt lat="45.95196" lon="4.86483">
        <ele>268</ele>
        <time>2017-05-16T10:23:58Z</time>
      </trkpt>
      <trkpt lat="45.95191" lon="4.86478">
        <ele>268</ele>
        <time>2017-05-16T10:23:59Z</time>
      </trkpt>
      <trkpt lat="45.95187" lon="4.86473">
        <ele>268</ele>
        <time>2017-05-16T10:24:00Z</time>
      </trkpt>
      <trkpt lat="45.95183" lon="4.86468">
        <ele>268</ele>
        <time>2017-05-16T10:24:01Z</time>
      </trkpt>
      <trkpt lat="45.95179" lon="4.86463">
        <ele>268</ele>
        <time>2017-05-16T10:24:02Z</time>
      </trkpt>
      <trkpt lat="45.95174" lon="4.86458">
        <ele>268</ele>
        <time>2017-05-16T10:24:03Z</time>
      </trkpt>
      <trkpt lat="45.9517" lon="4.86454">
        <ele>268</ele>
        <time>2017-05-16T10:24:04Z</time>
      </trkpt>
      <trkpt lat="45.95167" lon="4.86449">
        <ele>269</ele>
        <time>2017-05-16T10:24:05Z</time>
      </trkpt>
      <trkpt lat="45.95163" lon="4.86444">
        <ele>268</ele>
        <time>2017-05-16T10:24:06Z</time>
      </trkpt>
      <trkpt lat="45.95158" lon="4.86439">
        <ele>268</ele>
        <time>2017-05-16T10:24:07Z</time>
      </trkpt>
      <trkpt lat="45.95154" lon="4.86435">
        <ele>268</ele>
        <time>2017-05-16T10:24:08Z</time>
      </trkpt>
      <trkpt lat="45.9515" lon="4.8643">
        <ele>268</ele>
        <time>2017-05-16T10:24:09Z</time>
      </trkpt>
      <trkpt lat="45.95146" lon="4.86425">
        <ele>268</ele>
        <time>2017-05-16T10:24:10Z</time>
      </trkpt>
      <trkpt lat="45.95142" lon="4.8642">
        <ele>268</ele>
        <time>2017-05-16T10:24:11Z</time>
      </trkpt>
      <trkpt lat="45.95138" lon="4.86415">
        <ele>268</ele>
        <time>2017-05-16T10:24:12Z</time>
      </trkpt>
      <trkpt lat="45.95134" lon="4.8641">
        <ele>268</ele>
        <time>2017-05-16T10:24:13Z</time>
      </trkpt>
      <trkpt lat="45.9513" lon="4.86404">
        <ele>268</ele>
        <time>2017-05-16T10:24:14Z</time>
      </trkpt>
      <trkpt lat="45.95127" lon="4.86399">
        <ele>268</ele>
        <time>2017-05-16T10:24:15Z</time>
      </trkpt>
      <trkpt lat="45.95123" lon="4.86395">
        <ele>269</ele>
        <time>2017-05-16T10:24:16Z</time>
      </trkpt>
      <trkpt lat="45.95119" lon="4.8639">
        <ele>269</ele>
        <time>2017-05-16T10:24:17Z</time>
      </trkpt>
      <trkpt lat="45.95115" lon="4.86385">
        <ele>269</ele>
        <time>2017-05-16T10:24:18Z</time>
      </trkpt>
      <trkpt lat="45.95111" lon="4.86381">
        <ele>269</ele>
        <time>2017-05-16T10:24:19Z</time>
      </trkpt>
      <trkpt lat="45.95107" lon="4.86376">
        <ele>269</ele>
        <time>2017-05-16T10:24:20Z</time>
      </trkpt>
      <trkpt lat="45.95103" lon="4.86372">
        <ele>269</ele>
        <time>2017-05-16T10:24:21Z</time>
      </trkpt>
      <trkpt lat="45.95099" lon="4.86367">
        <ele>269</ele>
        <time>2017-05-16T10:24:22Z</time>
      </trkpt>
      <trkpt lat="45.95095" lon="4.86362">
        <ele>269</ele>
        <time>2017-05-16T10:24:23Z</time>
      </trkpt>
      <trkpt lat="45.95091" lon="4.86358">
        <ele>269</ele>
        <time>2017-05-16T10:24:24Z</time>
      </trkpt>
      <trkpt lat="45.95087" lon="4.86353">
        <ele>269</ele>
        <time>2017-05-16T10:24:25Z</time>
      </trkpt>
      <trkpt lat="45.95083" lon="4.86349">
        <ele>270</ele>
        <time>2017-05-16T10:24:26Z</time>
      </trkpt>
      <trkpt lat="45.9508" lon="4.86344">
        <ele>270</ele>
        <time>2017-05-16T10:24:27Z</time>
      </trkpt>
      <trkpt lat="45.95076" lon="4.86339">
        <ele>270</ele>
        <time>2017-05-16T10:24:28Z</time>
      </trkpt>
      <trkpt lat="45.95072" lon="4.86334">
        <ele>270</ele>
        <time>2017-05-16T10:24:29Z</time>
      </trkpt>
      <trkpt lat="45.95068" lon="4.86329">
        <ele>270</ele>
        <time>2017-05-16T10:24:30Z</time>
      </trkpt>
      <trkpt lat="45.95065" lon="4.86324">
        <ele>270</ele>
        <time>2017-05-16T10:24:31Z</time>
      </trkpt>
      <trkpt lat="45.95061" lon="4.86319">
        <ele>270</ele>
        <time>2017-05-16T10:24:32Z</time>
      </trkpt>
      <trkpt lat="45.95057" lon="4.86314">
        <ele>271</ele>
        <time>2017-05-16T10:24:33Z</time>
      </trkpt>
      <trkpt lat="45.95053" lon="4.86308">
        <ele>271</ele>
        <time>2017-05-16T10:24:34Z</time>
      </trkpt>
      <trkpt lat="45.95049" lon="4.86303">
        <ele>271</ele>
        <time>2017-05-16T10:24:35Z</time>
      </trkpt>
      <trkpt lat="45.95044" lon="4.86298">
        <ele>271</ele>
        <time>2017-05-16T10:24:36Z</time>
      </trkpt>
      <trkpt lat="45.9504" lon="4.86293">
        <ele>271</ele>
        <time>2017-05-16T10:24:37Z</time>
      </trkpt>
      <trkpt lat="45.95036" lon="4.86288">
        <ele>271</ele>
        <time>2017-05-16T10:24:38Z</time>
      </trkpt>
      <trkpt lat="45.95033" lon="4.86283">
        <ele>271</ele>
        <time>2017-05-16T10:24:39Z</time>
      </trkpt>
      <trkpt lat="45.95029" lon="4.86278">
        <ele>271</ele>
        <time>2017-05-16T10:24:40Z</time>
      </trkpt>
      <trkpt lat="45.95025" lon="4.86274">
        <ele>271</ele>
        <time>2017-05-16T10:24:41Z</time>
      </trkpt>
      <trkpt lat="45.95019" lon="4.86267">
        <ele>271</ele>
        <time>2017-05-16T10:24:43Z</time>
      </trkpt>
      <trkpt lat="45.95016" lon="4.86263">
        <ele>271</ele>
        <time>2017-05-16T10:24:44Z</time>
      </trkpt>
      <trkpt lat="45.9501" lon="4.86254">
        <ele>272</ele>
        <time>2017-05-16T10:24:46Z</time>
      </trkpt>
      <trkpt lat="45.95007" lon="4.8625">
        <ele>272</ele>
        <time>2017-05-16T10:24:47Z</time>
      </trkpt>
      <trkpt lat="45.95003" lon="4.86245">
        <ele>272</ele>
        <time>2017-05-16T10:24:48Z</time>
      </trkpt>
      <trkpt lat="45.95" lon="4.86241">
        <ele>272</ele>
        <time>2017-05-16T10:24:49Z</time>
      </trkpt>
      <trkpt lat="45.94996" lon="4.86236">
        <ele>272</ele>
        <time>2017-05-16T10:24:50Z</time>
      </trkpt>
      <trkpt lat="45.94992" lon="4.86232">
        <ele>272</ele>
        <time>2017-05-16T10:24:51Z</time>
      </trkpt>
      <trkpt lat="45.94989" lon="4.86228">
        <ele>272</ele>
        <time>2017-05-16T10:24:52Z</time>
      </trkpt>
      <trkpt lat="45.94984" lon="4.86224">
        <ele>272</ele>
        <time>2017-05-16T10:24:53Z</time>
      </trkpt>
      <trkpt lat="45.94981" lon="4.86219">
        <ele>272</ele>
        <time>2017-05-16T10:24:54Z</time>
      </trkpt>
      <trkpt lat="45.94977" lon="4.86215">
        <ele>272</ele>
        <time>2017-05-16T10:24:55Z</time>
      </trkpt>
      <trkpt lat="45.94973" lon="4.86211">
        <ele>272</ele>
        <time>2017-05-16T10:24:56Z</time>
      </trkpt>
      <trkpt lat="45.9497" lon="4.86207">
        <ele>272</ele>
        <time>2017-05-16T10:24:57Z</time>
      </trkpt>
      <trkpt lat="45.94966" lon="4.86202">
        <ele>272</ele>
        <time>2017-05-16T10:24:58Z</time>
      </trkpt>
      <trkpt lat="45.94962" lon="4.86198">
        <ele>272</ele>
        <time>2017-05-16T10:24:59Z</time>
      </trkpt>
      <trkpt lat="45.94958" lon="4.86193">
        <ele>273</ele>
        <time>2017-05-16T10:25:00Z</time>
      </trkpt>
      <trkpt lat="45.94955" lon="4.86189">
        <ele>273</ele>
        <time>2017-05-16T10:25:01Z</time>
      </trkpt>
      <trkpt lat="45.94951" lon="4.86184">
        <ele>273</ele>
        <time>2017-05-16T10:25:02Z</time>
      </trkpt>
      <trkpt lat="45.94948" lon="4.86179">
        <ele>273</ele>
        <time>2017-05-16T10:25:03Z</time>
      </trkpt>
      <trkpt lat="45.94944" lon="4.86175">
        <ele>273</ele>
        <time>2017-05-16T10:25:04Z</time>
      </trkpt>
      <trkpt lat="45.94941" lon="4.8617">
        <ele>273</ele>
        <time>2017-05-16T10:25:05Z</time>
      </trkpt>
      <trkpt lat="45.94937" lon="4.86165">
        <ele>273</ele>
        <time>2017-05-16T10:25:06Z</time>
      </trkpt>
      <trkpt lat="45.94934" lon="4.86161">
        <ele>273</ele>
        <time>2017-05-16T10:25:07Z</time>
      </trkpt>
      <trkpt lat="45.94928" lon="4.86153">
        <ele>273</ele>
        <time>2017-05-16T10:25:09Z</time>
      </trkpt>
      <trkpt lat="45.94925" lon="4.86149">
        <ele>273</ele>
        <time>2017-05-16T10:25:10Z</time>
      </trkpt>
      <trkpt lat="45.94922" lon="4.86145">
        <ele>273</ele>
        <time>2017-05-16T10:25:11Z</time>
      </trkpt>
      <trkpt lat="45.94918" lon="4.8614">
        <ele>273</ele>
        <time>2017-05-16T10:25:12Z</time>
      </trkpt>
      <trkpt lat="45.94915" lon="4.86134">
        <ele>274</ele>
        <time>2017-05-16T10:25:13Z</time>
      </trkpt>
      <trkpt lat="45.94912" lon="4.86128">
        <ele>274</ele>
        <time>2017-05-16T10:25:14Z</time>
      </trkpt>
      <trkpt lat="45.94909" lon="4.86122">
        <ele>274</ele>
        <time>2017-05-16T10:25:15Z</time>
      </trkpt>
      <trkpt lat="45.94906" lon="4.86116">
        <ele>274</ele>
        <time>2017-05-16T10:25:16Z</time>
      </trkpt>
      <trkpt lat="45.94903" lon="4.8611">
        <ele>274</ele>
        <time>2017-05-16T10:25:17Z</time>
      </trkpt>
      <trkpt lat="45.949" lon="4.86104">
        <ele>274</ele>
        <time>2017-05-16T10:25:18Z</time>
      </trkpt>
      <trkpt lat="45.94898" lon="4.86097">
        <ele>274</ele>
        <time>2017-05-16T10:25:19Z</time>
      </trkpt>
      <trkpt lat="45.94895" lon="4.86091">
        <ele>274</ele>
        <time>2017-05-16T10:25:20Z</time>
      </trkpt>
      <trkpt lat="45.94893" lon="4.86084">
        <ele>274</ele>
        <time>2017-05-16T10:25:21Z</time>
      </trkpt>
      <trkpt lat="45.94892" lon="4.86078">
        <ele>274</ele>
        <time>2017-05-16T10:25:22Z</time>
      </trkpt>
      <trkpt lat="45.9489" lon="4.86071">
        <ele>274</ele>
        <time>2017-05-16T10:25:23Z</time>
      </trkpt>
      <trkpt lat="45.94888" lon="4.86065">
        <ele>274</ele>
        <time>2017-05-16T10:25:24Z</time>
      </trkpt>
      <trkpt lat="45.94886" lon="4.86058">
        <ele>274</ele>
        <time>2017-05-16T10:25:25Z</time>
      </trkpt>
      <trkpt lat="45.94884" lon="4.86051">
        <ele>274</ele>
        <time>2017-05-16T10:25:26Z</time>
      </trkpt>
      <trkpt lat="45.94882" lon="4.86045">
        <ele>274</ele>
        <time>2017-05-16T10:25:27Z</time>
      </trkpt>
      <trkpt lat="45.9488" lon="4.86038">
        <ele>274</ele>
        <time>2017-05-16T10:25:28Z</time>
      </trkpt>
      <trkpt lat="45.94878" lon="4.86031">
        <ele>274</ele>
        <time>2017-05-16T10:25:29Z</time>
      </trkpt>
      <trkpt lat="45.94877" lon="4.86025">
        <ele>274</ele>
        <time>2017-05-16T10:25:30Z</time>
      </trkpt>
      <trkpt lat="45.94875" lon="4.86018">
        <ele>274</ele>
        <time>2017-05-16T10:25:31Z</time>
      </trkpt>
      <trkpt lat="45.94873" lon="4.86011">
        <ele>274</ele>
        <time>2017-05-16T10:25:32Z</time>
      </trkpt>
      <trkpt lat="45.94872" lon="4.86004">
        <ele>274</ele>
        <time>2017-05-16T10:25:33Z</time>
      </trkpt>
      <trkpt lat="45.94871" lon="4.85997">
        <ele>275</ele>
        <time>2017-05-16T10:25:34Z</time>
      </trkpt>
      <trkpt lat="45.94869" lon="4.8599">
        <ele>275</ele>
        <time>2017-05-16T10:25:35Z</time>
      </trkpt>
      <trkpt lat="45.94868" lon="4.85984">
        <ele>275</ele>
        <time>2017-05-16T10:25:36Z</time>
      </trkpt>
      <trkpt lat="45.94866" lon="4.85977">
        <ele>275</ele>
        <time>2017-05-16T10:25:37Z</time>
      </trkpt>
      <trkpt lat="45.94864" lon="4.85971">
        <ele>275</ele>
        <time>2017-05-16T10:25:38Z</time>
      </trkpt>
      <trkpt lat="45.94863" lon="4.85965">
        <ele>275</ele>
        <time>2017-05-16T10:25:39Z</time>
      </trkpt>
      <trkpt lat="45.94861" lon="4.85959">
        <ele>275</ele>
        <time>2017-05-16T10:25:40Z</time>
      </trkpt>
      <trkpt lat="45.94859" lon="4.85953">
        <ele>275</ele>
        <time>2017-05-16T10:25:41Z</time>
      </trkpt>
      <trkpt lat="45.94858" lon="4.85946">
        <ele>275</ele>
        <time>2017-05-16T10:25:42Z</time>
      </trkpt>
      <trkpt lat="45.94856" lon="4.8594">
        <ele>275</ele>
        <time>2017-05-16T10:25:43Z</time>
      </trkpt>
      <trkpt lat="45.94854" lon="4.85934">
        <ele>275</ele>
        <time>2017-05-16T10:25:44Z</time>
      </trkpt>
      <trkpt lat="45.94852" lon="4.85922">
        <ele>275</ele>
        <time>2017-05-16T10:25:46Z</time>
      </trkpt>
      <trkpt lat="45.9485" lon="4.85916">
        <ele>275</ele>
        <time>2017-05-16T10:25:47Z</time>
      </trkpt>
      <trkpt lat="45.94847" lon="4.85906">
        <ele>275</ele>
        <time>2017-05-16T10:25:49Z</time>
      </trkpt>
      <trkpt lat="45.94846" lon="4.859">
        <ele>276</ele>
        <time>2017-05-16T10:25:50Z</time>
      </trkpt>
      <trkpt lat="45.94844" lon="4.85894">
        <ele>276</ele>
        <time>2017-05-16T10:25:51Z</time>
      </trkpt>
      <trkpt lat="45.94842" lon="4.85888">
        <ele>276</ele>
        <time>2017-05-16T10:25:52Z</time>
      </trkpt>
      <trkpt lat="45.94841" lon="4.85881">
        <ele>276</ele>
        <time>2017-05-16T10:25:53Z</time>
      </trkpt>
      <trkpt lat="45.94839" lon="4.85874">
        <ele>276</ele>
        <time>2017-05-16T10:25:54Z</time>
      </trkpt>
      <trkpt lat="45.94837" lon="4.85867">
        <ele>276</ele>
        <time>2017-05-16T10:25:55Z</time>
      </trkpt>
      <trkpt lat="45.94835" lon="4.8586">
        <ele>276</ele>
        <time>2017-05-16T10:25:56Z</time>
      </trkpt>
      <trkpt lat="45.94833" lon="4.85853">
        <ele>277</ele>
        <time>2017-05-16T10:25:57Z</time>
      </trkpt>
      <trkpt lat="45.94832" lon="4.85846">
        <ele>277</ele>
        <time>2017-05-16T10:25:58Z</time>
      </trkpt>
      <trkpt lat="45.9483" lon="4.8584">
        <ele>277</ele>
        <time>2017-05-16T10:25:59Z</time>
      </trkpt>
      <trkpt lat="45.94828" lon="4.85833">
        <ele>277</ele>
        <time>2017-05-16T10:26:00Z</time>
      </trkpt>
      <trkpt lat="45.94826" lon="4.85827">
        <ele>277</ele>
        <time>2017-05-16T10:26:01Z</time>
      </trkpt>
      <trkpt lat="45.94825" lon="4.85821">
        <ele>278</ele>
        <time>2017-05-16T10:26:02Z</time>
      </trkpt>
      <trkpt lat="45.94823" lon="4.85809">
        <ele>278</ele>
        <time>2017-05-16T10:26:04Z</time>
      </trkpt>
      <trkpt lat="45.94822" lon="4.85803">
        <ele>278</ele>
        <time>2017-05-16T10:26:05Z</time>
      </trkpt>
      <trkpt lat="45.9482" lon="4.85796">
        <ele>278</ele>
        <time>2017-05-16T10:26:06Z</time>
      </trkpt>
      <trkpt lat="45.94819" lon="4.8579">
        <ele>278</ele>
        <time>2017-05-16T10:26:07Z</time>
      </trkpt>
      <trkpt lat="45.94817" lon="4.85783">
        <ele>278</ele>
        <time>2017-05-16T10:26:08Z</time>
      </trkpt>
      <trkpt lat="45.94815" lon="4.85777">
        <ele>278</ele>
        <time>2017-05-16T10:26:09Z</time>
      </trkpt>
      <trkpt lat="45.94813" lon="4.8577">
        <ele>278</ele>
        <time>2017-05-16T10:26:10Z</time>
      </trkpt>
      <trkpt lat="45.94811" lon="4.85763">
        <ele>278</ele>
        <time>2017-05-16T10:26:11Z</time>
      </trkpt>
      <trkpt lat="45.94809" lon="4.85756">
        <ele>278</ele>
        <time>2017-05-16T10:26:12Z</time>
      </trkpt>
      <trkpt lat="45.94807" lon="4.85748">
        <ele>279</ele>
        <time>2017-05-16T10:26:13Z</time>
      </trkpt>
      <trkpt lat="45.94805" lon="4.85742">
        <ele>279</ele>
        <time>2017-05-16T10:26:14Z</time>
      </trkpt>
      <trkpt lat="45.94804" lon="4.85735">
        <ele>280</ele>
        <time>2017-05-16T10:26:15Z</time>
      </trkpt>
      <trkpt lat="45.94802" lon="4.85728">
        <ele>280</ele>
        <time>2017-05-16T10:26:16Z</time>
      </trkpt>
      <trkpt lat="45.948" lon="4.85722">
        <ele>280</ele>
        <time>2017-05-16T10:26:17Z</time>
      </trkpt>
      <trkpt lat="45.94798" lon="4.85716">
        <ele>280</ele>
        <time>2017-05-16T10:26:18Z</time>
      </trkpt>
      <trkpt lat="45.94797" lon="4.8571">
        <ele>280</ele>
        <time>2017-05-16T10:26:19Z</time>
      </trkpt>
      <trkpt lat="45.94794" lon="4.85698">
        <ele>280</ele>
        <time>2017-05-16T10:26:21Z</time>
      </trkpt>
      <trkpt lat="45.94792" lon="4.85692">
        <ele>280</ele>
        <time>2017-05-16T10:26:22Z</time>
      </trkpt>
      <trkpt lat="45.94789" lon="4.8568">
        <ele>280</ele>
        <time>2017-05-16T10:26:24Z</time>
      </trkpt>
      <trkpt lat="45.94788" lon="4.85674">
        <ele>280</ele>
        <time>2017-05-16T10:26:25Z</time>
      </trkpt>
      <trkpt lat="45.94785" lon="4.85662">
        <ele>281</ele>
        <time>2017-05-16T10:26:27Z</time>
      </trkpt>
      <trkpt lat="45.94784" lon="4.85657">
        <ele>281</ele>
        <time>2017-05-16T10:26:28Z</time>
      </trkpt>
      <trkpt lat="45.94782" lon="4.85651">
        <ele>281</ele>
        <time>2017-05-16T10:26:29Z</time>
      </trkpt>
      <trkpt lat="45.9478" lon="4.85645">
        <ele>281</ele>
        <time>2017-05-16T10:26:30Z</time>
      </trkpt>
      <trkpt lat="45.94779" lon="4.85638">
        <ele>281</ele>
        <time>2017-05-16T10:26:31Z</time>
      </trkpt>
      <trkpt lat="45.94777" lon="4.85632">
        <ele>280</ele>
        <time>2017-05-16T10:26:32Z</time>
      </trkpt>
      <trkpt lat="45.94775" lon="4.85626">
        <ele>280</ele>
        <time>2017-05-16T10:26:33Z</time>
      </trkpt>
      <trkpt lat="45.94773" lon="4.85619">
        <ele>280</ele>
        <time>2017-05-16T10:26:34Z</time>
      </trkpt>
      <trkpt lat="45.94771" lon="4.85612">
        <ele>280</ele>
        <time>2017-05-16T10:26:35Z</time>
      </trkpt>
      <trkpt lat="45.9477" lon="4.85605">
        <ele>280</ele>
        <time>2017-05-16T10:26:36Z</time>
      </trkpt>
      <trkpt lat="45.94768" lon="4.85597">
        <ele>280</ele>
        <time>2017-05-16T10:26:37Z</time>
      </trkpt>
      <trkpt lat="45.94767" lon="4.8559">
        <ele>280</ele>
        <time>2017-05-16T10:26:38Z</time>
      </trkpt>
      <trkpt lat="45.94765" lon="4.85582">
        <ele>279</ele>
        <time>2017-05-16T10:26:39Z</time>
      </trkpt>
      <trkpt lat="45.94763" lon="4.85574">
        <ele>279</ele>
        <time>2017-05-16T10:26:40Z</time>
      </trkpt>
      <trkpt lat="45.94761" lon="4.85566">
        <ele>279</ele>
        <time>2017-05-16T10:26:41Z</time>
      </trkpt>
      <trkpt lat="45.9476" lon="4.85557">
        <ele>278</ele>
        <time>2017-05-16T10:26:42Z</time>
      </trkpt>
      <trkpt lat="45.94759" lon="4.85547">
        <ele>278</ele>
        <time>2017-05-16T10:26:43Z</time>
      </trkpt>
      <trkpt lat="45.94757" lon="4.85537">
        <ele>278</ele>
        <time>2017-05-16T10:26:44Z</time>
      </trkpt>
      <trkpt lat="45.94755" lon="4.85527">
        <ele>278</ele>
        <time>2017-05-16T10:26:45Z</time>
      </trkpt>
      <trkpt lat="45.94754" lon="4.85516">
        <ele>277</ele>
        <time>2017-05-16T10:26:46Z</time>
      </trkpt>
      <trkpt lat="45.94753" lon="4.85505">
        <ele>276</ele>
        <time>2017-05-16T10:26:47Z</time>
      </trkpt>
      <trkpt lat="45.94752" lon="4.85495">
        <ele>276</ele>
        <time>2017-05-16T10:26:48Z</time>
      </trkpt>
      <trkpt lat="45.9475" lon="4.85484">
        <ele>275</ele>
        <time>2017-05-16T10:26:49Z</time>
      </trkpt>
      <trkpt lat="45.94749" lon="4.85472">
        <ele>274</ele>
        <time>2017-05-16T10:26:50Z</time>
      </trkpt>
      <trkpt lat="45.94747" lon="4.85461">
        <ele>274</ele>
        <time>2017-05-16T10:26:51Z</time>
      </trkpt>
      <trkpt lat="45.94746" lon="4.85449">
        <ele>274</ele>
        <time>2017-05-16T10:26:52Z</time>
      </trkpt>
      <trkpt lat="45.94745" lon="4.85438">
        <ele>274</ele>
        <time>2017-05-16T10:26:53Z</time>
      </trkpt>
      <trkpt lat="45.94744" lon="4.85426">
        <ele>273</ele>
        <time>2017-05-16T10:26:54Z</time>
      </trkpt>
      <trkpt lat="45.94743" lon="4.85415">
        <ele>273</ele>
        <time>2017-05-16T10:26:55Z</time>
      </trkpt>
      <trkpt lat="45.94742" lon="4.85404">
        <ele>272</ele>
        <time>2017-05-16T10:26:56Z</time>
      </trkpt>
      <trkpt lat="45.94741" lon="4.85392">
        <ele>272</ele>
        <time>2017-05-16T10:26:57Z</time>
      </trkpt>
      <trkpt lat="45.94739" lon="4.85381">
        <ele>271</ele>
        <time>2017-05-16T10:26:58Z</time>
      </trkpt>
      <trkpt lat="45.94738" lon="4.8537">
        <ele>271</ele>
        <time>2017-05-16T10:26:59Z</time>
      </trkpt>
      <trkpt lat="45.94737" lon="4.85359">
        <ele>271</ele>
        <time>2017-05-16T10:27:00Z</time>
      </trkpt>
      <trkpt lat="45.94736" lon="4.85349">
        <ele>271</ele>
        <time>2017-05-16T10:27:01Z</time>
      </trkpt>
      <trkpt lat="45.94735" lon="4.85338">
        <ele>271</ele>
        <time>2017-05-16T10:27:02Z</time>
      </trkpt>
      <trkpt lat="45.94734" lon="4.85328">
        <ele>270</ele>
        <time>2017-05-16T10:27:03Z</time>
      </trkpt>
      <trkpt lat="45.94733" lon="4.85318">
        <ele>270</ele>
        <time>2017-05-16T10:27:04Z</time>
      </trkpt>
      <trkpt lat="45.94731" lon="4.85308">
        <ele>270</ele>
        <time>2017-05-16T10:27:05Z</time>
      </trkpt>
      <trkpt lat="45.9473" lon="4.85298">
        <ele>270</ele>
        <time>2017-05-16T10:27:06Z</time>
      </trkpt>
      <trkpt lat="45.94729" lon="4.85288">
        <ele>269</ele>
        <time>2017-05-16T10:27:07Z</time>
      </trkpt>
      <trkpt lat="45.94728" lon="4.85279">
        <ele>269</ele>
        <time>2017-05-16T10:27:08Z</time>
      </trkpt>
      <trkpt lat="45.94726" lon="4.85269">
        <ele>269</ele>
        <time>2017-05-16T10:27:09Z</time>
      </trkpt>
      <trkpt lat="45.94725" lon="4.8526">
        <ele>269</ele>
        <time>2017-05-16T10:27:10Z</time>
      </trkpt>
      <trkpt lat="45.94725" lon="4.85251">
        <ele>269</ele>
        <time>2017-05-16T10:27:11Z</time>
      </trkpt>
      <trkpt lat="45.94724" lon="4.85242">
        <ele>269</ele>
        <time>2017-05-16T10:27:12Z</time>
      </trkpt>
      <trkpt lat="45.94723" lon="4.85233">
        <ele>269</ele>
        <time>2017-05-16T10:27:13Z</time>
      </trkpt>
      <trkpt lat="45.94722" lon="4.85224">
        <ele>269</ele>
        <time>2017-05-16T10:27:14Z</time>
      </trkpt>
      <trkpt lat="45.94721" lon="4.85216">
        <ele>269</ele>
        <time>2017-05-16T10:27:15Z</time>
      </trkpt>
      <trkpt lat="45.9472" lon="4.85207">
        <ele>269</ele>
        <time>2017-05-16T10:27:16Z</time>
      </trkpt>
      <trkpt lat="45.94719" lon="4.85199">
        <ele>269</ele>
        <time>2017-05-16T10:27:17Z</time>
      </trkpt>
      <trkpt lat="45.94718" lon="4.85189">
        <ele>269</ele>
        <time>2017-05-16T10:27:18Z</time>
      </trkpt>
      <trkpt lat="45.94717" lon="4.85181">
        <ele>269</ele>
        <time>2017-05-16T10:27:19Z</time>
      </trkpt>
      <trkpt lat="45.94716" lon="4.85172">
        <ele>269</ele>
        <time>2017-05-16T10:27:20Z</time>
      </trkpt>
      <trkpt lat="45.94715" lon="4.85163">
        <ele>269</ele>
        <time>2017-05-16T10:27:21Z</time>
      </trkpt>
      <trkpt lat="45.94714" lon="4.85155">
        <ele>269</ele>
        <time>2017-05-16T10:27:22Z</time>
      </trkpt>
      <trkpt lat="45.94713" lon="4.85146">
        <ele>269</ele>
        <time>2017-05-16T10:27:23Z</time>
      </trkpt>
      <trkpt lat="45.94712" lon="4.85138">
        <ele>269</ele>
        <time>2017-05-16T10:27:24Z</time>
      </trkpt>
      <trkpt lat="45.94711" lon="4.8513">
        <ele>269</ele>
        <time>2017-05-16T10:27:25Z</time>
      </trkpt>
      <trkpt lat="45.94711" lon="4.85121">
        <ele>269</ele>
        <time>2017-05-16T10:27:26Z</time>
      </trkpt>
      <trkpt lat="45.9471" lon="4.85113">
        <ele>269</ele>
        <time>2017-05-16T10:27:27Z</time>
      </trkpt>
      <trkpt lat="45.94709" lon="4.85105">
        <ele>269</ele>
        <time>2017-05-16T10:27:28Z</time>
      </trkpt>
      <trkpt lat="45.94708" lon="4.85097">
        <ele>269</ele>
        <time>2017-05-16T10:27:29Z</time>
      </trkpt>
      <trkpt lat="45.94708" lon="4.85089">
        <ele>269</ele>
        <time>2017-05-16T10:27:30Z</time>
      </trkpt>
      <trkpt lat="45.94707" lon="4.85081">
        <ele>269</ele>
        <time>2017-05-16T10:27:31Z</time>
      </trkpt>
      <trkpt lat="45.94706" lon="4.85073">
        <ele>269</ele>
        <time>2017-05-16T10:27:32Z</time>
      </trkpt>
      <trkpt lat="45.94705" lon="4.85066">
        <ele>269</ele>
        <time>2017-05-16T10:27:33Z</time>
      </trkpt>
      <trkpt lat="45.94704" lon="4.85058">
        <ele>269</ele>
        <time>2017-05-16T10:27:34Z</time>
      </trkpt>
      <trkpt lat="45.94703" lon="4.85051">
        <ele>269</ele>
        <time>2017-05-16T10:27:35Z</time>
      </trkpt>
      <trkpt lat="45.94702" lon="4.85044">
        <ele>269</ele>
        <time>2017-05-16T10:27:36Z</time>
      </trkpt>
      <trkpt lat="45.94701" lon="4.85037">
        <ele>269</ele>
        <time>2017-05-16T10:27:37Z</time>
      </trkpt>
      <trkpt lat="45.947" lon="4.85031">
        <ele>269</ele>
        <time>2017-05-16T10:27:38Z</time>
      </trkpt>
      <trkpt lat="45.947" lon="4.85023">
        <ele>269</ele>
        <time>2017-05-16T10:27:39Z</time>
      </trkpt>
      <trkpt lat="45.94699" lon="4.85015">
        <ele>269</ele>
        <time>2017-05-16T10:27:40Z</time>
      </trkpt>
      <trkpt lat="45.94698" lon="4.85006">
        <ele>269</ele>
        <time>2017-05-16T10:27:41Z</time>
      </trkpt>
      <trkpt lat="45.94697" lon="4.84998">
        <ele>269</ele>
        <time>2017-05-16T10:27:42Z</time>
      </trkpt>
      <trkpt lat="45.94696" lon="4.84989">
        <ele>269</ele>
        <time>2017-05-16T10:27:43Z</time>
      </trkpt>
      <trkpt lat="45.94695" lon="4.8498">
        <ele>269</ele>
        <time>2017-05-16T10:27:44Z</time>
      </trkpt>
      <trkpt lat="45.94694" lon="4.8497">
        <ele>269</ele>
        <time>2017-05-16T10:27:45Z</time>
      </trkpt>
      <trkpt lat="45.94694" lon="4.84961">
        <ele>269</ele>
        <time>2017-05-16T10:27:46Z</time>
      </trkpt>
      <trkpt lat="45.94693" lon="4.84951">
        <ele>269</ele>
        <time>2017-05-16T10:27:47Z</time>
      </trkpt>
      <trkpt lat="45.94692" lon="4.84942">
        <ele>269</ele>
        <time>2017-05-16T10:27:48Z</time>
      </trkpt>
      <trkpt lat="45.94691" lon="4.84932">
        <ele>269</ele>
        <time>2017-05-16T10:27:49Z</time>
      </trkpt>
      <trkpt lat="45.9469" lon="4.84923">
        <ele>269</ele>
        <time>2017-05-16T10:27:50Z</time>
      </trkpt>
      <trkpt lat="45.94689" lon="4.84914">
        <ele>269</ele>
        <time>2017-05-16T10:27:51Z</time>
      </trkpt>
      <trkpt lat="45.94688" lon="4.84905">
        <ele>269</ele>
        <time>2017-05-16T10:27:52Z</time>
      </trkpt>
      <trkpt lat="45.94687" lon="4.84897">
        <ele>268</ele>
        <time>2017-05-16T10:27:53Z</time>
      </trkpt>
      <trkpt lat="45.94687" lon="4.84889">
        <ele>268</ele>
        <time>2017-05-16T10:27:54Z</time>
      </trkpt>
      <trkpt lat="45.94686" lon="4.84881">
        <ele>268</ele>
        <time>2017-05-16T10:27:55Z</time>
      </trkpt>
      <trkpt lat="45.94685" lon="4.84873">
        <ele>268</ele>
        <time>2017-05-16T10:27:56Z</time>
      </trkpt>
      <trkpt lat="45.94685" lon="4.84865">
        <ele>268</ele>
        <time>2017-05-16T10:27:57Z</time>
      </trkpt>
      <trkpt lat="45.94684" lon="4.84858">
        <ele>268</ele>
        <time>2017-05-16T10:27:58Z</time>
      </trkpt>
      <trkpt lat="45.94683" lon="4.8485">
        <ele>268</ele>
        <time>2017-05-16T10:27:59Z</time>
      </trkpt>
      <trkpt lat="45.94682" lon="4.84842">
        <ele>268</ele>
        <time>2017-05-16T10:28:00Z</time>
      </trkpt>
      <trkpt lat="45.94681" lon="4.84835">
        <ele>268</ele>
        <time>2017-05-16T10:28:01Z</time>
      </trkpt>
      <trkpt lat="45.94681" lon="4.84827">
        <ele>268</ele>
        <time>2017-05-16T10:28:02Z</time>
      </trkpt>
      <trkpt lat="45.94681" lon="4.84819">
        <ele>268</ele>
        <time>2017-05-16T10:28:03Z</time>
      </trkpt>
      <trkpt lat="45.9468" lon="4.84811">
        <ele>268</ele>
        <time>2017-05-16T10:28:04Z</time>
      </trkpt>
      <trkpt lat="45.9468" lon="4.84804">
        <ele>268</ele>
        <time>2017-05-16T10:28:05Z</time>
      </trkpt>
      <trkpt lat="45.94679" lon="4.84796">
        <ele>268</ele>
        <time>2017-05-16T10:28:06Z</time>
      </trkpt>
      <trkpt lat="45.94679" lon="4.84789">
        <ele>269</ele>
        <time>2017-05-16T10:28:07Z</time>
      </trkpt>
      <trkpt lat="45.94678" lon="4.84782">
        <ele>269</ele>
        <time>2017-05-16T10:28:08Z</time>
      </trkpt>
      <trkpt lat="45.94677" lon="4.84776">
        <ele>269</ele>
        <time>2017-05-16T10:28:09Z</time>
      </trkpt>
      <trkpt lat="45.94676" lon="4.84769">
        <ele>269</ele>
        <time>2017-05-16T10:28:10Z</time>
      </trkpt>
      <trkpt lat="45.94676" lon="4.84761">
        <ele>269</ele>
        <time>2017-05-16T10:28:11Z</time>
      </trkpt>
      <trkpt lat="45.94675" lon="4.84753">
        <ele>269</ele>
        <time>2017-05-16T10:28:12Z</time>
      </trkpt>
      <trkpt lat="45.94675" lon="4.84745">
        <ele>269</ele>
        <time>2017-05-16T10:28:13Z</time>
      </trkpt>
      <trkpt lat="45.94675" lon="4.84737">
        <ele>269</ele>
        <time>2017-05-16T10:28:14Z</time>
      </trkpt>
      <trkpt lat="45.94674" lon="4.84728">
        <ele>269</ele>
        <time>2017-05-16T10:28:15Z</time>
      </trkpt>
      <trkpt lat="45.94673" lon="4.84719">
        <ele>269</ele>
        <time>2017-05-16T10:28:16Z</time>
      </trkpt>
      <trkpt lat="45.94673" lon="4.8471">
        <ele>269</ele>
        <time>2017-05-16T10:28:17Z</time>
      </trkpt>
      <trkpt lat="45.94673" lon="4.84701">
        <ele>269</ele>
        <time>2017-05-16T10:28:18Z</time>
      </trkpt>
      <trkpt lat="45.94673" lon="4.84692">
        <ele>269</ele>
        <time>2017-05-16T10:28:19Z</time>
      </trkpt>
      <trkpt lat="45.94672" lon="4.84683">
        <ele>269</ele>
        <time>2017-05-16T10:28:20Z</time>
      </trkpt>
      <trkpt lat="45.94672" lon="4.84673">
        <ele>269</ele>
        <time>2017-05-16T10:28:21Z</time>
      </trkpt>
      <trkpt lat="45.94672" lon="4.84664">
        <ele>269</ele>
        <time>2017-05-16T10:28:22Z</time>
      </trkpt>
      <trkpt lat="45.94671" lon="4.84654">
        <ele>268</ele>
        <time>2017-05-16T10:28:23Z</time>
      </trkpt>
      <trkpt lat="45.94671" lon="4.84645">
        <ele>268</ele>
        <time>2017-05-16T10:28:24Z</time>
      </trkpt>
      <trkpt lat="45.94671" lon="4.84636">
        <ele>268</ele>
        <time>2017-05-16T10:28:25Z</time>
      </trkpt>
      <trkpt lat="45.9467" lon="4.84628">
        <ele>268</ele>
        <time>2017-05-16T10:28:26Z</time>
      </trkpt>
      <trkpt lat="45.9467" lon="4.8462">
        <ele>268</ele>
        <time>2017-05-16T10:28:27Z</time>
      </trkpt>
      <trkpt lat="45.9467" lon="4.84612">
        <ele>268</ele>
        <time>2017-05-16T10:28:28Z</time>
      </trkpt>
      <trkpt lat="45.9467" lon="4.84604">
        <ele>268</ele>
        <time>2017-05-16T10:28:29Z</time>
      </trkpt>
      <trkpt lat="45.9467" lon="4.84597">
        <ele>268</ele>
        <time>2017-05-16T10:28:30Z</time>
      </trkpt>
      <trkpt lat="45.94669" lon="4.84589">
        <ele>268</ele>
        <time>2017-05-16T10:28:31Z</time>
      </trkpt>
      <trkpt lat="45.94669" lon="4.84582">
        <ele>268</ele>
        <time>2017-05-16T10:28:32Z</time>
      </trkpt>
      <trkpt lat="45.94669" lon="4.84575">
        <ele>268</ele>
        <time>2017-05-16T10:28:33Z</time>
      </trkpt>
      <trkpt lat="45.94668" lon="4.84567">
        <ele>268</ele>
        <time>2017-05-16T10:28:34Z</time>
      </trkpt>
      <trkpt lat="45.94668" lon="4.84559">
        <ele>268</ele>
        <time>2017-05-16T10:28:35Z</time>
      </trkpt>
      <trkpt lat="45.94667" lon="4.84552">
        <ele>268</ele>
        <time>2017-05-16T10:28:36Z</time>
      </trkpt>
      <trkpt lat="45.94667" lon="4.84544">
        <ele>268</ele>
        <time>2017-05-16T10:28:37Z</time>
      </trkpt>
      <trkpt lat="45.94666" lon="4.84536">
        <ele>268</ele>
        <time>2017-05-16T10:28:38Z</time>
      </trkpt>
      <trkpt lat="45.94665" lon="4.84528">
        <ele>268</ele>
        <time>2017-05-16T10:28:39Z</time>
      </trkpt>
      <trkpt lat="45.94664" lon="4.84519">
        <ele>268</ele>
        <time>2017-05-16T10:28:40Z</time>
      </trkpt>
      <trkpt lat="45.94663" lon="4.8451">
        <ele>268</ele>
        <time>2017-05-16T10:28:41Z</time>
      </trkpt>
      <trkpt lat="45.94663" lon="4.84501">
        <ele>268</ele>
        <time>2017-05-16T10:28:42Z</time>
      </trkpt>
      <trkpt lat="45.94662" lon="4.84492">
        <ele>268</ele>
        <time>2017-05-16T10:28:43Z</time>
      </trkpt>
      <trkpt lat="45.94661" lon="4.84483">
        <ele>268</ele>
        <time>2017-05-16T10:28:44Z</time>
      </trkpt>
      <trkpt lat="45.94661" lon="4.84475">
        <ele>268</ele>
        <time>2017-05-16T10:28:45Z</time>
      </trkpt>
      <trkpt lat="45.9466" lon="4.84466">
        <ele>268</ele>
        <time>2017-05-16T10:28:46Z</time>
      </trkpt>
      <trkpt lat="45.94659" lon="4.84458">
        <ele>268</ele>
        <time>2017-05-16T10:28:47Z</time>
      </trkpt>
      <trkpt lat="45.94658" lon="4.84451">
        <ele>268</ele>
        <time>2017-05-16T10:28:48Z</time>
      </trkpt>
      <trkpt lat="45.94657" lon="4.84443">
        <ele>268</ele>
        <time>2017-05-16T10:28:49Z</time>
      </trkpt>
      <trkpt lat="45.94656" lon="4.84435">
        <ele>268</ele>
        <time>2017-05-16T10:28:50Z</time>
      </trkpt>
      <trkpt lat="45.94655" lon="4.84427">
        <ele>268</ele>
        <time>2017-05-16T10:28:51Z</time>
      </trkpt>
      <trkpt lat="45.94654" lon="4.84419">
        <ele>268</ele>
        <time>2017-05-16T10:28:52Z</time>
      </trkpt>
      <trkpt lat="45.94653" lon="4.84412">
        <ele>268</ele>
        <time>2017-05-16T10:28:53Z</time>
      </trkpt>
      <trkpt lat="45.94653" lon="4.84404">
        <ele>268</ele>
        <time>2017-05-16T10:28:54Z</time>
      </trkpt>
      <trkpt lat="45.94652" lon="4.84397">
        <ele>268</ele>
        <time>2017-05-16T10:28:55Z</time>
      </trkpt>
      <trkpt lat="45.94651" lon="4.8439">
        <ele>268</ele>
        <time>2017-05-16T10:28:56Z</time>
      </trkpt>
      <trkpt lat="45.9465" lon="4.84383">
        <ele>268</ele>
        <time>2017-05-16T10:28:57Z</time>
      </trkpt>
      <trkpt lat="45.94649" lon="4.84376">
        <ele>268</ele>
        <time>2017-05-16T10:28:58Z</time>
      </trkpt>
      <trkpt lat="45.94649" lon="4.84368">
        <ele>268</ele>
        <time>2017-05-16T10:28:59Z</time>
      </trkpt>
      <trkpt lat="45.94648" lon="4.8436">
        <ele>268</ele>
        <time>2017-05-16T10:29:00Z</time>
      </trkpt>
      <trkpt lat="45.94647" lon="4.84351">
        <ele>268</ele>
        <time>2017-05-16T10:29:01Z</time>
      </trkpt>
      <trkpt lat="45.94646" lon="4.84343">
        <ele>268</ele>
        <time>2017-05-16T10:29:02Z</time>
      </trkpt>
      <trkpt lat="45.94645" lon="4.84334">
        <ele>268</ele>
        <time>2017-05-16T10:29:03Z</time>
      </trkpt>
      <trkpt lat="45.94644" lon="4.84324">
        <ele>268</ele>
        <time>2017-05-16T10:29:04Z</time>
      </trkpt>
      <trkpt lat="45.94643" lon="4.84315">
        <ele>269</ele>
        <time>2017-05-16T10:29:05Z</time>
      </trkpt>
      <trkpt lat="45.94642" lon="4.84305">
        <ele>269</ele>
        <time>2017-05-16T10:29:06Z</time>
      </trkpt>
      <trkpt lat="45.9464" lon="4.84295">
        <ele>269</ele>
        <time>2017-05-16T10:29:07Z</time>
      </trkpt>
      <trkpt lat="45.94639" lon="4.84285">
        <ele>269</ele>
        <time>2017-05-16T10:29:08Z</time>
      </trkpt>
      <trkpt lat="45.94637" lon="4.84275">
        <ele>269</ele>
        <time>2017-05-16T10:29:09Z</time>
      </trkpt>
      <trkpt lat="45.94636" lon="4.84266">
        <ele>269</ele>
        <time>2017-05-16T10:29:10Z</time>
      </trkpt>
      <trkpt lat="45.94635" lon="4.84256">
        <ele>269</ele>
        <time>2017-05-16T10:29:11Z</time>
      </trkpt>
      <trkpt lat="45.94634" lon="4.84247">
        <ele>269</ele>
        <time>2017-05-16T10:29:12Z</time>
      </trkpt>
      <trkpt lat="45.94632" lon="4.84239">
        <ele>269</ele>
        <time>2017-05-16T10:29:13Z</time>
      </trkpt>
      <trkpt lat="45.94631" lon="4.8423">
        <ele>269</ele>
        <time>2017-05-16T10:29:14Z</time>
      </trkpt>
      <trkpt lat="45.9463" lon="4.84221">
        <ele>269</ele>
        <time>2017-05-16T10:29:15Z</time>
      </trkpt>
      <trkpt lat="45.94629" lon="4.84212">
        <ele>269</ele>
        <time>2017-05-16T10:29:16Z</time>
      </trkpt>
      <trkpt lat="45.94628" lon="4.84204">
        <ele>269</ele>
        <time>2017-05-16T10:29:17Z</time>
      </trkpt>
      <trkpt lat="45.94627" lon="4.84196">
        <ele>269</ele>
        <time>2017-05-16T10:29:18Z</time>
      </trkpt>
      <trkpt lat="45.94626" lon="4.84189">
        <ele>269</ele>
        <time>2017-05-16T10:29:19Z</time>
      </trkpt>
      <trkpt lat="45.94624" lon="4.84181">
        <ele>269</ele>
        <time>2017-05-16T10:29:20Z</time>
      </trkpt>
      <trkpt lat="45.94623" lon="4.84172">
        <ele>269</ele>
        <time>2017-05-16T10:29:21Z</time>
      </trkpt>
      <trkpt lat="45.94621" lon="4.84164">
        <ele>269</ele>
        <time>2017-05-16T10:29:22Z</time>
      </trkpt>
      <trkpt lat="45.9462" lon="4.84155">
        <ele>269</ele>
        <time>2017-05-16T10:29:23Z</time>
      </trkpt>
      <trkpt lat="45.94618" lon="4.84147">
        <ele>269</ele>
        <time>2017-05-16T10:29:24Z</time>
      </trkpt>
      <trkpt lat="45.94617" lon="4.84139">
        <ele>269</ele>
        <time>2017-05-16T10:29:25Z</time>
      </trkpt>
      <trkpt lat="45.94616" lon="4.84131">
        <ele>269</ele>
        <time>2017-05-16T10:29:26Z</time>
      </trkpt>
      <trkpt lat="45.94615" lon="4.84124">
        <ele>269</ele>
        <time>2017-05-16T10:29:27Z</time>
      </trkpt>
      <trkpt lat="45.94613" lon="4.84116">
        <ele>269</ele>
        <time>2017-05-16T10:29:28Z</time>
      </trkpt>
      <trkpt lat="45.94612" lon="4.84109">
        <ele>269</ele>
        <time>2017-05-16T10:29:29Z</time>
      </trkpt>
      <trkpt lat="45.94611" lon="4.84102">
        <ele>269</ele>
        <time>2017-05-16T10:29:30Z</time>
      </trkpt>
      <trkpt lat="45.9461" lon="4.84094">
        <ele>269</ele>
        <time>2017-05-16T10:29:31Z</time>
      </trkpt>
      <trkpt lat="45.94608" lon="4.84086">
        <ele>269</ele>
        <time>2017-05-16T10:29:32Z</time>
      </trkpt>
      <trkpt lat="45.94607" lon="4.84078">
        <ele>269</ele>
        <time>2017-05-16T10:29:33Z</time>
      </trkpt>
      <trkpt lat="45.94605" lon="4.84069">
        <ele>269</ele>
        <time>2017-05-16T10:29:34Z</time>
      </trkpt>
      <trkpt lat="45.94604" lon="4.8406">
        <ele>269</ele>
        <time>2017-05-16T10:29:35Z</time>
      </trkpt>
      <trkpt lat="45.94603" lon="4.84051">
        <ele>269</ele>
        <time>2017-05-16T10:29:36Z</time>
      </trkpt>
      <trkpt lat="45.94601" lon="4.84042">
        <ele>269</ele>
        <time>2017-05-16T10:29:37Z</time>
      </trkpt>
      <trkpt lat="45.946" lon="4.84033">
        <ele>269</ele>
        <time>2017-05-16T10:29:38Z</time>
      </trkpt>
      <trkpt lat="45.94598" lon="4.84024">
        <ele>269</ele>
        <time>2017-05-16T10:29:39Z</time>
      </trkpt>
      <trkpt lat="45.94597" lon="4.84014">
        <ele>269</ele>
        <time>2017-05-16T10:29:40Z</time>
      </trkpt>
      <trkpt lat="45.94596" lon="4.84006">
        <ele>269</ele>
        <time>2017-05-16T10:29:41Z</time>
      </trkpt>
      <trkpt lat="45.94594" lon="4.83997">
        <ele>269</ele>
        <time>2017-05-16T10:29:42Z</time>
      </trkpt>
      <trkpt lat="45.94592" lon="4.83988">
        <ele>269</ele>
        <time>2017-05-16T10:29:43Z</time>
      </trkpt>
      <trkpt lat="45.94591" lon="4.83979">
        <ele>268</ele>
        <time>2017-05-16T10:29:44Z</time>
      </trkpt>
      <trkpt lat="45.94589" lon="4.8397">
        <ele>268</ele>
        <time>2017-05-16T10:29:45Z</time>
      </trkpt>
      <trkpt lat="45.94588" lon="4.83961">
        <ele>268</ele>
        <time>2017-05-16T10:29:46Z</time>
      </trkpt>
      <trkpt lat="45.94587" lon="4.83952">
        <ele>268</ele>
        <time>2017-05-16T10:29:47Z</time>
      </trkpt>
      <trkpt lat="45.94585" lon="4.83942">
        <ele>268</ele>
        <time>2017-05-16T10:29:48Z</time>
      </trkpt>
      <trkpt lat="45.94583" lon="4.83932">
        <ele>268</ele>
        <time>2017-05-16T10:29:49Z</time>
      </trkpt>
      <trkpt lat="45.94582" lon="4.83922">
        <ele>268</ele>
        <time>2017-05-16T10:29:50Z</time>
      </trkpt>
      <trkpt lat="45.9458" lon="4.83911">
        <ele>268</ele>
        <time>2017-05-16T10:29:51Z</time>
      </trkpt>
      <trkpt lat="45.94579" lon="4.83901">
        <ele>268</ele>
        <time>2017-05-16T10:29:52Z</time>
      </trkpt>
      <trkpt lat="45.94577" lon="4.8389">
        <ele>267</ele>
        <time>2017-05-16T10:29:53Z</time>
      </trkpt>
      <trkpt lat="45.94575" lon="4.83879">
        <ele>267</ele>
        <time>2017-05-16T10:29:54Z</time>
      </trkpt>
      <trkpt lat="45.94573" lon="4.83868">
        <ele>267</ele>
        <time>2017-05-16T10:29:55Z</time>
      </trkpt>
      <trkpt lat="45.94571" lon="4.83856">
        <ele>266</ele>
        <time>2017-05-16T10:29:56Z</time>
      </trkpt>
      <trkpt lat="45.94569" lon="4.83844">
        <ele>266</ele>
        <time>2017-05-16T10:29:57Z</time>
      </trkpt>
      <trkpt lat="45.94568" lon="4.83832">
        <ele>265</ele>
        <time>2017-05-16T10:29:58Z</time>
      </trkpt>
      <trkpt lat="45.94566" lon="4.8382">
        <ele>264</ele>
        <time>2017-05-16T10:29:59Z</time>
      </trkpt>
      <trkpt lat="45.94564" lon="4.83807">
        <ele>264</ele>
        <time>2017-05-16T10:30:00Z</time>
      </trkpt>
      <trkpt lat="45.94562" lon="4.83795">
        <ele>264</ele>
        <time>2017-05-16T10:30:01Z</time>
      </trkpt>
      <trkpt lat="45.9456" lon="4.83783">
        <ele>264</ele>
        <time>2017-05-16T10:30:02Z</time>
      </trkpt>
      <trkpt lat="45.94558" lon="4.83771">
        <ele>263</ele>
        <time>2017-05-16T10:30:03Z</time>
      </trkpt>
      <trkpt lat="45.94556" lon="4.83759">
        <ele>263</ele>
        <time>2017-05-16T10:30:04Z</time>
      </trkpt>
      <trkpt lat="45.94554" lon="4.83747">
        <ele>262</ele>
        <time>2017-05-16T10:30:05Z</time>
      </trkpt>
      <trkpt lat="45.94553" lon="4.83735">
        <ele>262</ele>
        <time>2017-05-16T10:30:06Z</time>
      </trkpt>
      <trkpt lat="45.94551" lon="4.83724">
        <ele>262</ele>
        <time>2017-05-16T10:30:07Z</time>
      </trkpt>
      <trkpt lat="45.94549" lon="4.83712">
        <ele>262</ele>
        <time>2017-05-16T10:30:08Z</time>
      </trkpt>
      <trkpt lat="45.94548" lon="4.83701">
        <ele>262</ele>
        <time>2017-05-16T10:30:09Z</time>
      </trkpt>
      <trkpt lat="45.94546" lon="4.8369">
        <ele>262</ele>
        <time>2017-05-16T10:30:10Z</time>
      </trkpt>
      <trkpt lat="45.94544" lon="4.83679">
        <ele>262</ele>
        <time>2017-05-16T10:30:11Z</time>
      </trkpt>
      <trkpt lat="45.94543" lon="4.83668">
        <ele>262</ele>
        <time>2017-05-16T10:30:12Z</time>
      </trkpt>
      <trkpt lat="45.94541" lon="4.83658">
        <ele>261</ele>
        <time>2017-05-16T10:30:13Z</time>
      </trkpt>
      <trkpt lat="45.9454" lon="4.83648">
        <ele>261</ele>
        <time>2017-05-16T10:30:14Z</time>
      </trkpt>
      <trkpt lat="45.94538" lon="4.83639">
        <ele>261</ele>
        <time>2017-05-16T10:30:15Z</time>
      </trkpt>
      <trkpt lat="45.94537" lon="4.8363">
        <ele>261</ele>
        <time>2017-05-16T10:30:16Z</time>
      </trkpt>
      <trkpt lat="45.94536" lon="4.83621">
        <ele>261</ele>
        <time>2017-05-16T10:30:17Z</time>
      </trkpt>
      <trkpt lat="45.94535" lon="4.83613">
        <ele>261</ele>
        <time>2017-05-16T10:30:18Z</time>
      </trkpt>
      <trkpt lat="45.94533" lon="4.83604">
        <ele>261</ele>
        <time>2017-05-16T10:30:19Z</time>
      </trkpt>
      <trkpt lat="45.94531" lon="4.83596">
        <ele>261</ele>
        <time>2017-05-16T10:30:20Z</time>
      </trkpt>
      <trkpt lat="45.94529" lon="4.83589">
        <ele>261</ele>
        <time>2017-05-16T10:30:21Z</time>
      </trkpt>
      <trkpt lat="45.94527" lon="4.83581">
        <ele>261</ele>
        <time>2017-05-16T10:30:22Z</time>
      </trkpt>
      <trkpt lat="45.94525" lon="4.83574">
        <ele>261</ele>
        <time>2017-05-16T10:30:23Z</time>
      </trkpt>
      <trkpt lat="45.94523" lon="4.83566">
        <ele>261</ele>
        <time>2017-05-16T10:30:24Z</time>
      </trkpt>
      <trkpt lat="45.9452" lon="4.83559">
        <ele>261</ele>
        <time>2017-05-16T10:30:25Z</time>
      </trkpt>
      <trkpt lat="45.94517" lon="4.83552">
        <ele>261</ele>
        <time>2017-05-16T10:30:26Z</time>
      </trkpt>
      <trkpt lat="45.94513" lon="4.83546">
        <ele>261</ele>
        <time>2017-05-16T10:30:27Z</time>
      </trkpt>
      <trkpt lat="45.94509" lon="4.83539">
        <ele>262</ele>
        <time>2017-05-16T10:30:28Z</time>
      </trkpt>
      <trkpt lat="45.94505" lon="4.83532">
        <ele>262</ele>
        <time>2017-05-16T10:30:29Z</time>
      </trkpt>
      <trkpt lat="45.945" lon="4.83526">
        <ele>262</ele>
        <time>2017-05-16T10:30:30Z</time>
      </trkpt>
      <trkpt lat="45.94496" lon="4.83519">
        <ele>262</ele>
        <time>2017-05-16T10:30:31Z</time>
      </trkpt>
      <trkpt lat="45.94492" lon="4.83513">
        <ele>262</ele>
        <time>2017-05-16T10:30:32Z</time>
      </trkpt>
      <trkpt lat="45.94488" lon="4.83507">
        <ele>262</ele>
        <time>2017-05-16T10:30:33Z</time>
      </trkpt>
      <trkpt lat="45.94484" lon="4.83501">
        <ele>262</ele>
        <time>2017-05-16T10:30:34Z</time>
      </trkpt>
      <trkpt lat="45.9448" lon="4.83495">
        <ele>263</ele>
        <time>2017-05-16T10:30:35Z</time>
      </trkpt>
      <trkpt lat="45.94476" lon="4.83488">
        <ele>263</ele>
        <time>2017-05-16T10:30:36Z</time>
      </trkpt>
      <trkpt lat="45.94473" lon="4.83482">
        <ele>263</ele>
        <time>2017-05-16T10:30:37Z</time>
      </trkpt>
      <trkpt lat="45.94469" lon="4.83476">
        <ele>263</ele>
        <time>2017-05-16T10:30:38Z</time>
      </trkpt>
      <trkpt lat="45.94466" lon="4.8347">
        <ele>263</ele>
        <time>2017-05-16T10:30:39Z</time>
      </trkpt>
      <trkpt lat="45.94463" lon="4.83465">
        <ele>263</ele>
        <time>2017-05-16T10:30:40Z</time>
      </trkpt>
      <trkpt lat="45.94459" lon="4.83459">
        <ele>263</ele>
        <time>2017-05-16T10:30:41Z</time>
      </trkpt>
      <trkpt lat="45.94455" lon="4.83453">
        <ele>263</ele>
        <time>2017-05-16T10:30:42Z</time>
      </trkpt>
      <trkpt lat="45.94452" lon="4.83447">
        <ele>263</ele>
        <time>2017-05-16T10:30:43Z</time>
      </trkpt>
      <trkpt lat="45.94449" lon="4.83441">
        <ele>263</ele>
        <time>2017-05-16T10:30:44Z</time>
      </trkpt>
      <trkpt lat="45.94445" lon="4.83434">
        <ele>263</ele>
        <time>2017-05-16T10:30:45Z</time>
      </trkpt>
      <trkpt lat="45.94442" lon="4.83427">
        <ele>264</ele>
        <time>2017-05-16T10:30:46Z</time>
      </trkpt>
      <trkpt lat="45.94439" lon="4.8342">
        <ele>264</ele>
        <time>2017-05-16T10:30:47Z</time>
      </trkpt>
      <trkpt lat="45.94435" lon="4.83413">
        <ele>264</ele>
        <time>2017-05-16T10:30:48Z</time>
      </trkpt>
      <trkpt lat="45.94432" lon="4.83405">
        <ele>264</ele>
        <time>2017-05-16T10:30:49Z</time>
      </trkpt>
      <trkpt lat="45.94428" lon="4.83398">
        <ele>264</ele>
        <time>2017-05-16T10:30:50Z</time>
      </trkpt>
      <trkpt lat="45.94424" lon="4.8339">
        <ele>264</ele>
        <time>2017-05-16T10:30:51Z</time>
      </trkpt>
      <trkpt lat="45.9442" lon="4.83382">
        <ele>264</ele>
        <time>2017-05-16T10:30:52Z</time>
      </trkpt>
      <trkpt lat="45.94417" lon="4.83374">
        <ele>264</ele>
        <time>2017-05-16T10:30:53Z</time>
      </trkpt>
      <trkpt lat="45.94413" lon="4.83367">
        <ele>264</ele>
        <time>2017-05-16T10:30:54Z</time>
      </trkpt>
      <trkpt lat="45.9441" lon="4.83359">
        <ele>264</ele>
        <time>2017-05-16T10:30:55Z</time>
      </trkpt>
      <trkpt lat="45.94407" lon="4.83351">
        <ele>263</ele>
        <time>2017-05-16T10:30:56Z</time>
      </trkpt>
      <trkpt lat="45.94404" lon="4.83343">
        <ele>263</ele>
        <time>2017-05-16T10:30:57Z</time>
      </trkpt>
      <trkpt lat="45.94401" lon="4.83336">
        <ele>263</ele>
        <time>2017-05-16T10:30:58Z</time>
      </trkpt>
      <trkpt lat="45.94398" lon="4.8333">
        <ele>264</ele>
        <time>2017-05-16T10:30:59Z</time>
      </trkpt>
      <trkpt lat="45.94396" lon="4.83323">
        <ele>264</ele>
        <time>2017-05-16T10:31:00Z</time>
      </trkpt>
      <trkpt lat="45.94393" lon="4.83317">
        <ele>264</ele>
        <time>2017-05-16T10:31:01Z</time>
      </trkpt>
      <trkpt lat="45.94391" lon="4.8331">
        <ele>264</ele>
        <time>2017-05-16T10:31:02Z</time>
      </trkpt>
      <trkpt lat="45.94389" lon="4.83304">
        <ele>264</ele>
        <time>2017-05-16T10:31:03Z</time>
      </trkpt>
      <trkpt lat="45.94387" lon="4.83298">
        <ele>264</ele>
        <time>2017-05-16T10:31:04Z</time>
      </trkpt>
      <trkpt lat="45.94385" lon="4.83291">
        <ele>264</ele>
        <time>2017-05-16T10:31:05Z</time>
      </trkpt>
      <trkpt lat="45.94383" lon="4.83285">
        <ele>264</ele>
        <time>2017-05-16T10:31:06Z</time>
      </trkpt>
      <trkpt lat="45.94381" lon="4.83279">
        <ele>264</ele>
        <time>2017-05-16T10:31:07Z</time>
      </trkpt>
      <trkpt lat="45.94379" lon="4.83273">
        <ele>264</ele>
        <time>2017-05-16T10:31:08Z</time>
      </trkpt>
      <trkpt lat="45.94376" lon="4.83266">
        <ele>264</ele>
        <time>2017-05-16T10:31:09Z</time>
      </trkpt>
      <trkpt lat="45.94374" lon="4.8326">
        <ele>264</ele>
        <time>2017-05-16T10:31:10Z</time>
      </trkpt>
      <trkpt lat="45.94372" lon="4.83254">
        <ele>265</ele>
        <time>2017-05-16T10:31:11Z</time>
      </trkpt>
      <trkpt lat="45.9437" lon="4.83248">
        <ele>265</ele>
        <time>2017-05-16T10:31:12Z</time>
      </trkpt>
      <trkpt lat="45.94368" lon="4.83242">
        <ele>265</ele>
        <time>2017-05-16T10:31:13Z</time>
      </trkpt>
      <trkpt lat="45.94366" lon="4.83236">
        <ele>266</ele>
        <time>2017-05-16T10:31:14Z</time>
      </trkpt>
      <trkpt lat="45.94362" lon="4.83225">
        <ele>266</ele>
        <time>2017-05-16T10:31:16Z</time>
      </trkpt>
      <trkpt lat="45.9436" lon="4.83219">
        <ele>266</ele>
        <time>2017-05-16T10:31:17Z</time>
      </trkpt>
      <trkpt lat="45.94357" lon="4.83213">
        <ele>266</ele>
        <time>2017-05-16T10:31:18Z</time>
      </trkpt>
      <trkpt lat="45.94355" lon="4.83207">
        <ele>266</ele>
        <time>2017-05-16T10:31:19Z</time>
      </trkpt>
      <trkpt lat="45.94353" lon="4.832">
        <ele>266</ele>
        <time>2017-05-16T10:31:20Z</time>
      </trkpt>
      <trkpt lat="45.9435" lon="4.83193">
        <ele>266</ele>
        <time>2017-05-16T10:31:21Z</time>
      </trkpt>
      <trkpt lat="45.94347" lon="4.83185">
        <ele>266</ele>
        <time>2017-05-16T10:31:22Z</time>
      </trkpt>
      <trkpt lat="45.94345" lon="4.83178">
        <ele>266</ele>
        <time>2017-05-16T10:31:23Z</time>
      </trkpt>
      <trkpt lat="45.94343" lon="4.8317">
        <ele>266</ele>
        <time>2017-05-16T10:31:24Z</time>
      </trkpt>
      <trkpt lat="45.9434" lon="4.83163">
        <ele>266</ele>
        <time>2017-05-16T10:31:25Z</time>
      </trkpt>
      <trkpt lat="45.94337" lon="4.83155">
        <ele>266</ele>
        <time>2017-05-16T10:31:26Z</time>
      </trkpt>
      <trkpt lat="45.94335" lon="4.83148">
        <ele>266</ele>
        <time>2017-05-16T10:31:27Z</time>
      </trkpt>
      <trkpt lat="45.94332" lon="4.8314">
        <ele>266</ele>
        <time>2017-05-16T10:31:28Z</time>
      </trkpt>
      <trkpt lat="45.94329" lon="4.83133">
        <ele>266</ele>
        <time>2017-05-16T10:31:29Z</time>
      </trkpt>
      <trkpt lat="45.94327" lon="4.83126">
        <ele>266</ele>
        <time>2017-05-16T10:31:30Z</time>
      </trkpt>
      <trkpt lat="45.94324" lon="4.83119">
        <ele>266</ele>
        <time>2017-05-16T10:31:31Z</time>
      </trkpt>
      <trkpt lat="45.94322" lon="4.83112">
        <ele>266</ele>
        <time>2017-05-16T10:31:32Z</time>
      </trkpt>
      <trkpt lat="45.94321" lon="4.83105">
        <ele>266</ele>
        <time>2017-05-16T10:31:33Z</time>
      </trkpt>
      <trkpt lat="45.94319" lon="4.83098">
        <ele>266</ele>
        <time>2017-05-16T10:31:34Z</time>
      </trkpt>
      <trkpt lat="45.94317" lon="4.83091">
        <ele>266</ele>
        <time>2017-05-16T10:31:35Z</time>
      </trkpt>
      <trkpt lat="45.94315" lon="4.83084">
        <ele>266</ele>
        <time>2017-05-16T10:31:36Z</time>
      </trkpt>
      <trkpt lat="45.94313" lon="4.83078">
        <ele>266</ele>
        <time>2017-05-16T10:31:37Z</time>
      </trkpt>
      <trkpt lat="45.94311" lon="4.83071">
        <ele>266</ele>
        <time>2017-05-16T10:31:38Z</time>
      </trkpt>
      <trkpt lat="45.9431" lon="4.83064">
        <ele>266</ele>
        <time>2017-05-16T10:31:39Z</time>
      </trkpt>
      <trkpt lat="45.94308" lon="4.83058">
        <ele>266</ele>
        <time>2017-05-16T10:31:40Z</time>
      </trkpt>
      <trkpt lat="45.94307" lon="4.83051">
        <ele>266</ele>
        <time>2017-05-16T10:31:41Z</time>
      </trkpt>
      <trkpt lat="45.94306" lon="4.83045">
        <ele>266</ele>
        <time>2017-05-16T10:31:42Z</time>
      </trkpt>
      <trkpt lat="45.94304" lon="4.83038">
        <ele>266</ele>
        <time>2017-05-16T10:31:43Z</time>
      </trkpt>
      <trkpt lat="45.94302" lon="4.83032">
        <ele>266</ele>
        <time>2017-05-16T10:31:44Z</time>
      </trkpt>
      <trkpt lat="45.943" lon="4.83024">
        <ele>266</ele>
        <time>2017-05-16T10:31:45Z</time>
      </trkpt>
      <trkpt lat="45.94299" lon="4.83018">
        <ele>266</ele>
        <time>2017-05-16T10:31:46Z</time>
      </trkpt>
      <trkpt lat="45.94298" lon="4.83011">
        <ele>266</ele>
        <time>2017-05-16T10:31:47Z</time>
      </trkpt>
      <trkpt lat="45.94296" lon="4.83004">
        <ele>266</ele>
        <time>2017-05-16T10:31:48Z</time>
      </trkpt>
      <trkpt lat="45.94295" lon="4.82997">
        <ele>265</ele>
        <time>2017-05-16T10:31:49Z</time>
      </trkpt>
      <trkpt lat="45.94293" lon="4.82991">
        <ele>265</ele>
        <time>2017-05-16T10:31:50Z</time>
      </trkpt>
      <trkpt lat="45.94292" lon="4.82985">
        <ele>265</ele>
        <time>2017-05-16T10:31:51Z</time>
      </trkpt>
      <trkpt lat="45.9429" lon="4.82978">
        <ele>265</ele>
        <time>2017-05-16T10:31:52Z</time>
      </trkpt>
      <trkpt lat="45.94288" lon="4.82972">
        <ele>265</ele>
        <time>2017-05-16T10:31:53Z</time>
      </trkpt>
      <trkpt lat="45.94286" lon="4.82964">
        <ele>265</ele>
        <time>2017-05-16T10:31:54Z</time>
      </trkpt>
      <trkpt lat="45.94284" lon="4.82957">
        <ele>265</ele>
        <time>2017-05-16T10:31:55Z</time>
      </trkpt>
      <trkpt lat="45.94283" lon="4.82949">
        <ele>265</ele>
        <time>2017-05-16T10:31:56Z</time>
      </trkpt>
      <trkpt lat="45.94284" lon="4.82942">
        <ele>265</ele>
        <time>2017-05-16T10:31:57Z</time>
      </trkpt>
      <trkpt lat="45.94286" lon="4.82934">
        <ele>265</ele>
        <time>2017-05-16T10:31:58Z</time>
      </trkpt>
      <trkpt lat="45.94287" lon="4.82925">
        <ele>265</ele>
        <time>2017-05-16T10:31:59Z</time>
      </trkpt>
      <trkpt lat="45.94289" lon="4.82917">
        <ele>265</ele>
        <time>2017-05-16T10:32:00Z</time>
      </trkpt>
      <trkpt lat="45.9429" lon="4.82909">
        <ele>265</ele>
        <time>2017-05-16T10:32:01Z</time>
      </trkpt>
      <trkpt lat="45.9429" lon="4.82901">
        <ele>265</ele>
        <time>2017-05-16T10:32:02Z</time>
      </trkpt>
      <trkpt lat="45.94291" lon="4.82892">
        <ele>265</ele>
        <time>2017-05-16T10:32:03Z</time>
      </trkpt>
      <trkpt lat="45.94292" lon="4.82883">
        <ele>265</ele>
        <time>2017-05-16T10:32:04Z</time>
      </trkpt>
      <trkpt lat="45.94292" lon="4.82875">
        <ele>265</ele>
        <time>2017-05-16T10:32:05Z</time>
      </trkpt>
      <trkpt lat="45.94292" lon="4.82866">
        <ele>265</ele>
        <time>2017-05-16T10:32:06Z</time>
      </trkpt>
      <trkpt lat="45.94293" lon="4.82856">
        <ele>265</ele>
        <time>2017-05-16T10:32:07Z</time>
      </trkpt>
      <trkpt lat="45.94293" lon="4.82847">
        <ele>265</ele>
        <time>2017-05-16T10:32:08Z</time>
      </trkpt>
      <trkpt lat="45.94293" lon="4.82838">
        <ele>265</ele>
        <time>2017-05-16T10:32:09Z</time>
      </trkpt>
      <trkpt lat="45.94293" lon="4.82829">
        <ele>265</ele>
        <time>2017-05-16T10:32:10Z</time>
      </trkpt>
      <trkpt lat="45.94293" lon="4.8282">
        <ele>265</ele>
        <time>2017-05-16T10:32:11Z</time>
      </trkpt>
      <trkpt lat="45.94293" lon="4.82811">
        <ele>265</ele>
        <time>2017-05-16T10:32:12Z</time>
      </trkpt>
      <trkpt lat="45.94293" lon="4.82803">
        <ele>265</ele>
        <time>2017-05-16T10:32:13Z</time>
      </trkpt>
      <trkpt lat="45.94293" lon="4.82794">
        <ele>265</ele>
        <time>2017-05-16T10:32:14Z</time>
      </trkpt>
      <trkpt lat="45.94294" lon="4.82786">
        <ele>265</ele>
        <time>2017-05-16T10:32:15Z</time>
      </trkpt>
      <trkpt lat="45.94294" lon="4.82778">
        <ele>265</ele>
        <time>2017-05-16T10:32:16Z</time>
      </trkpt>
      <trkpt lat="45.94295" lon="4.8277">
        <ele>265</ele>
        <time>2017-05-16T10:32:17Z</time>
      </trkpt>
      <trkpt lat="45.94295" lon="4.82761">
        <ele>265</ele>
        <time>2017-05-16T10:32:18Z</time>
      </trkpt>
      <trkpt lat="45.94295" lon="4.82753">
        <ele>265</ele>
        <time>2017-05-16T10:32:19Z</time>
      </trkpt>
      <trkpt lat="45.94295" lon="4.82745">
        <ele>265</ele>
        <time>2017-05-16T10:32:20Z</time>
      </trkpt>
      <trkpt lat="45.94295" lon="4.82737">
        <ele>265</ele>
        <time>2017-05-16T10:32:21Z</time>
      </trkpt>
      <trkpt lat="45.94295" lon="4.82729">
        <ele>265</ele>
        <time>2017-05-16T10:32:22Z</time>
      </trkpt>
      <trkpt lat="45.94295" lon="4.8272">
        <ele>265</ele>
        <time>2017-05-16T10:32:23Z</time>
      </trkpt>
      <trkpt lat="45.94295" lon="4.82712">
        <ele>265</ele>
        <time>2017-05-16T10:32:24Z</time>
      </trkpt>
      <trkpt lat="45.94295" lon="4.82703">
        <ele>265</ele>
        <time>2017-05-16T10:32:25Z</time>
      </trkpt>
      <trkpt lat="45.94296" lon="4.82694">
        <ele>265</ele>
        <time>2017-05-16T10:32:26Z</time>
      </trkpt>
      <trkpt lat="45.94296" lon="4.82686">
        <ele>265</ele>
        <time>2017-05-16T10:32:27Z</time>
      </trkpt>
      <trkpt lat="45.94296" lon="4.82677">
        <ele>265</ele>
        <time>2017-05-16T10:32:28Z</time>
      </trkpt>
      <trkpt lat="45.94296" lon="4.82669">
        <ele>265</ele>
        <time>2017-05-16T10:32:29Z</time>
      </trkpt>
      <trkpt lat="45.94296" lon="4.82661">
        <ele>265</ele>
        <time>2017-05-16T10:32:30Z</time>
      </trkpt>
      <trkpt lat="45.94297" lon="4.82652">
        <ele>265</ele>
        <time>2017-05-16T10:32:31Z</time>
      </trkpt>
      <trkpt lat="45.94297" lon="4.82643">
        <ele>265</ele>
        <time>2017-05-16T10:32:32Z</time>
      </trkpt>
      <trkpt lat="45.94297" lon="4.82635">
        <ele>265</ele>
        <time>2017-05-16T10:32:33Z</time>
      </trkpt>
      <trkpt lat="45.94297" lon="4.82626">
        <ele>265</ele>
        <time>2017-05-16T10:32:34Z</time>
      </trkpt>
      <trkpt lat="45.94297" lon="4.82618">
        <ele>265</ele>
        <time>2017-05-16T10:32:35Z</time>
      </trkpt>
      <trkpt lat="45.94297" lon="4.8261">
        <ele>265</ele>
        <time>2017-05-16T10:32:36Z</time>
      </trkpt>
      <trkpt lat="45.94297" lon="4.82601">
        <ele>265</ele>
        <time>2017-05-16T10:32:37Z</time>
      </trkpt>
      <trkpt lat="45.94297" lon="4.82592">
        <ele>265</ele>
        <time>2017-05-16T10:32:38Z</time>
      </trkpt>
      <trkpt lat="45.94297" lon="4.82583">
        <ele>264</ele>
        <time>2017-05-16T10:32:39Z</time>
      </trkpt>
      <trkpt lat="45.94297" lon="4.82574">
        <ele>264</ele>
        <time>2017-05-16T10:32:40Z</time>
      </trkpt>
      <trkpt lat="45.94297" lon="4.82564">
        <ele>264</ele>
        <time>2017-05-16T10:32:41Z</time>
      </trkpt>
      <trkpt lat="45.94297" lon="4.82554">
        <ele>264</ele>
        <time>2017-05-16T10:32:42Z</time>
      </trkpt>
      <trkpt lat="45.94297" lon="4.82544">
        <ele>264</ele>
        <time>2017-05-16T10:32:43Z</time>
      </trkpt>
      <trkpt lat="45.94298" lon="4.82534">
        <ele>264</ele>
        <time>2017-05-16T10:32:44Z</time>
      </trkpt>
      <trkpt lat="45.94298" lon="4.82523">
        <ele>264</ele>
        <time>2017-05-16T10:32:45Z</time>
      </trkpt>
      <trkpt lat="45.94297" lon="4.82512">
        <ele>264</ele>
        <time>2017-05-16T10:32:46Z</time>
      </trkpt>
      <trkpt lat="45.94297" lon="4.82502">
        <ele>264</ele>
        <time>2017-05-16T10:32:47Z</time>
      </trkpt>
      <trkpt lat="45.94296" lon="4.82491">
        <ele>264</ele>
        <time>2017-05-16T10:32:48Z</time>
      </trkpt>
      <trkpt lat="45.94296" lon="4.82481">
        <ele>264</ele>
        <time>2017-05-16T10:32:49Z</time>
      </trkpt>
      <trkpt lat="45.94295" lon="4.82471">
        <ele>264</ele>
        <time>2017-05-16T10:32:50Z</time>
      </trkpt>
      <trkpt lat="45.94295" lon="4.82461">
        <ele>264</ele>
        <time>2017-05-16T10:32:51Z</time>
      </trkpt>
      <trkpt lat="45.94295" lon="4.8245">
        <ele>264</ele>
        <time>2017-05-16T10:32:52Z</time>
      </trkpt>
      <trkpt lat="45.94294" lon="4.8244">
        <ele>264</ele>
        <time>2017-05-16T10:32:53Z</time>
      </trkpt>
      <trkpt lat="45.94294" lon="4.82429">
        <ele>264</ele>
        <time>2017-05-16T10:32:54Z</time>
      </trkpt>
      <trkpt lat="45.94294" lon="4.82419">
        <ele>264</ele>
        <time>2017-05-16T10:32:55Z</time>
      </trkpt>
      <trkpt lat="45.94293" lon="4.82409">
        <ele>264</ele>
        <time>2017-05-16T10:32:56Z</time>
      </trkpt>
      <trkpt lat="45.94292" lon="4.82398">
        <ele>264</ele>
        <time>2017-05-16T10:32:57Z</time>
      </trkpt>
      <trkpt lat="45.94292" lon="4.82388">
        <ele>264</ele>
        <time>2017-05-16T10:32:58Z</time>
      </trkpt>
      <trkpt lat="45.94291" lon="4.82378">
        <ele>264</ele>
        <time>2017-05-16T10:32:59Z</time>
      </trkpt>
      <trkpt lat="45.94291" lon="4.82368">
        <ele>264</ele>
        <time>2017-05-16T10:33:00Z</time>
      </trkpt>
      <trkpt lat="45.94291" lon="4.82358">
        <ele>264</ele>
        <time>2017-05-16T10:33:01Z</time>
      </trkpt>
      <trkpt lat="45.9429" lon="4.82348">
        <ele>264</ele>
        <time>2017-05-16T10:33:02Z</time>
      </trkpt>
      <trkpt lat="45.9429" lon="4.82338">
        <ele>264</ele>
        <time>2017-05-16T10:33:03Z</time>
      </trkpt>
      <trkpt lat="45.9429" lon="4.82328">
        <ele>265</ele>
        <time>2017-05-16T10:33:04Z</time>
      </trkpt>
      <trkpt lat="45.94289" lon="4.82318">
        <ele>265</ele>
        <time>2017-05-16T10:33:05Z</time>
      </trkpt>
      <trkpt lat="45.94289" lon="4.82307">
        <ele>265</ele>
        <time>2017-05-16T10:33:06Z</time>
      </trkpt>
      <trkpt lat="45.94288" lon="4.82298">
        <ele>265</ele>
        <time>2017-05-16T10:33:07Z</time>
      </trkpt>
      <trkpt lat="45.94288" lon="4.82288">
        <ele>265</ele>
        <time>2017-05-16T10:33:08Z</time>
      </trkpt>
      <trkpt lat="45.94288" lon="4.82278">
        <ele>265</ele>
        <time>2017-05-16T10:33:09Z</time>
      </trkpt>
      <trkpt lat="45.94287" lon="4.82268">
        <ele>265</ele>
        <time>2017-05-16T10:33:10Z</time>
      </trkpt>
      <trkpt lat="45.94287" lon="4.82259">
        <ele>265</ele>
        <time>2017-05-16T10:33:11Z</time>
      </trkpt>
      <trkpt lat="45.94286" lon="4.82249">
        <ele>264</ele>
        <time>2017-05-16T10:33:12Z</time>
      </trkpt>
      <trkpt lat="45.94285" lon="4.8224">
        <ele>264</ele>
        <time>2017-05-16T10:33:13Z</time>
      </trkpt>
      <trkpt lat="45.94285" lon="4.8223">
        <ele>264</ele>
        <time>2017-05-16T10:33:14Z</time>
      </trkpt>
      <trkpt lat="45.94284" lon="4.82221">
        <ele>264</ele>
        <time>2017-05-16T10:33:15Z</time>
      </trkpt>
      <trkpt lat="45.94284" lon="4.82212">
        <ele>264</ele>
        <time>2017-05-16T10:33:16Z</time>
      </trkpt>
      <trkpt lat="45.94282" lon="4.82203">
        <ele>264</ele>
        <time>2017-05-16T10:33:17Z</time>
      </trkpt>
      <trkpt lat="45.94281" lon="4.82194">
        <ele>264</ele>
        <time>2017-05-16T10:33:18Z</time>
      </trkpt>
      <trkpt lat="45.94278" lon="4.82184">
        <ele>264</ele>
        <time>2017-05-16T10:33:19Z</time>
      </trkpt>
      <trkpt lat="45.94277" lon="4.82175">
        <ele>264</ele>
        <time>2017-05-16T10:33:20Z</time>
      </trkpt>
      <trkpt lat="45.94275" lon="4.82166">
        <ele>263</ele>
        <time>2017-05-16T10:33:21Z</time>
      </trkpt>
      <trkpt lat="45.94274" lon="4.82157">
        <ele>263</ele>
        <time>2017-05-16T10:33:22Z</time>
      </trkpt>
      <trkpt lat="45.94273" lon="4.82147">
        <ele>263</ele>
        <time>2017-05-16T10:33:23Z</time>
      </trkpt>
      <trkpt lat="45.94271" lon="4.82137">
        <ele>263</ele>
        <time>2017-05-16T10:33:24Z</time>
      </trkpt>
      <trkpt lat="45.94269" lon="4.82128">
        <ele>263</ele>
        <time>2017-05-16T10:33:25Z</time>
      </trkpt>
      <trkpt lat="45.94268" lon="4.8212">
        <ele>263</ele>
        <time>2017-05-16T10:33:26Z</time>
      </trkpt>
      <trkpt lat="45.94266" lon="4.82112">
        <ele>263</ele>
        <time>2017-05-16T10:33:27Z</time>
      </trkpt>
      <trkpt lat="45.94265" lon="4.82103">
        <ele>262</ele>
        <time>2017-05-16T10:33:28Z</time>
      </trkpt>
      <trkpt lat="45.94264" lon="4.82094">
        <ele>262</ele>
        <time>2017-05-16T10:33:29Z</time>
      </trkpt>
      <trkpt lat="45.94262" lon="4.82085">
        <ele>262</ele>
        <time>2017-05-16T10:33:30Z</time>
      </trkpt>
      <trkpt lat="45.9426" lon="4.82076">
        <ele>262</ele>
        <time>2017-05-16T10:33:31Z</time>
      </trkpt>
      <trkpt lat="45.94258" lon="4.82066">
        <ele>262</ele>
        <time>2017-05-16T10:33:32Z</time>
      </trkpt>
      <trkpt lat="45.94256" lon="4.82057">
        <ele>262</ele>
        <time>2017-05-16T10:33:33Z</time>
      </trkpt>
      <trkpt lat="45.94254" lon="4.82047">
        <ele>262</ele>
        <time>2017-05-16T10:33:34Z</time>
      </trkpt>
      <trkpt lat="45.94253" lon="4.82037">
        <ele>262</ele>
        <time>2017-05-16T10:33:35Z</time>
      </trkpt>
      <trkpt lat="45.9425" lon="4.82027">
        <ele>262</ele>
        <time>2017-05-16T10:33:36Z</time>
      </trkpt>
      <trkpt lat="45.94248" lon="4.82016">
        <ele>263</ele>
        <time>2017-05-16T10:33:37Z</time>
      </trkpt>
      <trkpt lat="45.94246" lon="4.82006">
        <ele>262</ele>
        <time>2017-05-16T10:33:38Z</time>
      </trkpt>
      <trkpt lat="45.94244" lon="4.81996">
        <ele>263</ele>
        <time>2017-05-16T10:33:39Z</time>
      </trkpt>
      <trkpt lat="45.94243" lon="4.81986">
        <ele>263</ele>
        <time>2017-05-16T10:33:40Z</time>
      </trkpt>
      <trkpt lat="45.94241" lon="4.81976">
        <ele>263</ele>
        <time>2017-05-16T10:33:41Z</time>
      </trkpt>
      <trkpt lat="45.94238" lon="4.81966">
        <ele>264</ele>
        <time>2017-05-16T10:33:42Z</time>
      </trkpt>
      <trkpt lat="45.94236" lon="4.81955">
        <ele>264</ele>
        <time>2017-05-16T10:33:43Z</time>
      </trkpt>
      <trkpt lat="45.94235" lon="4.81945">
        <ele>264</ele>
        <time>2017-05-16T10:33:44Z</time>
      </trkpt>
      <trkpt lat="45.94233" lon="4.81935">
        <ele>263</ele>
        <time>2017-05-16T10:33:45Z</time>
      </trkpt>
      <trkpt lat="45.94231" lon="4.81926">
        <ele>263</ele>
        <time>2017-05-16T10:33:46Z</time>
      </trkpt>
      <trkpt lat="45.94229" lon="4.81917">
        <ele>263</ele>
        <time>2017-05-16T10:33:47Z</time>
      </trkpt>
      <trkpt lat="45.94226" lon="4.81908">
        <ele>264</ele>
        <time>2017-05-16T10:33:48Z</time>
      </trkpt>
      <trkpt lat="45.94225" lon="4.819">
        <ele>264</ele>
        <time>2017-05-16T10:33:49Z</time>
      </trkpt>
      <trkpt lat="45.94223" lon="4.81891">
        <ele>265</ele>
        <time>2017-05-16T10:33:50Z</time>
      </trkpt>
      <trkpt lat="45.94221" lon="4.81883">
        <ele>265</ele>
        <time>2017-05-16T10:33:51Z</time>
      </trkpt>
      <trkpt lat="45.9422" lon="4.81875">
        <ele>265</ele>
        <time>2017-05-16T10:33:52Z</time>
      </trkpt>
      <trkpt lat="45.94218" lon="4.81866">
        <ele>265</ele>
        <time>2017-05-16T10:33:53Z</time>
      </trkpt>
      <trkpt lat="45.94217" lon="4.81858">
        <ele>265</ele>
        <time>2017-05-16T10:33:54Z</time>
      </trkpt>
      <trkpt lat="45.94215" lon="4.8185">
        <ele>265</ele>
        <time>2017-05-16T10:33:55Z</time>
      </trkpt>
      <trkpt lat="45.94214" lon="4.81842">
        <ele>265</ele>
        <time>2017-05-16T10:33:56Z</time>
      </trkpt>
      <trkpt lat="45.94213" lon="4.81835">
        <ele>265</ele>
        <time>2017-05-16T10:33:57Z</time>
      </trkpt>
      <trkpt lat="45.94212" lon="4.81827">
        <ele>266</ele>
        <time>2017-05-16T10:33:58Z</time>
      </trkpt>
      <trkpt lat="45.94211" lon="4.81818">
        <ele>266</ele>
        <time>2017-05-16T10:33:59Z</time>
      </trkpt>
      <trkpt lat="45.9421" lon="4.8181">
        <ele>266</ele>
        <time>2017-05-16T10:34:00Z</time>
      </trkpt>
      <trkpt lat="45.9421" lon="4.81802">
        <ele>265</ele>
        <time>2017-05-16T10:34:01Z</time>
      </trkpt>
      <trkpt lat="45.94211" lon="4.81793">
        <ele>265</ele>
        <time>2017-05-16T10:34:02Z</time>
      </trkpt>
      <trkpt lat="45.94213" lon="4.81784">
        <ele>265</ele>
        <time>2017-05-16T10:34:03Z</time>
      </trkpt>
      <trkpt lat="45.94214" lon="4.81775">
        <ele>265</ele>
        <time>2017-05-16T10:34:04Z</time>
      </trkpt>
      <trkpt lat="45.94216" lon="4.81766">
        <ele>265</ele>
        <time>2017-05-16T10:34:05Z</time>
      </trkpt>
      <trkpt lat="45.94219" lon="4.81759">
        <ele>265</ele>
        <time>2017-05-16T10:34:06Z</time>
      </trkpt>
      <trkpt lat="45.94221" lon="4.81752">
        <ele>265</ele>
        <time>2017-05-16T10:34:07Z</time>
      </trkpt>
      <trkpt lat="45.94224" lon="4.81745">
        <ele>265</ele>
        <time>2017-05-16T10:34:08Z</time>
      </trkpt>
      <trkpt lat="45.94227" lon="4.81738">
        <ele>265</ele>
        <time>2017-05-16T10:34:09Z</time>
      </trkpt>
      <trkpt lat="45.94226" lon="4.81731">
        <ele>265</ele>
        <time>2017-05-16T10:34:10Z</time>
      </trkpt>
      <trkpt lat="45.94225" lon="4.81724">
        <ele>265</ele>
        <time>2017-05-16T10:34:11Z</time>
      </trkpt>
      <trkpt lat="45.94222" lon="4.81718">
        <ele>266</ele>
        <time>2017-05-16T10:34:12Z</time>
      </trkpt>
      <trkpt lat="45.94218" lon="4.81713">
        <ele>266</ele>
        <time>2017-05-16T10:34:13Z</time>
      </trkpt>
      <trkpt lat="45.94214" lon="4.8171">
        <ele>266</ele>
        <time>2017-05-16T10:34:14Z</time>
      </trkpt>
      <trkpt lat="45.94209" lon="4.81708">
        <ele>266</ele>
        <time>2017-05-16T10:34:15Z</time>
      </trkpt>
      <trkpt lat="45.94205" lon="4.81705">
        <ele>266</ele>
        <time>2017-05-16T10:34:16Z</time>
      </trkpt>
      <trkpt lat="45.942" lon="4.81702">
        <ele>267</ele>
        <time>2017-05-16T10:34:17Z</time>
      </trkpt>
      <trkpt lat="45.94196" lon="4.81697">
        <ele>267</ele>
        <time>2017-05-16T10:34:18Z</time>
      </trkpt>
      <trkpt lat="45.94191" lon="4.81692">
        <ele>267</ele>
        <time>2017-05-16T10:34:19Z</time>
      </trkpt>
      <trkpt lat="45.94187" lon="4.81685">
        <ele>267</ele>
        <time>2017-05-16T10:34:20Z</time>
      </trkpt>
      <trkpt lat="45.94184" lon="4.81677">
        <ele>268</ele>
        <time>2017-05-16T10:34:21Z</time>
      </trkpt>
      <trkpt lat="45.94181" lon="4.81669">
        <ele>268</ele>
        <time>2017-05-16T10:34:22Z</time>
      </trkpt>
      <trkpt lat="45.94178" lon="4.81659">
        <ele>268</ele>
        <time>2017-05-16T10:34:23Z</time>
      </trkpt>
      <trkpt lat="45.94175" lon="4.8165">
        <ele>268</ele>
        <time>2017-05-16T10:34:24Z</time>
      </trkpt>
      <trkpt lat="45.94172" lon="4.8164">
        <ele>268</ele>
        <time>2017-05-16T10:34:25Z</time>
      </trkpt>
      <trkpt lat="45.9417" lon="4.81629">
        <ele>267</ele>
        <time>2017-05-16T10:34:26Z</time>
      </trkpt>
      <trkpt lat="45.94167" lon="4.81618">
        <ele>267</ele>
        <time>2017-05-16T10:34:27Z</time>
      </trkpt>
      <trkpt lat="45.94165" lon="4.81607">
        <ele>267</ele>
        <time>2017-05-16T10:34:28Z</time>
      </trkpt>
      <trkpt lat="45.94163" lon="4.81596">
        <ele>267</ele>
        <time>2017-05-16T10:34:29Z</time>
      </trkpt>
      <trkpt lat="45.9416" lon="4.81586">
        <ele>267</ele>
        <time>2017-05-16T10:34:30Z</time>
      </trkpt>
      <trkpt lat="45.94158" lon="4.81576">
        <ele>266</ele>
        <time>2017-05-16T10:34:31Z</time>
      </trkpt>
      <trkpt lat="45.94157" lon="4.81565">
        <ele>265</ele>
        <time>2017-05-16T10:34:32Z</time>
      </trkpt>
      <trkpt lat="45.94155" lon="4.81554">
        <ele>264</ele>
        <time>2017-05-16T10:34:33Z</time>
      </trkpt>
      <trkpt lat="45.94154" lon="4.81543">
        <ele>264</ele>
        <time>2017-05-16T10:34:34Z</time>
      </trkpt>
      <trkpt lat="45.94153" lon="4.8153">
        <ele>264</ele>
        <time>2017-05-16T10:34:35Z</time>
      </trkpt>
      <trkpt lat="45.94153" lon="4.81518">
        <ele>263</ele>
        <time>2017-05-16T10:34:36Z</time>
      </trkpt>
      <trkpt lat="45.94156" lon="4.81503">
        <ele>263</ele>
        <time>2017-05-16T10:34:37Z</time>
      </trkpt>
      <trkpt lat="45.94159" lon="4.81488">
        <ele>260</ele>
        <time>2017-05-16T10:34:38Z</time>
      </trkpt>
      <trkpt lat="45.94161" lon="4.81474">
        <ele>258</ele>
        <time>2017-05-16T10:34:39Z</time>
      </trkpt>
      <trkpt lat="45.94162" lon="4.81459">
        <ele>257</ele>
        <time>2017-05-16T10:34:40Z</time>
      </trkpt>
      <trkpt lat="45.94164" lon="4.81446">
        <ele>257</ele>
        <time>2017-05-16T10:34:41Z</time>
      </trkpt>
      <trkpt lat="45.94165" lon="4.81432">
        <ele>256</ele>
        <time>2017-05-16T10:34:42Z</time>
      </trkpt>
      <trkpt lat="45.94166" lon="4.81419">
        <ele>256</ele>
        <time>2017-05-16T10:34:43Z</time>
      </trkpt>
      <trkpt lat="45.94168" lon="4.81405">
        <ele>257</ele>
        <time>2017-05-16T10:34:44Z</time>
      </trkpt>
      <trkpt lat="45.94169" lon="4.8139">
        <ele>258</ele>
        <time>2017-05-16T10:34:45Z</time>
      </trkpt>
      <trkpt lat="45.94171" lon="4.81376">
        <ele>258</ele>
        <time>2017-05-16T10:34:46Z</time>
      </trkpt>
      <trkpt lat="45.94173" lon="4.81361">
        <ele>257</ele>
        <time>2017-05-16T10:34:47Z</time>
      </trkpt>
      <trkpt lat="45.94174" lon="4.81346">
        <ele>255</ele>
        <time>2017-05-16T10:34:48Z</time>
      </trkpt>
      <trkpt lat="45.94176" lon="4.8133">
        <ele>254</ele>
        <time>2017-05-16T10:34:49Z</time>
      </trkpt>
      <trkpt lat="45.94177" lon="4.81313">
        <ele>255</ele>
        <time>2017-05-16T10:34:50Z</time>
      </trkpt>
      <trkpt lat="45.94177" lon="4.81297">
        <ele>256</ele>
        <time>2017-05-16T10:34:51Z</time>
      </trkpt>
      <trkpt lat="45.94174" lon="4.81281">
        <ele>255</ele>
        <time>2017-05-16T10:34:52Z</time>
      </trkpt>
      <trkpt lat="45.94171" lon="4.81265">
        <ele>253</ele>
        <time>2017-05-16T10:34:53Z</time>
      </trkpt>
      <trkpt lat="45.94169" lon="4.81248">
        <ele>251</ele>
        <time>2017-05-16T10:34:54Z</time>
      </trkpt>
      <trkpt lat="45.94167" lon="4.8123">
        <ele>246</ele>
        <time>2017-05-16T10:34:55Z</time>
      </trkpt>
      <trkpt lat="45.94164" lon="4.81212">
        <ele>245</ele>
        <time>2017-05-16T10:34:56Z</time>
      </trkpt>
      <trkpt lat="45.94159" lon="4.81194">
        <ele>245</ele>
        <time>2017-05-16T10:34:57Z</time>
      </trkpt>
      <trkpt lat="45.94154" lon="4.81176">
        <ele>245</ele>
        <time>2017-05-16T10:34:58Z</time>
      </trkpt>
      <trkpt lat="45.94149" lon="4.81159">
        <ele>245</ele>
        <time>2017-05-16T10:34:59Z</time>
      </trkpt>
      <trkpt lat="45.94143" lon="4.81143">
        <ele>244</ele>
        <time>2017-05-16T10:35:00Z</time>
      </trkpt>
      <trkpt lat="45.94137" lon="4.81128">
        <ele>244</ele>
        <time>2017-05-16T10:35:01Z</time>
      </trkpt>
      <trkpt lat="45.94131" lon="4.81114">
        <ele>244</ele>
        <time>2017-05-16T10:35:02Z</time>
      </trkpt>
      <trkpt lat="45.94123" lon="4.811">
        <ele>244</ele>
        <time>2017-05-16T10:35:03Z</time>
      </trkpt>
      <trkpt lat="45.94115" lon="4.81087">
        <ele>242</ele>
        <time>2017-05-16T10:35:04Z</time>
      </trkpt>
      <trkpt lat="45.94108" lon="4.81071">
        <ele>244</ele>
        <time>2017-05-16T10:35:05Z</time>
      </trkpt>
      <trkpt lat="45.94101" lon="4.81057">
        <ele>244</ele>
        <time>2017-05-16T10:35:06Z</time>
      </trkpt>
      <trkpt lat="45.94095" lon="4.81041">
        <ele>244</ele>
        <time>2017-05-16T10:35:07Z</time>
      </trkpt>
      <trkpt lat="45.94089" lon="4.81026">
        <ele>244</ele>
        <time>2017-05-16T10:35:08Z</time>
      </trkpt>
      <trkpt lat="45.94084" lon="4.81009">
        <ele>242</ele>
        <time>2017-05-16T10:35:09Z</time>
      </trkpt>
      <trkpt lat="45.9408" lon="4.80994">
        <ele>237</ele>
        <time>2017-05-16T10:35:10Z</time>
      </trkpt>
      <trkpt lat="45.94078" lon="4.80977">
        <ele>234</ele>
        <time>2017-05-16T10:35:11Z</time>
      </trkpt>
      <trkpt lat="45.94076" lon="4.80961">
        <ele>233</ele>
        <time>2017-05-16T10:35:12Z</time>
      </trkpt>
      <trkpt lat="45.94073" lon="4.80945">
        <ele>233</ele>
        <time>2017-05-16T10:35:13Z</time>
      </trkpt>
      <trkpt lat="45.94072" lon="4.80929">
        <ele>234</ele>
        <time>2017-05-16T10:35:14Z</time>
      </trkpt>
      <trkpt lat="45.94069" lon="4.80913">
        <ele>234</ele>
        <time>2017-05-16T10:35:15Z</time>
      </trkpt>
      <trkpt lat="45.94067" lon="4.80897">
        <ele>232</ele>
        <time>2017-05-16T10:35:16Z</time>
      </trkpt>
      <trkpt lat="45.94064" lon="4.80882">
        <ele>231</ele>
        <time>2017-05-16T10:35:17Z</time>
      </trkpt>
      <trkpt lat="45.94062" lon="4.80866">
        <ele>231</ele>
        <time>2017-05-16T10:35:18Z</time>
      </trkpt>
      <trkpt lat="45.94061" lon="4.80849">
        <ele>232</ele>
        <time>2017-05-16T10:35:19Z</time>
      </trkpt>
      <trkpt lat="45.94059" lon="4.80833">
        <ele>232</ele>
        <time>2017-05-16T10:35:20Z</time>
      </trkpt>
      <trkpt lat="45.94057" lon="4.80817">
        <ele>231</ele>
        <time>2017-05-16T10:35:21Z</time>
      </trkpt>
      <trkpt lat="45.94054" lon="4.80801">
        <ele>230</ele>
        <time>2017-05-16T10:35:22Z</time>
      </trkpt>
      <trkpt lat="45.94051" lon="4.80786">
        <ele>229</ele>
        <time>2017-05-16T10:35:23Z</time>
      </trkpt>
      <trkpt lat="45.94048" lon="4.8077">
        <ele>229</ele>
        <time>2017-05-16T10:35:24Z</time>
      </trkpt>
      <trkpt lat="45.94045" lon="4.80755">
        <ele>228</ele>
        <time>2017-05-16T10:35:25Z</time>
      </trkpt>
      <trkpt lat="45.94042" lon="4.80739">
        <ele>227</ele>
        <time>2017-05-16T10:35:26Z</time>
      </trkpt>
      <trkpt lat="45.94041" lon="4.80723">
        <ele>227</ele>
        <time>2017-05-16T10:35:27Z</time>
      </trkpt>
      <trkpt lat="45.94039" lon="4.80708">
        <ele>226</ele>
        <time>2017-05-16T10:35:28Z</time>
      </trkpt>
      <trkpt lat="45.94037" lon="4.80693">
        <ele>226</ele>
        <time>2017-05-16T10:35:29Z</time>
      </trkpt>
      <trkpt lat="45.94035" lon="4.80678">
        <ele>225</ele>
        <time>2017-05-16T10:35:30Z</time>
      </trkpt>
      <trkpt lat="45.94033" lon="4.80662">
        <ele>225</ele>
        <time>2017-05-16T10:35:31Z</time>
      </trkpt>
      <trkpt lat="45.9403" lon="4.80647">
        <ele>225</ele>
        <time>2017-05-16T10:35:32Z</time>
      </trkpt>
      <trkpt lat="45.94028" lon="4.80631">
        <ele>225</ele>
        <time>2017-05-16T10:35:33Z</time>
      </trkpt>
      <trkpt lat="45.94026" lon="4.80616">
        <ele>225</ele>
        <time>2017-05-16T10:35:34Z</time>
      </trkpt>
      <trkpt lat="45.94025" lon="4.806">
        <ele>224</ele>
        <time>2017-05-16T10:35:35Z</time>
      </trkpt>
      <trkpt lat="45.94025" lon="4.80584">
        <ele>224</ele>
        <time>2017-05-16T10:35:36Z</time>
      </trkpt>
      <trkpt lat="45.94024" lon="4.80569">
        <ele>224</ele>
        <time>2017-05-16T10:35:37Z</time>
      </trkpt>
      <trkpt lat="45.94024" lon="4.80553">
        <ele>225</ele>
        <time>2017-05-16T10:35:38Z</time>
      </trkpt>
      <trkpt lat="45.94024" lon="4.80536">
        <ele>225</ele>
        <time>2017-05-16T10:35:39Z</time>
      </trkpt>
      <trkpt lat="45.94023" lon="4.80521">
        <ele>224</ele>
        <time>2017-05-16T10:35:40Z</time>
      </trkpt>
      <trkpt lat="45.94023" lon="4.80506">
        <ele>224</ele>
        <time>2017-05-16T10:35:41Z</time>
      </trkpt>
      <trkpt lat="45.94023" lon="4.8049">
        <ele>223</ele>
        <time>2017-05-16T10:35:42Z</time>
      </trkpt>
      <trkpt lat="45.94022" lon="4.80475">
        <ele>223</ele>
        <time>2017-05-16T10:35:43Z</time>
      </trkpt>
      <trkpt lat="45.94021" lon="4.80459">
        <ele>223</ele>
        <time>2017-05-16T10:35:44Z</time>
      </trkpt>
      <trkpt lat="45.94019" lon="4.80445">
        <ele>223</ele>
        <time>2017-05-16T10:35:45Z</time>
      </trkpt>
      <trkpt lat="45.94018" lon="4.8043">
        <ele>221</ele>
        <time>2017-05-16T10:35:46Z</time>
      </trkpt>
      <trkpt lat="45.94015" lon="4.80415">
        <ele>218</ele>
        <time>2017-05-16T10:35:47Z</time>
      </trkpt>
      <trkpt lat="45.94011" lon="4.80401">
        <ele>217</ele>
        <time>2017-05-16T10:35:48Z</time>
      </trkpt>
      <trkpt lat="45.94009" lon="4.80384">
        <ele>217</ele>
        <time>2017-05-16T10:35:49Z</time>
      </trkpt>
      <trkpt lat="45.94007" lon="4.80367">
        <ele>215</ele>
        <time>2017-05-16T10:35:50Z</time>
      </trkpt>
      <trkpt lat="45.94002" lon="4.80349">
        <ele>212</ele>
        <time>2017-05-16T10:35:51Z</time>
      </trkpt>
      <trkpt lat="45.93997" lon="4.80333">
        <ele>206</ele>
        <time>2017-05-16T10:35:52Z</time>
      </trkpt>
      <trkpt lat="45.93993" lon="4.80319">
        <ele>204</ele>
        <time>2017-05-16T10:35:53Z</time>
      </trkpt>
      <trkpt lat="45.9399" lon="4.80305">
        <ele>203</ele>
        <time>2017-05-16T10:35:54Z</time>
      </trkpt>
      <trkpt lat="45.93986" lon="4.80292">
        <ele>203</ele>
        <time>2017-05-16T10:35:55Z</time>
      </trkpt>
      <trkpt lat="45.93982" lon="4.80279">
        <ele>203</ele>
        <time>2017-05-16T10:35:56Z</time>
      </trkpt>
      <trkpt lat="45.93978" lon="4.80265">
        <ele>203</ele>
        <time>2017-05-16T10:35:57Z</time>
      </trkpt>
      <trkpt lat="45.93974" lon="4.80251">
        <ele>203</ele>
        <time>2017-05-16T10:35:58Z</time>
      </trkpt>
      <trkpt lat="45.93969" lon="4.80238">
        <ele>205</ele>
        <time>2017-05-16T10:35:59Z</time>
      </trkpt>
      <trkpt lat="45.93965" lon="4.80225">
        <ele>205</ele>
        <time>2017-05-16T10:36:00Z</time>
      </trkpt>
      <trkpt lat="45.93962" lon="4.80211">
        <ele>205</ele>
        <time>2017-05-16T10:36:01Z</time>
      </trkpt>
      <trkpt lat="45.93958" lon="4.80199">
        <ele>206</ele>
        <time>2017-05-16T10:36:02Z</time>
      </trkpt>
      <trkpt lat="45.93955" lon="4.80186">
        <ele>206</ele>
        <time>2017-05-16T10:36:03Z</time>
      </trkpt>
      <trkpt lat="45.93953" lon="4.80174">
        <ele>206</ele>
        <time>2017-05-16T10:36:04Z</time>
      </trkpt>
      <trkpt lat="45.9395" lon="4.80162">
        <ele>208</ele>
        <time>2017-05-16T10:36:05Z</time>
      </trkpt>
      <trkpt lat="45.93948" lon="4.8015">
        <ele>208</ele>
        <time>2017-05-16T10:36:06Z</time>
      </trkpt>
      <trkpt lat="45.93948" lon="4.80137">
        <ele>209</ele>
        <time>2017-05-16T10:36:07Z</time>
      </trkpt>
      <trkpt lat="45.93947" lon="4.80124">
        <ele>209</ele>
        <time>2017-05-16T10:36:08Z</time>
      </trkpt>
      <trkpt lat="45.93946" lon="4.80111">
        <ele>209</ele>
        <time>2017-05-16T10:36:09Z</time>
      </trkpt>
      <trkpt lat="45.93946" lon="4.80099">
        <ele>209</ele>
        <time>2017-05-16T10:36:10Z</time>
      </trkpt>
      <trkpt lat="45.93946" lon="4.80086">
        <ele>209</ele>
        <time>2017-05-16T10:36:11Z</time>
      </trkpt>
      <trkpt lat="45.93946" lon="4.80074">
        <ele>208</ele>
        <time>2017-05-16T10:36:12Z</time>
      </trkpt>
      <trkpt lat="45.93947" lon="4.80062">
        <ele>208</ele>
        <time>2017-05-16T10:36:13Z</time>
      </trkpt>
      <trkpt lat="45.93949" lon="4.80049">
        <ele>208</ele>
        <time>2017-05-16T10:36:14Z</time>
      </trkpt>
      <trkpt lat="45.9395" lon="4.80038">
        <ele>208</ele>
        <time>2017-05-16T10:36:15Z</time>
      </trkpt>
      <trkpt lat="45.93951" lon="4.80026">
        <ele>207</ele>
        <time>2017-05-16T10:36:16Z</time>
      </trkpt>
      <trkpt lat="45.93951" lon="4.80015">
        <ele>207</ele>
        <time>2017-05-16T10:36:17Z</time>
      </trkpt>
      <trkpt lat="45.93952" lon="4.80004">
        <ele>207</ele>
        <time>2017-05-16T10:36:18Z</time>
      </trkpt>
      <trkpt lat="45.93954" lon="4.79993">
        <ele>205</ele>
        <time>2017-05-16T10:36:19Z</time>
      </trkpt>
      <trkpt lat="45.93955" lon="4.79983">
        <ele>205</ele>
        <time>2017-05-16T10:36:20Z</time>
      </trkpt>
      <trkpt lat="45.93957" lon="4.79973">
        <ele>205</ele>
        <time>2017-05-16T10:36:21Z</time>
      </trkpt>
      <trkpt lat="45.93958" lon="4.79963">
        <ele>205</ele>
        <time>2017-05-16T10:36:22Z</time>
      </trkpt>
      <trkpt lat="45.93958" lon="4.79954">
        <ele>205</ele>
        <time>2017-05-16T10:36:23Z</time>
      </trkpt>
      <trkpt lat="45.93959" lon="4.79944">
        <ele>205</ele>
        <time>2017-05-16T10:36:24Z</time>
      </trkpt>
      <trkpt lat="45.9396" lon="4.79934">
        <ele>205</ele>
        <time>2017-05-16T10:36:25Z</time>
      </trkpt>
      <trkpt lat="45.93961" lon="4.79925">
        <ele>205</ele>
        <time>2017-05-16T10:36:26Z</time>
      </trkpt>
      <trkpt lat="45.93962" lon="4.79915">
        <ele>206</ele>
        <time>2017-05-16T10:36:27Z</time>
      </trkpt>
      <trkpt lat="45.93963" lon="4.79906">
        <ele>206</ele>
        <time>2017-05-16T10:36:28Z</time>
      </trkpt>
      <trkpt lat="45.93965" lon="4.79896">
        <ele>206</ele>
        <time>2017-05-16T10:36:29Z</time>
      </trkpt>
      <trkpt lat="45.93966" lon="4.79886">
        <ele>206</ele>
        <time>2017-05-16T10:36:30Z</time>
      </trkpt>
      <trkpt lat="45.93968" lon="4.79876">
        <ele>206</ele>
        <time>2017-05-16T10:36:31Z</time>
      </trkpt>
      <trkpt lat="45.93969" lon="4.79867">
        <ele>206</ele>
        <time>2017-05-16T10:36:32Z</time>
      </trkpt>
      <trkpt lat="45.93971" lon="4.79858">
        <ele>206</ele>
        <time>2017-05-16T10:36:33Z</time>
      </trkpt>
      <trkpt lat="45.93972" lon="4.79849">
        <ele>207</ele>
        <time>2017-05-16T10:36:34Z</time>
      </trkpt>
      <trkpt lat="45.93974" lon="4.79841">
        <ele>207</ele>
        <time>2017-05-16T10:36:35Z</time>
      </trkpt>
      <trkpt lat="45.93974" lon="4.79833">
        <ele>207</ele>
        <time>2017-05-16T10:36:36Z</time>
      </trkpt>
      <trkpt lat="45.93974" lon="4.79822">
        <ele>207</ele>
        <time>2017-05-16T10:36:37Z</time>
      </trkpt>
      <trkpt lat="45.93974" lon="4.79812">
        <ele>207</ele>
        <time>2017-05-16T10:36:38Z</time>
      </trkpt>
      <trkpt lat="45.93975" lon="4.79802">
        <ele>207</ele>
        <time>2017-05-16T10:36:39Z</time>
      </trkpt>
      <trkpt lat="45.93976" lon="4.79791">
        <ele>206</ele>
        <time>2017-05-16T10:36:40Z</time>
      </trkpt>
      <trkpt lat="45.93976" lon="4.79781">
        <ele>206</ele>
        <time>2017-05-16T10:36:41Z</time>
      </trkpt>
      <trkpt lat="45.93976" lon="4.7977">
        <ele>206</ele>
        <time>2017-05-16T10:36:42Z</time>
      </trkpt>
      <trkpt lat="45.93976" lon="4.7976">
        <ele>207</ele>
        <time>2017-05-16T10:36:43Z</time>
      </trkpt>
      <trkpt lat="45.93975" lon="4.79749">
        <ele>207</ele>
        <time>2017-05-16T10:36:44Z</time>
      </trkpt>
      <trkpt lat="45.93974" lon="4.79738">
        <ele>207</ele>
        <time>2017-05-16T10:36:45Z</time>
      </trkpt>
      <trkpt lat="45.93973" lon="4.79728">
        <ele>207</ele>
        <time>2017-05-16T10:36:46Z</time>
      </trkpt>
      <trkpt lat="45.93972" lon="4.79717">
        <ele>207</ele>
        <time>2017-05-16T10:36:47Z</time>
      </trkpt>
      <trkpt lat="45.93972" lon="4.79705">
        <ele>207</ele>
        <time>2017-05-16T10:36:48Z</time>
      </trkpt>
      <trkpt lat="45.93971" lon="4.79694">
        <ele>207</ele>
        <time>2017-05-16T10:36:49Z</time>
      </trkpt>
      <trkpt lat="45.93971" lon="4.79683">
        <ele>207</ele>
        <time>2017-05-16T10:36:50Z</time>
      </trkpt>
      <trkpt lat="45.9397" lon="4.79673">
        <ele>208</ele>
        <time>2017-05-16T10:36:51Z</time>
      </trkpt>
      <trkpt lat="45.93969" lon="4.79661">
        <ele>208</ele>
        <time>2017-05-16T10:36:52Z</time>
      </trkpt>
      <trkpt lat="45.93969" lon="4.7965">
        <ele>208</ele>
        <time>2017-05-16T10:36:53Z</time>
      </trkpt>
      <trkpt lat="45.93968" lon="4.7964">
        <ele>207</ele>
        <time>2017-05-16T10:36:54Z</time>
      </trkpt>
      <trkpt lat="45.93968" lon="4.79629">
        <ele>207</ele>
        <time>2017-05-16T10:36:55Z</time>
      </trkpt>
      <trkpt lat="45.93967" lon="4.79619">
        <ele>207</ele>
        <time>2017-05-16T10:36:56Z</time>
      </trkpt>
      <trkpt lat="45.93966" lon="4.79608">
        <ele>207</ele>
        <time>2017-05-16T10:36:57Z</time>
      </trkpt>
      <trkpt lat="45.93965" lon="4.79597">
        <ele>207</ele>
        <time>2017-05-16T10:36:58Z</time>
      </trkpt>
      <trkpt lat="45.93964" lon="4.79587">
        <ele>207</ele>
        <time>2017-05-16T10:36:59Z</time>
      </trkpt>
      <trkpt lat="45.93962" lon="4.79577">
        <ele>206</ele>
        <time>2017-05-16T10:37:00Z</time>
      </trkpt>
      <trkpt lat="45.93962" lon="4.79566">
        <ele>206</ele>
        <time>2017-05-16T10:37:01Z</time>
      </trkpt>
      <trkpt lat="45.93961" lon="4.79555">
        <ele>205</ele>
        <time>2017-05-16T10:37:02Z</time>
      </trkpt>
      <trkpt lat="45.9396" lon="4.79545">
        <ele>205</ele>
        <time>2017-05-16T10:37:03Z</time>
      </trkpt>
      <trkpt lat="45.9396" lon="4.79533">
        <ele>205</ele>
        <time>2017-05-16T10:37:04Z</time>
      </trkpt>
      <trkpt lat="45.93959" lon="4.79522">
        <ele>205</ele>
        <time>2017-05-16T10:37:05Z</time>
      </trkpt>
      <trkpt lat="45.93958" lon="4.79511">
        <ele>205</ele>
        <time>2017-05-16T10:37:06Z</time>
      </trkpt>
      <trkpt lat="45.93958" lon="4.79499">
        <ele>203</ele>
        <time>2017-05-16T10:37:07Z</time>
      </trkpt>
      <trkpt lat="45.93957" lon="4.79488">
        <ele>203</ele>
        <time>2017-05-16T10:37:08Z</time>
      </trkpt>
      <trkpt lat="45.93957" lon="4.79477">
        <ele>203</ele>
        <time>2017-05-16T10:37:09Z</time>
      </trkpt>
      <trkpt lat="45.93958" lon="4.79466">
        <ele>203</ele>
        <time>2017-05-16T10:37:10Z</time>
      </trkpt>
      <trkpt lat="45.93958" lon="4.79454">
        <ele>203</ele>
        <time>2017-05-16T10:37:11Z</time>
      </trkpt>
      <trkpt lat="45.93959" lon="4.79442">
        <ele>203</ele>
        <time>2017-05-16T10:37:12Z</time>
      </trkpt>
      <trkpt lat="45.93959" lon="4.79431">
        <ele>203</ele>
        <time>2017-05-16T10:37:13Z</time>
      </trkpt>
      <trkpt lat="45.93959" lon="4.79419">
        <ele>203</ele>
        <time>2017-05-16T10:37:14Z</time>
      </trkpt>
      <trkpt lat="45.93959" lon="4.79407">
        <ele>202</ele>
        <time>2017-05-16T10:37:15Z</time>
      </trkpt>
      <trkpt lat="45.93958" lon="4.79395">
        <ele>202</ele>
        <time>2017-05-16T10:37:16Z</time>
      </trkpt>
      <trkpt lat="45.93957" lon="4.79382">
        <ele>201</ele>
        <time>2017-05-16T10:37:17Z</time>
      </trkpt>
      <trkpt lat="45.93957" lon="4.79369">
        <ele>201</ele>
        <time>2017-05-16T10:37:18Z</time>
      </trkpt>
      <trkpt lat="45.93957" lon="4.79356">
        <ele>201</ele>
        <time>2017-05-16T10:37:19Z</time>
      </trkpt>
      <trkpt lat="45.93957" lon="4.79344">
        <ele>201</ele>
        <time>2017-05-16T10:37:20Z</time>
      </trkpt>
      <trkpt lat="45.93957" lon="4.79331">
        <ele>199</ele>
        <time>2017-05-16T10:37:21Z</time>
      </trkpt>
      <trkpt lat="45.93957" lon="4.79319">
        <ele>199</ele>
        <time>2017-05-16T10:37:22Z</time>
      </trkpt>
      <trkpt lat="45.93957" lon="4.79307">
        <ele>199</ele>
        <time>2017-05-16T10:37:23Z</time>
      </trkpt>
      <trkpt lat="45.93957" lon="4.79294">
        <ele>199</ele>
        <time>2017-05-16T10:37:24Z</time>
      </trkpt>
      <trkpt lat="45.93957" lon="4.79281">
        <ele>198</ele>
        <time>2017-05-16T10:37:25Z</time>
      </trkpt>
      <trkpt lat="45.93956" lon="4.79269">
        <ele>198</ele>
        <time>2017-05-16T10:37:26Z</time>
      </trkpt>
      <trkpt lat="45.93956" lon="4.79257">
        <ele>198</ele>
        <time>2017-05-16T10:37:27Z</time>
      </trkpt>
      <trkpt lat="45.93956" lon="4.79244">
        <ele>197</ele>
        <time>2017-05-16T10:37:28Z</time>
      </trkpt>
      <trkpt lat="45.93956" lon="4.79231">
        <ele>197</ele>
        <time>2017-05-16T10:37:29Z</time>
      </trkpt>
      <trkpt lat="45.93956" lon="4.79219">
        <ele>197</ele>
        <time>2017-05-16T10:37:30Z</time>
      </trkpt>
      <trkpt lat="45.93957" lon="4.79207">
        <ele>197</ele>
        <time>2017-05-16T10:37:31Z</time>
      </trkpt>
      <trkpt lat="45.93957" lon="4.79195">
        <ele>197</ele>
        <time>2017-05-16T10:37:32Z</time>
      </trkpt>
      <trkpt lat="45.93956" lon="4.79183">
        <ele>197</ele>
        <time>2017-05-16T10:37:33Z</time>
      </trkpt>
      <trkpt lat="45.93956" lon="4.79172">
        <ele>197</ele>
        <time>2017-05-16T10:37:34Z</time>
      </trkpt>
      <trkpt lat="45.93956" lon="4.7916">
        <ele>197</ele>
        <time>2017-05-16T10:37:35Z</time>
      </trkpt>
      <trkpt lat="45.93955" lon="4.79148">
        <ele>197</ele>
        <time>2017-05-16T10:37:36Z</time>
      </trkpt>
      <trkpt lat="45.93952" lon="4.79136">
        <ele>197</ele>
        <time>2017-05-16T10:37:37Z</time>
      </trkpt>
      <trkpt lat="45.93952" lon="4.79125">
        <ele>197</ele>
        <time>2017-05-16T10:37:38Z</time>
      </trkpt>
      <trkpt lat="45.93951" lon="4.79114">
        <ele>197</ele>
        <time>2017-05-16T10:37:39Z</time>
      </trkpt>
      <trkpt lat="45.93951" lon="4.79103">
        <ele>197</ele>
        <time>2017-05-16T10:37:40Z</time>
      </trkpt>
      <trkpt lat="45.9395" lon="4.79091">
        <ele>196</ele>
        <time>2017-05-16T10:37:41Z</time>
      </trkpt>
      <trkpt lat="45.93949" lon="4.7908">
        <ele>196</ele>
        <time>2017-05-16T10:37:42Z</time>
      </trkpt>
      <trkpt lat="45.93949" lon="4.79068">
        <ele>196</ele>
        <time>2017-05-16T10:37:43Z</time>
      </trkpt>
      <trkpt lat="45.93948" lon="4.79057">
        <ele>196</ele>
        <time>2017-05-16T10:37:44Z</time>
      </trkpt>
      <trkpt lat="45.93948" lon="4.79045">
        <ele>196</ele>
        <time>2017-05-16T10:37:45Z</time>
      </trkpt>
      <trkpt lat="45.93948" lon="4.79034">
        <ele>196</ele>
        <time>2017-05-16T10:37:46Z</time>
      </trkpt>
      <trkpt lat="45.93948" lon="4.79023">
        <ele>195</ele>
        <time>2017-05-16T10:37:47Z</time>
      </trkpt>
      <trkpt lat="45.93948" lon="4.79012">
        <ele>195</ele>
        <time>2017-05-16T10:37:48Z</time>
      </trkpt>
      <trkpt lat="45.93948" lon="4.79002">
        <ele>195</ele>
        <time>2017-05-16T10:37:49Z</time>
      </trkpt>
      <trkpt lat="45.93948" lon="4.78991">
        <ele>194</ele>
        <time>2017-05-16T10:37:50Z</time>
      </trkpt>
      <trkpt lat="45.93947" lon="4.7898">
        <ele>194</ele>
        <time>2017-05-16T10:37:51Z</time>
      </trkpt>
      <trkpt lat="45.93946" lon="4.7897">
        <ele>194</ele>
        <time>2017-05-16T10:37:52Z</time>
      </trkpt>
      <trkpt lat="45.93946" lon="4.78959">
        <ele>194</ele>
        <time>2017-05-16T10:37:53Z</time>
      </trkpt>
      <trkpt lat="45.93946" lon="4.78948">
        <ele>194</ele>
        <time>2017-05-16T10:37:54Z</time>
      </trkpt>
      <trkpt lat="45.93946" lon="4.78937">
        <ele>194</ele>
        <time>2017-05-16T10:37:55Z</time>
      </trkpt>
      <trkpt lat="45.93946" lon="4.78927">
        <ele>194</ele>
        <time>2017-05-16T10:37:56Z</time>
      </trkpt>
      <trkpt lat="45.93946" lon="4.78917">
        <ele>194</ele>
        <time>2017-05-16T10:37:57Z</time>
      </trkpt>
      <trkpt lat="45.93946" lon="4.78907">
        <ele>193</ele>
        <time>2017-05-16T10:37:58Z</time>
      </trkpt>
      <trkpt lat="45.93945" lon="4.78897">
        <ele>194</ele>
        <time>2017-05-16T10:37:59Z</time>
      </trkpt>
      <trkpt lat="45.93945" lon="4.78887">
        <ele>194</ele>
        <time>2017-05-16T10:38:00Z</time>
      </trkpt>
      <trkpt lat="45.93945" lon="4.78877">
        <ele>194</ele>
        <time>2017-05-16T10:38:01Z</time>
      </trkpt>
      <trkpt lat="45.93945" lon="4.78867">
        <ele>194</ele>
        <time>2017-05-16T10:38:02Z</time>
      </trkpt>
      <trkpt lat="45.93944" lon="4.78857">
        <ele>194</ele>
        <time>2017-05-16T10:38:03Z</time>
      </trkpt>
      <trkpt lat="45.93944" lon="4.78847">
        <ele>194</ele>
        <time>2017-05-16T10:38:04Z</time>
      </trkpt>
      <trkpt lat="45.93943" lon="4.78838">
        <ele>194</ele>
        <time>2017-05-16T10:38:05Z</time>
      </trkpt>
      <trkpt lat="45.93943" lon="4.78828">
        <ele>194</ele>
        <time>2017-05-16T10:38:06Z</time>
      </trkpt>
      <trkpt lat="45.93942" lon="4.78819">
        <ele>194</ele>
        <time>2017-05-16T10:38:07Z</time>
      </trkpt>
      <trkpt lat="45.93942" lon="4.7881">
        <ele>194</ele>
        <time>2017-05-16T10:38:08Z</time>
      </trkpt>
      <trkpt lat="45.93942" lon="4.78802">
        <ele>194</ele>
        <time>2017-05-16T10:38:09Z</time>
      </trkpt>
      <trkpt lat="45.93941" lon="4.78793">
        <ele>194</ele>
        <time>2017-05-16T10:38:10Z</time>
      </trkpt>
      <trkpt lat="45.93941" lon="4.78784">
        <ele>194</ele>
        <time>2017-05-16T10:38:11Z</time>
      </trkpt>
      <trkpt lat="45.93941" lon="4.78775">
        <ele>194</ele>
        <time>2017-05-16T10:38:12Z</time>
      </trkpt>
      <trkpt lat="45.93941" lon="4.78765">
        <ele>194</ele>
        <time>2017-05-16T10:38:13Z</time>
      </trkpt>
      <trkpt lat="45.93941" lon="4.78756">
        <ele>193</ele>
        <time>2017-05-16T10:38:14Z</time>
      </trkpt>
      <trkpt lat="45.93942" lon="4.78746">
        <ele>194</ele>
        <time>2017-05-16T10:38:15Z</time>
      </trkpt>
      <trkpt lat="45.93942" lon="4.78736">
        <ele>194</ele>
        <time>2017-05-16T10:38:16Z</time>
      </trkpt>
      <trkpt lat="45.93943" lon="4.78726">
        <ele>194</ele>
        <time>2017-05-16T10:38:17Z</time>
      </trkpt>
      <trkpt lat="45.93943" lon="4.78717">
        <ele>194</ele>
        <time>2017-05-16T10:38:18Z</time>
      </trkpt>
      <trkpt lat="45.93944" lon="4.78707">
        <ele>194</ele>
        <time>2017-05-16T10:38:19Z</time>
      </trkpt>
      <trkpt lat="45.93943" lon="4.78696">
        <ele>194</ele>
        <time>2017-05-16T10:38:20Z</time>
      </trkpt>
      <trkpt lat="45.93943" lon="4.78686">
        <ele>194</ele>
        <time>2017-05-16T10:38:21Z</time>
      </trkpt>
      <trkpt lat="45.93943" lon="4.78676">
        <ele>194</ele>
        <time>2017-05-16T10:38:22Z</time>
      </trkpt>
      <trkpt lat="45.93943" lon="4.78666">
        <ele>195</ele>
        <time>2017-05-16T10:38:23Z</time>
      </trkpt>
      <trkpt lat="45.93944" lon="4.78656">
        <ele>195</ele>
        <time>2017-05-16T10:38:24Z</time>
      </trkpt>
      <trkpt lat="45.93943" lon="4.78646">
        <ele>195</ele>
        <time>2017-05-16T10:38:25Z</time>
      </trkpt>
      <trkpt lat="45.93943" lon="4.78637">
        <ele>195</ele>
        <time>2017-05-16T10:38:26Z</time>
      </trkpt>
      <trkpt lat="45.93943" lon="4.78628">
        <ele>196</ele>
        <time>2017-05-16T10:38:27Z</time>
      </trkpt>
      <trkpt lat="45.93943" lon="4.78619">
        <ele>196</ele>
        <time>2017-05-16T10:38:28Z</time>
      </trkpt>
      <trkpt lat="45.93942" lon="4.7861">
        <ele>196</ele>
        <time>2017-05-16T10:38:29Z</time>
      </trkpt>
      <trkpt lat="45.93941" lon="4.78602">
        <ele>196</ele>
        <time>2017-05-16T10:38:30Z</time>
      </trkpt>
      <trkpt lat="45.93941" lon="4.78594">
        <ele>196</ele>
        <time>2017-05-16T10:38:31Z</time>
      </trkpt>
      <trkpt lat="45.93941" lon="4.78587">
        <ele>196</ele>
        <time>2017-05-16T10:38:32Z</time>
      </trkpt>
      <trkpt lat="45.9394" lon="4.7858">
        <ele>196</ele>
        <time>2017-05-16T10:38:33Z</time>
      </trkpt>
      <trkpt lat="45.93938" lon="4.78567">
        <ele>197</ele>
        <time>2017-05-16T10:38:35Z</time>
      </trkpt>
      <trkpt lat="45.93937" lon="4.78562">
        <ele>197</ele>
        <time>2017-05-16T10:38:36Z</time>
      </trkpt>
      <trkpt lat="45.93937" lon="4.78552">
        <ele>197</ele>
        <time>2017-05-16T10:38:38Z</time>
      </trkpt>
      <trkpt lat="45.93938" lon="4.78546">
        <ele>197</ele>
        <time>2017-05-16T10:38:39Z</time>
      </trkpt>
      <trkpt lat="45.93939" lon="4.7854">
        <ele>197</ele>
        <time>2017-05-16T10:38:40Z</time>
      </trkpt>
      <trkpt lat="45.9394" lon="4.78533">
        <ele>197</ele>
        <time>2017-05-16T10:38:41Z</time>
      </trkpt>
      <trkpt lat="45.9394" lon="4.78526">
        <ele>197</ele>
        <time>2017-05-16T10:38:42Z</time>
      </trkpt>
      <trkpt lat="45.9394" lon="4.78519">
        <ele>197</ele>
        <time>2017-05-16T10:38:43Z</time>
      </trkpt>
      <trkpt lat="45.93941" lon="4.78512">
        <ele>197</ele>
        <time>2017-05-16T10:38:44Z</time>
      </trkpt>
      <trkpt lat="45.93941" lon="4.78506">
        <ele>197</ele>
        <time>2017-05-16T10:38:45Z</time>
      </trkpt>
      <trkpt lat="45.93942" lon="4.78493">
        <ele>197</ele>
        <time>2017-05-16T10:38:47Z</time>
      </trkpt>
      <trkpt lat="45.93943" lon="4.78486">
        <ele>197</ele>
        <time>2017-05-16T10:38:48Z</time>
      </trkpt>
      <trkpt lat="45.93944" lon="4.78479">
        <ele>197</ele>
        <time>2017-05-16T10:38:49Z</time>
      </trkpt>
      <trkpt lat="45.93945" lon="4.78473">
        <ele>197</ele>
        <time>2017-05-16T10:38:50Z</time>
      </trkpt>
      <trkpt lat="45.93946" lon="4.78466">
        <ele>197</ele>
        <time>2017-05-16T10:38:51Z</time>
      </trkpt>
      <trkpt lat="45.93946" lon="4.78459">
        <ele>197</ele>
        <time>2017-05-16T10:38:52Z</time>
      </trkpt>
      <trkpt lat="45.93948" lon="4.78452">
        <ele>197</ele>
        <time>2017-05-16T10:38:53Z</time>
      </trkpt>
      <trkpt lat="45.93949" lon="4.78445">
        <ele>197</ele>
        <time>2017-05-16T10:38:54Z</time>
      </trkpt>
      <trkpt lat="45.9395" lon="4.78438">
        <ele>197</ele>
        <time>2017-05-16T10:38:55Z</time>
      </trkpt>
      <trkpt lat="45.9395" lon="4.78431">
        <ele>197</ele>
        <time>2017-05-16T10:38:56Z</time>
      </trkpt>
      <trkpt lat="45.93951" lon="4.78424">
        <ele>197</ele>
        <time>2017-05-16T10:38:57Z</time>
      </trkpt>
      <trkpt lat="45.93952" lon="4.78417">
        <ele>197</ele>
        <time>2017-05-16T10:38:58Z</time>
      </trkpt>
      <trkpt lat="45.93955" lon="4.7841">
        <ele>196</ele>
        <time>2017-05-16T10:38:59Z</time>
      </trkpt>
      <trkpt lat="45.93957" lon="4.78403">
        <ele>197</ele>
        <time>2017-05-16T10:39:00Z</time>
      </trkpt>
      <trkpt lat="45.93958" lon="4.78396">
        <ele>197</ele>
        <time>2017-05-16T10:39:01Z</time>
      </trkpt>
      <trkpt lat="45.93959" lon="4.7839">
        <ele>197</ele>
        <time>2017-05-16T10:39:02Z</time>
      </trkpt>
      <trkpt lat="45.9396" lon="4.78377">
        <ele>197</ele>
        <time>2017-05-16T10:39:04Z</time>
      </trkpt>
      <trkpt lat="45.93961" lon="4.78371">
        <ele>197</ele>
        <time>2017-05-16T10:39:05Z</time>
      </trkpt>
      <trkpt lat="45.93962" lon="4.78364">
        <ele>197</ele>
        <time>2017-05-16T10:39:06Z</time>
      </trkpt>
      <trkpt lat="45.93962" lon="4.78357">
        <ele>197</ele>
        <time>2017-05-16T10:39:07Z</time>
      </trkpt>
      <trkpt lat="45.93963" lon="4.78349">
        <ele>197</ele>
        <time>2017-05-16T10:39:08Z</time>
      </trkpt>
      <trkpt lat="45.93964" lon="4.78341">
        <ele>197</ele>
        <time>2017-05-16T10:39:09Z</time>
      </trkpt>
      <trkpt lat="45.93964" lon="4.78334">
        <ele>197</ele>
        <time>2017-05-16T10:39:10Z</time>
      </trkpt>
      <trkpt lat="45.93965" lon="4.78327">
        <ele>196</ele>
        <time>2017-05-16T10:39:11Z</time>
      </trkpt>
      <trkpt lat="45.93966" lon="4.7832">
        <ele>196</ele>
        <time>2017-05-16T10:39:12Z</time>
      </trkpt>
      <trkpt lat="45.93966" lon="4.78314">
        <ele>196</ele>
        <time>2017-05-16T10:39:13Z</time>
      </trkpt>
      <trkpt lat="45.93967" lon="4.78308">
        <ele>196</ele>
        <time>2017-05-16T10:39:14Z</time>
      </trkpt>
      <trkpt lat="45.93969" lon="4.78301">
        <ele>196</ele>
        <time>2017-05-16T10:39:15Z</time>
      </trkpt>
      <trkpt lat="45.9397" lon="4.78295">
        <ele>196</ele>
        <time>2017-05-16T10:39:16Z</time>
      </trkpt>
      <trkpt lat="45.93971" lon="4.78289">
        <ele>196</ele>
        <time>2017-05-16T10:39:17Z</time>
      </trkpt>
      <trkpt lat="45.93972" lon="4.78282">
        <ele>196</ele>
        <time>2017-05-16T10:39:18Z</time>
      </trkpt>
      <trkpt lat="45.93973" lon="4.78275">
        <ele>196</ele>
        <time>2017-05-16T10:39:19Z</time>
      </trkpt>
      <trkpt lat="45.93974" lon="4.78263">
        <ele>196</ele>
        <time>2017-05-16T10:39:21Z</time>
      </trkpt>
      <trkpt lat="45.93974" lon="4.78256">
        <ele>196</ele>
        <time>2017-05-16T10:39:22Z</time>
      </trkpt>
      <trkpt lat="45.93975" lon="4.78249">
        <ele>197</ele>
        <time>2017-05-16T10:39:23Z</time>
      </trkpt>
      <trkpt lat="45.93975" lon="4.78243">
        <ele>197</ele>
        <time>2017-05-16T10:39:24Z</time>
      </trkpt>
      <trkpt lat="45.93976" lon="4.78236">
        <ele>197</ele>
        <time>2017-05-16T10:39:25Z</time>
      </trkpt>
      <trkpt lat="45.93978" lon="4.78229">
        <ele>197</ele>
        <time>2017-05-16T10:39:26Z</time>
      </trkpt>
      <trkpt lat="45.93979" lon="4.78222">
        <ele>197</ele>
        <time>2017-05-16T10:39:27Z</time>
      </trkpt>
      <trkpt lat="45.93981" lon="4.78216">
        <ele>197</ele>
        <time>2017-05-16T10:39:28Z</time>
      </trkpt>
      <trkpt lat="45.93983" lon="4.78204">
        <ele>197</ele>
        <time>2017-05-16T10:39:30Z</time>
      </trkpt>
      <trkpt lat="45.93984" lon="4.78199">
        <ele>197</ele>
        <time>2017-05-16T10:39:31Z</time>
      </trkpt>
      <trkpt lat="45.93988" lon="4.78188">
        <ele>198</ele>
        <time>2017-05-16T10:39:33Z</time>
      </trkpt>
      <trkpt lat="45.93991" lon="4.78182">
        <ele>198</ele>
        <time>2017-05-16T10:39:34Z</time>
      </trkpt>
      <trkpt lat="45.93993" lon="4.78176">
        <ele>199</ele>
        <time>2017-05-16T10:39:35Z</time>
      </trkpt>
      <trkpt lat="45.93996" lon="4.78169">
        <ele>200</ele>
        <time>2017-05-16T10:39:36Z</time>
      </trkpt>
      <trkpt lat="45.93997" lon="4.78161">
        <ele>200</ele>
        <time>2017-05-16T10:39:37Z</time>
      </trkpt>
      <trkpt lat="45.93998" lon="4.78155">
        <ele>199</ele>
        <time>2017-05-16T10:39:38Z</time>
      </trkpt>
      <trkpt lat="45.93999" lon="4.78144">
        <ele>198</ele>
        <time>2017-05-16T10:39:40Z</time>
      </trkpt>
      <trkpt lat="45.94001" lon="4.78138">
        <ele>203</ele>
        <time>2017-05-16T10:39:41Z</time>
      </trkpt>
      <trkpt lat="45.94002" lon="4.78131">
        <ele>203</ele>
        <time>2017-05-16T10:39:42Z</time>
      </trkpt>
      <trkpt lat="45.94003" lon="4.78124">
        <ele>203</ele>
        <time>2017-05-16T10:39:43Z</time>
      </trkpt>
      <trkpt lat="45.94004" lon="4.78117">
        <ele>203</ele>
        <time>2017-05-16T10:39:44Z</time>
      </trkpt>
      <trkpt lat="45.94005" lon="4.78111">
        <ele>203</ele>
        <time>2017-05-16T10:39:45Z</time>
      </trkpt>
      <trkpt lat="45.94007" lon="4.78099">
        <ele>202</ele>
        <time>2017-05-16T10:39:47Z</time>
      </trkpt>
      <trkpt lat="45.94008" lon="4.78093">
        <ele>201</ele>
        <time>2017-05-16T10:39:48Z</time>
      </trkpt>
      <trkpt lat="45.94009" lon="4.78086">
        <ele>201</ele>
        <time>2017-05-16T10:39:49Z</time>
      </trkpt>
      <trkpt lat="45.94009" lon="4.7808">
        <ele>200</ele>
        <time>2017-05-16T10:39:50Z</time>
      </trkpt>
      <trkpt lat="45.9401" lon="4.78073">
        <ele>201</ele>
        <time>2017-05-16T10:39:51Z</time>
      </trkpt>
      <trkpt lat="45.94011" lon="4.78067">
        <ele>201</ele>
        <time>2017-05-16T10:39:52Z</time>
      </trkpt>
      <trkpt lat="45.94013" lon="4.78061">
        <ele>201</ele>
        <time>2017-05-16T10:39:53Z</time>
      </trkpt>
      <trkpt lat="45.94015" lon="4.78055">
        <ele>201</ele>
        <time>2017-05-16T10:39:54Z</time>
      </trkpt>
      <trkpt lat="45.94017" lon="4.78049">
        <ele>202</ele>
        <time>2017-05-16T10:39:55Z</time>
      </trkpt>
      <trkpt lat="45.94019" lon="4.78043">
        <ele>202</ele>
        <time>2017-05-16T10:39:56Z</time>
      </trkpt>
      <trkpt lat="45.9402" lon="4.78036">
        <ele>202</ele>
        <time>2017-05-16T10:39:57Z</time>
      </trkpt>
      <trkpt lat="45.94021" lon="4.7803">
        <ele>201</ele>
        <time>2017-05-16T10:39:58Z</time>
      </trkpt>
      <trkpt lat="45.94022" lon="4.78023">
        <ele>201</ele>
        <time>2017-05-16T10:39:59Z</time>
      </trkpt>
      <trkpt lat="45.94022" lon="4.78016">
        <ele>201</ele>
        <time>2017-05-16T10:40:00Z</time>
      </trkpt>
      <trkpt lat="45.94023" lon="4.78009">
        <ele>201</ele>
        <time>2017-05-16T10:40:01Z</time>
      </trkpt>
      <trkpt lat="45.94024" lon="4.78001">
        <ele>201</ele>
        <time>2017-05-16T10:40:02Z</time>
      </trkpt>
      <trkpt lat="45.94025" lon="4.77994">
        <ele>200</ele>
        <time>2017-05-16T10:40:03Z</time>
      </trkpt>
      <trkpt lat="45.94026" lon="4.77986">
        <ele>200</ele>
        <time>2017-05-16T10:40:04Z</time>
      </trkpt>
      <trkpt lat="45.94028" lon="4.77978">
        <ele>200</ele>
        <time>2017-05-16T10:40:05Z</time>
      </trkpt>
      <trkpt lat="45.94028" lon="4.7797">
        <ele>201</ele>
        <time>2017-05-16T10:40:06Z</time>
      </trkpt>
      <trkpt lat="45.94029" lon="4.77963">
        <ele>201</ele>
        <time>2017-05-16T10:40:07Z</time>
      </trkpt>
      <trkpt lat="45.94031" lon="4.77957">
        <ele>201</ele>
        <time>2017-05-16T10:40:08Z</time>
      </trkpt>
      <trkpt lat="45.94032" lon="4.77951">
        <ele>201</ele>
        <time>2017-05-16T10:40:09Z</time>
      </trkpt>
      <trkpt lat="45.94033" lon="4.77945">
        <ele>201</ele>
        <time>2017-05-16T10:40:10Z</time>
      </trkpt>
      <trkpt lat="45.94033" lon="4.77938">
        <ele>200</ele>
        <time>2017-05-16T10:40:11Z</time>
      </trkpt>
      <trkpt lat="45.94032" lon="4.77931">
        <ele>200</ele>
        <time>2017-05-16T10:40:12Z</time>
      </trkpt>
      <trkpt lat="45.94028" lon="4.77925">
        <ele>200</ele>
        <time>2017-05-16T10:40:13Z</time>
      </trkpt>
      <trkpt lat="45.94024" lon="4.77922">
        <ele>199</ele>
        <time>2017-05-16T10:40:14Z</time>
      </trkpt>
      <trkpt lat="45.94018" lon="4.7792">
        <ele>198</ele>
        <time>2017-05-16T10:40:15Z</time>
      </trkpt>
      <trkpt lat="45.9401" lon="4.77923">
        <ele>197</ele>
        <time>2017-05-16T10:40:16Z</time>
      </trkpt>
      <trkpt lat="45.94003" lon="4.77925">
        <ele>196</ele>
        <time>2017-05-16T10:40:17Z</time>
      </trkpt>
      <trkpt lat="45.93995" lon="4.77929">
        <ele>192</ele>
        <time>2017-05-16T10:40:18Z</time>
      </trkpt>
      <trkpt lat="45.93988" lon="4.77933">
        <ele>192</ele>
        <time>2017-05-16T10:40:19Z</time>
      </trkpt>
      <trkpt lat="45.9398" lon="4.77937">
        <ele>191</ele>
        <time>2017-05-16T10:40:20Z</time>
      </trkpt>
      <trkpt lat="45.93972" lon="4.77941">
        <ele>191</ele>
        <time>2017-05-16T10:40:21Z</time>
      </trkpt>
      <trkpt lat="45.93965" lon="4.77945">
        <ele>190</ele>
        <time>2017-05-16T10:40:22Z</time>
      </trkpt>
      <trkpt lat="45.93957" lon="4.7795">
        <ele>190</ele>
        <time>2017-05-16T10:40:23Z</time>
      </trkpt>
      <trkpt lat="45.93949" lon="4.77955">
        <ele>189</ele>
        <time>2017-05-16T10:40:24Z</time>
      </trkpt>
      <trkpt lat="45.93942" lon="4.77961">
        <ele>189</ele>
        <time>2017-05-16T10:40:25Z</time>
      </trkpt>
      <trkpt lat="45.93935" lon="4.77966">
        <ele>189</ele>
        <time>2017-05-16T10:40:26Z</time>
      </trkpt>
      <trkpt lat="45.93928" lon="4.77971">
        <ele>188</ele>
        <time>2017-05-16T10:40:27Z</time>
      </trkpt>
      <trkpt lat="45.93921" lon="4.77976">
        <ele>188</ele>
        <time>2017-05-16T10:40:28Z</time>
      </trkpt>
      <trkpt lat="45.93912" lon="4.77982">
        <ele>182</ele>
        <time>2017-05-16T10:40:29Z</time>
      </trkpt>
      <trkpt lat="45.93904" lon="4.77987">
        <ele>182</ele>
        <time>2017-05-16T10:40:30Z</time>
      </trkpt>
      <trkpt lat="45.93897" lon="4.77995">
        <ele>182</ele>
        <time>2017-05-16T10:40:31Z</time>
      </trkpt>
      <trkpt lat="45.93891" lon="4.78001">
        <ele>184</ele>
        <time>2017-05-16T10:40:32Z</time>
      </trkpt>
      <trkpt lat="45.93886" lon="4.78007">
        <ele>184</ele>
        <time>2017-05-16T10:40:33Z</time>
      </trkpt>
      <trkpt lat="45.93881" lon="4.78013">
        <ele>184</ele>
        <time>2017-05-16T10:40:34Z</time>
      </trkpt>
      <trkpt lat="45.93876" lon="4.78016">
        <ele>183</ele>
        <time>2017-05-16T10:40:35Z</time>
      </trkpt>
      <trkpt lat="45.9387" lon="4.78013">
        <ele>183</ele>
        <time>2017-05-16T10:40:36Z</time>
      </trkpt>
      <trkpt lat="45.93864" lon="4.78007">
        <ele>183</ele>
        <time>2017-05-16T10:40:37Z</time>
      </trkpt>
      <trkpt lat="45.93859" lon="4.78001">
        <ele>182</ele>
        <time>2017-05-16T10:40:38Z</time>
      </trkpt>
      <trkpt lat="45.93854" lon="4.77995">
        <ele>179</ele>
        <time>2017-05-16T10:40:39Z</time>
      </trkpt>
      <trkpt lat="45.93848" lon="4.7799">
        <ele>179</ele>
        <time>2017-05-16T10:40:40Z</time>
      </trkpt>
      <trkpt lat="45.93843" lon="4.77986">
        <ele>179</ele>
        <time>2017-05-16T10:40:41Z</time>
      </trkpt>
      <trkpt lat="45.93837" lon="4.77977">
        <ele>178</ele>
        <time>2017-05-16T10:40:43Z</time>
      </trkpt>
      <trkpt lat="45.93834" lon="4.77971">
        <ele>178</ele>
        <time>2017-05-16T10:40:44Z</time>
      </trkpt>
      <trkpt lat="45.9383" lon="4.77966">
        <ele>171</ele>
        <time>2017-05-16T10:40:45Z</time>
      </trkpt>
      <trkpt lat="45.93826" lon="4.7796">
        <ele>171</ele>
        <time>2017-05-16T10:40:46Z</time>
      </trkpt>
      <trkpt lat="45.93822" lon="4.77955">
        <ele>170</ele>
        <time>2017-05-16T10:40:47Z</time>
      </trkpt>
      <trkpt lat="45.93818" lon="4.7795">
        <ele>169</ele>
        <time>2017-05-16T10:40:48Z</time>
      </trkpt>
      <trkpt lat="45.93814" lon="4.77945">
        <ele>169</ele>
        <time>2017-05-16T10:40:49Z</time>
      </trkpt>
      <trkpt lat="45.9381" lon="4.77939">
        <ele>169</ele>
        <time>2017-05-16T10:40:50Z</time>
      </trkpt>
      <trkpt lat="45.93806" lon="4.77934">
        <ele>168</ele>
        <time>2017-05-16T10:40:51Z</time>
      </trkpt>
      <trkpt lat="45.93802" lon="4.77929">
        <ele>168</ele>
        <time>2017-05-16T10:40:52Z</time>
      </trkpt>
      <trkpt lat="45.93798" lon="4.77924">
        <ele>168</ele>
        <time>2017-05-16T10:40:53Z</time>
      </trkpt>
      <trkpt lat="45.93794" lon="4.77918">
        <ele>168</ele>
        <time>2017-05-16T10:40:54Z</time>
      </trkpt>
      <trkpt lat="45.93789" lon="4.77912">
        <ele>166</ele>
        <time>2017-05-16T10:40:55Z</time>
      </trkpt>
      <trkpt lat="45.93785" lon="4.77906">
        <ele>166</ele>
        <time>2017-05-16T10:40:56Z</time>
      </trkpt>
      <trkpt lat="45.9378" lon="4.779">
        <ele>166</ele>
        <time>2017-05-16T10:40:57Z</time>
      </trkpt>
      <trkpt lat="45.93775" lon="4.77895">
        <ele>166</ele>
        <time>2017-05-16T10:40:58Z</time>
      </trkpt>
      <trkpt lat="45.93771" lon="4.77889">
        <ele>166</ele>
        <time>2017-05-16T10:40:59Z</time>
      </trkpt>
      <trkpt lat="45.93766" lon="4.77884">
        <ele>166</ele>
        <time>2017-05-16T10:41:00Z</time>
      </trkpt>
      <trkpt lat="45.93763" lon="4.77879">
        <ele>166</ele>
        <time>2017-05-16T10:41:01Z</time>
      </trkpt>
      <trkpt lat="45.93759" lon="4.77874">
        <ele>166</ele>
        <time>2017-05-16T10:41:02Z</time>
      </trkpt>
      <trkpt lat="45.93755" lon="4.77869">
        <ele>166</ele>
        <time>2017-05-16T10:41:03Z</time>
      </trkpt>
      <trkpt lat="45.9375" lon="4.77864">
        <ele>166</ele>
        <time>2017-05-16T10:41:04Z</time>
      </trkpt>
      <trkpt lat="45.93746" lon="4.77859">
        <ele>167</ele>
        <time>2017-05-16T10:41:05Z</time>
      </trkpt>
      <trkpt lat="45.93742" lon="4.77854">
        <ele>167</ele>
        <time>2017-05-16T10:41:06Z</time>
      </trkpt>
      <trkpt lat="45.93738" lon="4.77849">
        <ele>167</ele>
        <time>2017-05-16T10:41:07Z</time>
      </trkpt>
      <trkpt lat="45.93734" lon="4.77844">
        <ele>167</ele>
        <time>2017-05-16T10:41:08Z</time>
      </trkpt>
      <trkpt lat="45.9373" lon="4.77839">
        <ele>167</ele>
        <time>2017-05-16T10:41:09Z</time>
      </trkpt>
      <trkpt lat="45.93726" lon="4.77833">
        <ele>168</ele>
        <time>2017-05-16T10:41:10Z</time>
      </trkpt>
      <trkpt lat="45.93722" lon="4.77827">
        <ele>168</ele>
        <time>2017-05-16T10:41:11Z</time>
      </trkpt>
      <trkpt lat="45.93717" lon="4.77821">
        <ele>169</ele>
        <time>2017-05-16T10:41:12Z</time>
      </trkpt>
      <trkpt lat="45.93712" lon="4.77815">
        <ele>169</ele>
        <time>2017-05-16T10:41:13Z</time>
      </trkpt>
      <trkpt lat="45.93707" lon="4.77808">
        <ele>169</ele>
        <time>2017-05-16T10:41:14Z</time>
      </trkpt>
      <trkpt lat="45.93703" lon="4.77801">
        <ele>169</ele>
        <time>2017-05-16T10:41:15Z</time>
      </trkpt>
      <trkpt lat="45.93698" lon="4.77794">
        <ele>169</ele>
        <time>2017-05-16T10:41:16Z</time>
      </trkpt>
      <trkpt lat="45.93693" lon="4.77787">
        <ele>170</ele>
        <time>2017-05-16T10:41:17Z</time>
      </trkpt>
      <trkpt lat="45.93688" lon="4.7778">
        <ele>170</ele>
        <time>2017-05-16T10:41:18Z</time>
      </trkpt>
      <trkpt lat="45.93683" lon="4.77773">
        <ele>170</ele>
        <time>2017-05-16T10:41:19Z</time>
      </trkpt>
      <trkpt lat="45.93678" lon="4.77765">
        <ele>170</ele>
        <time>2017-05-16T10:41:20Z</time>
      </trkpt>
      <trkpt lat="45.93673" lon="4.77758">
        <ele>170</ele>
        <time>2017-05-16T10:41:21Z</time>
      </trkpt>
      <trkpt lat="45.93668" lon="4.7775">
        <ele>171</ele>
        <time>2017-05-16T10:41:22Z</time>
      </trkpt>
      <trkpt lat="45.93663" lon="4.77741">
        <ele>170</ele>
        <time>2017-05-16T10:41:23Z</time>
      </trkpt>
      <trkpt lat="45.93657" lon="4.77733">
        <ele>170</ele>
        <time>2017-05-16T10:41:24Z</time>
      </trkpt>
      <trkpt lat="45.93653" lon="4.77723">
        <ele>170</ele>
        <time>2017-05-16T10:41:25Z</time>
      </trkpt>
      <trkpt lat="45.93648" lon="4.77714">
        <ele>170</ele>
        <time>2017-05-16T10:41:26Z</time>
      </trkpt>
      <trkpt lat="45.93643" lon="4.77704">
        <ele>170</ele>
        <time>2017-05-16T10:41:27Z</time>
      </trkpt>
      <trkpt lat="45.93638" lon="4.77694">
        <ele>169</ele>
        <time>2017-05-16T10:41:28Z</time>
      </trkpt>
      <trkpt lat="45.93633" lon="4.77684">
        <ele>169</ele>
        <time>2017-05-16T10:41:29Z</time>
      </trkpt>
      <trkpt lat="45.93628" lon="4.77674">
        <ele>169</ele>
        <time>2017-05-16T10:41:30Z</time>
      </trkpt>
      <trkpt lat="45.93623" lon="4.77663">
        <ele>169</ele>
        <time>2017-05-16T10:41:31Z</time>
      </trkpt>
      <trkpt lat="45.93619" lon="4.77653">
        <ele>169</ele>
        <time>2017-05-16T10:41:32Z</time>
      </trkpt>
      <trkpt lat="45.93615" lon="4.77642">
        <ele>169</ele>
        <time>2017-05-16T10:41:33Z</time>
      </trkpt>
      <trkpt lat="45.93611" lon="4.77632">
        <ele>169</ele>
        <time>2017-05-16T10:41:34Z</time>
      </trkpt>
      <trkpt lat="45.93607" lon="4.77623">
        <ele>170</ele>
        <time>2017-05-16T10:41:35Z</time>
      </trkpt>
      <trkpt lat="45.93604" lon="4.77613">
        <ele>170</ele>
        <time>2017-05-16T10:41:36Z</time>
      </trkpt>
      <trkpt lat="45.936" lon="4.77603">
        <ele>170</ele>
        <time>2017-05-16T10:41:37Z</time>
      </trkpt>
      <trkpt lat="45.93597" lon="4.77594">
        <ele>170</ele>
        <time>2017-05-16T10:41:38Z</time>
      </trkpt>
      <trkpt lat="45.93593" lon="4.77585">
        <ele>170</ele>
        <time>2017-05-16T10:41:39Z</time>
      </trkpt>
      <trkpt lat="45.9359" lon="4.77576">
        <ele>170</ele>
        <time>2017-05-16T10:41:40Z</time>
      </trkpt>
      <trkpt lat="45.93588" lon="4.77568">
        <ele>170</ele>
        <time>2017-05-16T10:41:41Z</time>
      </trkpt>
      <trkpt lat="45.93585" lon="4.7756">
        <ele>170</ele>
        <time>2017-05-16T10:41:42Z</time>
      </trkpt>
      <trkpt lat="45.93583" lon="4.77551">
        <ele>169</ele>
        <time>2017-05-16T10:41:43Z</time>
      </trkpt>
      <trkpt lat="45.93581" lon="4.77543">
        <ele>169</ele>
        <time>2017-05-16T10:41:44Z</time>
      </trkpt>
      <trkpt lat="45.93579" lon="4.77535">
        <ele>169</ele>
        <time>2017-05-16T10:41:45Z</time>
      </trkpt>
      <trkpt lat="45.93577" lon="4.77527">
        <ele>169</ele>
        <time>2017-05-16T10:41:46Z</time>
      </trkpt>
      <trkpt lat="45.93574" lon="4.77519">
        <ele>169</ele>
        <time>2017-05-16T10:41:47Z</time>
      </trkpt>
      <trkpt lat="45.93573" lon="4.77511">
        <ele>169</ele>
        <time>2017-05-16T10:41:48Z</time>
      </trkpt>
      <trkpt lat="45.93571" lon="4.77504">
        <ele>169</ele>
        <time>2017-05-16T10:41:49Z</time>
      </trkpt>
      <trkpt lat="45.93568" lon="4.77496">
        <ele>169</ele>
        <time>2017-05-16T10:41:50Z</time>
      </trkpt>
      <trkpt lat="45.93566" lon="4.77488">
        <ele>169</ele>
        <time>2017-05-16T10:41:51Z</time>
      </trkpt>
      <trkpt lat="45.93564" lon="4.77481">
        <ele>169</ele>
        <time>2017-05-16T10:41:52Z</time>
      </trkpt>
      <trkpt lat="45.93562" lon="4.77473">
        <ele>169</ele>
        <time>2017-05-16T10:41:53Z</time>
      </trkpt>
      <trkpt lat="45.9356" lon="4.77465">
        <ele>169</ele>
        <time>2017-05-16T10:41:54Z</time>
      </trkpt>
      <trkpt lat="45.93559" lon="4.77457">
        <ele>169</ele>
        <time>2017-05-16T10:41:55Z</time>
      </trkpt>
      <trkpt lat="45.93557" lon="4.77449">
        <ele>169</ele>
        <time>2017-05-16T10:41:56Z</time>
      </trkpt>
      <trkpt lat="45.93555" lon="4.77441">
        <ele>169</ele>
        <time>2017-05-16T10:41:57Z</time>
      </trkpt>
      <trkpt lat="45.93554" lon="4.77434">
        <ele>169</ele>
        <time>2017-05-16T10:41:58Z</time>
      </trkpt>
      <trkpt lat="45.93552" lon="4.77426">
        <ele>170</ele>
        <time>2017-05-16T10:41:59Z</time>
      </trkpt>
      <trkpt lat="45.9355" lon="4.77419">
        <ele>170</ele>
        <time>2017-05-16T10:42:00Z</time>
      </trkpt>
      <trkpt lat="45.93549" lon="4.77412">
        <ele>170</ele>
        <time>2017-05-16T10:42:01Z</time>
      </trkpt>
      <trkpt lat="45.93547" lon="4.77405">
        <ele>170</ele>
        <time>2017-05-16T10:42:02Z</time>
      </trkpt>
      <trkpt lat="45.93545" lon="4.77398">
        <ele>170</ele>
        <time>2017-05-16T10:42:03Z</time>
      </trkpt>
      <trkpt lat="45.93544" lon="4.77391">
        <ele>170</ele>
        <time>2017-05-16T10:42:04Z</time>
      </trkpt>
      <trkpt lat="45.93543" lon="4.77383">
        <ele>170</ele>
        <time>2017-05-16T10:42:05Z</time>
      </trkpt>
      <trkpt lat="45.93541" lon="4.77375">
        <ele>170</ele>
        <time>2017-05-16T10:42:06Z</time>
      </trkpt>
      <trkpt lat="45.9354" lon="4.77368">
        <ele>170</ele>
        <time>2017-05-16T10:42:07Z</time>
      </trkpt>
      <trkpt lat="45.93538" lon="4.7736">
        <ele>170</ele>
        <time>2017-05-16T10:42:08Z</time>
      </trkpt>
      <trkpt lat="45.93536" lon="4.77353">
        <ele>170</ele>
        <time>2017-05-16T10:42:09Z</time>
      </trkpt>
      <trkpt lat="45.93534" lon="4.77345">
        <ele>170</ele>
        <time>2017-05-16T10:42:10Z</time>
      </trkpt>
      <trkpt lat="45.93532" lon="4.77337">
        <ele>170</ele>
        <time>2017-05-16T10:42:11Z</time>
      </trkpt>
      <trkpt lat="45.93531" lon="4.77329">
        <ele>170</ele>
        <time>2017-05-16T10:42:12Z</time>
      </trkpt>
      <trkpt lat="45.93529" lon="4.77321">
        <ele>170</ele>
        <time>2017-05-16T10:42:13Z</time>
      </trkpt>
      <trkpt lat="45.93527" lon="4.77313">
        <ele>170</ele>
        <time>2017-05-16T10:42:14Z</time>
      </trkpt>
      <trkpt lat="45.93525" lon="4.77306">
        <ele>170</ele>
        <time>2017-05-16T10:42:15Z</time>
      </trkpt>
      <trkpt lat="45.93524" lon="4.77297">
        <ele>170</ele>
        <time>2017-05-16T10:42:16Z</time>
      </trkpt>
      <trkpt lat="45.93522" lon="4.7729">
        <ele>170</ele>
        <time>2017-05-16T10:42:17Z</time>
      </trkpt>
      <trkpt lat="45.93521" lon="4.77283">
        <ele>170</ele>
        <time>2017-05-16T10:42:18Z</time>
      </trkpt>
      <trkpt lat="45.9352" lon="4.77276">
        <ele>170</ele>
        <time>2017-05-16T10:42:19Z</time>
      </trkpt>
      <trkpt lat="45.93519" lon="4.77269">
        <ele>170</ele>
        <time>2017-05-16T10:42:20Z</time>
      </trkpt>
      <trkpt lat="45.93518" lon="4.77262">
        <ele>170</ele>
        <time>2017-05-16T10:42:21Z</time>
      </trkpt>
      <trkpt lat="45.93515" lon="4.77256">
        <ele>170</ele>
        <time>2017-05-16T10:42:22Z</time>
      </trkpt>
      <trkpt lat="45.93514" lon="4.77248">
        <ele>169</ele>
        <time>2017-05-16T10:42:23Z</time>
      </trkpt>
      <trkpt lat="45.93512" lon="4.77241">
        <ele>169</ele>
        <time>2017-05-16T10:42:24Z</time>
      </trkpt>
      <trkpt lat="45.9351" lon="4.77233">
        <ele>169</ele>
        <time>2017-05-16T10:42:25Z</time>
      </trkpt>
      <trkpt lat="45.93508" lon="4.77225">
        <ele>169</ele>
        <time>2017-05-16T10:42:26Z</time>
      </trkpt>
      <trkpt lat="45.93506" lon="4.77216">
        <ele>169</ele>
        <time>2017-05-16T10:42:27Z</time>
      </trkpt>
      <trkpt lat="45.93505" lon="4.77207">
        <ele>169</ele>
        <time>2017-05-16T10:42:28Z</time>
      </trkpt>
      <trkpt lat="45.93503" lon="4.77199">
        <ele>169</ele>
        <time>2017-05-16T10:42:29Z</time>
      </trkpt>
      <trkpt lat="45.93501" lon="4.7719">
        <ele>169</ele>
        <time>2017-05-16T10:42:30Z</time>
      </trkpt>
      <trkpt lat="45.93499" lon="4.77182">
        <ele>169</ele>
        <time>2017-05-16T10:42:31Z</time>
      </trkpt>
      <trkpt lat="45.93498" lon="4.77174">
        <ele>169</ele>
        <time>2017-05-16T10:42:32Z</time>
      </trkpt>
      <trkpt lat="45.93496" lon="4.77167">
        <ele>169</ele>
        <time>2017-05-16T10:42:33Z</time>
      </trkpt>
      <trkpt lat="45.93494" lon="4.7716">
        <ele>169</ele>
        <time>2017-05-16T10:42:34Z</time>
      </trkpt>
      <trkpt lat="45.93493" lon="4.77153">
        <ele>169</ele>
        <time>2017-05-16T10:42:35Z</time>
      </trkpt>
      <trkpt lat="45.93492" lon="4.77146">
        <ele>169</ele>
        <time>2017-05-16T10:42:36Z</time>
      </trkpt>
      <trkpt lat="45.9349" lon="4.7714">
        <ele>169</ele>
        <time>2017-05-16T10:42:37Z</time>
      </trkpt>
      <trkpt lat="45.93489" lon="4.77133">
        <ele>169</ele>
        <time>2017-05-16T10:42:38Z</time>
      </trkpt>
      <trkpt lat="45.93488" lon="4.77126">
        <ele>169</ele>
        <time>2017-05-16T10:42:39Z</time>
      </trkpt>
      <trkpt lat="45.93487" lon="4.77119">
        <ele>169</ele>
        <time>2017-05-16T10:42:40Z</time>
      </trkpt>
      <trkpt lat="45.93485" lon="4.77111">
        <ele>169</ele>
        <time>2017-05-16T10:42:41Z</time>
      </trkpt>
      <trkpt lat="45.93484" lon="4.77103">
        <ele>169</ele>
        <time>2017-05-16T10:42:42Z</time>
      </trkpt>
      <trkpt lat="45.93482" lon="4.77095">
        <ele>169</ele>
        <time>2017-05-16T10:42:43Z</time>
      </trkpt>
      <trkpt lat="45.93481" lon="4.77087">
        <ele>169</ele>
        <time>2017-05-16T10:42:44Z</time>
      </trkpt>
      <trkpt lat="45.93479" lon="4.77079">
        <ele>170</ele>
        <time>2017-05-16T10:42:45Z</time>
      </trkpt>
      <trkpt lat="45.93478" lon="4.7707">
        <ele>170</ele>
        <time>2017-05-16T10:42:46Z</time>
      </trkpt>
      <trkpt lat="45.93475" lon="4.77063">
        <ele>170</ele>
        <time>2017-05-16T10:42:47Z</time>
      </trkpt>
      <trkpt lat="45.93473" lon="4.77055">
        <ele>170</ele>
        <time>2017-05-16T10:42:48Z</time>
      </trkpt>
      <trkpt lat="45.93472" lon="4.77047">
        <ele>170</ele>
        <time>2017-05-16T10:42:49Z</time>
      </trkpt>
      <trkpt lat="45.93471" lon="4.7704">
        <ele>170</ele>
        <time>2017-05-16T10:42:50Z</time>
      </trkpt>
      <trkpt lat="45.9347" lon="4.77033">
        <ele>170</ele>
        <time>2017-05-16T10:42:51Z</time>
      </trkpt>
      <trkpt lat="45.93469" lon="4.77025">
        <ele>170</ele>
        <time>2017-05-16T10:42:52Z</time>
      </trkpt>
      <trkpt lat="45.93468" lon="4.77018">
        <ele>170</ele>
        <time>2017-05-16T10:42:53Z</time>
      </trkpt>
      <trkpt lat="45.93467" lon="4.77011">
        <ele>170</ele>
        <time>2017-05-16T10:42:54Z</time>
      </trkpt>
      <trkpt lat="45.93467" lon="4.77003">
        <ele>170</ele>
        <time>2017-05-16T10:42:55Z</time>
      </trkpt>
      <trkpt lat="45.93466" lon="4.76996">
        <ele>170</ele>
        <time>2017-05-16T10:42:56Z</time>
      </trkpt>
      <trkpt lat="45.93465" lon="4.76989">
        <ele>170</ele>
        <time>2017-05-16T10:42:57Z</time>
      </trkpt>
      <trkpt lat="45.93464" lon="4.76982">
        <ele>170</ele>
        <time>2017-05-16T10:42:58Z</time>
      </trkpt>
      <trkpt lat="45.93463" lon="4.76974">
        <ele>170</ele>
        <time>2017-05-16T10:42:59Z</time>
      </trkpt>
      <trkpt lat="45.93462" lon="4.76966">
        <ele>170</ele>
        <time>2017-05-16T10:43:00Z</time>
      </trkpt>
      <trkpt lat="45.93461" lon="4.76958">
        <ele>170</ele>
        <time>2017-05-16T10:43:01Z</time>
      </trkpt>
      <trkpt lat="45.9346" lon="4.7695">
        <ele>170</ele>
        <time>2017-05-16T10:43:02Z</time>
      </trkpt>
      <trkpt lat="45.93459" lon="4.76942">
        <ele>170</ele>
        <time>2017-05-16T10:43:03Z</time>
      </trkpt>
      <trkpt lat="45.93458" lon="4.76934">
        <ele>170</ele>
        <time>2017-05-16T10:43:04Z</time>
      </trkpt>
      <trkpt lat="45.93457" lon="4.76927">
        <ele>170</ele>
        <time>2017-05-16T10:43:05Z</time>
      </trkpt>
      <trkpt lat="45.93455" lon="4.76919">
        <ele>170</ele>
        <time>2017-05-16T10:43:06Z</time>
      </trkpt>
      <trkpt lat="45.93454" lon="4.76912">
        <ele>170</ele>
        <time>2017-05-16T10:43:07Z</time>
      </trkpt>
      <trkpt lat="45.93452" lon="4.76904">
        <ele>170</ele>
        <time>2017-05-16T10:43:08Z</time>
      </trkpt>
      <trkpt lat="45.9345" lon="4.76897">
        <ele>170</ele>
        <time>2017-05-16T10:43:09Z</time>
      </trkpt>
      <trkpt lat="45.93448" lon="4.7689">
        <ele>170</ele>
        <time>2017-05-16T10:43:10Z</time>
      </trkpt>
      <trkpt lat="45.93446" lon="4.76882">
        <ele>170</ele>
        <time>2017-05-16T10:43:11Z</time>
      </trkpt>
      <trkpt lat="45.93443" lon="4.76876">
        <ele>170</ele>
        <time>2017-05-16T10:43:12Z</time>
      </trkpt>
      <trkpt lat="45.93441" lon="4.76869">
        <ele>171</ele>
        <time>2017-05-16T10:43:13Z</time>
      </trkpt>
      <trkpt lat="45.93438" lon="4.76863">
        <ele>171</ele>
        <time>2017-05-16T10:43:14Z</time>
      </trkpt>
      <trkpt lat="45.93435" lon="4.76857">
        <ele>171</ele>
        <time>2017-05-16T10:43:15Z</time>
      </trkpt>
      <trkpt lat="45.93433" lon="4.76852">
        <ele>171</ele>
        <time>2017-05-16T10:43:16Z</time>
      </trkpt>
      <trkpt lat="45.9343" lon="4.76846">
        <ele>171</ele>
        <time>2017-05-16T10:43:17Z</time>
      </trkpt>
      <trkpt lat="45.93427" lon="4.7684">
        <ele>171</ele>
        <time>2017-05-16T10:43:18Z</time>
      </trkpt>
      <trkpt lat="45.93424" lon="4.76834">
        <ele>172</ele>
        <time>2017-05-16T10:43:19Z</time>
      </trkpt>
      <trkpt lat="45.93421" lon="4.76828">
        <ele>172</ele>
        <time>2017-05-16T10:43:20Z</time>
      </trkpt>
      <trkpt lat="45.93417" lon="4.76822">
        <ele>171</ele>
        <time>2017-05-16T10:43:21Z</time>
      </trkpt>
      <trkpt lat="45.93413" lon="4.76817">
        <ele>172</ele>
        <time>2017-05-16T10:43:22Z</time>
      </trkpt>
      <trkpt lat="45.9341" lon="4.76811">
        <ele>172</ele>
        <time>2017-05-16T10:43:23Z</time>
      </trkpt>
      <trkpt lat="45.93405" lon="4.76806">
        <ele>172</ele>
        <time>2017-05-16T10:43:24Z</time>
      </trkpt>
      <trkpt lat="45.93401" lon="4.768">
        <ele>172</ele>
        <time>2017-05-16T10:43:25Z</time>
      </trkpt>
      <trkpt lat="45.93396" lon="4.76795">
        <ele>172</ele>
        <time>2017-05-16T10:43:26Z</time>
      </trkpt>
      <trkpt lat="45.93392" lon="4.76789">
        <ele>172</ele>
        <time>2017-05-16T10:43:27Z</time>
      </trkpt>
      <trkpt lat="45.93387" lon="4.76784">
        <ele>172</ele>
        <time>2017-05-16T10:43:28Z</time>
      </trkpt>
      <trkpt lat="45.93382" lon="4.76779">
        <ele>172</ele>
        <time>2017-05-16T10:43:29Z</time>
      </trkpt>
      <trkpt lat="45.93377" lon="4.76774">
        <ele>172</ele>
        <time>2017-05-16T10:43:30Z</time>
      </trkpt>
      <trkpt lat="45.93372" lon="4.76769">
        <ele>172</ele>
        <time>2017-05-16T10:43:31Z</time>
      </trkpt>
      <trkpt lat="45.93368" lon="4.76765">
        <ele>172</ele>
        <time>2017-05-16T10:43:32Z</time>
      </trkpt>
      <trkpt lat="45.93363" lon="4.76762">
        <ele>172</ele>
        <time>2017-05-16T10:43:33Z</time>
      </trkpt>
      <trkpt lat="45.93359" lon="4.76757">
        <ele>172</ele>
        <time>2017-05-16T10:43:34Z</time>
      </trkpt>
      <trkpt lat="45.93355" lon="4.76752">
        <ele>172</ele>
        <time>2017-05-16T10:43:35Z</time>
      </trkpt>
      <trkpt lat="45.9335" lon="4.76748">
        <ele>172</ele>
        <time>2017-05-16T10:43:36Z</time>
      </trkpt>
      <trkpt lat="45.93346" lon="4.76744">
        <ele>172</ele>
        <time>2017-05-16T10:43:37Z</time>
      </trkpt>
      <trkpt lat="45.93342" lon="4.7674">
        <ele>172</ele>
        <time>2017-05-16T10:43:38Z</time>
      </trkpt>
      <trkpt lat="45.93338" lon="4.76736">
        <ele>172</ele>
        <time>2017-05-16T10:43:39Z</time>
      </trkpt>
      <trkpt lat="45.93334" lon="4.76731">
        <ele>172</ele>
        <time>2017-05-16T10:43:40Z</time>
      </trkpt>
      <trkpt lat="45.9333" lon="4.76727">
        <ele>172</ele>
        <time>2017-05-16T10:43:41Z</time>
      </trkpt>
      <trkpt lat="45.93325" lon="4.76723">
        <ele>172</ele>
        <time>2017-05-16T10:43:42Z</time>
      </trkpt>
      <trkpt lat="45.9332" lon="4.76718">
        <ele>172</ele>
        <time>2017-05-16T10:43:43Z</time>
      </trkpt>
      <trkpt lat="45.93316" lon="4.76714">
        <ele>172</ele>
        <time>2017-05-16T10:43:44Z</time>
      </trkpt>
      <trkpt lat="45.93311" lon="4.7671">
        <ele>172</ele>
        <time>2017-05-16T10:43:45Z</time>
      </trkpt>
      <trkpt lat="45.93307" lon="4.76706">
        <ele>172</ele>
        <time>2017-05-16T10:43:46Z</time>
      </trkpt>
      <trkpt lat="45.93303" lon="4.76702">
        <ele>172</ele>
        <time>2017-05-16T10:43:47Z</time>
      </trkpt>
      <trkpt lat="45.93299" lon="4.76698">
        <ele>172</ele>
        <time>2017-05-16T10:43:48Z</time>
      </trkpt>
      <trkpt lat="45.93295" lon="4.76694">
        <ele>172</ele>
        <time>2017-05-16T10:43:49Z</time>
      </trkpt>
      <trkpt lat="45.93291" lon="4.76689">
        <ele>172</ele>
        <time>2017-05-16T10:43:50Z</time>
      </trkpt>
      <trkpt lat="45.93287" lon="4.76685">
        <ele>172</ele>
        <time>2017-05-16T10:43:51Z</time>
      </trkpt>
      <trkpt lat="45.93282" lon="4.7668">
        <ele>172</ele>
        <time>2017-05-16T10:43:52Z</time>
      </trkpt>
      <trkpt lat="45.93278" lon="4.76675">
        <ele>172</ele>
        <time>2017-05-16T10:43:53Z</time>
      </trkpt>
      <trkpt lat="45.93273" lon="4.7667">
        <ele>172</ele>
        <time>2017-05-16T10:43:54Z</time>
      </trkpt>
      <trkpt lat="45.93268" lon="4.76665">
        <ele>171</ele>
        <time>2017-05-16T10:43:55Z</time>
      </trkpt>
      <trkpt lat="45.93263" lon="4.7666">
        <ele>171</ele>
        <time>2017-05-16T10:43:56Z</time>
      </trkpt>
      <trkpt lat="45.93258" lon="4.76656">
        <ele>171</ele>
        <time>2017-05-16T10:43:57Z</time>
      </trkpt>
      <trkpt lat="45.93253" lon="4.76651">
        <ele>171</ele>
        <time>2017-05-16T10:43:58Z</time>
      </trkpt>
      <trkpt lat="45.93248" lon="4.76646">
        <ele>171</ele>
        <time>2017-05-16T10:43:59Z</time>
      </trkpt>
      <trkpt lat="45.93243" lon="4.76642">
        <ele>171</ele>
        <time>2017-05-16T10:44:00Z</time>
      </trkpt>
      <trkpt lat="45.93239" lon="4.76637">
        <ele>171</ele>
        <time>2017-05-16T10:44:01Z</time>
      </trkpt>
      <trkpt lat="45.93234" lon="4.76633">
        <ele>170</ele>
        <time>2017-05-16T10:44:02Z</time>
      </trkpt>
      <trkpt lat="45.9323" lon="4.76629">
        <ele>170</ele>
        <time>2017-05-16T10:44:03Z</time>
      </trkpt>
      <trkpt lat="45.93226" lon="4.76625">
        <ele>170</ele>
        <time>2017-05-16T10:44:04Z</time>
      </trkpt>
      <trkpt lat="45.93221" lon="4.76621">
        <ele>170</ele>
        <time>2017-05-16T10:44:05Z</time>
      </trkpt>
      <trkpt lat="45.93217" lon="4.76617">
        <ele>170</ele>
        <time>2017-05-16T10:44:06Z</time>
      </trkpt>
      <trkpt lat="45.93213" lon="4.76613">
        <ele>170</ele>
        <time>2017-05-16T10:44:07Z</time>
      </trkpt>
      <trkpt lat="45.93208" lon="4.76608">
        <ele>170</ele>
        <time>2017-05-16T10:44:08Z</time>
      </trkpt>
      <trkpt lat="45.93203" lon="4.76604">
        <ele>170</ele>
        <time>2017-05-16T10:44:09Z</time>
      </trkpt>
      <trkpt lat="45.93199" lon="4.76599">
        <ele>170</ele>
        <time>2017-05-16T10:44:10Z</time>
      </trkpt>
      <trkpt lat="45.93194" lon="4.76594">
        <ele>170</ele>
        <time>2017-05-16T10:44:11Z</time>
      </trkpt>
      <trkpt lat="45.9319" lon="4.7659">
        <ele>170</ele>
        <time>2017-05-16T10:44:12Z</time>
      </trkpt>
      <trkpt lat="45.93186" lon="4.76585">
        <ele>171</ele>
        <time>2017-05-16T10:44:13Z</time>
      </trkpt>
      <trkpt lat="45.93182" lon="4.76581">
        <ele>170</ele>
        <time>2017-05-16T10:44:14Z</time>
      </trkpt>
      <trkpt lat="45.93178" lon="4.76576">
        <ele>170</ele>
        <time>2017-05-16T10:44:15Z</time>
      </trkpt>
      <trkpt lat="45.93173" lon="4.76572">
        <ele>170</ele>
        <time>2017-05-16T10:44:16Z</time>
      </trkpt>
      <trkpt lat="45.93168" lon="4.76568">
        <ele>170</ele>
        <time>2017-05-16T10:44:17Z</time>
      </trkpt>
      <trkpt lat="45.93164" lon="4.76563">
        <ele>170</ele>
        <time>2017-05-16T10:44:18Z</time>
      </trkpt>
      <trkpt lat="45.93159" lon="4.76559">
        <ele>170</ele>
        <time>2017-05-16T10:44:19Z</time>
      </trkpt>
      <trkpt lat="45.93154" lon="4.76555">
        <ele>170</ele>
        <time>2017-05-16T10:44:20Z</time>
      </trkpt>
      <trkpt lat="45.93149" lon="4.76551">
        <ele>170</ele>
        <time>2017-05-16T10:44:21Z</time>
      </trkpt>
      <trkpt lat="45.93144" lon="4.76547">
        <ele>170</ele>
        <time>2017-05-16T10:44:22Z</time>
      </trkpt>
      <trkpt lat="45.93139" lon="4.76542">
        <ele>170</ele>
        <time>2017-05-16T10:44:23Z</time>
      </trkpt>
      <trkpt lat="45.93135" lon="4.76538">
        <ele>170</ele>
        <time>2017-05-16T10:44:24Z</time>
      </trkpt>
      <trkpt lat="45.9313" lon="4.76533">
        <ele>170</ele>
        <time>2017-05-16T10:44:25Z</time>
      </trkpt>
      <trkpt lat="45.93126" lon="4.76529">
        <ele>170</ele>
        <time>2017-05-16T10:44:26Z</time>
      </trkpt>
      <trkpt lat="45.93121" lon="4.76524">
        <ele>170</ele>
        <time>2017-05-16T10:44:27Z</time>
      </trkpt>
      <trkpt lat="45.93117" lon="4.76518">
        <ele>170</ele>
        <time>2017-05-16T10:44:28Z</time>
      </trkpt>
      <trkpt lat="45.93112" lon="4.76513">
        <ele>170</ele>
        <time>2017-05-16T10:44:29Z</time>
      </trkpt>
      <trkpt lat="45.93107" lon="4.76508">
        <ele>170</ele>
        <time>2017-05-16T10:44:30Z</time>
      </trkpt>
      <trkpt lat="45.93102" lon="4.76502">
        <ele>170</ele>
        <time>2017-05-16T10:44:31Z</time>
      </trkpt>
      <trkpt lat="45.93097" lon="4.76497">
        <ele>170</ele>
        <time>2017-05-16T10:44:32Z</time>
      </trkpt>
      <trkpt lat="45.93092" lon="4.76492">
        <ele>170</ele>
        <time>2017-05-16T10:44:33Z</time>
      </trkpt>
      <trkpt lat="45.93087" lon="4.76486">
        <ele>170</ele>
        <time>2017-05-16T10:44:34Z</time>
      </trkpt>
      <trkpt lat="45.93082" lon="4.7648">
        <ele>169</ele>
        <time>2017-05-16T10:44:35Z</time>
      </trkpt>
      <trkpt lat="45.93078" lon="4.76475">
        <ele>169</ele>
        <time>2017-05-16T10:44:36Z</time>
      </trkpt>
      <trkpt lat="45.93074" lon="4.76471">
        <ele>169</ele>
        <time>2017-05-16T10:44:37Z</time>
      </trkpt>
      <trkpt lat="45.9307" lon="4.76466">
        <ele>169</ele>
        <time>2017-05-16T10:44:38Z</time>
      </trkpt>
      <trkpt lat="45.93066" lon="4.76462">
        <ele>169</ele>
        <time>2017-05-16T10:44:39Z</time>
      </trkpt>
      <trkpt lat="45.93061" lon="4.76457">
        <ele>169</ele>
        <time>2017-05-16T10:44:40Z</time>
      </trkpt>
      <trkpt lat="45.93057" lon="4.76453">
        <ele>169</ele>
        <time>2017-05-16T10:44:41Z</time>
      </trkpt>
      <trkpt lat="45.93054" lon="4.76449">
        <ele>169</ele>
        <time>2017-05-16T10:44:42Z</time>
      </trkpt>
      <trkpt lat="45.9305" lon="4.76445">
        <ele>169</ele>
        <time>2017-05-16T10:44:43Z</time>
      </trkpt>
      <trkpt lat="45.93046" lon="4.76441">
        <ele>169</ele>
        <time>2017-05-16T10:44:44Z</time>
      </trkpt>
      <trkpt lat="45.93042" lon="4.76437">
        <ele>169</ele>
        <time>2017-05-16T10:44:45Z</time>
      </trkpt>
      <trkpt lat="45.93039" lon="4.76433">
        <ele>169</ele>
        <time>2017-05-16T10:44:46Z</time>
      </trkpt>
      <trkpt lat="45.93031" lon="4.76425">
        <ele>169</ele>
        <time>2017-05-16T10:44:48Z</time>
      </trkpt>
      <trkpt lat="45.93028" lon="4.76422">
        <ele>169</ele>
        <time>2017-05-16T10:44:49Z</time>
      </trkpt>
      <trkpt lat="45.93022" lon="4.76414">
        <ele>169</ele>
        <time>2017-05-16T10:44:51Z</time>
      </trkpt>
      <trkpt lat="45.93018" lon="4.76409">
        <ele>169</ele>
        <time>2017-05-16T10:44:52Z</time>
      </trkpt>
      <trkpt lat="45.93014" lon="4.76405">
        <ele>169</ele>
        <time>2017-05-16T10:44:53Z</time>
      </trkpt>
      <trkpt lat="45.9301" lon="4.764">
        <ele>169</ele>
        <time>2017-05-16T10:44:54Z</time>
      </trkpt>
      <trkpt lat="45.93006" lon="4.76396">
        <ele>169</ele>
        <time>2017-05-16T10:44:55Z</time>
      </trkpt>
      <trkpt lat="45.93002" lon="4.76392">
        <ele>169</ele>
        <time>2017-05-16T10:44:56Z</time>
      </trkpt>
      <trkpt lat="45.92997" lon="4.76388">
        <ele>169</ele>
        <time>2017-05-16T10:44:57Z</time>
      </trkpt>
      <trkpt lat="45.92992" lon="4.76384">
        <ele>169</ele>
        <time>2017-05-16T10:44:58Z</time>
      </trkpt>
      <trkpt lat="45.92988" lon="4.7638">
        <ele>169</ele>
        <time>2017-05-16T10:44:59Z</time>
      </trkpt>
      <trkpt lat="45.92983" lon="4.76377">
        <ele>169</ele>
        <time>2017-05-16T10:45:00Z</time>
      </trkpt>
      <trkpt lat="45.92978" lon="4.76373">
        <ele>169</ele>
        <time>2017-05-16T10:45:01Z</time>
      </trkpt>
      <trkpt lat="45.92973" lon="4.76369">
        <ele>169</ele>
        <time>2017-05-16T10:45:02Z</time>
      </trkpt>
      <trkpt lat="45.92969" lon="4.76364">
        <ele>169</ele>
        <time>2017-05-16T10:45:03Z</time>
      </trkpt>
      <trkpt lat="45.92965" lon="4.7636">
        <ele>169</ele>
        <time>2017-05-16T10:45:04Z</time>
      </trkpt>
      <trkpt lat="45.92961" lon="4.76356">
        <ele>169</ele>
        <time>2017-05-16T10:45:05Z</time>
      </trkpt>
      <trkpt lat="45.92957" lon="4.76352">
        <ele>169</ele>
        <time>2017-05-16T10:45:06Z</time>
      </trkpt>
      <trkpt lat="45.92953" lon="4.76347">
        <ele>169</ele>
        <time>2017-05-16T10:45:07Z</time>
      </trkpt>
      <trkpt lat="45.9295" lon="4.76343">
        <ele>169</ele>
        <time>2017-05-16T10:45:08Z</time>
      </trkpt>
      <trkpt lat="45.92945" lon="4.76339">
        <ele>169</ele>
        <time>2017-05-16T10:45:09Z</time>
      </trkpt>
      <trkpt lat="45.92941" lon="4.76335">
        <ele>169</ele>
        <time>2017-05-16T10:45:10Z</time>
      </trkpt>
      <trkpt lat="45.92936" lon="4.7633">
        <ele>169</ele>
        <time>2017-05-16T10:45:11Z</time>
      </trkpt>
      <trkpt lat="45.92931" lon="4.76325">
        <ele>169</ele>
        <time>2017-05-16T10:45:12Z</time>
      </trkpt>
      <trkpt lat="45.92926" lon="4.7632">
        <ele>169</ele>
        <time>2017-05-16T10:45:13Z</time>
      </trkpt>
      <trkpt lat="45.92921" lon="4.76315">
        <ele>169</ele>
        <time>2017-05-16T10:45:14Z</time>
      </trkpt>
      <trkpt lat="45.92916" lon="4.7631">
        <ele>169</ele>
        <time>2017-05-16T10:45:15Z</time>
      </trkpt>
      <trkpt lat="45.92911" lon="4.76305">
        <ele>169</ele>
        <time>2017-05-16T10:45:16Z</time>
      </trkpt>
      <trkpt lat="45.92906" lon="4.76301">
        <ele>169</ele>
        <time>2017-05-16T10:45:17Z</time>
      </trkpt>
      <trkpt lat="45.929" lon="4.76296">
        <ele>169</ele>
        <time>2017-05-16T10:45:18Z</time>
      </trkpt>
      <trkpt lat="45.92895" lon="4.76291">
        <ele>169</ele>
        <time>2017-05-16T10:45:19Z</time>
      </trkpt>
      <trkpt lat="45.9289" lon="4.76286">
        <ele>169</ele>
        <time>2017-05-16T10:45:20Z</time>
      </trkpt>
      <trkpt lat="45.92886" lon="4.76281">
        <ele>169</ele>
        <time>2017-05-16T10:45:21Z</time>
      </trkpt>
      <trkpt lat="45.92881" lon="4.76275">
        <ele>169</ele>
        <time>2017-05-16T10:45:22Z</time>
      </trkpt>
      <trkpt lat="45.92877" lon="4.76271">
        <ele>169</ele>
        <time>2017-05-16T10:45:23Z</time>
      </trkpt>
      <trkpt lat="45.92872" lon="4.76266">
        <ele>169</ele>
        <time>2017-05-16T10:45:24Z</time>
      </trkpt>
      <trkpt lat="45.92868" lon="4.76262">
        <ele>169</ele>
        <time>2017-05-16T10:45:25Z</time>
      </trkpt>
      <trkpt lat="45.92864" lon="4.76258">
        <ele>169</ele>
        <time>2017-05-16T10:45:26Z</time>
      </trkpt>
      <trkpt lat="45.9286" lon="4.76254">
        <ele>169</ele>
        <time>2017-05-16T10:45:27Z</time>
      </trkpt>
      <trkpt lat="45.92857" lon="4.7625">
        <ele>169</ele>
        <time>2017-05-16T10:45:28Z</time>
      </trkpt>
      <trkpt lat="45.9285" lon="4.76242">
        <ele>169</ele>
        <time>2017-05-16T10:45:30Z</time>
      </trkpt>
      <trkpt lat="45.92846" lon="4.76238">
        <ele>169</ele>
        <time>2017-05-16T10:45:31Z</time>
      </trkpt>
      <trkpt lat="45.92842" lon="4.76234">
        <ele>169</ele>
        <time>2017-05-16T10:45:32Z</time>
      </trkpt>
      <trkpt lat="45.92838" lon="4.7623">
        <ele>168</ele>
        <time>2017-05-16T10:45:33Z</time>
      </trkpt>
      <trkpt lat="45.92833" lon="4.76226">
        <ele>168</ele>
        <time>2017-05-16T10:45:34Z</time>
      </trkpt>
      <trkpt lat="45.92829" lon="4.76221">
        <ele>168</ele>
        <time>2017-05-16T10:45:35Z</time>
      </trkpt>
      <trkpt lat="45.92824" lon="4.76217">
        <ele>168</ele>
        <time>2017-05-16T10:45:36Z</time>
      </trkpt>
      <trkpt lat="45.92819" lon="4.76213">
        <ele>168</ele>
        <time>2017-05-16T10:45:37Z</time>
      </trkpt>
      <trkpt lat="45.92814" lon="4.76208">
        <ele>168</ele>
        <time>2017-05-16T10:45:38Z</time>
      </trkpt>
      <trkpt lat="45.92809" lon="4.76204">
        <ele>168</ele>
        <time>2017-05-16T10:45:39Z</time>
      </trkpt>
      <trkpt lat="45.92804" lon="4.76199">
        <ele>168</ele>
        <time>2017-05-16T10:45:40Z</time>
      </trkpt>
      <trkpt lat="45.92798" lon="4.76194">
        <ele>168</ele>
        <time>2017-05-16T10:45:41Z</time>
      </trkpt>
      <trkpt lat="45.92792" lon="4.7619">
        <ele>168</ele>
        <time>2017-05-16T10:45:42Z</time>
      </trkpt>
      <trkpt lat="45.92787" lon="4.76186">
        <ele>168</ele>
        <time>2017-05-16T10:45:43Z</time>
      </trkpt>
      <trkpt lat="45.92782" lon="4.76182">
        <ele>168</ele>
        <time>2017-05-16T10:45:44Z</time>
      </trkpt>
      <trkpt lat="45.92777" lon="4.76177">
        <ele>167</ele>
        <time>2017-05-16T10:45:45Z</time>
      </trkpt>
      <trkpt lat="45.92773" lon="4.76173">
        <ele>167</ele>
        <time>2017-05-16T10:45:46Z</time>
      </trkpt>
      <trkpt lat="45.92768" lon="4.76169">
        <ele>167</ele>
        <time>2017-05-16T10:45:47Z</time>
      </trkpt>
      <trkpt lat="45.92764" lon="4.76165">
        <ele>167</ele>
        <time>2017-05-16T10:45:48Z</time>
      </trkpt>
      <trkpt lat="45.92759" lon="4.76161">
        <ele>167</ele>
        <time>2017-05-16T10:45:49Z</time>
      </trkpt>
      <trkpt lat="45.92755" lon="4.76157">
        <ele>167</ele>
        <time>2017-05-16T10:45:50Z</time>
      </trkpt>
      <trkpt lat="45.92751" lon="4.76152">
        <ele>167</ele>
        <time>2017-05-16T10:45:51Z</time>
      </trkpt>
      <trkpt lat="45.92745" lon="4.76149">
        <ele>168</ele>
        <time>2017-05-16T10:45:52Z</time>
      </trkpt>
      <trkpt lat="45.92739" lon="4.76144">
        <ele>168</ele>
        <time>2017-05-16T10:45:53Z</time>
      </trkpt>
      <trkpt lat="45.92733" lon="4.7614">
        <ele>168</ele>
        <time>2017-05-16T10:45:54Z</time>
      </trkpt>
      <trkpt lat="45.92727" lon="4.76137">
        <ele>168</ele>
        <time>2017-05-16T10:45:55Z</time>
      </trkpt>
      <trkpt lat="45.92721" lon="4.76134">
        <ele>168</ele>
        <time>2017-05-16T10:45:56Z</time>
      </trkpt>
      <trkpt lat="45.92716" lon="4.76131">
        <ele>168</ele>
        <time>2017-05-16T10:45:57Z</time>
      </trkpt>
      <trkpt lat="45.92711" lon="4.76127">
        <ele>168</ele>
        <time>2017-05-16T10:45:58Z</time>
      </trkpt>
      <trkpt lat="45.92706" lon="4.76124">
        <ele>169</ele>
        <time>2017-05-16T10:45:59Z</time>
      </trkpt>
      <trkpt lat="45.92702" lon="4.7612">
        <ele>169</ele>
        <time>2017-05-16T10:46:00Z</time>
      </trkpt>
      <trkpt lat="45.92697" lon="4.76116">
        <ele>169</ele>
        <time>2017-05-16T10:46:01Z</time>
      </trkpt>
      <trkpt lat="45.92692" lon="4.76113">
        <ele>169</ele>
        <time>2017-05-16T10:46:02Z</time>
      </trkpt>
      <trkpt lat="45.92687" lon="4.76109">
        <ele>169</ele>
        <time>2017-05-16T10:46:03Z</time>
      </trkpt>
      <trkpt lat="45.92682" lon="4.76105">
        <ele>169</ele>
        <time>2017-05-16T10:46:04Z</time>
      </trkpt>
      <trkpt lat="45.92678" lon="4.76101">
        <ele>169</ele>
        <time>2017-05-16T10:46:05Z</time>
      </trkpt>
      <trkpt lat="45.92673" lon="4.76097">
        <ele>169</ele>
        <time>2017-05-16T10:46:06Z</time>
      </trkpt>
      <trkpt lat="45.92668" lon="4.76093">
        <ele>170</ele>
        <time>2017-05-16T10:46:07Z</time>
      </trkpt>
      <trkpt lat="45.92663" lon="4.76089">
        <ele>170</ele>
        <time>2017-05-16T10:46:08Z</time>
      </trkpt>
      <trkpt lat="45.92659" lon="4.76085">
        <ele>170</ele>
        <time>2017-05-16T10:46:09Z</time>
      </trkpt>
      <trkpt lat="45.92654" lon="4.76081">
        <ele>170</ele>
        <time>2017-05-16T10:46:10Z</time>
      </trkpt>
      <trkpt lat="45.9265" lon="4.76077">
        <ele>170</ele>
        <time>2017-05-16T10:46:11Z</time>
      </trkpt>
      <trkpt lat="45.92645" lon="4.76073">
        <ele>170</ele>
        <time>2017-05-16T10:46:12Z</time>
      </trkpt>
      <trkpt lat="45.9264" lon="4.7607">
        <ele>170</ele>
        <time>2017-05-16T10:46:13Z</time>
      </trkpt>
      <trkpt lat="45.92635" lon="4.76066">
        <ele>170</ele>
        <time>2017-05-16T10:46:14Z</time>
      </trkpt>
      <trkpt lat="45.9263" lon="4.76063">
        <ele>170</ele>
        <time>2017-05-16T10:46:15Z</time>
      </trkpt>
      <trkpt lat="45.92626" lon="4.7606">
        <ele>170</ele>
        <time>2017-05-16T10:46:16Z</time>
      </trkpt>
      <trkpt lat="45.92621" lon="4.76056">
        <ele>171</ele>
        <time>2017-05-16T10:46:17Z</time>
      </trkpt>
      <trkpt lat="45.92616" lon="4.76053">
        <ele>171</ele>
        <time>2017-05-16T10:46:18Z</time>
      </trkpt>
      <trkpt lat="45.92611" lon="4.76049">
        <ele>171</ele>
        <time>2017-05-16T10:46:19Z</time>
      </trkpt>
      <trkpt lat="45.92606" lon="4.76046">
        <ele>171</ele>
        <time>2017-05-16T10:46:20Z</time>
      </trkpt>
      <trkpt lat="45.92602" lon="4.76044">
        <ele>171</ele>
        <time>2017-05-16T10:46:21Z</time>
      </trkpt>
      <trkpt lat="45.92597" lon="4.76041">
        <ele>171</ele>
        <time>2017-05-16T10:46:22Z</time>
      </trkpt>
      <trkpt lat="45.92593" lon="4.76038">
        <ele>171</ele>
        <time>2017-05-16T10:46:23Z</time>
      </trkpt>
      <trkpt lat="45.92585" lon="4.76033">
        <ele>171</ele>
        <time>2017-05-16T10:46:25Z</time>
      </trkpt>
      <trkpt lat="45.92581" lon="4.76031">
        <ele>172</ele>
        <time>2017-05-16T10:46:26Z</time>
      </trkpt>
      <trkpt lat="45.92573" lon="4.76026">
        <ele>172</ele>
        <time>2017-05-16T10:46:28Z</time>
      </trkpt>
      <trkpt lat="45.92569" lon="4.76024">
        <ele>172</ele>
        <time>2017-05-16T10:46:29Z</time>
      </trkpt>
      <trkpt lat="45.92562" lon="4.76019">
        <ele>172</ele>
        <time>2017-05-16T10:46:31Z</time>
      </trkpt>
      <trkpt lat="45.92558" lon="4.76016">
        <ele>172</ele>
        <time>2017-05-16T10:46:32Z</time>
      </trkpt>
      <trkpt lat="45.92551" lon="4.76012">
        <ele>172</ele>
        <time>2017-05-16T10:46:34Z</time>
      </trkpt>
      <trkpt lat="45.92547" lon="4.76009">
        <ele>172</ele>
        <time>2017-05-16T10:46:35Z</time>
      </trkpt>
      <trkpt lat="45.9254" lon="4.76004">
        <ele>172</ele>
        <time>2017-05-16T10:46:37Z</time>
      </trkpt>
      <trkpt lat="45.92536" lon="4.76001">
        <ele>172</ele>
        <time>2017-05-16T10:46:38Z</time>
      </trkpt>
      <trkpt lat="45.92528" lon="4.75996">
        <ele>172</ele>
        <time>2017-05-16T10:46:40Z</time>
      </trkpt>
      <trkpt lat="45.92524" lon="4.75993">
        <ele>172</ele>
        <time>2017-05-16T10:46:41Z</time>
      </trkpt>
      <trkpt lat="45.92519" lon="4.75989">
        <ele>172</ele>
        <time>2017-05-16T10:46:42Z</time>
      </trkpt>
      <trkpt lat="45.92515" lon="4.75986">
        <ele>172</ele>
        <time>2017-05-16T10:46:43Z</time>
      </trkpt>
      <trkpt lat="45.92511" lon="4.75983">
        <ele>172</ele>
        <time>2017-05-16T10:46:44Z</time>
      </trkpt>
      <trkpt lat="45.92506" lon="4.75981">
        <ele>172</ele>
        <time>2017-05-16T10:46:45Z</time>
      </trkpt>
      <trkpt lat="45.92502" lon="4.75978">
        <ele>172</ele>
        <time>2017-05-16T10:46:46Z</time>
      </trkpt>
      <trkpt lat="45.92497" lon="4.75975">
        <ele>172</ele>
        <time>2017-05-16T10:46:47Z</time>
      </trkpt>
      <trkpt lat="45.92493" lon="4.75972">
        <ele>172</ele>
        <time>2017-05-16T10:46:48Z</time>
      </trkpt>
      <trkpt lat="45.92489" lon="4.75969">
        <ele>172</ele>
        <time>2017-05-16T10:46:49Z</time>
      </trkpt>
      <trkpt lat="45.92485" lon="4.75966">
        <ele>172</ele>
        <time>2017-05-16T10:46:50Z</time>
      </trkpt>
      <trkpt lat="45.9248" lon="4.75963">
        <ele>172</ele>
        <time>2017-05-16T10:46:51Z</time>
      </trkpt>
      <trkpt lat="45.92476" lon="4.7596">
        <ele>172</ele>
        <time>2017-05-16T10:46:52Z</time>
      </trkpt>
      <trkpt lat="45.92471" lon="4.75957">
        <ele>172</ele>
        <time>2017-05-16T10:46:53Z</time>
      </trkpt>
      <trkpt lat="45.92467" lon="4.75955">
        <ele>172</ele>
        <time>2017-05-16T10:46:54Z</time>
      </trkpt>
      <trkpt lat="45.92462" lon="4.75952">
        <ele>172</ele>
        <time>2017-05-16T10:46:55Z</time>
      </trkpt>
      <trkpt lat="45.92457" lon="4.75949">
        <ele>172</ele>
        <time>2017-05-16T10:46:56Z</time>
      </trkpt>
      <trkpt lat="45.92453" lon="4.75946">
        <ele>172</ele>
        <time>2017-05-16T10:46:57Z</time>
      </trkpt>
      <trkpt lat="45.92448" lon="4.75942">
        <ele>172</ele>
        <time>2017-05-16T10:46:58Z</time>
      </trkpt>
      <trkpt lat="45.92443" lon="4.75938">
        <ele>172</ele>
        <time>2017-05-16T10:46:59Z</time>
      </trkpt>
      <trkpt lat="45.92438" lon="4.75935">
        <ele>172</ele>
        <time>2017-05-16T10:47:00Z</time>
      </trkpt>
      <trkpt lat="45.92433" lon="4.75931">
        <ele>172</ele>
        <time>2017-05-16T10:47:01Z</time>
      </trkpt>
      <trkpt lat="45.92427" lon="4.75928">
        <ele>172</ele>
        <time>2017-05-16T10:47:02Z</time>
      </trkpt>
      <trkpt lat="45.92422" lon="4.75924">
        <ele>172</ele>
        <time>2017-05-16T10:47:03Z</time>
      </trkpt>
      <trkpt lat="45.92416" lon="4.7592">
        <ele>172</ele>
        <time>2017-05-16T10:47:04Z</time>
      </trkpt>
      <trkpt lat="45.9241" lon="4.75916">
        <ele>172</ele>
        <time>2017-05-16T10:47:05Z</time>
      </trkpt>
      <trkpt lat="45.92404" lon="4.75912">
        <ele>172</ele>
        <time>2017-05-16T10:47:06Z</time>
      </trkpt>
      <trkpt lat="45.92399" lon="4.75908">
        <ele>173</ele>
        <time>2017-05-16T10:47:07Z</time>
      </trkpt>
      <trkpt lat="45.92393" lon="4.75904">
        <ele>173</ele>
        <time>2017-05-16T10:47:08Z</time>
      </trkpt>
      <trkpt lat="45.92387" lon="4.759">
        <ele>173</ele>
        <time>2017-05-16T10:47:09Z</time>
      </trkpt>
      <trkpt lat="45.92382" lon="4.75895">
        <ele>173</ele>
        <time>2017-05-16T10:47:10Z</time>
      </trkpt>
      <trkpt lat="45.92377" lon="4.75892">
        <ele>173</ele>
        <time>2017-05-16T10:47:11Z</time>
      </trkpt>
      <trkpt lat="45.92371" lon="4.75888">
        <ele>173</ele>
        <time>2017-05-16T10:47:12Z</time>
      </trkpt>
      <trkpt lat="45.92366" lon="4.75884">
        <ele>173</ele>
        <time>2017-05-16T10:47:13Z</time>
      </trkpt>
      <trkpt lat="45.92361" lon="4.75881">
        <ele>173</ele>
        <time>2017-05-16T10:47:14Z</time>
      </trkpt>
      <trkpt lat="45.92356" lon="4.75878">
        <ele>173</ele>
        <time>2017-05-16T10:47:15Z</time>
      </trkpt>
      <trkpt lat="45.92352" lon="4.75874">
        <ele>173</ele>
        <time>2017-05-16T10:47:16Z</time>
      </trkpt>
      <trkpt lat="45.92347" lon="4.75871">
        <ele>173</ele>
        <time>2017-05-16T10:47:17Z</time>
      </trkpt>
      <trkpt lat="45.92342" lon="4.75868">
        <ele>173</ele>
        <time>2017-05-16T10:47:18Z</time>
      </trkpt>
      <trkpt lat="45.92336" lon="4.75864">
        <ele>173</ele>
        <time>2017-05-16T10:47:19Z</time>
      </trkpt>
      <trkpt lat="45.92331" lon="4.75861">
        <ele>173</ele>
        <time>2017-05-16T10:47:20Z</time>
      </trkpt>
      <trkpt lat="45.92326" lon="4.75858">
        <ele>173</ele>
        <time>2017-05-16T10:47:21Z</time>
      </trkpt>
      <trkpt lat="45.92321" lon="4.75855">
        <ele>174</ele>
        <time>2017-05-16T10:47:22Z</time>
      </trkpt>
      <trkpt lat="45.92316" lon="4.75852">
        <ele>173</ele>
        <time>2017-05-16T10:47:23Z</time>
      </trkpt>
      <trkpt lat="45.9231" lon="4.75849">
        <ele>173</ele>
        <time>2017-05-16T10:47:24Z</time>
      </trkpt>
      <trkpt lat="45.92305" lon="4.75845">
        <ele>173</ele>
        <time>2017-05-16T10:47:25Z</time>
      </trkpt>
      <trkpt lat="45.92301" lon="4.75841">
        <ele>173</ele>
        <time>2017-05-16T10:47:26Z</time>
      </trkpt>
      <trkpt lat="45.92296" lon="4.75837">
        <ele>173</ele>
        <time>2017-05-16T10:47:27Z</time>
      </trkpt>
      <trkpt lat="45.9229" lon="4.75834">
        <ele>173</ele>
        <time>2017-05-16T10:47:28Z</time>
      </trkpt>
      <trkpt lat="45.92284" lon="4.75829">
        <ele>174</ele>
        <time>2017-05-16T10:47:29Z</time>
      </trkpt>
      <trkpt lat="45.92278" lon="4.75825">
        <ele>174</ele>
        <time>2017-05-16T10:47:30Z</time>
      </trkpt>
      <trkpt lat="45.92273" lon="4.7582">
        <ele>174</ele>
        <time>2017-05-16T10:47:31Z</time>
      </trkpt>
      <trkpt lat="45.92269" lon="4.75814">
        <ele>174</ele>
        <time>2017-05-16T10:47:32Z</time>
      </trkpt>
      <trkpt lat="45.92266" lon="4.75808">
        <ele>174</ele>
        <time>2017-05-16T10:47:33Z</time>
      </trkpt>
      <trkpt lat="45.92264" lon="4.75802">
        <ele>174</ele>
        <time>2017-05-16T10:47:34Z</time>
      </trkpt>
      <trkpt lat="45.92262" lon="4.75795">
        <ele>174</ele>
        <time>2017-05-16T10:47:35Z</time>
      </trkpt>
      <trkpt lat="45.9226" lon="4.75788">
        <ele>174</ele>
        <time>2017-05-16T10:47:36Z</time>
      </trkpt>
      <trkpt lat="45.92259" lon="4.75781">
        <ele>174</ele>
        <time>2017-05-16T10:47:37Z</time>
      </trkpt>
      <trkpt lat="45.92258" lon="4.75774">
        <ele>174</ele>
        <time>2017-05-16T10:47:38Z</time>
      </trkpt>
      <trkpt lat="45.92257" lon="4.75766">
        <ele>174</ele>
        <time>2017-05-16T10:47:39Z</time>
      </trkpt>
      <trkpt lat="45.92256" lon="4.75759">
        <ele>174</ele>
        <time>2017-05-16T10:47:40Z</time>
      </trkpt>
      <trkpt lat="45.92254" lon="4.75752">
        <ele>174</ele>
        <time>2017-05-16T10:47:41Z</time>
      </trkpt>
      <trkpt lat="45.92253" lon="4.75744">
        <ele>174</ele>
        <time>2017-05-16T10:47:42Z</time>
      </trkpt>
      <trkpt lat="45.92252" lon="4.75737">
        <ele>174</ele>
        <time>2017-05-16T10:47:43Z</time>
      </trkpt>
      <trkpt lat="45.9225" lon="4.7573">
        <ele>174</ele>
        <time>2017-05-16T10:47:44Z</time>
      </trkpt>
      <trkpt lat="45.92248" lon="4.75723">
        <ele>174</ele>
        <time>2017-05-16T10:47:45Z</time>
      </trkpt>
      <trkpt lat="45.92246" lon="4.75717">
        <ele>174</ele>
        <time>2017-05-16T10:47:46Z</time>
      </trkpt>
      <trkpt lat="45.92243" lon="4.7571">
        <ele>174</ele>
        <time>2017-05-16T10:47:47Z</time>
      </trkpt>
      <trkpt lat="45.92239" lon="4.75705">
        <ele>174</ele>
        <time>2017-05-16T10:47:48Z</time>
      </trkpt>
      <trkpt lat="45.92235" lon="4.757">
        <ele>174</ele>
        <time>2017-05-16T10:47:49Z</time>
      </trkpt>
      <trkpt lat="45.92231" lon="4.75696">
        <ele>174</ele>
        <time>2017-05-16T10:47:50Z</time>
      </trkpt>
      <trkpt lat="45.92227" lon="4.75692">
        <ele>174</ele>
        <time>2017-05-16T10:47:51Z</time>
      </trkpt>
      <trkpt lat="45.92223" lon="4.75688">
        <ele>174</ele>
        <time>2017-05-16T10:47:52Z</time>
      </trkpt>
      <trkpt lat="45.92218" lon="4.75684">
        <ele>174</ele>
        <time>2017-05-16T10:47:53Z</time>
      </trkpt>
      <trkpt lat="45.92214" lon="4.75679">
        <ele>174</ele>
        <time>2017-05-16T10:47:54Z</time>
      </trkpt>
      <trkpt lat="45.92209" lon="4.75674">
        <ele>174</ele>
        <time>2017-05-16T10:47:55Z</time>
      </trkpt>
      <trkpt lat="45.92204" lon="4.75669">
        <ele>174</ele>
        <time>2017-05-16T10:47:56Z</time>
      </trkpt>
      <trkpt lat="45.92199" lon="4.75664">
        <ele>174</ele>
        <time>2017-05-16T10:47:57Z</time>
      </trkpt>
      <trkpt lat="45.92194" lon="4.75659">
        <ele>174</ele>
        <time>2017-05-16T10:47:58Z</time>
      </trkpt>
      <trkpt lat="45.92188" lon="4.75654">
        <ele>174</ele>
        <time>2017-05-16T10:47:59Z</time>
      </trkpt>
      <trkpt lat="45.92182" lon="4.75649">
        <ele>174</ele>
        <time>2017-05-16T10:48:00Z</time>
      </trkpt>
      <trkpt lat="45.92177" lon="4.75645">
        <ele>174</ele>
        <time>2017-05-16T10:48:01Z</time>
      </trkpt>
      <trkpt lat="45.92172" lon="4.7564">
        <ele>174</ele>
        <time>2017-05-16T10:48:02Z</time>
      </trkpt>
      <trkpt lat="45.92168" lon="4.75635">
        <ele>174</ele>
        <time>2017-05-16T10:48:03Z</time>
      </trkpt>
      <trkpt lat="45.92163" lon="4.75631">
        <ele>174</ele>
        <time>2017-05-16T10:48:04Z</time>
      </trkpt>
      <trkpt lat="45.92159" lon="4.75626">
        <ele>174</ele>
        <time>2017-05-16T10:48:05Z</time>
      </trkpt>
      <trkpt lat="45.92154" lon="4.75622">
        <ele>174</ele>
        <time>2017-05-16T10:48:06Z</time>
      </trkpt>
      <trkpt lat="45.9215" lon="4.75617">
        <ele>174</ele>
        <time>2017-05-16T10:48:07Z</time>
      </trkpt>
      <trkpt lat="45.92146" lon="4.75613">
        <ele>174</ele>
        <time>2017-05-16T10:48:08Z</time>
      </trkpt>
      <trkpt lat="45.92142" lon="4.75609">
        <ele>174</ele>
        <time>2017-05-16T10:48:09Z</time>
      </trkpt>
      <trkpt lat="45.92138" lon="4.75604">
        <ele>174</ele>
        <time>2017-05-16T10:48:10Z</time>
      </trkpt>
      <trkpt lat="45.92134" lon="4.756">
        <ele>174</ele>
        <time>2017-05-16T10:48:11Z</time>
      </trkpt>
      <trkpt lat="45.92131" lon="4.75596">
        <ele>174</ele>
        <time>2017-05-16T10:48:12Z</time>
      </trkpt>
      <trkpt lat="45.92127" lon="4.75592">
        <ele>174</ele>
        <time>2017-05-16T10:48:13Z</time>
      </trkpt>
      <trkpt lat="45.92121" lon="4.75583">
        <ele>174</ele>
        <time>2017-05-16T10:48:15Z</time>
      </trkpt>
      <trkpt lat="45.92119" lon="4.75579">
        <ele>174</ele>
        <time>2017-05-16T10:48:16Z</time>
      </trkpt>
      <trkpt lat="45.92119" lon="4.75567">
        <ele>174</ele>
        <time>2017-05-16T10:48:18Z</time>
      </trkpt>
      <trkpt lat="45.92121" lon="4.75561">
        <ele>174</ele>
        <time>2017-05-16T10:48:19Z</time>
      </trkpt>
      <trkpt lat="45.92124" lon="4.75556">
        <ele>174</ele>
        <time>2017-05-16T10:48:20Z</time>
      </trkpt>
      <trkpt lat="45.92127" lon="4.7555">
        <ele>174</ele>
        <time>2017-05-16T10:48:21Z</time>
      </trkpt>
      <trkpt lat="45.9213" lon="4.75544">
        <ele>174</ele>
        <time>2017-05-16T10:48:22Z</time>
      </trkpt>
      <trkpt lat="45.92134" lon="4.75538">
        <ele>174</ele>
        <time>2017-05-16T10:48:23Z</time>
      </trkpt>
      <trkpt lat="45.92138" lon="4.75532">
        <ele>174</ele>
        <time>2017-05-16T10:48:24Z</time>
      </trkpt>
      <trkpt lat="45.92141" lon="4.75525">
        <ele>174</ele>
        <time>2017-05-16T10:48:25Z</time>
      </trkpt>
      <trkpt lat="45.92145" lon="4.75519">
        <ele>174</ele>
        <time>2017-05-16T10:48:26Z</time>
      </trkpt>
      <trkpt lat="45.92147" lon="4.75512">
        <ele>175</ele>
        <time>2017-05-16T10:48:27Z</time>
      </trkpt>
      <trkpt lat="45.9215" lon="4.75505">
        <ele>175</ele>
        <time>2017-05-16T10:48:28Z</time>
      </trkpt>
      <trkpt lat="45.92154" lon="4.75498">
        <ele>175</ele>
        <time>2017-05-16T10:48:29Z</time>
      </trkpt>
      <trkpt lat="45.92157" lon="4.75491">
        <ele>175</ele>
        <time>2017-05-16T10:48:30Z</time>
      </trkpt>
      <trkpt lat="45.9216" lon="4.75483">
        <ele>176</ele>
        <time>2017-05-16T10:48:31Z</time>
      </trkpt>
      <trkpt lat="45.92163" lon="4.75476">
        <ele>176</ele>
        <time>2017-05-16T10:48:32Z</time>
      </trkpt>
      <trkpt lat="45.92166" lon="4.75469">
        <ele>176</ele>
        <time>2017-05-16T10:48:33Z</time>
      </trkpt>
      <trkpt lat="45.92168" lon="4.75462">
        <ele>176</ele>
        <time>2017-05-16T10:48:34Z</time>
      </trkpt>
      <trkpt lat="45.92171" lon="4.75455">
        <ele>176</ele>
        <time>2017-05-16T10:48:35Z</time>
      </trkpt>
      <trkpt lat="45.92174" lon="4.75448">
        <ele>176</ele>
        <time>2017-05-16T10:48:36Z</time>
      </trkpt>
      <trkpt lat="45.92177" lon="4.75441">
        <ele>176</ele>
        <time>2017-05-16T10:48:37Z</time>
      </trkpt>
      <trkpt lat="45.9218" lon="4.75433">
        <ele>177</ele>
        <time>2017-05-16T10:48:38Z</time>
      </trkpt>
      <trkpt lat="45.92183" lon="4.75426">
        <ele>177</ele>
        <time>2017-05-16T10:48:39Z</time>
      </trkpt>
      <trkpt lat="45.92186" lon="4.75419">
        <ele>177</ele>
        <time>2017-05-16T10:48:40Z</time>
      </trkpt>
      <trkpt lat="45.92188" lon="4.75413">
        <ele>177</ele>
        <time>2017-05-16T10:48:41Z</time>
      </trkpt>
      <trkpt lat="45.92191" lon="4.75407">
        <ele>177</ele>
        <time>2017-05-16T10:48:42Z</time>
      </trkpt>
      <trkpt lat="45.92192" lon="4.75401">
        <ele>177</ele>
        <time>2017-05-16T10:48:43Z</time>
      </trkpt>
      <trkpt lat="45.92194" lon="4.75395">
        <ele>177</ele>
        <time>2017-05-16T10:48:44Z</time>
      </trkpt>
      <trkpt lat="45.92196" lon="4.75389">
        <ele>177</ele>
        <time>2017-05-16T10:48:45Z</time>
      </trkpt>
      <trkpt lat="45.92198" lon="4.75383">
        <ele>177</ele>
        <time>2017-05-16T10:48:46Z</time>
      </trkpt>
      <trkpt lat="45.92201" lon="4.75376">
        <ele>177</ele>
        <time>2017-05-16T10:48:47Z</time>
      </trkpt>
      <trkpt lat="45.92203" lon="4.7537">
        <ele>177</ele>
        <time>2017-05-16T10:48:48Z</time>
      </trkpt>
      <trkpt lat="45.92205" lon="4.75364">
        <ele>177</ele>
        <time>2017-05-16T10:48:49Z</time>
      </trkpt>
      <trkpt lat="45.92207" lon="4.75357">
        <ele>177</ele>
        <time>2017-05-16T10:48:50Z</time>
      </trkpt>
      <trkpt lat="45.92209" lon="4.75349">
        <ele>177</ele>
        <time>2017-05-16T10:48:51Z</time>
      </trkpt>
      <trkpt lat="45.9221" lon="4.7534">
        <ele>177</ele>
        <time>2017-05-16T10:48:52Z</time>
      </trkpt>
      <trkpt lat="45.92212" lon="4.75331">
        <ele>176</ele>
        <time>2017-05-16T10:48:53Z</time>
      </trkpt>
      <trkpt lat="45.92213" lon="4.75322">
        <ele>176</ele>
        <time>2017-05-16T10:48:54Z</time>
      </trkpt>
      <trkpt lat="45.92214" lon="4.75313">
        <ele>176</ele>
        <time>2017-05-16T10:48:55Z</time>
      </trkpt>
      <trkpt lat="45.92215" lon="4.75304">
        <ele>176</ele>
        <time>2017-05-16T10:48:56Z</time>
      </trkpt>
      <trkpt lat="45.92216" lon="4.75295">
        <ele>176</ele>
        <time>2017-05-16T10:48:57Z</time>
      </trkpt>
      <trkpt lat="45.92216" lon="4.75286">
        <ele>176</ele>
        <time>2017-05-16T10:48:58Z</time>
      </trkpt>
      <trkpt lat="45.92216" lon="4.75276">
        <ele>176</ele>
        <time>2017-05-16T10:48:59Z</time>
      </trkpt>
      <trkpt lat="45.92216" lon="4.75267">
        <ele>176</ele>
        <time>2017-05-16T10:49:00Z</time>
      </trkpt>
      <trkpt lat="45.92217" lon="4.75257">
        <ele>175</ele>
        <time>2017-05-16T10:49:01Z</time>
      </trkpt>
      <trkpt lat="45.92218" lon="4.75248">
        <ele>175</ele>
        <time>2017-05-16T10:49:02Z</time>
      </trkpt>
      <trkpt lat="45.92219" lon="4.75239">
        <ele>175</ele>
        <time>2017-05-16T10:49:03Z</time>
      </trkpt>
      <trkpt lat="45.92221" lon="4.7523">
        <ele>175</ele>
        <time>2017-05-16T10:49:04Z</time>
      </trkpt>
      <trkpt lat="45.92221" lon="4.75221">
        <ele>175</ele>
        <time>2017-05-16T10:49:05Z</time>
      </trkpt>
      <trkpt lat="45.92223" lon="4.75211">
        <ele>175</ele>
        <time>2017-05-16T10:49:06Z</time>
      </trkpt>
      <trkpt lat="45.92224" lon="4.75202">
        <ele>175</ele>
        <time>2017-05-16T10:49:07Z</time>
      </trkpt>
      <trkpt lat="45.92226" lon="4.75193">
        <ele>175</ele>
        <time>2017-05-16T10:49:08Z</time>
      </trkpt>
      <trkpt lat="45.92228" lon="4.75185">
        <ele>175</ele>
        <time>2017-05-16T10:49:09Z</time>
      </trkpt>
      <trkpt lat="45.92231" lon="4.75177">
        <ele>175</ele>
        <time>2017-05-16T10:49:10Z</time>
      </trkpt>
      <trkpt lat="45.92234" lon="4.75169">
        <ele>175</ele>
        <time>2017-05-16T10:49:11Z</time>
      </trkpt>
      <trkpt lat="45.92237" lon="4.75161">
        <ele>174</ele>
        <time>2017-05-16T10:49:12Z</time>
      </trkpt>
      <trkpt lat="45.9224" lon="4.75153">
        <ele>174</ele>
        <time>2017-05-16T10:49:13Z</time>
      </trkpt>
      <trkpt lat="45.92244" lon="4.75147">
        <ele>174</ele>
        <time>2017-05-16T10:49:14Z</time>
      </trkpt>
      <trkpt lat="45.92248" lon="4.7514">
        <ele>174</ele>
        <time>2017-05-16T10:49:15Z</time>
      </trkpt>
      <trkpt lat="45.92252" lon="4.75134">
        <ele>174</ele>
        <time>2017-05-16T10:49:16Z</time>
      </trkpt>
      <trkpt lat="45.92256" lon="4.75129">
        <ele>174</ele>
        <time>2017-05-16T10:49:17Z</time>
      </trkpt>
      <trkpt lat="45.92261" lon="4.75123">
        <ele>174</ele>
        <time>2017-05-16T10:49:18Z</time>
      </trkpt>
      <trkpt lat="45.92266" lon="4.75118">
        <ele>174</ele>
        <time>2017-05-16T10:49:19Z</time>
      </trkpt>
      <trkpt lat="45.92271" lon="4.75113">
        <ele>174</ele>
        <time>2017-05-16T10:49:20Z</time>
      </trkpt>
      <trkpt lat="45.92275" lon="4.75108">
        <ele>174</ele>
        <time>2017-05-16T10:49:21Z</time>
      </trkpt>
      <trkpt lat="45.9228" lon="4.75104">
        <ele>173</ele>
        <time>2017-05-16T10:49:22Z</time>
      </trkpt>
      <trkpt lat="45.92284" lon="4.75099">
        <ele>173</ele>
        <time>2017-05-16T10:49:23Z</time>
      </trkpt>
      <trkpt lat="45.9229" lon="4.75093">
        <ele>173</ele>
        <time>2017-05-16T10:49:24Z</time>
      </trkpt>
      <trkpt lat="45.92295" lon="4.75087">
        <ele>173</ele>
        <time>2017-05-16T10:49:25Z</time>
      </trkpt>
      <trkpt lat="45.923" lon="4.75081">
        <ele>172</ele>
        <time>2017-05-16T10:49:26Z</time>
      </trkpt>
      <trkpt lat="45.92305" lon="4.75074">
        <ele>172</ele>
        <time>2017-05-16T10:49:27Z</time>
      </trkpt>
      <trkpt lat="45.9231" lon="4.75068">
        <ele>172</ele>
        <time>2017-05-16T10:49:28Z</time>
      </trkpt>
      <trkpt lat="45.92315" lon="4.75061">
        <ele>172</ele>
        <time>2017-05-16T10:49:29Z</time>
      </trkpt>
      <trkpt lat="45.9232" lon="4.75054">
        <ele>172</ele>
        <time>2017-05-16T10:49:30Z</time>
      </trkpt>
      <trkpt lat="45.92324" lon="4.75047">
        <ele>172</ele>
        <time>2017-05-16T10:49:31Z</time>
      </trkpt>
      <trkpt lat="45.92328" lon="4.7504">
        <ele>171</ele>
        <time>2017-05-16T10:49:32Z</time>
      </trkpt>
      <trkpt lat="45.92332" lon="4.75033">
        <ele>171</ele>
        <time>2017-05-16T10:49:33Z</time>
      </trkpt>
      <trkpt lat="45.92335" lon="4.75026">
        <ele>170</ele>
        <time>2017-05-16T10:49:34Z</time>
      </trkpt>
      <trkpt lat="45.92339" lon="4.7502">
        <ele>170</ele>
        <time>2017-05-16T10:49:35Z</time>
      </trkpt>
      <trkpt lat="45.92342" lon="4.75013">
        <ele>170</ele>
        <time>2017-05-16T10:49:36Z</time>
      </trkpt>
      <trkpt lat="45.92344" lon="4.75006">
        <ele>170</ele>
        <time>2017-05-16T10:49:37Z</time>
      </trkpt>
      <trkpt lat="45.92347" lon="4.75">
        <ele>170</ele>
        <time>2017-05-16T10:49:38Z</time>
      </trkpt>
      <trkpt lat="45.9235" lon="4.74993">
        <ele>170</ele>
        <time>2017-05-16T10:49:39Z</time>
      </trkpt>
      <trkpt lat="45.92353" lon="4.74986">
        <ele>170</ele>
        <time>2017-05-16T10:49:40Z</time>
      </trkpt>
      <trkpt lat="45.92355" lon="4.74979">
        <ele>170</ele>
        <time>2017-05-16T10:49:41Z</time>
      </trkpt>
      <trkpt lat="45.92358" lon="4.74972">
        <ele>170</ele>
        <time>2017-05-16T10:49:42Z</time>
      </trkpt>
      <trkpt lat="45.9236" lon="4.74966">
        <ele>170</ele>
        <time>2017-05-16T10:49:43Z</time>
      </trkpt>
      <trkpt lat="45.92363" lon="4.74959">
        <ele>170</ele>
        <time>2017-05-16T10:49:44Z</time>
      </trkpt>
      <trkpt lat="45.92366" lon="4.74952">
        <ele>170</ele>
        <time>2017-05-16T10:49:45Z</time>
      </trkpt>
      <trkpt lat="45.92368" lon="4.74946">
        <ele>170</ele>
        <time>2017-05-16T10:49:46Z</time>
      </trkpt>
      <trkpt lat="45.92371" lon="4.74939">
        <ele>170</ele>
        <time>2017-05-16T10:49:47Z</time>
      </trkpt>
      <trkpt lat="45.92373" lon="4.74932">
        <ele>170</ele>
        <time>2017-05-16T10:49:48Z</time>
      </trkpt>
      <trkpt lat="45.92376" lon="4.74925">
        <ele>170</ele>
        <time>2017-05-16T10:49:49Z</time>
      </trkpt>
      <trkpt lat="45.92379" lon="4.74918">
        <ele>170</ele>
        <time>2017-05-16T10:49:50Z</time>
      </trkpt>
      <trkpt lat="45.92382" lon="4.7491">
        <ele>171</ele>
        <time>2017-05-16T10:49:51Z</time>
      </trkpt>
      <trkpt lat="45.92384" lon="4.74901">
        <ele>171</ele>
        <time>2017-05-16T10:49:52Z</time>
      </trkpt>
      <trkpt lat="45.92387" lon="4.74894">
        <ele>171</ele>
        <time>2017-05-16T10:49:53Z</time>
      </trkpt>
      <trkpt lat="45.9239" lon="4.74886">
        <ele>171</ele>
        <time>2017-05-16T10:49:54Z</time>
      </trkpt>
      <trkpt lat="45.92393" lon="4.74878">
        <ele>171</ele>
        <time>2017-05-16T10:49:55Z</time>
      </trkpt>
      <trkpt lat="45.92395" lon="4.74871">
        <ele>171</ele>
        <time>2017-05-16T10:49:56Z</time>
      </trkpt>
      <trkpt lat="45.92398" lon="4.74863">
        <ele>171</ele>
        <time>2017-05-16T10:49:57Z</time>
      </trkpt>
      <trkpt lat="45.92401" lon="4.74855">
        <ele>171</ele>
        <time>2017-05-16T10:49:58Z</time>
      </trkpt>
      <trkpt lat="45.92403" lon="4.74847">
        <ele>171</ele>
        <time>2017-05-16T10:49:59Z</time>
      </trkpt>
      <trkpt lat="45.92405" lon="4.74839">
        <ele>171</ele>
        <time>2017-05-16T10:50:00Z</time>
      </trkpt>
      <trkpt lat="45.92407" lon="4.7483">
        <ele>171</ele>
        <time>2017-05-16T10:50:01Z</time>
      </trkpt>
      <trkpt lat="45.92409" lon="4.74821">
        <ele>171</ele>
        <time>2017-05-16T10:50:02Z</time>
      </trkpt>
      <trkpt lat="45.92411" lon="4.74812">
        <ele>171</ele>
        <time>2017-05-16T10:50:03Z</time>
      </trkpt>
      <trkpt lat="45.92413" lon="4.74803">
        <ele>171</ele>
        <time>2017-05-16T10:50:04Z</time>
      </trkpt>
      <trkpt lat="45.92415" lon="4.74795">
        <ele>171</ele>
        <time>2017-05-16T10:50:05Z</time>
      </trkpt>
      <trkpt lat="45.92417" lon="4.74786">
        <ele>171</ele>
        <time>2017-05-16T10:50:06Z</time>
      </trkpt>
      <trkpt lat="45.92419" lon="4.74777">
        <ele>171</ele>
        <time>2017-05-16T10:50:07Z</time>
      </trkpt>
      <trkpt lat="45.92422" lon="4.74768">
        <ele>171</ele>
        <time>2017-05-16T10:50:08Z</time>
      </trkpt>
      <trkpt lat="45.92424" lon="4.74759">
        <ele>171</ele>
        <time>2017-05-16T10:50:09Z</time>
      </trkpt>
      <trkpt lat="45.92427" lon="4.74751">
        <ele>171</ele>
        <time>2017-05-16T10:50:10Z</time>
      </trkpt>
      <trkpt lat="45.92429" lon="4.74742">
        <ele>171</ele>
        <time>2017-05-16T10:50:11Z</time>
      </trkpt>
      <trkpt lat="45.92432" lon="4.74734">
        <ele>171</ele>
        <time>2017-05-16T10:50:12Z</time>
      </trkpt>
      <trkpt lat="45.92435" lon="4.74726">
        <ele>171</ele>
        <time>2017-05-16T10:50:13Z</time>
      </trkpt>
      <trkpt lat="45.92438" lon="4.74719">
        <ele>171</ele>
        <time>2017-05-16T10:50:14Z</time>
      </trkpt>
      <trkpt lat="45.9244" lon="4.74711">
        <ele>171</ele>
        <time>2017-05-16T10:50:15Z</time>
      </trkpt>
      <trkpt lat="45.92443" lon="4.74704">
        <ele>171</ele>
        <time>2017-05-16T10:50:16Z</time>
      </trkpt>
      <trkpt lat="45.92446" lon="4.74697">
        <ele>171</ele>
        <time>2017-05-16T10:50:17Z</time>
      </trkpt>
      <trkpt lat="45.92449" lon="4.74691">
        <ele>171</ele>
        <time>2017-05-16T10:50:18Z</time>
      </trkpt>
      <trkpt lat="45.92452" lon="4.74684">
        <ele>171</ele>
        <time>2017-05-16T10:50:19Z</time>
      </trkpt>
      <trkpt lat="45.92455" lon="4.74678">
        <ele>171</ele>
        <time>2017-05-16T10:50:20Z</time>
      </trkpt>
      <trkpt lat="45.92458" lon="4.74671">
        <ele>171</ele>
        <time>2017-05-16T10:50:21Z</time>
      </trkpt>
      <trkpt lat="45.92461" lon="4.74665">
        <ele>171</ele>
        <time>2017-05-16T10:50:22Z</time>
      </trkpt>
      <trkpt lat="45.92465" lon="4.74658">
        <ele>171</ele>
        <time>2017-05-16T10:50:23Z</time>
      </trkpt>
      <trkpt lat="45.92469" lon="4.74651">
        <ele>171</ele>
        <time>2017-05-16T10:50:24Z</time>
      </trkpt>
      <trkpt lat="45.92473" lon="4.74644">
        <ele>171</ele>
        <time>2017-05-16T10:50:25Z</time>
      </trkpt>
      <trkpt lat="45.92476" lon="4.74637">
        <ele>171</ele>
        <time>2017-05-16T10:50:26Z</time>
      </trkpt>
      <trkpt lat="45.92482" lon="4.74632">
        <ele>171</ele>
        <time>2017-05-16T10:50:27Z</time>
      </trkpt>
      <trkpt lat="45.92487" lon="4.74625">
        <ele>171</ele>
        <time>2017-05-16T10:50:28Z</time>
      </trkpt>
      <trkpt lat="45.92492" lon="4.7462">
        <ele>171</ele>
        <time>2017-05-16T10:50:29Z</time>
      </trkpt>
      <trkpt lat="45.92498" lon="4.74613">
        <ele>171</ele>
        <time>2017-05-16T10:50:30Z</time>
      </trkpt>
      <trkpt lat="45.92503" lon="4.74607">
        <ele>171</ele>
        <time>2017-05-16T10:50:31Z</time>
      </trkpt>
      <trkpt lat="45.92508" lon="4.74601">
        <ele>171</ele>
        <time>2017-05-16T10:50:32Z</time>
      </trkpt>
      <trkpt lat="45.92513" lon="4.74595">
        <ele>171</ele>
        <time>2017-05-16T10:50:33Z</time>
      </trkpt>
      <trkpt lat="45.92517" lon="4.74589">
        <ele>171</ele>
        <time>2017-05-16T10:50:34Z</time>
      </trkpt>
      <trkpt lat="45.92521" lon="4.74583">
        <ele>171</ele>
        <time>2017-05-16T10:50:35Z</time>
      </trkpt>
      <trkpt lat="45.92525" lon="4.74577">
        <ele>171</ele>
        <time>2017-05-16T10:50:36Z</time>
      </trkpt>
      <trkpt lat="45.9253" lon="4.74571">
        <ele>171</ele>
        <time>2017-05-16T10:50:37Z</time>
      </trkpt>
      <trkpt lat="45.92534" lon="4.74565">
        <ele>171</ele>
        <time>2017-05-16T10:50:38Z</time>
      </trkpt>
      <trkpt lat="45.92538" lon="4.74559">
        <ele>171</ele>
        <time>2017-05-16T10:50:39Z</time>
      </trkpt>
      <trkpt lat="45.92543" lon="4.74553">
        <ele>170</ele>
        <time>2017-05-16T10:50:40Z</time>
      </trkpt>
      <trkpt lat="45.92547" lon="4.74546">
        <ele>170</ele>
        <time>2017-05-16T10:50:41Z</time>
      </trkpt>
      <trkpt lat="45.92551" lon="4.7454">
        <ele>170</ele>
        <time>2017-05-16T10:50:42Z</time>
      </trkpt>
      <trkpt lat="45.92555" lon="4.74533">
        <ele>170</ele>
        <time>2017-05-16T10:50:43Z</time>
      </trkpt>
      <trkpt lat="45.92558" lon="4.74527">
        <ele>170</ele>
        <time>2017-05-16T10:50:44Z</time>
      </trkpt>
      <trkpt lat="45.92562" lon="4.7452">
        <ele>170</ele>
        <time>2017-05-16T10:50:45Z</time>
      </trkpt>
      <trkpt lat="45.92565" lon="4.74514">
        <ele>170</ele>
        <time>2017-05-16T10:50:46Z</time>
      </trkpt>
      <trkpt lat="45.92568" lon="4.74507">
        <ele>170</ele>
        <time>2017-05-16T10:50:47Z</time>
      </trkpt>
      <trkpt lat="45.92572" lon="4.745">
        <ele>170</ele>
        <time>2017-05-16T10:50:48Z</time>
      </trkpt>
      <trkpt lat="45.92576" lon="4.74494">
        <ele>170</ele>
        <time>2017-05-16T10:50:49Z</time>
      </trkpt>
      <trkpt lat="45.9258" lon="4.74487">
        <ele>170</ele>
        <time>2017-05-16T10:50:50Z</time>
      </trkpt>
      <trkpt lat="45.92584" lon="4.74479">
        <ele>170</ele>
        <time>2017-05-16T10:50:51Z</time>
      </trkpt>
      <trkpt lat="45.92588" lon="4.74471">
        <ele>170</ele>
        <time>2017-05-16T10:50:52Z</time>
      </trkpt>
      <trkpt lat="45.92593" lon="4.74463">
        <ele>170</ele>
        <time>2017-05-16T10:50:53Z</time>
      </trkpt>
      <trkpt lat="45.92597" lon="4.74456">
        <ele>170</ele>
        <time>2017-05-16T10:50:54Z</time>
      </trkpt>
      <trkpt lat="45.92601" lon="4.74448">
        <ele>170</ele>
        <time>2017-05-16T10:50:55Z</time>
      </trkpt>
      <trkpt lat="45.92605" lon="4.7444">
        <ele>170</ele>
        <time>2017-05-16T10:50:56Z</time>
      </trkpt>
      <trkpt lat="45.9261" lon="4.74433">
        <ele>170</ele>
        <time>2017-05-16T10:50:57Z</time>
      </trkpt>
      <trkpt lat="45.92614" lon="4.74426">
        <ele>170</ele>
        <time>2017-05-16T10:50:58Z</time>
      </trkpt>
      <trkpt lat="45.92617" lon="4.74419">
        <ele>170</ele>
        <time>2017-05-16T10:50:59Z</time>
      </trkpt>
      <trkpt lat="45.92621" lon="4.74412">
        <ele>170</ele>
        <time>2017-05-16T10:51:00Z</time>
      </trkpt>
      <trkpt lat="45.92624" lon="4.74406">
        <ele>170</ele>
        <time>2017-05-16T10:51:01Z</time>
      </trkpt>
      <trkpt lat="45.92628" lon="4.744">
        <ele>170</ele>
        <time>2017-05-16T10:51:02Z</time>
      </trkpt>
      <trkpt lat="45.92632" lon="4.74394">
        <ele>170</ele>
        <time>2017-05-16T10:51:03Z</time>
      </trkpt>
      <trkpt lat="45.92635" lon="4.74388">
        <ele>170</ele>
        <time>2017-05-16T10:51:04Z</time>
      </trkpt>
      <trkpt lat="45.92638" lon="4.74382">
        <ele>170</ele>
        <time>2017-05-16T10:51:05Z</time>
      </trkpt>
      <trkpt lat="45.92641" lon="4.74376">
        <ele>170</ele>
        <time>2017-05-16T10:51:06Z</time>
      </trkpt>
      <trkpt lat="45.92644" lon="4.7437">
        <ele>171</ele>
        <time>2017-05-16T10:51:07Z</time>
      </trkpt>
      <trkpt lat="45.92647" lon="4.74364">
        <ele>171</ele>
        <time>2017-05-16T10:51:08Z</time>
      </trkpt>
      <trkpt lat="45.92651" lon="4.74358">
        <ele>171</ele>
        <time>2017-05-16T10:51:09Z</time>
      </trkpt>
      <trkpt lat="45.92654" lon="4.74352">
        <ele>171</ele>
        <time>2017-05-16T10:51:10Z</time>
      </trkpt>
      <trkpt lat="45.92657" lon="4.74346">
        <ele>171</ele>
        <time>2017-05-16T10:51:11Z</time>
      </trkpt>
      <trkpt lat="45.92661" lon="4.7434">
        <ele>171</ele>
        <time>2017-05-16T10:51:12Z</time>
      </trkpt>
      <trkpt lat="45.92664" lon="4.74334">
        <ele>171</ele>
        <time>2017-05-16T10:51:13Z</time>
      </trkpt>
      <trkpt lat="45.92667" lon="4.74328">
        <ele>171</ele>
        <time>2017-05-16T10:51:14Z</time>
      </trkpt>
      <trkpt lat="45.9267" lon="4.74321">
        <ele>171</ele>
        <time>2017-05-16T10:51:15Z</time>
      </trkpt>
      <trkpt lat="45.92674" lon="4.74314">
        <ele>171</ele>
        <time>2017-05-16T10:51:16Z</time>
      </trkpt>
      <trkpt lat="45.92677" lon="4.74308">
        <ele>171</ele>
        <time>2017-05-16T10:51:17Z</time>
      </trkpt>
      <trkpt lat="45.92681" lon="4.743">
        <ele>171</ele>
        <time>2017-05-16T10:51:18Z</time>
      </trkpt>
      <trkpt lat="45.92685" lon="4.74293">
        <ele>171</ele>
        <time>2017-05-16T10:51:19Z</time>
      </trkpt>
      <trkpt lat="45.92689" lon="4.74286">
        <ele>171</ele>
        <time>2017-05-16T10:51:20Z</time>
      </trkpt>
      <trkpt lat="45.92693" lon="4.74278">
        <ele>171</ele>
        <time>2017-05-16T10:51:21Z</time>
      </trkpt>
      <trkpt lat="45.92698" lon="4.74271">
        <ele>171</ele>
        <time>2017-05-16T10:51:22Z</time>
      </trkpt>
      <trkpt lat="45.92702" lon="4.74264">
        <ele>171</ele>
        <time>2017-05-16T10:51:23Z</time>
      </trkpt>
      <trkpt lat="45.92706" lon="4.74256">
        <ele>171</ele>
        <time>2017-05-16T10:51:24Z</time>
      </trkpt>
      <trkpt lat="45.9271" lon="4.7425">
        <ele>171</ele>
        <time>2017-05-16T10:51:25Z</time>
      </trkpt>
      <trkpt lat="45.92714" lon="4.74243">
        <ele>171</ele>
        <time>2017-05-16T10:51:26Z</time>
      </trkpt>
      <trkpt lat="45.92718" lon="4.74237">
        <ele>171</ele>
        <time>2017-05-16T10:51:27Z</time>
      </trkpt>
      <trkpt lat="45.92722" lon="4.74231">
        <ele>171</ele>
        <time>2017-05-16T10:51:28Z</time>
      </trkpt>
      <trkpt lat="45.92727" lon="4.74225">
        <ele>171</ele>
        <time>2017-05-16T10:51:29Z</time>
      </trkpt>
      <trkpt lat="45.92731" lon="4.74219">
        <ele>171</ele>
        <time>2017-05-16T10:51:30Z</time>
      </trkpt>
      <trkpt lat="45.92735" lon="4.74213">
        <ele>171</ele>
        <time>2017-05-16T10:51:31Z</time>
      </trkpt>
      <trkpt lat="45.92739" lon="4.74208">
        <ele>171</ele>
        <time>2017-05-16T10:51:32Z</time>
      </trkpt>
      <trkpt lat="45.92743" lon="4.74203">
        <ele>171</ele>
        <time>2017-05-16T10:51:33Z</time>
      </trkpt>
      <trkpt lat="45.92747" lon="4.74197">
        <ele>171</ele>
        <time>2017-05-16T10:51:34Z</time>
      </trkpt>
      <trkpt lat="45.92751" lon="4.74192">
        <ele>172</ele>
        <time>2017-05-16T10:51:35Z</time>
      </trkpt>
      <trkpt lat="45.92755" lon="4.74186">
        <ele>172</ele>
        <time>2017-05-16T10:51:36Z</time>
      </trkpt>
      <trkpt lat="45.92759" lon="4.74181">
        <ele>172</ele>
        <time>2017-05-16T10:51:37Z</time>
      </trkpt>
      <trkpt lat="45.92764" lon="4.74176">
        <ele>172</ele>
        <time>2017-05-16T10:51:38Z</time>
      </trkpt>
      <trkpt lat="45.92768" lon="4.74171">
        <ele>172</ele>
        <time>2017-05-16T10:51:39Z</time>
      </trkpt>
      <trkpt lat="45.92773" lon="4.74166">
        <ele>172</ele>
        <time>2017-05-16T10:51:40Z</time>
      </trkpt>
      <trkpt lat="45.92778" lon="4.74161">
        <ele>172</ele>
        <time>2017-05-16T10:51:41Z</time>
      </trkpt>
      <trkpt lat="45.92782" lon="4.74157">
        <ele>172</ele>
        <time>2017-05-16T10:51:42Z</time>
      </trkpt>
      <trkpt lat="45.92786" lon="4.74151">
        <ele>172</ele>
        <time>2017-05-16T10:51:43Z</time>
      </trkpt>
      <trkpt lat="45.9279" lon="4.74147">
        <ele>172</ele>
        <time>2017-05-16T10:51:44Z</time>
      </trkpt>
      <trkpt lat="45.92795" lon="4.74142">
        <ele>172</ele>
        <time>2017-05-16T10:51:45Z</time>
      </trkpt>
      <trkpt lat="45.928" lon="4.74137">
        <ele>172</ele>
        <time>2017-05-16T10:51:46Z</time>
      </trkpt>
      <trkpt lat="45.92804" lon="4.74133">
        <ele>172</ele>
        <time>2017-05-16T10:51:47Z</time>
      </trkpt>
      <trkpt lat="45.92809" lon="4.74128">
        <ele>172</ele>
        <time>2017-05-16T10:51:48Z</time>
      </trkpt>
      <trkpt lat="45.92813" lon="4.74122">
        <ele>172</ele>
        <time>2017-05-16T10:51:49Z</time>
      </trkpt>
      <trkpt lat="45.92818" lon="4.74117">
        <ele>172</ele>
        <time>2017-05-16T10:51:50Z</time>
      </trkpt>
      <trkpt lat="45.92822" lon="4.74111">
        <ele>171</ele>
        <time>2017-05-16T10:51:51Z</time>
      </trkpt>
      <trkpt lat="45.92827" lon="4.74105">
        <ele>171</ele>
        <time>2017-05-16T10:51:52Z</time>
      </trkpt>
      <trkpt lat="45.92831" lon="4.741">
        <ele>171</ele>
        <time>2017-05-16T10:51:53Z</time>
      </trkpt>
      <trkpt lat="45.92836" lon="4.74096">
        <ele>171</ele>
        <time>2017-05-16T10:51:54Z</time>
      </trkpt>
      <trkpt lat="45.9284" lon="4.74091">
        <ele>171</ele>
        <time>2017-05-16T10:51:55Z</time>
      </trkpt>
      <trkpt lat="45.92844" lon="4.74086">
        <ele>171</ele>
        <time>2017-05-16T10:51:56Z</time>
      </trkpt>
      <trkpt lat="45.92848" lon="4.74081">
        <ele>172</ele>
        <time>2017-05-16T10:51:57Z</time>
      </trkpt>
      <trkpt lat="45.92852" lon="4.74076">
        <ele>172</ele>
        <time>2017-05-16T10:51:58Z</time>
      </trkpt>
      <trkpt lat="45.92856" lon="4.74071">
        <ele>172</ele>
        <time>2017-05-16T10:51:59Z</time>
      </trkpt>
      <trkpt lat="45.92859" lon="4.74066">
        <ele>172</ele>
        <time>2017-05-16T10:52:00Z</time>
      </trkpt>
      <trkpt lat="45.92864" lon="4.74061">
        <ele>172</ele>
        <time>2017-05-16T10:52:01Z</time>
      </trkpt>
      <trkpt lat="45.92868" lon="4.74056">
        <ele>172</ele>
        <time>2017-05-16T10:52:02Z</time>
      </trkpt>
      <trkpt lat="45.92872" lon="4.74051">
        <ele>172</ele>
        <time>2017-05-16T10:52:03Z</time>
      </trkpt>
      <trkpt lat="45.92878" lon="4.74047">
        <ele>172</ele>
        <time>2017-05-16T10:52:04Z</time>
      </trkpt>
      <trkpt lat="45.92883" lon="4.74044">
        <ele>172</ele>
        <time>2017-05-16T10:52:05Z</time>
      </trkpt>
      <trkpt lat="45.92889" lon="4.74043">
        <ele>172</ele>
        <time>2017-05-16T10:52:06Z</time>
      </trkpt>
      <trkpt lat="45.92895" lon="4.74044">
        <ele>172</ele>
        <time>2017-05-16T10:52:07Z</time>
      </trkpt>
      <trkpt lat="45.929" lon="4.74045">
        <ele>172</ele>
        <time>2017-05-16T10:52:08Z</time>
      </trkpt>
      <trkpt lat="45.92905" lon="4.74045">
        <ele>172</ele>
        <time>2017-05-16T10:52:09Z</time>
      </trkpt>
      <trkpt lat="45.9291" lon="4.74042">
        <ele>172</ele>
        <time>2017-05-16T10:52:10Z</time>
      </trkpt>
      <trkpt lat="45.92914" lon="4.74038">
        <ele>172</ele>
        <time>2017-05-16T10:52:11Z</time>
      </trkpt>
      <trkpt lat="45.92917" lon="4.74031">
        <ele>172</ele>
        <time>2017-05-16T10:52:12Z</time>
      </trkpt>
      <trkpt lat="45.9292" lon="4.74024">
        <ele>172</ele>
        <time>2017-05-16T10:52:13Z</time>
      </trkpt>
      <trkpt lat="45.92921" lon="4.74017">
        <ele>172</ele>
        <time>2017-05-16T10:52:14Z</time>
      </trkpt>
      <trkpt lat="45.9292" lon="4.74009">
        <ele>172</ele>
        <time>2017-05-16T10:52:15Z</time>
      </trkpt>
      <trkpt lat="45.92918" lon="4.74002">
        <ele>172</ele>
        <time>2017-05-16T10:52:16Z</time>
      </trkpt>
      <trkpt lat="45.92914" lon="4.73995">
        <ele>172</ele>
        <time>2017-05-16T10:52:17Z</time>
      </trkpt>
      <trkpt lat="45.9291" lon="4.7399">
        <ele>172</ele>
        <time>2017-05-16T10:52:18Z</time>
      </trkpt>
      <trkpt lat="45.92904" lon="4.73986">
        <ele>172</ele>
        <time>2017-05-16T10:52:19Z</time>
      </trkpt>
      <trkpt lat="45.92899" lon="4.73982">
        <ele>172</ele>
        <time>2017-05-16T10:52:20Z</time>
      </trkpt>
      <trkpt lat="45.92893" lon="4.73978">
        <ele>172</ele>
        <time>2017-05-16T10:52:21Z</time>
      </trkpt>
      <trkpt lat="45.9289" lon="4.73971">
        <ele>172</ele>
        <time>2017-05-16T10:52:22Z</time>
      </trkpt>
      <trkpt lat="45.92888" lon="4.73962">
        <ele>172</ele>
        <time>2017-05-16T10:52:23Z</time>
      </trkpt>
      <trkpt lat="45.92887" lon="4.73953">
        <ele>172</ele>
        <time>2017-05-16T10:52:24Z</time>
      </trkpt>
      <trkpt lat="45.92887" lon="4.73944">
        <ele>172</ele>
        <time>2017-05-16T10:52:25Z</time>
      </trkpt>
      <trkpt lat="45.92886" lon="4.73934">
        <ele>172</ele>
        <time>2017-05-16T10:52:26Z</time>
      </trkpt>
      <trkpt lat="45.92886" lon="4.73924">
        <ele>172</ele>
        <time>2017-05-16T10:52:27Z</time>
      </trkpt>
      <trkpt lat="45.92885" lon="4.73914">
        <ele>173</ele>
        <time>2017-05-16T10:52:28Z</time>
      </trkpt>
      <trkpt lat="45.92883" lon="4.73903">
        <ele>173</ele>
        <time>2017-05-16T10:52:29Z</time>
      </trkpt>
      <trkpt lat="45.92882" lon="4.73893">
        <ele>173</ele>
        <time>2017-05-16T10:52:30Z</time>
      </trkpt>
      <trkpt lat="45.9288" lon="4.73883">
        <ele>173</ele>
        <time>2017-05-16T10:52:31Z</time>
      </trkpt>
      <trkpt lat="45.92878" lon="4.73874">
        <ele>173</ele>
        <time>2017-05-16T10:52:32Z</time>
      </trkpt>
      <trkpt lat="45.92876" lon="4.73864">
        <ele>173</ele>
        <time>2017-05-16T10:52:33Z</time>
      </trkpt>
      <trkpt lat="45.92875" lon="4.73855">
        <ele>173</ele>
        <time>2017-05-16T10:52:34Z</time>
      </trkpt>
      <trkpt lat="45.92873" lon="4.73846">
        <ele>173</ele>
        <time>2017-05-16T10:52:35Z</time>
      </trkpt>
      <trkpt lat="45.92869" lon="4.73838">
        <ele>173</ele>
        <time>2017-05-16T10:52:36Z</time>
      </trkpt>
      <trkpt lat="45.92866" lon="4.7383">
        <ele>173</ele>
        <time>2017-05-16T10:52:37Z</time>
      </trkpt>
      <trkpt lat="45.92863" lon="4.73822">
        <ele>173</ele>
        <time>2017-05-16T10:52:38Z</time>
      </trkpt>
      <trkpt lat="45.92861" lon="4.73815">
        <ele>173</ele>
        <time>2017-05-16T10:52:39Z</time>
      </trkpt>
      <trkpt lat="45.92858" lon="4.73804">
        <ele>173</ele>
        <time>2017-05-16T10:52:41Z</time>
      </trkpt>
      <trkpt lat="45.92857" lon="4.73799">
        <ele>173</ele>
        <time>2017-05-16T10:52:42Z</time>
      </trkpt>
      <trkpt lat="45.92854" lon="4.73789">
        <ele>173</ele>
        <time>2017-05-16T10:52:44Z</time>
      </trkpt>
      <trkpt lat="45.92851" lon="4.73785">
        <ele>173</ele>
        <time>2017-05-16T10:52:45Z</time>
      </trkpt>
      <trkpt lat="45.92846" lon="4.73784">
        <ele>173</ele>
        <time>2017-05-16T10:52:46Z</time>
      </trkpt>
      <trkpt lat="45.92841" lon="4.73784">
        <ele>173</ele>
        <time>2017-05-16T10:52:47Z</time>
      </trkpt>
      <trkpt lat="45.92833" lon="4.73782">
        <ele>173</ele>
        <time>2017-05-16T10:52:49Z</time>
      </trkpt>
      <trkpt lat="45.92828" lon="4.7378">
        <ele>173</ele>
        <time>2017-05-16T10:52:50Z</time>
      </trkpt>
      <trkpt lat="45.92824" lon="4.73777">
        <ele>173</ele>
        <time>2017-05-16T10:52:51Z</time>
      </trkpt>
      <trkpt lat="45.9282" lon="4.73774">
        <ele>173</ele>
        <time>2017-05-16T10:52:52Z</time>
      </trkpt>
      <trkpt lat="45.92816" lon="4.73771">
        <ele>173</ele>
        <time>2017-05-16T10:52:53Z</time>
      </trkpt>
      <trkpt lat="45.92812" lon="4.73768">
        <ele>173</ele>
        <time>2017-05-16T10:52:54Z</time>
      </trkpt>
      <trkpt lat="45.92805" lon="4.73763">
        <ele>173</ele>
        <time>2017-05-16T10:52:56Z</time>
      </trkpt>
      <trkpt lat="45.92801" lon="4.7376">
        <ele>173</ele>
        <time>2017-05-16T10:52:57Z</time>
      </trkpt>
      <trkpt lat="45.92793" lon="4.73755">
        <ele>173</ele>
        <time>2017-05-16T10:52:59Z</time>
      </trkpt>
      <trkpt lat="45.9279" lon="4.73751">
        <ele>173</ele>
        <time>2017-05-16T10:53:00Z</time>
      </trkpt>
      <trkpt lat="45.92784" lon="4.73742">
        <ele>172</ele>
        <time>2017-05-16T10:53:02Z</time>
      </trkpt>
      <trkpt lat="45.92781" lon="4.73738">
        <ele>172</ele>
        <time>2017-05-16T10:53:03Z</time>
      </trkpt>
      <trkpt lat="45.92776" lon="4.73736">
        <ele>172</ele>
        <time>2017-05-16T10:53:04Z</time>
      </trkpt>
      <trkpt lat="45.92772" lon="4.73734">
        <ele>172</ele>
        <time>2017-05-16T10:53:05Z</time>
      </trkpt>
      <trkpt lat="45.92764" lon="4.7373">
        <ele>172</ele>
        <time>2017-05-16T10:53:07Z</time>
      </trkpt>
      <trkpt lat="45.9276" lon="4.73728">
        <ele>172</ele>
        <time>2017-05-16T10:53:08Z</time>
      </trkpt>
      <trkpt lat="45.92757" lon="4.73725">
        <ele>172</ele>
        <time>2017-05-16T10:53:09Z</time>
      </trkpt>
      <trkpt lat="45.92752" lon="4.73723">
        <ele>172</ele>
        <time>2017-05-16T10:53:10Z</time>
      </trkpt>
      <trkpt lat="45.92746" lon="4.73721">
        <ele>173</ele>
        <time>2017-05-16T10:53:11Z</time>
      </trkpt>
      <trkpt lat="45.92739" lon="4.73719">
        <ele>173</ele>
        <time>2017-05-16T10:53:12Z</time>
      </trkpt>
      <trkpt lat="45.92733" lon="4.73717">
        <ele>173</ele>
        <time>2017-05-16T10:53:13Z</time>
      </trkpt>
      <trkpt lat="45.92727" lon="4.73715">
        <ele>173</ele>
        <time>2017-05-16T10:53:14Z</time>
      </trkpt>
      <trkpt lat="45.92721" lon="4.73713">
        <ele>173</ele>
        <time>2017-05-16T10:53:15Z</time>
      </trkpt>
      <trkpt lat="45.92716" lon="4.73713">
        <ele>173</ele>
        <time>2017-05-16T10:53:16Z</time>
      </trkpt>
      <trkpt lat="45.9271" lon="4.73712">
        <ele>173</ele>
        <time>2017-05-16T10:53:17Z</time>
      </trkpt>
      <trkpt lat="45.92705" lon="4.73711">
        <ele>173</ele>
        <time>2017-05-16T10:53:18Z</time>
      </trkpt>
      <trkpt lat="45.92699" lon="4.7371">
        <ele>173</ele>
        <time>2017-05-16T10:53:19Z</time>
      </trkpt>
      <trkpt lat="45.92694" lon="4.7371">
        <ele>173</ele>
        <time>2017-05-16T10:53:20Z</time>
      </trkpt>
      <trkpt lat="45.92689" lon="4.73709">
        <ele>173</ele>
        <time>2017-05-16T10:53:21Z</time>
      </trkpt>
      <trkpt lat="45.92684" lon="4.73707">
        <ele>173</ele>
        <time>2017-05-16T10:53:22Z</time>
      </trkpt>
      <trkpt lat="45.92679" lon="4.73705">
        <ele>173</ele>
        <time>2017-05-16T10:53:23Z</time>
      </trkpt>
      <trkpt lat="45.92675" lon="4.73702">
        <ele>174</ele>
        <time>2017-05-16T10:53:24Z</time>
      </trkpt>
      <trkpt lat="45.9267" lon="4.73699">
        <ele>174</ele>
        <time>2017-05-16T10:53:25Z</time>
      </trkpt>
      <trkpt lat="45.92666" lon="4.73696">
        <ele>173</ele>
        <time>2017-05-16T10:53:26Z</time>
      </trkpt>
      <trkpt lat="45.92662" lon="4.73692">
        <ele>173</ele>
        <time>2017-05-16T10:53:27Z</time>
      </trkpt>
      <trkpt lat="45.92657" lon="4.73688">
        <ele>173</ele>
        <time>2017-05-16T10:53:28Z</time>
      </trkpt>
      <trkpt lat="45.92652" lon="4.73683">
        <ele>173</ele>
        <time>2017-05-16T10:53:29Z</time>
      </trkpt>
      <trkpt lat="45.92648" lon="4.73678">
        <ele>173</ele>
        <time>2017-05-16T10:53:30Z</time>
      </trkpt>
      <trkpt lat="45.92645" lon="4.73672">
        <ele>173</ele>
        <time>2017-05-16T10:53:31Z</time>
      </trkpt>
      <trkpt lat="45.92642" lon="4.73666">
        <ele>173</ele>
        <time>2017-05-16T10:53:32Z</time>
      </trkpt>
      <trkpt lat="45.9264" lon="4.7366">
        <ele>173</ele>
        <time>2017-05-16T10:53:33Z</time>
      </trkpt>
      <trkpt lat="45.92638" lon="4.73654">
        <ele>173</ele>
        <time>2017-05-16T10:53:34Z</time>
      </trkpt>
      <trkpt lat="45.92634" lon="4.73643">
        <ele>173</ele>
        <time>2017-05-16T10:53:36Z</time>
      </trkpt>
      <trkpt lat="45.92632" lon="4.73637">
        <ele>173</ele>
        <time>2017-05-16T10:53:37Z</time>
      </trkpt>
      <trkpt lat="45.92628" lon="4.73632">
        <ele>173</ele>
        <time>2017-05-16T10:53:38Z</time>
      </trkpt>
      <trkpt lat="45.92624" lon="4.73627">
        <ele>173</ele>
        <time>2017-05-16T10:53:39Z</time>
      </trkpt>
      <trkpt lat="45.9262" lon="4.73625">
        <ele>173</ele>
        <time>2017-05-16T10:53:40Z</time>
      </trkpt>
      <trkpt lat="45.92614" lon="4.73623">
        <ele>173</ele>
        <time>2017-05-16T10:53:41Z</time>
      </trkpt>
      <trkpt lat="45.92609" lon="4.73622">
        <ele>173</ele>
        <time>2017-05-16T10:53:42Z</time>
      </trkpt>
      <trkpt lat="45.92603" lon="4.73621">
        <ele>173</ele>
        <time>2017-05-16T10:53:43Z</time>
      </trkpt>
      <trkpt lat="45.92598" lon="4.73621">
        <ele>173</ele>
        <time>2017-05-16T10:53:44Z</time>
      </trkpt>
      <trkpt lat="45.92592" lon="4.73621">
        <ele>173</ele>
        <time>2017-05-16T10:53:45Z</time>
      </trkpt>
      <trkpt lat="45.92586" lon="4.73622">
        <ele>173</ele>
        <time>2017-05-16T10:53:46Z</time>
      </trkpt>
      <trkpt lat="45.9258" lon="4.73624">
        <ele>173</ele>
        <time>2017-05-16T10:53:47Z</time>
      </trkpt>
      <trkpt lat="45.92574" lon="4.73625">
        <ele>173</ele>
        <time>2017-05-16T10:53:48Z</time>
      </trkpt>
      <trkpt lat="45.92568" lon="4.73627">
        <ele>173</ele>
        <time>2017-05-16T10:53:49Z</time>
      </trkpt>
      <trkpt lat="45.92561" lon="4.7363">
        <ele>173</ele>
        <time>2017-05-16T10:53:50Z</time>
      </trkpt>
      <trkpt lat="45.92555" lon="4.73631">
        <ele>173</ele>
        <time>2017-05-16T10:53:51Z</time>
      </trkpt>
      <trkpt lat="45.92548" lon="4.73633">
        <ele>173</ele>
        <time>2017-05-16T10:53:52Z</time>
      </trkpt>
      <trkpt lat="45.92542" lon="4.73635">
        <ele>173</ele>
        <time>2017-05-16T10:53:53Z</time>
      </trkpt>
      <trkpt lat="45.92536" lon="4.73636">
        <ele>173</ele>
        <time>2017-05-16T10:53:54Z</time>
      </trkpt>
      <trkpt lat="45.92529" lon="4.73638">
        <ele>173</ele>
        <time>2017-05-16T10:53:55Z</time>
      </trkpt>
      <trkpt lat="45.92523" lon="4.73639">
        <ele>173</ele>
        <time>2017-05-16T10:53:56Z</time>
      </trkpt>
      <trkpt lat="45.92517" lon="4.73639">
        <ele>173</ele>
        <time>2017-05-16T10:53:57Z</time>
      </trkpt>
      <trkpt lat="45.92511" lon="4.7364">
        <ele>174</ele>
        <time>2017-05-16T10:53:58Z</time>
      </trkpt>
      <trkpt lat="45.92506" lon="4.7364">
        <ele>174</ele>
        <time>2017-05-16T10:53:59Z</time>
      </trkpt>
      <trkpt lat="45.92501" lon="4.73641">
        <ele>174</ele>
        <time>2017-05-16T10:54:00Z</time>
      </trkpt>
      <trkpt lat="45.92496" lon="4.73641">
        <ele>174</ele>
        <time>2017-05-16T10:54:01Z</time>
      </trkpt>
      <trkpt lat="45.92488" lon="4.73641">
        <ele>174</ele>
        <time>2017-05-16T10:54:03Z</time>
      </trkpt>
      <trkpt lat="45.92483" lon="4.73642">
        <ele>174</ele>
        <time>2017-05-16T10:54:04Z</time>
      </trkpt>
      <trkpt lat="45.92475" lon="4.73645">
        <ele>174</ele>
        <time>2017-05-16T10:54:06Z</time>
      </trkpt>
      <trkpt lat="45.92471" lon="4.73649">
        <ele>174</ele>
        <time>2017-05-16T10:54:07Z</time>
      </trkpt>
      <trkpt lat="45.92467" lon="4.7366">
        <ele>174</ele>
        <time>2017-05-16T10:54:09Z</time>
      </trkpt>
      <trkpt lat="45.92466" lon="4.73665">
        <ele>174</ele>
        <time>2017-05-16T10:54:10Z</time>
      </trkpt>
      <trkpt lat="45.92466" lon="4.73675">
        <ele>174</ele>
        <time>2017-05-16T10:54:12Z</time>
      </trkpt>
      <trkpt lat="45.92466" lon="4.73678">
        <ele>174</ele>
        <time>2017-05-16T10:54:13Z</time>
      </trkpt>
      <trkpt lat="45.92464" lon="4.7369">
        <ele>174</ele>
        <time>2017-05-16T10:54:16Z</time>
      </trkpt>
      <trkpt lat="45.92463" lon="4.73694">
        <ele>174</ele>
        <time>2017-05-16T10:54:17Z</time>
      </trkpt>
      <trkpt lat="45.92461" lon="4.73706">
        <ele>174</ele>
        <time>2017-05-16T10:54:20Z</time>
      </trkpt>
      <trkpt lat="45.92461" lon="4.73707">
        <ele>174</ele>
        <time>2017-05-16T10:54:21Z</time>
      </trkpt>
      <trkpt lat="45.9246" lon="4.73705">
        <ele>174</ele>
        <time>2017-05-16T10:54:49.417Z</time>
      </trkpt>
    </trkseg>
  </trk>
</gpx>